<?xml version="1.0" encoding="UTF-8" standalone="no" ?>
<gpx xmlns="http://www.topografix.com/GPX/1/1" xmlns:xsi="http://www.w3.org/2001/XMLSchema-instance" xsi:schemaLocation="http://www.topografix.com/GPX/1/1 http://www.topografix.com/GPX/1/1/gpx.xsd" version="1.1" creator="VisuGPX - https://www.visugpx.com">
  <metadata>
    <name>Cyclo-tourisme dans la vallée du Tarn - 1</name>
    <desc><![CDATA[Cyclo-tourisme dans la vallée du Tarn ]]></desc>
  </metadata>
  <trk>
    <name><![CDATA[2015-04-05-01]]></name>
    <trkseg>
      <trkpt lat="43.94592" lon="2.20956">
        <ele>136.2</ele>
        <time>2015-04-05T09:30:25Z</time>
      </trkpt>
      <trkpt lat="43.94592" lon="2.20956">
        <ele>136.2</ele>
        <time>2015-04-05T09:30:26Z</time>
      </trkpt>
      <trkpt lat="43.946" lon="2.20963">
        <ele>139.2</ele>
        <time>2015-04-05T09:32:07Z</time>
      </trkpt>
      <trkpt lat="43.94592" lon="2.20955">
        <ele>138.2</ele>
        <time>2015-04-05T09:34:05Z</time>
      </trkpt>
      <trkpt lat="43.94598" lon="2.20965">
        <ele>133.9</ele>
        <time>2015-04-05T09:40:04Z</time>
      </trkpt>
      <trkpt lat="43.94607" lon="2.20971">
        <ele>132</ele>
        <time>2015-04-05T09:40:25Z</time>
      </trkpt>
      <trkpt lat="43.94617" lon="2.20976">
        <ele>132.2</ele>
        <time>2015-04-05T09:40:30Z</time>
      </trkpt>
      <trkpt lat="43.94626" lon="2.2098">
        <ele>131.4</ele>
        <time>2015-04-05T09:40:34Z</time>
      </trkpt>
      <trkpt lat="43.94636" lon="2.20985">
        <ele>132.3</ele>
        <time>2015-04-05T09:40:38Z</time>
      </trkpt>
      <trkpt lat="43.94647" lon="2.20988">
        <ele>132.4</ele>
        <time>2015-04-05T09:40:42Z</time>
      </trkpt>
      <trkpt lat="43.94657" lon="2.20991">
        <ele>131.6</ele>
        <time>2015-04-05T09:40:46Z</time>
      </trkpt>
      <trkpt lat="43.94666" lon="2.20997">
        <ele>130.9</ele>
        <time>2015-04-05T09:40:50Z</time>
      </trkpt>
      <trkpt lat="43.94673" lon="2.21009">
        <ele>132.7</ele>
        <time>2015-04-05T09:40:59Z</time>
      </trkpt>
      <trkpt lat="43.94681" lon="2.21014">
        <ele>132.4</ele>
        <time>2015-04-05T09:41:02Z</time>
      </trkpt>
      <trkpt lat="43.94692" lon="2.21019">
        <ele>131.3</ele>
        <time>2015-04-05T09:41:05Z</time>
      </trkpt>
      <trkpt lat="43.94703" lon="2.21022">
        <ele>131</ele>
        <time>2015-04-05T09:41:08Z</time>
      </trkpt>
      <trkpt lat="43.94714" lon="2.21024">
        <ele>132</ele>
        <time>2015-04-05T09:41:11Z</time>
      </trkpt>
      <trkpt lat="43.94725" lon="2.21027">
        <ele>132.1</ele>
        <time>2015-04-05T09:41:14Z</time>
      </trkpt>
      <trkpt lat="43.94735" lon="2.21029">
        <ele>133.2</ele>
        <time>2015-04-05T09:41:17Z</time>
      </trkpt>
      <trkpt lat="43.94746" lon="2.21032">
        <ele>133.2</ele>
        <time>2015-04-05T09:41:20Z</time>
      </trkpt>
      <trkpt lat="43.94755" lon="2.21033">
        <ele>134.3</ele>
        <time>2015-04-05T09:41:23Z</time>
      </trkpt>
      <trkpt lat="43.94764" lon="2.21035">
        <ele>134.3</ele>
        <time>2015-04-05T09:41:26Z</time>
      </trkpt>
      <trkpt lat="43.94773" lon="2.21038">
        <ele>133.5</ele>
        <time>2015-04-05T09:41:29Z</time>
      </trkpt>
      <trkpt lat="43.94782" lon="2.21041">
        <ele>133</ele>
        <time>2015-04-05T09:41:32Z</time>
      </trkpt>
      <trkpt lat="43.94791" lon="2.21045">
        <ele>133</ele>
        <time>2015-04-05T09:41:35Z</time>
      </trkpt>
      <trkpt lat="43.94802" lon="2.21048">
        <ele>132.8</ele>
        <time>2015-04-05T09:41:38Z</time>
      </trkpt>
      <trkpt lat="43.94815" lon="2.2105">
        <ele>132.5</ele>
        <time>2015-04-05T09:41:41Z</time>
      </trkpt>
      <trkpt lat="43.94827" lon="2.21053">
        <ele>132.5</ele>
        <time>2015-04-05T09:41:44Z</time>
      </trkpt>
      <trkpt lat="43.9484" lon="2.21057">
        <ele>132.3</ele>
        <time>2015-04-05T09:41:47Z</time>
      </trkpt>
      <trkpt lat="43.94849" lon="2.2106">
        <ele>133.4</ele>
        <time>2015-04-05T09:41:49Z</time>
      </trkpt>
      <trkpt lat="43.94862" lon="2.21065">
        <ele>134.8</ele>
        <time>2015-04-05T09:41:52Z</time>
      </trkpt>
      <trkpt lat="43.94872" lon="2.21067">
        <ele>135.8</ele>
        <time>2015-04-05T09:41:55Z</time>
      </trkpt>
      <trkpt lat="43.94881" lon="2.21071">
        <ele>136.8</ele>
        <time>2015-04-05T09:41:58Z</time>
      </trkpt>
      <trkpt lat="43.94892" lon="2.21074">
        <ele>136.4</ele>
        <time>2015-04-05T09:42:02Z</time>
      </trkpt>
      <trkpt lat="43.94903" lon="2.21078">
        <ele>136.3</ele>
        <time>2015-04-05T09:42:06Z</time>
      </trkpt>
      <trkpt lat="43.94915" lon="2.21079">
        <ele>136.4</ele>
        <time>2015-04-05T09:42:09Z</time>
      </trkpt>
      <trkpt lat="43.94924" lon="2.2108">
        <ele>135.9</ele>
        <time>2015-04-05T09:42:11Z</time>
      </trkpt>
      <trkpt lat="43.94934" lon="2.21079">
        <ele>136.2</ele>
        <time>2015-04-05T09:42:13Z</time>
      </trkpt>
      <trkpt lat="43.94943" lon="2.21079">
        <ele>136</ele>
        <time>2015-04-05T09:42:15Z</time>
      </trkpt>
      <trkpt lat="43.94952" lon="2.21079">
        <ele>136.1</ele>
        <time>2015-04-05T09:42:17Z</time>
      </trkpt>
      <trkpt lat="43.94964" lon="2.2108">
        <ele>136.3</ele>
        <time>2015-04-05T09:42:20Z</time>
      </trkpt>
      <trkpt lat="43.94977" lon="2.21082">
        <ele>137.1</ele>
        <time>2015-04-05T09:42:23Z</time>
      </trkpt>
      <trkpt lat="43.94986" lon="2.21083">
        <ele>137.6</ele>
        <time>2015-04-05T09:42:25Z</time>
      </trkpt>
      <trkpt lat="43.94997" lon="2.21085">
        <ele>136.9</ele>
        <time>2015-04-05T09:42:27Z</time>
      </trkpt>
      <trkpt lat="43.95007" lon="2.21087">
        <ele>136.6</ele>
        <time>2015-04-05T09:42:29Z</time>
      </trkpt>
      <trkpt lat="43.95017" lon="2.21088">
        <ele>136.6</ele>
        <time>2015-04-05T09:42:31Z</time>
      </trkpt>
      <trkpt lat="43.95027" lon="2.2109">
        <ele>137.2</ele>
        <time>2015-04-05T09:42:33Z</time>
      </trkpt>
      <trkpt lat="43.95038" lon="2.2109">
        <ele>138.3</ele>
        <time>2015-04-05T09:42:36Z</time>
      </trkpt>
      <trkpt lat="43.95049" lon="2.21094">
        <ele>135.4</ele>
        <time>2015-04-05T09:42:39Z</time>
      </trkpt>
      <trkpt lat="43.95059" lon="2.21102">
        <ele>133.8</ele>
        <time>2015-04-05T09:42:42Z</time>
      </trkpt>
      <trkpt lat="43.95069" lon="2.21108">
        <ele>131.2</ele>
        <time>2015-04-05T09:42:45Z</time>
      </trkpt>
      <trkpt lat="43.9508" lon="2.21112">
        <ele>129</ele>
        <time>2015-04-05T09:42:49Z</time>
      </trkpt>
      <trkpt lat="43.95088" lon="2.21123">
        <ele>128.3</ele>
        <time>2015-04-05T09:42:52Z</time>
      </trkpt>
      <trkpt lat="43.95095" lon="2.21139">
        <ele>127.7</ele>
        <time>2015-04-05T09:42:55Z</time>
      </trkpt>
      <trkpt lat="43.95101" lon="2.2115">
        <ele>127.4</ele>
        <time>2015-04-05T09:42:57Z</time>
      </trkpt>
      <trkpt lat="43.95108" lon="2.21162">
        <ele>127.5</ele>
        <time>2015-04-05T09:42:59Z</time>
      </trkpt>
      <trkpt lat="43.95114" lon="2.21173">
        <ele>127.5</ele>
        <time>2015-04-05T09:43:01Z</time>
      </trkpt>
      <trkpt lat="43.9512" lon="2.21186">
        <ele>127.1</ele>
        <time>2015-04-05T09:43:03Z</time>
      </trkpt>
      <trkpt lat="43.95127" lon="2.21198">
        <ele>126.8</ele>
        <time>2015-04-05T09:43:05Z</time>
      </trkpt>
      <trkpt lat="43.95134" lon="2.21212">
        <ele>125.4</ele>
        <time>2015-04-05T09:43:07Z</time>
      </trkpt>
      <trkpt lat="43.95141" lon="2.21226">
        <ele>125.7</ele>
        <time>2015-04-05T09:43:09Z</time>
      </trkpt>
      <trkpt lat="43.95149" lon="2.21241">
        <ele>125.5</ele>
        <time>2015-04-05T09:43:11Z</time>
      </trkpt>
      <trkpt lat="43.95156" lon="2.21256">
        <ele>125</ele>
        <time>2015-04-05T09:43:13Z</time>
      </trkpt>
      <trkpt lat="43.95163" lon="2.21271">
        <ele>125.2</ele>
        <time>2015-04-05T09:43:15Z</time>
      </trkpt>
      <trkpt lat="43.95166" lon="2.21285">
        <ele>126.3</ele>
        <time>2015-04-05T09:43:17Z</time>
      </trkpt>
      <trkpt lat="43.95167" lon="2.21299">
        <ele>126.8</ele>
        <time>2015-04-05T09:43:19Z</time>
      </trkpt>
      <trkpt lat="43.95168" lon="2.21313">
        <ele>127.5</ele>
        <time>2015-04-05T09:43:21Z</time>
      </trkpt>
      <trkpt lat="43.9517" lon="2.21327">
        <ele>127.5</ele>
        <time>2015-04-05T09:43:23Z</time>
      </trkpt>
      <trkpt lat="43.95171" lon="2.2134">
        <ele>127.1</ele>
        <time>2015-04-05T09:43:25Z</time>
      </trkpt>
      <trkpt lat="43.95172" lon="2.21353">
        <ele>127.6</ele>
        <time>2015-04-05T09:43:27Z</time>
      </trkpt>
      <trkpt lat="43.95173" lon="2.21366">
        <ele>127.9</ele>
        <time>2015-04-05T09:43:29Z</time>
      </trkpt>
      <trkpt lat="43.95174" lon="2.21379">
        <ele>128.2</ele>
        <time>2015-04-05T09:43:31Z</time>
      </trkpt>
      <trkpt lat="43.95175" lon="2.21391">
        <ele>128.2</ele>
        <time>2015-04-05T09:43:33Z</time>
      </trkpt>
      <trkpt lat="43.95176" lon="2.21405">
        <ele>128.5</ele>
        <time>2015-04-05T09:43:35Z</time>
      </trkpt>
      <trkpt lat="43.95178" lon="2.21418">
        <ele>128.5</ele>
        <time>2015-04-05T09:43:37Z</time>
      </trkpt>
      <trkpt lat="43.95179" lon="2.21432">
        <ele>128.7</ele>
        <time>2015-04-05T09:43:39Z</time>
      </trkpt>
      <trkpt lat="43.95179" lon="2.21445">
        <ele>129</ele>
        <time>2015-04-05T09:43:41Z</time>
      </trkpt>
      <trkpt lat="43.95181" lon="2.21459">
        <ele>128.9</ele>
        <time>2015-04-05T09:43:43Z</time>
      </trkpt>
      <trkpt lat="43.95181" lon="2.21473">
        <ele>129.1</ele>
        <time>2015-04-05T09:43:45Z</time>
      </trkpt>
      <trkpt lat="43.95182" lon="2.21487">
        <ele>128.8</ele>
        <time>2015-04-05T09:43:47Z</time>
      </trkpt>
      <trkpt lat="43.95184" lon="2.21502">
        <ele>128.5</ele>
        <time>2015-04-05T09:43:49Z</time>
      </trkpt>
      <trkpt lat="43.95184" lon="2.21516">
        <ele>127.9</ele>
        <time>2015-04-05T09:43:51Z</time>
      </trkpt>
      <trkpt lat="43.95185" lon="2.2153">
        <ele>127.5</ele>
        <time>2015-04-05T09:43:53Z</time>
      </trkpt>
      <trkpt lat="43.95186" lon="2.21544">
        <ele>127.4</ele>
        <time>2015-04-05T09:43:55Z</time>
      </trkpt>
      <trkpt lat="43.95187" lon="2.21559">
        <ele>127.2</ele>
        <time>2015-04-05T09:43:57Z</time>
      </trkpt>
      <trkpt lat="43.95188" lon="2.21574">
        <ele>126.8</ele>
        <time>2015-04-05T09:43:59Z</time>
      </trkpt>
      <trkpt lat="43.9519" lon="2.21589">
        <ele>127.1</ele>
        <time>2015-04-05T09:44:01Z</time>
      </trkpt>
      <trkpt lat="43.95191" lon="2.21604">
        <ele>127.1</ele>
        <time>2015-04-05T09:44:03Z</time>
      </trkpt>
      <trkpt lat="43.95192" lon="2.21617">
        <ele>127.2</ele>
        <time>2015-04-05T09:44:05Z</time>
      </trkpt>
      <trkpt lat="43.95194" lon="2.21632">
        <ele>127.2</ele>
        <time>2015-04-05T09:44:07Z</time>
      </trkpt>
      <trkpt lat="43.95196" lon="2.21646">
        <ele>127.6</ele>
        <time>2015-04-05T09:44:09Z</time>
      </trkpt>
      <trkpt lat="43.95199" lon="2.2166">
        <ele>128</ele>
        <time>2015-04-05T09:44:11Z</time>
      </trkpt>
      <trkpt lat="43.95202" lon="2.21674">
        <ele>127.8</ele>
        <time>2015-04-05T09:44:13Z</time>
      </trkpt>
      <trkpt lat="43.95205" lon="2.21688">
        <ele>127.1</ele>
        <time>2015-04-05T09:44:15Z</time>
      </trkpt>
      <trkpt lat="43.95208" lon="2.21702">
        <ele>127</ele>
        <time>2015-04-05T09:44:17Z</time>
      </trkpt>
      <trkpt lat="43.95211" lon="2.21717">
        <ele>126.5</ele>
        <time>2015-04-05T09:44:19Z</time>
      </trkpt>
      <trkpt lat="43.95214" lon="2.21731">
        <ele>126.3</ele>
        <time>2015-04-05T09:44:21Z</time>
      </trkpt>
      <trkpt lat="43.95216" lon="2.21746">
        <ele>126.2</ele>
        <time>2015-04-05T09:44:23Z</time>
      </trkpt>
      <trkpt lat="43.95218" lon="2.2176">
        <ele>126.1</ele>
        <time>2015-04-05T09:44:25Z</time>
      </trkpt>
      <trkpt lat="43.9522" lon="2.21775">
        <ele>125.9</ele>
        <time>2015-04-05T09:44:27Z</time>
      </trkpt>
      <trkpt lat="43.95221" lon="2.2179">
        <ele>125.7</ele>
        <time>2015-04-05T09:44:29Z</time>
      </trkpt>
      <trkpt lat="43.95222" lon="2.21806">
        <ele>125.5</ele>
        <time>2015-04-05T09:44:31Z</time>
      </trkpt>
      <trkpt lat="43.95223" lon="2.21822">
        <ele>125.4</ele>
        <time>2015-04-05T09:44:33Z</time>
      </trkpt>
      <trkpt lat="43.95223" lon="2.21839">
        <ele>125.3</ele>
        <time>2015-04-05T09:44:35Z</time>
      </trkpt>
      <trkpt lat="43.95223" lon="2.21855">
        <ele>125.4</ele>
        <time>2015-04-05T09:44:37Z</time>
      </trkpt>
      <trkpt lat="43.95222" lon="2.21872">
        <ele>125.4</ele>
        <time>2015-04-05T09:44:39Z</time>
      </trkpt>
      <trkpt lat="43.9522" lon="2.21889">
        <ele>125.3</ele>
        <time>2015-04-05T09:44:41Z</time>
      </trkpt>
      <trkpt lat="43.95219" lon="2.21905">
        <ele>125.2</ele>
        <time>2015-04-05T09:44:43Z</time>
      </trkpt>
      <trkpt lat="43.95217" lon="2.21921">
        <ele>125.4</ele>
        <time>2015-04-05T09:44:45Z</time>
      </trkpt>
      <trkpt lat="43.95215" lon="2.21937">
        <ele>125.5</ele>
        <time>2015-04-05T09:44:47Z</time>
      </trkpt>
      <trkpt lat="43.95213" lon="2.21955">
        <ele>125.3</ele>
        <time>2015-04-05T09:44:49Z</time>
      </trkpt>
      <trkpt lat="43.9521" lon="2.21974">
        <ele>125.1</ele>
        <time>2015-04-05T09:44:51Z</time>
      </trkpt>
      <trkpt lat="43.95207" lon="2.21996">
        <ele>125.2</ele>
        <time>2015-04-05T09:44:53Z</time>
      </trkpt>
      <trkpt lat="43.95202" lon="2.22018">
        <ele>124.9</ele>
        <time>2015-04-05T09:44:55Z</time>
      </trkpt>
      <trkpt lat="43.95195" lon="2.2204">
        <ele>124.7</ele>
        <time>2015-04-05T09:44:57Z</time>
      </trkpt>
      <trkpt lat="43.95189" lon="2.22061">
        <ele>124.1</ele>
        <time>2015-04-05T09:44:59Z</time>
      </trkpt>
      <trkpt lat="43.95181" lon="2.22082">
        <ele>123.4</ele>
        <time>2015-04-05T09:45:01Z</time>
      </trkpt>
      <trkpt lat="43.95171" lon="2.22101">
        <ele>122.8</ele>
        <time>2015-04-05T09:45:03Z</time>
      </trkpt>
      <trkpt lat="43.95161" lon="2.2212">
        <ele>121.9</ele>
        <time>2015-04-05T09:45:05Z</time>
      </trkpt>
      <trkpt lat="43.95151" lon="2.22136">
        <ele>122.3</ele>
        <time>2015-04-05T09:45:07Z</time>
      </trkpt>
      <trkpt lat="43.95142" lon="2.22154">
        <ele>122</ele>
        <time>2015-04-05T09:45:09Z</time>
      </trkpt>
      <trkpt lat="43.95132" lon="2.2217">
        <ele>121.5</ele>
        <time>2015-04-05T09:45:11Z</time>
      </trkpt>
      <trkpt lat="43.95123" lon="2.22187">
        <ele>121.9</ele>
        <time>2015-04-05T09:45:13Z</time>
      </trkpt>
      <trkpt lat="43.95114" lon="2.22203">
        <ele>122.2</ele>
        <time>2015-04-05T09:45:15Z</time>
      </trkpt>
      <trkpt lat="43.95105" lon="2.22218">
        <ele>122.7</ele>
        <time>2015-04-05T09:45:17Z</time>
      </trkpt>
      <trkpt lat="43.95096" lon="2.22233">
        <ele>122.4</ele>
        <time>2015-04-05T09:45:19Z</time>
      </trkpt>
      <trkpt lat="43.95088" lon="2.22248">
        <ele>122.3</ele>
        <time>2015-04-05T09:45:21Z</time>
      </trkpt>
      <trkpt lat="43.9508" lon="2.22264">
        <ele>122.2</ele>
        <time>2015-04-05T09:45:23Z</time>
      </trkpt>
      <trkpt lat="43.95074" lon="2.2228">
        <ele>121.8</ele>
        <time>2015-04-05T09:45:25Z</time>
      </trkpt>
      <trkpt lat="43.95069" lon="2.22296">
        <ele>121.8</ele>
        <time>2015-04-05T09:45:27Z</time>
      </trkpt>
      <trkpt lat="43.95064" lon="2.22313">
        <ele>122.1</ele>
        <time>2015-04-05T09:45:29Z</time>
      </trkpt>
      <trkpt lat="43.95061" lon="2.2233">
        <ele>122.6</ele>
        <time>2015-04-05T09:45:31Z</time>
      </trkpt>
      <trkpt lat="43.95056" lon="2.22347">
        <ele>123.1</ele>
        <time>2015-04-05T09:45:33Z</time>
      </trkpt>
      <trkpt lat="43.95052" lon="2.22364">
        <ele>123.6</ele>
        <time>2015-04-05T09:45:35Z</time>
      </trkpt>
      <trkpt lat="43.95048" lon="2.22381">
        <ele>124.5</ele>
        <time>2015-04-05T09:45:37Z</time>
      </trkpt>
      <trkpt lat="43.95045" lon="2.22398">
        <ele>124.9</ele>
        <time>2015-04-05T09:45:39Z</time>
      </trkpt>
      <trkpt lat="43.95043" lon="2.22417">
        <ele>125.3</ele>
        <time>2015-04-05T09:45:41Z</time>
      </trkpt>
      <trkpt lat="43.9504" lon="2.22433">
        <ele>126.2</ele>
        <time>2015-04-05T09:45:43Z</time>
      </trkpt>
      <trkpt lat="43.95037" lon="2.22448">
        <ele>127.2</ele>
        <time>2015-04-05T09:45:45Z</time>
      </trkpt>
      <trkpt lat="43.95033" lon="2.22462">
        <ele>127.7</ele>
        <time>2015-04-05T09:45:47Z</time>
      </trkpt>
      <trkpt lat="43.95029" lon="2.22476">
        <ele>128.4</ele>
        <time>2015-04-05T09:45:49Z</time>
      </trkpt>
      <trkpt lat="43.95026" lon="2.2249">
        <ele>128.5</ele>
        <time>2015-04-05T09:45:51Z</time>
      </trkpt>
      <trkpt lat="43.95024" lon="2.22504">
        <ele>128.9</ele>
        <time>2015-04-05T09:45:53Z</time>
      </trkpt>
      <trkpt lat="43.9502" lon="2.22518">
        <ele>129.9</ele>
        <time>2015-04-05T09:45:55Z</time>
      </trkpt>
      <trkpt lat="43.95018" lon="2.22533">
        <ele>130.6</ele>
        <time>2015-04-05T09:45:57Z</time>
      </trkpt>
      <trkpt lat="43.95016" lon="2.22547">
        <ele>130.9</ele>
        <time>2015-04-05T09:45:59Z</time>
      </trkpt>
      <trkpt lat="43.95014" lon="2.22562">
        <ele>131.4</ele>
        <time>2015-04-05T09:46:01Z</time>
      </trkpt>
      <trkpt lat="43.95013" lon="2.22576">
        <ele>131.8</ele>
        <time>2015-04-05T09:46:03Z</time>
      </trkpt>
      <trkpt lat="43.95011" lon="2.22591">
        <ele>131.1</ele>
        <time>2015-04-05T09:46:05Z</time>
      </trkpt>
      <trkpt lat="43.95011" lon="2.22606">
        <ele>130.6</ele>
        <time>2015-04-05T09:46:07Z</time>
      </trkpt>
      <trkpt lat="43.95011" lon="2.22621">
        <ele>130</ele>
        <time>2015-04-05T09:46:09Z</time>
      </trkpt>
      <trkpt lat="43.95012" lon="2.22638">
        <ele>129.3</ele>
        <time>2015-04-05T09:46:11Z</time>
      </trkpt>
      <trkpt lat="43.95013" lon="2.22654">
        <ele>129</ele>
        <time>2015-04-05T09:46:13Z</time>
      </trkpt>
      <trkpt lat="43.95014" lon="2.22669">
        <ele>129.2</ele>
        <time>2015-04-05T09:46:15Z</time>
      </trkpt>
      <trkpt lat="43.95014" lon="2.22684">
        <ele>128.9</ele>
        <time>2015-04-05T09:46:17Z</time>
      </trkpt>
      <trkpt lat="43.95015" lon="2.22699">
        <ele>128.9</ele>
        <time>2015-04-05T09:46:19Z</time>
      </trkpt>
      <trkpt lat="43.95016" lon="2.22713">
        <ele>128.7</ele>
        <time>2015-04-05T09:46:21Z</time>
      </trkpt>
      <trkpt lat="43.95017" lon="2.22727">
        <ele>128.2</ele>
        <time>2015-04-05T09:46:23Z</time>
      </trkpt>
      <trkpt lat="43.95017" lon="2.22741">
        <ele>127.7</ele>
        <time>2015-04-05T09:46:25Z</time>
      </trkpt>
      <trkpt lat="43.95017" lon="2.22755">
        <ele>127.6</ele>
        <time>2015-04-05T09:46:27Z</time>
      </trkpt>
      <trkpt lat="43.95018" lon="2.22768">
        <ele>127.4</ele>
        <time>2015-04-05T09:46:29Z</time>
      </trkpt>
      <trkpt lat="43.95019" lon="2.22781">
        <ele>127.1</ele>
        <time>2015-04-05T09:46:31Z</time>
      </trkpt>
      <trkpt lat="43.9502" lon="2.22796">
        <ele>127</ele>
        <time>2015-04-05T09:46:33Z</time>
      </trkpt>
      <trkpt lat="43.95021" lon="2.22811">
        <ele>126.8</ele>
        <time>2015-04-05T09:46:35Z</time>
      </trkpt>
      <trkpt lat="43.95022" lon="2.22825">
        <ele>126.6</ele>
        <time>2015-04-05T09:46:37Z</time>
      </trkpt>
      <trkpt lat="43.95022" lon="2.2284">
        <ele>126.5</ele>
        <time>2015-04-05T09:46:39Z</time>
      </trkpt>
      <trkpt lat="43.95023" lon="2.22855">
        <ele>126.2</ele>
        <time>2015-04-05T09:46:41Z</time>
      </trkpt>
      <trkpt lat="43.95024" lon="2.2287">
        <ele>126.2</ele>
        <time>2015-04-05T09:46:43Z</time>
      </trkpt>
      <trkpt lat="43.95025" lon="2.22886">
        <ele>126.3</ele>
        <time>2015-04-05T09:46:45Z</time>
      </trkpt>
      <trkpt lat="43.95026" lon="2.22901">
        <ele>126.3</ele>
        <time>2015-04-05T09:46:47Z</time>
      </trkpt>
      <trkpt lat="43.95026" lon="2.22917">
        <ele>126.1</ele>
        <time>2015-04-05T09:46:49Z</time>
      </trkpt>
      <trkpt lat="43.95027" lon="2.22934">
        <ele>126.1</ele>
        <time>2015-04-05T09:46:51Z</time>
      </trkpt>
      <trkpt lat="43.95028" lon="2.2295">
        <ele>126.2</ele>
        <time>2015-04-05T09:46:53Z</time>
      </trkpt>
      <trkpt lat="43.95028" lon="2.22967">
        <ele>126.4</ele>
        <time>2015-04-05T09:46:55Z</time>
      </trkpt>
      <trkpt lat="43.95028" lon="2.22984">
        <ele>126.2</ele>
        <time>2015-04-05T09:46:57Z</time>
      </trkpt>
      <trkpt lat="43.95029" lon="2.23001">
        <ele>126.2</ele>
        <time>2015-04-05T09:46:59Z</time>
      </trkpt>
      <trkpt lat="43.95028" lon="2.23018">
        <ele>126.2</ele>
        <time>2015-04-05T09:47:01Z</time>
      </trkpt>
      <trkpt lat="43.95028" lon="2.23035">
        <ele>125.9</ele>
        <time>2015-04-05T09:47:03Z</time>
      </trkpt>
      <trkpt lat="43.95027" lon="2.23051">
        <ele>126.3</ele>
        <time>2015-04-05T09:47:05Z</time>
      </trkpt>
      <trkpt lat="43.95025" lon="2.23068">
        <ele>126.5</ele>
        <time>2015-04-05T09:47:07Z</time>
      </trkpt>
      <trkpt lat="43.95024" lon="2.23085">
        <ele>126.6</ele>
        <time>2015-04-05T09:47:09Z</time>
      </trkpt>
      <trkpt lat="43.95022" lon="2.23102">
        <ele>126.8</ele>
        <time>2015-04-05T09:47:11Z</time>
      </trkpt>
      <trkpt lat="43.95019" lon="2.23118">
        <ele>126.8</ele>
        <time>2015-04-05T09:47:13Z</time>
      </trkpt>
      <trkpt lat="43.95016" lon="2.23135">
        <ele>126.6</ele>
        <time>2015-04-05T09:47:15Z</time>
      </trkpt>
      <trkpt lat="43.95013" lon="2.23151">
        <ele>126.6</ele>
        <time>2015-04-05T09:47:17Z</time>
      </trkpt>
      <trkpt lat="43.9501" lon="2.23167">
        <ele>126.8</ele>
        <time>2015-04-05T09:47:19Z</time>
      </trkpt>
      <trkpt lat="43.95006" lon="2.23183">
        <ele>126.5</ele>
        <time>2015-04-05T09:47:21Z</time>
      </trkpt>
      <trkpt lat="43.95001" lon="2.23199">
        <ele>126.5</ele>
        <time>2015-04-05T09:47:23Z</time>
      </trkpt>
      <trkpt lat="43.94997" lon="2.23215">
        <ele>126.4</ele>
        <time>2015-04-05T09:47:25Z</time>
      </trkpt>
      <trkpt lat="43.94992" lon="2.23231">
        <ele>126.5</ele>
        <time>2015-04-05T09:47:27Z</time>
      </trkpt>
      <trkpt lat="43.94987" lon="2.23246">
        <ele>126.3</ele>
        <time>2015-04-05T09:47:29Z</time>
      </trkpt>
      <trkpt lat="43.94981" lon="2.23262">
        <ele>126.3</ele>
        <time>2015-04-05T09:47:31Z</time>
      </trkpt>
      <trkpt lat="43.94976" lon="2.23277">
        <ele>126.2</ele>
        <time>2015-04-05T09:47:33Z</time>
      </trkpt>
      <trkpt lat="43.9497" lon="2.23292">
        <ele>126.3</ele>
        <time>2015-04-05T09:47:35Z</time>
      </trkpt>
      <trkpt lat="43.94964" lon="2.23307">
        <ele>126.5</ele>
        <time>2015-04-05T09:47:37Z</time>
      </trkpt>
      <trkpt lat="43.94957" lon="2.23321">
        <ele>126.7</ele>
        <time>2015-04-05T09:47:39Z</time>
      </trkpt>
      <trkpt lat="43.9495" lon="2.23335">
        <ele>127</ele>
        <time>2015-04-05T09:47:41Z</time>
      </trkpt>
      <trkpt lat="43.94942" lon="2.23349">
        <ele>127.8</ele>
        <time>2015-04-05T09:47:43Z</time>
      </trkpt>
      <trkpt lat="43.94934" lon="2.23363">
        <ele>128.1</ele>
        <time>2015-04-05T09:47:45Z</time>
      </trkpt>
      <trkpt lat="43.94926" lon="2.23377">
        <ele>128</ele>
        <time>2015-04-05T09:47:47Z</time>
      </trkpt>
      <trkpt lat="43.94918" lon="2.2339">
        <ele>127.7</ele>
        <time>2015-04-05T09:47:49Z</time>
      </trkpt>
      <trkpt lat="43.94911" lon="2.23403">
        <ele>127.7</ele>
        <time>2015-04-05T09:47:51Z</time>
      </trkpt>
      <trkpt lat="43.94902" lon="2.23415">
        <ele>127.8</ele>
        <time>2015-04-05T09:47:53Z</time>
      </trkpt>
      <trkpt lat="43.94893" lon="2.23426">
        <ele>128.1</ele>
        <time>2015-04-05T09:47:55Z</time>
      </trkpt>
      <trkpt lat="43.94884" lon="2.23435">
        <ele>128.2</ele>
        <time>2015-04-05T09:47:57Z</time>
      </trkpt>
      <trkpt lat="43.94874" lon="2.23445">
        <ele>128.6</ele>
        <time>2015-04-05T09:47:59Z</time>
      </trkpt>
      <trkpt lat="43.94865" lon="2.23455">
        <ele>128.4</ele>
        <time>2015-04-05T09:48:01Z</time>
      </trkpt>
      <trkpt lat="43.94854" lon="2.23465">
        <ele>128.1</ele>
        <time>2015-04-05T09:48:03Z</time>
      </trkpt>
      <trkpt lat="43.94844" lon="2.23474">
        <ele>128</ele>
        <time>2015-04-05T09:48:05Z</time>
      </trkpt>
      <trkpt lat="43.94833" lon="2.23484">
        <ele>128</ele>
        <time>2015-04-05T09:48:07Z</time>
      </trkpt>
      <trkpt lat="43.94822" lon="2.23491">
        <ele>127.6</ele>
        <time>2015-04-05T09:48:09Z</time>
      </trkpt>
      <trkpt lat="43.94811" lon="2.23498">
        <ele>127.3</ele>
        <time>2015-04-05T09:48:11Z</time>
      </trkpt>
      <trkpt lat="43.948" lon="2.23504">
        <ele>126.9</ele>
        <time>2015-04-05T09:48:13Z</time>
      </trkpt>
      <trkpt lat="43.94789" lon="2.2351">
        <ele>127</ele>
        <time>2015-04-05T09:48:15Z</time>
      </trkpt>
      <trkpt lat="43.94778" lon="2.23516">
        <ele>127.3</ele>
        <time>2015-04-05T09:48:17Z</time>
      </trkpt>
      <trkpt lat="43.94767" lon="2.2352">
        <ele>127.2</ele>
        <time>2015-04-05T09:48:19Z</time>
      </trkpt>
      <trkpt lat="43.94756" lon="2.23525">
        <ele>127.6</ele>
        <time>2015-04-05T09:48:21Z</time>
      </trkpt>
      <trkpt lat="43.94744" lon="2.23531">
        <ele>127.6</ele>
        <time>2015-04-05T09:48:23Z</time>
      </trkpt>
      <trkpt lat="43.94732" lon="2.23535">
        <ele>127.8</ele>
        <time>2015-04-05T09:48:25Z</time>
      </trkpt>
      <trkpt lat="43.94721" lon="2.23539">
        <ele>127.8</ele>
        <time>2015-04-05T09:48:27Z</time>
      </trkpt>
      <trkpt lat="43.94709" lon="2.23542">
        <ele>127.9</ele>
        <time>2015-04-05T09:48:29Z</time>
      </trkpt>
      <trkpt lat="43.94697" lon="2.23545">
        <ele>128.1</ele>
        <time>2015-04-05T09:48:31Z</time>
      </trkpt>
      <trkpt lat="43.94686" lon="2.23549">
        <ele>128.2</ele>
        <time>2015-04-05T09:48:33Z</time>
      </trkpt>
      <trkpt lat="43.94674" lon="2.23552">
        <ele>127.9</ele>
        <time>2015-04-05T09:48:35Z</time>
      </trkpt>
      <trkpt lat="43.94663" lon="2.23555">
        <ele>127.8</ele>
        <time>2015-04-05T09:48:37Z</time>
      </trkpt>
      <trkpt lat="43.94652" lon="2.23559">
        <ele>127.7</ele>
        <time>2015-04-05T09:48:39Z</time>
      </trkpt>
      <trkpt lat="43.94641" lon="2.23562">
        <ele>127.9</ele>
        <time>2015-04-05T09:48:41Z</time>
      </trkpt>
      <trkpt lat="43.94629" lon="2.23566">
        <ele>128.4</ele>
        <time>2015-04-05T09:48:43Z</time>
      </trkpt>
      <trkpt lat="43.94618" lon="2.23569">
        <ele>128.6</ele>
        <time>2015-04-05T09:48:45Z</time>
      </trkpt>
      <trkpt lat="43.94606" lon="2.23573">
        <ele>128.9</ele>
        <time>2015-04-05T09:48:47Z</time>
      </trkpt>
      <trkpt lat="43.94595" lon="2.23577">
        <ele>129.3</ele>
        <time>2015-04-05T09:48:49Z</time>
      </trkpt>
      <trkpt lat="43.94583" lon="2.2358">
        <ele>129.7</ele>
        <time>2015-04-05T09:48:51Z</time>
      </trkpt>
      <trkpt lat="43.94571" lon="2.23582">
        <ele>130.2</ele>
        <time>2015-04-05T09:48:53Z</time>
      </trkpt>
      <trkpt lat="43.94559" lon="2.23585">
        <ele>130.5</ele>
        <time>2015-04-05T09:48:55Z</time>
      </trkpt>
      <trkpt lat="43.94549" lon="2.23589">
        <ele>131</ele>
        <time>2015-04-05T09:48:57Z</time>
      </trkpt>
      <trkpt lat="43.94537" lon="2.23593">
        <ele>131.5</ele>
        <time>2015-04-05T09:48:59Z</time>
      </trkpt>
      <trkpt lat="43.94527" lon="2.23596">
        <ele>132</ele>
        <time>2015-04-05T09:49:01Z</time>
      </trkpt>
      <trkpt lat="43.94516" lon="2.236">
        <ele>132.7</ele>
        <time>2015-04-05T09:49:03Z</time>
      </trkpt>
      <trkpt lat="43.94505" lon="2.23603">
        <ele>133.2</ele>
        <time>2015-04-05T09:49:05Z</time>
      </trkpt>
      <trkpt lat="43.94495" lon="2.23607">
        <ele>134</ele>
        <time>2015-04-05T09:49:07Z</time>
      </trkpt>
      <trkpt lat="43.94484" lon="2.23611">
        <ele>134.6</ele>
        <time>2015-04-05T09:49:09Z</time>
      </trkpt>
      <trkpt lat="43.94473" lon="2.23615">
        <ele>134.9</ele>
        <time>2015-04-05T09:49:11Z</time>
      </trkpt>
      <trkpt lat="43.94462" lon="2.23619">
        <ele>135.3</ele>
        <time>2015-04-05T09:49:13Z</time>
      </trkpt>
      <trkpt lat="43.94451" lon="2.23624">
        <ele>135.3</ele>
        <time>2015-04-05T09:49:15Z</time>
      </trkpt>
      <trkpt lat="43.94439" lon="2.23629">
        <ele>134.7</ele>
        <time>2015-04-05T09:49:17Z</time>
      </trkpt>
      <trkpt lat="43.94428" lon="2.23634">
        <ele>134.7</ele>
        <time>2015-04-05T09:49:19Z</time>
      </trkpt>
      <trkpt lat="43.94418" lon="2.23639">
        <ele>134</ele>
        <time>2015-04-05T09:49:21Z</time>
      </trkpt>
      <trkpt lat="43.94408" lon="2.23645">
        <ele>133.2</ele>
        <time>2015-04-05T09:49:23Z</time>
      </trkpt>
      <trkpt lat="43.94397" lon="2.23651">
        <ele>133</ele>
        <time>2015-04-05T09:49:25Z</time>
      </trkpt>
      <trkpt lat="43.94388" lon="2.23656">
        <ele>132.4</ele>
        <time>2015-04-05T09:49:27Z</time>
      </trkpt>
      <trkpt lat="43.94378" lon="2.23661">
        <ele>131.8</ele>
        <time>2015-04-05T09:49:29Z</time>
      </trkpt>
      <trkpt lat="43.94369" lon="2.23668">
        <ele>131.6</ele>
        <time>2015-04-05T09:49:31Z</time>
      </trkpt>
      <trkpt lat="43.94359" lon="2.23674">
        <ele>131.3</ele>
        <time>2015-04-05T09:49:33Z</time>
      </trkpt>
      <trkpt lat="43.9435" lon="2.23681">
        <ele>131</ele>
        <time>2015-04-05T09:49:35Z</time>
      </trkpt>
      <trkpt lat="43.9434" lon="2.23688">
        <ele>130.6</ele>
        <time>2015-04-05T09:49:37Z</time>
      </trkpt>
      <trkpt lat="43.94331" lon="2.23694">
        <ele>130.4</ele>
        <time>2015-04-05T09:49:39Z</time>
      </trkpt>
      <trkpt lat="43.94322" lon="2.23702">
        <ele>129.7</ele>
        <time>2015-04-05T09:49:41Z</time>
      </trkpt>
      <trkpt lat="43.94312" lon="2.23709">
        <ele>128.9</ele>
        <time>2015-04-05T09:49:43Z</time>
      </trkpt>
      <trkpt lat="43.94303" lon="2.23717">
        <ele>127.8</ele>
        <time>2015-04-05T09:49:45Z</time>
      </trkpt>
      <trkpt lat="43.94295" lon="2.23725">
        <ele>125.8</ele>
        <time>2015-04-05T09:49:47Z</time>
      </trkpt>
      <trkpt lat="43.94285" lon="2.23733">
        <ele>125.1</ele>
        <time>2015-04-05T09:49:49Z</time>
      </trkpt>
      <trkpt lat="43.94276" lon="2.23741">
        <ele>124.5</ele>
        <time>2015-04-05T09:49:51Z</time>
      </trkpt>
      <trkpt lat="43.94266" lon="2.23749">
        <ele>124.2</ele>
        <time>2015-04-05T09:49:53Z</time>
      </trkpt>
      <trkpt lat="43.94257" lon="2.23757">
        <ele>124</ele>
        <time>2015-04-05T09:49:55Z</time>
      </trkpt>
      <trkpt lat="43.94247" lon="2.23766">
        <ele>123.5</ele>
        <time>2015-04-05T09:49:57Z</time>
      </trkpt>
      <trkpt lat="43.94237" lon="2.23775">
        <ele>123.3</ele>
        <time>2015-04-05T09:49:59Z</time>
      </trkpt>
      <trkpt lat="43.94227" lon="2.23783">
        <ele>123.5</ele>
        <time>2015-04-05T09:50:01Z</time>
      </trkpt>
      <trkpt lat="43.94218" lon="2.23792">
        <ele>123.5</ele>
        <time>2015-04-05T09:50:03Z</time>
      </trkpt>
      <trkpt lat="43.94209" lon="2.23801">
        <ele>123.1</ele>
        <time>2015-04-05T09:50:05Z</time>
      </trkpt>
      <trkpt lat="43.942" lon="2.23809">
        <ele>122.9</ele>
        <time>2015-04-05T09:50:07Z</time>
      </trkpt>
      <trkpt lat="43.9419" lon="2.23818">
        <ele>122.8</ele>
        <time>2015-04-05T09:50:09Z</time>
      </trkpt>
      <trkpt lat="43.94181" lon="2.23827">
        <ele>123.3</ele>
        <time>2015-04-05T09:50:11Z</time>
      </trkpt>
      <trkpt lat="43.94172" lon="2.23836">
        <ele>123.2</ele>
        <time>2015-04-05T09:50:13Z</time>
      </trkpt>
      <trkpt lat="43.94163" lon="2.23844">
        <ele>123.5</ele>
        <time>2015-04-05T09:50:15Z</time>
      </trkpt>
      <trkpt lat="43.94154" lon="2.23852">
        <ele>123.1</ele>
        <time>2015-04-05T09:50:17Z</time>
      </trkpt>
      <trkpt lat="43.94146" lon="2.23861">
        <ele>123.6</ele>
        <time>2015-04-05T09:50:19Z</time>
      </trkpt>
      <trkpt lat="43.94137" lon="2.2387">
        <ele>124.1</ele>
        <time>2015-04-05T09:50:21Z</time>
      </trkpt>
      <trkpt lat="43.94128" lon="2.23878">
        <ele>124.6</ele>
        <time>2015-04-05T09:50:23Z</time>
      </trkpt>
      <trkpt lat="43.94118" lon="2.23885">
        <ele>125.2</ele>
        <time>2015-04-05T09:50:25Z</time>
      </trkpt>
      <trkpt lat="43.94109" lon="2.23894">
        <ele>124.9</ele>
        <time>2015-04-05T09:50:27Z</time>
      </trkpt>
      <trkpt lat="43.941" lon="2.23903">
        <ele>124.6</ele>
        <time>2015-04-05T09:50:29Z</time>
      </trkpt>
      <trkpt lat="43.94089" lon="2.23912">
        <ele>125.2</ele>
        <time>2015-04-05T09:50:31Z</time>
      </trkpt>
      <trkpt lat="43.94078" lon="2.23921">
        <ele>125</ele>
        <time>2015-04-05T09:50:33Z</time>
      </trkpt>
      <trkpt lat="43.94067" lon="2.2393">
        <ele>125</ele>
        <time>2015-04-05T09:50:35Z</time>
      </trkpt>
      <trkpt lat="43.94056" lon="2.2394">
        <ele>124.8</ele>
        <time>2015-04-05T09:50:37Z</time>
      </trkpt>
      <trkpt lat="43.94045" lon="2.23951">
        <ele>124.7</ele>
        <time>2015-04-05T09:50:39Z</time>
      </trkpt>
      <trkpt lat="43.94034" lon="2.23961">
        <ele>124.6</ele>
        <time>2015-04-05T09:50:41Z</time>
      </trkpt>
      <trkpt lat="43.94023" lon="2.23972">
        <ele>124.4</ele>
        <time>2015-04-05T09:50:43Z</time>
      </trkpt>
      <trkpt lat="43.94012" lon="2.23982">
        <ele>124.2</ele>
        <time>2015-04-05T09:50:45Z</time>
      </trkpt>
      <trkpt lat="43.94001" lon="2.23992">
        <ele>124.2</ele>
        <time>2015-04-05T09:50:47Z</time>
      </trkpt>
      <trkpt lat="43.93991" lon="2.24001">
        <ele>124.4</ele>
        <time>2015-04-05T09:50:49Z</time>
      </trkpt>
      <trkpt lat="43.93981" lon="2.24011">
        <ele>124.7</ele>
        <time>2015-04-05T09:50:51Z</time>
      </trkpt>
      <trkpt lat="43.93972" lon="2.24021">
        <ele>124.6</ele>
        <time>2015-04-05T09:50:53Z</time>
      </trkpt>
      <trkpt lat="43.93963" lon="2.24031">
        <ele>124.5</ele>
        <time>2015-04-05T09:50:55Z</time>
      </trkpt>
      <trkpt lat="43.93954" lon="2.24041">
        <ele>124.6</ele>
        <time>2015-04-05T09:50:57Z</time>
      </trkpt>
      <trkpt lat="43.93944" lon="2.24049">
        <ele>124.9</ele>
        <time>2015-04-05T09:50:59Z</time>
      </trkpt>
      <trkpt lat="43.93934" lon="2.24057">
        <ele>125.1</ele>
        <time>2015-04-05T09:51:01Z</time>
      </trkpt>
      <trkpt lat="43.93924" lon="2.24064">
        <ele>125.1</ele>
        <time>2015-04-05T09:51:03Z</time>
      </trkpt>
      <trkpt lat="43.93915" lon="2.24072">
        <ele>125.1</ele>
        <time>2015-04-05T09:51:05Z</time>
      </trkpt>
      <trkpt lat="43.93905" lon="2.2408">
        <ele>125.3</ele>
        <time>2015-04-05T09:51:07Z</time>
      </trkpt>
      <trkpt lat="43.93895" lon="2.24089">
        <ele>125.1</ele>
        <time>2015-04-05T09:51:09Z</time>
      </trkpt>
      <trkpt lat="43.93886" lon="2.24098">
        <ele>124.7</ele>
        <time>2015-04-05T09:51:11Z</time>
      </trkpt>
      <trkpt lat="43.93876" lon="2.24107">
        <ele>124.7</ele>
        <time>2015-04-05T09:51:13Z</time>
      </trkpt>
      <trkpt lat="43.93866" lon="2.24116">
        <ele>124.8</ele>
        <time>2015-04-05T09:51:15Z</time>
      </trkpt>
      <trkpt lat="43.93856" lon="2.24125">
        <ele>124.9</ele>
        <time>2015-04-05T09:51:17Z</time>
      </trkpt>
      <trkpt lat="43.93847" lon="2.24135">
        <ele>124.8</ele>
        <time>2015-04-05T09:51:19Z</time>
      </trkpt>
      <trkpt lat="43.93838" lon="2.24143">
        <ele>124.9</ele>
        <time>2015-04-05T09:51:21Z</time>
      </trkpt>
      <trkpt lat="43.9383" lon="2.24152">
        <ele>125.3</ele>
        <time>2015-04-05T09:51:23Z</time>
      </trkpt>
      <trkpt lat="43.93823" lon="2.2416">
        <ele>125.6</ele>
        <time>2015-04-05T09:51:25Z</time>
      </trkpt>
      <trkpt lat="43.93813" lon="2.2417">
        <ele>125.7</ele>
        <time>2015-04-05T09:51:28Z</time>
      </trkpt>
      <trkpt lat="43.93803" lon="2.2418">
        <ele>125.9</ele>
        <time>2015-04-05T09:51:31Z</time>
      </trkpt>
      <trkpt lat="43.93794" lon="2.24192">
        <ele>126.3</ele>
        <time>2015-04-05T09:51:34Z</time>
      </trkpt>
      <trkpt lat="43.93785" lon="2.24204">
        <ele>126.4</ele>
        <time>2015-04-05T09:51:37Z</time>
      </trkpt>
      <trkpt lat="43.93778" lon="2.24213">
        <ele>126.7</ele>
        <time>2015-04-05T09:51:39Z</time>
      </trkpt>
      <trkpt lat="43.9377" lon="2.24221">
        <ele>126.8</ele>
        <time>2015-04-05T09:51:41Z</time>
      </trkpt>
      <trkpt lat="43.93763" lon="2.24231">
        <ele>126.8</ele>
        <time>2015-04-05T09:51:43Z</time>
      </trkpt>
      <trkpt lat="43.93755" lon="2.2424">
        <ele>127</ele>
        <time>2015-04-05T09:51:45Z</time>
      </trkpt>
      <trkpt lat="43.93748" lon="2.2425">
        <ele>127.2</ele>
        <time>2015-04-05T09:51:47Z</time>
      </trkpt>
      <trkpt lat="43.93741" lon="2.24259">
        <ele>126.6</ele>
        <time>2015-04-05T09:51:49Z</time>
      </trkpt>
      <trkpt lat="43.93734" lon="2.24268">
        <ele>126.6</ele>
        <time>2015-04-05T09:51:51Z</time>
      </trkpt>
      <trkpt lat="43.93728" lon="2.24278">
        <ele>126.4</ele>
        <time>2015-04-05T09:51:53Z</time>
      </trkpt>
      <trkpt lat="43.93721" lon="2.24288">
        <ele>126.2</ele>
        <time>2015-04-05T09:51:55Z</time>
      </trkpt>
      <trkpt lat="43.93714" lon="2.24297">
        <ele>126.2</ele>
        <time>2015-04-05T09:51:57Z</time>
      </trkpt>
      <trkpt lat="43.93708" lon="2.24307">
        <ele>126</ele>
        <time>2015-04-05T09:51:59Z</time>
      </trkpt>
      <trkpt lat="43.93702" lon="2.24317">
        <ele>125.9</ele>
        <time>2015-04-05T09:52:01Z</time>
      </trkpt>
      <trkpt lat="43.93695" lon="2.24327">
        <ele>125.9</ele>
        <time>2015-04-05T09:52:03Z</time>
      </trkpt>
      <trkpt lat="43.93688" lon="2.24338">
        <ele>126</ele>
        <time>2015-04-05T09:52:05Z</time>
      </trkpt>
      <trkpt lat="43.93681" lon="2.24349">
        <ele>126.2</ele>
        <time>2015-04-05T09:52:07Z</time>
      </trkpt>
      <trkpt lat="43.93675" lon="2.2436">
        <ele>126.3</ele>
        <time>2015-04-05T09:52:09Z</time>
      </trkpt>
      <trkpt lat="43.93668" lon="2.24372">
        <ele>126.2</ele>
        <time>2015-04-05T09:52:11Z</time>
      </trkpt>
      <trkpt lat="43.93662" lon="2.24384">
        <ele>125.6</ele>
        <time>2015-04-05T09:52:13Z</time>
      </trkpt>
      <trkpt lat="43.93655" lon="2.24397">
        <ele>125.8</ele>
        <time>2015-04-05T09:52:15Z</time>
      </trkpt>
      <trkpt lat="43.93647" lon="2.2441">
        <ele>125.8</ele>
        <time>2015-04-05T09:52:17Z</time>
      </trkpt>
      <trkpt lat="43.9364" lon="2.24424">
        <ele>125.8</ele>
        <time>2015-04-05T09:52:19Z</time>
      </trkpt>
      <trkpt lat="43.93632" lon="2.24438">
        <ele>126</ele>
        <time>2015-04-05T09:52:21Z</time>
      </trkpt>
      <trkpt lat="43.93623" lon="2.24452">
        <ele>126.4</ele>
        <time>2015-04-05T09:52:23Z</time>
      </trkpt>
      <trkpt lat="43.93617" lon="2.24466">
        <ele>126.2</ele>
        <time>2015-04-05T09:52:25Z</time>
      </trkpt>
      <trkpt lat="43.9361" lon="2.24482">
        <ele>126.8</ele>
        <time>2015-04-05T09:52:27Z</time>
      </trkpt>
      <trkpt lat="43.93603" lon="2.24498">
        <ele>127.3</ele>
        <time>2015-04-05T09:52:29Z</time>
      </trkpt>
      <trkpt lat="43.93595" lon="2.24512">
        <ele>127.6</ele>
        <time>2015-04-05T09:52:31Z</time>
      </trkpt>
      <trkpt lat="43.93587" lon="2.24527">
        <ele>128.2</ele>
        <time>2015-04-05T09:52:33Z</time>
      </trkpt>
      <trkpt lat="43.9358" lon="2.2454">
        <ele>128.8</ele>
        <time>2015-04-05T09:52:35Z</time>
      </trkpt>
      <trkpt lat="43.93572" lon="2.24553">
        <ele>128.7</ele>
        <time>2015-04-05T09:52:37Z</time>
      </trkpt>
      <trkpt lat="43.93565" lon="2.24566">
        <ele>129.3</ele>
        <time>2015-04-05T09:52:39Z</time>
      </trkpt>
      <trkpt lat="43.93558" lon="2.24579">
        <ele>129.7</ele>
        <time>2015-04-05T09:52:41Z</time>
      </trkpt>
      <trkpt lat="43.93551" lon="2.24592">
        <ele>129.9</ele>
        <time>2015-04-05T09:52:43Z</time>
      </trkpt>
      <trkpt lat="43.93544" lon="2.24604">
        <ele>130.1</ele>
        <time>2015-04-05T09:52:45Z</time>
      </trkpt>
      <trkpt lat="43.93537" lon="2.24616">
        <ele>130.3</ele>
        <time>2015-04-05T09:52:47Z</time>
      </trkpt>
      <trkpt lat="43.9353" lon="2.24629">
        <ele>130.5</ele>
        <time>2015-04-05T09:52:49Z</time>
      </trkpt>
      <trkpt lat="43.93522" lon="2.24643">
        <ele>130.6</ele>
        <time>2015-04-05T09:52:51Z</time>
      </trkpt>
      <trkpt lat="43.93515" lon="2.24656">
        <ele>131.1</ele>
        <time>2015-04-05T09:52:53Z</time>
      </trkpt>
      <trkpt lat="43.93508" lon="2.24669">
        <ele>131.6</ele>
        <time>2015-04-05T09:52:55Z</time>
      </trkpt>
      <trkpt lat="43.93501" lon="2.24682">
        <ele>132.2</ele>
        <time>2015-04-05T09:52:57Z</time>
      </trkpt>
      <trkpt lat="43.93493" lon="2.24695">
        <ele>132.7</ele>
        <time>2015-04-05T09:52:59Z</time>
      </trkpt>
      <trkpt lat="43.93484" lon="2.24709">
        <ele>133.1</ele>
        <time>2015-04-05T09:53:01Z</time>
      </trkpt>
      <trkpt lat="43.93477" lon="2.24724">
        <ele>133.2</ele>
        <time>2015-04-05T09:53:03Z</time>
      </trkpt>
      <trkpt lat="43.9347" lon="2.24739">
        <ele>133.6</ele>
        <time>2015-04-05T09:53:05Z</time>
      </trkpt>
      <trkpt lat="43.93463" lon="2.24752">
        <ele>134.1</ele>
        <time>2015-04-05T09:53:07Z</time>
      </trkpt>
      <trkpt lat="43.93456" lon="2.24765">
        <ele>135</ele>
        <time>2015-04-05T09:53:09Z</time>
      </trkpt>
      <trkpt lat="43.93449" lon="2.24778">
        <ele>135.8</ele>
        <time>2015-04-05T09:53:11Z</time>
      </trkpt>
      <trkpt lat="43.93442" lon="2.24792">
        <ele>136</ele>
        <time>2015-04-05T09:53:13Z</time>
      </trkpt>
      <trkpt lat="43.93435" lon="2.24806">
        <ele>136.1</ele>
        <time>2015-04-05T09:53:15Z</time>
      </trkpt>
      <trkpt lat="43.93427" lon="2.2482">
        <ele>136.3</ele>
        <time>2015-04-05T09:53:17Z</time>
      </trkpt>
      <trkpt lat="43.9342" lon="2.24833">
        <ele>137</ele>
        <time>2015-04-05T09:53:19Z</time>
      </trkpt>
      <trkpt lat="43.93412" lon="2.24845">
        <ele>137.3</ele>
        <time>2015-04-05T09:53:21Z</time>
      </trkpt>
      <trkpt lat="43.93403" lon="2.24859">
        <ele>137.8</ele>
        <time>2015-04-05T09:53:23Z</time>
      </trkpt>
      <trkpt lat="43.93396" lon="2.24872">
        <ele>137.9</ele>
        <time>2015-04-05T09:53:25Z</time>
      </trkpt>
      <trkpt lat="43.93387" lon="2.24885">
        <ele>137.6</ele>
        <time>2015-04-05T09:53:27Z</time>
      </trkpt>
      <trkpt lat="43.9338" lon="2.24897">
        <ele>137.8</ele>
        <time>2015-04-05T09:53:29Z</time>
      </trkpt>
      <trkpt lat="43.93372" lon="2.24908">
        <ele>138.1</ele>
        <time>2015-04-05T09:53:31Z</time>
      </trkpt>
      <trkpt lat="43.93363" lon="2.24919">
        <ele>138.4</ele>
        <time>2015-04-05T09:53:33Z</time>
      </trkpt>
      <trkpt lat="43.93352" lon="2.24929">
        <ele>138.2</ele>
        <time>2015-04-05T09:53:35Z</time>
      </trkpt>
      <trkpt lat="43.93342" lon="2.24939">
        <ele>138</ele>
        <time>2015-04-05T09:53:37Z</time>
      </trkpt>
      <trkpt lat="43.93332" lon="2.24948">
        <ele>137.7</ele>
        <time>2015-04-05T09:53:39Z</time>
      </trkpt>
      <trkpt lat="43.93323" lon="2.2496">
        <ele>136.9</ele>
        <time>2015-04-05T09:53:41Z</time>
      </trkpt>
      <trkpt lat="43.93313" lon="2.2497">
        <ele>136.4</ele>
        <time>2015-04-05T09:53:43Z</time>
      </trkpt>
      <trkpt lat="43.93303" lon="2.2498">
        <ele>135.6</ele>
        <time>2015-04-05T09:53:45Z</time>
      </trkpt>
      <trkpt lat="43.93293" lon="2.24989">
        <ele>135.6</ele>
        <time>2015-04-05T09:53:47Z</time>
      </trkpt>
      <trkpt lat="43.93283" lon="2.24999">
        <ele>135.2</ele>
        <time>2015-04-05T09:53:49Z</time>
      </trkpt>
      <trkpt lat="43.93273" lon="2.25008">
        <ele>134.8</ele>
        <time>2015-04-05T09:53:51Z</time>
      </trkpt>
      <trkpt lat="43.93264" lon="2.25018">
        <ele>134.5</ele>
        <time>2015-04-05T09:53:53Z</time>
      </trkpt>
      <trkpt lat="43.93257" lon="2.25028">
        <ele>134.2</ele>
        <time>2015-04-05T09:53:55Z</time>
      </trkpt>
      <trkpt lat="43.93248" lon="2.25038">
        <ele>134.1</ele>
        <time>2015-04-05T09:53:57Z</time>
      </trkpt>
      <trkpt lat="43.93241" lon="2.25049">
        <ele>134.5</ele>
        <time>2015-04-05T09:53:59Z</time>
      </trkpt>
      <trkpt lat="43.93233" lon="2.2506">
        <ele>135.5</ele>
        <time>2015-04-05T09:54:01Z</time>
      </trkpt>
      <trkpt lat="43.93226" lon="2.25072">
        <ele>136.4</ele>
        <time>2015-04-05T09:54:03Z</time>
      </trkpt>
      <trkpt lat="43.9322" lon="2.25086">
        <ele>137.2</ele>
        <time>2015-04-05T09:54:05Z</time>
      </trkpt>
      <trkpt lat="43.93214" lon="2.251">
        <ele>138.1</ele>
        <time>2015-04-05T09:54:07Z</time>
      </trkpt>
      <trkpt lat="43.93208" lon="2.25114">
        <ele>138.9</ele>
        <time>2015-04-05T09:54:09Z</time>
      </trkpt>
      <trkpt lat="43.93204" lon="2.2513">
        <ele>139.8</ele>
        <time>2015-04-05T09:54:11Z</time>
      </trkpt>
      <trkpt lat="43.93198" lon="2.25145">
        <ele>140.6</ele>
        <time>2015-04-05T09:54:13Z</time>
      </trkpt>
      <trkpt lat="43.93192" lon="2.2516">
        <ele>141.5</ele>
        <time>2015-04-05T09:54:15Z</time>
      </trkpt>
      <trkpt lat="43.93185" lon="2.25174">
        <ele>142.6</ele>
        <time>2015-04-05T09:54:17Z</time>
      </trkpt>
      <trkpt lat="43.9318" lon="2.25187">
        <ele>143.6</ele>
        <time>2015-04-05T09:54:19Z</time>
      </trkpt>
      <trkpt lat="43.93173" lon="2.25202">
        <ele>144.4</ele>
        <time>2015-04-05T09:54:21Z</time>
      </trkpt>
      <trkpt lat="43.93167" lon="2.25217">
        <ele>145.3</ele>
        <time>2015-04-05T09:54:23Z</time>
      </trkpt>
      <trkpt lat="43.93161" lon="2.25232">
        <ele>145.9</ele>
        <time>2015-04-05T09:54:25Z</time>
      </trkpt>
      <trkpt lat="43.93155" lon="2.25246">
        <ele>146.6</ele>
        <time>2015-04-05T09:54:27Z</time>
      </trkpt>
      <trkpt lat="43.93147" lon="2.25262">
        <ele>147.5</ele>
        <time>2015-04-05T09:54:29Z</time>
      </trkpt>
      <trkpt lat="43.93139" lon="2.25277">
        <ele>148.6</ele>
        <time>2015-04-05T09:54:31Z</time>
      </trkpt>
      <trkpt lat="43.93132" lon="2.25292">
        <ele>149.3</ele>
        <time>2015-04-05T09:54:33Z</time>
      </trkpt>
      <trkpt lat="43.93125" lon="2.25306">
        <ele>150</ele>
        <time>2015-04-05T09:54:35Z</time>
      </trkpt>
      <trkpt lat="43.93119" lon="2.25321">
        <ele>150.6</ele>
        <time>2015-04-05T09:54:37Z</time>
      </trkpt>
      <trkpt lat="43.93112" lon="2.25335">
        <ele>150.9</ele>
        <time>2015-04-05T09:54:39Z</time>
      </trkpt>
      <trkpt lat="43.93106" lon="2.25351">
        <ele>151.5</ele>
        <time>2015-04-05T09:54:41Z</time>
      </trkpt>
      <trkpt lat="43.931" lon="2.25365">
        <ele>151.9</ele>
        <time>2015-04-05T09:54:43Z</time>
      </trkpt>
      <trkpt lat="43.93094" lon="2.2538">
        <ele>152.5</ele>
        <time>2015-04-05T09:54:45Z</time>
      </trkpt>
      <trkpt lat="43.93089" lon="2.25394">
        <ele>153.1</ele>
        <time>2015-04-05T09:54:47Z</time>
      </trkpt>
      <trkpt lat="43.93083" lon="2.25409">
        <ele>153.6</ele>
        <time>2015-04-05T09:54:49Z</time>
      </trkpt>
      <trkpt lat="43.93077" lon="2.25425">
        <ele>154.1</ele>
        <time>2015-04-05T09:54:51Z</time>
      </trkpt>
      <trkpt lat="43.93072" lon="2.2544">
        <ele>154.5</ele>
        <time>2015-04-05T09:54:53Z</time>
      </trkpt>
      <trkpt lat="43.93067" lon="2.25456">
        <ele>154.6</ele>
        <time>2015-04-05T09:54:55Z</time>
      </trkpt>
      <trkpt lat="43.93062" lon="2.25473">
        <ele>154.7</ele>
        <time>2015-04-05T09:54:57Z</time>
      </trkpt>
      <trkpt lat="43.93057" lon="2.25488">
        <ele>154.5</ele>
        <time>2015-04-05T09:54:59Z</time>
      </trkpt>
      <trkpt lat="43.93054" lon="2.25505">
        <ele>154.8</ele>
        <time>2015-04-05T09:55:01Z</time>
      </trkpt>
      <trkpt lat="43.93049" lon="2.2552">
        <ele>155</ele>
        <time>2015-04-05T09:55:03Z</time>
      </trkpt>
      <trkpt lat="43.93045" lon="2.25536">
        <ele>155</ele>
        <time>2015-04-05T09:55:05Z</time>
      </trkpt>
      <trkpt lat="43.9304" lon="2.25551">
        <ele>154.9</ele>
        <time>2015-04-05T09:55:07Z</time>
      </trkpt>
      <trkpt lat="43.93037" lon="2.25566">
        <ele>154</ele>
        <time>2015-04-05T09:55:09Z</time>
      </trkpt>
      <trkpt lat="43.93034" lon="2.25581">
        <ele>153.5</ele>
        <time>2015-04-05T09:55:11Z</time>
      </trkpt>
      <trkpt lat="43.93031" lon="2.25596">
        <ele>153.6</ele>
        <time>2015-04-05T09:55:13Z</time>
      </trkpt>
      <trkpt lat="43.93028" lon="2.25611">
        <ele>152.9</ele>
        <time>2015-04-05T09:55:15Z</time>
      </trkpt>
      <trkpt lat="43.93027" lon="2.25626">
        <ele>152.7</ele>
        <time>2015-04-05T09:55:17Z</time>
      </trkpt>
      <trkpt lat="43.93025" lon="2.25642">
        <ele>152.5</ele>
        <time>2015-04-05T09:55:19Z</time>
      </trkpt>
      <trkpt lat="43.93022" lon="2.25657">
        <ele>152.4</ele>
        <time>2015-04-05T09:55:21Z</time>
      </trkpt>
      <trkpt lat="43.93021" lon="2.25673">
        <ele>151.7</ele>
        <time>2015-04-05T09:55:23Z</time>
      </trkpt>
      <trkpt lat="43.9302" lon="2.25689">
        <ele>150.8</ele>
        <time>2015-04-05T09:55:25Z</time>
      </trkpt>
      <trkpt lat="43.93019" lon="2.25704">
        <ele>149.6</ele>
        <time>2015-04-05T09:55:27Z</time>
      </trkpt>
      <trkpt lat="43.93019" lon="2.2572">
        <ele>146.8</ele>
        <time>2015-04-05T09:55:29Z</time>
      </trkpt>
      <trkpt lat="43.9302" lon="2.25738">
        <ele>144.5</ele>
        <time>2015-04-05T09:55:31Z</time>
      </trkpt>
      <trkpt lat="43.93021" lon="2.25757">
        <ele>142.5</ele>
        <time>2015-04-05T09:55:33Z</time>
      </trkpt>
      <trkpt lat="43.93022" lon="2.25773">
        <ele>141.1</ele>
        <time>2015-04-05T09:55:35Z</time>
      </trkpt>
      <trkpt lat="43.93023" lon="2.2579">
        <ele>139</ele>
        <time>2015-04-05T09:55:37Z</time>
      </trkpt>
      <trkpt lat="43.93024" lon="2.25805">
        <ele>136.7</ele>
        <time>2015-04-05T09:55:39Z</time>
      </trkpt>
      <trkpt lat="43.93026" lon="2.2582">
        <ele>134.9</ele>
        <time>2015-04-05T09:55:41Z</time>
      </trkpt>
      <trkpt lat="43.93027" lon="2.25836">
        <ele>133.6</ele>
        <time>2015-04-05T09:55:43Z</time>
      </trkpt>
      <trkpt lat="43.93028" lon="2.25852">
        <ele>132.5</ele>
        <time>2015-04-05T09:55:45Z</time>
      </trkpt>
      <trkpt lat="43.9303" lon="2.25868">
        <ele>131.7</ele>
        <time>2015-04-05T09:55:47Z</time>
      </trkpt>
      <trkpt lat="43.93033" lon="2.25885">
        <ele>131.1</ele>
        <time>2015-04-05T09:55:49Z</time>
      </trkpt>
      <trkpt lat="43.93036" lon="2.259">
        <ele>130.6</ele>
        <time>2015-04-05T09:55:51Z</time>
      </trkpt>
      <trkpt lat="43.93039" lon="2.25916">
        <ele>130.2</ele>
        <time>2015-04-05T09:55:53Z</time>
      </trkpt>
      <trkpt lat="43.93042" lon="2.25932">
        <ele>130</ele>
        <time>2015-04-05T09:55:55Z</time>
      </trkpt>
      <trkpt lat="43.93046" lon="2.25948">
        <ele>129.3</ele>
        <time>2015-04-05T09:55:57Z</time>
      </trkpt>
      <trkpt lat="43.93049" lon="2.25964">
        <ele>129.4</ele>
        <time>2015-04-05T09:55:59Z</time>
      </trkpt>
      <trkpt lat="43.93053" lon="2.25979">
        <ele>129.2</ele>
        <time>2015-04-05T09:56:01Z</time>
      </trkpt>
      <trkpt lat="43.93056" lon="2.25994">
        <ele>128.9</ele>
        <time>2015-04-05T09:56:03Z</time>
      </trkpt>
      <trkpt lat="43.93059" lon="2.26009">
        <ele>129.1</ele>
        <time>2015-04-05T09:56:05Z</time>
      </trkpt>
      <trkpt lat="43.93061" lon="2.26024">
        <ele>129.4</ele>
        <time>2015-04-05T09:56:07Z</time>
      </trkpt>
      <trkpt lat="43.93065" lon="2.26039">
        <ele>129.7</ele>
        <time>2015-04-05T09:56:09Z</time>
      </trkpt>
      <trkpt lat="43.93069" lon="2.26055">
        <ele>129.8</ele>
        <time>2015-04-05T09:56:11Z</time>
      </trkpt>
      <trkpt lat="43.93072" lon="2.26071">
        <ele>130.1</ele>
        <time>2015-04-05T09:56:13Z</time>
      </trkpt>
      <trkpt lat="43.93075" lon="2.26087">
        <ele>130.3</ele>
        <time>2015-04-05T09:56:15Z</time>
      </trkpt>
      <trkpt lat="43.93079" lon="2.26103">
        <ele>130.4</ele>
        <time>2015-04-05T09:56:17Z</time>
      </trkpt>
      <trkpt lat="43.93084" lon="2.26119">
        <ele>130.3</ele>
        <time>2015-04-05T09:56:19Z</time>
      </trkpt>
      <trkpt lat="43.93087" lon="2.26135">
        <ele>130.1</ele>
        <time>2015-04-05T09:56:21Z</time>
      </trkpt>
      <trkpt lat="43.93092" lon="2.2615">
        <ele>130</ele>
        <time>2015-04-05T09:56:23Z</time>
      </trkpt>
      <trkpt lat="43.93095" lon="2.26165">
        <ele>130.4</ele>
        <time>2015-04-05T09:56:25Z</time>
      </trkpt>
      <trkpt lat="43.93099" lon="2.2618">
        <ele>130.5</ele>
        <time>2015-04-05T09:56:27Z</time>
      </trkpt>
      <trkpt lat="43.93103" lon="2.26195">
        <ele>130.1</ele>
        <time>2015-04-05T09:56:29Z</time>
      </trkpt>
      <trkpt lat="43.93107" lon="2.2621">
        <ele>129.4</ele>
        <time>2015-04-05T09:56:31Z</time>
      </trkpt>
      <trkpt lat="43.93112" lon="2.26226">
        <ele>129.2</ele>
        <time>2015-04-05T09:56:33Z</time>
      </trkpt>
      <trkpt lat="43.93118" lon="2.26242">
        <ele>128.3</ele>
        <time>2015-04-05T09:56:35Z</time>
      </trkpt>
      <trkpt lat="43.93124" lon="2.26256">
        <ele>128.2</ele>
        <time>2015-04-05T09:56:37Z</time>
      </trkpt>
      <trkpt lat="43.9313" lon="2.26271">
        <ele>128.4</ele>
        <time>2015-04-05T09:56:39Z</time>
      </trkpt>
      <trkpt lat="43.93136" lon="2.26285">
        <ele>129.1</ele>
        <time>2015-04-05T09:56:41Z</time>
      </trkpt>
      <trkpt lat="43.93141" lon="2.26298">
        <ele>129.3</ele>
        <time>2015-04-05T09:56:43Z</time>
      </trkpt>
      <trkpt lat="43.93146" lon="2.26311">
        <ele>129.4</ele>
        <time>2015-04-05T09:56:45Z</time>
      </trkpt>
      <trkpt lat="43.9315" lon="2.26324">
        <ele>129.4</ele>
        <time>2015-04-05T09:56:47Z</time>
      </trkpt>
      <trkpt lat="43.93155" lon="2.26337">
        <ele>129.7</ele>
        <time>2015-04-05T09:56:49Z</time>
      </trkpt>
      <trkpt lat="43.9316" lon="2.2635">
        <ele>129.8</ele>
        <time>2015-04-05T09:56:51Z</time>
      </trkpt>
      <trkpt lat="43.93164" lon="2.26363">
        <ele>129.4</ele>
        <time>2015-04-05T09:56:53Z</time>
      </trkpt>
      <trkpt lat="43.93168" lon="2.26376">
        <ele>129.3</ele>
        <time>2015-04-05T09:56:55Z</time>
      </trkpt>
      <trkpt lat="43.93172" lon="2.26388">
        <ele>130.3</ele>
        <time>2015-04-05T09:56:57Z</time>
      </trkpt>
      <trkpt lat="43.93176" lon="2.26402">
        <ele>130.9</ele>
        <time>2015-04-05T09:56:59Z</time>
      </trkpt>
      <trkpt lat="43.93178" lon="2.26415">
        <ele>130.7</ele>
        <time>2015-04-05T09:57:01Z</time>
      </trkpt>
      <trkpt lat="43.93181" lon="2.26429">
        <ele>130.7</ele>
        <time>2015-04-05T09:57:03Z</time>
      </trkpt>
      <trkpt lat="43.93183" lon="2.26443">
        <ele>130.9</ele>
        <time>2015-04-05T09:57:05Z</time>
      </trkpt>
      <trkpt lat="43.93186" lon="2.26457">
        <ele>130.8</ele>
        <time>2015-04-05T09:57:07Z</time>
      </trkpt>
      <trkpt lat="43.93189" lon="2.26469">
        <ele>131</ele>
        <time>2015-04-05T09:57:09Z</time>
      </trkpt>
      <trkpt lat="43.93192" lon="2.26483">
        <ele>130.7</ele>
        <time>2015-04-05T09:57:11Z</time>
      </trkpt>
      <trkpt lat="43.93194" lon="2.26496">
        <ele>130.4</ele>
        <time>2015-04-05T09:57:13Z</time>
      </trkpt>
      <trkpt lat="43.93196" lon="2.26509">
        <ele>129.7</ele>
        <time>2015-04-05T09:57:15Z</time>
      </trkpt>
      <trkpt lat="43.93198" lon="2.26522">
        <ele>130</ele>
        <time>2015-04-05T09:57:17Z</time>
      </trkpt>
      <trkpt lat="43.932" lon="2.26535">
        <ele>129.9</ele>
        <time>2015-04-05T09:57:19Z</time>
      </trkpt>
      <trkpt lat="43.93203" lon="2.26549">
        <ele>130.2</ele>
        <time>2015-04-05T09:57:21Z</time>
      </trkpt>
      <trkpt lat="43.93205" lon="2.26563">
        <ele>129.8</ele>
        <time>2015-04-05T09:57:23Z</time>
      </trkpt>
      <trkpt lat="43.93207" lon="2.26576">
        <ele>129.8</ele>
        <time>2015-04-05T09:57:25Z</time>
      </trkpt>
      <trkpt lat="43.93209" lon="2.2659">
        <ele>129.6</ele>
        <time>2015-04-05T09:57:27Z</time>
      </trkpt>
      <trkpt lat="43.93212" lon="2.26604">
        <ele>129.9</ele>
        <time>2015-04-05T09:57:29Z</time>
      </trkpt>
      <trkpt lat="43.93214" lon="2.26618">
        <ele>129.9</ele>
        <time>2015-04-05T09:57:31Z</time>
      </trkpt>
      <trkpt lat="43.93215" lon="2.26633">
        <ele>130.5</ele>
        <time>2015-04-05T09:57:33Z</time>
      </trkpt>
      <trkpt lat="43.93219" lon="2.26648">
        <ele>130</ele>
        <time>2015-04-05T09:57:35Z</time>
      </trkpt>
      <trkpt lat="43.93222" lon="2.26662">
        <ele>129.5</ele>
        <time>2015-04-05T09:57:37Z</time>
      </trkpt>
      <trkpt lat="43.93224" lon="2.26676">
        <ele>129.2</ele>
        <time>2015-04-05T09:57:39Z</time>
      </trkpt>
      <trkpt lat="43.93226" lon="2.26691">
        <ele>129.3</ele>
        <time>2015-04-05T09:57:41Z</time>
      </trkpt>
      <trkpt lat="43.93228" lon="2.26706">
        <ele>129.5</ele>
        <time>2015-04-05T09:57:43Z</time>
      </trkpt>
      <trkpt lat="43.93231" lon="2.2672">
        <ele>129.7</ele>
        <time>2015-04-05T09:57:45Z</time>
      </trkpt>
      <trkpt lat="43.93234" lon="2.26734">
        <ele>129.7</ele>
        <time>2015-04-05T09:57:47Z</time>
      </trkpt>
      <trkpt lat="43.93236" lon="2.26747">
        <ele>129.9</ele>
        <time>2015-04-05T09:57:49Z</time>
      </trkpt>
      <trkpt lat="43.93238" lon="2.26761">
        <ele>130.4</ele>
        <time>2015-04-05T09:57:51Z</time>
      </trkpt>
      <trkpt lat="43.93242" lon="2.26775">
        <ele>131.1</ele>
        <time>2015-04-05T09:57:53Z</time>
      </trkpt>
      <trkpt lat="43.93244" lon="2.26789">
        <ele>131.3</ele>
        <time>2015-04-05T09:57:55Z</time>
      </trkpt>
      <trkpt lat="43.93247" lon="2.26802">
        <ele>130.8</ele>
        <time>2015-04-05T09:57:57Z</time>
      </trkpt>
      <trkpt lat="43.9325" lon="2.26816">
        <ele>130.9</ele>
        <time>2015-04-05T09:57:59Z</time>
      </trkpt>
      <trkpt lat="43.93253" lon="2.2683">
        <ele>131.1</ele>
        <time>2015-04-05T09:58:01Z</time>
      </trkpt>
      <trkpt lat="43.93256" lon="2.26843">
        <ele>131.1</ele>
        <time>2015-04-05T09:58:03Z</time>
      </trkpt>
      <trkpt lat="43.9326" lon="2.26857">
        <ele>131.1</ele>
        <time>2015-04-05T09:58:05Z</time>
      </trkpt>
      <trkpt lat="43.93264" lon="2.26872">
        <ele>130.9</ele>
        <time>2015-04-05T09:58:07Z</time>
      </trkpt>
      <trkpt lat="43.93269" lon="2.26885">
        <ele>130.7</ele>
        <time>2015-04-05T09:58:09Z</time>
      </trkpt>
      <trkpt lat="43.93273" lon="2.26899">
        <ele>130.7</ele>
        <time>2015-04-05T09:58:11Z</time>
      </trkpt>
      <trkpt lat="43.93277" lon="2.26912">
        <ele>130.6</ele>
        <time>2015-04-05T09:58:13Z</time>
      </trkpt>
      <trkpt lat="43.93281" lon="2.26925">
        <ele>130.2</ele>
        <time>2015-04-05T09:58:15Z</time>
      </trkpt>
      <trkpt lat="43.93286" lon="2.26937">
        <ele>130.4</ele>
        <time>2015-04-05T09:58:17Z</time>
      </trkpt>
      <trkpt lat="43.93291" lon="2.26949">
        <ele>130.6</ele>
        <time>2015-04-05T09:58:19Z</time>
      </trkpt>
      <trkpt lat="43.93296" lon="2.2696">
        <ele>130.5</ele>
        <time>2015-04-05T09:58:21Z</time>
      </trkpt>
      <trkpt lat="43.933" lon="2.26971">
        <ele>130.4</ele>
        <time>2015-04-05T09:58:23Z</time>
      </trkpt>
      <trkpt lat="43.93306" lon="2.26981">
        <ele>130.3</ele>
        <time>2015-04-05T09:58:25Z</time>
      </trkpt>
      <trkpt lat="43.93311" lon="2.26992">
        <ele>130.7</ele>
        <time>2015-04-05T09:58:27Z</time>
      </trkpt>
      <trkpt lat="43.93317" lon="2.27003">
        <ele>130.9</ele>
        <time>2015-04-05T09:58:29Z</time>
      </trkpt>
      <trkpt lat="43.93322" lon="2.27015">
        <ele>130.6</ele>
        <time>2015-04-05T09:58:31Z</time>
      </trkpt>
      <trkpt lat="43.93328" lon="2.27026">
        <ele>130.4</ele>
        <time>2015-04-05T09:58:33Z</time>
      </trkpt>
      <trkpt lat="43.93334" lon="2.27037">
        <ele>130.1</ele>
        <time>2015-04-05T09:58:35Z</time>
      </trkpt>
      <trkpt lat="43.9334" lon="2.27047">
        <ele>130.1</ele>
        <time>2015-04-05T09:58:37Z</time>
      </trkpt>
      <trkpt lat="43.93346" lon="2.27058">
        <ele>130.7</ele>
        <time>2015-04-05T09:58:39Z</time>
      </trkpt>
      <trkpt lat="43.93351" lon="2.27068">
        <ele>130.2</ele>
        <time>2015-04-05T09:58:41Z</time>
      </trkpt>
      <trkpt lat="43.93357" lon="2.27078">
        <ele>130.4</ele>
        <time>2015-04-05T09:58:43Z</time>
      </trkpt>
      <trkpt lat="43.93366" lon="2.27091">
        <ele>130</ele>
        <time>2015-04-05T09:58:46Z</time>
      </trkpt>
      <trkpt lat="43.93374" lon="2.271">
        <ele>129.3</ele>
        <time>2015-04-05T09:58:49Z</time>
      </trkpt>
      <trkpt lat="43.9338" lon="2.2711">
        <ele>129.7</ele>
        <time>2015-04-05T09:59:55Z</time>
      </trkpt>
      <trkpt lat="43.9338" lon="2.27125">
        <ele>126.5</ele>
        <time>2015-04-05T10:01:27Z</time>
      </trkpt>
      <trkpt lat="43.93383" lon="2.27137">
        <ele>126.8</ele>
        <time>2015-04-05T10:01:48Z</time>
      </trkpt>
      <trkpt lat="43.93388" lon="2.27148">
        <ele>127</ele>
        <time>2015-04-05T10:01:51Z</time>
      </trkpt>
      <trkpt lat="43.93394" lon="2.27164">
        <ele>127.2</ele>
        <time>2015-04-05T10:01:54Z</time>
      </trkpt>
      <trkpt lat="43.93401" lon="2.27179">
        <ele>127.2</ele>
        <time>2015-04-05T10:01:57Z</time>
      </trkpt>
      <trkpt lat="43.93406" lon="2.27192">
        <ele>127.2</ele>
        <time>2015-04-05T10:01:59Z</time>
      </trkpt>
      <trkpt lat="43.93412" lon="2.27204">
        <ele>127.2</ele>
        <time>2015-04-05T10:02:01Z</time>
      </trkpt>
      <trkpt lat="43.93417" lon="2.27216">
        <ele>127.2</ele>
        <time>2015-04-05T10:02:03Z</time>
      </trkpt>
      <trkpt lat="43.93422" lon="2.27231">
        <ele>127.2</ele>
        <time>2015-04-05T10:02:06Z</time>
      </trkpt>
      <trkpt lat="43.93161" lon="2.2826">
        <ele>118.2</ele>
        <time>2015-04-05T10:04:01Z</time>
      </trkpt>
      <trkpt lat="43.93152" lon="2.28279">
        <ele>124.5</ele>
        <time>2015-04-05T10:04:03Z</time>
      </trkpt>
      <trkpt lat="43.93142" lon="2.2829">
        <ele>124.8</ele>
        <time>2015-04-05T10:04:05Z</time>
      </trkpt>
      <trkpt lat="43.93135" lon="2.28303">
        <ele>132</ele>
        <time>2015-04-05T10:04:07Z</time>
      </trkpt>
      <trkpt lat="43.93126" lon="2.28315">
        <ele>137.5</ele>
        <time>2015-04-05T10:04:09Z</time>
      </trkpt>
      <trkpt lat="43.93118" lon="2.28324">
        <ele>137.4</ele>
        <time>2015-04-05T10:04:11Z</time>
      </trkpt>
      <trkpt lat="43.9311" lon="2.28333">
        <ele>138.5</ele>
        <time>2015-04-05T10:04:13Z</time>
      </trkpt>
      <trkpt lat="43.93103" lon="2.28342">
        <ele>140.1</ele>
        <time>2015-04-05T10:04:15Z</time>
      </trkpt>
      <trkpt lat="43.93095" lon="2.2835">
        <ele>141.2</ele>
        <time>2015-04-05T10:04:17Z</time>
      </trkpt>
      <trkpt lat="43.93088" lon="2.28358">
        <ele>143</ele>
        <time>2015-04-05T10:04:19Z</time>
      </trkpt>
      <trkpt lat="43.93081" lon="2.28366">
        <ele>144</ele>
        <time>2015-04-05T10:04:23Z</time>
      </trkpt>
      <trkpt lat="43.93073" lon="2.28374">
        <ele>144</ele>
        <time>2015-04-05T10:04:55Z</time>
      </trkpt>
      <trkpt lat="43.93067" lon="2.28388">
        <ele>144.1</ele>
        <time>2015-04-05T10:04:58Z</time>
      </trkpt>
      <trkpt lat="43.93058" lon="2.28401">
        <ele>144.1</ele>
        <time>2015-04-05T10:05:01Z</time>
      </trkpt>
      <trkpt lat="43.93052" lon="2.2841">
        <ele>144.1</ele>
        <time>2015-04-05T10:05:03Z</time>
      </trkpt>
      <trkpt lat="43.93045" lon="2.2842">
        <ele>144</ele>
        <time>2015-04-05T10:05:05Z</time>
      </trkpt>
      <trkpt lat="43.93038" lon="2.2843">
        <ele>143.8</ele>
        <time>2015-04-05T10:05:07Z</time>
      </trkpt>
      <trkpt lat="43.93032" lon="2.28441">
        <ele>143.9</ele>
        <time>2015-04-05T10:05:09Z</time>
      </trkpt>
      <trkpt lat="43.93026" lon="2.28452">
        <ele>143.7</ele>
        <time>2015-04-05T10:05:11Z</time>
      </trkpt>
      <trkpt lat="43.9302" lon="2.28462">
        <ele>143</ele>
        <time>2015-04-05T10:05:13Z</time>
      </trkpt>
      <trkpt lat="43.93014" lon="2.28473">
        <ele>142.7</ele>
        <time>2015-04-05T10:05:15Z</time>
      </trkpt>
      <trkpt lat="43.93008" lon="2.28486">
        <ele>143.1</ele>
        <time>2015-04-05T10:05:17Z</time>
      </trkpt>
      <trkpt lat="43.93003" lon="2.28499">
        <ele>143.9</ele>
        <time>2015-04-05T10:05:19Z</time>
      </trkpt>
      <trkpt lat="43.92999" lon="2.2851">
        <ele>143.9</ele>
        <time>2015-04-05T10:05:21Z</time>
      </trkpt>
      <trkpt lat="43.92995" lon="2.28523">
        <ele>144.1</ele>
        <time>2015-04-05T10:05:23Z</time>
      </trkpt>
      <trkpt lat="43.9299" lon="2.28535">
        <ele>144.5</ele>
        <time>2015-04-05T10:05:25Z</time>
      </trkpt>
      <trkpt lat="43.92985" lon="2.2855">
        <ele>144.9</ele>
        <time>2015-04-05T10:05:27Z</time>
      </trkpt>
      <trkpt lat="43.92981" lon="2.28564">
        <ele>145.2</ele>
        <time>2015-04-05T10:05:29Z</time>
      </trkpt>
      <trkpt lat="43.92977" lon="2.28578">
        <ele>145.3</ele>
        <time>2015-04-05T10:05:31Z</time>
      </trkpt>
      <trkpt lat="43.92973" lon="2.28593">
        <ele>145.3</ele>
        <time>2015-04-05T10:05:33Z</time>
      </trkpt>
      <trkpt lat="43.9297" lon="2.28609">
        <ele>144.9</ele>
        <time>2015-04-05T10:05:35Z</time>
      </trkpt>
      <trkpt lat="43.92967" lon="2.28624">
        <ele>144.4</ele>
        <time>2015-04-05T10:05:37Z</time>
      </trkpt>
      <trkpt lat="43.92965" lon="2.2864">
        <ele>144</ele>
        <time>2015-04-05T10:05:39Z</time>
      </trkpt>
      <trkpt lat="43.92963" lon="2.28655">
        <ele>144.1</ele>
        <time>2015-04-05T10:05:41Z</time>
      </trkpt>
      <trkpt lat="43.92962" lon="2.2867">
        <ele>144.6</ele>
        <time>2015-04-05T10:05:43Z</time>
      </trkpt>
      <trkpt lat="43.92961" lon="2.28687">
        <ele>144.9</ele>
        <time>2015-04-05T10:05:45Z</time>
      </trkpt>
      <trkpt lat="43.92962" lon="2.28703">
        <ele>145.2</ele>
        <time>2015-04-05T10:05:47Z</time>
      </trkpt>
      <trkpt lat="43.92964" lon="2.2872">
        <ele>145.5</ele>
        <time>2015-04-05T10:05:49Z</time>
      </trkpt>
      <trkpt lat="43.92965" lon="2.28738">
        <ele>144.7</ele>
        <time>2015-04-05T10:05:51Z</time>
      </trkpt>
      <trkpt lat="43.92967" lon="2.28755">
        <ele>144.7</ele>
        <time>2015-04-05T10:05:53Z</time>
      </trkpt>
      <trkpt lat="43.9297" lon="2.28771">
        <ele>144.9</ele>
        <time>2015-04-05T10:05:55Z</time>
      </trkpt>
      <trkpt lat="43.92974" lon="2.28788">
        <ele>144.7</ele>
        <time>2015-04-05T10:05:57Z</time>
      </trkpt>
      <trkpt lat="43.92977" lon="2.28805">
        <ele>144.3</ele>
        <time>2015-04-05T10:05:59Z</time>
      </trkpt>
      <trkpt lat="43.92981" lon="2.2882">
        <ele>144.1</ele>
        <time>2015-04-05T10:06:01Z</time>
      </trkpt>
      <trkpt lat="43.92985" lon="2.28835">
        <ele>143.8</ele>
        <time>2015-04-05T10:06:03Z</time>
      </trkpt>
      <trkpt lat="43.9299" lon="2.2885">
        <ele>143.8</ele>
        <time>2015-04-05T10:06:05Z</time>
      </trkpt>
      <trkpt lat="43.92995" lon="2.28865">
        <ele>144.3</ele>
        <time>2015-04-05T10:06:07Z</time>
      </trkpt>
      <trkpt lat="43.93" lon="2.28879">
        <ele>144.2</ele>
        <time>2015-04-05T10:06:09Z</time>
      </trkpt>
      <trkpt lat="43.93007" lon="2.28893">
        <ele>144.2</ele>
        <time>2015-04-05T10:06:11Z</time>
      </trkpt>
      <trkpt lat="43.93014" lon="2.28907">
        <ele>144.4</ele>
        <time>2015-04-05T10:06:13Z</time>
      </trkpt>
      <trkpt lat="43.93022" lon="2.28919">
        <ele>144.3</ele>
        <time>2015-04-05T10:06:15Z</time>
      </trkpt>
      <trkpt lat="43.9303" lon="2.28931">
        <ele>144</ele>
        <time>2015-04-05T10:06:17Z</time>
      </trkpt>
      <trkpt lat="43.93039" lon="2.28942">
        <ele>143.9</ele>
        <time>2015-04-05T10:06:19Z</time>
      </trkpt>
      <trkpt lat="43.93048" lon="2.28952">
        <ele>144.1</ele>
        <time>2015-04-05T10:06:21Z</time>
      </trkpt>
      <trkpt lat="43.93057" lon="2.28961">
        <ele>143.9</ele>
        <time>2015-04-05T10:06:23Z</time>
      </trkpt>
      <trkpt lat="43.93066" lon="2.28971">
        <ele>143.5</ele>
        <time>2015-04-05T10:06:25Z</time>
      </trkpt>
      <trkpt lat="43.93077" lon="2.28982">
        <ele>143.1</ele>
        <time>2015-04-05T10:06:27Z</time>
      </trkpt>
      <trkpt lat="43.93086" lon="2.28993">
        <ele>142.3</ele>
        <time>2015-04-05T10:06:29Z</time>
      </trkpt>
      <trkpt lat="43.93096" lon="2.29003">
        <ele>142</ele>
        <time>2015-04-05T10:06:31Z</time>
      </trkpt>
      <trkpt lat="43.93106" lon="2.29012">
        <ele>141.2</ele>
        <time>2015-04-05T10:06:33Z</time>
      </trkpt>
      <trkpt lat="43.93117" lon="2.29021">
        <ele>141.6</ele>
        <time>2015-04-05T10:06:35Z</time>
      </trkpt>
      <trkpt lat="43.93127" lon="2.29029">
        <ele>141.4</ele>
        <time>2015-04-05T10:06:37Z</time>
      </trkpt>
      <trkpt lat="43.93139" lon="2.29036">
        <ele>141.1</ele>
        <time>2015-04-05T10:06:39Z</time>
      </trkpt>
      <trkpt lat="43.9315" lon="2.29043">
        <ele>141.4</ele>
        <time>2015-04-05T10:06:41Z</time>
      </trkpt>
      <trkpt lat="43.93162" lon="2.29051">
        <ele>142.2</ele>
        <time>2015-04-05T10:06:43Z</time>
      </trkpt>
      <trkpt lat="43.93173" lon="2.29057">
        <ele>142.5</ele>
        <time>2015-04-05T10:06:45Z</time>
      </trkpt>
      <trkpt lat="43.93183" lon="2.29064">
        <ele>142.6</ele>
        <time>2015-04-05T10:06:47Z</time>
      </trkpt>
      <trkpt lat="43.93194" lon="2.29071">
        <ele>143.2</ele>
        <time>2015-04-05T10:06:49Z</time>
      </trkpt>
      <trkpt lat="43.93204" lon="2.29079">
        <ele>143.5</ele>
        <time>2015-04-05T10:06:51Z</time>
      </trkpt>
      <trkpt lat="43.93214" lon="2.29086">
        <ele>143.8</ele>
        <time>2015-04-05T10:06:53Z</time>
      </trkpt>
      <trkpt lat="43.93224" lon="2.29091">
        <ele>144.5</ele>
        <time>2015-04-05T10:06:55Z</time>
      </trkpt>
      <trkpt lat="43.93233" lon="2.29097">
        <ele>145.1</ele>
        <time>2015-04-05T10:06:57Z</time>
      </trkpt>
      <trkpt lat="43.93243" lon="2.29101">
        <ele>145.6</ele>
        <time>2015-04-05T10:06:59Z</time>
      </trkpt>
      <trkpt lat="43.93253" lon="2.29107">
        <ele>146</ele>
        <time>2015-04-05T10:07:01Z</time>
      </trkpt>
      <trkpt lat="43.93261" lon="2.29114">
        <ele>146.3</ele>
        <time>2015-04-05T10:07:03Z</time>
      </trkpt>
      <trkpt lat="43.9327" lon="2.2912">
        <ele>146.4</ele>
        <time>2015-04-05T10:07:05Z</time>
      </trkpt>
      <trkpt lat="43.93279" lon="2.29127">
        <ele>146</ele>
        <time>2015-04-05T10:07:07Z</time>
      </trkpt>
      <trkpt lat="43.93288" lon="2.29132">
        <ele>145.2</ele>
        <time>2015-04-05T10:07:09Z</time>
      </trkpt>
      <trkpt lat="43.93297" lon="2.2914">
        <ele>145.2</ele>
        <time>2015-04-05T10:07:11Z</time>
      </trkpt>
      <trkpt lat="43.93305" lon="2.29149">
        <ele>144.4</ele>
        <time>2015-04-05T10:07:13Z</time>
      </trkpt>
      <trkpt lat="43.93313" lon="2.29158">
        <ele>144.9</ele>
        <time>2015-04-05T10:07:15Z</time>
      </trkpt>
      <trkpt lat="43.93321" lon="2.29166">
        <ele>144.3</ele>
        <time>2015-04-05T10:07:17Z</time>
      </trkpt>
      <trkpt lat="43.93329" lon="2.29174">
        <ele>143.8</ele>
        <time>2015-04-05T10:07:19Z</time>
      </trkpt>
      <trkpt lat="43.93335" lon="2.29184">
        <ele>144</ele>
        <time>2015-04-05T10:07:21Z</time>
      </trkpt>
      <trkpt lat="43.93342" lon="2.29195">
        <ele>143.7</ele>
        <time>2015-04-05T10:07:23Z</time>
      </trkpt>
      <trkpt lat="43.93349" lon="2.29205">
        <ele>143.5</ele>
        <time>2015-04-05T10:07:25Z</time>
      </trkpt>
      <trkpt lat="43.93356" lon="2.29216">
        <ele>143.5</ele>
        <time>2015-04-05T10:07:27Z</time>
      </trkpt>
      <trkpt lat="43.93363" lon="2.29226">
        <ele>143.4</ele>
        <time>2015-04-05T10:07:29Z</time>
      </trkpt>
      <trkpt lat="43.93369" lon="2.29237">
        <ele>143.7</ele>
        <time>2015-04-05T10:07:31Z</time>
      </trkpt>
      <trkpt lat="43.93374" lon="2.29249">
        <ele>144.4</ele>
        <time>2015-04-05T10:07:33Z</time>
      </trkpt>
      <trkpt lat="43.93381" lon="2.29263">
        <ele>144.6</ele>
        <time>2015-04-05T10:07:36Z</time>
      </trkpt>
      <trkpt lat="43.93387" lon="2.29276">
        <ele>144.9</ele>
        <time>2015-04-05T10:07:39Z</time>
      </trkpt>
      <trkpt lat="43.93394" lon="2.29291">
        <ele>144.9</ele>
        <time>2015-04-05T10:08:16Z</time>
      </trkpt>
      <trkpt lat="43.93398" lon="2.29303">
        <ele>144.7</ele>
        <time>2015-04-05T10:08:21Z</time>
      </trkpt>
      <trkpt lat="43.93401" lon="2.29317">
        <ele>144.9</ele>
        <time>2015-04-05T10:08:25Z</time>
      </trkpt>
      <trkpt lat="43.93407" lon="2.29327">
        <ele>145.1</ele>
        <time>2015-04-05T10:08:28Z</time>
      </trkpt>
      <trkpt lat="43.93414" lon="2.29338">
        <ele>145.2</ele>
        <time>2015-04-05T10:08:31Z</time>
      </trkpt>
      <trkpt lat="43.93422" lon="2.2935">
        <ele>145.3</ele>
        <time>2015-04-05T10:08:34Z</time>
      </trkpt>
      <trkpt lat="43.9343" lon="2.29361">
        <ele>145.3</ele>
        <time>2015-04-05T10:08:37Z</time>
      </trkpt>
      <trkpt lat="43.93438" lon="2.2937">
        <ele>145.2</ele>
        <time>2015-04-05T10:08:40Z</time>
      </trkpt>
      <trkpt lat="43.93324" lon="2.29811">
        <ele>136</ele>
        <time>2015-04-05T10:09:25Z</time>
      </trkpt>
      <trkpt lat="43.93314" lon="2.29829">
        <ele>141.5</ele>
        <time>2015-04-05T10:09:27Z</time>
      </trkpt>
      <trkpt lat="43.93304" lon="2.29846">
        <ele>144.9</ele>
        <time>2015-04-05T10:09:29Z</time>
      </trkpt>
      <trkpt lat="43.93294" lon="2.29862">
        <ele>145.5</ele>
        <time>2015-04-05T10:09:31Z</time>
      </trkpt>
      <trkpt lat="43.93284" lon="2.29876">
        <ele>145.4</ele>
        <time>2015-04-05T10:09:33Z</time>
      </trkpt>
      <trkpt lat="43.93272" lon="2.29888">
        <ele>146</ele>
        <time>2015-04-05T10:09:35Z</time>
      </trkpt>
      <trkpt lat="43.93263" lon="2.29901">
        <ele>145.9</ele>
        <time>2015-04-05T10:09:37Z</time>
      </trkpt>
      <trkpt lat="43.93254" lon="2.29912">
        <ele>146.2</ele>
        <time>2015-04-05T10:09:39Z</time>
      </trkpt>
      <trkpt lat="43.93245" lon="2.29924">
        <ele>146.1</ele>
        <time>2015-04-05T10:09:41Z</time>
      </trkpt>
      <trkpt lat="43.93237" lon="2.29937">
        <ele>145.9</ele>
        <time>2015-04-05T10:09:43Z</time>
      </trkpt>
      <trkpt lat="43.93229" lon="2.2995">
        <ele>145.7</ele>
        <time>2015-04-05T10:09:45Z</time>
      </trkpt>
      <trkpt lat="43.93223" lon="2.29962">
        <ele>145.4</ele>
        <time>2015-04-05T10:09:47Z</time>
      </trkpt>
      <trkpt lat="43.93217" lon="2.29975">
        <ele>145.4</ele>
        <time>2015-04-05T10:09:49Z</time>
      </trkpt>
      <trkpt lat="43.93212" lon="2.29992">
        <ele>145.2</ele>
        <time>2015-04-05T10:09:51Z</time>
      </trkpt>
      <trkpt lat="43.93208" lon="2.30008">
        <ele>145.1</ele>
        <time>2015-04-05T10:09:53Z</time>
      </trkpt>
      <trkpt lat="43.93204" lon="2.30023">
        <ele>145.1</ele>
        <time>2015-04-05T10:09:55Z</time>
      </trkpt>
      <trkpt lat="43.93199" lon="2.30039">
        <ele>145.6</ele>
        <time>2015-04-05T10:09:57Z</time>
      </trkpt>
      <trkpt lat="43.93195" lon="2.30055">
        <ele>146.4</ele>
        <time>2015-04-05T10:09:59Z</time>
      </trkpt>
      <trkpt lat="43.9319" lon="2.30069">
        <ele>146.9</ele>
        <time>2015-04-05T10:10:01Z</time>
      </trkpt>
      <trkpt lat="43.93186" lon="2.30082">
        <ele>148.3</ele>
        <time>2015-04-05T10:10:03Z</time>
      </trkpt>
      <trkpt lat="43.93181" lon="2.30095">
        <ele>148.5</ele>
        <time>2015-04-05T10:10:05Z</time>
      </trkpt>
      <trkpt lat="43.93176" lon="2.30108">
        <ele>149.2</ele>
        <time>2015-04-05T10:10:07Z</time>
      </trkpt>
      <trkpt lat="43.93178" lon="2.30121">
        <ele>149.3</ele>
        <time>2015-04-05T10:10:08Z</time>
      </trkpt>
      <trkpt lat="43.93174" lon="2.30138">
        <ele>149.8</ele>
        <time>2015-04-05T10:10:10Z</time>
      </trkpt>
      <trkpt lat="43.93176" lon="2.30151">
        <ele>150.3</ele>
        <time>2015-04-05T10:10:11Z</time>
      </trkpt>
      <trkpt lat="43.93175" lon="2.30168">
        <ele>150.8</ele>
        <time>2015-04-05T10:10:13Z</time>
      </trkpt>
      <trkpt lat="43.93172" lon="2.3018">
        <ele>151.4</ele>
        <time>2015-04-05T10:10:15Z</time>
      </trkpt>
      <trkpt lat="43.93168" lon="2.30192">
        <ele>151.7</ele>
        <time>2015-04-05T10:10:17Z</time>
      </trkpt>
      <trkpt lat="43.93166" lon="2.30207">
        <ele>152.7</ele>
        <time>2015-04-05T10:10:19Z</time>
      </trkpt>
      <trkpt lat="43.93165" lon="2.30223">
        <ele>153.4</ele>
        <time>2015-04-05T10:10:21Z</time>
      </trkpt>
      <trkpt lat="43.93164" lon="2.30239">
        <ele>153.8</ele>
        <time>2015-04-05T10:10:23Z</time>
      </trkpt>
      <trkpt lat="43.93161" lon="2.30253">
        <ele>154.4</ele>
        <time>2015-04-05T10:10:25Z</time>
      </trkpt>
      <trkpt lat="43.93158" lon="2.30266">
        <ele>154.8</ele>
        <time>2015-04-05T10:10:27Z</time>
      </trkpt>
      <trkpt lat="43.93157" lon="2.30281">
        <ele>155</ele>
        <time>2015-04-05T10:10:29Z</time>
      </trkpt>
      <trkpt lat="43.93154" lon="2.30295">
        <ele>154.7</ele>
        <time>2015-04-05T10:10:31Z</time>
      </trkpt>
      <trkpt lat="43.93152" lon="2.3031">
        <ele>154.3</ele>
        <time>2015-04-05T10:10:33Z</time>
      </trkpt>
      <trkpt lat="43.9315" lon="2.30324">
        <ele>153.4</ele>
        <time>2015-04-05T10:10:35Z</time>
      </trkpt>
      <trkpt lat="43.93148" lon="2.30339">
        <ele>153.7</ele>
        <time>2015-04-05T10:10:37Z</time>
      </trkpt>
      <trkpt lat="43.93145" lon="2.30354">
        <ele>153.5</ele>
        <time>2015-04-05T10:10:39Z</time>
      </trkpt>
      <trkpt lat="43.93145" lon="2.30371">
        <ele>153.3</ele>
        <time>2015-04-05T10:10:41Z</time>
      </trkpt>
      <trkpt lat="43.93145" lon="2.3039">
        <ele>152.6</ele>
        <time>2015-04-05T10:10:43Z</time>
      </trkpt>
      <trkpt lat="43.93145" lon="2.30406">
        <ele>152.7</ele>
        <time>2015-04-05T10:10:45Z</time>
      </trkpt>
      <trkpt lat="43.93145" lon="2.30422">
        <ele>152.9</ele>
        <time>2015-04-05T10:10:47Z</time>
      </trkpt>
      <trkpt lat="43.93146" lon="2.30439">
        <ele>153.3</ele>
        <time>2015-04-05T10:10:49Z</time>
      </trkpt>
      <trkpt lat="43.93147" lon="2.30454">
        <ele>153.7</ele>
        <time>2015-04-05T10:10:51Z</time>
      </trkpt>
      <trkpt lat="43.93148" lon="2.30471">
        <ele>153.8</ele>
        <time>2015-04-05T10:10:53Z</time>
      </trkpt>
      <trkpt lat="43.93149" lon="2.30487">
        <ele>153.7</ele>
        <time>2015-04-05T10:10:55Z</time>
      </trkpt>
      <trkpt lat="43.9315" lon="2.30504">
        <ele>153.5</ele>
        <time>2015-04-05T10:10:57Z</time>
      </trkpt>
      <trkpt lat="43.93151" lon="2.3052">
        <ele>153</ele>
        <time>2015-04-05T10:10:59Z</time>
      </trkpt>
      <trkpt lat="43.93152" lon="2.30537">
        <ele>152.6</ele>
        <time>2015-04-05T10:11:01Z</time>
      </trkpt>
      <trkpt lat="43.93153" lon="2.30552">
        <ele>151.9</ele>
        <time>2015-04-05T10:11:03Z</time>
      </trkpt>
      <trkpt lat="43.93155" lon="2.30568">
        <ele>151.5</ele>
        <time>2015-04-05T10:11:05Z</time>
      </trkpt>
      <trkpt lat="43.93156" lon="2.30585">
        <ele>151.3</ele>
        <time>2015-04-05T10:11:07Z</time>
      </trkpt>
      <trkpt lat="43.93157" lon="2.30601">
        <ele>150.8</ele>
        <time>2015-04-05T10:11:09Z</time>
      </trkpt>
      <trkpt lat="43.93158" lon="2.30618">
        <ele>150.9</ele>
        <time>2015-04-05T10:11:11Z</time>
      </trkpt>
      <trkpt lat="43.9316" lon="2.30637">
        <ele>150.6</ele>
        <time>2015-04-05T10:11:13Z</time>
      </trkpt>
      <trkpt lat="43.93162" lon="2.30655">
        <ele>149.8</ele>
        <time>2015-04-05T10:11:15Z</time>
      </trkpt>
      <trkpt lat="43.93164" lon="2.30672">
        <ele>149.4</ele>
        <time>2015-04-05T10:11:17Z</time>
      </trkpt>
      <trkpt lat="43.93166" lon="2.30689">
        <ele>149</ele>
        <time>2015-04-05T10:11:19Z</time>
      </trkpt>
      <trkpt lat="43.93168" lon="2.30705">
        <ele>149.3</ele>
        <time>2015-04-05T10:11:21Z</time>
      </trkpt>
      <trkpt lat="43.93169" lon="2.30722">
        <ele>148.9</ele>
        <time>2015-04-05T10:11:23Z</time>
      </trkpt>
      <trkpt lat="43.93171" lon="2.3074">
        <ele>148.1</ele>
        <time>2015-04-05T10:11:25Z</time>
      </trkpt>
      <trkpt lat="43.93173" lon="2.30756">
        <ele>147.8</ele>
        <time>2015-04-05T10:11:27Z</time>
      </trkpt>
      <trkpt lat="43.93174" lon="2.30773">
        <ele>147.1</ele>
        <time>2015-04-05T10:11:29Z</time>
      </trkpt>
      <trkpt lat="43.93175" lon="2.3079">
        <ele>146.6</ele>
        <time>2015-04-05T10:11:31Z</time>
      </trkpt>
      <trkpt lat="43.93176" lon="2.30808">
        <ele>146</ele>
        <time>2015-04-05T10:11:33Z</time>
      </trkpt>
      <trkpt lat="43.93177" lon="2.30824">
        <ele>145.3</ele>
        <time>2015-04-05T10:11:35Z</time>
      </trkpt>
      <trkpt lat="43.93178" lon="2.30841">
        <ele>145</ele>
        <time>2015-04-05T10:11:37Z</time>
      </trkpt>
      <trkpt lat="43.93179" lon="2.30857">
        <ele>144.2</ele>
        <time>2015-04-05T10:11:39Z</time>
      </trkpt>
      <trkpt lat="43.93181" lon="2.30874">
        <ele>143.8</ele>
        <time>2015-04-05T10:11:41Z</time>
      </trkpt>
      <trkpt lat="43.93182" lon="2.30891">
        <ele>144</ele>
        <time>2015-04-05T10:11:43Z</time>
      </trkpt>
      <trkpt lat="43.93184" lon="2.30908">
        <ele>143.6</ele>
        <time>2015-04-05T10:11:45Z</time>
      </trkpt>
      <trkpt lat="43.93186" lon="2.30925">
        <ele>142.6</ele>
        <time>2015-04-05T10:11:47Z</time>
      </trkpt>
      <trkpt lat="43.93187" lon="2.30941">
        <ele>142.5</ele>
        <time>2015-04-05T10:11:49Z</time>
      </trkpt>
      <trkpt lat="43.93188" lon="2.30957">
        <ele>142</ele>
        <time>2015-04-05T10:11:51Z</time>
      </trkpt>
      <trkpt lat="43.9319" lon="2.30974">
        <ele>141.2</ele>
        <time>2015-04-05T10:11:53Z</time>
      </trkpt>
      <trkpt lat="43.93191" lon="2.30991">
        <ele>140.9</ele>
        <time>2015-04-05T10:11:55Z</time>
      </trkpt>
      <trkpt lat="43.93193" lon="2.31008">
        <ele>140.8</ele>
        <time>2015-04-05T10:11:57Z</time>
      </trkpt>
      <trkpt lat="43.93194" lon="2.31026">
        <ele>141.4</ele>
        <time>2015-04-05T10:11:59Z</time>
      </trkpt>
      <trkpt lat="43.93196" lon="2.31044">
        <ele>141.2</ele>
        <time>2015-04-05T10:12:01Z</time>
      </trkpt>
      <trkpt lat="43.93198" lon="2.31061">
        <ele>141.7</ele>
        <time>2015-04-05T10:12:03Z</time>
      </trkpt>
      <trkpt lat="43.932" lon="2.31078">
        <ele>141.6</ele>
        <time>2015-04-05T10:12:05Z</time>
      </trkpt>
      <trkpt lat="43.93201" lon="2.31096">
        <ele>142.3</ele>
        <time>2015-04-05T10:12:07Z</time>
      </trkpt>
      <trkpt lat="43.93202" lon="2.31113">
        <ele>142.3</ele>
        <time>2015-04-05T10:12:09Z</time>
      </trkpt>
      <trkpt lat="43.93203" lon="2.31131">
        <ele>142.6</ele>
        <time>2015-04-05T10:12:11Z</time>
      </trkpt>
      <trkpt lat="43.93204" lon="2.3115">
        <ele>142.5</ele>
        <time>2015-04-05T10:12:13Z</time>
      </trkpt>
      <trkpt lat="43.93206" lon="2.31169">
        <ele>142.9</ele>
        <time>2015-04-05T10:12:15Z</time>
      </trkpt>
      <trkpt lat="43.93209" lon="2.31188">
        <ele>143.1</ele>
        <time>2015-04-05T10:12:17Z</time>
      </trkpt>
      <trkpt lat="43.9321" lon="2.31206">
        <ele>143.3</ele>
        <time>2015-04-05T10:12:19Z</time>
      </trkpt>
      <trkpt lat="43.93212" lon="2.31224">
        <ele>143.1</ele>
        <time>2015-04-05T10:12:21Z</time>
      </trkpt>
      <trkpt lat="43.93215" lon="2.31243">
        <ele>143.5</ele>
        <time>2015-04-05T10:12:23Z</time>
      </trkpt>
      <trkpt lat="43.93217" lon="2.31262">
        <ele>143.7</ele>
        <time>2015-04-05T10:12:25Z</time>
      </trkpt>
      <trkpt lat="43.9322" lon="2.3128">
        <ele>144.2</ele>
        <time>2015-04-05T10:12:27Z</time>
      </trkpt>
      <trkpt lat="43.93223" lon="2.31298">
        <ele>144.7</ele>
        <time>2015-04-05T10:12:29Z</time>
      </trkpt>
      <trkpt lat="43.93226" lon="2.31316">
        <ele>145.3</ele>
        <time>2015-04-05T10:12:31Z</time>
      </trkpt>
      <trkpt lat="43.93228" lon="2.31333">
        <ele>145.2</ele>
        <time>2015-04-05T10:12:33Z</time>
      </trkpt>
      <trkpt lat="43.93231" lon="2.3135">
        <ele>145.3</ele>
        <time>2015-04-05T10:12:35Z</time>
      </trkpt>
      <trkpt lat="43.93234" lon="2.31367">
        <ele>145.7</ele>
        <time>2015-04-05T10:12:37Z</time>
      </trkpt>
      <trkpt lat="43.93237" lon="2.31384">
        <ele>146</ele>
        <time>2015-04-05T10:12:39Z</time>
      </trkpt>
      <trkpt lat="43.93239" lon="2.31401">
        <ele>146.4</ele>
        <time>2015-04-05T10:12:41Z</time>
      </trkpt>
      <trkpt lat="43.93241" lon="2.31418">
        <ele>146.6</ele>
        <time>2015-04-05T10:12:43Z</time>
      </trkpt>
      <trkpt lat="43.93244" lon="2.31436">
        <ele>146.9</ele>
        <time>2015-04-05T10:12:45Z</time>
      </trkpt>
      <trkpt lat="43.93247" lon="2.31454">
        <ele>147.3</ele>
        <time>2015-04-05T10:12:47Z</time>
      </trkpt>
      <trkpt lat="43.93248" lon="2.31471">
        <ele>147.2</ele>
        <time>2015-04-05T10:12:49Z</time>
      </trkpt>
      <trkpt lat="43.93249" lon="2.31489">
        <ele>147.2</ele>
        <time>2015-04-05T10:12:51Z</time>
      </trkpt>
      <trkpt lat="43.9325" lon="2.31506">
        <ele>146.4</ele>
        <time>2015-04-05T10:12:53Z</time>
      </trkpt>
      <trkpt lat="43.93252" lon="2.31524">
        <ele>145.6</ele>
        <time>2015-04-05T10:12:55Z</time>
      </trkpt>
      <trkpt lat="43.93253" lon="2.31541">
        <ele>145.1</ele>
        <time>2015-04-05T10:12:57Z</time>
      </trkpt>
      <trkpt lat="43.93254" lon="2.31558">
        <ele>144.7</ele>
        <time>2015-04-05T10:12:59Z</time>
      </trkpt>
      <trkpt lat="43.93256" lon="2.31576">
        <ele>144.7</ele>
        <time>2015-04-05T10:13:01Z</time>
      </trkpt>
      <trkpt lat="43.93257" lon="2.31594">
        <ele>145.3</ele>
        <time>2015-04-05T10:13:03Z</time>
      </trkpt>
      <trkpt lat="43.93258" lon="2.31611">
        <ele>145.7</ele>
        <time>2015-04-05T10:13:05Z</time>
      </trkpt>
      <trkpt lat="43.93259" lon="2.31628">
        <ele>145.8</ele>
        <time>2015-04-05T10:13:07Z</time>
      </trkpt>
      <trkpt lat="43.93259" lon="2.31645">
        <ele>146</ele>
        <time>2015-04-05T10:13:09Z</time>
      </trkpt>
      <trkpt lat="43.9326" lon="2.31662">
        <ele>145.9</ele>
        <time>2015-04-05T10:13:11Z</time>
      </trkpt>
      <trkpt lat="43.93261" lon="2.31678">
        <ele>145.2</ele>
        <time>2015-04-05T10:13:13Z</time>
      </trkpt>
      <trkpt lat="43.93261" lon="2.31694">
        <ele>144.8</ele>
        <time>2015-04-05T10:13:15Z</time>
      </trkpt>
      <trkpt lat="43.93262" lon="2.31709">
        <ele>144.5</ele>
        <time>2015-04-05T10:13:17Z</time>
      </trkpt>
      <trkpt lat="43.93264" lon="2.31723">
        <ele>144.1</ele>
        <time>2015-04-05T10:13:19Z</time>
      </trkpt>
      <trkpt lat="43.93266" lon="2.31736">
        <ele>144.1</ele>
        <time>2015-04-05T10:13:21Z</time>
      </trkpt>
      <trkpt lat="43.93265" lon="2.31754">
        <ele>144.6</ele>
        <time>2015-04-05T10:13:24Z</time>
      </trkpt>
      <trkpt lat="43.93263" lon="2.31771">
        <ele>144.7</ele>
        <time>2015-04-05T10:13:27Z</time>
      </trkpt>
      <trkpt lat="43.93263" lon="2.31785">
        <ele>145</ele>
        <time>2015-04-05T10:13:29Z</time>
      </trkpt>
      <trkpt lat="43.93263" lon="2.31799">
        <ele>145.5</ele>
        <time>2015-04-05T10:13:31Z</time>
      </trkpt>
      <trkpt lat="43.93262" lon="2.31812">
        <ele>145.7</ele>
        <time>2015-04-05T10:13:33Z</time>
      </trkpt>
      <trkpt lat="43.93262" lon="2.31826">
        <ele>145.8</ele>
        <time>2015-04-05T10:13:35Z</time>
      </trkpt>
      <trkpt lat="43.93261" lon="2.31839">
        <ele>146.3</ele>
        <time>2015-04-05T10:13:37Z</time>
      </trkpt>
      <trkpt lat="43.93261" lon="2.31853">
        <ele>146.2</ele>
        <time>2015-04-05T10:13:39Z</time>
      </trkpt>
      <trkpt lat="43.93261" lon="2.31868">
        <ele>146</ele>
        <time>2015-04-05T10:13:41Z</time>
      </trkpt>
      <trkpt lat="43.93261" lon="2.31883">
        <ele>145.9</ele>
        <time>2015-04-05T10:13:43Z</time>
      </trkpt>
      <trkpt lat="43.9326" lon="2.31896">
        <ele>145.9</ele>
        <time>2015-04-05T10:13:45Z</time>
      </trkpt>
      <trkpt lat="43.93261" lon="2.31912">
        <ele>145.5</ele>
        <time>2015-04-05T10:13:47Z</time>
      </trkpt>
      <trkpt lat="43.93262" lon="2.31927">
        <ele>145.5</ele>
        <time>2015-04-05T10:13:49Z</time>
      </trkpt>
      <trkpt lat="43.93261" lon="2.3194">
        <ele>145.5</ele>
        <time>2015-04-05T10:13:51Z</time>
      </trkpt>
      <trkpt lat="43.93261" lon="2.31954">
        <ele>146.1</ele>
        <time>2015-04-05T10:13:53Z</time>
      </trkpt>
      <trkpt lat="43.93261" lon="2.31967">
        <ele>146.4</ele>
        <time>2015-04-05T10:13:55Z</time>
      </trkpt>
      <trkpt lat="43.9326" lon="2.31984">
        <ele>146.8</ele>
        <time>2015-04-05T10:13:58Z</time>
      </trkpt>
      <trkpt lat="43.93259" lon="2.31997">
        <ele>148.2</ele>
        <time>2015-04-05T10:14:00Z</time>
      </trkpt>
      <trkpt lat="43.93259" lon="2.32014">
        <ele>149.3</ele>
        <time>2015-04-05T10:14:03Z</time>
      </trkpt>
      <trkpt lat="43.93258" lon="2.32032">
        <ele>151</ele>
        <time>2015-04-05T10:14:06Z</time>
      </trkpt>
      <trkpt lat="43.93257" lon="2.32049">
        <ele>151.9</ele>
        <time>2015-04-05T10:14:09Z</time>
      </trkpt>
      <trkpt lat="43.93256" lon="2.32067">
        <ele>152.8</ele>
        <time>2015-04-05T10:14:12Z</time>
      </trkpt>
      <trkpt lat="43.93255" lon="2.32085">
        <ele>153.4</ele>
        <time>2015-04-05T10:14:15Z</time>
      </trkpt>
      <trkpt lat="43.93254" lon="2.32098">
        <ele>153.7</ele>
        <time>2015-04-05T10:14:17Z</time>
      </trkpt>
      <trkpt lat="43.93255" lon="2.32115">
        <ele>153.9</ele>
        <time>2015-04-05T10:14:19Z</time>
      </trkpt>
      <trkpt lat="43.93255" lon="2.3213">
        <ele>153.9</ele>
        <time>2015-04-05T10:14:21Z</time>
      </trkpt>
      <trkpt lat="43.93254" lon="2.32144">
        <ele>154.2</ele>
        <time>2015-04-05T10:14:23Z</time>
      </trkpt>
      <trkpt lat="43.93253" lon="2.32157">
        <ele>154.2</ele>
        <time>2015-04-05T10:14:25Z</time>
      </trkpt>
      <trkpt lat="43.93257" lon="2.32178">
        <ele>153.6</ele>
        <time>2015-04-05T10:14:27Z</time>
      </trkpt>
      <trkpt lat="43.93259" lon="2.32195">
        <ele>153.4</ele>
        <time>2015-04-05T10:14:29Z</time>
      </trkpt>
      <trkpt lat="43.93258" lon="2.32209">
        <ele>153.3</ele>
        <time>2015-04-05T10:14:31Z</time>
      </trkpt>
      <trkpt lat="43.93259" lon="2.32224">
        <ele>153.2</ele>
        <time>2015-04-05T10:14:33Z</time>
      </trkpt>
      <trkpt lat="43.93261" lon="2.32238">
        <ele>152.9</ele>
        <time>2015-04-05T10:14:35Z</time>
      </trkpt>
      <trkpt lat="43.93262" lon="2.32253">
        <ele>152.8</ele>
        <time>2015-04-05T10:14:37Z</time>
      </trkpt>
      <trkpt lat="43.9326" lon="2.32267">
        <ele>152.9</ele>
        <time>2015-04-05T10:14:39Z</time>
      </trkpt>
      <trkpt lat="43.93259" lon="2.3228">
        <ele>153.2</ele>
        <time>2015-04-05T10:14:41Z</time>
      </trkpt>
      <trkpt lat="43.93259" lon="2.32295">
        <ele>153.5</ele>
        <time>2015-04-05T10:14:43Z</time>
      </trkpt>
      <trkpt lat="43.93256" lon="2.3231">
        <ele>153.7</ele>
        <time>2015-04-05T10:14:45Z</time>
      </trkpt>
      <trkpt lat="43.93252" lon="2.32325">
        <ele>153.5</ele>
        <time>2015-04-05T10:14:47Z</time>
      </trkpt>
      <trkpt lat="43.93246" lon="2.32342">
        <ele>153.2</ele>
        <time>2015-04-05T10:14:49Z</time>
      </trkpt>
      <trkpt lat="43.93241" lon="2.32363">
        <ele>152.7</ele>
        <time>2015-04-05T10:14:51Z</time>
      </trkpt>
      <trkpt lat="43.93237" lon="2.3238">
        <ele>152.5</ele>
        <time>2015-04-05T10:14:53Z</time>
      </trkpt>
      <trkpt lat="43.93234" lon="2.32397">
        <ele>152.3</ele>
        <time>2015-04-05T10:14:55Z</time>
      </trkpt>
      <trkpt lat="43.93231" lon="2.32414">
        <ele>152.3</ele>
        <time>2015-04-05T10:14:57Z</time>
      </trkpt>
      <trkpt lat="43.93228" lon="2.32431">
        <ele>152.3</ele>
        <time>2015-04-05T10:14:59Z</time>
      </trkpt>
      <trkpt lat="43.93225" lon="2.32447">
        <ele>152.3</ele>
        <time>2015-04-05T10:15:01Z</time>
      </trkpt>
      <trkpt lat="43.93222" lon="2.32464">
        <ele>152.2</ele>
        <time>2015-04-05T10:15:03Z</time>
      </trkpt>
      <trkpt lat="43.93219" lon="2.3248">
        <ele>152.3</ele>
        <time>2015-04-05T10:15:05Z</time>
      </trkpt>
      <trkpt lat="43.93217" lon="2.32496">
        <ele>152.4</ele>
        <time>2015-04-05T10:15:07Z</time>
      </trkpt>
      <trkpt lat="43.93214" lon="2.32512">
        <ele>152.6</ele>
        <time>2015-04-05T10:15:09Z</time>
      </trkpt>
      <trkpt lat="43.93212" lon="2.32529">
        <ele>153.1</ele>
        <time>2015-04-05T10:15:11Z</time>
      </trkpt>
      <trkpt lat="43.9321" lon="2.32546">
        <ele>153.6</ele>
        <time>2015-04-05T10:15:13Z</time>
      </trkpt>
      <trkpt lat="43.93207" lon="2.32563">
        <ele>153.8</ele>
        <time>2015-04-05T10:15:15Z</time>
      </trkpt>
      <trkpt lat="43.93204" lon="2.32581">
        <ele>153.7</ele>
        <time>2015-04-05T10:15:17Z</time>
      </trkpt>
      <trkpt lat="43.93202" lon="2.32599">
        <ele>153.6</ele>
        <time>2015-04-05T10:15:19Z</time>
      </trkpt>
      <trkpt lat="43.932" lon="2.32619">
        <ele>152.7</ele>
        <time>2015-04-05T10:15:21Z</time>
      </trkpt>
      <trkpt lat="43.93198" lon="2.32637">
        <ele>152.5</ele>
        <time>2015-04-05T10:15:23Z</time>
      </trkpt>
      <trkpt lat="43.93196" lon="2.32656">
        <ele>152</ele>
        <time>2015-04-05T10:15:25Z</time>
      </trkpt>
      <trkpt lat="43.93194" lon="2.32674">
        <ele>151.6</ele>
        <time>2015-04-05T10:15:27Z</time>
      </trkpt>
      <trkpt lat="43.93193" lon="2.32692">
        <ele>151</ele>
        <time>2015-04-05T10:15:29Z</time>
      </trkpt>
      <trkpt lat="43.93192" lon="2.32709">
        <ele>150.3</ele>
        <time>2015-04-05T10:15:31Z</time>
      </trkpt>
      <trkpt lat="43.93193" lon="2.32727">
        <ele>149.6</ele>
        <time>2015-04-05T10:15:33Z</time>
      </trkpt>
      <trkpt lat="43.93193" lon="2.32745">
        <ele>148.6</ele>
        <time>2015-04-05T10:15:35Z</time>
      </trkpt>
      <trkpt lat="43.93193" lon="2.32761">
        <ele>147.8</ele>
        <time>2015-04-05T10:15:37Z</time>
      </trkpt>
      <trkpt lat="43.93193" lon="2.32779">
        <ele>147.1</ele>
        <time>2015-04-05T10:15:39Z</time>
      </trkpt>
      <trkpt lat="43.93194" lon="2.32798">
        <ele>146.3</ele>
        <time>2015-04-05T10:15:41Z</time>
      </trkpt>
      <trkpt lat="43.93194" lon="2.32816">
        <ele>145.5</ele>
        <time>2015-04-05T10:15:43Z</time>
      </trkpt>
      <trkpt lat="43.93195" lon="2.32834">
        <ele>144.4</ele>
        <time>2015-04-05T10:15:45Z</time>
      </trkpt>
      <trkpt lat="43.93195" lon="2.32851">
        <ele>144</ele>
        <time>2015-04-05T10:15:47Z</time>
      </trkpt>
      <trkpt lat="43.93195" lon="2.32868">
        <ele>143.8</ele>
        <time>2015-04-05T10:15:49Z</time>
      </trkpt>
      <trkpt lat="43.93194" lon="2.32886">
        <ele>143</ele>
        <time>2015-04-05T10:15:51Z</time>
      </trkpt>
      <trkpt lat="43.93195" lon="2.32903">
        <ele>142.5</ele>
        <time>2015-04-05T10:15:53Z</time>
      </trkpt>
      <trkpt lat="43.93196" lon="2.3292">
        <ele>141.9</ele>
        <time>2015-04-05T10:15:55Z</time>
      </trkpt>
      <trkpt lat="43.93196" lon="2.32938">
        <ele>141.7</ele>
        <time>2015-04-05T10:15:57Z</time>
      </trkpt>
      <trkpt lat="43.93197" lon="2.32954">
        <ele>141.5</ele>
        <time>2015-04-05T10:15:59Z</time>
      </trkpt>
      <trkpt lat="43.93197" lon="2.32971">
        <ele>141.6</ele>
        <time>2015-04-05T10:16:01Z</time>
      </trkpt>
      <trkpt lat="43.93198" lon="2.32987">
        <ele>141.3</ele>
        <time>2015-04-05T10:16:03Z</time>
      </trkpt>
      <trkpt lat="43.93199" lon="2.33003">
        <ele>142</ele>
        <time>2015-04-05T10:16:05Z</time>
      </trkpt>
      <trkpt lat="43.93201" lon="2.3302">
        <ele>142.8</ele>
        <time>2015-04-05T10:16:07Z</time>
      </trkpt>
      <trkpt lat="43.93202" lon="2.33036">
        <ele>143.6</ele>
        <time>2015-04-05T10:16:09Z</time>
      </trkpt>
      <trkpt lat="43.93202" lon="2.33052">
        <ele>143.7</ele>
        <time>2015-04-05T10:16:11Z</time>
      </trkpt>
      <trkpt lat="43.93203" lon="2.33067">
        <ele>143.5</ele>
        <time>2015-04-05T10:16:13Z</time>
      </trkpt>
      <trkpt lat="43.93203" lon="2.33081">
        <ele>143.6</ele>
        <time>2015-04-05T10:16:15Z</time>
      </trkpt>
      <trkpt lat="43.93203" lon="2.33096">
        <ele>143.7</ele>
        <time>2015-04-05T10:16:17Z</time>
      </trkpt>
      <trkpt lat="43.93204" lon="2.3311">
        <ele>143.8</ele>
        <time>2015-04-05T10:16:19Z</time>
      </trkpt>
      <trkpt lat="43.93205" lon="2.33125">
        <ele>144</ele>
        <time>2015-04-05T10:16:21Z</time>
      </trkpt>
      <trkpt lat="43.93205" lon="2.3314">
        <ele>144.4</ele>
        <time>2015-04-05T10:16:23Z</time>
      </trkpt>
      <trkpt lat="43.93206" lon="2.33154">
        <ele>144.6</ele>
        <time>2015-04-05T10:16:25Z</time>
      </trkpt>
      <trkpt lat="43.93206" lon="2.33168">
        <ele>144.7</ele>
        <time>2015-04-05T10:16:27Z</time>
      </trkpt>
      <trkpt lat="43.93207" lon="2.33181">
        <ele>145.1</ele>
        <time>2015-04-05T10:16:29Z</time>
      </trkpt>
      <trkpt lat="43.93208" lon="2.33194">
        <ele>145.3</ele>
        <time>2015-04-05T10:16:31Z</time>
      </trkpt>
      <trkpt lat="43.93208" lon="2.33207">
        <ele>145.4</ele>
        <time>2015-04-05T10:16:33Z</time>
      </trkpt>
      <trkpt lat="43.93209" lon="2.33225">
        <ele>144.7</ele>
        <time>2015-04-05T10:16:36Z</time>
      </trkpt>
      <trkpt lat="43.93209" lon="2.33243">
        <ele>144.4</ele>
        <time>2015-04-05T10:16:39Z</time>
      </trkpt>
      <trkpt lat="43.9321" lon="2.33261">
        <ele>144.9</ele>
        <time>2015-04-05T10:16:42Z</time>
      </trkpt>
      <trkpt lat="43.9321" lon="2.3328">
        <ele>145.7</ele>
        <time>2015-04-05T10:16:45Z</time>
      </trkpt>
      <trkpt lat="43.93209" lon="2.33297">
        <ele>145.7</ele>
        <time>2015-04-05T10:16:48Z</time>
      </trkpt>
      <trkpt lat="43.93209" lon="2.33315">
        <ele>145.1</ele>
        <time>2015-04-05T10:16:51Z</time>
      </trkpt>
      <trkpt lat="43.9321" lon="2.33327">
        <ele>144.9</ele>
        <time>2015-04-05T10:16:53Z</time>
      </trkpt>
      <trkpt lat="43.93211" lon="2.3334">
        <ele>144.4</ele>
        <time>2015-04-05T10:16:55Z</time>
      </trkpt>
      <trkpt lat="43.93212" lon="2.33355">
        <ele>144.6</ele>
        <time>2015-04-05T10:16:58Z</time>
      </trkpt>
      <trkpt lat="43.93211" lon="2.33369">
        <ele>145</ele>
        <time>2015-04-05T10:17:01Z</time>
      </trkpt>
      <trkpt lat="43.9321" lon="2.33384">
        <ele>145.9</ele>
        <time>2015-04-05T10:17:05Z</time>
      </trkpt>
      <trkpt lat="43.93208" lon="2.33399">
        <ele>147.7</ele>
        <time>2015-04-05T10:17:26Z</time>
      </trkpt>
      <trkpt lat="43.93208" lon="2.33413">
        <ele>147.9</ele>
        <time>2015-04-05T10:17:30Z</time>
      </trkpt>
      <trkpt lat="43.93208" lon="2.33428">
        <ele>148.3</ele>
        <time>2015-04-05T10:17:33Z</time>
      </trkpt>
      <trkpt lat="43.93209" lon="2.33442">
        <ele>148.4</ele>
        <time>2015-04-05T10:17:36Z</time>
      </trkpt>
      <trkpt lat="43.93211" lon="2.33459">
        <ele>148.3</ele>
        <time>2015-04-05T10:17:39Z</time>
      </trkpt>
      <trkpt lat="43.93212" lon="2.33471">
        <ele>147.9</ele>
        <time>2015-04-05T10:17:41Z</time>
      </trkpt>
      <trkpt lat="43.93213" lon="2.33484">
        <ele>147.4</ele>
        <time>2015-04-05T10:17:43Z</time>
      </trkpt>
      <trkpt lat="43.93215" lon="2.33498">
        <ele>146.9</ele>
        <time>2015-04-05T10:17:45Z</time>
      </trkpt>
      <trkpt lat="43.93217" lon="2.33512">
        <ele>146.3</ele>
        <time>2015-04-05T10:17:47Z</time>
      </trkpt>
      <trkpt lat="43.9322" lon="2.33526">
        <ele>145.7</ele>
        <time>2015-04-05T10:17:49Z</time>
      </trkpt>
      <trkpt lat="43.9322" lon="2.33544">
        <ele>145</ele>
        <time>2015-04-05T10:17:52Z</time>
      </trkpt>
      <trkpt lat="43.93221" lon="2.3356">
        <ele>144.8</ele>
        <time>2015-04-05T10:17:54Z</time>
      </trkpt>
      <trkpt lat="43.93222" lon="2.33578">
        <ele>143.5</ele>
        <time>2015-04-05T10:17:56Z</time>
      </trkpt>
      <trkpt lat="43.93222" lon="2.33595">
        <ele>142.4</ele>
        <time>2015-04-05T10:17:58Z</time>
      </trkpt>
      <trkpt lat="43.93224" lon="2.33613">
        <ele>141.8</ele>
        <time>2015-04-05T10:18:00Z</time>
      </trkpt>
      <trkpt lat="43.93224" lon="2.3363">
        <ele>141.6</ele>
        <time>2015-04-05T10:18:02Z</time>
      </trkpt>
      <trkpt lat="43.93223" lon="2.33644">
        <ele>141.8</ele>
        <time>2015-04-05T10:18:04Z</time>
      </trkpt>
      <trkpt lat="43.93222" lon="2.33659">
        <ele>142.8</ele>
        <time>2015-04-05T10:18:06Z</time>
      </trkpt>
      <trkpt lat="43.9322" lon="2.33673">
        <ele>143.1</ele>
        <time>2015-04-05T10:18:08Z</time>
      </trkpt>
      <trkpt lat="43.93218" lon="2.33687">
        <ele>143.2</ele>
        <time>2015-04-05T10:18:10Z</time>
      </trkpt>
      <trkpt lat="43.93216" lon="2.337">
        <ele>143.4</ele>
        <time>2015-04-05T10:18:12Z</time>
      </trkpt>
      <trkpt lat="43.93214" lon="2.33714">
        <ele>143.7</ele>
        <time>2015-04-05T10:18:14Z</time>
      </trkpt>
      <trkpt lat="43.9321" lon="2.33729">
        <ele>143.9</ele>
        <time>2015-04-05T10:18:16Z</time>
      </trkpt>
      <trkpt lat="43.93206" lon="2.33743">
        <ele>143.7</ele>
        <time>2015-04-05T10:18:18Z</time>
      </trkpt>
      <trkpt lat="43.93201" lon="2.33758">
        <ele>143.5</ele>
        <time>2015-04-05T10:18:20Z</time>
      </trkpt>
      <trkpt lat="43.93197" lon="2.33773">
        <ele>143.3</ele>
        <time>2015-04-05T10:18:22Z</time>
      </trkpt>
      <trkpt lat="43.93192" lon="2.33787">
        <ele>143.2</ele>
        <time>2015-04-05T10:18:24Z</time>
      </trkpt>
      <trkpt lat="43.93188" lon="2.33802">
        <ele>143</ele>
        <time>2015-04-05T10:18:26Z</time>
      </trkpt>
      <trkpt lat="43.93184" lon="2.33817">
        <ele>143.1</ele>
        <time>2015-04-05T10:18:28Z</time>
      </trkpt>
      <trkpt lat="43.9318" lon="2.33834">
        <ele>143</ele>
        <time>2015-04-05T10:18:30Z</time>
      </trkpt>
      <trkpt lat="43.93174" lon="2.33852">
        <ele>143.3</ele>
        <time>2015-04-05T10:18:32Z</time>
      </trkpt>
      <trkpt lat="43.93169" lon="2.33868">
        <ele>143.5</ele>
        <time>2015-04-05T10:18:34Z</time>
      </trkpt>
      <trkpt lat="43.93164" lon="2.33885">
        <ele>143.6</ele>
        <time>2015-04-05T10:18:36Z</time>
      </trkpt>
      <trkpt lat="43.9316" lon="2.33902">
        <ele>143.8</ele>
        <time>2015-04-05T10:18:38Z</time>
      </trkpt>
      <trkpt lat="43.93156" lon="2.3392">
        <ele>143.8</ele>
        <time>2015-04-05T10:18:40Z</time>
      </trkpt>
      <trkpt lat="43.93153" lon="2.33937">
        <ele>144</ele>
        <time>2015-04-05T10:18:42Z</time>
      </trkpt>
      <trkpt lat="43.93149" lon="2.33954">
        <ele>144</ele>
        <time>2015-04-05T10:18:44Z</time>
      </trkpt>
      <trkpt lat="43.93146" lon="2.33973">
        <ele>144</ele>
        <time>2015-04-05T10:18:46Z</time>
      </trkpt>
      <trkpt lat="43.93142" lon="2.3399">
        <ele>144.2</ele>
        <time>2015-04-05T10:18:48Z</time>
      </trkpt>
      <trkpt lat="43.93139" lon="2.34008">
        <ele>143.9</ele>
        <time>2015-04-05T10:18:50Z</time>
      </trkpt>
      <trkpt lat="43.93137" lon="2.34026">
        <ele>143.5</ele>
        <time>2015-04-05T10:18:52Z</time>
      </trkpt>
      <trkpt lat="43.93135" lon="2.34046">
        <ele>144.3</ele>
        <time>2015-04-05T10:18:54Z</time>
      </trkpt>
      <trkpt lat="43.93132" lon="2.34066">
        <ele>144.6</ele>
        <time>2015-04-05T10:18:56Z</time>
      </trkpt>
      <trkpt lat="43.93131" lon="2.34085">
        <ele>145</ele>
        <time>2015-04-05T10:18:58Z</time>
      </trkpt>
      <trkpt lat="43.93131" lon="2.34103">
        <ele>144.6</ele>
        <time>2015-04-05T10:19:00Z</time>
      </trkpt>
      <trkpt lat="43.93129" lon="2.34122">
        <ele>144.2</ele>
        <time>2015-04-05T10:19:02Z</time>
      </trkpt>
      <trkpt lat="43.9313" lon="2.3414">
        <ele>143.9</ele>
        <time>2015-04-05T10:19:04Z</time>
      </trkpt>
      <trkpt lat="43.93128" lon="2.34158">
        <ele>143.6</ele>
        <time>2015-04-05T10:19:06Z</time>
      </trkpt>
      <trkpt lat="43.93128" lon="2.34174">
        <ele>142.9</ele>
        <time>2015-04-05T10:19:08Z</time>
      </trkpt>
      <trkpt lat="43.93126" lon="2.34192">
        <ele>142.4</ele>
        <time>2015-04-05T10:19:10Z</time>
      </trkpt>
      <trkpt lat="43.93125" lon="2.3421">
        <ele>141.6</ele>
        <time>2015-04-05T10:19:12Z</time>
      </trkpt>
      <trkpt lat="43.93124" lon="2.34228">
        <ele>141.2</ele>
        <time>2015-04-05T10:19:14Z</time>
      </trkpt>
      <trkpt lat="43.93123" lon="2.34246">
        <ele>140.5</ele>
        <time>2015-04-05T10:19:16Z</time>
      </trkpt>
      <trkpt lat="43.93123" lon="2.34264">
        <ele>139.9</ele>
        <time>2015-04-05T10:19:18Z</time>
      </trkpt>
      <trkpt lat="43.93123" lon="2.34282">
        <ele>139</ele>
        <time>2015-04-05T10:19:20Z</time>
      </trkpt>
      <trkpt lat="43.93123" lon="2.34299">
        <ele>137.8</ele>
        <time>2015-04-05T10:19:22Z</time>
      </trkpt>
      <trkpt lat="43.93123" lon="2.34317">
        <ele>136.7</ele>
        <time>2015-04-05T10:19:24Z</time>
      </trkpt>
      <trkpt lat="43.93122" lon="2.34336">
        <ele>136.6</ele>
        <time>2015-04-05T10:19:26Z</time>
      </trkpt>
      <trkpt lat="43.93124" lon="2.34354">
        <ele>137.5</ele>
        <time>2015-04-05T10:19:28Z</time>
      </trkpt>
      <trkpt lat="43.93125" lon="2.34371">
        <ele>137.6</ele>
        <time>2015-04-05T10:19:30Z</time>
      </trkpt>
      <trkpt lat="43.93127" lon="2.34388">
        <ele>137.7</ele>
        <time>2015-04-05T10:19:32Z</time>
      </trkpt>
      <trkpt lat="43.93129" lon="2.34405">
        <ele>138.5</ele>
        <time>2015-04-05T10:19:34Z</time>
      </trkpt>
      <trkpt lat="43.9313" lon="2.3442">
        <ele>139</ele>
        <time>2015-04-05T10:19:36Z</time>
      </trkpt>
      <trkpt lat="43.93133" lon="2.34435">
        <ele>140.4</ele>
        <time>2015-04-05T10:19:38Z</time>
      </trkpt>
      <trkpt lat="43.93136" lon="2.34449">
        <ele>141.3</ele>
        <time>2015-04-05T10:19:40Z</time>
      </trkpt>
      <trkpt lat="43.93138" lon="2.34463">
        <ele>141.9</ele>
        <time>2015-04-05T10:19:42Z</time>
      </trkpt>
      <trkpt lat="43.93141" lon="2.34477">
        <ele>142.5</ele>
        <time>2015-04-05T10:19:44Z</time>
      </trkpt>
      <trkpt lat="43.93145" lon="2.34492">
        <ele>143.1</ele>
        <time>2015-04-05T10:19:46Z</time>
      </trkpt>
      <trkpt lat="43.9315" lon="2.34505">
        <ele>143.4</ele>
        <time>2015-04-05T10:19:48Z</time>
      </trkpt>
      <trkpt lat="43.93154" lon="2.34519">
        <ele>143.9</ele>
        <time>2015-04-05T10:19:50Z</time>
      </trkpt>
      <trkpt lat="43.93157" lon="2.34533">
        <ele>144.7</ele>
        <time>2015-04-05T10:19:52Z</time>
      </trkpt>
      <trkpt lat="43.9316" lon="2.34546">
        <ele>145</ele>
        <time>2015-04-05T10:19:54Z</time>
      </trkpt>
      <trkpt lat="43.93164" lon="2.34559">
        <ele>145.7</ele>
        <time>2015-04-05T10:19:56Z</time>
      </trkpt>
      <trkpt lat="43.93169" lon="2.34573">
        <ele>146.6</ele>
        <time>2015-04-05T10:19:58Z</time>
      </trkpt>
      <trkpt lat="43.93173" lon="2.34586">
        <ele>147.1</ele>
        <time>2015-04-05T10:20:00Z</time>
      </trkpt>
      <trkpt lat="43.93178" lon="2.346">
        <ele>147.8</ele>
        <time>2015-04-05T10:20:02Z</time>
      </trkpt>
      <trkpt lat="43.93183" lon="2.34616">
        <ele>147.9</ele>
        <time>2015-04-05T10:20:04Z</time>
      </trkpt>
      <trkpt lat="43.93188" lon="2.34629">
        <ele>149.1</ele>
        <time>2015-04-05T10:20:06Z</time>
      </trkpt>
      <trkpt lat="43.93191" lon="2.34642">
        <ele>150</ele>
        <time>2015-04-05T10:20:08Z</time>
      </trkpt>
      <trkpt lat="43.93194" lon="2.34656">
        <ele>150.3</ele>
        <time>2015-04-05T10:20:10Z</time>
      </trkpt>
      <trkpt lat="43.93198" lon="2.34669">
        <ele>151.4</ele>
        <time>2015-04-05T10:20:12Z</time>
      </trkpt>
      <trkpt lat="43.93202" lon="2.34683">
        <ele>151.8</ele>
        <time>2015-04-05T10:20:14Z</time>
      </trkpt>
      <trkpt lat="43.93206" lon="2.34698">
        <ele>152.7</ele>
        <time>2015-04-05T10:20:16Z</time>
      </trkpt>
      <trkpt lat="43.9321" lon="2.3471">
        <ele>153.5</ele>
        <time>2015-04-05T10:20:18Z</time>
      </trkpt>
      <trkpt lat="43.93214" lon="2.34723">
        <ele>154.4</ele>
        <time>2015-04-05T10:20:20Z</time>
      </trkpt>
      <trkpt lat="43.93218" lon="2.34735">
        <ele>154.6</ele>
        <time>2015-04-05T10:20:22Z</time>
      </trkpt>
      <trkpt lat="43.93222" lon="2.34748">
        <ele>154.5</ele>
        <time>2015-04-05T10:20:24Z</time>
      </trkpt>
      <trkpt lat="43.93227" lon="2.3476">
        <ele>153.7</ele>
        <time>2015-04-05T10:20:26Z</time>
      </trkpt>
      <trkpt lat="43.93232" lon="2.34772">
        <ele>152.6</ele>
        <time>2015-04-05T10:20:28Z</time>
      </trkpt>
      <trkpt lat="43.93239" lon="2.34784">
        <ele>152.1</ele>
        <time>2015-04-05T10:20:30Z</time>
      </trkpt>
      <trkpt lat="43.93246" lon="2.34795">
        <ele>151.3</ele>
        <time>2015-04-05T10:20:32Z</time>
      </trkpt>
      <trkpt lat="43.93253" lon="2.34807">
        <ele>150.1</ele>
        <time>2015-04-05T10:20:34Z</time>
      </trkpt>
      <trkpt lat="43.93261" lon="2.34818">
        <ele>149.1</ele>
        <time>2015-04-05T10:20:36Z</time>
      </trkpt>
      <trkpt lat="43.93268" lon="2.34828">
        <ele>147.9</ele>
        <time>2015-04-05T10:20:38Z</time>
      </trkpt>
      <trkpt lat="43.93276" lon="2.34839">
        <ele>147.1</ele>
        <time>2015-04-05T10:20:40Z</time>
      </trkpt>
      <trkpt lat="43.93282" lon="2.34849">
        <ele>146.4</ele>
        <time>2015-04-05T10:20:42Z</time>
      </trkpt>
      <trkpt lat="43.9329" lon="2.34858">
        <ele>145.4</ele>
        <time>2015-04-05T10:20:44Z</time>
      </trkpt>
      <trkpt lat="43.93298" lon="2.34867">
        <ele>145.4</ele>
        <time>2015-04-05T10:20:46Z</time>
      </trkpt>
      <trkpt lat="43.93306" lon="2.34878">
        <ele>145.3</ele>
        <time>2015-04-05T10:20:48Z</time>
      </trkpt>
      <trkpt lat="43.93315" lon="2.34888">
        <ele>144.6</ele>
        <time>2015-04-05T10:20:50Z</time>
      </trkpt>
      <trkpt lat="43.93324" lon="2.34899">
        <ele>143.9</ele>
        <time>2015-04-05T10:20:52Z</time>
      </trkpt>
      <trkpt lat="43.93333" lon="2.34911">
        <ele>143.8</ele>
        <time>2015-04-05T10:20:54Z</time>
      </trkpt>
      <trkpt lat="43.93342" lon="2.34923">
        <ele>144.1</ele>
        <time>2015-04-05T10:20:56Z</time>
      </trkpt>
      <trkpt lat="43.93352" lon="2.34935">
        <ele>143.7</ele>
        <time>2015-04-05T10:20:58Z</time>
      </trkpt>
      <trkpt lat="43.93362" lon="2.34948">
        <ele>143.3</ele>
        <time>2015-04-05T10:21:00Z</time>
      </trkpt>
      <trkpt lat="43.93372" lon="2.34961">
        <ele>142.8</ele>
        <time>2015-04-05T10:21:02Z</time>
      </trkpt>
      <trkpt lat="43.93383" lon="2.34974">
        <ele>142.4</ele>
        <time>2015-04-05T10:21:04Z</time>
      </trkpt>
      <trkpt lat="43.93394" lon="2.34991">
        <ele>141.9</ele>
        <time>2015-04-05T10:21:06Z</time>
      </trkpt>
      <trkpt lat="43.93405" lon="2.35005">
        <ele>141.6</ele>
        <time>2015-04-05T10:21:08Z</time>
      </trkpt>
      <trkpt lat="43.93416" lon="2.35019">
        <ele>141.3</ele>
        <time>2015-04-05T10:21:10Z</time>
      </trkpt>
      <trkpt lat="43.93427" lon="2.35032">
        <ele>141.2</ele>
        <time>2015-04-05T10:21:12Z</time>
      </trkpt>
      <trkpt lat="43.93438" lon="2.35046">
        <ele>141.1</ele>
        <time>2015-04-05T10:21:14Z</time>
      </trkpt>
      <trkpt lat="43.93449" lon="2.3506">
        <ele>140.9</ele>
        <time>2015-04-05T10:21:16Z</time>
      </trkpt>
      <trkpt lat="43.93461" lon="2.35073">
        <ele>140.8</ele>
        <time>2015-04-05T10:21:18Z</time>
      </trkpt>
      <trkpt lat="43.93472" lon="2.35087">
        <ele>141.3</ele>
        <time>2015-04-05T10:21:20Z</time>
      </trkpt>
      <trkpt lat="43.93482" lon="2.351">
        <ele>141.4</ele>
        <time>2015-04-05T10:21:22Z</time>
      </trkpt>
      <trkpt lat="43.93492" lon="2.35112">
        <ele>140.7</ele>
        <time>2015-04-05T10:21:24Z</time>
      </trkpt>
      <trkpt lat="43.93502" lon="2.35124">
        <ele>140.6</ele>
        <time>2015-04-05T10:21:26Z</time>
      </trkpt>
      <trkpt lat="43.93512" lon="2.35136">
        <ele>140.6</ele>
        <time>2015-04-05T10:21:28Z</time>
      </trkpt>
      <trkpt lat="43.93521" lon="2.35148">
        <ele>140.4</ele>
        <time>2015-04-05T10:21:30Z</time>
      </trkpt>
      <trkpt lat="43.93529" lon="2.35159">
        <ele>140.5</ele>
        <time>2015-04-05T10:21:32Z</time>
      </trkpt>
      <trkpt lat="43.93538" lon="2.35169">
        <ele>140.4</ele>
        <time>2015-04-05T10:21:34Z</time>
      </trkpt>
      <trkpt lat="43.93546" lon="2.35179">
        <ele>140.3</ele>
        <time>2015-04-05T10:21:36Z</time>
      </trkpt>
      <trkpt lat="43.93554" lon="2.3519">
        <ele>140.1</ele>
        <time>2015-04-05T10:21:38Z</time>
      </trkpt>
      <trkpt lat="43.93562" lon="2.35199">
        <ele>140.7</ele>
        <time>2015-04-05T10:21:40Z</time>
      </trkpt>
      <trkpt lat="43.9357" lon="2.35209">
        <ele>140.9</ele>
        <time>2015-04-05T10:21:42Z</time>
      </trkpt>
      <trkpt lat="43.93579" lon="2.3522">
        <ele>140.8</ele>
        <time>2015-04-05T10:21:44Z</time>
      </trkpt>
      <trkpt lat="43.93587" lon="2.35231">
        <ele>141.2</ele>
        <time>2015-04-05T10:21:46Z</time>
      </trkpt>
      <trkpt lat="43.93596" lon="2.35242">
        <ele>141.4</ele>
        <time>2015-04-05T10:21:48Z</time>
      </trkpt>
      <trkpt lat="43.93605" lon="2.35254">
        <ele>141.5</ele>
        <time>2015-04-05T10:21:50Z</time>
      </trkpt>
      <trkpt lat="43.93614" lon="2.35267">
        <ele>142.4</ele>
        <time>2015-04-05T10:21:52Z</time>
      </trkpt>
      <trkpt lat="43.93623" lon="2.35278">
        <ele>142.5</ele>
        <time>2015-04-05T10:21:54Z</time>
      </trkpt>
      <trkpt lat="43.93632" lon="2.35288">
        <ele>142.6</ele>
        <time>2015-04-05T10:21:56Z</time>
      </trkpt>
      <trkpt lat="43.9364" lon="2.353">
        <ele>142.5</ele>
        <time>2015-04-05T10:21:58Z</time>
      </trkpt>
      <trkpt lat="43.93649" lon="2.35311">
        <ele>142.4</ele>
        <time>2015-04-05T10:22:00Z</time>
      </trkpt>
      <trkpt lat="43.93657" lon="2.35324">
        <ele>143.2</ele>
        <time>2015-04-05T10:22:02Z</time>
      </trkpt>
      <trkpt lat="43.93665" lon="2.35336">
        <ele>143.5</ele>
        <time>2015-04-05T10:22:04Z</time>
      </trkpt>
      <trkpt lat="43.93674" lon="2.35347">
        <ele>143.6</ele>
        <time>2015-04-05T10:22:06Z</time>
      </trkpt>
      <trkpt lat="43.93681" lon="2.35358">
        <ele>143.4</ele>
        <time>2015-04-05T10:22:08Z</time>
      </trkpt>
      <trkpt lat="43.93689" lon="2.35369">
        <ele>143.4</ele>
        <time>2015-04-05T10:22:10Z</time>
      </trkpt>
      <trkpt lat="43.93697" lon="2.3538">
        <ele>143.4</ele>
        <time>2015-04-05T10:22:12Z</time>
      </trkpt>
      <trkpt lat="43.93705" lon="2.3539">
        <ele>143.3</ele>
        <time>2015-04-05T10:22:14Z</time>
      </trkpt>
      <trkpt lat="43.93713" lon="2.354">
        <ele>143</ele>
        <time>2015-04-05T10:22:16Z</time>
      </trkpt>
      <trkpt lat="43.93721" lon="2.35411">
        <ele>142.3</ele>
        <time>2015-04-05T10:22:18Z</time>
      </trkpt>
      <trkpt lat="43.93728" lon="2.35421">
        <ele>142.2</ele>
        <time>2015-04-05T10:22:20Z</time>
      </trkpt>
      <trkpt lat="43.93735" lon="2.35432">
        <ele>142.1</ele>
        <time>2015-04-05T10:22:22Z</time>
      </trkpt>
      <trkpt lat="43.93741" lon="2.35442">
        <ele>141.4</ele>
        <time>2015-04-05T10:22:24Z</time>
      </trkpt>
      <trkpt lat="43.93749" lon="2.35451">
        <ele>141.4</ele>
        <time>2015-04-05T10:22:26Z</time>
      </trkpt>
      <trkpt lat="43.93755" lon="2.3546">
        <ele>141.4</ele>
        <time>2015-04-05T10:22:28Z</time>
      </trkpt>
      <trkpt lat="43.93762" lon="2.3547">
        <ele>141.2</ele>
        <time>2015-04-05T10:22:30Z</time>
      </trkpt>
      <trkpt lat="43.93769" lon="2.3548">
        <ele>141.5</ele>
        <time>2015-04-05T10:22:32Z</time>
      </trkpt>
      <trkpt lat="43.93776" lon="2.3549">
        <ele>141.8</ele>
        <time>2015-04-05T10:22:34Z</time>
      </trkpt>
      <trkpt lat="43.93783" lon="2.35499">
        <ele>142</ele>
        <time>2015-04-05T10:22:36Z</time>
      </trkpt>
      <trkpt lat="43.9379" lon="2.35509">
        <ele>141.3</ele>
        <time>2015-04-05T10:22:38Z</time>
      </trkpt>
      <trkpt lat="43.93796" lon="2.35518">
        <ele>140.9</ele>
        <time>2015-04-05T10:22:40Z</time>
      </trkpt>
      <trkpt lat="43.93805" lon="2.35531">
        <ele>141.6</ele>
        <time>2015-04-05T10:22:43Z</time>
      </trkpt>
      <trkpt lat="43.93815" lon="2.35544">
        <ele>141.8</ele>
        <time>2015-04-05T10:22:46Z</time>
      </trkpt>
      <trkpt lat="43.93821" lon="2.35553">
        <ele>141.7</ele>
        <time>2015-04-05T10:22:48Z</time>
      </trkpt>
      <trkpt lat="43.9383" lon="2.35567">
        <ele>141.7</ele>
        <time>2015-04-05T10:22:51Z</time>
      </trkpt>
      <trkpt lat="43.9384" lon="2.3558">
        <ele>141.6</ele>
        <time>2015-04-05T10:22:54Z</time>
      </trkpt>
      <trkpt lat="43.93846" lon="2.3559">
        <ele>142.3</ele>
        <time>2015-04-05T10:22:56Z</time>
      </trkpt>
      <trkpt lat="43.93853" lon="2.35599">
        <ele>143.1</ele>
        <time>2015-04-05T10:22:58Z</time>
      </trkpt>
      <trkpt lat="43.9386" lon="2.3561">
        <ele>143.5</ele>
        <time>2015-04-05T10:23:00Z</time>
      </trkpt>
      <trkpt lat="43.93868" lon="2.35621">
        <ele>143.5</ele>
        <time>2015-04-05T10:23:02Z</time>
      </trkpt>
      <trkpt lat="43.93875" lon="2.35632">
        <ele>143.9</ele>
        <time>2015-04-05T10:23:04Z</time>
      </trkpt>
      <trkpt lat="43.93882" lon="2.35644">
        <ele>144.5</ele>
        <time>2015-04-05T10:23:06Z</time>
      </trkpt>
      <trkpt lat="43.93889" lon="2.35656">
        <ele>144.7</ele>
        <time>2015-04-05T10:23:08Z</time>
      </trkpt>
      <trkpt lat="43.93896" lon="2.35667">
        <ele>144.6</ele>
        <time>2015-04-05T10:23:10Z</time>
      </trkpt>
      <trkpt lat="43.93902" lon="2.35677">
        <ele>144.3</ele>
        <time>2015-04-05T10:23:12Z</time>
      </trkpt>
      <trkpt lat="43.93907" lon="2.35688">
        <ele>143.8</ele>
        <time>2015-04-05T10:23:14Z</time>
      </trkpt>
      <trkpt lat="43.93914" lon="2.35703">
        <ele>143.4</ele>
        <time>2015-04-05T10:23:17Z</time>
      </trkpt>
      <trkpt lat="43.93919" lon="2.35717">
        <ele>143</ele>
        <time>2015-04-05T10:23:20Z</time>
      </trkpt>
      <trkpt lat="43.93924" lon="2.35732">
        <ele>142.7</ele>
        <time>2015-04-05T10:23:23Z</time>
      </trkpt>
      <trkpt lat="43.9393" lon="2.35747">
        <ele>142.3</ele>
        <time>2015-04-05T10:23:26Z</time>
      </trkpt>
      <trkpt lat="43.93934" lon="2.35759">
        <ele>141.9</ele>
        <time>2015-04-05T10:23:28Z</time>
      </trkpt>
      <trkpt lat="43.93938" lon="2.35772">
        <ele>142.8</ele>
        <time>2015-04-05T10:23:30Z</time>
      </trkpt>
      <trkpt lat="43.93942" lon="2.35784">
        <ele>143.1</ele>
        <time>2015-04-05T10:23:32Z</time>
      </trkpt>
      <trkpt lat="43.93945" lon="2.35797">
        <ele>143</ele>
        <time>2015-04-05T10:23:34Z</time>
      </trkpt>
      <trkpt lat="43.9395" lon="2.3581">
        <ele>143</ele>
        <time>2015-04-05T10:23:36Z</time>
      </trkpt>
      <trkpt lat="43.93954" lon="2.35823">
        <ele>143.3</ele>
        <time>2015-04-05T10:23:38Z</time>
      </trkpt>
      <trkpt lat="43.93959" lon="2.35836">
        <ele>143.2</ele>
        <time>2015-04-05T10:23:40Z</time>
      </trkpt>
      <trkpt lat="43.93964" lon="2.35852">
        <ele>143.2</ele>
        <time>2015-04-05T10:23:42Z</time>
      </trkpt>
      <trkpt lat="43.93969" lon="2.35867">
        <ele>143.7</ele>
        <time>2015-04-05T10:23:44Z</time>
      </trkpt>
      <trkpt lat="43.93974" lon="2.35881">
        <ele>144.3</ele>
        <time>2015-04-05T10:23:46Z</time>
      </trkpt>
      <trkpt lat="43.93979" lon="2.35896">
        <ele>144.6</ele>
        <time>2015-04-05T10:23:48Z</time>
      </trkpt>
      <trkpt lat="43.93983" lon="2.35911">
        <ele>144.8</ele>
        <time>2015-04-05T10:23:50Z</time>
      </trkpt>
      <trkpt lat="43.93988" lon="2.35926">
        <ele>145.4</ele>
        <time>2015-04-05T10:23:52Z</time>
      </trkpt>
      <trkpt lat="43.93994" lon="2.35942">
        <ele>145.9</ele>
        <time>2015-04-05T10:23:54Z</time>
      </trkpt>
      <trkpt lat="43.93999" lon="2.35956">
        <ele>146.2</ele>
        <time>2015-04-05T10:23:56Z</time>
      </trkpt>
      <trkpt lat="43.94005" lon="2.35971">
        <ele>146.7</ele>
        <time>2015-04-05T10:23:58Z</time>
      </trkpt>
      <trkpt lat="43.9401" lon="2.35987">
        <ele>146.5</ele>
        <time>2015-04-05T10:24:00Z</time>
      </trkpt>
      <trkpt lat="43.94015" lon="2.36001">
        <ele>146.5</ele>
        <time>2015-04-05T10:24:02Z</time>
      </trkpt>
      <trkpt lat="43.94019" lon="2.36016">
        <ele>147</ele>
        <time>2015-04-05T10:24:04Z</time>
      </trkpt>
      <trkpt lat="43.94025" lon="2.36031">
        <ele>147.3</ele>
        <time>2015-04-05T10:24:06Z</time>
      </trkpt>
      <trkpt lat="43.9403" lon="2.36045">
        <ele>147</ele>
        <time>2015-04-05T10:24:08Z</time>
      </trkpt>
      <trkpt lat="43.94035" lon="2.36059">
        <ele>147.5</ele>
        <time>2015-04-05T10:24:10Z</time>
      </trkpt>
      <trkpt lat="43.94039" lon="2.36074">
        <ele>147.4</ele>
        <time>2015-04-05T10:24:12Z</time>
      </trkpt>
      <trkpt lat="43.94045" lon="2.36089">
        <ele>147.2</ele>
        <time>2015-04-05T10:24:14Z</time>
      </trkpt>
      <trkpt lat="43.9405" lon="2.36104">
        <ele>147.4</ele>
        <time>2015-04-05T10:24:16Z</time>
      </trkpt>
      <trkpt lat="43.94055" lon="2.36118">
        <ele>147.4</ele>
        <time>2015-04-05T10:24:18Z</time>
      </trkpt>
      <trkpt lat="43.9406" lon="2.36133">
        <ele>147.1</ele>
        <time>2015-04-05T10:24:20Z</time>
      </trkpt>
      <trkpt lat="43.94065" lon="2.36146">
        <ele>147.7</ele>
        <time>2015-04-05T10:24:22Z</time>
      </trkpt>
      <trkpt lat="43.9407" lon="2.3616">
        <ele>147.7</ele>
        <time>2015-04-05T10:24:24Z</time>
      </trkpt>
      <trkpt lat="43.94074" lon="2.36173">
        <ele>147.7</ele>
        <time>2015-04-05T10:24:26Z</time>
      </trkpt>
      <trkpt lat="43.94079" lon="2.36187">
        <ele>147.4</ele>
        <time>2015-04-05T10:24:28Z</time>
      </trkpt>
      <trkpt lat="43.94084" lon="2.362">
        <ele>147.9</ele>
        <time>2015-04-05T10:24:30Z</time>
      </trkpt>
      <trkpt lat="43.94088" lon="2.36214">
        <ele>148.1</ele>
        <time>2015-04-05T10:24:32Z</time>
      </trkpt>
      <trkpt lat="43.94093" lon="2.36228">
        <ele>148</ele>
        <time>2015-04-05T10:24:34Z</time>
      </trkpt>
      <trkpt lat="43.94097" lon="2.36242">
        <ele>148.1</ele>
        <time>2015-04-05T10:24:36Z</time>
      </trkpt>
      <trkpt lat="43.94102" lon="2.36255">
        <ele>148</ele>
        <time>2015-04-05T10:24:38Z</time>
      </trkpt>
      <trkpt lat="43.94107" lon="2.36269">
        <ele>148</ele>
        <time>2015-04-05T10:24:40Z</time>
      </trkpt>
      <trkpt lat="43.94112" lon="2.36284">
        <ele>148.4</ele>
        <time>2015-04-05T10:24:42Z</time>
      </trkpt>
      <trkpt lat="43.94117" lon="2.36298">
        <ele>148.3</ele>
        <time>2015-04-05T10:24:44Z</time>
      </trkpt>
      <trkpt lat="43.94122" lon="2.36312">
        <ele>148.6</ele>
        <time>2015-04-05T10:24:46Z</time>
      </trkpt>
      <trkpt lat="43.94126" lon="2.36326">
        <ele>149.2</ele>
        <time>2015-04-05T10:24:48Z</time>
      </trkpt>
      <trkpt lat="43.94131" lon="2.36338">
        <ele>149.8</ele>
        <time>2015-04-05T10:24:50Z</time>
      </trkpt>
      <trkpt lat="43.94136" lon="2.36351">
        <ele>150.2</ele>
        <time>2015-04-05T10:24:52Z</time>
      </trkpt>
      <trkpt lat="43.9414" lon="2.36365">
        <ele>150.8</ele>
        <time>2015-04-05T10:24:54Z</time>
      </trkpt>
      <trkpt lat="43.94144" lon="2.36378">
        <ele>151.2</ele>
        <time>2015-04-05T10:24:56Z</time>
      </trkpt>
      <trkpt lat="43.94149" lon="2.3639">
        <ele>151.6</ele>
        <time>2015-04-05T10:24:58Z</time>
      </trkpt>
      <trkpt lat="43.94154" lon="2.36403">
        <ele>152.2</ele>
        <time>2015-04-05T10:25:00Z</time>
      </trkpt>
      <trkpt lat="43.94158" lon="2.36415">
        <ele>153</ele>
        <time>2015-04-05T10:25:02Z</time>
      </trkpt>
      <trkpt lat="43.94163" lon="2.36428">
        <ele>153.1</ele>
        <time>2015-04-05T10:25:04Z</time>
      </trkpt>
      <trkpt lat="43.94167" lon="2.36441">
        <ele>153.8</ele>
        <time>2015-04-05T10:25:06Z</time>
      </trkpt>
      <trkpt lat="43.94171" lon="2.36453">
        <ele>154.4</ele>
        <time>2015-04-05T10:25:08Z</time>
      </trkpt>
      <trkpt lat="43.94175" lon="2.36465">
        <ele>154.1</ele>
        <time>2015-04-05T10:25:10Z</time>
      </trkpt>
      <trkpt lat="43.94179" lon="2.36477">
        <ele>154.4</ele>
        <time>2015-04-05T10:25:12Z</time>
      </trkpt>
      <trkpt lat="43.94184" lon="2.3649">
        <ele>154.1</ele>
        <time>2015-04-05T10:25:14Z</time>
      </trkpt>
      <trkpt lat="43.94188" lon="2.36502">
        <ele>154.4</ele>
        <time>2015-04-05T10:25:16Z</time>
      </trkpt>
      <trkpt lat="43.94192" lon="2.36514">
        <ele>154.5</ele>
        <time>2015-04-05T10:25:18Z</time>
      </trkpt>
      <trkpt lat="43.94196" lon="2.36526">
        <ele>154.1</ele>
        <time>2015-04-05T10:25:20Z</time>
      </trkpt>
      <trkpt lat="43.94199" lon="2.36538">
        <ele>154.1</ele>
        <time>2015-04-05T10:25:22Z</time>
      </trkpt>
      <trkpt lat="43.94203" lon="2.36551">
        <ele>153.7</ele>
        <time>2015-04-05T10:25:24Z</time>
      </trkpt>
      <trkpt lat="43.94207" lon="2.36563">
        <ele>153.4</ele>
        <time>2015-04-05T10:25:26Z</time>
      </trkpt>
      <trkpt lat="43.94211" lon="2.36577">
        <ele>153.2</ele>
        <time>2015-04-05T10:25:28Z</time>
      </trkpt>
      <trkpt lat="43.94216" lon="2.3659">
        <ele>152.8</ele>
        <time>2015-04-05T10:25:30Z</time>
      </trkpt>
      <trkpt lat="43.94221" lon="2.36604">
        <ele>152.8</ele>
        <time>2015-04-05T10:25:32Z</time>
      </trkpt>
      <trkpt lat="43.94225" lon="2.36616">
        <ele>152.9</ele>
        <time>2015-04-05T10:25:34Z</time>
      </trkpt>
      <trkpt lat="43.9423" lon="2.3663">
        <ele>152.6</ele>
        <time>2015-04-05T10:25:36Z</time>
      </trkpt>
      <trkpt lat="43.94234" lon="2.36643">
        <ele>152.4</ele>
        <time>2015-04-05T10:25:38Z</time>
      </trkpt>
      <trkpt lat="43.94239" lon="2.36657">
        <ele>152.7</ele>
        <time>2015-04-05T10:25:40Z</time>
      </trkpt>
      <trkpt lat="43.94244" lon="2.3667">
        <ele>152.3</ele>
        <time>2015-04-05T10:25:42Z</time>
      </trkpt>
      <trkpt lat="43.94249" lon="2.36686">
        <ele>152.5</ele>
        <time>2015-04-05T10:25:44Z</time>
      </trkpt>
      <trkpt lat="43.94254" lon="2.367">
        <ele>152.4</ele>
        <time>2015-04-05T10:25:46Z</time>
      </trkpt>
      <trkpt lat="43.94259" lon="2.36714">
        <ele>152.6</ele>
        <time>2015-04-05T10:25:48Z</time>
      </trkpt>
      <trkpt lat="43.94264" lon="2.36728">
        <ele>153</ele>
        <time>2015-04-05T10:25:50Z</time>
      </trkpt>
      <trkpt lat="43.94268" lon="2.36743">
        <ele>153.2</ele>
        <time>2015-04-05T10:25:52Z</time>
      </trkpt>
      <trkpt lat="43.94273" lon="2.36757">
        <ele>153.3</ele>
        <time>2015-04-05T10:25:54Z</time>
      </trkpt>
      <trkpt lat="43.94277" lon="2.36769">
        <ele>153.5</ele>
        <time>2015-04-05T10:25:56Z</time>
      </trkpt>
      <trkpt lat="43.94281" lon="2.36782">
        <ele>153.6</ele>
        <time>2015-04-05T10:25:58Z</time>
      </trkpt>
      <trkpt lat="43.94284" lon="2.36794">
        <ele>154</ele>
        <time>2015-04-05T10:26:00Z</time>
      </trkpt>
      <trkpt lat="43.94289" lon="2.36807">
        <ele>153.9</ele>
        <time>2015-04-05T10:26:02Z</time>
      </trkpt>
      <trkpt lat="43.94294" lon="2.3682">
        <ele>153.3</ele>
        <time>2015-04-05T10:26:04Z</time>
      </trkpt>
      <trkpt lat="43.94298" lon="2.36834">
        <ele>153</ele>
        <time>2015-04-05T10:26:06Z</time>
      </trkpt>
      <trkpt lat="43.94302" lon="2.36849">
        <ele>152.3</ele>
        <time>2015-04-05T10:26:08Z</time>
      </trkpt>
      <trkpt lat="43.94305" lon="2.36864">
        <ele>151.9</ele>
        <time>2015-04-05T10:26:10Z</time>
      </trkpt>
      <trkpt lat="43.94308" lon="2.36878">
        <ele>151.1</ele>
        <time>2015-04-05T10:26:12Z</time>
      </trkpt>
      <trkpt lat="43.94311" lon="2.36893">
        <ele>151</ele>
        <time>2015-04-05T10:26:14Z</time>
      </trkpt>
      <trkpt lat="43.94314" lon="2.36911">
        <ele>150.5</ele>
        <time>2015-04-05T10:26:16Z</time>
      </trkpt>
      <trkpt lat="43.94316" lon="2.36926">
        <ele>150.4</ele>
        <time>2015-04-05T10:26:18Z</time>
      </trkpt>
      <trkpt lat="43.94318" lon="2.36941">
        <ele>150</ele>
        <time>2015-04-05T10:26:20Z</time>
      </trkpt>
      <trkpt lat="43.9432" lon="2.36955">
        <ele>149.7</ele>
        <time>2015-04-05T10:26:22Z</time>
      </trkpt>
      <trkpt lat="43.94322" lon="2.36969">
        <ele>149.7</ele>
        <time>2015-04-05T10:26:24Z</time>
      </trkpt>
      <trkpt lat="43.94325" lon="2.36983">
        <ele>149.3</ele>
        <time>2015-04-05T10:26:26Z</time>
      </trkpt>
      <trkpt lat="43.94327" lon="2.36996">
        <ele>148.9</ele>
        <time>2015-04-05T10:26:28Z</time>
      </trkpt>
      <trkpt lat="43.94329" lon="2.3701">
        <ele>148.4</ele>
        <time>2015-04-05T10:26:30Z</time>
      </trkpt>
      <trkpt lat="43.94331" lon="2.37023">
        <ele>148.2</ele>
        <time>2015-04-05T10:26:32Z</time>
      </trkpt>
      <trkpt lat="43.94331" lon="2.37036">
        <ele>148.1</ele>
        <time>2015-04-05T10:26:34Z</time>
      </trkpt>
      <trkpt lat="43.94331" lon="2.37049">
        <ele>147.9</ele>
        <time>2015-04-05T10:26:36Z</time>
      </trkpt>
      <trkpt lat="43.94334" lon="2.37062">
        <ele>147.7</ele>
        <time>2015-04-05T10:26:38Z</time>
      </trkpt>
      <trkpt lat="43.94335" lon="2.37075">
        <ele>147.4</ele>
        <time>2015-04-05T10:26:40Z</time>
      </trkpt>
      <trkpt lat="43.94336" lon="2.37093">
        <ele>147.2</ele>
        <time>2015-04-05T10:26:43Z</time>
      </trkpt>
      <trkpt lat="43.94336" lon="2.37107">
        <ele>146.9</ele>
        <time>2015-04-05T10:26:45Z</time>
      </trkpt>
      <trkpt lat="43.94337" lon="2.3712">
        <ele>146.9</ele>
        <time>2015-04-05T10:26:47Z</time>
      </trkpt>
      <trkpt lat="43.94335" lon="2.37137">
        <ele>147</ele>
        <time>2015-04-05T10:26:50Z</time>
      </trkpt>
      <trkpt lat="43.94335" lon="2.37152">
        <ele>147</ele>
        <time>2015-04-05T10:26:52Z</time>
      </trkpt>
      <trkpt lat="43.94335" lon="2.37169">
        <ele>146.6</ele>
        <time>2015-04-05T10:26:55Z</time>
      </trkpt>
      <trkpt lat="43.94333" lon="2.37188">
        <ele>146.8</ele>
        <time>2015-04-05T10:26:58Z</time>
      </trkpt>
      <trkpt lat="43.94332" lon="2.372">
        <ele>147.2</ele>
        <time>2015-04-05T10:27:00Z</time>
      </trkpt>
      <trkpt lat="43.94334" lon="2.37216">
        <ele>147.4</ele>
        <time>2015-04-05T10:27:03Z</time>
      </trkpt>
      <trkpt lat="43.94336" lon="2.37229">
        <ele>147.6</ele>
        <time>2015-04-05T10:27:05Z</time>
      </trkpt>
      <trkpt lat="43.94338" lon="2.37246">
        <ele>147.6</ele>
        <time>2015-04-05T10:27:08Z</time>
      </trkpt>
      <trkpt lat="43.94337" lon="2.37262">
        <ele>147.8</ele>
        <time>2015-04-05T10:27:11Z</time>
      </trkpt>
      <trkpt lat="43.94338" lon="2.3728">
        <ele>148.4</ele>
        <time>2015-04-05T10:27:14Z</time>
      </trkpt>
      <trkpt lat="43.94337" lon="2.37297">
        <ele>148.3</ele>
        <time>2015-04-05T10:27:17Z</time>
      </trkpt>
      <trkpt lat="43.9434" lon="2.37314">
        <ele>149</ele>
        <time>2015-04-05T10:27:20Z</time>
      </trkpt>
      <trkpt lat="43.9434" lon="2.37329">
        <ele>149.9</ele>
        <time>2015-04-05T10:27:23Z</time>
      </trkpt>
      <trkpt lat="43.94342" lon="2.37346">
        <ele>150.6</ele>
        <time>2015-04-05T10:27:26Z</time>
      </trkpt>
      <trkpt lat="43.94346" lon="2.37361">
        <ele>151.3</ele>
        <time>2015-04-05T10:27:29Z</time>
      </trkpt>
      <trkpt lat="43.94349" lon="2.37377">
        <ele>151.2</ele>
        <time>2015-04-05T10:27:32Z</time>
      </trkpt>
      <trkpt lat="43.94351" lon="2.37393">
        <ele>151.8</ele>
        <time>2015-04-05T10:27:35Z</time>
      </trkpt>
      <trkpt lat="43.94352" lon="2.37411">
        <ele>151.4</ele>
        <time>2015-04-05T10:27:38Z</time>
      </trkpt>
      <trkpt lat="43.94356" lon="2.37429">
        <ele>150.5</ele>
        <time>2015-04-05T10:27:41Z</time>
      </trkpt>
      <trkpt lat="43.94357" lon="2.37446">
        <ele>148.8</ele>
        <time>2015-04-05T10:27:44Z</time>
      </trkpt>
      <trkpt lat="43.9436" lon="2.37463">
        <ele>148.3</ele>
        <time>2015-04-05T10:27:47Z</time>
      </trkpt>
      <trkpt lat="43.94363" lon="2.37481">
        <ele>146.9</ele>
        <time>2015-04-05T10:27:50Z</time>
      </trkpt>
      <trkpt lat="43.94367" lon="2.37497">
        <ele>145.8</ele>
        <time>2015-04-05T10:27:53Z</time>
      </trkpt>
      <trkpt lat="43.94369" lon="2.37514">
        <ele>144.2</ele>
        <time>2015-04-05T10:27:56Z</time>
      </trkpt>
      <trkpt lat="43.94372" lon="2.3753">
        <ele>143</ele>
        <time>2015-04-05T10:27:59Z</time>
      </trkpt>
      <trkpt lat="43.94377" lon="2.37546">
        <ele>142.2</ele>
        <time>2015-04-05T10:28:02Z</time>
      </trkpt>
      <trkpt lat="43.94382" lon="2.37561">
        <ele>141.5</ele>
        <time>2015-04-05T10:28:05Z</time>
      </trkpt>
      <trkpt lat="43.94387" lon="2.37577">
        <ele>140.2</ele>
        <time>2015-04-05T10:28:08Z</time>
      </trkpt>
      <trkpt lat="43.9439" lon="2.37593">
        <ele>139.7</ele>
        <time>2015-04-05T10:28:11Z</time>
      </trkpt>
      <trkpt lat="43.94393" lon="2.3761">
        <ele>140.5</ele>
        <time>2015-04-05T10:28:14Z</time>
      </trkpt>
      <trkpt lat="43.944" lon="2.37624">
        <ele>143.1</ele>
        <time>2015-04-05T10:28:17Z</time>
      </trkpt>
      <trkpt lat="43.94408" lon="2.37638">
        <ele>144.2</ele>
        <time>2015-04-05T10:28:20Z</time>
      </trkpt>
      <trkpt lat="43.94414" lon="2.37653">
        <ele>143.9</ele>
        <time>2015-04-05T10:28:23Z</time>
      </trkpt>
      <trkpt lat="43.94419" lon="2.37668">
        <ele>143.4</ele>
        <time>2015-04-05T10:28:26Z</time>
      </trkpt>
      <trkpt lat="43.94427" lon="2.37683">
        <ele>145.7</ele>
        <time>2015-04-05T10:28:29Z</time>
      </trkpt>
      <trkpt lat="43.94433" lon="2.37696">
        <ele>145.9</ele>
        <time>2015-04-05T10:28:32Z</time>
      </trkpt>
      <trkpt lat="43.94438" lon="2.37708">
        <ele>146.8</ele>
        <time>2015-04-05T10:28:35Z</time>
      </trkpt>
      <trkpt lat="43.94445" lon="2.37719">
        <ele>148.6</ele>
        <time>2015-04-05T10:28:38Z</time>
      </trkpt>
      <trkpt lat="43.94451" lon="2.3773">
        <ele>148.8</ele>
        <time>2015-04-05T10:28:42Z</time>
      </trkpt>
      <trkpt lat="43.94456" lon="2.37741">
        <ele>148.1</ele>
        <time>2015-04-05T10:30:24Z</time>
      </trkpt>
      <trkpt lat="43.94463" lon="2.37751">
        <ele>148.1</ele>
        <time>2015-04-05T10:30:29Z</time>
      </trkpt>
      <trkpt lat="43.94468" lon="2.37764">
        <ele>148.2</ele>
        <time>2015-04-05T10:30:33Z</time>
      </trkpt>
      <trkpt lat="43.94474" lon="2.37776">
        <ele>148.4</ele>
        <time>2015-04-05T10:30:37Z</time>
      </trkpt>
      <trkpt lat="43.94481" lon="2.37785">
        <ele>148.3</ele>
        <time>2015-04-05T10:30:41Z</time>
      </trkpt>
      <trkpt lat="43.94491" lon="2.37791">
        <ele>148.1</ele>
        <time>2015-04-05T10:30:45Z</time>
      </trkpt>
      <trkpt lat="43.94499" lon="2.37796">
        <ele>148</ele>
        <time>2015-04-05T10:30:48Z</time>
      </trkpt>
      <trkpt lat="43.94508" lon="2.37803">
        <ele>147.9</ele>
        <time>2015-04-05T10:30:51Z</time>
      </trkpt>
      <trkpt lat="43.94517" lon="2.3781">
        <ele>147.7</ele>
        <time>2015-04-05T10:30:54Z</time>
      </trkpt>
      <trkpt lat="43.94526" lon="2.37815">
        <ele>147.4</ele>
        <time>2015-04-05T10:30:56Z</time>
      </trkpt>
      <trkpt lat="43.94537" lon="2.37822">
        <ele>147.1</ele>
        <time>2015-04-05T10:30:58Z</time>
      </trkpt>
      <trkpt lat="43.94551" lon="2.37828">
        <ele>147</ele>
        <time>2015-04-05T10:31:00Z</time>
      </trkpt>
      <trkpt lat="43.94567" lon="2.37833">
        <ele>146.8</ele>
        <time>2015-04-05T10:31:02Z</time>
      </trkpt>
      <trkpt lat="43.94584" lon="2.37836">
        <ele>146.5</ele>
        <time>2015-04-05T10:31:04Z</time>
      </trkpt>
      <trkpt lat="43.94593" lon="2.37837">
        <ele>146.7</ele>
        <time>2015-04-05T10:31:05Z</time>
      </trkpt>
      <trkpt lat="43.94602" lon="2.37837">
        <ele>146.7</ele>
        <time>2015-04-05T10:31:06Z</time>
      </trkpt>
      <trkpt lat="43.94611" lon="2.37838">
        <ele>146.7</ele>
        <time>2015-04-05T10:31:07Z</time>
      </trkpt>
      <trkpt lat="43.94627" lon="2.37844">
        <ele>146.6</ele>
        <time>2015-04-05T10:31:09Z</time>
      </trkpt>
      <trkpt lat="43.94639" lon="2.37854">
        <ele>146.2</ele>
        <time>2015-04-05T10:31:11Z</time>
      </trkpt>
      <trkpt lat="43.94648" lon="2.37862">
        <ele>145.4</ele>
        <time>2015-04-05T10:31:13Z</time>
      </trkpt>
      <trkpt lat="43.94658" lon="2.3787">
        <ele>144.9</ele>
        <time>2015-04-05T10:31:16Z</time>
      </trkpt>
      <trkpt lat="43.94668" lon="2.37874">
        <ele>145</ele>
        <time>2015-04-05T10:31:20Z</time>
      </trkpt>
      <trkpt lat="43.94676" lon="2.37881">
        <ele>144.9</ele>
        <time>2015-04-05T10:31:25Z</time>
      </trkpt>
      <trkpt lat="43.94679" lon="2.37894">
        <ele>145.5</ele>
        <time>2015-04-05T10:31:31Z</time>
      </trkpt>
      <trkpt lat="43.94669" lon="2.37899">
        <ele>145.8</ele>
        <time>2015-04-05T10:31:49Z</time>
      </trkpt>
      <trkpt lat="43.94678" lon="2.3791">
        <ele>146.8</ele>
        <time>2015-04-05T10:32:32Z</time>
      </trkpt>
      <trkpt lat="43.94686" lon="2.37905">
        <ele>147.2</ele>
        <time>2015-04-05T10:32:49Z</time>
      </trkpt>
      <trkpt lat="43.94678" lon="2.37912">
        <ele>147.9</ele>
        <time>2015-04-05T10:33:05Z</time>
      </trkpt>
      <trkpt lat="43.94688" lon="2.3791">
        <ele>147.3</ele>
        <time>2015-04-05T10:34:54Z</time>
      </trkpt>
      <trkpt lat="43.94697" lon="2.37911">
        <ele>146.7</ele>
        <time>2015-04-05T10:35:49Z</time>
      </trkpt>
      <trkpt lat="43.94688" lon="2.37913">
        <ele>146.3</ele>
        <time>2015-04-05T10:36:21Z</time>
      </trkpt>
      <trkpt lat="43.94676" lon="2.37906">
        <ele>148.2</ele>
        <time>2015-04-05T10:36:50Z</time>
      </trkpt>
      <trkpt lat="43.94681" lon="2.37894">
        <ele>144.1</ele>
        <time>2015-04-05T10:37:14Z</time>
      </trkpt>
      <trkpt lat="43.9469" lon="2.37885">
        <ele>150.5</ele>
        <time>2015-04-05T10:37:42Z</time>
      </trkpt>
      <trkpt lat="43.94699" lon="2.37879">
        <ele>150.5</ele>
        <time>2015-04-05T10:37:45Z</time>
      </trkpt>
      <trkpt lat="43.94707" lon="2.37871">
        <ele>150.5</ele>
        <time>2015-04-05T10:37:48Z</time>
      </trkpt>
      <trkpt lat="43.94716" lon="2.37864">
        <ele>151.1</ele>
        <time>2015-04-05T10:37:51Z</time>
      </trkpt>
      <trkpt lat="43.94726" lon="2.37861">
        <ele>151</ele>
        <time>2015-04-05T10:37:54Z</time>
      </trkpt>
      <trkpt lat="43.94735" lon="2.37858">
        <ele>151.2</ele>
        <time>2015-04-05T10:37:57Z</time>
      </trkpt>
      <trkpt lat="43.94745" lon="2.37854">
        <ele>151.2</ele>
        <time>2015-04-05T10:38:00Z</time>
      </trkpt>
      <trkpt lat="43.94755" lon="2.37849">
        <ele>150.9</ele>
        <time>2015-04-05T10:38:03Z</time>
      </trkpt>
      <trkpt lat="43.94764" lon="2.37845">
        <ele>151.2</ele>
        <time>2015-04-05T10:38:06Z</time>
      </trkpt>
      <trkpt lat="43.94773" lon="2.3784">
        <ele>151.6</ele>
        <time>2015-04-05T10:38:09Z</time>
      </trkpt>
      <trkpt lat="43.94784" lon="2.37835">
        <ele>151.4</ele>
        <time>2015-04-05T10:38:12Z</time>
      </trkpt>
      <trkpt lat="43.94793" lon="2.37829">
        <ele>150.8</ele>
        <time>2015-04-05T10:38:14Z</time>
      </trkpt>
      <trkpt lat="43.94802" lon="2.37818">
        <ele>149.7</ele>
        <time>2015-04-05T10:38:17Z</time>
      </trkpt>
      <trkpt lat="43.94812" lon="2.3781">
        <ele>150.3</ele>
        <time>2015-04-05T10:38:20Z</time>
      </trkpt>
      <trkpt lat="43.94819" lon="2.378">
        <ele>150.1</ele>
        <time>2015-04-05T10:38:23Z</time>
      </trkpt>
      <trkpt lat="43.94829" lon="2.37791">
        <ele>149.8</ele>
        <time>2015-04-05T10:38:26Z</time>
      </trkpt>
      <trkpt lat="43.94838" lon="2.37783">
        <ele>148.7</ele>
        <time>2015-04-05T10:38:29Z</time>
      </trkpt>
      <trkpt lat="43.94848" lon="2.37775">
        <ele>148.5</ele>
        <time>2015-04-05T10:38:32Z</time>
      </trkpt>
      <trkpt lat="43.94857" lon="2.37769">
        <ele>148.3</ele>
        <time>2015-04-05T10:38:34Z</time>
      </trkpt>
      <trkpt lat="43.94866" lon="2.37764">
        <ele>148.3</ele>
        <time>2015-04-05T10:38:36Z</time>
      </trkpt>
      <trkpt lat="43.94874" lon="2.37757">
        <ele>148.4</ele>
        <time>2015-04-05T10:38:38Z</time>
      </trkpt>
      <trkpt lat="43.94882" lon="2.37751">
        <ele>148.3</ele>
        <time>2015-04-05T10:38:40Z</time>
      </trkpt>
      <trkpt lat="43.94891" lon="2.37746">
        <ele>148</ele>
        <time>2015-04-05T10:38:42Z</time>
      </trkpt>
      <trkpt lat="43.949" lon="2.37738">
        <ele>147.4</ele>
        <time>2015-04-05T10:38:44Z</time>
      </trkpt>
      <trkpt lat="43.94908" lon="2.37732">
        <ele>146.7</ele>
        <time>2015-04-05T10:38:46Z</time>
      </trkpt>
      <trkpt lat="43.94917" lon="2.37726">
        <ele>146.2</ele>
        <time>2015-04-05T10:38:48Z</time>
      </trkpt>
      <trkpt lat="43.94927" lon="2.37721">
        <ele>145.5</ele>
        <time>2015-04-05T10:38:50Z</time>
      </trkpt>
      <trkpt lat="43.94937" lon="2.37715">
        <ele>145.2</ele>
        <time>2015-04-05T10:38:52Z</time>
      </trkpt>
      <trkpt lat="43.94946" lon="2.3771">
        <ele>145.3</ele>
        <time>2015-04-05T10:38:54Z</time>
      </trkpt>
      <trkpt lat="43.94955" lon="2.37704">
        <ele>145</ele>
        <time>2015-04-05T10:38:56Z</time>
      </trkpt>
      <trkpt lat="43.94963" lon="2.37699">
        <ele>144.7</ele>
        <time>2015-04-05T10:38:58Z</time>
      </trkpt>
      <trkpt lat="43.94973" lon="2.37694">
        <ele>144.9</ele>
        <time>2015-04-05T10:39:00Z</time>
      </trkpt>
      <trkpt lat="43.94982" lon="2.37689">
        <ele>144.5</ele>
        <time>2015-04-05T10:39:02Z</time>
      </trkpt>
      <trkpt lat="43.94991" lon="2.37684">
        <ele>144</ele>
        <time>2015-04-05T10:39:04Z</time>
      </trkpt>
      <trkpt lat="43.95001" lon="2.37679">
        <ele>143.3</ele>
        <time>2015-04-05T10:39:06Z</time>
      </trkpt>
      <trkpt lat="43.95011" lon="2.37675">
        <ele>142.6</ele>
        <time>2015-04-05T10:39:08Z</time>
      </trkpt>
      <trkpt lat="43.95021" lon="2.3767">
        <ele>141.6</ele>
        <time>2015-04-05T10:39:10Z</time>
      </trkpt>
      <trkpt lat="43.95031" lon="2.37667">
        <ele>141.5</ele>
        <time>2015-04-05T10:39:12Z</time>
      </trkpt>
      <trkpt lat="43.9504" lon="2.37663">
        <ele>140.9</ele>
        <time>2015-04-05T10:39:14Z</time>
      </trkpt>
      <trkpt lat="43.95049" lon="2.37659">
        <ele>141.2</ele>
        <time>2015-04-05T10:39:16Z</time>
      </trkpt>
      <trkpt lat="43.95061" lon="2.37654">
        <ele>143.5</ele>
        <time>2015-04-05T10:39:19Z</time>
      </trkpt>
      <trkpt lat="43.95074" lon="2.37649">
        <ele>143.9</ele>
        <time>2015-04-05T10:39:22Z</time>
      </trkpt>
      <trkpt lat="43.95083" lon="2.37647">
        <ele>144</ele>
        <time>2015-04-05T10:39:24Z</time>
      </trkpt>
      <trkpt lat="43.95096" lon="2.37645">
        <ele>143.4</ele>
        <time>2015-04-05T10:39:27Z</time>
      </trkpt>
      <trkpt lat="43.95108" lon="2.37647">
        <ele>143.1</ele>
        <time>2015-04-05T10:39:30Z</time>
      </trkpt>
      <trkpt lat="43.95118" lon="2.37644">
        <ele>145.3</ele>
        <time>2015-04-05T10:39:33Z</time>
      </trkpt>
      <trkpt lat="43.9513" lon="2.37641">
        <ele>146.1</ele>
        <time>2015-04-05T10:39:36Z</time>
      </trkpt>
      <trkpt lat="43.95143" lon="2.37638">
        <ele>147</ele>
        <time>2015-04-05T10:39:39Z</time>
      </trkpt>
      <trkpt lat="43.95152" lon="2.37635">
        <ele>147.5</ele>
        <time>2015-04-05T10:39:41Z</time>
      </trkpt>
      <trkpt lat="43.95161" lon="2.37632">
        <ele>148.4</ele>
        <time>2015-04-05T10:39:43Z</time>
      </trkpt>
      <trkpt lat="43.9517" lon="2.3763">
        <ele>147</ele>
        <time>2015-04-05T10:39:45Z</time>
      </trkpt>
      <trkpt lat="43.95179" lon="2.37627">
        <ele>146.8</ele>
        <time>2015-04-05T10:39:47Z</time>
      </trkpt>
      <trkpt lat="43.95192" lon="2.37625">
        <ele>146.9</ele>
        <time>2015-04-05T10:39:50Z</time>
      </trkpt>
      <trkpt lat="43.95204" lon="2.37622">
        <ele>148.5</ele>
        <time>2015-04-05T10:39:53Z</time>
      </trkpt>
      <trkpt lat="43.95215" lon="2.37619">
        <ele>147.5</ele>
        <time>2015-04-05T10:39:56Z</time>
      </trkpt>
      <trkpt lat="43.95226" lon="2.37617">
        <ele>148.4</ele>
        <time>2015-04-05T10:39:59Z</time>
      </trkpt>
      <trkpt lat="43.95237" lon="2.37614">
        <ele>149.1</ele>
        <time>2015-04-05T10:40:02Z</time>
      </trkpt>
      <trkpt lat="43.9525" lon="2.37612">
        <ele>150.6</ele>
        <time>2015-04-05T10:40:05Z</time>
      </trkpt>
      <trkpt lat="43.95262" lon="2.37607">
        <ele>150.3</ele>
        <time>2015-04-05T10:40:08Z</time>
      </trkpt>
      <trkpt lat="43.95273" lon="2.37603">
        <ele>149.2</ele>
        <time>2015-04-05T10:40:11Z</time>
      </trkpt>
      <trkpt lat="43.95282" lon="2.37602">
        <ele>148</ele>
        <time>2015-04-05T10:40:15Z</time>
      </trkpt>
      <trkpt lat="43.95292" lon="2.37599">
        <ele>146.2</ele>
        <time>2015-04-05T10:40:20Z</time>
      </trkpt>
      <trkpt lat="43.95303" lon="2.37597">
        <ele>147</ele>
        <time>2015-04-05T10:40:25Z</time>
      </trkpt>
      <trkpt lat="43.95315" lon="2.37595">
        <ele>147.8</ele>
        <time>2015-04-05T10:40:29Z</time>
      </trkpt>
      <trkpt lat="43.95325" lon="2.37592">
        <ele>148.9</ele>
        <time>2015-04-05T10:40:32Z</time>
      </trkpt>
      <trkpt lat="43.95336" lon="2.37588">
        <ele>148.1</ele>
        <time>2015-04-05T10:40:35Z</time>
      </trkpt>
      <trkpt lat="43.95348" lon="2.37584">
        <ele>147.9</ele>
        <time>2015-04-05T10:40:38Z</time>
      </trkpt>
      <trkpt lat="43.95361" lon="2.3758">
        <ele>148.3</ele>
        <time>2015-04-05T10:40:41Z</time>
      </trkpt>
      <trkpt lat="43.9537" lon="2.37578">
        <ele>148.2</ele>
        <time>2015-04-05T10:40:43Z</time>
      </trkpt>
      <trkpt lat="43.95379" lon="2.37574">
        <ele>147.5</ele>
        <time>2015-04-05T10:40:45Z</time>
      </trkpt>
      <trkpt lat="43.95388" lon="2.3757">
        <ele>147</ele>
        <time>2015-04-05T10:40:47Z</time>
      </trkpt>
      <trkpt lat="43.95401" lon="2.37567">
        <ele>147.8</ele>
        <time>2015-04-05T10:40:50Z</time>
      </trkpt>
      <trkpt lat="43.95411" lon="2.37564">
        <ele>148.3</ele>
        <time>2015-04-05T10:40:52Z</time>
      </trkpt>
      <trkpt lat="43.9542" lon="2.37561">
        <ele>149.2</ele>
        <time>2015-04-05T10:40:54Z</time>
      </trkpt>
      <trkpt lat="43.95429" lon="2.37558">
        <ele>149.9</ele>
        <time>2015-04-05T10:40:56Z</time>
      </trkpt>
      <trkpt lat="43.95439" lon="2.37555">
        <ele>150.6</ele>
        <time>2015-04-05T10:40:58Z</time>
      </trkpt>
      <trkpt lat="43.95449" lon="2.37552">
        <ele>150.5</ele>
        <time>2015-04-05T10:41:00Z</time>
      </trkpt>
      <trkpt lat="43.95458" lon="2.37549">
        <ele>150.5</ele>
        <time>2015-04-05T10:41:02Z</time>
      </trkpt>
      <trkpt lat="43.95468" lon="2.37545">
        <ele>150.4</ele>
        <time>2015-04-05T10:41:04Z</time>
      </trkpt>
      <trkpt lat="43.95477" lon="2.37542">
        <ele>151</ele>
        <time>2015-04-05T10:41:06Z</time>
      </trkpt>
      <trkpt lat="43.95487" lon="2.37538">
        <ele>150.8</ele>
        <time>2015-04-05T10:41:08Z</time>
      </trkpt>
      <trkpt lat="43.95496" lon="2.37535">
        <ele>151.7</ele>
        <time>2015-04-05T10:41:10Z</time>
      </trkpt>
      <trkpt lat="43.95506" lon="2.37532">
        <ele>152.3</ele>
        <time>2015-04-05T10:41:12Z</time>
      </trkpt>
      <trkpt lat="43.95516" lon="2.37529">
        <ele>152.4</ele>
        <time>2015-04-05T10:41:14Z</time>
      </trkpt>
      <trkpt lat="43.95525" lon="2.37527">
        <ele>152</ele>
        <time>2015-04-05T10:41:16Z</time>
      </trkpt>
      <trkpt lat="43.95539" lon="2.37523">
        <ele>152.7</ele>
        <time>2015-04-05T10:41:19Z</time>
      </trkpt>
      <trkpt lat="43.95549" lon="2.37522">
        <ele>152.1</ele>
        <time>2015-04-05T10:41:21Z</time>
      </trkpt>
      <trkpt lat="43.95558" lon="2.37522">
        <ele>152.5</ele>
        <time>2015-04-05T10:41:23Z</time>
      </trkpt>
      <trkpt lat="43.95568" lon="2.37522">
        <ele>152.4</ele>
        <time>2015-04-05T10:41:25Z</time>
      </trkpt>
      <trkpt lat="43.95578" lon="2.37521">
        <ele>151.4</ele>
        <time>2015-04-05T10:41:27Z</time>
      </trkpt>
      <trkpt lat="43.95589" lon="2.37522">
        <ele>151.4</ele>
        <time>2015-04-05T10:41:29Z</time>
      </trkpt>
      <trkpt lat="43.95598" lon="2.37523">
        <ele>151.4</ele>
        <time>2015-04-05T10:41:31Z</time>
      </trkpt>
      <trkpt lat="43.95608" lon="2.37525">
        <ele>151.6</ele>
        <time>2015-04-05T10:41:33Z</time>
      </trkpt>
      <trkpt lat="43.95618" lon="2.37525">
        <ele>150.8</ele>
        <time>2015-04-05T10:41:35Z</time>
      </trkpt>
      <trkpt lat="43.95628" lon="2.37527">
        <ele>151.9</ele>
        <time>2015-04-05T10:41:37Z</time>
      </trkpt>
      <trkpt lat="43.95638" lon="2.37529">
        <ele>151.8</ele>
        <time>2015-04-05T10:41:39Z</time>
      </trkpt>
      <trkpt lat="43.95647" lon="2.3753">
        <ele>150.6</ele>
        <time>2015-04-05T10:41:41Z</time>
      </trkpt>
      <trkpt lat="43.95656" lon="2.37532">
        <ele>150.4</ele>
        <time>2015-04-05T10:41:43Z</time>
      </trkpt>
      <trkpt lat="43.95669" lon="2.37537">
        <ele>150.8</ele>
        <time>2015-04-05T10:41:46Z</time>
      </trkpt>
      <trkpt lat="43.9568" lon="2.37547">
        <ele>149.3</ele>
        <time>2015-04-05T10:41:49Z</time>
      </trkpt>
      <trkpt lat="43.95683" lon="2.37559">
        <ele>148.1</ele>
        <time>2015-04-05T10:41:53Z</time>
      </trkpt>
      <trkpt lat="43.9568" lon="2.37571">
        <ele>148.4</ele>
        <time>2015-04-05T10:41:57Z</time>
      </trkpt>
      <trkpt lat="43.95678" lon="2.37584">
        <ele>150.5</ele>
        <time>2015-04-05T10:42:03Z</time>
      </trkpt>
      <trkpt lat="43.95676" lon="2.37598">
        <ele>151.3</ele>
        <time>2015-04-05T10:42:10Z</time>
      </trkpt>
      <trkpt lat="43.95674" lon="2.37611">
        <ele>151.2</ele>
        <time>2015-04-05T10:42:16Z</time>
      </trkpt>
      <trkpt lat="43.95672" lon="2.37623">
        <ele>150.5</ele>
        <time>2015-04-05T10:42:22Z</time>
      </trkpt>
      <trkpt lat="43.95671" lon="2.37637">
        <ele>151.2</ele>
        <time>2015-04-05T10:42:29Z</time>
      </trkpt>
      <trkpt lat="43.95674" lon="2.37651">
        <ele>152.6</ele>
        <time>2015-04-05T10:42:36Z</time>
      </trkpt>
      <trkpt lat="43.95678" lon="2.37664">
        <ele>153.6</ele>
        <time>2015-04-05T10:42:44Z</time>
      </trkpt>
      <trkpt lat="43.95681" lon="2.37676">
        <ele>155</ele>
        <time>2015-04-05T10:42:50Z</time>
      </trkpt>
      <trkpt lat="43.95686" lon="2.37688">
        <ele>154.8</ele>
        <time>2015-04-05T10:42:57Z</time>
      </trkpt>
      <trkpt lat="43.95688" lon="2.37701">
        <ele>155.8</ele>
        <time>2015-04-05T10:43:05Z</time>
      </trkpt>
      <trkpt lat="43.9569" lon="2.37713">
        <ele>156.8</ele>
        <time>2015-04-05T10:43:12Z</time>
      </trkpt>
      <trkpt lat="43.95691" lon="2.37726">
        <ele>158.1</ele>
        <time>2015-04-05T10:43:20Z</time>
      </trkpt>
      <trkpt lat="43.95692" lon="2.3774">
        <ele>159</ele>
        <time>2015-04-05T10:43:26Z</time>
      </trkpt>
      <trkpt lat="43.95693" lon="2.37753">
        <ele>160.1</ele>
        <time>2015-04-05T10:43:34Z</time>
      </trkpt>
      <trkpt lat="43.95693" lon="2.37766">
        <ele>162.3</ele>
        <time>2015-04-05T10:43:41Z</time>
      </trkpt>
      <trkpt lat="43.95693" lon="2.37779">
        <ele>163.8</ele>
        <time>2015-04-05T10:43:48Z</time>
      </trkpt>
      <trkpt lat="43.95694" lon="2.37793">
        <ele>165.4</ele>
        <time>2015-04-05T10:43:55Z</time>
      </trkpt>
      <trkpt lat="43.95693" lon="2.37806">
        <ele>167.9</ele>
        <time>2015-04-05T10:44:03Z</time>
      </trkpt>
      <trkpt lat="43.95693" lon="2.3782">
        <ele>169.6</ele>
        <time>2015-04-05T10:44:10Z</time>
      </trkpt>
      <trkpt lat="43.95691" lon="2.37832">
        <ele>170.5</ele>
        <time>2015-04-05T10:44:17Z</time>
      </trkpt>
      <trkpt lat="43.95688" lon="2.37847">
        <ele>172.4</ele>
        <time>2015-04-05T10:44:25Z</time>
      </trkpt>
      <trkpt lat="43.95682" lon="2.37857">
        <ele>174.4</ele>
        <time>2015-04-05T10:44:33Z</time>
      </trkpt>
      <trkpt lat="43.95678" lon="2.3787">
        <ele>176.3</ele>
        <time>2015-04-05T10:44:41Z</time>
      </trkpt>
      <trkpt lat="43.95673" lon="2.3788">
        <ele>178</ele>
        <time>2015-04-05T10:44:49Z</time>
      </trkpt>
      <trkpt lat="43.9567" lon="2.37894">
        <ele>180.2</ele>
        <time>2015-04-05T10:44:57Z</time>
      </trkpt>
      <trkpt lat="43.95668" lon="2.37908">
        <ele>182.1</ele>
        <time>2015-04-05T10:45:05Z</time>
      </trkpt>
      <trkpt lat="43.95664" lon="2.3792">
        <ele>183.1</ele>
        <time>2015-04-05T10:45:12Z</time>
      </trkpt>
      <trkpt lat="43.9566" lon="2.37931">
        <ele>184.5</ele>
        <time>2015-04-05T10:45:19Z</time>
      </trkpt>
      <trkpt lat="43.95654" lon="2.37943">
        <ele>185.6</ele>
        <time>2015-04-05T10:45:27Z</time>
      </trkpt>
      <trkpt lat="43.95653" lon="2.37956">
        <ele>186.4</ele>
        <time>2015-04-05T10:45:33Z</time>
      </trkpt>
      <trkpt lat="43.95649" lon="2.37969">
        <ele>187.8</ele>
        <time>2015-04-05T10:45:40Z</time>
      </trkpt>
      <trkpt lat="43.95642" lon="2.37979">
        <ele>188.7</ele>
        <time>2015-04-05T10:45:48Z</time>
      </trkpt>
      <trkpt lat="43.95635" lon="2.37988">
        <ele>189.1</ele>
        <time>2015-04-05T10:45:55Z</time>
      </trkpt>
      <trkpt lat="43.95626" lon="2.37996">
        <ele>189.8</ele>
        <time>2015-04-05T10:46:03Z</time>
      </trkpt>
      <trkpt lat="43.95616" lon="2.37999">
        <ele>190.9</ele>
        <time>2015-04-05T10:46:10Z</time>
      </trkpt>
      <trkpt lat="43.95607" lon="2.38002">
        <ele>191.6</ele>
        <time>2015-04-05T10:46:19Z</time>
      </trkpt>
      <trkpt lat="43.95598" lon="2.38006">
        <ele>192.4</ele>
        <time>2015-04-05T10:46:27Z</time>
      </trkpt>
      <trkpt lat="43.95588" lon="2.38007">
        <ele>193.7</ele>
        <time>2015-04-05T10:46:35Z</time>
      </trkpt>
      <trkpt lat="43.95579" lon="2.38011">
        <ele>194.5</ele>
        <time>2015-04-05T10:46:42Z</time>
      </trkpt>
      <trkpt lat="43.95569" lon="2.3801">
        <ele>195.5</ele>
        <time>2015-04-05T10:46:49Z</time>
      </trkpt>
      <trkpt lat="43.9556" lon="2.3801">
        <ele>196.5</ele>
        <time>2015-04-05T10:46:55Z</time>
      </trkpt>
      <trkpt lat="43.9555" lon="2.38008">
        <ele>197.1</ele>
        <time>2015-04-05T10:47:01Z</time>
      </trkpt>
      <trkpt lat="43.9554" lon="2.38006">
        <ele>197.9</ele>
        <time>2015-04-05T10:47:08Z</time>
      </trkpt>
      <trkpt lat="43.9553" lon="2.38007">
        <ele>197.9</ele>
        <time>2015-04-05T10:47:15Z</time>
      </trkpt>
      <trkpt lat="43.95521" lon="2.38012">
        <ele>198.3</ele>
        <time>2015-04-05T10:47:22Z</time>
      </trkpt>
      <trkpt lat="43.95512" lon="2.38016">
        <ele>198.5</ele>
        <time>2015-04-05T10:47:30Z</time>
      </trkpt>
      <trkpt lat="43.95502" lon="2.38016">
        <ele>198.7</ele>
        <time>2015-04-05T10:47:35Z</time>
      </trkpt>
      <trkpt lat="43.95492" lon="2.38018">
        <ele>199.2</ele>
        <time>2015-04-05T10:47:41Z</time>
      </trkpt>
      <trkpt lat="43.95482" lon="2.38019">
        <ele>200</ele>
        <time>2015-04-05T10:47:48Z</time>
      </trkpt>
      <trkpt lat="43.95473" lon="2.38022">
        <ele>200.3</ele>
        <time>2015-04-05T10:47:55Z</time>
      </trkpt>
      <trkpt lat="43.95463" lon="2.38024">
        <ele>200.7</ele>
        <time>2015-04-05T10:48:02Z</time>
      </trkpt>
      <trkpt lat="43.95454" lon="2.3802">
        <ele>201.4</ele>
        <time>2015-04-05T10:48:09Z</time>
      </trkpt>
      <trkpt lat="43.95445" lon="2.38025">
        <ele>201.6</ele>
        <time>2015-04-05T10:48:14Z</time>
      </trkpt>
      <trkpt lat="43.95436" lon="2.38029">
        <ele>202.5</ele>
        <time>2015-04-05T10:48:21Z</time>
      </trkpt>
      <trkpt lat="43.95426" lon="2.38029">
        <ele>203.3</ele>
        <time>2015-04-05T10:48:28Z</time>
      </trkpt>
      <trkpt lat="43.95415" lon="2.38027">
        <ele>203.6</ele>
        <time>2015-04-05T10:48:35Z</time>
      </trkpt>
      <trkpt lat="43.95406" lon="2.38024">
        <ele>204.4</ele>
        <time>2015-04-05T10:48:42Z</time>
      </trkpt>
      <trkpt lat="43.95398" lon="2.38027">
        <ele>205</ele>
        <time>2015-04-05T10:48:48Z</time>
      </trkpt>
      <trkpt lat="43.95389" lon="2.38027">
        <ele>205.3</ele>
        <time>2015-04-05T10:48:54Z</time>
      </trkpt>
      <trkpt lat="43.95379" lon="2.38027">
        <ele>205.7</ele>
        <time>2015-04-05T10:49:00Z</time>
      </trkpt>
      <trkpt lat="43.9537" lon="2.38029">
        <ele>206.4</ele>
        <time>2015-04-05T10:49:06Z</time>
      </trkpt>
      <trkpt lat="43.95362" lon="2.38036">
        <ele>207.6</ele>
        <time>2015-04-05T10:49:10Z</time>
      </trkpt>
      <trkpt lat="43.95352" lon="2.3804">
        <ele>209.2</ele>
        <time>2015-04-05T10:49:15Z</time>
      </trkpt>
      <trkpt lat="43.95342" lon="2.38044">
        <ele>210.7</ele>
        <time>2015-04-05T10:49:22Z</time>
      </trkpt>
      <trkpt lat="43.95334" lon="2.38048">
        <ele>211.8</ele>
        <time>2015-04-05T10:49:29Z</time>
      </trkpt>
      <trkpt lat="43.95324" lon="2.38051">
        <ele>212.7</ele>
        <time>2015-04-05T10:49:35Z</time>
      </trkpt>
      <trkpt lat="43.95314" lon="2.38053">
        <ele>213</ele>
        <time>2015-04-05T10:49:42Z</time>
      </trkpt>
      <trkpt lat="43.95305" lon="2.38055">
        <ele>212.9</ele>
        <time>2015-04-05T10:49:49Z</time>
      </trkpt>
      <trkpt lat="43.95295" lon="2.38058">
        <ele>212.5</ele>
        <time>2015-04-05T10:49:56Z</time>
      </trkpt>
      <trkpt lat="43.95285" lon="2.38062">
        <ele>212.4</ele>
        <time>2015-04-05T10:50:03Z</time>
      </trkpt>
      <trkpt lat="43.95275" lon="2.38066">
        <ele>212.2</ele>
        <time>2015-04-05T10:50:09Z</time>
      </trkpt>
      <trkpt lat="43.95265" lon="2.38068">
        <ele>212.5</ele>
        <time>2015-04-05T10:50:16Z</time>
      </trkpt>
      <trkpt lat="43.95256" lon="2.3807">
        <ele>212.9</ele>
        <time>2015-04-05T10:50:22Z</time>
      </trkpt>
      <trkpt lat="43.95247" lon="2.38074">
        <ele>213</ele>
        <time>2015-04-05T10:50:29Z</time>
      </trkpt>
      <trkpt lat="43.95238" lon="2.38079">
        <ele>213.7</ele>
        <time>2015-04-05T10:50:35Z</time>
      </trkpt>
      <trkpt lat="43.95229" lon="2.38081">
        <ele>214.3</ele>
        <time>2015-04-05T10:50:40Z</time>
      </trkpt>
      <trkpt lat="43.95219" lon="2.38083">
        <ele>215</ele>
        <time>2015-04-05T10:50:47Z</time>
      </trkpt>
      <trkpt lat="43.95209" lon="2.38085">
        <ele>216.5</ele>
        <time>2015-04-05T10:50:54Z</time>
      </trkpt>
      <trkpt lat="43.95199" lon="2.38087">
        <ele>217.8</ele>
        <time>2015-04-05T10:51:01Z</time>
      </trkpt>
      <trkpt lat="43.9519" lon="2.3809">
        <ele>218.3</ele>
        <time>2015-04-05T10:51:07Z</time>
      </trkpt>
      <trkpt lat="43.95181" lon="2.3809">
        <ele>219.2</ele>
        <time>2015-04-05T10:51:12Z</time>
      </trkpt>
      <trkpt lat="43.95171" lon="2.38091">
        <ele>219.8</ele>
        <time>2015-04-05T10:51:18Z</time>
      </trkpt>
      <trkpt lat="43.95161" lon="2.38091">
        <ele>220.7</ele>
        <time>2015-04-05T10:51:24Z</time>
      </trkpt>
      <trkpt lat="43.95151" lon="2.38092">
        <ele>221.4</ele>
        <time>2015-04-05T10:51:30Z</time>
      </trkpt>
      <trkpt lat="43.95141" lon="2.38093">
        <ele>222.3</ele>
        <time>2015-04-05T10:51:36Z</time>
      </trkpt>
      <trkpt lat="43.9513" lon="2.38092">
        <ele>223.5</ele>
        <time>2015-04-05T10:51:43Z</time>
      </trkpt>
      <trkpt lat="43.9512" lon="2.38092">
        <ele>224.7</ele>
        <time>2015-04-05T10:51:49Z</time>
      </trkpt>
      <trkpt lat="43.95111" lon="2.38091">
        <ele>226.4</ele>
        <time>2015-04-05T10:51:55Z</time>
      </trkpt>
      <trkpt lat="43.951" lon="2.3809">
        <ele>229.8</ele>
        <time>2015-04-05T10:52:02Z</time>
      </trkpt>
      <trkpt lat="43.95091" lon="2.38086">
        <ele>232.1</ele>
        <time>2015-04-05T10:52:08Z</time>
      </trkpt>
      <trkpt lat="43.95081" lon="2.38086">
        <ele>233.9</ele>
        <time>2015-04-05T10:52:14Z</time>
      </trkpt>
      <trkpt lat="43.95072" lon="2.38083">
        <ele>234.6</ele>
        <time>2015-04-05T10:52:20Z</time>
      </trkpt>
      <trkpt lat="43.95063" lon="2.38084">
        <ele>235.5</ele>
        <time>2015-04-05T10:52:27Z</time>
      </trkpt>
      <trkpt lat="43.95054" lon="2.38085">
        <ele>236.5</ele>
        <time>2015-04-05T10:52:34Z</time>
      </trkpt>
      <trkpt lat="43.95045" lon="2.38091">
        <ele>238.1</ele>
        <time>2015-04-05T10:52:42Z</time>
      </trkpt>
      <trkpt lat="43.95034" lon="2.38091">
        <ele>238.9</ele>
        <time>2015-04-05T10:53:05Z</time>
      </trkpt>
      <trkpt lat="43.95051" lon="2.3809">
        <ele>238</ele>
        <time>2015-04-05T10:55:29Z</time>
      </trkpt>
      <trkpt lat="43.95033" lon="2.38093">
        <ele>237.1</ele>
        <time>2015-04-05T10:58:32Z</time>
      </trkpt>
      <trkpt lat="43.95038" lon="2.38083">
        <ele>234.8</ele>
        <time>2015-04-05T10:59:30Z</time>
      </trkpt>
      <trkpt lat="43.95033" lon="2.38072">
        <ele>234.7</ele>
        <time>2015-04-05T10:59:35Z</time>
      </trkpt>
      <trkpt lat="43.95023" lon="2.38068">
        <ele>234.9</ele>
        <time>2015-04-05T10:59:40Z</time>
      </trkpt>
      <trkpt lat="43.95013" lon="2.38065">
        <ele>234.7</ele>
        <time>2015-04-05T10:59:45Z</time>
      </trkpt>
      <trkpt lat="43.95004" lon="2.38062">
        <ele>235</ele>
        <time>2015-04-05T10:59:50Z</time>
      </trkpt>
      <trkpt lat="43.94995" lon="2.38057">
        <ele>235.8</ele>
        <time>2015-04-05T10:59:55Z</time>
      </trkpt>
      <trkpt lat="43.94985" lon="2.38054">
        <ele>236.5</ele>
        <time>2015-04-05T10:59:59Z</time>
      </trkpt>
      <trkpt lat="43.94975" lon="2.38054">
        <ele>236.6</ele>
        <time>2015-04-05T11:00:03Z</time>
      </trkpt>
      <trkpt lat="43.94967" lon="2.3805">
        <ele>236.4</ele>
        <time>2015-04-05T11:00:07Z</time>
      </trkpt>
      <trkpt lat="43.94958" lon="2.38042">
        <ele>236.9</ele>
        <time>2015-04-05T11:00:11Z</time>
      </trkpt>
      <trkpt lat="43.94951" lon="2.38049">
        <ele>229.3</ele>
        <time>2015-04-05T11:07:32Z</time>
      </trkpt>
      <trkpt lat="43.94961" lon="2.38052">
        <ele>231.1</ele>
        <time>2015-04-05T11:07:53Z</time>
      </trkpt>
      <trkpt lat="43.94971" lon="2.38052">
        <ele>232.1</ele>
        <time>2015-04-05T11:08:00Z</time>
      </trkpt>
      <trkpt lat="43.9498" lon="2.38056">
        <ele>233.8</ele>
        <time>2015-04-05T11:08:07Z</time>
      </trkpt>
      <trkpt lat="43.9499" lon="2.38057">
        <ele>235.1</ele>
        <time>2015-04-05T11:08:14Z</time>
      </trkpt>
      <trkpt lat="43.95" lon="2.3806">
        <ele>237.6</ele>
        <time>2015-04-05T11:08:22Z</time>
      </trkpt>
      <trkpt lat="43.95009" lon="2.38062">
        <ele>240.1</ele>
        <time>2015-04-05T11:08:30Z</time>
      </trkpt>
      <trkpt lat="43.95019" lon="2.38064">
        <ele>241.6</ele>
        <time>2015-04-05T11:08:38Z</time>
      </trkpt>
      <trkpt lat="43.95029" lon="2.38071">
        <ele>239</ele>
        <time>2015-04-05T11:08:43Z</time>
      </trkpt>
      <trkpt lat="43.95038" lon="2.38079">
        <ele>237.6</ele>
        <time>2015-04-05T11:08:48Z</time>
      </trkpt>
      <trkpt lat="43.9505" lon="2.38082">
        <ele>238.6</ele>
        <time>2015-04-05T11:08:52Z</time>
      </trkpt>
      <trkpt lat="43.9506" lon="2.38083">
        <ele>238.3</ele>
        <time>2015-04-05T11:08:54Z</time>
      </trkpt>
      <trkpt lat="43.9507" lon="2.38084">
        <ele>238.2</ele>
        <time>2015-04-05T11:08:56Z</time>
      </trkpt>
      <trkpt lat="43.95081" lon="2.38086">
        <ele>237.8</ele>
        <time>2015-04-05T11:08:59Z</time>
      </trkpt>
      <trkpt lat="43.95091" lon="2.38088">
        <ele>237.8</ele>
        <time>2015-04-05T11:09:04Z</time>
      </trkpt>
      <trkpt lat="43.95099" lon="2.38093">
        <ele>237.8</ele>
        <time>2015-04-05T11:09:09Z</time>
      </trkpt>
      <trkpt lat="43.95108" lon="2.38098">
        <ele>235.7</ele>
        <time>2015-04-05T11:11:00Z</time>
      </trkpt>
      <trkpt lat="43.95117" lon="2.38099">
        <ele>235.4</ele>
        <time>2015-04-05T11:11:04Z</time>
      </trkpt>
      <trkpt lat="43.95131" lon="2.381">
        <ele>234.5</ele>
        <time>2015-04-05T11:11:07Z</time>
      </trkpt>
      <trkpt lat="43.95143" lon="2.38099">
        <ele>233.3</ele>
        <time>2015-04-05T11:11:09Z</time>
      </trkpt>
      <trkpt lat="43.95158" lon="2.38098">
        <ele>231.9</ele>
        <time>2015-04-05T11:11:11Z</time>
      </trkpt>
      <trkpt lat="43.95175" lon="2.38096">
        <ele>230.1</ele>
        <time>2015-04-05T11:11:13Z</time>
      </trkpt>
      <trkpt lat="43.95184" lon="2.38095">
        <ele>229.7</ele>
        <time>2015-04-05T11:11:14Z</time>
      </trkpt>
      <trkpt lat="43.95194" lon="2.38094">
        <ele>229.3</ele>
        <time>2015-04-05T11:11:15Z</time>
      </trkpt>
      <trkpt lat="43.95203" lon="2.38093">
        <ele>228.4</ele>
        <time>2015-04-05T11:11:16Z</time>
      </trkpt>
      <trkpt lat="43.95214" lon="2.38092">
        <ele>227.5</ele>
        <time>2015-04-05T11:11:17Z</time>
      </trkpt>
      <trkpt lat="43.95224" lon="2.3809">
        <ele>226.5</ele>
        <time>2015-04-05T11:11:18Z</time>
      </trkpt>
      <trkpt lat="43.95235" lon="2.38087">
        <ele>226.1</ele>
        <time>2015-04-05T11:11:19Z</time>
      </trkpt>
      <trkpt lat="43.95246" lon="2.38085">
        <ele>225.3</ele>
        <time>2015-04-05T11:11:20Z</time>
      </trkpt>
      <trkpt lat="43.95257" lon="2.38082">
        <ele>225.6</ele>
        <time>2015-04-05T11:11:21Z</time>
      </trkpt>
      <trkpt lat="43.95268" lon="2.38078">
        <ele>224.4</ele>
        <time>2015-04-05T11:11:22Z</time>
      </trkpt>
      <trkpt lat="43.95279" lon="2.38075">
        <ele>223.5</ele>
        <time>2015-04-05T11:11:23Z</time>
      </trkpt>
      <trkpt lat="43.95291" lon="2.38071">
        <ele>222.6</ele>
        <time>2015-04-05T11:11:24Z</time>
      </trkpt>
      <trkpt lat="43.95303" lon="2.38067">
        <ele>221.6</ele>
        <time>2015-04-05T11:11:25Z</time>
      </trkpt>
      <trkpt lat="43.95315" lon="2.38063">
        <ele>220.8</ele>
        <time>2015-04-05T11:11:26Z</time>
      </trkpt>
      <trkpt lat="43.95327" lon="2.38059">
        <ele>220.1</ele>
        <time>2015-04-05T11:11:27Z</time>
      </trkpt>
      <trkpt lat="43.9534" lon="2.38055">
        <ele>219.2</ele>
        <time>2015-04-05T11:11:28Z</time>
      </trkpt>
      <trkpt lat="43.95353" lon="2.38051">
        <ele>218.1</ele>
        <time>2015-04-05T11:11:29Z</time>
      </trkpt>
      <trkpt lat="43.95366" lon="2.38048">
        <ele>217</ele>
        <time>2015-04-05T11:11:30Z</time>
      </trkpt>
      <trkpt lat="43.95379" lon="2.38046">
        <ele>216.1</ele>
        <time>2015-04-05T11:11:31Z</time>
      </trkpt>
      <trkpt lat="43.95393" lon="2.38045">
        <ele>215.2</ele>
        <time>2015-04-05T11:11:32Z</time>
      </trkpt>
      <trkpt lat="43.95406" lon="2.38044">
        <ele>214.2</ele>
        <time>2015-04-05T11:11:33Z</time>
      </trkpt>
      <trkpt lat="43.9542" lon="2.38042">
        <ele>213.3</ele>
        <time>2015-04-05T11:11:34Z</time>
      </trkpt>
      <trkpt lat="43.95434" lon="2.38039">
        <ele>212</ele>
        <time>2015-04-05T11:11:35Z</time>
      </trkpt>
      <trkpt lat="43.95448" lon="2.38038">
        <ele>211.1</ele>
        <time>2015-04-05T11:11:36Z</time>
      </trkpt>
      <trkpt lat="43.95462" lon="2.38037">
        <ele>210.2</ele>
        <time>2015-04-05T11:11:37Z</time>
      </trkpt>
      <trkpt lat="43.95476" lon="2.38035">
        <ele>209.1</ele>
        <time>2015-04-05T11:11:38Z</time>
      </trkpt>
      <trkpt lat="43.9549" lon="2.38032">
        <ele>207.5</ele>
        <time>2015-04-05T11:11:39Z</time>
      </trkpt>
      <trkpt lat="43.95504" lon="2.3803">
        <ele>206.5</ele>
        <time>2015-04-05T11:11:40Z</time>
      </trkpt>
      <trkpt lat="43.95517" lon="2.38028">
        <ele>205.3</ele>
        <time>2015-04-05T11:11:41Z</time>
      </trkpt>
      <trkpt lat="43.9553" lon="2.38027">
        <ele>204.1</ele>
        <time>2015-04-05T11:11:42Z</time>
      </trkpt>
      <trkpt lat="43.95542" lon="2.38026">
        <ele>202.8</ele>
        <time>2015-04-05T11:11:43Z</time>
      </trkpt>
      <trkpt lat="43.95555" lon="2.38025">
        <ele>201.6</ele>
        <time>2015-04-05T11:11:44Z</time>
      </trkpt>
      <trkpt lat="43.95568" lon="2.38023">
        <ele>200.3</ele>
        <time>2015-04-05T11:11:45Z</time>
      </trkpt>
      <trkpt lat="43.9558" lon="2.38021">
        <ele>199.2</ele>
        <time>2015-04-05T11:11:46Z</time>
      </trkpt>
      <trkpt lat="43.95591" lon="2.3802">
        <ele>198</ele>
        <time>2015-04-05T11:11:47Z</time>
      </trkpt>
      <trkpt lat="43.95602" lon="2.38018">
        <ele>196.7</ele>
        <time>2015-04-05T11:11:48Z</time>
      </trkpt>
      <trkpt lat="43.95612" lon="2.38016">
        <ele>195.4</ele>
        <time>2015-04-05T11:11:49Z</time>
      </trkpt>
      <trkpt lat="43.95621" lon="2.38014">
        <ele>193.9</ele>
        <time>2015-04-05T11:11:50Z</time>
      </trkpt>
      <trkpt lat="43.9563" lon="2.3801">
        <ele>192.3</ele>
        <time>2015-04-05T11:11:51Z</time>
      </trkpt>
      <trkpt lat="43.95639" lon="2.38004">
        <ele>190.6</ele>
        <time>2015-04-05T11:11:52Z</time>
      </trkpt>
      <trkpt lat="43.95648" lon="2.37996">
        <ele>188.8</ele>
        <time>2015-04-05T11:11:53Z</time>
      </trkpt>
      <trkpt lat="43.95655" lon="2.37984">
        <ele>187.1</ele>
        <time>2015-04-05T11:11:54Z</time>
      </trkpt>
      <trkpt lat="43.95661" lon="2.3797">
        <ele>185.7</ele>
        <time>2015-04-05T11:11:55Z</time>
      </trkpt>
      <trkpt lat="43.95667" lon="2.37955">
        <ele>184.1</ele>
        <time>2015-04-05T11:11:56Z</time>
      </trkpt>
      <trkpt lat="43.95672" lon="2.37938">
        <ele>182.5</ele>
        <time>2015-04-05T11:11:57Z</time>
      </trkpt>
      <trkpt lat="43.95676" lon="2.37921">
        <ele>180.9</ele>
        <time>2015-04-05T11:11:58Z</time>
      </trkpt>
      <trkpt lat="43.9568" lon="2.37905">
        <ele>179.5</ele>
        <time>2015-04-05T11:11:59Z</time>
      </trkpt>
      <trkpt lat="43.95685" lon="2.3789">
        <ele>178.2</ele>
        <time>2015-04-05T11:12:00Z</time>
      </trkpt>
      <trkpt lat="43.95688" lon="2.37875">
        <ele>176.8</ele>
        <time>2015-04-05T11:12:01Z</time>
      </trkpt>
      <trkpt lat="43.95692" lon="2.37862">
        <ele>175.5</ele>
        <time>2015-04-05T11:12:02Z</time>
      </trkpt>
      <trkpt lat="43.95696" lon="2.37847">
        <ele>174.1</ele>
        <time>2015-04-05T11:12:03Z</time>
      </trkpt>
      <trkpt lat="43.95698" lon="2.37831">
        <ele>172.4</ele>
        <time>2015-04-05T11:12:04Z</time>
      </trkpt>
      <trkpt lat="43.957" lon="2.37815">
        <ele>171</ele>
        <time>2015-04-05T11:12:05Z</time>
      </trkpt>
      <trkpt lat="43.95701" lon="2.37797">
        <ele>169.6</ele>
        <time>2015-04-05T11:12:06Z</time>
      </trkpt>
      <trkpt lat="43.957" lon="2.37779">
        <ele>167.8</ele>
        <time>2015-04-05T11:12:07Z</time>
      </trkpt>
      <trkpt lat="43.95699" lon="2.37761">
        <ele>166.3</ele>
        <time>2015-04-05T11:12:08Z</time>
      </trkpt>
      <trkpt lat="43.95697" lon="2.37745">
        <ele>164.8</ele>
        <time>2015-04-05T11:12:09Z</time>
      </trkpt>
      <trkpt lat="43.95695" lon="2.37729">
        <ele>163.4</ele>
        <time>2015-04-05T11:12:10Z</time>
      </trkpt>
      <trkpt lat="43.95693" lon="2.37715">
        <ele>161.6</ele>
        <time>2015-04-05T11:12:11Z</time>
      </trkpt>
      <trkpt lat="43.9569" lon="2.37702">
        <ele>160</ele>
        <time>2015-04-05T11:12:12Z</time>
      </trkpt>
      <trkpt lat="43.95687" lon="2.3769">
        <ele>158.3</ele>
        <time>2015-04-05T11:12:13Z</time>
      </trkpt>
      <trkpt lat="43.95684" lon="2.37678">
        <ele>156.6</ele>
        <time>2015-04-05T11:12:14Z</time>
      </trkpt>
      <trkpt lat="43.9568" lon="2.37666">
        <ele>154.8</ele>
        <time>2015-04-05T11:12:15Z</time>
      </trkpt>
      <trkpt lat="43.95678" lon="2.37653">
        <ele>153.2</ele>
        <time>2015-04-05T11:12:16Z</time>
      </trkpt>
      <trkpt lat="43.95677" lon="2.37639">
        <ele>153.1</ele>
        <time>2015-04-05T11:12:17Z</time>
      </trkpt>
      <trkpt lat="43.95678" lon="2.37624">
        <ele>152</ele>
        <time>2015-04-05T11:12:18Z</time>
      </trkpt>
      <trkpt lat="43.9568" lon="2.37609">
        <ele>150.9</ele>
        <time>2015-04-05T11:12:19Z</time>
      </trkpt>
      <trkpt lat="43.95683" lon="2.37595">
        <ele>150</ele>
        <time>2015-04-05T11:12:20Z</time>
      </trkpt>
      <trkpt lat="43.95684" lon="2.37581">
        <ele>148.9</ele>
        <time>2015-04-05T11:12:21Z</time>
      </trkpt>
      <trkpt lat="43.95684" lon="2.37567">
        <ele>148.2</ele>
        <time>2015-04-05T11:12:22Z</time>
      </trkpt>
      <trkpt lat="43.95683" lon="2.37554">
        <ele>147.8</ele>
        <time>2015-04-05T11:12:23Z</time>
      </trkpt>
      <trkpt lat="43.95673" lon="2.37535">
        <ele>146.4</ele>
        <time>2015-04-05T11:12:25Z</time>
      </trkpt>
      <trkpt lat="43.95656" lon="2.37525">
        <ele>145.1</ele>
        <time>2015-04-05T11:12:27Z</time>
      </trkpt>
      <trkpt lat="43.95646" lon="2.37523">
        <ele>144.3</ele>
        <time>2015-04-05T11:12:28Z</time>
      </trkpt>
      <trkpt lat="43.95637" lon="2.37521">
        <ele>143.5</ele>
        <time>2015-04-05T11:12:29Z</time>
      </trkpt>
      <trkpt lat="43.95627" lon="2.3752">
        <ele>142.7</ele>
        <time>2015-04-05T11:12:30Z</time>
      </trkpt>
      <trkpt lat="43.95617" lon="2.3752">
        <ele>141.8</ele>
        <time>2015-04-05T11:12:31Z</time>
      </trkpt>
      <trkpt lat="43.95608" lon="2.37519">
        <ele>141.2</ele>
        <time>2015-04-05T11:12:32Z</time>
      </trkpt>
      <trkpt lat="43.95598" lon="2.37518">
        <ele>140.4</ele>
        <time>2015-04-05T11:12:33Z</time>
      </trkpt>
      <trkpt lat="43.95587" lon="2.37517">
        <ele>139.6</ele>
        <time>2015-04-05T11:12:34Z</time>
      </trkpt>
      <trkpt lat="43.95577" lon="2.37518">
        <ele>138.9</ele>
        <time>2015-04-05T11:12:35Z</time>
      </trkpt>
      <trkpt lat="43.95567" lon="2.37519">
        <ele>138.3</ele>
        <time>2015-04-05T11:12:36Z</time>
      </trkpt>
      <trkpt lat="43.95557" lon="2.3752">
        <ele>137.7</ele>
        <time>2015-04-05T11:12:37Z</time>
      </trkpt>
      <trkpt lat="43.95547" lon="2.37521">
        <ele>137.1</ele>
        <time>2015-04-05T11:12:38Z</time>
      </trkpt>
      <trkpt lat="43.95537" lon="2.37523">
        <ele>136.5</ele>
        <time>2015-04-05T11:12:39Z</time>
      </trkpt>
      <trkpt lat="43.95527" lon="2.37525">
        <ele>136.4</ele>
        <time>2015-04-05T11:12:40Z</time>
      </trkpt>
      <trkpt lat="43.95517" lon="2.37528">
        <ele>136.1</ele>
        <time>2015-04-05T11:12:41Z</time>
      </trkpt>
      <trkpt lat="43.95507" lon="2.37531">
        <ele>135.7</ele>
        <time>2015-04-05T11:12:42Z</time>
      </trkpt>
      <trkpt lat="43.95498" lon="2.37534">
        <ele>135.6</ele>
        <time>2015-04-05T11:12:43Z</time>
      </trkpt>
      <trkpt lat="43.95488" lon="2.37537">
        <ele>135.6</ele>
        <time>2015-04-05T11:12:44Z</time>
      </trkpt>
      <trkpt lat="43.95479" lon="2.37539">
        <ele>135.5</ele>
        <time>2015-04-05T11:12:45Z</time>
      </trkpt>
      <trkpt lat="43.95469" lon="2.37542">
        <ele>135.3</ele>
        <time>2015-04-05T11:12:46Z</time>
      </trkpt>
      <trkpt lat="43.9546" lon="2.37545">
        <ele>135.3</ele>
        <time>2015-04-05T11:12:47Z</time>
      </trkpt>
      <trkpt lat="43.95451" lon="2.37548">
        <ele>135.5</ele>
        <time>2015-04-05T11:12:48Z</time>
      </trkpt>
      <trkpt lat="43.95441" lon="2.37551">
        <ele>135.9</ele>
        <time>2015-04-05T11:12:49Z</time>
      </trkpt>
      <trkpt lat="43.95432" lon="2.37554">
        <ele>135.8</ele>
        <time>2015-04-05T11:12:50Z</time>
      </trkpt>
      <trkpt lat="43.95423" lon="2.37557">
        <ele>136</ele>
        <time>2015-04-05T11:12:51Z</time>
      </trkpt>
      <trkpt lat="43.95414" lon="2.3756">
        <ele>136</ele>
        <time>2015-04-05T11:12:52Z</time>
      </trkpt>
      <trkpt lat="43.95405" lon="2.37563">
        <ele>135.9</ele>
        <time>2015-04-05T11:12:53Z</time>
      </trkpt>
      <trkpt lat="43.95396" lon="2.37566">
        <ele>135.8</ele>
        <time>2015-04-05T11:12:54Z</time>
      </trkpt>
      <trkpt lat="43.95387" lon="2.37569">
        <ele>135.7</ele>
        <time>2015-04-05T11:12:55Z</time>
      </trkpt>
      <trkpt lat="43.95379" lon="2.37572">
        <ele>135.9</ele>
        <time>2015-04-05T11:12:56Z</time>
      </trkpt>
      <trkpt lat="43.9537" lon="2.37575">
        <ele>136.1</ele>
        <time>2015-04-05T11:12:57Z</time>
      </trkpt>
      <trkpt lat="43.95361" lon="2.37577">
        <ele>135.9</ele>
        <time>2015-04-05T11:12:58Z</time>
      </trkpt>
      <trkpt lat="43.95344" lon="2.37583">
        <ele>135.9</ele>
        <time>2015-04-05T11:13:00Z</time>
      </trkpt>
      <trkpt lat="43.95327" lon="2.37588">
        <ele>135.9</ele>
        <time>2015-04-05T11:13:02Z</time>
      </trkpt>
      <trkpt lat="43.95309" lon="2.37592">
        <ele>136.4</ele>
        <time>2015-04-05T11:13:04Z</time>
      </trkpt>
      <trkpt lat="43.95293" lon="2.37597">
        <ele>137.1</ele>
        <time>2015-04-05T11:13:06Z</time>
      </trkpt>
      <trkpt lat="43.95276" lon="2.37602">
        <ele>137.8</ele>
        <time>2015-04-05T11:13:08Z</time>
      </trkpt>
      <trkpt lat="43.95259" lon="2.37606">
        <ele>138.5</ele>
        <time>2015-04-05T11:13:10Z</time>
      </trkpt>
      <trkpt lat="43.95242" lon="2.37611">
        <ele>138.9</ele>
        <time>2015-04-05T11:13:12Z</time>
      </trkpt>
      <trkpt lat="43.95226" lon="2.37615">
        <ele>139.4</ele>
        <time>2015-04-05T11:13:14Z</time>
      </trkpt>
      <trkpt lat="43.9521" lon="2.37619">
        <ele>140</ele>
        <time>2015-04-05T11:13:16Z</time>
      </trkpt>
      <trkpt lat="43.95193" lon="2.37623">
        <ele>140.2</ele>
        <time>2015-04-05T11:13:18Z</time>
      </trkpt>
      <trkpt lat="43.95177" lon="2.37629">
        <ele>140.7</ele>
        <time>2015-04-05T11:13:20Z</time>
      </trkpt>
      <trkpt lat="43.95161" lon="2.37633">
        <ele>140.9</ele>
        <time>2015-04-05T11:13:22Z</time>
      </trkpt>
      <trkpt lat="43.95144" lon="2.37636">
        <ele>141.2</ele>
        <time>2015-04-05T11:13:24Z</time>
      </trkpt>
      <trkpt lat="43.95127" lon="2.3764">
        <ele>141</ele>
        <time>2015-04-05T11:13:26Z</time>
      </trkpt>
      <trkpt lat="43.95111" lon="2.37643">
        <ele>141</ele>
        <time>2015-04-05T11:13:28Z</time>
      </trkpt>
      <trkpt lat="43.95094" lon="2.37645">
        <ele>141.2</ele>
        <time>2015-04-05T11:13:30Z</time>
      </trkpt>
      <trkpt lat="43.95077" lon="2.3765">
        <ele>141.2</ele>
        <time>2015-04-05T11:13:32Z</time>
      </trkpt>
      <trkpt lat="43.95059" lon="2.37655">
        <ele>140.8</ele>
        <time>2015-04-05T11:13:34Z</time>
      </trkpt>
      <trkpt lat="43.9505" lon="2.37659">
        <ele>140.6</ele>
        <time>2015-04-05T11:13:35Z</time>
      </trkpt>
      <trkpt lat="43.95042" lon="2.37662">
        <ele>140.6</ele>
        <time>2015-04-05T11:13:36Z</time>
      </trkpt>
      <trkpt lat="43.95024" lon="2.37669">
        <ele>140.3</ele>
        <time>2015-04-05T11:13:38Z</time>
      </trkpt>
      <trkpt lat="43.95016" lon="2.37672">
        <ele>140.1</ele>
        <time>2015-04-05T11:13:39Z</time>
      </trkpt>
      <trkpt lat="43.94999" lon="2.37679">
        <ele>140.8</ele>
        <time>2015-04-05T11:13:41Z</time>
      </trkpt>
      <trkpt lat="43.94982" lon="2.37687">
        <ele>140.4</ele>
        <time>2015-04-05T11:13:43Z</time>
      </trkpt>
      <trkpt lat="43.94966" lon="2.37694">
        <ele>140.5</ele>
        <time>2015-04-05T11:13:45Z</time>
      </trkpt>
      <trkpt lat="43.9495" lon="2.37703">
        <ele>140</ele>
        <time>2015-04-05T11:13:47Z</time>
      </trkpt>
      <trkpt lat="43.94935" lon="2.37713">
        <ele>139.4</ele>
        <time>2015-04-05T11:13:49Z</time>
      </trkpt>
      <trkpt lat="43.94919" lon="2.37722">
        <ele>139.2</ele>
        <time>2015-04-05T11:13:51Z</time>
      </trkpt>
      <trkpt lat="43.94903" lon="2.37732">
        <ele>138.9</ele>
        <time>2015-04-05T11:13:53Z</time>
      </trkpt>
      <trkpt lat="43.9489" lon="2.37743">
        <ele>139.4</ele>
        <time>2015-04-05T11:13:55Z</time>
      </trkpt>
      <trkpt lat="43.94876" lon="2.37753">
        <ele>140</ele>
        <time>2015-04-05T11:13:57Z</time>
      </trkpt>
      <trkpt lat="43.94862" lon="2.37762">
        <ele>140.9</ele>
        <time>2015-04-05T11:13:59Z</time>
      </trkpt>
      <trkpt lat="43.94849" lon="2.37773">
        <ele>142.3</ele>
        <time>2015-04-05T11:14:01Z</time>
      </trkpt>
      <trkpt lat="43.94837" lon="2.37783">
        <ele>143.2</ele>
        <time>2015-04-05T11:14:03Z</time>
      </trkpt>
      <trkpt lat="43.94826" lon="2.37794">
        <ele>143.6</ele>
        <time>2015-04-05T11:14:05Z</time>
      </trkpt>
      <trkpt lat="43.94816" lon="2.37805">
        <ele>143.6</ele>
        <time>2015-04-05T11:14:07Z</time>
      </trkpt>
      <trkpt lat="43.94806" lon="2.37816">
        <ele>143.4</ele>
        <time>2015-04-05T11:14:09Z</time>
      </trkpt>
      <trkpt lat="43.94796" lon="2.37825">
        <ele>143.7</ele>
        <time>2015-04-05T11:14:11Z</time>
      </trkpt>
      <trkpt lat="43.94785" lon="2.37832">
        <ele>144.1</ele>
        <time>2015-04-05T11:14:13Z</time>
      </trkpt>
      <trkpt lat="43.94775" lon="2.37839">
        <ele>144.8</ele>
        <time>2015-04-05T11:14:15Z</time>
      </trkpt>
      <trkpt lat="43.94763" lon="2.37843">
        <ele>145.2</ele>
        <time>2015-04-05T11:14:17Z</time>
      </trkpt>
      <trkpt lat="43.94751" lon="2.37846">
        <ele>145.1</ele>
        <time>2015-04-05T11:14:19Z</time>
      </trkpt>
      <trkpt lat="43.94739" lon="2.3785">
        <ele>144.3</ele>
        <time>2015-04-05T11:14:21Z</time>
      </trkpt>
      <trkpt lat="43.94727" lon="2.37853">
        <ele>144.1</ele>
        <time>2015-04-05T11:14:23Z</time>
      </trkpt>
      <trkpt lat="43.94716" lon="2.37857">
        <ele>143.2</ele>
        <time>2015-04-05T11:14:26Z</time>
      </trkpt>
      <trkpt lat="43.94707" lon="2.37866">
        <ele>141.7</ele>
        <time>2015-04-05T11:14:30Z</time>
      </trkpt>
      <trkpt lat="43.94696" lon="2.3787">
        <ele>142.5</ele>
        <time>2015-04-05T11:14:35Z</time>
      </trkpt>
      <trkpt lat="43.94687" lon="2.37871">
        <ele>143.9</ele>
        <time>2015-04-05T11:14:40Z</time>
      </trkpt>
      <trkpt lat="43.94678" lon="2.37869">
        <ele>144.5</ele>
        <time>2015-04-05T11:14:44Z</time>
      </trkpt>
      <trkpt lat="43.94667" lon="2.37864">
        <ele>144.9</ele>
        <time>2015-04-05T11:14:49Z</time>
      </trkpt>
      <trkpt lat="43.94658" lon="2.37857">
        <ele>145.1</ele>
        <time>2015-04-05T11:14:54Z</time>
      </trkpt>
      <trkpt lat="43.94651" lon="2.37849">
        <ele>145.7</ele>
        <time>2015-04-05T11:15:01Z</time>
      </trkpt>
      <trkpt lat="43.94641" lon="2.37842">
        <ele>145.8</ele>
        <time>2015-04-05T11:15:09Z</time>
      </trkpt>
      <trkpt lat="43.94626" lon="2.37835">
        <ele>154</ele>
        <time>2015-04-05T11:16:22Z</time>
      </trkpt>
      <trkpt lat="43.94621" lon="2.37818">
        <ele>153.7</ele>
        <time>2015-04-05T11:16:47Z</time>
      </trkpt>
      <trkpt lat="43.9462" lon="2.37831">
        <ele>153.4</ele>
        <time>2015-04-05T11:18:01Z</time>
      </trkpt>
      <trkpt lat="43.94629" lon="2.37839">
        <ele>153.1</ele>
        <time>2015-04-05T11:18:10Z</time>
      </trkpt>
      <trkpt lat="43.94637" lon="2.3785">
        <ele>152.8</ele>
        <time>2015-04-05T11:18:13Z</time>
      </trkpt>
      <trkpt lat="43.94647" lon="2.37857">
        <ele>152.7</ele>
        <time>2015-04-05T11:18:17Z</time>
      </trkpt>
      <trkpt lat="43.94655" lon="2.37863">
        <ele>152.3</ele>
        <time>2015-04-05T11:18:20Z</time>
      </trkpt>
      <trkpt lat="43.94664" lon="2.37868">
        <ele>152.6</ele>
        <time>2015-04-05T11:18:23Z</time>
      </trkpt>
      <trkpt lat="43.94673" lon="2.37874">
        <ele>152.8</ele>
        <time>2015-04-05T11:18:27Z</time>
      </trkpt>
      <trkpt lat="43.94679" lon="2.37887">
        <ele>152.5</ele>
        <time>2015-04-05T11:18:32Z</time>
      </trkpt>
      <trkpt lat="43.94682" lon="2.37899">
        <ele>152.4</ele>
        <time>2015-04-05T11:18:36Z</time>
      </trkpt>
      <trkpt lat="43.94674" lon="2.37913">
        <ele>153.1</ele>
        <time>2015-04-05T11:18:52Z</time>
      </trkpt>
      <trkpt lat="43.94667" lon="2.37924">
        <ele>153.1</ele>
        <time>2015-04-05T11:18:57Z</time>
      </trkpt>
      <trkpt lat="43.94662" lon="2.37937">
        <ele>152.7</ele>
        <time>2015-04-05T11:19:01Z</time>
      </trkpt>
      <trkpt lat="43.94656" lon="2.37948">
        <ele>151.9</ele>
        <time>2015-04-05T11:19:04Z</time>
      </trkpt>
      <trkpt lat="43.9465" lon="2.37959">
        <ele>150.5</ele>
        <time>2015-04-05T11:19:07Z</time>
      </trkpt>
      <trkpt lat="43.94645" lon="2.3797">
        <ele>150</ele>
        <time>2015-04-05T11:19:10Z</time>
      </trkpt>
      <trkpt lat="43.94637" lon="2.3798">
        <ele>148.6</ele>
        <time>2015-04-05T11:19:14Z</time>
      </trkpt>
      <trkpt lat="43.9463" lon="2.37989">
        <ele>146.5</ele>
        <time>2015-04-05T11:19:19Z</time>
      </trkpt>
      <trkpt lat="43.94623" lon="2.38001">
        <ele>144.5</ele>
        <time>2015-04-05T11:19:24Z</time>
      </trkpt>
      <trkpt lat="43.94616" lon="2.38012">
        <ele>143.1</ele>
        <time>2015-04-05T11:19:29Z</time>
      </trkpt>
      <trkpt lat="43.9461" lon="2.38024">
        <ele>143.3</ele>
        <time>2015-04-05T11:19:35Z</time>
      </trkpt>
      <trkpt lat="43.94604" lon="2.38034">
        <ele>143.1</ele>
        <time>2015-04-05T11:19:40Z</time>
      </trkpt>
      <trkpt lat="43.94595" lon="2.38038">
        <ele>143</ele>
        <time>2015-04-05T11:19:44Z</time>
      </trkpt>
      <trkpt lat="43.94587" lon="2.38046">
        <ele>139.9</ele>
        <time>2015-04-05T11:20:59Z</time>
      </trkpt>
      <trkpt lat="43.94579" lon="2.38052">
        <ele>140.3</ele>
        <time>2015-04-05T11:21:08Z</time>
      </trkpt>
      <trkpt lat="43.9457" lon="2.38056">
        <ele>141.7</ele>
        <time>2015-04-05T11:21:19Z</time>
      </trkpt>
      <trkpt lat="43.9456" lon="2.38056">
        <ele>141.8</ele>
        <time>2015-04-05T11:21:39Z</time>
      </trkpt>
      <trkpt lat="43.9455" lon="2.38056">
        <ele>141.9</ele>
        <time>2015-04-05T11:21:44Z</time>
      </trkpt>
      <trkpt lat="43.94541" lon="2.38054">
        <ele>142.5</ele>
        <time>2015-04-05T11:21:48Z</time>
      </trkpt>
      <trkpt lat="43.9453" lon="2.38052">
        <ele>143.4</ele>
        <time>2015-04-05T11:21:52Z</time>
      </trkpt>
      <trkpt lat="43.94521" lon="2.38051">
        <ele>144.2</ele>
        <time>2015-04-05T11:21:56Z</time>
      </trkpt>
      <trkpt lat="43.94512" lon="2.38049">
        <ele>145.3</ele>
        <time>2015-04-05T11:22:00Z</time>
      </trkpt>
      <trkpt lat="43.94501" lon="2.38051">
        <ele>146.3</ele>
        <time>2015-04-05T11:22:06Z</time>
      </trkpt>
      <trkpt lat="43.94492" lon="2.38053">
        <ele>147.4</ele>
        <time>2015-04-05T11:22:11Z</time>
      </trkpt>
      <trkpt lat="43.94483" lon="2.38059">
        <ele>148.8</ele>
        <time>2015-04-05T11:22:16Z</time>
      </trkpt>
      <trkpt lat="43.94476" lon="2.38066">
        <ele>150.4</ele>
        <time>2015-04-05T11:22:22Z</time>
      </trkpt>
      <trkpt lat="43.94468" lon="2.38074">
        <ele>152.9</ele>
        <time>2015-04-05T11:22:28Z</time>
      </trkpt>
      <trkpt lat="43.94459" lon="2.38081">
        <ele>154.6</ele>
        <time>2015-04-05T11:22:34Z</time>
      </trkpt>
      <trkpt lat="43.9445" lon="2.3809">
        <ele>156.2</ele>
        <time>2015-04-05T11:22:40Z</time>
      </trkpt>
      <trkpt lat="43.94443" lon="2.38097">
        <ele>157.4</ele>
        <time>2015-04-05T11:22:44Z</time>
      </trkpt>
      <trkpt lat="43.94434" lon="2.38105">
        <ele>159.1</ele>
        <time>2015-04-05T11:22:50Z</time>
      </trkpt>
      <trkpt lat="43.94425" lon="2.38113">
        <ele>161.1</ele>
        <time>2015-04-05T11:22:56Z</time>
      </trkpt>
      <trkpt lat="43.94417" lon="2.38119">
        <ele>161.6</ele>
        <time>2015-04-05T11:23:01Z</time>
      </trkpt>
      <trkpt lat="43.94409" lon="2.38125">
        <ele>162.2</ele>
        <time>2015-04-05T11:23:06Z</time>
      </trkpt>
      <trkpt lat="43.94399" lon="2.38129">
        <ele>161.7</ele>
        <time>2015-04-05T11:23:11Z</time>
      </trkpt>
      <trkpt lat="43.94388" lon="2.38131">
        <ele>161.5</ele>
        <time>2015-04-05T11:23:16Z</time>
      </trkpt>
      <trkpt lat="43.94379" lon="2.38134">
        <ele>161.6</ele>
        <time>2015-04-05T11:23:20Z</time>
      </trkpt>
      <trkpt lat="43.9437" lon="2.38135">
        <ele>162.4</ele>
        <time>2015-04-05T11:23:25Z</time>
      </trkpt>
      <trkpt lat="43.94361" lon="2.38139">
        <ele>162.8</ele>
        <time>2015-04-05T11:23:30Z</time>
      </trkpt>
      <trkpt lat="43.94351" lon="2.38143">
        <ele>164.2</ele>
        <time>2015-04-05T11:23:35Z</time>
      </trkpt>
      <trkpt lat="43.94343" lon="2.38152">
        <ele>166</ele>
        <time>2015-04-05T11:23:41Z</time>
      </trkpt>
      <trkpt lat="43.94335" lon="2.38158">
        <ele>167.4</ele>
        <time>2015-04-05T11:23:45Z</time>
      </trkpt>
      <trkpt lat="43.94326" lon="2.38164">
        <ele>169.6</ele>
        <time>2015-04-05T11:23:50Z</time>
      </trkpt>
      <trkpt lat="43.94319" lon="2.38172">
        <ele>171</ele>
        <time>2015-04-05T11:23:54Z</time>
      </trkpt>
      <trkpt lat="43.94313" lon="2.38181">
        <ele>172.2</ele>
        <time>2015-04-05T11:23:58Z</time>
      </trkpt>
      <trkpt lat="43.94305" lon="2.38192">
        <ele>173.1</ele>
        <time>2015-04-05T11:24:03Z</time>
      </trkpt>
      <trkpt lat="43.94298" lon="2.38202">
        <ele>172.3</ele>
        <time>2015-04-05T11:24:08Z</time>
      </trkpt>
      <trkpt lat="43.94293" lon="2.38214">
        <ele>171.8</ele>
        <time>2015-04-05T11:24:12Z</time>
      </trkpt>
      <trkpt lat="43.9429" lon="2.38227">
        <ele>172.4</ele>
        <time>2015-04-05T11:24:15Z</time>
      </trkpt>
      <trkpt lat="43.9429" lon="2.3824">
        <ele>173.5</ele>
        <time>2015-04-05T11:24:18Z</time>
      </trkpt>
      <trkpt lat="43.94293" lon="2.38255">
        <ele>174.7</ele>
        <time>2015-04-05T11:24:22Z</time>
      </trkpt>
      <trkpt lat="43.94299" lon="2.3827">
        <ele>174.9</ele>
        <time>2015-04-05T11:24:26Z</time>
      </trkpt>
      <trkpt lat="43.94302" lon="2.38285">
        <ele>174.9</ele>
        <time>2015-04-05T11:24:29Z</time>
      </trkpt>
      <trkpt lat="43.94302" lon="2.38298">
        <ele>174.8</ele>
        <time>2015-04-05T11:24:31Z</time>
      </trkpt>
      <trkpt lat="43.94304" lon="2.38313">
        <ele>174.8</ele>
        <time>2015-04-05T11:24:33Z</time>
      </trkpt>
      <trkpt lat="43.94313" lon="2.38327">
        <ele>174.7</ele>
        <time>2015-04-05T11:24:35Z</time>
      </trkpt>
      <trkpt lat="43.94326" lon="2.38336">
        <ele>174.4</ele>
        <time>2015-04-05T11:24:37Z</time>
      </trkpt>
      <trkpt lat="43.9434" lon="2.38347">
        <ele>173.8</ele>
        <time>2015-04-05T11:24:39Z</time>
      </trkpt>
      <trkpt lat="43.94347" lon="2.38355">
        <ele>173</ele>
        <time>2015-04-05T11:24:40Z</time>
      </trkpt>
      <trkpt lat="43.94354" lon="2.38366">
        <ele>172.1</ele>
        <time>2015-04-05T11:24:41Z</time>
      </trkpt>
      <trkpt lat="43.9436" lon="2.38378">
        <ele>171.5</ele>
        <time>2015-04-05T11:24:42Z</time>
      </trkpt>
      <trkpt lat="43.94366" lon="2.3839">
        <ele>170.9</ele>
        <time>2015-04-05T11:24:43Z</time>
      </trkpt>
      <trkpt lat="43.94371" lon="2.38403">
        <ele>170.1</ele>
        <time>2015-04-05T11:24:44Z</time>
      </trkpt>
      <trkpt lat="43.94376" lon="2.38416">
        <ele>169.5</ele>
        <time>2015-04-05T11:24:45Z</time>
      </trkpt>
      <trkpt lat="43.94382" lon="2.38428">
        <ele>169.1</ele>
        <time>2015-04-05T11:24:46Z</time>
      </trkpt>
      <trkpt lat="43.94388" lon="2.38441">
        <ele>168.4</ele>
        <time>2015-04-05T11:24:47Z</time>
      </trkpt>
      <trkpt lat="43.94393" lon="2.38453">
        <ele>167.9</ele>
        <time>2015-04-05T11:24:48Z</time>
      </trkpt>
      <trkpt lat="43.94399" lon="2.38465">
        <ele>167.6</ele>
        <time>2015-04-05T11:24:49Z</time>
      </trkpt>
      <trkpt lat="43.94404" lon="2.38476">
        <ele>167.3</ele>
        <time>2015-04-05T11:24:50Z</time>
      </trkpt>
      <trkpt lat="43.94408" lon="2.38488">
        <ele>167.1</ele>
        <time>2015-04-05T11:24:51Z</time>
      </trkpt>
      <trkpt lat="43.94416" lon="2.38506">
        <ele>166.1</ele>
        <time>2015-04-05T11:24:53Z</time>
      </trkpt>
      <trkpt lat="43.94422" lon="2.38524">
        <ele>165.8</ele>
        <time>2015-04-05T11:24:55Z</time>
      </trkpt>
      <trkpt lat="43.9443" lon="2.38539">
        <ele>165.6</ele>
        <time>2015-04-05T11:24:57Z</time>
      </trkpt>
      <trkpt lat="43.94437" lon="2.38552">
        <ele>165.3</ele>
        <time>2015-04-05T11:24:59Z</time>
      </trkpt>
      <trkpt lat="43.94445" lon="2.38565">
        <ele>165.1</ele>
        <time>2015-04-05T11:25:01Z</time>
      </trkpt>
      <trkpt lat="43.94452" lon="2.38577">
        <ele>165</ele>
        <time>2015-04-05T11:25:03Z</time>
      </trkpt>
      <trkpt lat="43.94461" lon="2.38588">
        <ele>164.9</ele>
        <time>2015-04-05T11:25:05Z</time>
      </trkpt>
      <trkpt lat="43.94469" lon="2.38596">
        <ele>165</ele>
        <time>2015-04-05T11:25:07Z</time>
      </trkpt>
      <trkpt lat="43.94475" lon="2.38606">
        <ele>165.1</ele>
        <time>2015-04-05T11:25:09Z</time>
      </trkpt>
      <trkpt lat="43.94482" lon="2.38616">
        <ele>164.8</ele>
        <time>2015-04-05T11:25:11Z</time>
      </trkpt>
      <trkpt lat="43.94489" lon="2.38627">
        <ele>164.9</ele>
        <time>2015-04-05T11:25:13Z</time>
      </trkpt>
      <trkpt lat="43.94497" lon="2.38636">
        <ele>164.7</ele>
        <time>2015-04-05T11:25:15Z</time>
      </trkpt>
      <trkpt lat="43.94504" lon="2.38645">
        <ele>164.7</ele>
        <time>2015-04-05T11:25:17Z</time>
      </trkpt>
      <trkpt lat="43.94513" lon="2.38659">
        <ele>164.9</ele>
        <time>2015-04-05T11:25:20Z</time>
      </trkpt>
      <trkpt lat="43.94521" lon="2.38673">
        <ele>165</ele>
        <time>2015-04-05T11:25:23Z</time>
      </trkpt>
      <trkpt lat="43.94526" lon="2.38683">
        <ele>164.9</ele>
        <time>2015-04-05T11:25:25Z</time>
      </trkpt>
      <trkpt lat="43.94533" lon="2.38696">
        <ele>164.4</ele>
        <time>2015-04-05T11:25:28Z</time>
      </trkpt>
      <trkpt lat="43.94538" lon="2.38707">
        <ele>163.9</ele>
        <time>2015-04-05T11:25:30Z</time>
      </trkpt>
      <trkpt lat="43.94544" lon="2.38718">
        <ele>163.7</ele>
        <time>2015-04-05T11:25:32Z</time>
      </trkpt>
      <trkpt lat="43.94548" lon="2.3873">
        <ele>163.5</ele>
        <time>2015-04-05T11:25:34Z</time>
      </trkpt>
      <trkpt lat="43.94554" lon="2.38746">
        <ele>163</ele>
        <time>2015-04-05T11:25:37Z</time>
      </trkpt>
      <trkpt lat="43.94557" lon="2.38758">
        <ele>162.9</ele>
        <time>2015-04-05T11:25:39Z</time>
      </trkpt>
      <trkpt lat="43.9456" lon="2.38771">
        <ele>163.1</ele>
        <time>2015-04-05T11:25:41Z</time>
      </trkpt>
      <trkpt lat="43.94563" lon="2.38787">
        <ele>164</ele>
        <time>2015-04-05T11:25:44Z</time>
      </trkpt>
      <trkpt lat="43.94567" lon="2.38805">
        <ele>164.2</ele>
        <time>2015-04-05T11:25:47Z</time>
      </trkpt>
      <trkpt lat="43.94569" lon="2.38819">
        <ele>164.6</ele>
        <time>2015-04-05T11:25:49Z</time>
      </trkpt>
      <trkpt lat="43.94572" lon="2.38831">
        <ele>164.7</ele>
        <time>2015-04-05T11:25:51Z</time>
      </trkpt>
      <trkpt lat="43.94575" lon="2.38843">
        <ele>165</ele>
        <time>2015-04-05T11:25:53Z</time>
      </trkpt>
      <trkpt lat="43.94578" lon="2.38856">
        <ele>165.5</ele>
        <time>2015-04-05T11:25:55Z</time>
      </trkpt>
      <trkpt lat="43.94581" lon="2.38873">
        <ele>166</ele>
        <time>2015-04-05T11:25:58Z</time>
      </trkpt>
      <trkpt lat="43.94583" lon="2.38885">
        <ele>165.9</ele>
        <time>2015-04-05T11:26:00Z</time>
      </trkpt>
      <trkpt lat="43.94584" lon="2.38898">
        <ele>166.1</ele>
        <time>2015-04-05T11:26:02Z</time>
      </trkpt>
      <trkpt lat="43.94586" lon="2.38912">
        <ele>166.4</ele>
        <time>2015-04-05T11:26:04Z</time>
      </trkpt>
      <trkpt lat="43.94588" lon="2.38924">
        <ele>166.5</ele>
        <time>2015-04-05T11:26:06Z</time>
      </trkpt>
      <trkpt lat="43.9459" lon="2.38937">
        <ele>166.2</ele>
        <time>2015-04-05T11:26:08Z</time>
      </trkpt>
      <trkpt lat="43.94592" lon="2.38951">
        <ele>165.7</ele>
        <time>2015-04-05T11:26:10Z</time>
      </trkpt>
      <trkpt lat="43.94594" lon="2.38964">
        <ele>165.7</ele>
        <time>2015-04-05T11:26:12Z</time>
      </trkpt>
      <trkpt lat="43.94596" lon="2.38978">
        <ele>165.5</ele>
        <time>2015-04-05T11:26:14Z</time>
      </trkpt>
      <trkpt lat="43.94598" lon="2.38992">
        <ele>165.4</ele>
        <time>2015-04-05T11:26:16Z</time>
      </trkpt>
      <trkpt lat="43.94601" lon="2.39006">
        <ele>165.8</ele>
        <time>2015-04-05T11:26:18Z</time>
      </trkpt>
      <trkpt lat="43.94604" lon="2.3902">
        <ele>165.8</ele>
        <time>2015-04-05T11:26:20Z</time>
      </trkpt>
      <trkpt lat="43.94607" lon="2.39033">
        <ele>165.8</ele>
        <time>2015-04-05T11:26:22Z</time>
      </trkpt>
      <trkpt lat="43.94609" lon="2.39047">
        <ele>165.7</ele>
        <time>2015-04-05T11:26:24Z</time>
      </trkpt>
      <trkpt lat="43.94613" lon="2.3906">
        <ele>165.7</ele>
        <time>2015-04-05T11:26:26Z</time>
      </trkpt>
      <trkpt lat="43.94617" lon="2.39075">
        <ele>165.6</ele>
        <time>2015-04-05T11:26:28Z</time>
      </trkpt>
      <trkpt lat="43.94621" lon="2.39089">
        <ele>165.3</ele>
        <time>2015-04-05T11:26:30Z</time>
      </trkpt>
      <trkpt lat="43.94624" lon="2.39103">
        <ele>164.8</ele>
        <time>2015-04-05T11:26:32Z</time>
      </trkpt>
      <trkpt lat="43.94626" lon="2.39117">
        <ele>164.7</ele>
        <time>2015-04-05T11:26:34Z</time>
      </trkpt>
      <trkpt lat="43.94628" lon="2.39131">
        <ele>164.6</ele>
        <time>2015-04-05T11:26:36Z</time>
      </trkpt>
      <trkpt lat="43.94631" lon="2.39145">
        <ele>164.8</ele>
        <time>2015-04-05T11:26:38Z</time>
      </trkpt>
      <trkpt lat="43.94632" lon="2.39159">
        <ele>164.7</ele>
        <time>2015-04-05T11:26:40Z</time>
      </trkpt>
      <trkpt lat="43.94634" lon="2.39171">
        <ele>165.1</ele>
        <time>2015-04-05T11:26:42Z</time>
      </trkpt>
      <trkpt lat="43.94635" lon="2.39189">
        <ele>165.6</ele>
        <time>2015-04-05T11:26:45Z</time>
      </trkpt>
      <trkpt lat="43.94636" lon="2.39202">
        <ele>166.1</ele>
        <time>2015-04-05T11:26:47Z</time>
      </trkpt>
      <trkpt lat="43.94637" lon="2.39215">
        <ele>167.1</ele>
        <time>2015-04-05T11:26:49Z</time>
      </trkpt>
      <trkpt lat="43.94639" lon="2.39232">
        <ele>167.9</ele>
        <time>2015-04-05T11:26:52Z</time>
      </trkpt>
      <trkpt lat="43.9464" lon="2.3925">
        <ele>168.8</ele>
        <time>2015-04-05T11:26:55Z</time>
      </trkpt>
      <trkpt lat="43.94642" lon="2.39266">
        <ele>169.2</ele>
        <time>2015-04-05T11:26:58Z</time>
      </trkpt>
      <trkpt lat="43.94646" lon="2.39282">
        <ele>169.3</ele>
        <time>2015-04-05T11:27:01Z</time>
      </trkpt>
      <trkpt lat="43.94648" lon="2.39298">
        <ele>169.7</ele>
        <time>2015-04-05T11:27:04Z</time>
      </trkpt>
      <trkpt lat="43.9465" lon="2.39314">
        <ele>169.5</ele>
        <time>2015-04-05T11:27:07Z</time>
      </trkpt>
      <trkpt lat="43.9465" lon="2.3933">
        <ele>169.7</ele>
        <time>2015-04-05T11:27:10Z</time>
      </trkpt>
      <trkpt lat="43.9465" lon="2.39343">
        <ele>169.6</ele>
        <time>2015-04-05T11:27:12Z</time>
      </trkpt>
      <trkpt lat="43.94651" lon="2.3936">
        <ele>169.2</ele>
        <time>2015-04-05T11:27:15Z</time>
      </trkpt>
      <trkpt lat="43.9465" lon="2.39377">
        <ele>169.1</ele>
        <time>2015-04-05T11:27:18Z</time>
      </trkpt>
      <trkpt lat="43.9465" lon="2.39395">
        <ele>168.8</ele>
        <time>2015-04-05T11:27:21Z</time>
      </trkpt>
      <trkpt lat="43.94649" lon="2.39412">
        <ele>168.5</ele>
        <time>2015-04-05T11:27:24Z</time>
      </trkpt>
      <trkpt lat="43.94647" lon="2.3943">
        <ele>168.4</ele>
        <time>2015-04-05T11:27:27Z</time>
      </trkpt>
      <trkpt lat="43.94643" lon="2.39447">
        <ele>167.6</ele>
        <time>2015-04-05T11:27:30Z</time>
      </trkpt>
      <trkpt lat="43.9464" lon="2.39466">
        <ele>167.1</ele>
        <time>2015-04-05T11:27:33Z</time>
      </trkpt>
      <trkpt lat="43.94638" lon="2.3948">
        <ele>167.2</ele>
        <time>2015-04-05T11:27:35Z</time>
      </trkpt>
      <trkpt lat="43.94634" lon="2.39492">
        <ele>166.9</ele>
        <time>2015-04-05T11:27:37Z</time>
      </trkpt>
      <trkpt lat="43.9463" lon="2.39503">
        <ele>166.9</ele>
        <time>2015-04-05T11:27:39Z</time>
      </trkpt>
      <trkpt lat="43.94626" lon="2.39517">
        <ele>166.8</ele>
        <time>2015-04-05T11:27:41Z</time>
      </trkpt>
      <trkpt lat="43.94623" lon="2.39531">
        <ele>166.9</ele>
        <time>2015-04-05T11:27:43Z</time>
      </trkpt>
      <trkpt lat="43.9462" lon="2.39546">
        <ele>166.6</ele>
        <time>2015-04-05T11:27:45Z</time>
      </trkpt>
      <trkpt lat="43.94616" lon="2.3956">
        <ele>166.8</ele>
        <time>2015-04-05T11:27:47Z</time>
      </trkpt>
      <trkpt lat="43.94613" lon="2.39574">
        <ele>166.9</ele>
        <time>2015-04-05T11:27:49Z</time>
      </trkpt>
      <trkpt lat="43.9461" lon="2.39587">
        <ele>167</ele>
        <time>2015-04-05T11:27:51Z</time>
      </trkpt>
      <trkpt lat="43.94608" lon="2.39601">
        <ele>167.4</ele>
        <time>2015-04-05T11:27:53Z</time>
      </trkpt>
      <trkpt lat="43.94605" lon="2.39614">
        <ele>167.7</ele>
        <time>2015-04-05T11:27:55Z</time>
      </trkpt>
      <trkpt lat="43.94601" lon="2.39627">
        <ele>167.6</ele>
        <time>2015-04-05T11:27:57Z</time>
      </trkpt>
      <trkpt lat="43.94591" lon="2.39641">
        <ele>168</ele>
        <time>2015-04-05T11:28:00Z</time>
      </trkpt>
      <trkpt lat="43.94584" lon="2.39651">
        <ele>168</ele>
        <time>2015-04-05T11:28:02Z</time>
      </trkpt>
      <trkpt lat="43.94578" lon="2.39663">
        <ele>168</ele>
        <time>2015-04-05T11:28:04Z</time>
      </trkpt>
      <trkpt lat="43.94572" lon="2.39675">
        <ele>168</ele>
        <time>2015-04-05T11:28:06Z</time>
      </trkpt>
      <trkpt lat="43.94565" lon="2.39686">
        <ele>168.1</ele>
        <time>2015-04-05T11:28:08Z</time>
      </trkpt>
      <trkpt lat="43.94557" lon="2.39695">
        <ele>167.8</ele>
        <time>2015-04-05T11:28:10Z</time>
      </trkpt>
      <trkpt lat="43.94549" lon="2.39707">
        <ele>167.9</ele>
        <time>2015-04-05T11:28:13Z</time>
      </trkpt>
      <trkpt lat="43.94539" lon="2.39716">
        <ele>168</ele>
        <time>2015-04-05T11:28:16Z</time>
      </trkpt>
      <trkpt lat="43.94531" lon="2.39725">
        <ele>168.3</ele>
        <time>2015-04-05T11:28:19Z</time>
      </trkpt>
      <trkpt lat="43.94523" lon="2.39737">
        <ele>169.1</ele>
        <time>2015-04-05T11:28:22Z</time>
      </trkpt>
      <trkpt lat="43.94515" lon="2.39747">
        <ele>169.8</ele>
        <time>2015-04-05T11:28:25Z</time>
      </trkpt>
      <trkpt lat="43.94507" lon="2.39758">
        <ele>170.4</ele>
        <time>2015-04-05T11:28:28Z</time>
      </trkpt>
      <trkpt lat="43.94499" lon="2.39767">
        <ele>170.6</ele>
        <time>2015-04-05T11:28:31Z</time>
      </trkpt>
      <trkpt lat="43.9449" lon="2.39779">
        <ele>170.8</ele>
        <time>2015-04-05T11:28:34Z</time>
      </trkpt>
      <trkpt lat="43.94482" lon="2.39788">
        <ele>171</ele>
        <time>2015-04-05T11:28:37Z</time>
      </trkpt>
      <trkpt lat="43.94473" lon="2.39796">
        <ele>171.2</ele>
        <time>2015-04-05T11:28:40Z</time>
      </trkpt>
      <trkpt lat="43.94463" lon="2.39807">
        <ele>171.5</ele>
        <time>2015-04-05T11:28:44Z</time>
      </trkpt>
      <trkpt lat="43.94455" lon="2.39816">
        <ele>171.8</ele>
        <time>2015-04-05T11:28:47Z</time>
      </trkpt>
      <trkpt lat="43.94447" lon="2.39829">
        <ele>171.9</ele>
        <time>2015-04-05T11:28:50Z</time>
      </trkpt>
      <trkpt lat="43.9444" lon="2.39838">
        <ele>171.8</ele>
        <time>2015-04-05T11:28:52Z</time>
      </trkpt>
      <trkpt lat="43.94435" lon="2.39851">
        <ele>171.4</ele>
        <time>2015-04-05T11:28:54Z</time>
      </trkpt>
      <trkpt lat="43.9443" lon="2.39863">
        <ele>170.9</ele>
        <time>2015-04-05T11:28:56Z</time>
      </trkpt>
      <trkpt lat="43.94422" lon="2.39874">
        <ele>170.6</ele>
        <time>2015-04-05T11:28:58Z</time>
      </trkpt>
      <trkpt lat="43.94415" lon="2.39882">
        <ele>170.2</ele>
        <time>2015-04-05T11:29:00Z</time>
      </trkpt>
      <trkpt lat="43.94404" lon="2.39894">
        <ele>170.5</ele>
        <time>2015-04-05T11:29:03Z</time>
      </trkpt>
      <trkpt lat="43.94396" lon="2.39904">
        <ele>170.2</ele>
        <time>2015-04-05T11:29:06Z</time>
      </trkpt>
      <trkpt lat="43.94388" lon="2.39913">
        <ele>170.3</ele>
        <time>2015-04-05T11:29:09Z</time>
      </trkpt>
      <trkpt lat="43.94379" lon="2.39919">
        <ele>170.4</ele>
        <time>2015-04-05T11:29:12Z</time>
      </trkpt>
      <trkpt lat="43.9437" lon="2.39926">
        <ele>170.5</ele>
        <time>2015-04-05T11:29:15Z</time>
      </trkpt>
      <trkpt lat="43.94362" lon="2.39933">
        <ele>170.6</ele>
        <time>2015-04-05T11:29:18Z</time>
      </trkpt>
      <trkpt lat="43.94353" lon="2.39939">
        <ele>170.9</ele>
        <time>2015-04-05T11:29:21Z</time>
      </trkpt>
      <trkpt lat="43.94344" lon="2.39946">
        <ele>171.1</ele>
        <time>2015-04-05T11:29:25Z</time>
      </trkpt>
      <trkpt lat="43.94334" lon="2.39953">
        <ele>171.2</ele>
        <time>2015-04-05T11:29:30Z</time>
      </trkpt>
      <trkpt lat="43.94323" lon="2.39958">
        <ele>171.3</ele>
        <time>2015-04-05T11:29:34Z</time>
      </trkpt>
      <trkpt lat="43.94312" lon="2.3996">
        <ele>170.9</ele>
        <time>2015-04-05T11:29:38Z</time>
      </trkpt>
      <trkpt lat="43.94304" lon="2.39966">
        <ele>171.2</ele>
        <time>2015-04-05T11:29:42Z</time>
      </trkpt>
      <trkpt lat="43.94295" lon="2.39973">
        <ele>169.5</ele>
        <time>2015-04-05T11:29:47Z</time>
      </trkpt>
      <trkpt lat="43.94286" lon="2.39978">
        <ele>168.8</ele>
        <time>2015-04-05T11:29:52Z</time>
      </trkpt>
      <trkpt lat="43.94277" lon="2.39982">
        <ele>168.1</ele>
        <time>2015-04-05T11:29:57Z</time>
      </trkpt>
      <trkpt lat="43.94267" lon="2.39988">
        <ele>166.7</ele>
        <time>2015-04-05T11:30:03Z</time>
      </trkpt>
      <trkpt lat="43.94257" lon="2.39993">
        <ele>166.3</ele>
        <time>2015-04-05T11:30:09Z</time>
      </trkpt>
      <trkpt lat="43.94249" lon="2.39997">
        <ele>165.3</ele>
        <time>2015-04-05T11:30:15Z</time>
      </trkpt>
      <trkpt lat="43.94238" lon="2.39998">
        <ele>169.9</ele>
        <time>2015-04-05T11:35:13Z</time>
      </trkpt>
      <trkpt lat="43.94229" lon="2.4">
        <ele>169.7</ele>
        <time>2015-04-05T11:35:16Z</time>
      </trkpt>
      <trkpt lat="43.94217" lon="2.40003">
        <ele>169.4</ele>
        <time>2015-04-05T11:35:19Z</time>
      </trkpt>
      <trkpt lat="43.94206" lon="2.40003">
        <ele>169</ele>
        <time>2015-04-05T11:35:22Z</time>
      </trkpt>
      <trkpt lat="43.94195" lon="2.4">
        <ele>168.1</ele>
        <time>2015-04-05T11:35:26Z</time>
      </trkpt>
      <trkpt lat="43.94186" lon="2.40001">
        <ele>167.6</ele>
        <time>2015-04-05T11:35:30Z</time>
      </trkpt>
      <trkpt lat="43.9418" lon="2.40014">
        <ele>166.9</ele>
        <time>2015-04-05T11:35:35Z</time>
      </trkpt>
      <trkpt lat="43.94177" lon="2.40027">
        <ele>166.1</ele>
        <time>2015-04-05T11:35:40Z</time>
      </trkpt>
      <trkpt lat="43.94174" lon="2.40039">
        <ele>165.5</ele>
        <time>2015-04-05T11:35:45Z</time>
      </trkpt>
      <trkpt lat="43.94176" lon="2.40051">
        <ele>164.9</ele>
        <time>2015-04-05T11:35:51Z</time>
      </trkpt>
      <trkpt lat="43.94175" lon="2.40064">
        <ele>164.5</ele>
        <time>2015-04-05T11:35:55Z</time>
      </trkpt>
      <trkpt lat="43.94174" lon="2.40077">
        <ele>164.1</ele>
        <time>2015-04-05T11:35:59Z</time>
      </trkpt>
      <trkpt lat="43.94159" lon="2.40213">
        <ele>165.3</ele>
        <time>2015-04-05T11:36:16Z</time>
      </trkpt>
      <trkpt lat="43.94161" lon="2.40227">
        <ele>174.4</ele>
        <time>2015-04-05T11:36:18Z</time>
      </trkpt>
      <trkpt lat="43.94165" lon="2.40243">
        <ele>181.8</ele>
        <time>2015-04-05T11:36:21Z</time>
      </trkpt>
      <trkpt lat="43.9417" lon="2.4026">
        <ele>178.8</ele>
        <time>2015-04-05T11:36:24Z</time>
      </trkpt>
      <trkpt lat="43.94174" lon="2.40272">
        <ele>177.6</ele>
        <time>2015-04-05T11:36:26Z</time>
      </trkpt>
      <trkpt lat="43.94177" lon="2.40284">
        <ele>177.3</ele>
        <time>2015-04-05T11:36:28Z</time>
      </trkpt>
      <trkpt lat="43.94181" lon="2.40296">
        <ele>176.3</ele>
        <time>2015-04-05T11:36:30Z</time>
      </trkpt>
      <trkpt lat="43.94187" lon="2.40312">
        <ele>176.7</ele>
        <time>2015-04-05T11:36:33Z</time>
      </trkpt>
      <trkpt lat="43.94194" lon="2.40327">
        <ele>176</ele>
        <time>2015-04-05T11:36:36Z</time>
      </trkpt>
      <trkpt lat="43.94202" lon="2.40342">
        <ele>174.8</ele>
        <time>2015-04-05T11:36:39Z</time>
      </trkpt>
      <trkpt lat="43.94209" lon="2.40356">
        <ele>173.8</ele>
        <time>2015-04-05T11:36:42Z</time>
      </trkpt>
      <trkpt lat="43.94214" lon="2.40368">
        <ele>172.9</ele>
        <time>2015-04-05T11:36:45Z</time>
      </trkpt>
      <trkpt lat="43.9422" lon="2.40377">
        <ele>172.7</ele>
        <time>2015-04-05T11:36:48Z</time>
      </trkpt>
      <trkpt lat="43.94226" lon="2.40388">
        <ele>172.2</ele>
        <time>2015-04-05T11:36:52Z</time>
      </trkpt>
      <trkpt lat="43.94232" lon="2.40399">
        <ele>171.5</ele>
        <time>2015-04-05T11:36:56Z</time>
      </trkpt>
      <trkpt lat="43.94241" lon="2.40411">
        <ele>170.4</ele>
        <time>2015-04-05T11:37:00Z</time>
      </trkpt>
      <trkpt lat="43.94251" lon="2.40422">
        <ele>169.9</ele>
        <time>2015-04-05T11:37:03Z</time>
      </trkpt>
      <trkpt lat="43.9426" lon="2.40434">
        <ele>170.2</ele>
        <time>2015-04-05T11:37:06Z</time>
      </trkpt>
      <trkpt lat="43.9427" lon="2.40444">
        <ele>170.2</ele>
        <time>2015-04-05T11:37:09Z</time>
      </trkpt>
      <trkpt lat="43.94277" lon="2.40453">
        <ele>170.1</ele>
        <time>2015-04-05T11:37:11Z</time>
      </trkpt>
      <trkpt lat="43.94286" lon="2.4046">
        <ele>170.2</ele>
        <time>2015-04-05T11:37:13Z</time>
      </trkpt>
      <trkpt lat="43.94294" lon="2.40468">
        <ele>170.3</ele>
        <time>2015-04-05T11:37:15Z</time>
      </trkpt>
      <trkpt lat="43.94301" lon="2.40477">
        <ele>170.5</ele>
        <time>2015-04-05T11:37:17Z</time>
      </trkpt>
      <trkpt lat="43.94309" lon="2.40485">
        <ele>170.3</ele>
        <time>2015-04-05T11:37:19Z</time>
      </trkpt>
      <trkpt lat="43.94316" lon="2.40496">
        <ele>170.6</ele>
        <time>2015-04-05T11:37:21Z</time>
      </trkpt>
      <trkpt lat="43.94324" lon="2.40505">
        <ele>170.9</ele>
        <time>2015-04-05T11:37:23Z</time>
      </trkpt>
      <trkpt lat="43.94331" lon="2.40514">
        <ele>171</ele>
        <time>2015-04-05T11:37:25Z</time>
      </trkpt>
      <trkpt lat="43.94341" lon="2.40527">
        <ele>170.9</ele>
        <time>2015-04-05T11:37:28Z</time>
      </trkpt>
      <trkpt lat="43.94351" lon="2.40538">
        <ele>171.1</ele>
        <time>2015-04-05T11:37:31Z</time>
      </trkpt>
      <trkpt lat="43.94359" lon="2.40542">
        <ele>171.1</ele>
        <time>2015-04-05T11:37:33Z</time>
      </trkpt>
      <trkpt lat="43.9437" lon="2.4055">
        <ele>171.3</ele>
        <time>2015-04-05T11:37:36Z</time>
      </trkpt>
      <trkpt lat="43.94379" lon="2.40557">
        <ele>171.4</ele>
        <time>2015-04-05T11:37:38Z</time>
      </trkpt>
      <trkpt lat="43.94388" lon="2.40563">
        <ele>171.9</ele>
        <time>2015-04-05T11:37:40Z</time>
      </trkpt>
      <trkpt lat="43.94397" lon="2.40569">
        <ele>172.5</ele>
        <time>2015-04-05T11:37:42Z</time>
      </trkpt>
      <trkpt lat="43.94406" lon="2.40574">
        <ele>172.9</ele>
        <time>2015-04-05T11:37:44Z</time>
      </trkpt>
      <trkpt lat="43.94416" lon="2.40578">
        <ele>173.4</ele>
        <time>2015-04-05T11:37:46Z</time>
      </trkpt>
      <trkpt lat="43.94427" lon="2.40582">
        <ele>173.5</ele>
        <time>2015-04-05T11:37:48Z</time>
      </trkpt>
      <trkpt lat="43.9444" lon="2.40589">
        <ele>173.5</ele>
        <time>2015-04-05T11:37:50Z</time>
      </trkpt>
      <trkpt lat="43.94451" lon="2.40595">
        <ele>173.6</ele>
        <time>2015-04-05T11:37:52Z</time>
      </trkpt>
      <trkpt lat="43.94463" lon="2.40598">
        <ele>173.7</ele>
        <time>2015-04-05T11:37:54Z</time>
      </trkpt>
      <trkpt lat="43.94473" lon="2.406">
        <ele>173.7</ele>
        <time>2015-04-05T11:37:56Z</time>
      </trkpt>
      <trkpt lat="43.94484" lon="2.40603">
        <ele>173.4</ele>
        <time>2015-04-05T11:37:58Z</time>
      </trkpt>
      <trkpt lat="43.94495" lon="2.40605">
        <ele>172.5</ele>
        <time>2015-04-05T11:38:00Z</time>
      </trkpt>
      <trkpt lat="43.94506" lon="2.40607">
        <ele>172.5</ele>
        <time>2015-04-05T11:38:02Z</time>
      </trkpt>
      <trkpt lat="43.94518" lon="2.40609">
        <ele>171.9</ele>
        <time>2015-04-05T11:38:04Z</time>
      </trkpt>
      <trkpt lat="43.9453" lon="2.40614">
        <ele>170.4</ele>
        <time>2015-04-05T11:38:06Z</time>
      </trkpt>
      <trkpt lat="43.94541" lon="2.40619">
        <ele>170.7</ele>
        <time>2015-04-05T11:38:08Z</time>
      </trkpt>
      <trkpt lat="43.94552" lon="2.40625">
        <ele>172.5</ele>
        <time>2015-04-05T11:38:10Z</time>
      </trkpt>
      <trkpt lat="43.94563" lon="2.40627">
        <ele>172.3</ele>
        <time>2015-04-05T11:38:12Z</time>
      </trkpt>
      <trkpt lat="43.94575" lon="2.4063">
        <ele>170.7</ele>
        <time>2015-04-05T11:38:14Z</time>
      </trkpt>
      <trkpt lat="43.94586" lon="2.40633">
        <ele>169.4</ele>
        <time>2015-04-05T11:38:16Z</time>
      </trkpt>
      <trkpt lat="43.94596" lon="2.40636">
        <ele>169.1</ele>
        <time>2015-04-05T11:38:18Z</time>
      </trkpt>
      <trkpt lat="43.94607" lon="2.40639">
        <ele>169.9</ele>
        <time>2015-04-05T11:38:20Z</time>
      </trkpt>
      <trkpt lat="43.94617" lon="2.40639">
        <ele>169.7</ele>
        <time>2015-04-05T11:38:22Z</time>
      </trkpt>
      <trkpt lat="43.94626" lon="2.40642">
        <ele>170.4</ele>
        <time>2015-04-05T11:38:24Z</time>
      </trkpt>
      <trkpt lat="43.94637" lon="2.40644">
        <ele>170.1</ele>
        <time>2015-04-05T11:38:26Z</time>
      </trkpt>
      <trkpt lat="43.94647" lon="2.40647">
        <ele>170.1</ele>
        <time>2015-04-05T11:38:28Z</time>
      </trkpt>
      <trkpt lat="43.94658" lon="2.40648">
        <ele>170.2</ele>
        <time>2015-04-05T11:38:30Z</time>
      </trkpt>
      <trkpt lat="43.94669" lon="2.40649">
        <ele>170.3</ele>
        <time>2015-04-05T11:38:32Z</time>
      </trkpt>
      <trkpt lat="43.94679" lon="2.40652">
        <ele>170.4</ele>
        <time>2015-04-05T11:38:34Z</time>
      </trkpt>
      <trkpt lat="43.9469" lon="2.40656">
        <ele>170.1</ele>
        <time>2015-04-05T11:38:36Z</time>
      </trkpt>
      <trkpt lat="43.94699" lon="2.40661">
        <ele>171.7</ele>
        <time>2015-04-05T11:38:38Z</time>
      </trkpt>
      <trkpt lat="43.9471" lon="2.40664">
        <ele>172.9</ele>
        <time>2015-04-05T11:38:40Z</time>
      </trkpt>
      <trkpt lat="43.94721" lon="2.40666">
        <ele>172.6</ele>
        <time>2015-04-05T11:38:42Z</time>
      </trkpt>
      <trkpt lat="43.94731" lon="2.40667">
        <ele>172.1</ele>
        <time>2015-04-05T11:38:44Z</time>
      </trkpt>
      <trkpt lat="43.94742" lon="2.40669">
        <ele>171.5</ele>
        <time>2015-04-05T11:38:46Z</time>
      </trkpt>
      <trkpt lat="43.94751" lon="2.4067">
        <ele>170.8</ele>
        <time>2015-04-05T11:38:48Z</time>
      </trkpt>
      <trkpt lat="43.94761" lon="2.40673">
        <ele>170.6</ele>
        <time>2015-04-05T11:38:50Z</time>
      </trkpt>
      <trkpt lat="43.94772" lon="2.40674">
        <ele>169.6</ele>
        <time>2015-04-05T11:38:52Z</time>
      </trkpt>
      <trkpt lat="43.94782" lon="2.40676">
        <ele>168.9</ele>
        <time>2015-04-05T11:38:54Z</time>
      </trkpt>
      <trkpt lat="43.94792" lon="2.40679">
        <ele>168.7</ele>
        <time>2015-04-05T11:38:56Z</time>
      </trkpt>
      <trkpt lat="43.94805" lon="2.40682">
        <ele>168.1</ele>
        <time>2015-04-05T11:38:59Z</time>
      </trkpt>
      <trkpt lat="43.94814" lon="2.40685">
        <ele>168.2</ele>
        <time>2015-04-05T11:39:01Z</time>
      </trkpt>
      <trkpt lat="43.94827" lon="2.40688">
        <ele>167.2</ele>
        <time>2015-04-05T11:39:04Z</time>
      </trkpt>
      <trkpt lat="43.94837" lon="2.40691">
        <ele>166.9</ele>
        <time>2015-04-05T11:39:06Z</time>
      </trkpt>
      <trkpt lat="43.94846" lon="2.40695">
        <ele>167.2</ele>
        <time>2015-04-05T11:39:08Z</time>
      </trkpt>
      <trkpt lat="43.94856" lon="2.407">
        <ele>167.4</ele>
        <time>2015-04-05T11:39:10Z</time>
      </trkpt>
      <trkpt lat="43.94865" lon="2.40704">
        <ele>167.4</ele>
        <time>2015-04-05T11:39:12Z</time>
      </trkpt>
      <trkpt lat="43.94874" lon="2.40708">
        <ele>167.1</ele>
        <time>2015-04-05T11:39:14Z</time>
      </trkpt>
      <trkpt lat="43.94883" lon="2.40712">
        <ele>167.1</ele>
        <time>2015-04-05T11:39:16Z</time>
      </trkpt>
      <trkpt lat="43.94893" lon="2.40717">
        <ele>167.1</ele>
        <time>2015-04-05T11:39:18Z</time>
      </trkpt>
      <trkpt lat="43.94902" lon="2.40723">
        <ele>167</ele>
        <time>2015-04-05T11:39:20Z</time>
      </trkpt>
      <trkpt lat="43.94911" lon="2.40728">
        <ele>166.9</ele>
        <time>2015-04-05T11:39:22Z</time>
      </trkpt>
      <trkpt lat="43.94919" lon="2.40734">
        <ele>166.7</ele>
        <time>2015-04-05T11:39:24Z</time>
      </trkpt>
      <trkpt lat="43.94928" lon="2.4074">
        <ele>166.6</ele>
        <time>2015-04-05T11:39:26Z</time>
      </trkpt>
      <trkpt lat="43.94936" lon="2.40747">
        <ele>166.9</ele>
        <time>2015-04-05T11:39:28Z</time>
      </trkpt>
      <trkpt lat="43.94945" lon="2.40753">
        <ele>167.1</ele>
        <time>2015-04-05T11:39:30Z</time>
      </trkpt>
      <trkpt lat="43.94953" lon="2.40759">
        <ele>167.7</ele>
        <time>2015-04-05T11:39:32Z</time>
      </trkpt>
      <trkpt lat="43.94961" lon="2.40767">
        <ele>168.3</ele>
        <time>2015-04-05T11:39:34Z</time>
      </trkpt>
      <trkpt lat="43.94967" lon="2.40776">
        <ele>168.7</ele>
        <time>2015-04-05T11:39:36Z</time>
      </trkpt>
      <trkpt lat="43.94976" lon="2.40783">
        <ele>169.3</ele>
        <time>2015-04-05T11:39:38Z</time>
      </trkpt>
      <trkpt lat="43.94983" lon="2.40791">
        <ele>169.7</ele>
        <time>2015-04-05T11:39:40Z</time>
      </trkpt>
      <trkpt lat="43.94992" lon="2.408">
        <ele>170.1</ele>
        <time>2015-04-05T11:39:42Z</time>
      </trkpt>
      <trkpt lat="43.95" lon="2.40809">
        <ele>170.5</ele>
        <time>2015-04-05T11:39:44Z</time>
      </trkpt>
      <trkpt lat="43.95008" lon="2.40816">
        <ele>170.8</ele>
        <time>2015-04-05T11:39:46Z</time>
      </trkpt>
      <trkpt lat="43.95015" lon="2.40824">
        <ele>171.3</ele>
        <time>2015-04-05T11:39:48Z</time>
      </trkpt>
      <trkpt lat="43.95023" lon="2.40832">
        <ele>171.8</ele>
        <time>2015-04-05T11:39:50Z</time>
      </trkpt>
      <trkpt lat="43.9503" lon="2.4084">
        <ele>172.2</ele>
        <time>2015-04-05T11:39:52Z</time>
      </trkpt>
      <trkpt lat="43.95037" lon="2.40848">
        <ele>172.5</ele>
        <time>2015-04-05T11:39:54Z</time>
      </trkpt>
      <trkpt lat="43.95045" lon="2.40857">
        <ele>172.9</ele>
        <time>2015-04-05T11:39:56Z</time>
      </trkpt>
      <trkpt lat="43.95052" lon="2.40866">
        <ele>173.2</ele>
        <time>2015-04-05T11:39:58Z</time>
      </trkpt>
      <trkpt lat="43.95063" lon="2.40877">
        <ele>173.5</ele>
        <time>2015-04-05T11:40:01Z</time>
      </trkpt>
      <trkpt lat="43.9507" lon="2.40886">
        <ele>173.9</ele>
        <time>2015-04-05T11:40:03Z</time>
      </trkpt>
      <trkpt lat="43.95076" lon="2.40896">
        <ele>174.2</ele>
        <time>2015-04-05T11:40:05Z</time>
      </trkpt>
      <trkpt lat="43.95086" lon="2.40906">
        <ele>173.7</ele>
        <time>2015-04-05T11:40:08Z</time>
      </trkpt>
      <trkpt lat="43.95095" lon="2.40917">
        <ele>173.4</ele>
        <time>2015-04-05T11:40:11Z</time>
      </trkpt>
      <trkpt lat="43.95101" lon="2.40927">
        <ele>173.5</ele>
        <time>2015-04-05T11:40:13Z</time>
      </trkpt>
      <trkpt lat="43.95107" lon="2.40938">
        <ele>173.5</ele>
        <time>2015-04-05T11:40:15Z</time>
      </trkpt>
      <trkpt lat="43.95113" lon="2.40949">
        <ele>173.6</ele>
        <time>2015-04-05T11:40:17Z</time>
      </trkpt>
      <trkpt lat="43.95119" lon="2.40961">
        <ele>173.7</ele>
        <time>2015-04-05T11:40:19Z</time>
      </trkpt>
      <trkpt lat="43.95125" lon="2.40973">
        <ele>173.8</ele>
        <time>2015-04-05T11:40:21Z</time>
      </trkpt>
      <trkpt lat="43.95132" lon="2.40984">
        <ele>173.6</ele>
        <time>2015-04-05T11:40:23Z</time>
      </trkpt>
      <trkpt lat="43.95139" lon="2.40996">
        <ele>173.7</ele>
        <time>2015-04-05T11:40:25Z</time>
      </trkpt>
      <trkpt lat="43.95147" lon="2.41008">
        <ele>173.7</ele>
        <time>2015-04-05T11:40:27Z</time>
      </trkpt>
      <trkpt lat="43.95154" lon="2.41021">
        <ele>173.5</ele>
        <time>2015-04-05T11:40:29Z</time>
      </trkpt>
      <trkpt lat="43.95159" lon="2.41034">
        <ele>173.2</ele>
        <time>2015-04-05T11:40:31Z</time>
      </trkpt>
      <trkpt lat="43.95165" lon="2.41047">
        <ele>172.7</ele>
        <time>2015-04-05T11:40:33Z</time>
      </trkpt>
      <trkpt lat="43.9517" lon="2.41059">
        <ele>172.6</ele>
        <time>2015-04-05T11:40:35Z</time>
      </trkpt>
      <trkpt lat="43.95176" lon="2.41071">
        <ele>172.1</ele>
        <time>2015-04-05T11:40:37Z</time>
      </trkpt>
      <trkpt lat="43.95181" lon="2.41083">
        <ele>172.2</ele>
        <time>2015-04-05T11:40:39Z</time>
      </trkpt>
      <trkpt lat="43.95186" lon="2.41094">
        <ele>171.9</ele>
        <time>2015-04-05T11:40:41Z</time>
      </trkpt>
      <trkpt lat="43.95192" lon="2.41106">
        <ele>171.6</ele>
        <time>2015-04-05T11:40:43Z</time>
      </trkpt>
      <trkpt lat="43.95197" lon="2.41119">
        <ele>171.1</ele>
        <time>2015-04-05T11:40:45Z</time>
      </trkpt>
      <trkpt lat="43.95201" lon="2.41132">
        <ele>170.8</ele>
        <time>2015-04-05T11:40:47Z</time>
      </trkpt>
      <trkpt lat="43.95206" lon="2.41145">
        <ele>171.9</ele>
        <time>2015-04-05T11:40:49Z</time>
      </trkpt>
      <trkpt lat="43.95211" lon="2.41158">
        <ele>171.9</ele>
        <time>2015-04-05T11:40:51Z</time>
      </trkpt>
      <trkpt lat="43.95214" lon="2.41172">
        <ele>171.5</ele>
        <time>2015-04-05T11:40:53Z</time>
      </trkpt>
      <trkpt lat="43.95219" lon="2.41185">
        <ele>171.6</ele>
        <time>2015-04-05T11:40:55Z</time>
      </trkpt>
      <trkpt lat="43.95223" lon="2.41198">
        <ele>171.2</ele>
        <time>2015-04-05T11:40:57Z</time>
      </trkpt>
      <trkpt lat="43.95227" lon="2.41211">
        <ele>170.8</ele>
        <time>2015-04-05T11:40:59Z</time>
      </trkpt>
      <trkpt lat="43.9523" lon="2.41222">
        <ele>170.9</ele>
        <time>2015-04-05T11:41:01Z</time>
      </trkpt>
      <trkpt lat="43.95233" lon="2.41235">
        <ele>171</ele>
        <time>2015-04-05T11:41:03Z</time>
      </trkpt>
      <trkpt lat="43.95235" lon="2.41247">
        <ele>171.1</ele>
        <time>2015-04-05T11:41:05Z</time>
      </trkpt>
      <trkpt lat="43.95238" lon="2.41262">
        <ele>171.2</ele>
        <time>2015-04-05T11:41:07Z</time>
      </trkpt>
      <trkpt lat="43.9524" lon="2.41276">
        <ele>172</ele>
        <time>2015-04-05T11:41:09Z</time>
      </trkpt>
      <trkpt lat="43.95243" lon="2.4129">
        <ele>171.8</ele>
        <time>2015-04-05T11:41:11Z</time>
      </trkpt>
      <trkpt lat="43.95246" lon="2.41305">
        <ele>171.8</ele>
        <time>2015-04-05T11:41:13Z</time>
      </trkpt>
      <trkpt lat="43.9525" lon="2.41318">
        <ele>171.6</ele>
        <time>2015-04-05T11:41:15Z</time>
      </trkpt>
      <trkpt lat="43.95254" lon="2.41331">
        <ele>171</ele>
        <time>2015-04-05T11:41:17Z</time>
      </trkpt>
      <trkpt lat="43.95257" lon="2.41344">
        <ele>171.4</ele>
        <time>2015-04-05T11:41:19Z</time>
      </trkpt>
      <trkpt lat="43.95259" lon="2.41358">
        <ele>171</ele>
        <time>2015-04-05T11:41:21Z</time>
      </trkpt>
      <trkpt lat="43.95262" lon="2.41371">
        <ele>170.8</ele>
        <time>2015-04-05T11:41:23Z</time>
      </trkpt>
      <trkpt lat="43.95264" lon="2.41385">
        <ele>170.7</ele>
        <time>2015-04-05T11:41:25Z</time>
      </trkpt>
      <trkpt lat="43.95267" lon="2.41398">
        <ele>170.8</ele>
        <time>2015-04-05T11:41:27Z</time>
      </trkpt>
      <trkpt lat="43.95269" lon="2.41412">
        <ele>171</ele>
        <time>2015-04-05T11:41:29Z</time>
      </trkpt>
      <trkpt lat="43.95271" lon="2.41425">
        <ele>171.7</ele>
        <time>2015-04-05T11:41:31Z</time>
      </trkpt>
      <trkpt lat="43.95272" lon="2.41438">
        <ele>171.8</ele>
        <time>2015-04-05T11:41:33Z</time>
      </trkpt>
      <trkpt lat="43.95274" lon="2.41456">
        <ele>171.8</ele>
        <time>2015-04-05T11:41:36Z</time>
      </trkpt>
      <trkpt lat="43.95274" lon="2.41469">
        <ele>172</ele>
        <time>2015-04-05T11:41:38Z</time>
      </trkpt>
      <trkpt lat="43.95273" lon="2.41482">
        <ele>172.1</ele>
        <time>2015-04-05T11:41:40Z</time>
      </trkpt>
      <trkpt lat="43.95273" lon="2.41494">
        <ele>172.2</ele>
        <time>2015-04-05T11:41:42Z</time>
      </trkpt>
      <trkpt lat="43.95272" lon="2.41507">
        <ele>172.4</ele>
        <time>2015-04-05T11:41:44Z</time>
      </trkpt>
      <trkpt lat="43.95271" lon="2.4152">
        <ele>172.5</ele>
        <time>2015-04-05T11:41:46Z</time>
      </trkpt>
      <trkpt lat="43.9527" lon="2.41533">
        <ele>172.6</ele>
        <time>2015-04-05T11:41:48Z</time>
      </trkpt>
      <trkpt lat="43.95269" lon="2.41546">
        <ele>172.9</ele>
        <time>2015-04-05T11:41:50Z</time>
      </trkpt>
      <trkpt lat="43.95267" lon="2.41559">
        <ele>172.9</ele>
        <time>2015-04-05T11:41:52Z</time>
      </trkpt>
      <trkpt lat="43.95266" lon="2.41573">
        <ele>173.2</ele>
        <time>2015-04-05T11:41:54Z</time>
      </trkpt>
      <trkpt lat="43.95264" lon="2.41585">
        <ele>173.3</ele>
        <time>2015-04-05T11:41:56Z</time>
      </trkpt>
      <trkpt lat="43.95263" lon="2.41599">
        <ele>173.4</ele>
        <time>2015-04-05T11:41:58Z</time>
      </trkpt>
      <trkpt lat="43.9526" lon="2.41614">
        <ele>173.5</ele>
        <time>2015-04-05T11:42:00Z</time>
      </trkpt>
      <trkpt lat="43.95257" lon="2.41626">
        <ele>173.8</ele>
        <time>2015-04-05T11:42:02Z</time>
      </trkpt>
      <trkpt lat="43.95252" lon="2.41637">
        <ele>173.9</ele>
        <time>2015-04-05T11:42:04Z</time>
      </trkpt>
      <trkpt lat="43.95247" lon="2.4165">
        <ele>173.8</ele>
        <time>2015-04-05T11:42:06Z</time>
      </trkpt>
      <trkpt lat="43.95241" lon="2.41662">
        <ele>173.8</ele>
        <time>2015-04-05T11:42:08Z</time>
      </trkpt>
      <trkpt lat="43.95236" lon="2.41674">
        <ele>173.9</ele>
        <time>2015-04-05T11:42:10Z</time>
      </trkpt>
      <trkpt lat="43.9523" lon="2.41685">
        <ele>173.8</ele>
        <time>2015-04-05T11:42:12Z</time>
      </trkpt>
      <trkpt lat="43.95222" lon="2.417">
        <ele>173.5</ele>
        <time>2015-04-05T11:42:15Z</time>
      </trkpt>
      <trkpt lat="43.95215" lon="2.41709">
        <ele>173.7</ele>
        <time>2015-04-05T11:42:17Z</time>
      </trkpt>
      <trkpt lat="43.95209" lon="2.41721">
        <ele>174</ele>
        <time>2015-04-05T11:42:19Z</time>
      </trkpt>
      <trkpt lat="43.95203" lon="2.41732">
        <ele>174</ele>
        <time>2015-04-05T11:42:21Z</time>
      </trkpt>
      <trkpt lat="43.95197" lon="2.41743">
        <ele>174</ele>
        <time>2015-04-05T11:42:23Z</time>
      </trkpt>
      <trkpt lat="43.9519" lon="2.41753">
        <ele>173.7</ele>
        <time>2015-04-05T11:42:25Z</time>
      </trkpt>
      <trkpt lat="43.95184" lon="2.41764">
        <ele>173.4</ele>
        <time>2015-04-05T11:42:27Z</time>
      </trkpt>
      <trkpt lat="43.95178" lon="2.41776">
        <ele>173.3</ele>
        <time>2015-04-05T11:42:29Z</time>
      </trkpt>
      <trkpt lat="43.9517" lon="2.41787">
        <ele>173.3</ele>
        <time>2015-04-05T11:42:31Z</time>
      </trkpt>
      <trkpt lat="43.95162" lon="2.41795">
        <ele>173.4</ele>
        <time>2015-04-05T11:42:33Z</time>
      </trkpt>
      <trkpt lat="43.95154" lon="2.41803">
        <ele>173.4</ele>
        <time>2015-04-05T11:42:35Z</time>
      </trkpt>
      <trkpt lat="43.95147" lon="2.41809">
        <ele>173.1</ele>
        <time>2015-04-05T11:42:37Z</time>
      </trkpt>
      <trkpt lat="43.95135" lon="2.4182">
        <ele>172.8</ele>
        <time>2015-04-05T11:42:40Z</time>
      </trkpt>
      <trkpt lat="43.95128" lon="2.41826">
        <ele>172.5</ele>
        <time>2015-04-05T11:42:42Z</time>
      </trkpt>
      <trkpt lat="43.95116" lon="2.41836">
        <ele>171.5</ele>
        <time>2015-04-05T11:42:45Z</time>
      </trkpt>
      <trkpt lat="43.95106" lon="2.41846">
        <ele>171</ele>
        <time>2015-04-05T11:42:48Z</time>
      </trkpt>
      <trkpt lat="43.95096" lon="2.41853">
        <ele>171.1</ele>
        <time>2015-04-05T11:42:51Z</time>
      </trkpt>
      <trkpt lat="43.95085" lon="2.41861">
        <ele>171.1</ele>
        <time>2015-04-05T11:42:54Z</time>
      </trkpt>
      <trkpt lat="43.95074" lon="2.41869">
        <ele>171.1</ele>
        <time>2015-04-05T11:42:57Z</time>
      </trkpt>
      <trkpt lat="43.95063" lon="2.41876">
        <ele>171.1</ele>
        <time>2015-04-05T11:43:00Z</time>
      </trkpt>
      <trkpt lat="43.95052" lon="2.41885">
        <ele>170.8</ele>
        <time>2015-04-05T11:43:03Z</time>
      </trkpt>
      <trkpt lat="43.9504" lon="2.41894">
        <ele>170.4</ele>
        <time>2015-04-05T11:43:06Z</time>
      </trkpt>
      <trkpt lat="43.95029" lon="2.41903">
        <ele>170</ele>
        <time>2015-04-05T11:43:09Z</time>
      </trkpt>
      <trkpt lat="43.95018" lon="2.41912">
        <ele>169.7</ele>
        <time>2015-04-05T11:43:12Z</time>
      </trkpt>
      <trkpt lat="43.95009" lon="2.41922">
        <ele>169.5</ele>
        <time>2015-04-05T11:43:15Z</time>
      </trkpt>
      <trkpt lat="43.94999" lon="2.41933">
        <ele>169.3</ele>
        <time>2015-04-05T11:43:18Z</time>
      </trkpt>
      <trkpt lat="43.94993" lon="2.41945">
        <ele>169.3</ele>
        <time>2015-04-05T11:43:21Z</time>
      </trkpt>
      <trkpt lat="43.94983" lon="2.41955">
        <ele>169</ele>
        <time>2015-04-05T11:43:24Z</time>
      </trkpt>
      <trkpt lat="43.94974" lon="2.41966">
        <ele>168.8</ele>
        <time>2015-04-05T11:43:27Z</time>
      </trkpt>
      <trkpt lat="43.94967" lon="2.41979">
        <ele>168.7</ele>
        <time>2015-04-05T11:43:30Z</time>
      </trkpt>
      <trkpt lat="43.94962" lon="2.41989">
        <ele>168.7</ele>
        <time>2015-04-05T11:43:32Z</time>
      </trkpt>
      <trkpt lat="43.94959" lon="2.42004">
        <ele>168.7</ele>
        <time>2015-04-05T11:43:35Z</time>
      </trkpt>
      <trkpt lat="43.94956" lon="2.42021">
        <ele>168.7</ele>
        <time>2015-04-05T11:43:38Z</time>
      </trkpt>
      <trkpt lat="43.94955" lon="2.42038">
        <ele>168.6</ele>
        <time>2015-04-05T11:43:41Z</time>
      </trkpt>
      <trkpt lat="43.94954" lon="2.42056">
        <ele>168.5</ele>
        <time>2015-04-05T11:43:44Z</time>
      </trkpt>
      <trkpt lat="43.94955" lon="2.42075">
        <ele>168.6</ele>
        <time>2015-04-05T11:43:47Z</time>
      </trkpt>
      <trkpt lat="43.94956" lon="2.42088">
        <ele>168.7</ele>
        <time>2015-04-05T11:43:49Z</time>
      </trkpt>
      <trkpt lat="43.94957" lon="2.42101">
        <ele>168.7</ele>
        <time>2015-04-05T11:43:51Z</time>
      </trkpt>
      <trkpt lat="43.94956" lon="2.42116">
        <ele>168.8</ele>
        <time>2015-04-05T11:43:53Z</time>
      </trkpt>
      <trkpt lat="43.94955" lon="2.42135">
        <ele>168.6</ele>
        <time>2015-04-05T11:43:55Z</time>
      </trkpt>
      <trkpt lat="43.94951" lon="2.42149">
        <ele>168.7</ele>
        <time>2015-04-05T11:43:57Z</time>
      </trkpt>
      <trkpt lat="43.94948" lon="2.42164">
        <ele>168.7</ele>
        <time>2015-04-05T11:43:59Z</time>
      </trkpt>
      <trkpt lat="43.94945" lon="2.42178">
        <ele>168.9</ele>
        <time>2015-04-05T11:44:01Z</time>
      </trkpt>
      <trkpt lat="43.94942" lon="2.42193">
        <ele>169.1</ele>
        <time>2015-04-05T11:44:03Z</time>
      </trkpt>
      <trkpt lat="43.94935" lon="2.42203">
        <ele>169.6</ele>
        <time>2015-04-05T11:44:05Z</time>
      </trkpt>
      <trkpt lat="43.94934" lon="2.42221">
        <ele>169.9</ele>
        <time>2015-04-05T11:44:08Z</time>
      </trkpt>
      <trkpt lat="43.94918" lon="2.42225">
        <ele>171.3</ele>
        <time>2015-04-05T11:44:10Z</time>
      </trkpt>
      <trkpt lat="43.94911" lon="2.42235">
        <ele>172</ele>
        <time>2015-04-05T11:44:12Z</time>
      </trkpt>
      <trkpt lat="43.94903" lon="2.42241">
        <ele>172.4</ele>
        <time>2015-04-05T11:44:13Z</time>
      </trkpt>
      <trkpt lat="43.949" lon="2.42255">
        <ele>173.3</ele>
        <time>2015-04-05T11:44:15Z</time>
      </trkpt>
      <trkpt lat="43.94901" lon="2.42273">
        <ele>173.7</ele>
        <time>2015-04-05T11:44:17Z</time>
      </trkpt>
      <trkpt lat="43.94903" lon="2.4229">
        <ele>174.2</ele>
        <time>2015-04-05T11:44:19Z</time>
      </trkpt>
      <trkpt lat="43.94905" lon="2.42307">
        <ele>174.6</ele>
        <time>2015-04-05T11:44:21Z</time>
      </trkpt>
      <trkpt lat="43.94908" lon="2.42322">
        <ele>174.8</ele>
        <time>2015-04-05T11:44:23Z</time>
      </trkpt>
      <trkpt lat="43.9491" lon="2.42337">
        <ele>174.9</ele>
        <time>2015-04-05T11:44:25Z</time>
      </trkpt>
      <trkpt lat="43.94914" lon="2.42351">
        <ele>174.7</ele>
        <time>2015-04-05T11:44:27Z</time>
      </trkpt>
      <trkpt lat="43.94918" lon="2.42365">
        <ele>174.5</ele>
        <time>2015-04-05T11:44:29Z</time>
      </trkpt>
      <trkpt lat="43.94922" lon="2.42379">
        <ele>174.4</ele>
        <time>2015-04-05T11:44:31Z</time>
      </trkpt>
      <trkpt lat="43.94926" lon="2.42392">
        <ele>174</ele>
        <time>2015-04-05T11:44:33Z</time>
      </trkpt>
      <trkpt lat="43.94931" lon="2.42404">
        <ele>174</ele>
        <time>2015-04-05T11:44:35Z</time>
      </trkpt>
      <trkpt lat="43.94935" lon="2.42415">
        <ele>174.2</ele>
        <time>2015-04-05T11:44:37Z</time>
      </trkpt>
      <trkpt lat="43.94942" lon="2.4243">
        <ele>173.9</ele>
        <time>2015-04-05T11:44:40Z</time>
      </trkpt>
      <trkpt lat="43.94948" lon="2.42443">
        <ele>173.8</ele>
        <time>2015-04-05T11:44:43Z</time>
      </trkpt>
      <trkpt lat="43.94955" lon="2.42455">
        <ele>173.5</ele>
        <time>2015-04-05T11:44:46Z</time>
      </trkpt>
      <trkpt lat="43.94961" lon="2.42466">
        <ele>173.1</ele>
        <time>2015-04-05T11:44:49Z</time>
      </trkpt>
      <trkpt lat="43.94968" lon="2.42477">
        <ele>173</ele>
        <time>2015-04-05T11:44:52Z</time>
      </trkpt>
      <trkpt lat="43.94975" lon="2.42487">
        <ele>173.1</ele>
        <time>2015-04-05T11:44:55Z</time>
      </trkpt>
      <trkpt lat="43.94983" lon="2.42499">
        <ele>172.9</ele>
        <time>2015-04-05T11:44:59Z</time>
      </trkpt>
      <trkpt lat="43.94989" lon="2.42507">
        <ele>172.2</ele>
        <time>2015-04-05T11:45:03Z</time>
      </trkpt>
      <trkpt lat="43.94996" lon="2.42516">
        <ele>169</ele>
        <time>2015-04-05T11:46:48Z</time>
      </trkpt>
      <trkpt lat="43.95006" lon="2.42526">
        <ele>169.2</ele>
        <time>2015-04-05T11:46:53Z</time>
      </trkpt>
      <trkpt lat="43.95017" lon="2.42536">
        <ele>169.7</ele>
        <time>2015-04-05T11:46:56Z</time>
      </trkpt>
      <trkpt lat="43.95025" lon="2.42543">
        <ele>169.9</ele>
        <time>2015-04-05T11:46:58Z</time>
      </trkpt>
      <trkpt lat="43.95033" lon="2.4255">
        <ele>170.2</ele>
        <time>2015-04-05T11:47:00Z</time>
      </trkpt>
      <trkpt lat="43.95045" lon="2.4256">
        <ele>170.3</ele>
        <time>2015-04-05T11:47:03Z</time>
      </trkpt>
      <trkpt lat="43.95053" lon="2.42567">
        <ele>170.6</ele>
        <time>2015-04-05T11:47:05Z</time>
      </trkpt>
      <trkpt lat="43.9506" lon="2.42574">
        <ele>171</ele>
        <time>2015-04-05T11:47:07Z</time>
      </trkpt>
      <trkpt lat="43.95068" lon="2.42582">
        <ele>171.3</ele>
        <time>2015-04-05T11:47:09Z</time>
      </trkpt>
      <trkpt lat="43.95076" lon="2.42589">
        <ele>171.5</ele>
        <time>2015-04-05T11:47:11Z</time>
      </trkpt>
      <trkpt lat="43.95084" lon="2.42596">
        <ele>171.9</ele>
        <time>2015-04-05T11:47:13Z</time>
      </trkpt>
      <trkpt lat="43.95092" lon="2.42603">
        <ele>172.4</ele>
        <time>2015-04-05T11:47:15Z</time>
      </trkpt>
      <trkpt lat="43.95102" lon="2.4261">
        <ele>172.7</ele>
        <time>2015-04-05T11:47:17Z</time>
      </trkpt>
      <trkpt lat="43.95113" lon="2.42616">
        <ele>172.8</ele>
        <time>2015-04-05T11:47:19Z</time>
      </trkpt>
      <trkpt lat="43.95123" lon="2.42622">
        <ele>173.3</ele>
        <time>2015-04-05T11:47:21Z</time>
      </trkpt>
      <trkpt lat="43.95132" lon="2.42629">
        <ele>173.5</ele>
        <time>2015-04-05T11:47:23Z</time>
      </trkpt>
      <trkpt lat="43.95141" lon="2.42635">
        <ele>174.1</ele>
        <time>2015-04-05T11:47:25Z</time>
      </trkpt>
      <trkpt lat="43.95149" lon="2.4264">
        <ele>174.2</ele>
        <time>2015-04-05T11:47:27Z</time>
      </trkpt>
      <trkpt lat="43.95157" lon="2.42646">
        <ele>174.5</ele>
        <time>2015-04-05T11:47:29Z</time>
      </trkpt>
      <trkpt lat="43.95165" lon="2.42652">
        <ele>174.8</ele>
        <time>2015-04-05T11:47:31Z</time>
      </trkpt>
      <trkpt lat="43.95173" lon="2.42658">
        <ele>175</ele>
        <time>2015-04-05T11:47:33Z</time>
      </trkpt>
      <trkpt lat="43.95182" lon="2.42664">
        <ele>175.4</ele>
        <time>2015-04-05T11:47:35Z</time>
      </trkpt>
      <trkpt lat="43.9519" lon="2.42668">
        <ele>175.3</ele>
        <time>2015-04-05T11:47:37Z</time>
      </trkpt>
      <trkpt lat="43.95199" lon="2.42674">
        <ele>175.8</ele>
        <time>2015-04-05T11:47:39Z</time>
      </trkpt>
      <trkpt lat="43.95207" lon="2.4268">
        <ele>176.1</ele>
        <time>2015-04-05T11:47:41Z</time>
      </trkpt>
      <trkpt lat="43.95215" lon="2.42685">
        <ele>176.4</ele>
        <time>2015-04-05T11:47:43Z</time>
      </trkpt>
      <trkpt lat="43.95223" lon="2.42691">
        <ele>176.9</ele>
        <time>2015-04-05T11:47:45Z</time>
      </trkpt>
      <trkpt lat="43.95231" lon="2.42698">
        <ele>177.3</ele>
        <time>2015-04-05T11:47:47Z</time>
      </trkpt>
      <trkpt lat="43.95244" lon="2.42707">
        <ele>178.7</ele>
        <time>2015-04-05T11:47:50Z</time>
      </trkpt>
      <trkpt lat="43.95252" lon="2.42713">
        <ele>179.8</ele>
        <time>2015-04-05T11:47:52Z</time>
      </trkpt>
      <trkpt lat="43.95264" lon="2.42722">
        <ele>181.1</ele>
        <time>2015-04-05T11:47:55Z</time>
      </trkpt>
      <trkpt lat="43.95272" lon="2.42729">
        <ele>181.4</ele>
        <time>2015-04-05T11:47:57Z</time>
      </trkpt>
      <trkpt lat="43.95281" lon="2.42735">
        <ele>181.6</ele>
        <time>2015-04-05T11:47:59Z</time>
      </trkpt>
      <trkpt lat="43.9529" lon="2.42741">
        <ele>181.8</ele>
        <time>2015-04-05T11:48:01Z</time>
      </trkpt>
      <trkpt lat="43.95299" lon="2.42747">
        <ele>182.3</ele>
        <time>2015-04-05T11:48:03Z</time>
      </trkpt>
      <trkpt lat="43.95307" lon="2.42753">
        <ele>182.6</ele>
        <time>2015-04-05T11:48:05Z</time>
      </trkpt>
      <trkpt lat="43.95316" lon="2.4276">
        <ele>183</ele>
        <time>2015-04-05T11:48:07Z</time>
      </trkpt>
      <trkpt lat="43.95324" lon="2.42767">
        <ele>183.4</ele>
        <time>2015-04-05T11:48:09Z</time>
      </trkpt>
      <trkpt lat="43.95333" lon="2.42773">
        <ele>183.5</ele>
        <time>2015-04-05T11:48:11Z</time>
      </trkpt>
      <trkpt lat="43.95342" lon="2.42778">
        <ele>183.5</ele>
        <time>2015-04-05T11:48:13Z</time>
      </trkpt>
      <trkpt lat="43.95351" lon="2.42784">
        <ele>183.5</ele>
        <time>2015-04-05T11:48:15Z</time>
      </trkpt>
      <trkpt lat="43.9536" lon="2.4279">
        <ele>183.8</ele>
        <time>2015-04-05T11:48:17Z</time>
      </trkpt>
      <trkpt lat="43.95369" lon="2.42798">
        <ele>184.1</ele>
        <time>2015-04-05T11:48:19Z</time>
      </trkpt>
      <trkpt lat="43.95378" lon="2.42806">
        <ele>184.3</ele>
        <time>2015-04-05T11:48:21Z</time>
      </trkpt>
      <trkpt lat="43.95387" lon="2.42815">
        <ele>184.5</ele>
        <time>2015-04-05T11:48:23Z</time>
      </trkpt>
      <trkpt lat="43.95396" lon="2.42821">
        <ele>184.3</ele>
        <time>2015-04-05T11:48:25Z</time>
      </trkpt>
      <trkpt lat="43.95405" lon="2.42828">
        <ele>184.4</ele>
        <time>2015-04-05T11:48:27Z</time>
      </trkpt>
      <trkpt lat="43.95412" lon="2.42836">
        <ele>184.6</ele>
        <time>2015-04-05T11:48:29Z</time>
      </trkpt>
      <trkpt lat="43.9542" lon="2.42843">
        <ele>184.4</ele>
        <time>2015-04-05T11:48:31Z</time>
      </trkpt>
      <trkpt lat="43.95427" lon="2.42854">
        <ele>185</ele>
        <time>2015-04-05T11:48:33Z</time>
      </trkpt>
      <trkpt lat="43.95434" lon="2.42865">
        <ele>185</ele>
        <time>2015-04-05T11:48:35Z</time>
      </trkpt>
      <trkpt lat="43.95442" lon="2.42874">
        <ele>184.4</ele>
        <time>2015-04-05T11:48:37Z</time>
      </trkpt>
      <trkpt lat="43.9545" lon="2.42882">
        <ele>183.8</ele>
        <time>2015-04-05T11:48:39Z</time>
      </trkpt>
      <trkpt lat="43.95457" lon="2.42891">
        <ele>183</ele>
        <time>2015-04-05T11:48:41Z</time>
      </trkpt>
      <trkpt lat="43.95464" lon="2.429">
        <ele>182.4</ele>
        <time>2015-04-05T11:48:43Z</time>
      </trkpt>
      <trkpt lat="43.95471" lon="2.4291">
        <ele>181.3</ele>
        <time>2015-04-05T11:48:45Z</time>
      </trkpt>
      <trkpt lat="43.95477" lon="2.42921">
        <ele>180.8</ele>
        <time>2015-04-05T11:48:47Z</time>
      </trkpt>
      <trkpt lat="43.95483" lon="2.42931">
        <ele>180.4</ele>
        <time>2015-04-05T11:48:49Z</time>
      </trkpt>
      <trkpt lat="43.95488" lon="2.42942">
        <ele>180.1</ele>
        <time>2015-04-05T11:48:51Z</time>
      </trkpt>
      <trkpt lat="43.95496" lon="2.42953">
        <ele>180.1</ele>
        <time>2015-04-05T11:48:53Z</time>
      </trkpt>
      <trkpt lat="43.95501" lon="2.42965">
        <ele>180</ele>
        <time>2015-04-05T11:48:55Z</time>
      </trkpt>
      <trkpt lat="43.95505" lon="2.42976">
        <ele>179.9</ele>
        <time>2015-04-05T11:48:57Z</time>
      </trkpt>
      <trkpt lat="43.9551" lon="2.42987">
        <ele>179.9</ele>
        <time>2015-04-05T11:48:59Z</time>
      </trkpt>
      <trkpt lat="43.95513" lon="2.42998">
        <ele>180.2</ele>
        <time>2015-04-05T11:49:01Z</time>
      </trkpt>
      <trkpt lat="43.95516" lon="2.43011">
        <ele>180.2</ele>
        <time>2015-04-05T11:49:03Z</time>
      </trkpt>
      <trkpt lat="43.95521" lon="2.43023">
        <ele>179.9</ele>
        <time>2015-04-05T11:49:05Z</time>
      </trkpt>
      <trkpt lat="43.95524" lon="2.43036">
        <ele>179.9</ele>
        <time>2015-04-05T11:49:07Z</time>
      </trkpt>
      <trkpt lat="43.95528" lon="2.4305">
        <ele>179.7</ele>
        <time>2015-04-05T11:49:09Z</time>
      </trkpt>
      <trkpt lat="43.9553" lon="2.43063">
        <ele>179.4</ele>
        <time>2015-04-05T11:49:11Z</time>
      </trkpt>
      <trkpt lat="43.95533" lon="2.43076">
        <ele>178.9</ele>
        <time>2015-04-05T11:49:13Z</time>
      </trkpt>
      <trkpt lat="43.95536" lon="2.43089">
        <ele>178.6</ele>
        <time>2015-04-05T11:49:15Z</time>
      </trkpt>
      <trkpt lat="43.95538" lon="2.43104">
        <ele>178.5</ele>
        <time>2015-04-05T11:49:17Z</time>
      </trkpt>
      <trkpt lat="43.95539" lon="2.43117">
        <ele>178.1</ele>
        <time>2015-04-05T11:49:19Z</time>
      </trkpt>
      <trkpt lat="43.95541" lon="2.43131">
        <ele>178</ele>
        <time>2015-04-05T11:49:21Z</time>
      </trkpt>
      <trkpt lat="43.95542" lon="2.43143">
        <ele>177.9</ele>
        <time>2015-04-05T11:49:23Z</time>
      </trkpt>
      <trkpt lat="43.95544" lon="2.43157">
        <ele>177.7</ele>
        <time>2015-04-05T11:49:25Z</time>
      </trkpt>
      <trkpt lat="43.95544" lon="2.43172">
        <ele>177.7</ele>
        <time>2015-04-05T11:49:27Z</time>
      </trkpt>
      <trkpt lat="43.95544" lon="2.43187">
        <ele>177.6</ele>
        <time>2015-04-05T11:49:29Z</time>
      </trkpt>
      <trkpt lat="43.95544" lon="2.43202">
        <ele>177.1</ele>
        <time>2015-04-05T11:49:31Z</time>
      </trkpt>
      <trkpt lat="43.95542" lon="2.43215">
        <ele>176.8</ele>
        <time>2015-04-05T11:49:33Z</time>
      </trkpt>
      <trkpt lat="43.9554" lon="2.43229">
        <ele>176.3</ele>
        <time>2015-04-05T11:49:35Z</time>
      </trkpt>
      <trkpt lat="43.95537" lon="2.43242">
        <ele>176</ele>
        <time>2015-04-05T11:49:37Z</time>
      </trkpt>
      <trkpt lat="43.95535" lon="2.43256">
        <ele>175.7</ele>
        <time>2015-04-05T11:49:39Z</time>
      </trkpt>
      <trkpt lat="43.95532" lon="2.43269">
        <ele>175.7</ele>
        <time>2015-04-05T11:49:41Z</time>
      </trkpt>
      <trkpt lat="43.95528" lon="2.43282">
        <ele>175.6</ele>
        <time>2015-04-05T11:49:43Z</time>
      </trkpt>
      <trkpt lat="43.95524" lon="2.43296">
        <ele>175.3</ele>
        <time>2015-04-05T11:49:45Z</time>
      </trkpt>
      <trkpt lat="43.9552" lon="2.43309">
        <ele>175.3</ele>
        <time>2015-04-05T11:49:47Z</time>
      </trkpt>
      <trkpt lat="43.95516" lon="2.43322">
        <ele>175.4</ele>
        <time>2015-04-05T11:49:49Z</time>
      </trkpt>
      <trkpt lat="43.95511" lon="2.43335">
        <ele>175.2</ele>
        <time>2015-04-05T11:49:51Z</time>
      </trkpt>
      <trkpt lat="43.95506" lon="2.43351">
        <ele>175</ele>
        <time>2015-04-05T11:49:53Z</time>
      </trkpt>
      <trkpt lat="43.95501" lon="2.43365">
        <ele>175.2</ele>
        <time>2015-04-05T11:49:55Z</time>
      </trkpt>
      <trkpt lat="43.95496" lon="2.43379">
        <ele>175.2</ele>
        <time>2015-04-05T11:49:57Z</time>
      </trkpt>
      <trkpt lat="43.9549" lon="2.43391">
        <ele>175</ele>
        <time>2015-04-05T11:49:59Z</time>
      </trkpt>
      <trkpt lat="43.95484" lon="2.43403">
        <ele>175</ele>
        <time>2015-04-05T11:50:01Z</time>
      </trkpt>
      <trkpt lat="43.95478" lon="2.43414">
        <ele>175.1</ele>
        <time>2015-04-05T11:50:03Z</time>
      </trkpt>
      <trkpt lat="43.95471" lon="2.43425">
        <ele>175.4</ele>
        <time>2015-04-05T11:50:05Z</time>
      </trkpt>
      <trkpt lat="43.95464" lon="2.43436">
        <ele>175.6</ele>
        <time>2015-04-05T11:50:07Z</time>
      </trkpt>
      <trkpt lat="43.95456" lon="2.43446">
        <ele>175.4</ele>
        <time>2015-04-05T11:50:09Z</time>
      </trkpt>
      <trkpt lat="43.95448" lon="2.43457">
        <ele>175.4</ele>
        <time>2015-04-05T11:50:11Z</time>
      </trkpt>
      <trkpt lat="43.9544" lon="2.43467">
        <ele>175.1</ele>
        <time>2015-04-05T11:50:13Z</time>
      </trkpt>
      <trkpt lat="43.95431" lon="2.43476">
        <ele>175</ele>
        <time>2015-04-05T11:50:15Z</time>
      </trkpt>
      <trkpt lat="43.95422" lon="2.43484">
        <ele>174.9</ele>
        <time>2015-04-05T11:50:17Z</time>
      </trkpt>
      <trkpt lat="43.95413" lon="2.43492">
        <ele>174.7</ele>
        <time>2015-04-05T11:50:19Z</time>
      </trkpt>
      <trkpt lat="43.95403" lon="2.43499">
        <ele>174.4</ele>
        <time>2015-04-05T11:50:21Z</time>
      </trkpt>
      <trkpt lat="43.95394" lon="2.43506">
        <ele>174.4</ele>
        <time>2015-04-05T11:50:23Z</time>
      </trkpt>
      <trkpt lat="43.95384" lon="2.43514">
        <ele>174</ele>
        <time>2015-04-05T11:50:25Z</time>
      </trkpt>
      <trkpt lat="43.95374" lon="2.43521">
        <ele>173.7</ele>
        <time>2015-04-05T11:50:27Z</time>
      </trkpt>
      <trkpt lat="43.95365" lon="2.43528">
        <ele>173.5</ele>
        <time>2015-04-05T11:50:29Z</time>
      </trkpt>
      <trkpt lat="43.95356" lon="2.43536">
        <ele>173.3</ele>
        <time>2015-04-05T11:50:31Z</time>
      </trkpt>
      <trkpt lat="43.95347" lon="2.43542">
        <ele>173.3</ele>
        <time>2015-04-05T11:50:33Z</time>
      </trkpt>
      <trkpt lat="43.95338" lon="2.4355">
        <ele>173</ele>
        <time>2015-04-05T11:50:35Z</time>
      </trkpt>
      <trkpt lat="43.95328" lon="2.43557">
        <ele>172.9</ele>
        <time>2015-04-05T11:50:37Z</time>
      </trkpt>
      <trkpt lat="43.9532" lon="2.43564">
        <ele>172.6</ele>
        <time>2015-04-05T11:50:39Z</time>
      </trkpt>
      <trkpt lat="43.95311" lon="2.43572">
        <ele>172.1</ele>
        <time>2015-04-05T11:50:41Z</time>
      </trkpt>
      <trkpt lat="43.95303" lon="2.43581">
        <ele>171.7</ele>
        <time>2015-04-05T11:50:43Z</time>
      </trkpt>
      <trkpt lat="43.95295" lon="2.4359">
        <ele>171.4</ele>
        <time>2015-04-05T11:50:45Z</time>
      </trkpt>
      <trkpt lat="43.95287" lon="2.43598">
        <ele>171.1</ele>
        <time>2015-04-05T11:50:47Z</time>
      </trkpt>
      <trkpt lat="43.95277" lon="2.43606">
        <ele>171</ele>
        <time>2015-04-05T11:50:49Z</time>
      </trkpt>
      <trkpt lat="43.95269" lon="2.43617">
        <ele>170.8</ele>
        <time>2015-04-05T11:50:51Z</time>
      </trkpt>
      <trkpt lat="43.95261" lon="2.43627">
        <ele>170.7</ele>
        <time>2015-04-05T11:50:53Z</time>
      </trkpt>
      <trkpt lat="43.95252" lon="2.43638">
        <ele>170.4</ele>
        <time>2015-04-05T11:50:55Z</time>
      </trkpt>
      <trkpt lat="43.95245" lon="2.43651">
        <ele>170.1</ele>
        <time>2015-04-05T11:50:57Z</time>
      </trkpt>
      <trkpt lat="43.95238" lon="2.43663">
        <ele>170.1</ele>
        <time>2015-04-05T11:50:59Z</time>
      </trkpt>
      <trkpt lat="43.95231" lon="2.43674">
        <ele>169.9</ele>
        <time>2015-04-05T11:51:01Z</time>
      </trkpt>
      <trkpt lat="43.95224" lon="2.43686">
        <ele>169.6</ele>
        <time>2015-04-05T11:51:03Z</time>
      </trkpt>
      <trkpt lat="43.95218" lon="2.43698">
        <ele>169.3</ele>
        <time>2015-04-05T11:51:05Z</time>
      </trkpt>
      <trkpt lat="43.95211" lon="2.4371">
        <ele>169</ele>
        <time>2015-04-05T11:51:07Z</time>
      </trkpt>
      <trkpt lat="43.95206" lon="2.43722">
        <ele>168.8</ele>
        <time>2015-04-05T11:51:09Z</time>
      </trkpt>
      <trkpt lat="43.95201" lon="2.43734">
        <ele>168.6</ele>
        <time>2015-04-05T11:51:11Z</time>
      </trkpt>
      <trkpt lat="43.95195" lon="2.43747">
        <ele>168.5</ele>
        <time>2015-04-05T11:51:13Z</time>
      </trkpt>
      <trkpt lat="43.9519" lon="2.43759">
        <ele>168.3</ele>
        <time>2015-04-05T11:51:15Z</time>
      </trkpt>
      <trkpt lat="43.95184" lon="2.43771">
        <ele>168.1</ele>
        <time>2015-04-05T11:51:17Z</time>
      </trkpt>
      <trkpt lat="43.95179" lon="2.43784">
        <ele>167.8</ele>
        <time>2015-04-05T11:51:19Z</time>
      </trkpt>
      <trkpt lat="43.95173" lon="2.43796">
        <ele>167.6</ele>
        <time>2015-04-05T11:51:21Z</time>
      </trkpt>
      <trkpt lat="43.95169" lon="2.43809">
        <ele>167.6</ele>
        <time>2015-04-05T11:51:23Z</time>
      </trkpt>
      <trkpt lat="43.95165" lon="2.43822">
        <ele>167.5</ele>
        <time>2015-04-05T11:51:25Z</time>
      </trkpt>
      <trkpt lat="43.9516" lon="2.43834">
        <ele>167.7</ele>
        <time>2015-04-05T11:51:27Z</time>
      </trkpt>
      <trkpt lat="43.95156" lon="2.43847">
        <ele>167.9</ele>
        <time>2015-04-05T11:51:29Z</time>
      </trkpt>
      <trkpt lat="43.95151" lon="2.4386">
        <ele>168.1</ele>
        <time>2015-04-05T11:51:31Z</time>
      </trkpt>
      <trkpt lat="43.95146" lon="2.43872">
        <ele>168.3</ele>
        <time>2015-04-05T11:51:33Z</time>
      </trkpt>
      <trkpt lat="43.95141" lon="2.43885">
        <ele>168.3</ele>
        <time>2015-04-05T11:51:35Z</time>
      </trkpt>
      <trkpt lat="43.95136" lon="2.43897">
        <ele>168.3</ele>
        <time>2015-04-05T11:51:37Z</time>
      </trkpt>
      <trkpt lat="43.95132" lon="2.43909">
        <ele>168.3</ele>
        <time>2015-04-05T11:51:39Z</time>
      </trkpt>
      <trkpt lat="43.95127" lon="2.43922">
        <ele>168.4</ele>
        <time>2015-04-05T11:51:41Z</time>
      </trkpt>
      <trkpt lat="43.95123" lon="2.43933">
        <ele>168.2</ele>
        <time>2015-04-05T11:51:43Z</time>
      </trkpt>
      <trkpt lat="43.95117" lon="2.43946">
        <ele>168.5</ele>
        <time>2015-04-05T11:51:45Z</time>
      </trkpt>
      <trkpt lat="43.95111" lon="2.43959">
        <ele>168.7</ele>
        <time>2015-04-05T11:51:47Z</time>
      </trkpt>
      <trkpt lat="43.95108" lon="2.43971">
        <ele>169.1</ele>
        <time>2015-04-05T11:51:49Z</time>
      </trkpt>
      <trkpt lat="43.95102" lon="2.43983">
        <ele>169.3</ele>
        <time>2015-04-05T11:51:51Z</time>
      </trkpt>
      <trkpt lat="43.95097" lon="2.43995">
        <ele>169.4</ele>
        <time>2015-04-05T11:51:53Z</time>
      </trkpt>
      <trkpt lat="43.95091" lon="2.44006">
        <ele>170</ele>
        <time>2015-04-05T11:51:55Z</time>
      </trkpt>
      <trkpt lat="43.95086" lon="2.44018">
        <ele>170.5</ele>
        <time>2015-04-05T11:51:57Z</time>
      </trkpt>
      <trkpt lat="43.9508" lon="2.4403">
        <ele>171</ele>
        <time>2015-04-05T11:51:59Z</time>
      </trkpt>
      <trkpt lat="43.95074" lon="2.44041">
        <ele>170.9</ele>
        <time>2015-04-05T11:52:01Z</time>
      </trkpt>
      <trkpt lat="43.95069" lon="2.44054">
        <ele>170.9</ele>
        <time>2015-04-05T11:52:03Z</time>
      </trkpt>
      <trkpt lat="43.95065" lon="2.44065">
        <ele>171</ele>
        <time>2015-04-05T11:52:05Z</time>
      </trkpt>
      <trkpt lat="43.95062" lon="2.44079">
        <ele>171.3</ele>
        <time>2015-04-05T11:52:07Z</time>
      </trkpt>
      <trkpt lat="43.9506" lon="2.44096">
        <ele>171.7</ele>
        <time>2015-04-05T11:52:09Z</time>
      </trkpt>
      <trkpt lat="43.95059" lon="2.44114">
        <ele>172.2</ele>
        <time>2015-04-05T11:52:11Z</time>
      </trkpt>
      <trkpt lat="43.95058" lon="2.44131">
        <ele>172.7</ele>
        <time>2015-04-05T11:52:13Z</time>
      </trkpt>
      <trkpt lat="43.95056" lon="2.44147">
        <ele>173</ele>
        <time>2015-04-05T11:52:15Z</time>
      </trkpt>
      <trkpt lat="43.95056" lon="2.44163">
        <ele>173.4</ele>
        <time>2015-04-05T11:52:17Z</time>
      </trkpt>
      <trkpt lat="43.95057" lon="2.44183">
        <ele>173.8</ele>
        <time>2015-04-05T11:52:19Z</time>
      </trkpt>
      <trkpt lat="43.95057" lon="2.442">
        <ele>174.1</ele>
        <time>2015-04-05T11:52:21Z</time>
      </trkpt>
      <trkpt lat="43.95057" lon="2.44217">
        <ele>174.5</ele>
        <time>2015-04-05T11:52:23Z</time>
      </trkpt>
      <trkpt lat="43.95057" lon="2.44234">
        <ele>175.1</ele>
        <time>2015-04-05T11:52:25Z</time>
      </trkpt>
      <trkpt lat="43.95057" lon="2.4425">
        <ele>175.5</ele>
        <time>2015-04-05T11:52:27Z</time>
      </trkpt>
      <trkpt lat="43.95057" lon="2.4427">
        <ele>175.9</ele>
        <time>2015-04-05T11:52:29Z</time>
      </trkpt>
      <trkpt lat="43.95057" lon="2.44285">
        <ele>176.1</ele>
        <time>2015-04-05T11:52:31Z</time>
      </trkpt>
      <trkpt lat="43.95057" lon="2.443">
        <ele>176.2</ele>
        <time>2015-04-05T11:52:33Z</time>
      </trkpt>
      <trkpt lat="43.95059" lon="2.44315">
        <ele>176.4</ele>
        <time>2015-04-05T11:52:35Z</time>
      </trkpt>
      <trkpt lat="43.95059" lon="2.44328">
        <ele>176.6</ele>
        <time>2015-04-05T11:52:37Z</time>
      </trkpt>
      <trkpt lat="43.95061" lon="2.44343">
        <ele>176.6</ele>
        <time>2015-04-05T11:52:39Z</time>
      </trkpt>
      <trkpt lat="43.95063" lon="2.44357">
        <ele>176.6</ele>
        <time>2015-04-05T11:52:41Z</time>
      </trkpt>
      <trkpt lat="43.95066" lon="2.44372">
        <ele>176.4</ele>
        <time>2015-04-05T11:52:43Z</time>
      </trkpt>
      <trkpt lat="43.95069" lon="2.44389">
        <ele>176</ele>
        <time>2015-04-05T11:52:45Z</time>
      </trkpt>
      <trkpt lat="43.95073" lon="2.44404">
        <ele>175.6</ele>
        <time>2015-04-05T11:52:47Z</time>
      </trkpt>
      <trkpt lat="43.95076" lon="2.44419">
        <ele>175.2</ele>
        <time>2015-04-05T11:52:49Z</time>
      </trkpt>
      <trkpt lat="43.9508" lon="2.44435">
        <ele>175</ele>
        <time>2015-04-05T11:52:51Z</time>
      </trkpt>
      <trkpt lat="43.95083" lon="2.44451">
        <ele>175.9</ele>
        <time>2015-04-05T11:52:53Z</time>
      </trkpt>
      <trkpt lat="43.95088" lon="2.44467">
        <ele>176.3</ele>
        <time>2015-04-05T11:52:55Z</time>
      </trkpt>
      <trkpt lat="43.95092" lon="2.44482">
        <ele>176.9</ele>
        <time>2015-04-05T11:52:57Z</time>
      </trkpt>
      <trkpt lat="43.95097" lon="2.44498">
        <ele>177.1</ele>
        <time>2015-04-05T11:52:59Z</time>
      </trkpt>
      <trkpt lat="43.95102" lon="2.44514">
        <ele>177.2</ele>
        <time>2015-04-05T11:53:01Z</time>
      </trkpt>
      <trkpt lat="43.95106" lon="2.44528">
        <ele>177.3</ele>
        <time>2015-04-05T11:53:03Z</time>
      </trkpt>
      <trkpt lat="43.95111" lon="2.44543">
        <ele>177.6</ele>
        <time>2015-04-05T11:53:05Z</time>
      </trkpt>
      <trkpt lat="43.95116" lon="2.44556">
        <ele>177.9</ele>
        <time>2015-04-05T11:53:07Z</time>
      </trkpt>
      <trkpt lat="43.9512" lon="2.4457">
        <ele>178.1</ele>
        <time>2015-04-05T11:53:09Z</time>
      </trkpt>
      <trkpt lat="43.95124" lon="2.44583">
        <ele>178.1</ele>
        <time>2015-04-05T11:53:11Z</time>
      </trkpt>
      <trkpt lat="43.95128" lon="2.44595">
        <ele>178.7</ele>
        <time>2015-04-05T11:53:13Z</time>
      </trkpt>
      <trkpt lat="43.95132" lon="2.44608">
        <ele>179.4</ele>
        <time>2015-04-05T11:53:15Z</time>
      </trkpt>
      <trkpt lat="43.95137" lon="2.44625">
        <ele>179.7</ele>
        <time>2015-04-05T11:53:18Z</time>
      </trkpt>
      <trkpt lat="43.9514" lon="2.44637">
        <ele>179.6</ele>
        <time>2015-04-05T11:53:20Z</time>
      </trkpt>
      <trkpt lat="43.95143" lon="2.44649">
        <ele>179.7</ele>
        <time>2015-04-05T11:53:22Z</time>
      </trkpt>
      <trkpt lat="43.95146" lon="2.44662">
        <ele>179.5</ele>
        <time>2015-04-05T11:53:24Z</time>
      </trkpt>
      <trkpt lat="43.95149" lon="2.44676">
        <ele>178.4</ele>
        <time>2015-04-05T11:53:26Z</time>
      </trkpt>
      <trkpt lat="43.9515" lon="2.4469">
        <ele>178.3</ele>
        <time>2015-04-05T11:53:28Z</time>
      </trkpt>
      <trkpt lat="43.95152" lon="2.44704">
        <ele>177.9</ele>
        <time>2015-04-05T11:53:30Z</time>
      </trkpt>
      <trkpt lat="43.95154" lon="2.44716">
        <ele>177.7</ele>
        <time>2015-04-05T11:53:32Z</time>
      </trkpt>
      <trkpt lat="43.95155" lon="2.44734">
        <ele>177.7</ele>
        <time>2015-04-05T11:53:35Z</time>
      </trkpt>
      <trkpt lat="43.95157" lon="2.44752">
        <ele>177.6</ele>
        <time>2015-04-05T11:53:38Z</time>
      </trkpt>
      <trkpt lat="43.95161" lon="2.4477">
        <ele>177</ele>
        <time>2015-04-05T11:53:41Z</time>
      </trkpt>
      <trkpt lat="43.95163" lon="2.44782">
        <ele>176.6</ele>
        <time>2015-04-05T11:53:43Z</time>
      </trkpt>
      <trkpt lat="43.95166" lon="2.44794">
        <ele>176.2</ele>
        <time>2015-04-05T11:53:45Z</time>
      </trkpt>
      <trkpt lat="43.95169" lon="2.44808">
        <ele>175.8</ele>
        <time>2015-04-05T11:53:47Z</time>
      </trkpt>
      <trkpt lat="43.95171" lon="2.44822">
        <ele>175.3</ele>
        <time>2015-04-05T11:53:49Z</time>
      </trkpt>
      <trkpt lat="43.95174" lon="2.44837">
        <ele>175.2</ele>
        <time>2015-04-05T11:53:51Z</time>
      </trkpt>
      <trkpt lat="43.95176" lon="2.44851">
        <ele>175.2</ele>
        <time>2015-04-05T11:53:53Z</time>
      </trkpt>
      <trkpt lat="43.95179" lon="2.44865">
        <ele>175.2</ele>
        <time>2015-04-05T11:53:55Z</time>
      </trkpt>
      <trkpt lat="43.95181" lon="2.44881">
        <ele>175.4</ele>
        <time>2015-04-05T11:53:57Z</time>
      </trkpt>
      <trkpt lat="43.95183" lon="2.44897">
        <ele>175.7</ele>
        <time>2015-04-05T11:53:59Z</time>
      </trkpt>
      <trkpt lat="43.95184" lon="2.44915">
        <ele>176</ele>
        <time>2015-04-05T11:54:01Z</time>
      </trkpt>
      <trkpt lat="43.95185" lon="2.44931">
        <ele>176.5</ele>
        <time>2015-04-05T11:54:03Z</time>
      </trkpt>
      <trkpt lat="43.95185" lon="2.44946">
        <ele>176.7</ele>
        <time>2015-04-05T11:54:05Z</time>
      </trkpt>
      <trkpt lat="43.95185" lon="2.4496">
        <ele>177</ele>
        <time>2015-04-05T11:54:07Z</time>
      </trkpt>
      <trkpt lat="43.95187" lon="2.44973">
        <ele>177.3</ele>
        <time>2015-04-05T11:54:09Z</time>
      </trkpt>
      <trkpt lat="43.95189" lon="2.44986">
        <ele>177.5</ele>
        <time>2015-04-05T11:54:11Z</time>
      </trkpt>
      <trkpt lat="43.95191" lon="2.45005">
        <ele>177.6</ele>
        <time>2015-04-05T11:54:14Z</time>
      </trkpt>
      <trkpt lat="43.95194" lon="2.45023">
        <ele>177.6</ele>
        <time>2015-04-05T11:54:17Z</time>
      </trkpt>
      <trkpt lat="43.95197" lon="2.4504">
        <ele>177.9</ele>
        <time>2015-04-05T11:54:20Z</time>
      </trkpt>
      <trkpt lat="43.95199" lon="2.45055">
        <ele>178.7</ele>
        <time>2015-04-05T11:54:23Z</time>
      </trkpt>
      <trkpt lat="43.952" lon="2.4507">
        <ele>179.4</ele>
        <time>2015-04-05T11:54:26Z</time>
      </trkpt>
      <trkpt lat="43.952" lon="2.45083">
        <ele>180</ele>
        <time>2015-04-05T11:54:29Z</time>
      </trkpt>
      <trkpt lat="43.952" lon="2.45098">
        <ele>180.8</ele>
        <time>2015-04-05T11:54:32Z</time>
      </trkpt>
      <trkpt lat="43.952" lon="2.45113">
        <ele>181.6</ele>
        <time>2015-04-05T11:54:35Z</time>
      </trkpt>
      <trkpt lat="43.952" lon="2.4513">
        <ele>182.4</ele>
        <time>2015-04-05T11:54:38Z</time>
      </trkpt>
      <trkpt lat="43.95198" lon="2.45144">
        <ele>183.1</ele>
        <time>2015-04-05T11:54:41Z</time>
      </trkpt>
      <trkpt lat="43.95197" lon="2.4516">
        <ele>183.2</ele>
        <time>2015-04-05T11:54:44Z</time>
      </trkpt>
      <trkpt lat="43.95197" lon="2.45175">
        <ele>182.9</ele>
        <time>2015-04-05T11:54:47Z</time>
      </trkpt>
      <trkpt lat="43.95195" lon="2.4519">
        <ele>183</ele>
        <time>2015-04-05T11:54:50Z</time>
      </trkpt>
      <trkpt lat="43.95194" lon="2.45205">
        <ele>182.6</ele>
        <time>2015-04-05T11:54:54Z</time>
      </trkpt>
      <trkpt lat="43.95196" lon="2.45218">
        <ele>182.6</ele>
        <time>2015-04-05T11:55:20Z</time>
      </trkpt>
      <trkpt lat="43.95196" lon="2.45232">
        <ele>183.2</ele>
        <time>2015-04-05T11:55:25Z</time>
      </trkpt>
      <trkpt lat="43.95194" lon="2.45248">
        <ele>183.6</ele>
        <time>2015-04-05T11:55:29Z</time>
      </trkpt>
      <trkpt lat="43.95193" lon="2.45263">
        <ele>183.9</ele>
        <time>2015-04-05T11:55:32Z</time>
      </trkpt>
      <trkpt lat="43.95192" lon="2.4528">
        <ele>184.4</ele>
        <time>2015-04-05T11:55:35Z</time>
      </trkpt>
      <trkpt lat="43.9519" lon="2.45298">
        <ele>184.8</ele>
        <time>2015-04-05T11:55:38Z</time>
      </trkpt>
      <trkpt lat="43.95189" lon="2.45311">
        <ele>185.2</ele>
        <time>2015-04-05T11:55:40Z</time>
      </trkpt>
      <trkpt lat="43.95188" lon="2.45325">
        <ele>185.8</ele>
        <time>2015-04-05T11:55:42Z</time>
      </trkpt>
      <trkpt lat="43.95187" lon="2.45339">
        <ele>186.3</ele>
        <time>2015-04-05T11:55:44Z</time>
      </trkpt>
      <trkpt lat="43.95186" lon="2.45353">
        <ele>186.7</ele>
        <time>2015-04-05T11:55:46Z</time>
      </trkpt>
      <trkpt lat="43.95185" lon="2.45368">
        <ele>186.8</ele>
        <time>2015-04-05T11:55:48Z</time>
      </trkpt>
      <trkpt lat="43.95184" lon="2.45383">
        <ele>187.1</ele>
        <time>2015-04-05T11:55:50Z</time>
      </trkpt>
      <trkpt lat="43.95183" lon="2.45398">
        <ele>187.1</ele>
        <time>2015-04-05T11:55:52Z</time>
      </trkpt>
      <trkpt lat="43.95181" lon="2.45413">
        <ele>187.4</ele>
        <time>2015-04-05T11:55:54Z</time>
      </trkpt>
      <trkpt lat="43.95178" lon="2.45427">
        <ele>187.7</ele>
        <time>2015-04-05T11:55:56Z</time>
      </trkpt>
      <trkpt lat="43.95175" lon="2.45441">
        <ele>187.9</ele>
        <time>2015-04-05T11:55:58Z</time>
      </trkpt>
      <trkpt lat="43.95172" lon="2.45456">
        <ele>187.9</ele>
        <time>2015-04-05T11:56:00Z</time>
      </trkpt>
      <trkpt lat="43.95167" lon="2.45469">
        <ele>187.9</ele>
        <time>2015-04-05T11:56:02Z</time>
      </trkpt>
      <trkpt lat="43.95163" lon="2.45482">
        <ele>187.9</ele>
        <time>2015-04-05T11:56:04Z</time>
      </trkpt>
      <trkpt lat="43.95157" lon="2.45494">
        <ele>188</ele>
        <time>2015-04-05T11:56:06Z</time>
      </trkpt>
      <trkpt lat="43.95152" lon="2.45505">
        <ele>188</ele>
        <time>2015-04-05T11:56:08Z</time>
      </trkpt>
      <trkpt lat="43.95146" lon="2.45516">
        <ele>187.9</ele>
        <time>2015-04-05T11:56:10Z</time>
      </trkpt>
      <trkpt lat="43.9514" lon="2.45527">
        <ele>187.9</ele>
        <time>2015-04-05T11:56:12Z</time>
      </trkpt>
      <trkpt lat="43.95133" lon="2.45538">
        <ele>187.8</ele>
        <time>2015-04-05T11:56:14Z</time>
      </trkpt>
      <trkpt lat="43.95127" lon="2.45549">
        <ele>187.6</ele>
        <time>2015-04-05T11:56:16Z</time>
      </trkpt>
      <trkpt lat="43.9512" lon="2.45559">
        <ele>187.6</ele>
        <time>2015-04-05T11:56:18Z</time>
      </trkpt>
      <trkpt lat="43.95115" lon="2.45569">
        <ele>187.5</ele>
        <time>2015-04-05T11:56:20Z</time>
      </trkpt>
      <trkpt lat="43.95108" lon="2.45584">
        <ele>187.2</ele>
        <time>2015-04-05T11:56:23Z</time>
      </trkpt>
      <trkpt lat="43.951" lon="2.45598">
        <ele>187.4</ele>
        <time>2015-04-05T11:56:26Z</time>
      </trkpt>
      <trkpt lat="43.95093" lon="2.45609">
        <ele>186.6</ele>
        <time>2015-04-05T11:56:29Z</time>
      </trkpt>
      <trkpt lat="43.95085" lon="2.45621">
        <ele>185.8</ele>
        <time>2015-04-05T11:56:32Z</time>
      </trkpt>
      <trkpt lat="43.95077" lon="2.45628">
        <ele>185.5</ele>
        <time>2015-04-05T11:56:34Z</time>
      </trkpt>
      <trkpt lat="43.95068" lon="2.45636">
        <ele>185.3</ele>
        <time>2015-04-05T11:56:36Z</time>
      </trkpt>
      <trkpt lat="43.95059" lon="2.45644">
        <ele>185.1</ele>
        <time>2015-04-05T11:56:38Z</time>
      </trkpt>
      <trkpt lat="43.95048" lon="2.45651">
        <ele>184.9</ele>
        <time>2015-04-05T11:56:40Z</time>
      </trkpt>
      <trkpt lat="43.95037" lon="2.45659">
        <ele>184.6</ele>
        <time>2015-04-05T11:56:42Z</time>
      </trkpt>
      <trkpt lat="43.95026" lon="2.45667">
        <ele>184.2</ele>
        <time>2015-04-05T11:56:44Z</time>
      </trkpt>
      <trkpt lat="43.95014" lon="2.45674">
        <ele>183.9</ele>
        <time>2015-04-05T11:56:46Z</time>
      </trkpt>
      <trkpt lat="43.95003" lon="2.45681">
        <ele>183.4</ele>
        <time>2015-04-05T11:56:48Z</time>
      </trkpt>
      <trkpt lat="43.9499" lon="2.45689">
        <ele>182.9</ele>
        <time>2015-04-05T11:56:50Z</time>
      </trkpt>
      <trkpt lat="43.94978" lon="2.45697">
        <ele>182.3</ele>
        <time>2015-04-05T11:56:52Z</time>
      </trkpt>
      <trkpt lat="43.94965" lon="2.45708">
        <ele>181.8</ele>
        <time>2015-04-05T11:56:54Z</time>
      </trkpt>
      <trkpt lat="43.94952" lon="2.45719">
        <ele>181.2</ele>
        <time>2015-04-05T11:56:56Z</time>
      </trkpt>
      <trkpt lat="43.94939" lon="2.4573">
        <ele>180.6</ele>
        <time>2015-04-05T11:56:58Z</time>
      </trkpt>
      <trkpt lat="43.94926" lon="2.4574">
        <ele>179.9</ele>
        <time>2015-04-05T11:57:00Z</time>
      </trkpt>
      <trkpt lat="43.94913" lon="2.45753">
        <ele>179.2</ele>
        <time>2015-04-05T11:57:02Z</time>
      </trkpt>
      <trkpt lat="43.949" lon="2.45766">
        <ele>178.5</ele>
        <time>2015-04-05T11:57:04Z</time>
      </trkpt>
      <trkpt lat="43.94889" lon="2.45781">
        <ele>177.9</ele>
        <time>2015-04-05T11:57:06Z</time>
      </trkpt>
      <trkpt lat="43.94879" lon="2.45797">
        <ele>177.4</ele>
        <time>2015-04-05T11:57:08Z</time>
      </trkpt>
      <trkpt lat="43.9487" lon="2.45813">
        <ele>177</ele>
        <time>2015-04-05T11:57:10Z</time>
      </trkpt>
      <trkpt lat="43.9486" lon="2.45829">
        <ele>176.5</ele>
        <time>2015-04-05T11:57:12Z</time>
      </trkpt>
      <trkpt lat="43.94851" lon="2.45846">
        <ele>175.8</ele>
        <time>2015-04-05T11:57:14Z</time>
      </trkpt>
      <trkpt lat="43.94842" lon="2.45863">
        <ele>175.6</ele>
        <time>2015-04-05T11:57:16Z</time>
      </trkpt>
      <trkpt lat="43.94833" lon="2.4588">
        <ele>175.2</ele>
        <time>2015-04-05T11:57:18Z</time>
      </trkpt>
      <trkpt lat="43.94823" lon="2.45896">
        <ele>174.7</ele>
        <time>2015-04-05T11:57:20Z</time>
      </trkpt>
      <trkpt lat="43.94814" lon="2.45913">
        <ele>174.4</ele>
        <time>2015-04-05T11:57:22Z</time>
      </trkpt>
      <trkpt lat="43.94803" lon="2.45929">
        <ele>174.1</ele>
        <time>2015-04-05T11:57:24Z</time>
      </trkpt>
      <trkpt lat="43.94795" lon="2.45946">
        <ele>173.8</ele>
        <time>2015-04-05T11:57:26Z</time>
      </trkpt>
      <trkpt lat="43.9479" lon="2.45966">
        <ele>173.7</ele>
        <time>2015-04-05T11:57:28Z</time>
      </trkpt>
      <trkpt lat="43.94784" lon="2.45985">
        <ele>173.4</ele>
        <time>2015-04-05T11:57:30Z</time>
      </trkpt>
      <trkpt lat="43.94779" lon="2.46004">
        <ele>173</ele>
        <time>2015-04-05T11:57:32Z</time>
      </trkpt>
      <trkpt lat="43.94773" lon="2.46024">
        <ele>172.7</ele>
        <time>2015-04-05T11:57:34Z</time>
      </trkpt>
      <trkpt lat="43.94768" lon="2.46044">
        <ele>172.6</ele>
        <time>2015-04-05T11:57:36Z</time>
      </trkpt>
      <trkpt lat="43.94763" lon="2.46063">
        <ele>172.5</ele>
        <time>2015-04-05T11:57:38Z</time>
      </trkpt>
      <trkpt lat="43.94759" lon="2.46083">
        <ele>172.7</ele>
        <time>2015-04-05T11:57:40Z</time>
      </trkpt>
      <trkpt lat="43.94756" lon="2.46102">
        <ele>173.1</ele>
        <time>2015-04-05T11:57:42Z</time>
      </trkpt>
      <trkpt lat="43.94753" lon="2.4612">
        <ele>173.1</ele>
        <time>2015-04-05T11:57:44Z</time>
      </trkpt>
      <trkpt lat="43.9475" lon="2.46137">
        <ele>173</ele>
        <time>2015-04-05T11:57:46Z</time>
      </trkpt>
      <trkpt lat="43.94747" lon="2.46153">
        <ele>172.8</ele>
        <time>2015-04-05T11:57:48Z</time>
      </trkpt>
      <trkpt lat="43.94744" lon="2.4617">
        <ele>173</ele>
        <time>2015-04-05T11:57:50Z</time>
      </trkpt>
      <trkpt lat="43.94741" lon="2.46186">
        <ele>173.6</ele>
        <time>2015-04-05T11:57:52Z</time>
      </trkpt>
      <trkpt lat="43.94738" lon="2.46204">
        <ele>174.1</ele>
        <time>2015-04-05T11:57:54Z</time>
      </trkpt>
      <trkpt lat="43.94737" lon="2.46225">
        <ele>174.2</ele>
        <time>2015-04-05T11:57:56Z</time>
      </trkpt>
      <trkpt lat="43.94733" lon="2.46242">
        <ele>174.4</ele>
        <time>2015-04-05T11:57:58Z</time>
      </trkpt>
      <trkpt lat="43.9473" lon="2.46258">
        <ele>174.7</ele>
        <time>2015-04-05T11:58:00Z</time>
      </trkpt>
      <trkpt lat="43.94726" lon="2.46275">
        <ele>174.9</ele>
        <time>2015-04-05T11:58:02Z</time>
      </trkpt>
      <trkpt lat="43.94723" lon="2.46291">
        <ele>174.9</ele>
        <time>2015-04-05T11:58:04Z</time>
      </trkpt>
      <trkpt lat="43.94719" lon="2.46307">
        <ele>174.9</ele>
        <time>2015-04-05T11:58:06Z</time>
      </trkpt>
      <trkpt lat="43.94715" lon="2.46323">
        <ele>174.6</ele>
        <time>2015-04-05T11:58:08Z</time>
      </trkpt>
      <trkpt lat="43.94711" lon="2.46339">
        <ele>174.3</ele>
        <time>2015-04-05T11:58:10Z</time>
      </trkpt>
      <trkpt lat="43.94706" lon="2.46356">
        <ele>174.5</ele>
        <time>2015-04-05T11:58:12Z</time>
      </trkpt>
      <trkpt lat="43.94702" lon="2.46372">
        <ele>174.8</ele>
        <time>2015-04-05T11:58:14Z</time>
      </trkpt>
      <trkpt lat="43.94698" lon="2.46388">
        <ele>174.8</ele>
        <time>2015-04-05T11:58:16Z</time>
      </trkpt>
      <trkpt lat="43.94693" lon="2.46405">
        <ele>175</ele>
        <time>2015-04-05T11:58:18Z</time>
      </trkpt>
      <trkpt lat="43.94688" lon="2.4642">
        <ele>175.7</ele>
        <time>2015-04-05T11:58:20Z</time>
      </trkpt>
      <trkpt lat="43.94683" lon="2.46434">
        <ele>176.2</ele>
        <time>2015-04-05T11:58:22Z</time>
      </trkpt>
      <trkpt lat="43.94679" lon="2.4645">
        <ele>176.7</ele>
        <time>2015-04-05T11:58:24Z</time>
      </trkpt>
      <trkpt lat="43.94674" lon="2.46467">
        <ele>177.1</ele>
        <time>2015-04-05T11:58:26Z</time>
      </trkpt>
      <trkpt lat="43.94668" lon="2.46483">
        <ele>177.6</ele>
        <time>2015-04-05T11:58:28Z</time>
      </trkpt>
      <trkpt lat="43.94662" lon="2.46501">
        <ele>178.3</ele>
        <time>2015-04-05T11:58:30Z</time>
      </trkpt>
      <trkpt lat="43.94656" lon="2.46519">
        <ele>178.5</ele>
        <time>2015-04-05T11:58:32Z</time>
      </trkpt>
      <trkpt lat="43.94649" lon="2.46538">
        <ele>178.9</ele>
        <time>2015-04-05T11:58:34Z</time>
      </trkpt>
      <trkpt lat="43.94641" lon="2.46558">
        <ele>179.2</ele>
        <time>2015-04-05T11:58:36Z</time>
      </trkpt>
      <trkpt lat="43.94635" lon="2.46578">
        <ele>178.5</ele>
        <time>2015-04-05T11:58:38Z</time>
      </trkpt>
      <trkpt lat="43.94629" lon="2.46597">
        <ele>177.6</ele>
        <time>2015-04-05T11:58:40Z</time>
      </trkpt>
      <trkpt lat="43.94624" lon="2.46618">
        <ele>176.6</ele>
        <time>2015-04-05T11:58:42Z</time>
      </trkpt>
      <trkpt lat="43.94621" lon="2.46639">
        <ele>176</ele>
        <time>2015-04-05T11:58:44Z</time>
      </trkpt>
      <trkpt lat="43.94617" lon="2.46658">
        <ele>176.1</ele>
        <time>2015-04-05T11:58:46Z</time>
      </trkpt>
      <trkpt lat="43.94614" lon="2.46678">
        <ele>176.2</ele>
        <time>2015-04-05T11:58:48Z</time>
      </trkpt>
      <trkpt lat="43.94612" lon="2.46696">
        <ele>176.3</ele>
        <time>2015-04-05T11:58:50Z</time>
      </trkpt>
      <trkpt lat="43.94609" lon="2.46713">
        <ele>176.3</ele>
        <time>2015-04-05T11:58:52Z</time>
      </trkpt>
      <trkpt lat="43.94606" lon="2.46728">
        <ele>176.6</ele>
        <time>2015-04-05T11:58:54Z</time>
      </trkpt>
      <trkpt lat="43.94604" lon="2.46743">
        <ele>176.6</ele>
        <time>2015-04-05T11:58:56Z</time>
      </trkpt>
      <trkpt lat="43.94603" lon="2.46759">
        <ele>176.9</ele>
        <time>2015-04-05T11:58:58Z</time>
      </trkpt>
      <trkpt lat="43.946" lon="2.46772">
        <ele>177.1</ele>
        <time>2015-04-05T11:59:00Z</time>
      </trkpt>
      <trkpt lat="43.94597" lon="2.4679">
        <ele>177.4</ele>
        <time>2015-04-05T11:59:03Z</time>
      </trkpt>
      <trkpt lat="43.94594" lon="2.46806">
        <ele>177.4</ele>
        <time>2015-04-05T11:59:06Z</time>
      </trkpt>
      <trkpt lat="43.94591" lon="2.4682">
        <ele>177.6</ele>
        <time>2015-04-05T11:59:09Z</time>
      </trkpt>
      <trkpt lat="43.94589" lon="2.46833">
        <ele>177.7</ele>
        <time>2015-04-05T11:59:12Z</time>
      </trkpt>
      <trkpt lat="43.94588" lon="2.46849">
        <ele>178.3</ele>
        <time>2015-04-05T11:59:16Z</time>
      </trkpt>
      <trkpt lat="43.94587" lon="2.46863">
        <ele>179.1</ele>
        <time>2015-04-05T11:59:19Z</time>
      </trkpt>
      <trkpt lat="43.94587" lon="2.46878">
        <ele>179.7</ele>
        <time>2015-04-05T11:59:22Z</time>
      </trkpt>
      <trkpt lat="43.94588" lon="2.46894">
        <ele>180.4</ele>
        <time>2015-04-05T11:59:25Z</time>
      </trkpt>
      <trkpt lat="43.94588" lon="2.46911">
        <ele>180.6</ele>
        <time>2015-04-05T11:59:28Z</time>
      </trkpt>
      <trkpt lat="43.94588" lon="2.46927">
        <ele>181</ele>
        <time>2015-04-05T11:59:31Z</time>
      </trkpt>
      <trkpt lat="43.94587" lon="2.46941">
        <ele>181.4</ele>
        <time>2015-04-05T11:59:34Z</time>
      </trkpt>
      <trkpt lat="43.94586" lon="2.46955">
        <ele>182</ele>
        <time>2015-04-05T11:59:37Z</time>
      </trkpt>
      <trkpt lat="43.94585" lon="2.46968">
        <ele>182.5</ele>
        <time>2015-04-05T11:59:40Z</time>
      </trkpt>
      <trkpt lat="43.94585" lon="2.46981">
        <ele>183.1</ele>
        <time>2015-04-05T11:59:43Z</time>
      </trkpt>
      <trkpt lat="43.94584" lon="2.46994">
        <ele>183.6</ele>
        <time>2015-04-05T11:59:46Z</time>
      </trkpt>
      <trkpt lat="43.94584" lon="2.47008">
        <ele>184.6</ele>
        <time>2015-04-05T11:59:49Z</time>
      </trkpt>
      <trkpt lat="43.94583" lon="2.47025">
        <ele>185.4</ele>
        <time>2015-04-05T11:59:53Z</time>
      </trkpt>
      <trkpt lat="43.94583" lon="2.47038">
        <ele>186.2</ele>
        <time>2015-04-05T11:59:56Z</time>
      </trkpt>
      <trkpt lat="43.94582" lon="2.47055">
        <ele>187.2</ele>
        <time>2015-04-05T12:00:00Z</time>
      </trkpt>
      <trkpt lat="43.9458" lon="2.47071">
        <ele>188</ele>
        <time>2015-04-05T12:00:04Z</time>
      </trkpt>
      <trkpt lat="43.94579" lon="2.47084">
        <ele>188.3</ele>
        <time>2015-04-05T12:00:07Z</time>
      </trkpt>
      <trkpt lat="43.94578" lon="2.47098">
        <ele>188.9</ele>
        <time>2015-04-05T12:00:10Z</time>
      </trkpt>
      <trkpt lat="43.94577" lon="2.47112">
        <ele>189</ele>
        <time>2015-04-05T12:00:13Z</time>
      </trkpt>
      <trkpt lat="43.94577" lon="2.47127">
        <ele>189.6</ele>
        <time>2015-04-05T12:00:16Z</time>
      </trkpt>
      <trkpt lat="43.94577" lon="2.47142">
        <ele>190.1</ele>
        <time>2015-04-05T12:00:19Z</time>
      </trkpt>
      <trkpt lat="43.94578" lon="2.47158">
        <ele>189.4</ele>
        <time>2015-04-05T12:00:22Z</time>
      </trkpt>
      <trkpt lat="43.94578" lon="2.47174">
        <ele>189</ele>
        <time>2015-04-05T12:00:25Z</time>
      </trkpt>
      <trkpt lat="43.94578" lon="2.47191">
        <ele>188.9</ele>
        <time>2015-04-05T12:00:28Z</time>
      </trkpt>
      <trkpt lat="43.94578" lon="2.47205">
        <ele>188.9</ele>
        <time>2015-04-05T12:00:30Z</time>
      </trkpt>
      <trkpt lat="43.94579" lon="2.47218">
        <ele>188.7</ele>
        <time>2015-04-05T12:00:32Z</time>
      </trkpt>
      <trkpt lat="43.9458" lon="2.47232">
        <ele>188.4</ele>
        <time>2015-04-05T12:00:34Z</time>
      </trkpt>
      <trkpt lat="43.9458" lon="2.47247">
        <ele>188.4</ele>
        <time>2015-04-05T12:00:36Z</time>
      </trkpt>
      <trkpt lat="43.94581" lon="2.47263">
        <ele>188.3</ele>
        <time>2015-04-05T12:00:38Z</time>
      </trkpt>
      <trkpt lat="43.9458" lon="2.47279">
        <ele>188.3</ele>
        <time>2015-04-05T12:00:40Z</time>
      </trkpt>
      <trkpt lat="43.9458" lon="2.47297">
        <ele>188.3</ele>
        <time>2015-04-05T12:00:42Z</time>
      </trkpt>
      <trkpt lat="43.94579" lon="2.47314">
        <ele>189.1</ele>
        <time>2015-04-05T12:00:44Z</time>
      </trkpt>
      <trkpt lat="43.94579" lon="2.47333">
        <ele>189</ele>
        <time>2015-04-05T12:00:46Z</time>
      </trkpt>
      <trkpt lat="43.94578" lon="2.47351">
        <ele>189.1</ele>
        <time>2015-04-05T12:00:48Z</time>
      </trkpt>
      <trkpt lat="43.94576" lon="2.4737">
        <ele>189</ele>
        <time>2015-04-05T12:00:50Z</time>
      </trkpt>
      <trkpt lat="43.94573" lon="2.47388">
        <ele>188.9</ele>
        <time>2015-04-05T12:00:52Z</time>
      </trkpt>
      <trkpt lat="43.94571" lon="2.47407">
        <ele>189.4</ele>
        <time>2015-04-05T12:00:54Z</time>
      </trkpt>
      <trkpt lat="43.94568" lon="2.47424">
        <ele>189.6</ele>
        <time>2015-04-05T12:00:56Z</time>
      </trkpt>
      <trkpt lat="43.94566" lon="2.4744">
        <ele>189.3</ele>
        <time>2015-04-05T12:00:58Z</time>
      </trkpt>
      <trkpt lat="43.94562" lon="2.47454">
        <ele>189.1</ele>
        <time>2015-04-05T12:01:00Z</time>
      </trkpt>
      <trkpt lat="43.9456" lon="2.47467">
        <ele>189.1</ele>
        <time>2015-04-05T12:01:02Z</time>
      </trkpt>
      <trkpt lat="43.94556" lon="2.47485">
        <ele>188.5</ele>
        <time>2015-04-05T12:01:05Z</time>
      </trkpt>
      <trkpt lat="43.94553" lon="2.475">
        <ele>188.6</ele>
        <time>2015-04-05T12:01:08Z</time>
      </trkpt>
      <trkpt lat="43.9455" lon="2.47513">
        <ele>188.3</ele>
        <time>2015-04-05T12:01:11Z</time>
      </trkpt>
      <trkpt lat="43.94547" lon="2.47527">
        <ele>188.1</ele>
        <time>2015-04-05T12:01:15Z</time>
      </trkpt>
      <trkpt lat="43.94544" lon="2.4754">
        <ele>188.1</ele>
        <time>2015-04-05T12:01:19Z</time>
      </trkpt>
      <trkpt lat="43.9454" lon="2.47555">
        <ele>188.1</ele>
        <time>2015-04-05T12:01:24Z</time>
      </trkpt>
      <trkpt lat="43.94539" lon="2.47569">
        <ele>188.2</ele>
        <time>2015-04-05T12:01:28Z</time>
      </trkpt>
      <trkpt lat="43.94537" lon="2.47581">
        <ele>188.2</ele>
        <time>2015-04-05T12:01:32Z</time>
      </trkpt>
      <trkpt lat="43.94536" lon="2.47596">
        <ele>188.2</ele>
        <time>2015-04-05T12:01:38Z</time>
      </trkpt>
      <trkpt lat="43.94541" lon="2.47584">
        <ele>187.3</ele>
        <time>2015-04-05T12:01:49Z</time>
      </trkpt>
      <trkpt lat="43.94544" lon="2.47569">
        <ele>187.6</ele>
        <time>2015-04-05T12:01:53Z</time>
      </trkpt>
      <trkpt lat="43.94546" lon="2.47557">
        <ele>186.6</ele>
        <time>2015-04-05T12:02:18Z</time>
      </trkpt>
      <trkpt lat="43.94563" lon="2.47561">
        <ele>184.9</ele>
        <time>2015-04-05T12:06:51Z</time>
      </trkpt>
      <trkpt lat="43.94554" lon="2.47567">
        <ele>185.1</ele>
        <time>2015-04-05T12:08:15Z</time>
      </trkpt>
      <trkpt lat="43.9456" lon="2.47558">
        <ele>185.2</ele>
        <time>2015-04-05T12:09:07Z</time>
      </trkpt>
      <trkpt lat="43.94555" lon="2.47569">
        <ele>185.1</ele>
        <time>2015-04-05T12:09:54Z</time>
      </trkpt>
      <trkpt lat="43.9455" lon="2.47561">
        <ele>184.5</ele>
        <time>2015-04-05T12:10:47Z</time>
      </trkpt>
      <trkpt lat="43.94563" lon="2.47563">
        <ele>177</ele>
        <time>2015-04-05T13:26:28Z</time>
      </trkpt>
      <trkpt lat="43.94554" lon="2.4756">
        <ele>176</ele>
        <time>2015-04-05T13:27:02Z</time>
      </trkpt>
      <trkpt lat="43.94545" lon="2.47556">
        <ele>167.6</ele>
        <time>2015-04-05T13:30:22Z</time>
      </trkpt>
      <trkpt lat="43.94543" lon="2.47569">
        <ele>167.2</ele>
        <time>2015-04-05T13:30:43Z</time>
      </trkpt>
      <trkpt lat="43.9454" lon="2.47582">
        <ele>167.2</ele>
        <time>2015-04-05T13:30:50Z</time>
      </trkpt>
      <trkpt lat="43.9453" lon="2.47589">
        <ele>165.5</ele>
        <time>2015-04-05T13:31:15Z</time>
      </trkpt>
      <trkpt lat="43.94521" lon="2.47584">
        <ele>163.3</ele>
        <time>2015-04-05T13:31:20Z</time>
      </trkpt>
      <trkpt lat="43.94512" lon="2.47593">
        <ele>163.5</ele>
        <time>2015-04-05T13:31:30Z</time>
      </trkpt>
      <trkpt lat="43.94507" lon="2.47606">
        <ele>163.6</ele>
        <time>2015-04-05T13:31:34Z</time>
      </trkpt>
      <trkpt lat="43.94511" lon="2.47592">
        <ele>164.6</ele>
        <time>2015-04-05T13:32:02Z</time>
      </trkpt>
      <trkpt lat="43.94503" lon="2.47585">
        <ele>163.9</ele>
        <time>2015-04-05T13:32:08Z</time>
      </trkpt>
      <trkpt lat="43.9449" lon="2.47579">
        <ele>163.3</ele>
        <time>2015-04-05T13:32:11Z</time>
      </trkpt>
      <trkpt lat="43.94479" lon="2.47574">
        <ele>163</ele>
        <time>2015-04-05T13:32:13Z</time>
      </trkpt>
      <trkpt lat="43.94467" lon="2.47568">
        <ele>162.4</ele>
        <time>2015-04-05T13:32:15Z</time>
      </trkpt>
      <trkpt lat="43.94454" lon="2.47563">
        <ele>161.7</ele>
        <time>2015-04-05T13:32:17Z</time>
      </trkpt>
      <trkpt lat="43.94441" lon="2.47556">
        <ele>160.9</ele>
        <time>2015-04-05T13:32:19Z</time>
      </trkpt>
      <trkpt lat="43.94429" lon="2.47549">
        <ele>159.9</ele>
        <time>2015-04-05T13:32:21Z</time>
      </trkpt>
      <trkpt lat="43.9442" lon="2.47546">
        <ele>159.1</ele>
        <time>2015-04-05T13:32:23Z</time>
      </trkpt>
      <trkpt lat="43.94408" lon="2.47553">
        <ele>157.5</ele>
        <time>2015-04-05T13:32:26Z</time>
      </trkpt>
      <trkpt lat="43.94401" lon="2.47568">
        <ele>157</ele>
        <time>2015-04-05T13:32:29Z</time>
      </trkpt>
      <trkpt lat="43.94396" lon="2.4758">
        <ele>156.9</ele>
        <time>2015-04-05T13:32:31Z</time>
      </trkpt>
      <trkpt lat="43.94392" lon="2.47592">
        <ele>157.1</ele>
        <time>2015-04-05T13:32:33Z</time>
      </trkpt>
      <trkpt lat="43.94387" lon="2.47604">
        <ele>157</ele>
        <time>2015-04-05T13:32:35Z</time>
      </trkpt>
      <trkpt lat="43.94382" lon="2.47617">
        <ele>156.8</ele>
        <time>2015-04-05T13:32:37Z</time>
      </trkpt>
      <trkpt lat="43.94377" lon="2.47629">
        <ele>156.6</ele>
        <time>2015-04-05T13:32:39Z</time>
      </trkpt>
      <trkpt lat="43.94373" lon="2.47642">
        <ele>156.4</ele>
        <time>2015-04-05T13:32:41Z</time>
      </trkpt>
      <trkpt lat="43.94369" lon="2.47655">
        <ele>156.4</ele>
        <time>2015-04-05T13:32:43Z</time>
      </trkpt>
      <trkpt lat="43.94365" lon="2.47667">
        <ele>156.4</ele>
        <time>2015-04-05T13:32:45Z</time>
      </trkpt>
      <trkpt lat="43.94362" lon="2.4768">
        <ele>156.6</ele>
        <time>2015-04-05T13:32:47Z</time>
      </trkpt>
      <trkpt lat="43.94357" lon="2.47692">
        <ele>156.6</ele>
        <time>2015-04-05T13:32:49Z</time>
      </trkpt>
      <trkpt lat="43.94352" lon="2.47705">
        <ele>156.6</ele>
        <time>2015-04-05T13:32:51Z</time>
      </trkpt>
      <trkpt lat="43.94347" lon="2.47719">
        <ele>156.8</ele>
        <time>2015-04-05T13:32:53Z</time>
      </trkpt>
      <trkpt lat="43.94343" lon="2.47733">
        <ele>156.9</ele>
        <time>2015-04-05T13:32:55Z</time>
      </trkpt>
      <trkpt lat="43.94337" lon="2.47745">
        <ele>156.9</ele>
        <time>2015-04-05T13:32:57Z</time>
      </trkpt>
      <trkpt lat="43.94333" lon="2.47756">
        <ele>157</ele>
        <time>2015-04-05T13:32:59Z</time>
      </trkpt>
      <trkpt lat="43.94328" lon="2.47769">
        <ele>157</ele>
        <time>2015-04-05T13:33:01Z</time>
      </trkpt>
      <trkpt lat="43.94323" lon="2.47782">
        <ele>157.1</ele>
        <time>2015-04-05T13:33:03Z</time>
      </trkpt>
      <trkpt lat="43.94318" lon="2.47796">
        <ele>157</ele>
        <time>2015-04-05T13:33:05Z</time>
      </trkpt>
      <trkpt lat="43.94313" lon="2.47808">
        <ele>156.9</ele>
        <time>2015-04-05T13:33:07Z</time>
      </trkpt>
      <trkpt lat="43.94309" lon="2.47822">
        <ele>157</ele>
        <time>2015-04-05T13:33:09Z</time>
      </trkpt>
      <trkpt lat="43.94305" lon="2.47835">
        <ele>157</ele>
        <time>2015-04-05T13:33:11Z</time>
      </trkpt>
      <trkpt lat="43.943" lon="2.47849">
        <ele>156.8</ele>
        <time>2015-04-05T13:33:13Z</time>
      </trkpt>
      <trkpt lat="43.94296" lon="2.47862">
        <ele>156.7</ele>
        <time>2015-04-05T13:33:15Z</time>
      </trkpt>
      <trkpt lat="43.94292" lon="2.47876">
        <ele>156.6</ele>
        <time>2015-04-05T13:33:17Z</time>
      </trkpt>
      <trkpt lat="43.94289" lon="2.47891">
        <ele>156.4</ele>
        <time>2015-04-05T13:33:19Z</time>
      </trkpt>
      <trkpt lat="43.94286" lon="2.47905">
        <ele>156.3</ele>
        <time>2015-04-05T13:33:21Z</time>
      </trkpt>
      <trkpt lat="43.94282" lon="2.4792">
        <ele>155.9</ele>
        <time>2015-04-05T13:33:23Z</time>
      </trkpt>
      <trkpt lat="43.94279" lon="2.47934">
        <ele>155.7</ele>
        <time>2015-04-05T13:33:25Z</time>
      </trkpt>
      <trkpt lat="43.94275" lon="2.47947">
        <ele>155.7</ele>
        <time>2015-04-05T13:33:27Z</time>
      </trkpt>
      <trkpt lat="43.94272" lon="2.47962">
        <ele>155.7</ele>
        <time>2015-04-05T13:33:29Z</time>
      </trkpt>
      <trkpt lat="43.94269" lon="2.47976">
        <ele>155.7</ele>
        <time>2015-04-05T13:33:31Z</time>
      </trkpt>
      <trkpt lat="43.94266" lon="2.4799">
        <ele>155.7</ele>
        <time>2015-04-05T13:33:33Z</time>
      </trkpt>
      <trkpt lat="43.94263" lon="2.48005">
        <ele>155.8</ele>
        <time>2015-04-05T13:33:35Z</time>
      </trkpt>
      <trkpt lat="43.94259" lon="2.48018">
        <ele>155.7</ele>
        <time>2015-04-05T13:33:37Z</time>
      </trkpt>
      <trkpt lat="43.94255" lon="2.48032">
        <ele>155.6</ele>
        <time>2015-04-05T13:33:39Z</time>
      </trkpt>
      <trkpt lat="43.94251" lon="2.48047">
        <ele>155.7</ele>
        <time>2015-04-05T13:33:41Z</time>
      </trkpt>
      <trkpt lat="43.94247" lon="2.48062">
        <ele>155.5</ele>
        <time>2015-04-05T13:33:43Z</time>
      </trkpt>
      <trkpt lat="43.94245" lon="2.48076">
        <ele>155.6</ele>
        <time>2015-04-05T13:33:45Z</time>
      </trkpt>
      <trkpt lat="43.94241" lon="2.48091">
        <ele>155.8</ele>
        <time>2015-04-05T13:33:47Z</time>
      </trkpt>
      <trkpt lat="43.94238" lon="2.48105">
        <ele>156.1</ele>
        <time>2015-04-05T13:33:49Z</time>
      </trkpt>
      <trkpt lat="43.94235" lon="2.48119">
        <ele>156.2</ele>
        <time>2015-04-05T13:33:51Z</time>
      </trkpt>
      <trkpt lat="43.94233" lon="2.48132">
        <ele>156.5</ele>
        <time>2015-04-05T13:33:53Z</time>
      </trkpt>
      <trkpt lat="43.94231" lon="2.48144">
        <ele>156.7</ele>
        <time>2015-04-05T13:33:55Z</time>
      </trkpt>
      <trkpt lat="43.9423" lon="2.48157">
        <ele>156.9</ele>
        <time>2015-04-05T13:33:57Z</time>
      </trkpt>
      <trkpt lat="43.94226" lon="2.48174">
        <ele>157.5</ele>
        <time>2015-04-05T13:34:00Z</time>
      </trkpt>
      <trkpt lat="43.94222" lon="2.48188">
        <ele>158.8</ele>
        <time>2015-04-05T13:34:03Z</time>
      </trkpt>
      <trkpt lat="43.94221" lon="2.48205">
        <ele>159.6</ele>
        <time>2015-04-05T13:34:06Z</time>
      </trkpt>
      <trkpt lat="43.94221" lon="2.48223">
        <ele>160.6</ele>
        <time>2015-04-05T13:34:09Z</time>
      </trkpt>
      <trkpt lat="43.9422" lon="2.4824">
        <ele>161.4</ele>
        <time>2015-04-05T13:34:12Z</time>
      </trkpt>
      <trkpt lat="43.94219" lon="2.48255">
        <ele>162.4</ele>
        <time>2015-04-05T13:34:15Z</time>
      </trkpt>
      <trkpt lat="43.94218" lon="2.4827">
        <ele>163.6</ele>
        <time>2015-04-05T13:34:18Z</time>
      </trkpt>
      <trkpt lat="43.94218" lon="2.48286">
        <ele>164.7</ele>
        <time>2015-04-05T13:34:21Z</time>
      </trkpt>
      <trkpt lat="43.9422" lon="2.48301">
        <ele>165.7</ele>
        <time>2015-04-05T13:34:24Z</time>
      </trkpt>
      <trkpt lat="43.94223" lon="2.48316">
        <ele>167.2</ele>
        <time>2015-04-05T13:34:27Z</time>
      </trkpt>
      <trkpt lat="43.94222" lon="2.48332">
        <ele>167.9</ele>
        <time>2015-04-05T13:34:30Z</time>
      </trkpt>
      <trkpt lat="43.94221" lon="2.48349">
        <ele>168</ele>
        <time>2015-04-05T13:34:33Z</time>
      </trkpt>
      <trkpt lat="43.94223" lon="2.48365">
        <ele>168.9</ele>
        <time>2015-04-05T13:34:36Z</time>
      </trkpt>
      <trkpt lat="43.94227" lon="2.48383">
        <ele>169.7</ele>
        <time>2015-04-05T13:34:39Z</time>
      </trkpt>
      <trkpt lat="43.94231" lon="2.48399">
        <ele>170.4</ele>
        <time>2015-04-05T13:34:42Z</time>
      </trkpt>
      <trkpt lat="43.94233" lon="2.48414">
        <ele>171.3</ele>
        <time>2015-04-05T13:34:45Z</time>
      </trkpt>
      <trkpt lat="43.94234" lon="2.48428">
        <ele>171.9</ele>
        <time>2015-04-05T13:34:48Z</time>
      </trkpt>
      <trkpt lat="43.94237" lon="2.48444">
        <ele>172.5</ele>
        <time>2015-04-05T13:34:52Z</time>
      </trkpt>
      <trkpt lat="43.94239" lon="2.48457">
        <ele>173.1</ele>
        <time>2015-04-05T13:34:55Z</time>
      </trkpt>
      <trkpt lat="43.94241" lon="2.48474">
        <ele>173.7</ele>
        <time>2015-04-05T13:34:59Z</time>
      </trkpt>
      <trkpt lat="43.94242" lon="2.48489">
        <ele>174</ele>
        <time>2015-04-05T13:35:02Z</time>
      </trkpt>
      <trkpt lat="43.94242" lon="2.48506">
        <ele>174.3</ele>
        <time>2015-04-05T13:35:05Z</time>
      </trkpt>
      <trkpt lat="43.94243" lon="2.48522">
        <ele>174.5</ele>
        <time>2015-04-05T13:35:08Z</time>
      </trkpt>
      <trkpt lat="43.94244" lon="2.4854">
        <ele>174.7</ele>
        <time>2015-04-05T13:35:11Z</time>
      </trkpt>
      <trkpt lat="43.94246" lon="2.48559">
        <ele>174.7</ele>
        <time>2015-04-05T13:35:14Z</time>
      </trkpt>
      <trkpt lat="43.94247" lon="2.48578">
        <ele>174.3</ele>
        <time>2015-04-05T13:35:17Z</time>
      </trkpt>
      <trkpt lat="43.94248" lon="2.48596">
        <ele>174.5</ele>
        <time>2015-04-05T13:35:20Z</time>
      </trkpt>
      <trkpt lat="43.94249" lon="2.48614">
        <ele>174.7</ele>
        <time>2015-04-05T13:35:23Z</time>
      </trkpt>
      <trkpt lat="43.9425" lon="2.48632">
        <ele>175</ele>
        <time>2015-04-05T13:35:26Z</time>
      </trkpt>
      <trkpt lat="43.9425" lon="2.48645">
        <ele>175</ele>
        <time>2015-04-05T13:35:28Z</time>
      </trkpt>
      <trkpt lat="43.94251" lon="2.48658">
        <ele>174.9</ele>
        <time>2015-04-05T13:35:30Z</time>
      </trkpt>
      <trkpt lat="43.94252" lon="2.48672">
        <ele>174.5</ele>
        <time>2015-04-05T13:35:32Z</time>
      </trkpt>
      <trkpt lat="43.94254" lon="2.48684">
        <ele>174.3</ele>
        <time>2015-04-05T13:35:34Z</time>
      </trkpt>
      <trkpt lat="43.94255" lon="2.48696">
        <ele>174.2</ele>
        <time>2015-04-05T13:35:36Z</time>
      </trkpt>
      <trkpt lat="43.94258" lon="2.48716">
        <ele>174.2</ele>
        <time>2015-04-05T13:35:39Z</time>
      </trkpt>
      <trkpt lat="43.94261" lon="2.48729">
        <ele>174.3</ele>
        <time>2015-04-05T13:35:41Z</time>
      </trkpt>
      <trkpt lat="43.94264" lon="2.48747">
        <ele>174.1</ele>
        <time>2015-04-05T13:35:44Z</time>
      </trkpt>
      <trkpt lat="43.94267" lon="2.48765">
        <ele>173.9</ele>
        <time>2015-04-05T13:35:47Z</time>
      </trkpt>
      <trkpt lat="43.94271" lon="2.48782">
        <ele>173.7</ele>
        <time>2015-04-05T13:35:50Z</time>
      </trkpt>
      <trkpt lat="43.94274" lon="2.48798">
        <ele>173.5</ele>
        <time>2015-04-05T13:35:53Z</time>
      </trkpt>
      <trkpt lat="43.94278" lon="2.48811">
        <ele>173.3</ele>
        <time>2015-04-05T13:35:56Z</time>
      </trkpt>
      <trkpt lat="43.94283" lon="2.48824">
        <ele>172.7</ele>
        <time>2015-04-05T13:36:00Z</time>
      </trkpt>
      <trkpt lat="43.94288" lon="2.48837">
        <ele>172.2</ele>
        <time>2015-04-05T13:36:04Z</time>
      </trkpt>
      <trkpt lat="43.94295" lon="2.48849">
        <ele>172</ele>
        <time>2015-04-05T13:36:08Z</time>
      </trkpt>
      <trkpt lat="43.94303" lon="2.48858">
        <ele>171.9</ele>
        <time>2015-04-05T13:36:12Z</time>
      </trkpt>
      <trkpt lat="43.94309" lon="2.48869">
        <ele>171.9</ele>
        <time>2015-04-05T13:36:17Z</time>
      </trkpt>
      <trkpt lat="43.94311" lon="2.48882">
        <ele>172</ele>
        <time>2015-04-05T13:36:22Z</time>
      </trkpt>
      <trkpt lat="43.94313" lon="2.48896">
        <ele>171.7</ele>
        <time>2015-04-05T13:36:27Z</time>
      </trkpt>
      <trkpt lat="43.94315" lon="2.48909">
        <ele>171.6</ele>
        <time>2015-04-05T13:36:31Z</time>
      </trkpt>
      <trkpt lat="43.94316" lon="2.48922">
        <ele>171.2</ele>
        <time>2015-04-05T13:36:36Z</time>
      </trkpt>
      <trkpt lat="43.94315" lon="2.48935">
        <ele>170.9</ele>
        <time>2015-04-05T13:36:42Z</time>
      </trkpt>
      <trkpt lat="43.94316" lon="2.48949">
        <ele>169.6</ele>
        <time>2015-04-05T13:37:04Z</time>
      </trkpt>
      <trkpt lat="43.94317" lon="2.48964">
        <ele>169.9</ele>
        <time>2015-04-05T13:37:09Z</time>
      </trkpt>
      <trkpt lat="43.94318" lon="2.48979">
        <ele>170</ele>
        <time>2015-04-05T13:37:13Z</time>
      </trkpt>
      <trkpt lat="43.94319" lon="2.48993">
        <ele>170.2</ele>
        <time>2015-04-05T13:37:17Z</time>
      </trkpt>
      <trkpt lat="43.94319" lon="2.49006">
        <ele>170.6</ele>
        <time>2015-04-05T13:37:21Z</time>
      </trkpt>
      <trkpt lat="43.9432" lon="2.4902">
        <ele>171.1</ele>
        <time>2015-04-05T13:37:25Z</time>
      </trkpt>
      <trkpt lat="43.9432" lon="2.49034">
        <ele>171.8</ele>
        <time>2015-04-05T13:37:28Z</time>
      </trkpt>
      <trkpt lat="43.94319" lon="2.49049">
        <ele>172.6</ele>
        <time>2015-04-05T13:37:31Z</time>
      </trkpt>
      <trkpt lat="43.94318" lon="2.49067">
        <ele>173.4</ele>
        <time>2015-04-05T13:37:34Z</time>
      </trkpt>
      <trkpt lat="43.94319" lon="2.49081">
        <ele>174.2</ele>
        <time>2015-04-05T13:37:36Z</time>
      </trkpt>
      <trkpt lat="43.94319" lon="2.49095">
        <ele>174.8</ele>
        <time>2015-04-05T13:37:38Z</time>
      </trkpt>
      <trkpt lat="43.94317" lon="2.49109">
        <ele>175.3</ele>
        <time>2015-04-05T13:37:40Z</time>
      </trkpt>
      <trkpt lat="43.9432" lon="2.49124">
        <ele>176.1</ele>
        <time>2015-04-05T13:37:42Z</time>
      </trkpt>
      <trkpt lat="43.94321" lon="2.49142">
        <ele>176.8</ele>
        <time>2015-04-05T13:37:44Z</time>
      </trkpt>
      <trkpt lat="43.94322" lon="2.49158">
        <ele>177.5</ele>
        <time>2015-04-05T13:37:46Z</time>
      </trkpt>
      <trkpt lat="43.94323" lon="2.49172">
        <ele>177.9</ele>
        <time>2015-04-05T13:37:48Z</time>
      </trkpt>
      <trkpt lat="43.94324" lon="2.49188">
        <ele>178.3</ele>
        <time>2015-04-05T13:37:50Z</time>
      </trkpt>
      <trkpt lat="43.94325" lon="2.49203">
        <ele>178.7</ele>
        <time>2015-04-05T13:37:52Z</time>
      </trkpt>
      <trkpt lat="43.94327" lon="2.49216">
        <ele>179.1</ele>
        <time>2015-04-05T13:37:54Z</time>
      </trkpt>
      <trkpt lat="43.94328" lon="2.49231">
        <ele>179.6</ele>
        <time>2015-04-05T13:37:56Z</time>
      </trkpt>
      <trkpt lat="43.9433" lon="2.49246">
        <ele>180.2</ele>
        <time>2015-04-05T13:37:58Z</time>
      </trkpt>
      <trkpt lat="43.94332" lon="2.49261">
        <ele>180.7</ele>
        <time>2015-04-05T13:38:00Z</time>
      </trkpt>
      <trkpt lat="43.94335" lon="2.49278">
        <ele>181.2</ele>
        <time>2015-04-05T13:38:02Z</time>
      </trkpt>
      <trkpt lat="43.94338" lon="2.49295">
        <ele>181.6</ele>
        <time>2015-04-05T13:38:04Z</time>
      </trkpt>
      <trkpt lat="43.94342" lon="2.49313">
        <ele>181.7</ele>
        <time>2015-04-05T13:38:06Z</time>
      </trkpt>
      <trkpt lat="43.94347" lon="2.4933">
        <ele>182.1</ele>
        <time>2015-04-05T13:38:08Z</time>
      </trkpt>
      <trkpt lat="43.94352" lon="2.49344">
        <ele>182.4</ele>
        <time>2015-04-05T13:38:10Z</time>
      </trkpt>
      <trkpt lat="43.94357" lon="2.4936">
        <ele>182.5</ele>
        <time>2015-04-05T13:38:12Z</time>
      </trkpt>
      <trkpt lat="43.94363" lon="2.49376">
        <ele>182.8</ele>
        <time>2015-04-05T13:38:14Z</time>
      </trkpt>
      <trkpt lat="43.94369" lon="2.49392">
        <ele>183.1</ele>
        <time>2015-04-05T13:38:16Z</time>
      </trkpt>
      <trkpt lat="43.94375" lon="2.49406">
        <ele>183.4</ele>
        <time>2015-04-05T13:38:18Z</time>
      </trkpt>
      <trkpt lat="43.94381" lon="2.49421">
        <ele>183.7</ele>
        <time>2015-04-05T13:38:20Z</time>
      </trkpt>
      <trkpt lat="43.94386" lon="2.49437">
        <ele>184</ele>
        <time>2015-04-05T13:38:22Z</time>
      </trkpt>
      <trkpt lat="43.94393" lon="2.49451">
        <ele>184.3</ele>
        <time>2015-04-05T13:38:24Z</time>
      </trkpt>
      <trkpt lat="43.944" lon="2.49465">
        <ele>184.7</ele>
        <time>2015-04-05T13:38:26Z</time>
      </trkpt>
      <trkpt lat="43.94406" lon="2.4948">
        <ele>185</ele>
        <time>2015-04-05T13:38:28Z</time>
      </trkpt>
      <trkpt lat="43.94412" lon="2.49495">
        <ele>185.3</ele>
        <time>2015-04-05T13:38:30Z</time>
      </trkpt>
      <trkpt lat="43.94418" lon="2.49509">
        <ele>185.5</ele>
        <time>2015-04-05T13:38:32Z</time>
      </trkpt>
      <trkpt lat="43.94424" lon="2.49523">
        <ele>185.5</ele>
        <time>2015-04-05T13:38:34Z</time>
      </trkpt>
      <trkpt lat="43.94429" lon="2.49537">
        <ele>185.8</ele>
        <time>2015-04-05T13:38:36Z</time>
      </trkpt>
      <trkpt lat="43.94435" lon="2.49549">
        <ele>186</ele>
        <time>2015-04-05T13:38:38Z</time>
      </trkpt>
      <trkpt lat="43.94442" lon="2.49562">
        <ele>186.3</ele>
        <time>2015-04-05T13:38:40Z</time>
      </trkpt>
      <trkpt lat="43.94449" lon="2.49573">
        <ele>186</ele>
        <time>2015-04-05T13:38:42Z</time>
      </trkpt>
      <trkpt lat="43.94456" lon="2.49586">
        <ele>185.7</ele>
        <time>2015-04-05T13:38:44Z</time>
      </trkpt>
      <trkpt lat="43.94463" lon="2.49599">
        <ele>185.6</ele>
        <time>2015-04-05T13:38:46Z</time>
      </trkpt>
      <trkpt lat="43.9447" lon="2.49612">
        <ele>185.8</ele>
        <time>2015-04-05T13:38:48Z</time>
      </trkpt>
      <trkpt lat="43.94475" lon="2.49626">
        <ele>186</ele>
        <time>2015-04-05T13:38:50Z</time>
      </trkpt>
      <trkpt lat="43.94481" lon="2.49638">
        <ele>186.2</ele>
        <time>2015-04-05T13:38:52Z</time>
      </trkpt>
      <trkpt lat="43.94487" lon="2.49653">
        <ele>186.1</ele>
        <time>2015-04-05T13:38:54Z</time>
      </trkpt>
      <trkpt lat="43.94494" lon="2.49668">
        <ele>186</ele>
        <time>2015-04-05T13:38:56Z</time>
      </trkpt>
      <trkpt lat="43.945" lon="2.49681">
        <ele>186.2</ele>
        <time>2015-04-05T13:38:58Z</time>
      </trkpt>
      <trkpt lat="43.94506" lon="2.49694">
        <ele>186.6</ele>
        <time>2015-04-05T13:39:00Z</time>
      </trkpt>
      <trkpt lat="43.94512" lon="2.49706">
        <ele>187</ele>
        <time>2015-04-05T13:39:02Z</time>
      </trkpt>
      <trkpt lat="43.94519" lon="2.49718">
        <ele>187.5</ele>
        <time>2015-04-05T13:39:04Z</time>
      </trkpt>
      <trkpt lat="43.94526" lon="2.4973">
        <ele>187.8</ele>
        <time>2015-04-05T13:39:06Z</time>
      </trkpt>
      <trkpt lat="43.94533" lon="2.49742">
        <ele>188.2</ele>
        <time>2015-04-05T13:39:08Z</time>
      </trkpt>
      <trkpt lat="43.94541" lon="2.49752">
        <ele>188.5</ele>
        <time>2015-04-05T13:39:10Z</time>
      </trkpt>
      <trkpt lat="43.94549" lon="2.49762">
        <ele>189.1</ele>
        <time>2015-04-05T13:39:12Z</time>
      </trkpt>
      <trkpt lat="43.94558" lon="2.49772">
        <ele>189.7</ele>
        <time>2015-04-05T13:39:14Z</time>
      </trkpt>
      <trkpt lat="43.94569" lon="2.49782">
        <ele>190.1</ele>
        <time>2015-04-05T13:39:16Z</time>
      </trkpt>
      <trkpt lat="43.9458" lon="2.49791">
        <ele>190.3</ele>
        <time>2015-04-05T13:39:18Z</time>
      </trkpt>
      <trkpt lat="43.9459" lon="2.49799">
        <ele>190.6</ele>
        <time>2015-04-05T13:39:20Z</time>
      </trkpt>
      <trkpt lat="43.946" lon="2.49807">
        <ele>191</ele>
        <time>2015-04-05T13:39:22Z</time>
      </trkpt>
      <trkpt lat="43.94611" lon="2.49815">
        <ele>190.9</ele>
        <time>2015-04-05T13:39:24Z</time>
      </trkpt>
      <trkpt lat="43.94623" lon="2.49823">
        <ele>190.8</ele>
        <time>2015-04-05T13:39:26Z</time>
      </trkpt>
      <trkpt lat="43.94636" lon="2.4983">
        <ele>190.4</ele>
        <time>2015-04-05T13:39:28Z</time>
      </trkpt>
      <trkpt lat="43.94647" lon="2.49836">
        <ele>190.2</ele>
        <time>2015-04-05T13:39:30Z</time>
      </trkpt>
      <trkpt lat="43.94658" lon="2.49841">
        <ele>190.4</ele>
        <time>2015-04-05T13:39:32Z</time>
      </trkpt>
      <trkpt lat="43.94669" lon="2.49845">
        <ele>189.2</ele>
        <time>2015-04-05T13:39:34Z</time>
      </trkpt>
      <trkpt lat="43.9468" lon="2.49849">
        <ele>188</ele>
        <time>2015-04-05T13:39:36Z</time>
      </trkpt>
      <trkpt lat="43.94692" lon="2.49852">
        <ele>186.3</ele>
        <time>2015-04-05T13:39:38Z</time>
      </trkpt>
      <trkpt lat="43.94704" lon="2.49854">
        <ele>185.1</ele>
        <time>2015-04-05T13:39:40Z</time>
      </trkpt>
      <trkpt lat="43.94716" lon="2.49856">
        <ele>184.1</ele>
        <time>2015-04-05T13:39:42Z</time>
      </trkpt>
      <trkpt lat="43.94728" lon="2.49857">
        <ele>183.1</ele>
        <time>2015-04-05T13:39:44Z</time>
      </trkpt>
      <trkpt lat="43.9474" lon="2.49859">
        <ele>181.7</ele>
        <time>2015-04-05T13:39:46Z</time>
      </trkpt>
      <trkpt lat="43.94753" lon="2.4986">
        <ele>181</ele>
        <time>2015-04-05T13:39:48Z</time>
      </trkpt>
      <trkpt lat="43.94765" lon="2.49862">
        <ele>179.4</ele>
        <time>2015-04-05T13:39:50Z</time>
      </trkpt>
      <trkpt lat="43.94776" lon="2.49864">
        <ele>177.4</ele>
        <time>2015-04-05T13:39:52Z</time>
      </trkpt>
      <trkpt lat="43.94788" lon="2.49866">
        <ele>174.7</ele>
        <time>2015-04-05T13:39:54Z</time>
      </trkpt>
      <trkpt lat="43.948" lon="2.49867">
        <ele>174.1</ele>
        <time>2015-04-05T13:39:56Z</time>
      </trkpt>
      <trkpt lat="43.94811" lon="2.49868">
        <ele>172.4</ele>
        <time>2015-04-05T13:39:58Z</time>
      </trkpt>
      <trkpt lat="43.94823" lon="2.49868">
        <ele>171.4</ele>
        <time>2015-04-05T13:40:00Z</time>
      </trkpt>
      <trkpt lat="43.94833" lon="2.49868">
        <ele>170.6</ele>
        <time>2015-04-05T13:40:02Z</time>
      </trkpt>
      <trkpt lat="43.94843" lon="2.49867">
        <ele>169.7</ele>
        <time>2015-04-05T13:40:04Z</time>
      </trkpt>
      <trkpt lat="43.94852" lon="2.49866">
        <ele>168.8</ele>
        <time>2015-04-05T13:40:06Z</time>
      </trkpt>
      <trkpt lat="43.94862" lon="2.49865">
        <ele>167.1</ele>
        <time>2015-04-05T13:40:08Z</time>
      </trkpt>
      <trkpt lat="43.94873" lon="2.49865">
        <ele>165</ele>
        <time>2015-04-05T13:40:10Z</time>
      </trkpt>
      <trkpt lat="43.94885" lon="2.49864">
        <ele>161.8</ele>
        <time>2015-04-05T13:40:12Z</time>
      </trkpt>
      <trkpt lat="43.94897" lon="2.49862">
        <ele>159.4</ele>
        <time>2015-04-05T13:40:14Z</time>
      </trkpt>
      <trkpt lat="43.94909" lon="2.4986">
        <ele>157.2</ele>
        <time>2015-04-05T13:40:16Z</time>
      </trkpt>
      <trkpt lat="43.94922" lon="2.49858">
        <ele>155.3</ele>
        <time>2015-04-05T13:40:18Z</time>
      </trkpt>
      <trkpt lat="43.94934" lon="2.49854">
        <ele>154.1</ele>
        <time>2015-04-05T13:40:20Z</time>
      </trkpt>
      <trkpt lat="43.94946" lon="2.49852">
        <ele>152.9</ele>
        <time>2015-04-05T13:40:22Z</time>
      </trkpt>
      <trkpt lat="43.94958" lon="2.49849">
        <ele>151.6</ele>
        <time>2015-04-05T13:40:24Z</time>
      </trkpt>
      <trkpt lat="43.9497" lon="2.49847">
        <ele>150.3</ele>
        <time>2015-04-05T13:40:26Z</time>
      </trkpt>
      <trkpt lat="43.94982" lon="2.49844">
        <ele>149</ele>
        <time>2015-04-05T13:40:28Z</time>
      </trkpt>
      <trkpt lat="43.94994" lon="2.49843">
        <ele>148.2</ele>
        <time>2015-04-05T13:40:30Z</time>
      </trkpt>
      <trkpt lat="43.95006" lon="2.49841">
        <ele>147.8</ele>
        <time>2015-04-05T13:40:32Z</time>
      </trkpt>
      <trkpt lat="43.95017" lon="2.49841">
        <ele>147.2</ele>
        <time>2015-04-05T13:40:34Z</time>
      </trkpt>
      <trkpt lat="43.95028" lon="2.4984">
        <ele>146.6</ele>
        <time>2015-04-05T13:40:36Z</time>
      </trkpt>
      <trkpt lat="43.95038" lon="2.49838">
        <ele>146</ele>
        <time>2015-04-05T13:40:38Z</time>
      </trkpt>
      <trkpt lat="43.9505" lon="2.49836">
        <ele>147</ele>
        <time>2015-04-05T13:40:41Z</time>
      </trkpt>
      <trkpt lat="43.9506" lon="2.49838">
        <ele>146.6</ele>
        <time>2015-04-05T13:40:43Z</time>
      </trkpt>
      <trkpt lat="43.9507" lon="2.49839">
        <ele>146.1</ele>
        <time>2015-04-05T13:40:45Z</time>
      </trkpt>
      <trkpt lat="43.95081" lon="2.49841">
        <ele>145</ele>
        <time>2015-04-05T13:40:47Z</time>
      </trkpt>
      <trkpt lat="43.95094" lon="2.49846">
        <ele>143.8</ele>
        <time>2015-04-05T13:40:49Z</time>
      </trkpt>
      <trkpt lat="43.95106" lon="2.49848">
        <ele>144.5</ele>
        <time>2015-04-05T13:40:51Z</time>
      </trkpt>
      <trkpt lat="43.95119" lon="2.49851">
        <ele>146</ele>
        <time>2015-04-05T13:40:54Z</time>
      </trkpt>
      <trkpt lat="43.95131" lon="2.49856">
        <ele>152.4</ele>
        <time>2015-04-05T13:40:57Z</time>
      </trkpt>
      <trkpt lat="43.95143" lon="2.49861">
        <ele>154.1</ele>
        <time>2015-04-05T13:41:00Z</time>
      </trkpt>
      <trkpt lat="43.95155" lon="2.49867">
        <ele>157.7</ele>
        <time>2015-04-05T13:41:03Z</time>
      </trkpt>
      <trkpt lat="43.95166" lon="2.49874">
        <ele>162.6</ele>
        <time>2015-04-05T13:41:05Z</time>
      </trkpt>
      <trkpt lat="43.95175" lon="2.4988">
        <ele>164.9</ele>
        <time>2015-04-05T13:41:07Z</time>
      </trkpt>
      <trkpt lat="43.95184" lon="2.49886">
        <ele>167.1</ele>
        <time>2015-04-05T13:41:09Z</time>
      </trkpt>
      <trkpt lat="43.95193" lon="2.49894">
        <ele>170.3</ele>
        <time>2015-04-05T13:41:12Z</time>
      </trkpt>
      <trkpt lat="43.95204" lon="2.49903">
        <ele>173</ele>
        <time>2015-04-05T13:41:14Z</time>
      </trkpt>
      <trkpt lat="43.95213" lon="2.49911">
        <ele>175</ele>
        <time>2015-04-05T13:41:16Z</time>
      </trkpt>
      <trkpt lat="43.95223" lon="2.4992">
        <ele>176</ele>
        <time>2015-04-05T13:41:18Z</time>
      </trkpt>
      <trkpt lat="43.95234" lon="2.49929">
        <ele>175.9</ele>
        <time>2015-04-05T13:41:20Z</time>
      </trkpt>
      <trkpt lat="43.95244" lon="2.49938">
        <ele>176.1</ele>
        <time>2015-04-05T13:41:22Z</time>
      </trkpt>
      <trkpt lat="43.95252" lon="2.49947">
        <ele>176.3</ele>
        <time>2015-04-05T13:41:24Z</time>
      </trkpt>
      <trkpt lat="43.9526" lon="2.49956">
        <ele>176.3</ele>
        <time>2015-04-05T13:41:26Z</time>
      </trkpt>
      <trkpt lat="43.95269" lon="2.49965">
        <ele>176.1</ele>
        <time>2015-04-05T13:41:28Z</time>
      </trkpt>
      <trkpt lat="43.95278" lon="2.49974">
        <ele>176.2</ele>
        <time>2015-04-05T13:41:30Z</time>
      </trkpt>
      <trkpt lat="43.95285" lon="2.49983">
        <ele>176.5</ele>
        <time>2015-04-05T13:41:32Z</time>
      </trkpt>
      <trkpt lat="43.95293" lon="2.49993">
        <ele>176.7</ele>
        <time>2015-04-05T13:41:34Z</time>
      </trkpt>
      <trkpt lat="43.95302" lon="2.50003">
        <ele>177</ele>
        <time>2015-04-05T13:41:36Z</time>
      </trkpt>
      <trkpt lat="43.9531" lon="2.50012">
        <ele>177.1</ele>
        <time>2015-04-05T13:41:38Z</time>
      </trkpt>
      <trkpt lat="43.95319" lon="2.50022">
        <ele>176.7</ele>
        <time>2015-04-05T13:41:40Z</time>
      </trkpt>
      <trkpt lat="43.95328" lon="2.50032">
        <ele>177</ele>
        <time>2015-04-05T13:41:42Z</time>
      </trkpt>
      <trkpt lat="43.95338" lon="2.50042">
        <ele>176.6</ele>
        <time>2015-04-05T13:41:44Z</time>
      </trkpt>
      <trkpt lat="43.95347" lon="2.50051">
        <ele>176.2</ele>
        <time>2015-04-05T13:41:46Z</time>
      </trkpt>
      <trkpt lat="43.95357" lon="2.50062">
        <ele>176</ele>
        <time>2015-04-05T13:41:48Z</time>
      </trkpt>
      <trkpt lat="43.95367" lon="2.50072">
        <ele>175.6</ele>
        <time>2015-04-05T13:41:50Z</time>
      </trkpt>
      <trkpt lat="43.95378" lon="2.50084">
        <ele>175.1</ele>
        <time>2015-04-05T13:41:52Z</time>
      </trkpt>
      <trkpt lat="43.95387" lon="2.50095">
        <ele>174.9</ele>
        <time>2015-04-05T13:41:54Z</time>
      </trkpt>
      <trkpt lat="43.95396" lon="2.50106">
        <ele>174.8</ele>
        <time>2015-04-05T13:41:56Z</time>
      </trkpt>
      <trkpt lat="43.95405" lon="2.50116">
        <ele>174.7</ele>
        <time>2015-04-05T13:41:58Z</time>
      </trkpt>
      <trkpt lat="43.95413" lon="2.50127">
        <ele>174.4</ele>
        <time>2015-04-05T13:42:00Z</time>
      </trkpt>
      <trkpt lat="43.95421" lon="2.50138">
        <ele>174.4</ele>
        <time>2015-04-05T13:42:02Z</time>
      </trkpt>
      <trkpt lat="43.95429" lon="2.50148">
        <ele>174</ele>
        <time>2015-04-05T13:42:04Z</time>
      </trkpt>
      <trkpt lat="43.95438" lon="2.50159">
        <ele>173.6</ele>
        <time>2015-04-05T13:42:06Z</time>
      </trkpt>
      <trkpt lat="43.95446" lon="2.5017">
        <ele>173.4</ele>
        <time>2015-04-05T13:42:08Z</time>
      </trkpt>
      <trkpt lat="43.95455" lon="2.50181">
        <ele>173.1</ele>
        <time>2015-04-05T13:42:10Z</time>
      </trkpt>
      <trkpt lat="43.95462" lon="2.50193">
        <ele>172.9</ele>
        <time>2015-04-05T13:42:12Z</time>
      </trkpt>
      <trkpt lat="43.95469" lon="2.50204">
        <ele>172.6</ele>
        <time>2015-04-05T13:42:14Z</time>
      </trkpt>
      <trkpt lat="43.95477" lon="2.50215">
        <ele>172.4</ele>
        <time>2015-04-05T13:42:16Z</time>
      </trkpt>
      <trkpt lat="43.95484" lon="2.50227">
        <ele>172.1</ele>
        <time>2015-04-05T13:42:18Z</time>
      </trkpt>
      <trkpt lat="43.95491" lon="2.5024">
        <ele>172.1</ele>
        <time>2015-04-05T13:42:20Z</time>
      </trkpt>
      <trkpt lat="43.95498" lon="2.50253">
        <ele>171.8</ele>
        <time>2015-04-05T13:42:22Z</time>
      </trkpt>
      <trkpt lat="43.95504" lon="2.50265">
        <ele>171.5</ele>
        <time>2015-04-05T13:42:24Z</time>
      </trkpt>
      <trkpt lat="43.95511" lon="2.50278">
        <ele>171.3</ele>
        <time>2015-04-05T13:42:26Z</time>
      </trkpt>
      <trkpt lat="43.95518" lon="2.5029">
        <ele>171.2</ele>
        <time>2015-04-05T13:42:28Z</time>
      </trkpt>
      <trkpt lat="43.95524" lon="2.50302">
        <ele>171.1</ele>
        <time>2015-04-05T13:42:30Z</time>
      </trkpt>
      <trkpt lat="43.95529" lon="2.50314">
        <ele>171.4</ele>
        <time>2015-04-05T13:42:32Z</time>
      </trkpt>
      <trkpt lat="43.95535" lon="2.50326">
        <ele>171.5</ele>
        <time>2015-04-05T13:42:34Z</time>
      </trkpt>
      <trkpt lat="43.95541" lon="2.50338">
        <ele>171.5</ele>
        <time>2015-04-05T13:42:36Z</time>
      </trkpt>
      <trkpt lat="43.95547" lon="2.5035">
        <ele>171.4</ele>
        <time>2015-04-05T13:42:38Z</time>
      </trkpt>
      <trkpt lat="43.95553" lon="2.50364">
        <ele>171.6</ele>
        <time>2015-04-05T13:42:40Z</time>
      </trkpt>
      <trkpt lat="43.95558" lon="2.50378">
        <ele>171.8</ele>
        <time>2015-04-05T13:42:42Z</time>
      </trkpt>
      <trkpt lat="43.95564" lon="2.50391">
        <ele>171.7</ele>
        <time>2015-04-05T13:42:44Z</time>
      </trkpt>
      <trkpt lat="43.95569" lon="2.50404">
        <ele>171.7</ele>
        <time>2015-04-05T13:42:46Z</time>
      </trkpt>
      <trkpt lat="43.95575" lon="2.50417">
        <ele>171.8</ele>
        <time>2015-04-05T13:42:48Z</time>
      </trkpt>
      <trkpt lat="43.95581" lon="2.5043">
        <ele>172.1</ele>
        <time>2015-04-05T13:42:50Z</time>
      </trkpt>
      <trkpt lat="43.95587" lon="2.50444">
        <ele>172.2</ele>
        <time>2015-04-05T13:42:52Z</time>
      </trkpt>
      <trkpt lat="43.95595" lon="2.50458">
        <ele>172.5</ele>
        <time>2015-04-05T13:42:54Z</time>
      </trkpt>
      <trkpt lat="43.95601" lon="2.50471">
        <ele>172.7</ele>
        <time>2015-04-05T13:42:56Z</time>
      </trkpt>
      <trkpt lat="43.95607" lon="2.50485">
        <ele>172.7</ele>
        <time>2015-04-05T13:42:58Z</time>
      </trkpt>
      <trkpt lat="43.95613" lon="2.50499">
        <ele>172.8</ele>
        <time>2015-04-05T13:43:00Z</time>
      </trkpt>
      <trkpt lat="43.95619" lon="2.50512">
        <ele>173</ele>
        <time>2015-04-05T13:43:02Z</time>
      </trkpt>
      <trkpt lat="43.95625" lon="2.50525">
        <ele>173.3</ele>
        <time>2015-04-05T13:43:04Z</time>
      </trkpt>
      <trkpt lat="43.95631" lon="2.50538">
        <ele>173.3</ele>
        <time>2015-04-05T13:43:06Z</time>
      </trkpt>
      <trkpt lat="43.95636" lon="2.50551">
        <ele>173.3</ele>
        <time>2015-04-05T13:43:08Z</time>
      </trkpt>
      <trkpt lat="43.95641" lon="2.50564">
        <ele>173.5</ele>
        <time>2015-04-05T13:43:10Z</time>
      </trkpt>
      <trkpt lat="43.95647" lon="2.50577">
        <ele>173.6</ele>
        <time>2015-04-05T13:43:12Z</time>
      </trkpt>
      <trkpt lat="43.95652" lon="2.50589">
        <ele>173.5</ele>
        <time>2015-04-05T13:43:14Z</time>
      </trkpt>
      <trkpt lat="43.95658" lon="2.50602">
        <ele>173.7</ele>
        <time>2015-04-05T13:43:16Z</time>
      </trkpt>
      <trkpt lat="43.95663" lon="2.50614">
        <ele>173.8</ele>
        <time>2015-04-05T13:43:18Z</time>
      </trkpt>
      <trkpt lat="43.95668" lon="2.50626">
        <ele>174.1</ele>
        <time>2015-04-05T13:43:20Z</time>
      </trkpt>
      <trkpt lat="43.95674" lon="2.50638">
        <ele>174.3</ele>
        <time>2015-04-05T13:43:22Z</time>
      </trkpt>
      <trkpt lat="43.95679" lon="2.50651">
        <ele>174.6</ele>
        <time>2015-04-05T13:43:24Z</time>
      </trkpt>
      <trkpt lat="43.95684" lon="2.50663">
        <ele>174.8</ele>
        <time>2015-04-05T13:43:26Z</time>
      </trkpt>
      <trkpt lat="43.95688" lon="2.50677">
        <ele>175.1</ele>
        <time>2015-04-05T13:43:28Z</time>
      </trkpt>
      <trkpt lat="43.95693" lon="2.50691">
        <ele>175.3</ele>
        <time>2015-04-05T13:43:30Z</time>
      </trkpt>
      <trkpt lat="43.95697" lon="2.50706">
        <ele>175.5</ele>
        <time>2015-04-05T13:43:32Z</time>
      </trkpt>
      <trkpt lat="43.95702" lon="2.5072">
        <ele>175.8</ele>
        <time>2015-04-05T13:43:34Z</time>
      </trkpt>
      <trkpt lat="43.95706" lon="2.50734">
        <ele>176.3</ele>
        <time>2015-04-05T13:43:36Z</time>
      </trkpt>
      <trkpt lat="43.95711" lon="2.50748">
        <ele>176.5</ele>
        <time>2015-04-05T13:43:38Z</time>
      </trkpt>
      <trkpt lat="43.95715" lon="2.50761">
        <ele>176.7</ele>
        <time>2015-04-05T13:43:40Z</time>
      </trkpt>
      <trkpt lat="43.95719" lon="2.50774">
        <ele>176.8</ele>
        <time>2015-04-05T13:43:42Z</time>
      </trkpt>
      <trkpt lat="43.95723" lon="2.50788">
        <ele>177</ele>
        <time>2015-04-05T13:43:44Z</time>
      </trkpt>
      <trkpt lat="43.95726" lon="2.50802">
        <ele>177.2</ele>
        <time>2015-04-05T13:43:46Z</time>
      </trkpt>
      <trkpt lat="43.95729" lon="2.50816">
        <ele>177.2</ele>
        <time>2015-04-05T13:43:48Z</time>
      </trkpt>
      <trkpt lat="43.95733" lon="2.50829">
        <ele>177.2</ele>
        <time>2015-04-05T13:43:50Z</time>
      </trkpt>
      <trkpt lat="43.95736" lon="2.50843">
        <ele>177.1</ele>
        <time>2015-04-05T13:43:52Z</time>
      </trkpt>
      <trkpt lat="43.9574" lon="2.50858">
        <ele>176.9</ele>
        <time>2015-04-05T13:43:54Z</time>
      </trkpt>
      <trkpt lat="43.95744" lon="2.50874">
        <ele>176.8</ele>
        <time>2015-04-05T13:43:56Z</time>
      </trkpt>
      <trkpt lat="43.95748" lon="2.50889">
        <ele>176.7</ele>
        <time>2015-04-05T13:43:58Z</time>
      </trkpt>
      <trkpt lat="43.95751" lon="2.50904">
        <ele>176.6</ele>
        <time>2015-04-05T13:44:00Z</time>
      </trkpt>
      <trkpt lat="43.95754" lon="2.50919">
        <ele>176.6</ele>
        <time>2015-04-05T13:44:02Z</time>
      </trkpt>
      <trkpt lat="43.95758" lon="2.50934">
        <ele>176.6</ele>
        <time>2015-04-05T13:44:04Z</time>
      </trkpt>
      <trkpt lat="43.95761" lon="2.50949">
        <ele>176.5</ele>
        <time>2015-04-05T13:44:06Z</time>
      </trkpt>
      <trkpt lat="43.95764" lon="2.50963">
        <ele>176.6</ele>
        <time>2015-04-05T13:44:08Z</time>
      </trkpt>
      <trkpt lat="43.95768" lon="2.50978">
        <ele>176.6</ele>
        <time>2015-04-05T13:44:10Z</time>
      </trkpt>
      <trkpt lat="43.95771" lon="2.50992">
        <ele>176.6</ele>
        <time>2015-04-05T13:44:12Z</time>
      </trkpt>
      <trkpt lat="43.95774" lon="2.51007">
        <ele>176.4</ele>
        <time>2015-04-05T13:44:14Z</time>
      </trkpt>
      <trkpt lat="43.95778" lon="2.51022">
        <ele>176.2</ele>
        <time>2015-04-05T13:44:16Z</time>
      </trkpt>
      <trkpt lat="43.95782" lon="2.51037">
        <ele>175.9</ele>
        <time>2015-04-05T13:44:18Z</time>
      </trkpt>
      <trkpt lat="43.95786" lon="2.51052">
        <ele>175.7</ele>
        <time>2015-04-05T13:44:20Z</time>
      </trkpt>
      <trkpt lat="43.95789" lon="2.51068">
        <ele>175.2</ele>
        <time>2015-04-05T13:44:22Z</time>
      </trkpt>
      <trkpt lat="43.95793" lon="2.51082">
        <ele>174.9</ele>
        <time>2015-04-05T13:44:24Z</time>
      </trkpt>
      <trkpt lat="43.95797" lon="2.51096">
        <ele>174.6</ele>
        <time>2015-04-05T13:44:26Z</time>
      </trkpt>
      <trkpt lat="43.958" lon="2.51111">
        <ele>174.3</ele>
        <time>2015-04-05T13:44:28Z</time>
      </trkpt>
      <trkpt lat="43.95804" lon="2.51125">
        <ele>174.1</ele>
        <time>2015-04-05T13:44:30Z</time>
      </trkpt>
      <trkpt lat="43.95806" lon="2.51138">
        <ele>174</ele>
        <time>2015-04-05T13:44:32Z</time>
      </trkpt>
      <trkpt lat="43.9581" lon="2.51152">
        <ele>173.8</ele>
        <time>2015-04-05T13:44:34Z</time>
      </trkpt>
      <trkpt lat="43.95813" lon="2.51166">
        <ele>173.7</ele>
        <time>2015-04-05T13:44:36Z</time>
      </trkpt>
      <trkpt lat="43.95816" lon="2.5118">
        <ele>173.6</ele>
        <time>2015-04-05T13:44:38Z</time>
      </trkpt>
      <trkpt lat="43.95819" lon="2.51194">
        <ele>173.4</ele>
        <time>2015-04-05T13:44:40Z</time>
      </trkpt>
      <trkpt lat="43.95823" lon="2.51209">
        <ele>173.1</ele>
        <time>2015-04-05T13:44:42Z</time>
      </trkpt>
      <trkpt lat="43.95826" lon="2.51224">
        <ele>172.8</ele>
        <time>2015-04-05T13:44:44Z</time>
      </trkpt>
      <trkpt lat="43.9583" lon="2.51239">
        <ele>172.7</ele>
        <time>2015-04-05T13:44:46Z</time>
      </trkpt>
      <trkpt lat="43.95833" lon="2.51254">
        <ele>172.7</ele>
        <time>2015-04-05T13:44:48Z</time>
      </trkpt>
      <trkpt lat="43.95836" lon="2.51268">
        <ele>172.6</ele>
        <time>2015-04-05T13:44:50Z</time>
      </trkpt>
      <trkpt lat="43.9584" lon="2.51282">
        <ele>171.9</ele>
        <time>2015-04-05T13:44:52Z</time>
      </trkpt>
      <trkpt lat="43.95843" lon="2.51296">
        <ele>171.5</ele>
        <time>2015-04-05T13:44:54Z</time>
      </trkpt>
      <trkpt lat="43.95846" lon="2.51312">
        <ele>171.2</ele>
        <time>2015-04-05T13:44:56Z</time>
      </trkpt>
      <trkpt lat="43.95851" lon="2.51326">
        <ele>170.7</ele>
        <time>2015-04-05T13:44:58Z</time>
      </trkpt>
      <trkpt lat="43.95854" lon="2.5134">
        <ele>170.4</ele>
        <time>2015-04-05T13:45:00Z</time>
      </trkpt>
      <trkpt lat="43.95858" lon="2.51354">
        <ele>169.8</ele>
        <time>2015-04-05T13:45:02Z</time>
      </trkpt>
      <trkpt lat="43.95859" lon="2.51368">
        <ele>169.4</ele>
        <time>2015-04-05T13:45:04Z</time>
      </trkpt>
      <trkpt lat="43.95862" lon="2.51383">
        <ele>169.1</ele>
        <time>2015-04-05T13:45:06Z</time>
      </trkpt>
      <trkpt lat="43.95865" lon="2.51398">
        <ele>168.7</ele>
        <time>2015-04-05T13:45:08Z</time>
      </trkpt>
      <trkpt lat="43.95866" lon="2.51412">
        <ele>168.4</ele>
        <time>2015-04-05T13:45:10Z</time>
      </trkpt>
      <trkpt lat="43.95869" lon="2.51427">
        <ele>167.9</ele>
        <time>2015-04-05T13:45:12Z</time>
      </trkpt>
      <trkpt lat="43.9587" lon="2.51441">
        <ele>167.7</ele>
        <time>2015-04-05T13:45:14Z</time>
      </trkpt>
      <trkpt lat="43.95871" lon="2.51454">
        <ele>167.8</ele>
        <time>2015-04-05T13:45:16Z</time>
      </trkpt>
      <trkpt lat="43.95872" lon="2.51467">
        <ele>167.8</ele>
        <time>2015-04-05T13:45:18Z</time>
      </trkpt>
      <trkpt lat="43.95873" lon="2.51481">
        <ele>168.1</ele>
        <time>2015-04-05T13:45:20Z</time>
      </trkpt>
      <trkpt lat="43.95874" lon="2.51494">
        <ele>168.2</ele>
        <time>2015-04-05T13:45:22Z</time>
      </trkpt>
      <trkpt lat="43.95875" lon="2.51512">
        <ele>168.3</ele>
        <time>2015-04-05T13:45:25Z</time>
      </trkpt>
      <trkpt lat="43.95877" lon="2.51532">
        <ele>168.4</ele>
        <time>2015-04-05T13:45:28Z</time>
      </trkpt>
      <trkpt lat="43.95878" lon="2.51545">
        <ele>168.7</ele>
        <time>2015-04-05T13:45:30Z</time>
      </trkpt>
      <trkpt lat="43.95878" lon="2.51563">
        <ele>169</ele>
        <time>2015-04-05T13:45:33Z</time>
      </trkpt>
      <trkpt lat="43.9588" lon="2.51576">
        <ele>169</ele>
        <time>2015-04-05T13:45:35Z</time>
      </trkpt>
      <trkpt lat="43.95881" lon="2.51589">
        <ele>168.9</ele>
        <time>2015-04-05T13:45:37Z</time>
      </trkpt>
      <trkpt lat="43.95882" lon="2.51602">
        <ele>168.8</ele>
        <time>2015-04-05T13:45:39Z</time>
      </trkpt>
      <trkpt lat="43.95884" lon="2.51615">
        <ele>168.9</ele>
        <time>2015-04-05T13:45:41Z</time>
      </trkpt>
      <trkpt lat="43.95887" lon="2.51629">
        <ele>169.1</ele>
        <time>2015-04-05T13:45:43Z</time>
      </trkpt>
      <trkpt lat="43.95889" lon="2.51642">
        <ele>169.3</ele>
        <time>2015-04-05T13:45:45Z</time>
      </trkpt>
      <trkpt lat="43.95893" lon="2.51654">
        <ele>169.3</ele>
        <time>2015-04-05T13:45:47Z</time>
      </trkpt>
      <trkpt lat="43.95896" lon="2.51667">
        <ele>169.1</ele>
        <time>2015-04-05T13:45:49Z</time>
      </trkpt>
      <trkpt lat="43.959" lon="2.51682">
        <ele>169</ele>
        <time>2015-04-05T13:45:51Z</time>
      </trkpt>
      <trkpt lat="43.95905" lon="2.51696">
        <ele>169.3</ele>
        <time>2015-04-05T13:45:53Z</time>
      </trkpt>
      <trkpt lat="43.9591" lon="2.51711">
        <ele>169.3</ele>
        <time>2015-04-05T13:45:55Z</time>
      </trkpt>
      <trkpt lat="43.95915" lon="2.51727">
        <ele>169.3</ele>
        <time>2015-04-05T13:45:57Z</time>
      </trkpt>
      <trkpt lat="43.95919" lon="2.51743">
        <ele>169.5</ele>
        <time>2015-04-05T13:45:59Z</time>
      </trkpt>
      <trkpt lat="43.95924" lon="2.51759">
        <ele>169.8</ele>
        <time>2015-04-05T13:46:01Z</time>
      </trkpt>
      <trkpt lat="43.9593" lon="2.51774">
        <ele>169.9</ele>
        <time>2015-04-05T13:46:03Z</time>
      </trkpt>
      <trkpt lat="43.95936" lon="2.51786">
        <ele>170.2</ele>
        <time>2015-04-05T13:46:05Z</time>
      </trkpt>
      <trkpt lat="43.9594" lon="2.51798">
        <ele>170.4</ele>
        <time>2015-04-05T13:46:07Z</time>
      </trkpt>
      <trkpt lat="43.95947" lon="2.51808">
        <ele>170.8</ele>
        <time>2015-04-05T13:46:09Z</time>
      </trkpt>
      <trkpt lat="43.95955" lon="2.51819">
        <ele>170.9</ele>
        <time>2015-04-05T13:46:11Z</time>
      </trkpt>
      <trkpt lat="43.95962" lon="2.51829">
        <ele>170.6</ele>
        <time>2015-04-05T13:46:13Z</time>
      </trkpt>
      <trkpt lat="43.9597" lon="2.51839">
        <ele>170.2</ele>
        <time>2015-04-05T13:46:15Z</time>
      </trkpt>
      <trkpt lat="43.95977" lon="2.51847">
        <ele>170</ele>
        <time>2015-04-05T13:46:17Z</time>
      </trkpt>
      <trkpt lat="43.95985" lon="2.51854">
        <ele>169.7</ele>
        <time>2015-04-05T13:46:19Z</time>
      </trkpt>
      <trkpt lat="43.95994" lon="2.51863">
        <ele>169.4</ele>
        <time>2015-04-05T13:46:21Z</time>
      </trkpt>
      <trkpt lat="43.96005" lon="2.51872">
        <ele>169.1</ele>
        <time>2015-04-05T13:46:23Z</time>
      </trkpt>
      <trkpt lat="43.96014" lon="2.51881">
        <ele>168.9</ele>
        <time>2015-04-05T13:46:25Z</time>
      </trkpt>
      <trkpt lat="43.96022" lon="2.51888">
        <ele>168.7</ele>
        <time>2015-04-05T13:46:27Z</time>
      </trkpt>
      <trkpt lat="43.96034" lon="2.51899">
        <ele>168.5</ele>
        <time>2015-04-05T13:46:30Z</time>
      </trkpt>
      <trkpt lat="43.96043" lon="2.51905">
        <ele>168.2</ele>
        <time>2015-04-05T13:46:32Z</time>
      </trkpt>
      <trkpt lat="43.96053" lon="2.51909">
        <ele>168.1</ele>
        <time>2015-04-05T13:46:35Z</time>
      </trkpt>
      <trkpt lat="43.96064" lon="2.51915">
        <ele>168.2</ele>
        <time>2015-04-05T13:46:37Z</time>
      </trkpt>
      <trkpt lat="43.96074" lon="2.51921">
        <ele>168.3</ele>
        <time>2015-04-05T13:46:39Z</time>
      </trkpt>
      <trkpt lat="43.96083" lon="2.51926">
        <ele>168.5</ele>
        <time>2015-04-05T13:46:41Z</time>
      </trkpt>
      <trkpt lat="43.96091" lon="2.5193">
        <ele>168.5</ele>
        <time>2015-04-05T13:46:43Z</time>
      </trkpt>
      <trkpt lat="43.96102" lon="2.51935">
        <ele>168.8</ele>
        <time>2015-04-05T13:46:45Z</time>
      </trkpt>
      <trkpt lat="43.96112" lon="2.51939">
        <ele>169</ele>
        <time>2015-04-05T13:46:47Z</time>
      </trkpt>
      <trkpt lat="43.96121" lon="2.51942">
        <ele>169.2</ele>
        <time>2015-04-05T13:46:49Z</time>
      </trkpt>
      <trkpt lat="43.96131" lon="2.51946">
        <ele>169</ele>
        <time>2015-04-05T13:46:51Z</time>
      </trkpt>
      <trkpt lat="43.96142" lon="2.51949">
        <ele>168.4</ele>
        <time>2015-04-05T13:46:53Z</time>
      </trkpt>
      <trkpt lat="43.96153" lon="2.51954">
        <ele>168.7</ele>
        <time>2015-04-05T13:46:55Z</time>
      </trkpt>
      <trkpt lat="43.96166" lon="2.51958">
        <ele>167.7</ele>
        <time>2015-04-05T13:46:57Z</time>
      </trkpt>
      <trkpt lat="43.96178" lon="2.51962">
        <ele>167.1</ele>
        <time>2015-04-05T13:46:59Z</time>
      </trkpt>
      <trkpt lat="43.9619" lon="2.51967">
        <ele>166.8</ele>
        <time>2015-04-05T13:47:01Z</time>
      </trkpt>
      <trkpt lat="43.96203" lon="2.51972">
        <ele>166.5</ele>
        <time>2015-04-05T13:47:03Z</time>
      </trkpt>
      <trkpt lat="43.96213" lon="2.51975">
        <ele>166</ele>
        <time>2015-04-05T13:47:05Z</time>
      </trkpt>
      <trkpt lat="43.96223" lon="2.51977">
        <ele>166.2</ele>
        <time>2015-04-05T13:47:07Z</time>
      </trkpt>
      <trkpt lat="43.96234" lon="2.51981">
        <ele>168.3</ele>
        <time>2015-04-05T13:47:09Z</time>
      </trkpt>
      <trkpt lat="43.96246" lon="2.51984">
        <ele>169.8</ele>
        <time>2015-04-05T13:47:11Z</time>
      </trkpt>
      <trkpt lat="43.96257" lon="2.51987">
        <ele>171.2</ele>
        <time>2015-04-05T13:47:13Z</time>
      </trkpt>
      <trkpt lat="43.96269" lon="2.5199">
        <ele>172.2</ele>
        <time>2015-04-05T13:47:15Z</time>
      </trkpt>
      <trkpt lat="43.96281" lon="2.51993">
        <ele>173.3</ele>
        <time>2015-04-05T13:47:17Z</time>
      </trkpt>
      <trkpt lat="43.96292" lon="2.51996">
        <ele>175</ele>
        <time>2015-04-05T13:47:19Z</time>
      </trkpt>
      <trkpt lat="43.96302" lon="2.51999">
        <ele>174.8</ele>
        <time>2015-04-05T13:47:21Z</time>
      </trkpt>
      <trkpt lat="43.96314" lon="2.52002">
        <ele>176.1</ele>
        <time>2015-04-05T13:47:23Z</time>
      </trkpt>
      <trkpt lat="43.96324" lon="2.52005">
        <ele>177.2</ele>
        <time>2015-04-05T13:47:25Z</time>
      </trkpt>
      <trkpt lat="43.96334" lon="2.52007">
        <ele>180.2</ele>
        <time>2015-04-05T13:47:27Z</time>
      </trkpt>
      <trkpt lat="43.96345" lon="2.5201">
        <ele>183.6</ele>
        <time>2015-04-05T13:47:29Z</time>
      </trkpt>
      <trkpt lat="43.96356" lon="2.52013">
        <ele>186.9</ele>
        <time>2015-04-05T13:47:31Z</time>
      </trkpt>
      <trkpt lat="43.96369" lon="2.52019">
        <ele>187.9</ele>
        <time>2015-04-05T13:47:33Z</time>
      </trkpt>
      <trkpt lat="43.9638" lon="2.52022">
        <ele>190.2</ele>
        <time>2015-04-05T13:47:35Z</time>
      </trkpt>
      <trkpt lat="43.9639" lon="2.52026">
        <ele>191.3</ele>
        <time>2015-04-05T13:47:37Z</time>
      </trkpt>
      <trkpt lat="43.964" lon="2.52029">
        <ele>193.8</ele>
        <time>2015-04-05T13:47:39Z</time>
      </trkpt>
      <trkpt lat="43.9641" lon="2.52033">
        <ele>195.6</ele>
        <time>2015-04-05T13:47:41Z</time>
      </trkpt>
      <trkpt lat="43.9642" lon="2.52035">
        <ele>197</ele>
        <time>2015-04-05T13:47:43Z</time>
      </trkpt>
      <trkpt lat="43.96431" lon="2.52038">
        <ele>196.9</ele>
        <time>2015-04-05T13:47:45Z</time>
      </trkpt>
      <trkpt lat="43.96441" lon="2.52041">
        <ele>196.5</ele>
        <time>2015-04-05T13:47:47Z</time>
      </trkpt>
      <trkpt lat="43.96453" lon="2.52043">
        <ele>194.4</ele>
        <time>2015-04-05T13:47:49Z</time>
      </trkpt>
      <trkpt lat="43.96465" lon="2.52047">
        <ele>193.2</ele>
        <time>2015-04-05T13:47:51Z</time>
      </trkpt>
      <trkpt lat="43.96476" lon="2.5205">
        <ele>193.4</ele>
        <time>2015-04-05T13:47:53Z</time>
      </trkpt>
      <trkpt lat="43.96486" lon="2.52053">
        <ele>193.2</ele>
        <time>2015-04-05T13:47:55Z</time>
      </trkpt>
      <trkpt lat="43.96497" lon="2.52056">
        <ele>193.5</ele>
        <time>2015-04-05T13:47:57Z</time>
      </trkpt>
      <trkpt lat="43.96509" lon="2.52059">
        <ele>191.3</ele>
        <time>2015-04-05T13:47:59Z</time>
      </trkpt>
      <trkpt lat="43.9652" lon="2.52063">
        <ele>191.1</ele>
        <time>2015-04-05T13:48:01Z</time>
      </trkpt>
      <trkpt lat="43.96532" lon="2.52066">
        <ele>188.4</ele>
        <time>2015-04-05T13:48:03Z</time>
      </trkpt>
      <trkpt lat="43.96545" lon="2.5207">
        <ele>185</ele>
        <time>2015-04-05T13:48:05Z</time>
      </trkpt>
      <trkpt lat="43.96556" lon="2.52073">
        <ele>184.2</ele>
        <time>2015-04-05T13:48:07Z</time>
      </trkpt>
      <trkpt lat="43.96567" lon="2.52076">
        <ele>183.5</ele>
        <time>2015-04-05T13:48:09Z</time>
      </trkpt>
      <trkpt lat="43.96578" lon="2.52079">
        <ele>182.5</ele>
        <time>2015-04-05T13:48:11Z</time>
      </trkpt>
      <trkpt lat="43.9659" lon="2.52083">
        <ele>180.6</ele>
        <time>2015-04-05T13:48:13Z</time>
      </trkpt>
      <trkpt lat="43.96601" lon="2.52086">
        <ele>179.4</ele>
        <time>2015-04-05T13:48:15Z</time>
      </trkpt>
      <trkpt lat="43.96613" lon="2.52089">
        <ele>178.6</ele>
        <time>2015-04-05T13:48:17Z</time>
      </trkpt>
      <trkpt lat="43.96624" lon="2.52092">
        <ele>178.8</ele>
        <time>2015-04-05T13:48:19Z</time>
      </trkpt>
      <trkpt lat="43.96634" lon="2.52096">
        <ele>178.7</ele>
        <time>2015-04-05T13:48:21Z</time>
      </trkpt>
      <trkpt lat="43.96645" lon="2.52099">
        <ele>179</ele>
        <time>2015-04-05T13:48:23Z</time>
      </trkpt>
      <trkpt lat="43.96655" lon="2.52101">
        <ele>179.3</ele>
        <time>2015-04-05T13:48:25Z</time>
      </trkpt>
      <trkpt lat="43.96664" lon="2.52103">
        <ele>180.5</ele>
        <time>2015-04-05T13:48:27Z</time>
      </trkpt>
      <trkpt lat="43.96674" lon="2.52105">
        <ele>182</ele>
        <time>2015-04-05T13:48:29Z</time>
      </trkpt>
      <trkpt lat="43.96684" lon="2.52108">
        <ele>183.1</ele>
        <time>2015-04-05T13:48:31Z</time>
      </trkpt>
      <trkpt lat="43.96694" lon="2.5211">
        <ele>183.5</ele>
        <time>2015-04-05T13:48:33Z</time>
      </trkpt>
      <trkpt lat="43.96704" lon="2.52114">
        <ele>184.3</ele>
        <time>2015-04-05T13:48:35Z</time>
      </trkpt>
      <trkpt lat="43.96713" lon="2.52117">
        <ele>185.1</ele>
        <time>2015-04-05T13:48:37Z</time>
      </trkpt>
      <trkpt lat="43.96725" lon="2.52118">
        <ele>185.5</ele>
        <time>2015-04-05T13:48:40Z</time>
      </trkpt>
      <trkpt lat="43.96734" lon="2.52119">
        <ele>186.4</ele>
        <time>2015-04-05T13:48:43Z</time>
      </trkpt>
      <trkpt lat="43.96747" lon="2.52122">
        <ele>188.5</ele>
        <time>2015-04-05T13:48:47Z</time>
      </trkpt>
      <trkpt lat="43.96756" lon="2.52127">
        <ele>189</ele>
        <time>2015-04-05T13:48:49Z</time>
      </trkpt>
      <trkpt lat="43.96765" lon="2.52131">
        <ele>191</ele>
        <time>2015-04-05T13:48:51Z</time>
      </trkpt>
      <trkpt lat="43.96777" lon="2.52137">
        <ele>193.2</ele>
        <time>2015-04-05T13:48:54Z</time>
      </trkpt>
      <trkpt lat="43.96786" lon="2.5214">
        <ele>194.3</ele>
        <time>2015-04-05T13:48:56Z</time>
      </trkpt>
      <trkpt lat="43.96796" lon="2.52143">
        <ele>194.9</ele>
        <time>2015-04-05T13:48:58Z</time>
      </trkpt>
      <trkpt lat="43.96806" lon="2.52148">
        <ele>195.8</ele>
        <time>2015-04-05T13:49:00Z</time>
      </trkpt>
      <trkpt lat="43.96817" lon="2.52153">
        <ele>195.4</ele>
        <time>2015-04-05T13:49:02Z</time>
      </trkpt>
      <trkpt lat="43.96828" lon="2.52157">
        <ele>195.2</ele>
        <time>2015-04-05T13:49:04Z</time>
      </trkpt>
      <trkpt lat="43.9684" lon="2.52163">
        <ele>195.3</ele>
        <time>2015-04-05T13:49:06Z</time>
      </trkpt>
      <trkpt lat="43.96849" lon="2.52168">
        <ele>196</ele>
        <time>2015-04-05T13:49:08Z</time>
      </trkpt>
      <trkpt lat="43.96859" lon="2.52172">
        <ele>196.7</ele>
        <time>2015-04-05T13:49:10Z</time>
      </trkpt>
      <trkpt lat="43.96871" lon="2.52179">
        <ele>195.8</ele>
        <time>2015-04-05T13:49:12Z</time>
      </trkpt>
      <trkpt lat="43.96881" lon="2.52185">
        <ele>195.4</ele>
        <time>2015-04-05T13:49:14Z</time>
      </trkpt>
      <trkpt lat="43.96892" lon="2.52189">
        <ele>195.1</ele>
        <time>2015-04-05T13:49:16Z</time>
      </trkpt>
      <trkpt lat="43.96902" lon="2.52194">
        <ele>194.3</ele>
        <time>2015-04-05T13:49:18Z</time>
      </trkpt>
      <trkpt lat="43.96912" lon="2.52199">
        <ele>194.8</ele>
        <time>2015-04-05T13:49:20Z</time>
      </trkpt>
      <trkpt lat="43.9692" lon="2.52202">
        <ele>195.2</ele>
        <time>2015-04-05T13:49:22Z</time>
      </trkpt>
      <trkpt lat="43.96929" lon="2.52207">
        <ele>195.6</ele>
        <time>2015-04-05T13:49:24Z</time>
      </trkpt>
      <trkpt lat="43.96939" lon="2.52211">
        <ele>195.5</ele>
        <time>2015-04-05T13:49:26Z</time>
      </trkpt>
      <trkpt lat="43.96948" lon="2.52215">
        <ele>195.8</ele>
        <time>2015-04-05T13:49:28Z</time>
      </trkpt>
      <trkpt lat="43.96957" lon="2.52219">
        <ele>195.6</ele>
        <time>2015-04-05T13:49:30Z</time>
      </trkpt>
      <trkpt lat="43.9697" lon="2.52226">
        <ele>195.5</ele>
        <time>2015-04-05T13:49:33Z</time>
      </trkpt>
      <trkpt lat="43.96979" lon="2.52231">
        <ele>194.9</ele>
        <time>2015-04-05T13:49:35Z</time>
      </trkpt>
      <trkpt lat="43.9699" lon="2.52236">
        <ele>194.6</ele>
        <time>2015-04-05T13:49:37Z</time>
      </trkpt>
      <trkpt lat="43.97" lon="2.52241">
        <ele>194.3</ele>
        <time>2015-04-05T13:49:39Z</time>
      </trkpt>
      <trkpt lat="43.9701" lon="2.52245">
        <ele>193.6</ele>
        <time>2015-04-05T13:49:41Z</time>
      </trkpt>
      <trkpt lat="43.97019" lon="2.5225">
        <ele>193.5</ele>
        <time>2015-04-05T13:49:43Z</time>
      </trkpt>
      <trkpt lat="43.97028" lon="2.52253">
        <ele>193.9</ele>
        <time>2015-04-05T13:49:45Z</time>
      </trkpt>
      <trkpt lat="43.97038" lon="2.52257">
        <ele>193.6</ele>
        <time>2015-04-05T13:49:47Z</time>
      </trkpt>
      <trkpt lat="43.97047" lon="2.52262">
        <ele>193.5</ele>
        <time>2015-04-05T13:49:49Z</time>
      </trkpt>
      <trkpt lat="43.97057" lon="2.52265">
        <ele>193.1</ele>
        <time>2015-04-05T13:49:51Z</time>
      </trkpt>
      <trkpt lat="43.97066" lon="2.52268">
        <ele>192.9</ele>
        <time>2015-04-05T13:49:53Z</time>
      </trkpt>
      <trkpt lat="43.97075" lon="2.52271">
        <ele>192.7</ele>
        <time>2015-04-05T13:49:55Z</time>
      </trkpt>
      <trkpt lat="43.97084" lon="2.52274">
        <ele>193</ele>
        <time>2015-04-05T13:49:57Z</time>
      </trkpt>
      <trkpt lat="43.97093" lon="2.52275">
        <ele>193.5</ele>
        <time>2015-04-05T13:49:59Z</time>
      </trkpt>
      <trkpt lat="43.97106" lon="2.52276">
        <ele>195.3</ele>
        <time>2015-04-05T13:50:02Z</time>
      </trkpt>
      <trkpt lat="43.97115" lon="2.52276">
        <ele>195.9</ele>
        <time>2015-04-05T13:50:04Z</time>
      </trkpt>
      <trkpt lat="43.97124" lon="2.52275">
        <ele>196.7</ele>
        <time>2015-04-05T13:50:06Z</time>
      </trkpt>
      <trkpt lat="43.97135" lon="2.52275">
        <ele>197.2</ele>
        <time>2015-04-05T13:50:08Z</time>
      </trkpt>
      <trkpt lat="43.97145" lon="2.52275">
        <ele>197.1</ele>
        <time>2015-04-05T13:50:10Z</time>
      </trkpt>
      <trkpt lat="43.97156" lon="2.52274">
        <ele>195.8</ele>
        <time>2015-04-05T13:50:12Z</time>
      </trkpt>
      <trkpt lat="43.97166" lon="2.52272">
        <ele>195.6</ele>
        <time>2015-04-05T13:50:14Z</time>
      </trkpt>
      <trkpt lat="43.97176" lon="2.52271">
        <ele>195.2</ele>
        <time>2015-04-05T13:50:16Z</time>
      </trkpt>
      <trkpt lat="43.97186" lon="2.52268">
        <ele>194.3</ele>
        <time>2015-04-05T13:50:18Z</time>
      </trkpt>
      <trkpt lat="43.97196" lon="2.52266">
        <ele>193.3</ele>
        <time>2015-04-05T13:50:20Z</time>
      </trkpt>
      <trkpt lat="43.97206" lon="2.52262">
        <ele>192.4</ele>
        <time>2015-04-05T13:50:22Z</time>
      </trkpt>
      <trkpt lat="43.97216" lon="2.52258">
        <ele>191.2</ele>
        <time>2015-04-05T13:50:24Z</time>
      </trkpt>
      <trkpt lat="43.97225" lon="2.52254">
        <ele>190.5</ele>
        <time>2015-04-05T13:50:26Z</time>
      </trkpt>
      <trkpt lat="43.97234" lon="2.5225">
        <ele>189.7</ele>
        <time>2015-04-05T13:50:28Z</time>
      </trkpt>
      <trkpt lat="43.97244" lon="2.52246">
        <ele>189.1</ele>
        <time>2015-04-05T13:50:30Z</time>
      </trkpt>
      <trkpt lat="43.97254" lon="2.52243">
        <ele>188.5</ele>
        <time>2015-04-05T13:50:32Z</time>
      </trkpt>
      <trkpt lat="43.97264" lon="2.52239">
        <ele>187.6</ele>
        <time>2015-04-05T13:50:34Z</time>
      </trkpt>
      <trkpt lat="43.97274" lon="2.52235">
        <ele>186.6</ele>
        <time>2015-04-05T13:50:36Z</time>
      </trkpt>
      <trkpt lat="43.97284" lon="2.52231">
        <ele>186.5</ele>
        <time>2015-04-05T13:50:38Z</time>
      </trkpt>
      <trkpt lat="43.97294" lon="2.52227">
        <ele>186.5</ele>
        <time>2015-04-05T13:50:40Z</time>
      </trkpt>
      <trkpt lat="43.97304" lon="2.52223">
        <ele>186.8</ele>
        <time>2015-04-05T13:50:42Z</time>
      </trkpt>
      <trkpt lat="43.97312" lon="2.52218">
        <ele>187.1</ele>
        <time>2015-04-05T13:50:44Z</time>
      </trkpt>
      <trkpt lat="43.9732" lon="2.52212">
        <ele>187.5</ele>
        <time>2015-04-05T13:50:46Z</time>
      </trkpt>
      <trkpt lat="43.97328" lon="2.52205">
        <ele>188.1</ele>
        <time>2015-04-05T13:50:48Z</time>
      </trkpt>
      <trkpt lat="43.97338" lon="2.52197">
        <ele>188.8</ele>
        <time>2015-04-05T13:50:51Z</time>
      </trkpt>
      <trkpt lat="43.97346" lon="2.52189">
        <ele>189.2</ele>
        <time>2015-04-05T13:50:53Z</time>
      </trkpt>
      <trkpt lat="43.97353" lon="2.5218">
        <ele>189.5</ele>
        <time>2015-04-05T13:50:55Z</time>
      </trkpt>
      <trkpt lat="43.97363" lon="2.52171">
        <ele>189.9</ele>
        <time>2015-04-05T13:50:58Z</time>
      </trkpt>
      <trkpt lat="43.97377" lon="2.52176">
        <ele>189.8</ele>
        <time>2015-04-05T13:50:59Z</time>
      </trkpt>
      <trkpt lat="43.97391" lon="2.52175">
        <ele>189.9</ele>
        <time>2015-04-05T13:51:01Z</time>
      </trkpt>
      <trkpt lat="43.97404" lon="2.52171">
        <ele>189.9</ele>
        <time>2015-04-05T13:51:03Z</time>
      </trkpt>
      <trkpt lat="43.97415" lon="2.52166">
        <ele>189.4</ele>
        <time>2015-04-05T13:51:05Z</time>
      </trkpt>
      <trkpt lat="43.97426" lon="2.52163">
        <ele>188.4</ele>
        <time>2015-04-05T13:51:07Z</time>
      </trkpt>
      <trkpt lat="43.97437" lon="2.52161">
        <ele>187.6</ele>
        <time>2015-04-05T13:51:09Z</time>
      </trkpt>
      <trkpt lat="43.97447" lon="2.52158">
        <ele>186.5</ele>
        <time>2015-04-05T13:51:11Z</time>
      </trkpt>
      <trkpt lat="43.97458" lon="2.52156">
        <ele>185</ele>
        <time>2015-04-05T13:51:13Z</time>
      </trkpt>
      <trkpt lat="43.97469" lon="2.52154">
        <ele>183.5</ele>
        <time>2015-04-05T13:51:15Z</time>
      </trkpt>
      <trkpt lat="43.97479" lon="2.52152">
        <ele>181.9</ele>
        <time>2015-04-05T13:51:17Z</time>
      </trkpt>
      <trkpt lat="43.97488" lon="2.52152">
        <ele>181.1</ele>
        <time>2015-04-05T13:51:19Z</time>
      </trkpt>
      <trkpt lat="43.97498" lon="2.52151">
        <ele>179.4</ele>
        <time>2015-04-05T13:51:21Z</time>
      </trkpt>
      <trkpt lat="43.97509" lon="2.52151">
        <ele>179</ele>
        <time>2015-04-05T13:51:23Z</time>
      </trkpt>
      <trkpt lat="43.97519" lon="2.52152">
        <ele>178.3</ele>
        <time>2015-04-05T13:51:25Z</time>
      </trkpt>
      <trkpt lat="43.97529" lon="2.52154">
        <ele>178.6</ele>
        <time>2015-04-05T13:51:27Z</time>
      </trkpt>
      <trkpt lat="43.97539" lon="2.52157">
        <ele>178.4</ele>
        <time>2015-04-05T13:51:29Z</time>
      </trkpt>
      <trkpt lat="43.97549" lon="2.5216">
        <ele>179.2</ele>
        <time>2015-04-05T13:51:31Z</time>
      </trkpt>
      <trkpt lat="43.97559" lon="2.52163">
        <ele>179.2</ele>
        <time>2015-04-05T13:51:33Z</time>
      </trkpt>
      <trkpt lat="43.97569" lon="2.52167">
        <ele>179.3</ele>
        <time>2015-04-05T13:51:35Z</time>
      </trkpt>
      <trkpt lat="43.97579" lon="2.52172">
        <ele>179</ele>
        <time>2015-04-05T13:51:37Z</time>
      </trkpt>
      <trkpt lat="43.97589" lon="2.52177">
        <ele>179.1</ele>
        <time>2015-04-05T13:51:39Z</time>
      </trkpt>
      <trkpt lat="43.97598" lon="2.52185">
        <ele>178.8</ele>
        <time>2015-04-05T13:51:41Z</time>
      </trkpt>
      <trkpt lat="43.97608" lon="2.52193">
        <ele>178.9</ele>
        <time>2015-04-05T13:51:43Z</time>
      </trkpt>
      <trkpt lat="43.97617" lon="2.52202">
        <ele>178.9</ele>
        <time>2015-04-05T13:51:45Z</time>
      </trkpt>
      <trkpt lat="43.97627" lon="2.52211">
        <ele>179</ele>
        <time>2015-04-05T13:51:47Z</time>
      </trkpt>
      <trkpt lat="43.97637" lon="2.52219">
        <ele>179.2</ele>
        <time>2015-04-05T13:51:49Z</time>
      </trkpt>
      <trkpt lat="43.97646" lon="2.52228">
        <ele>179.5</ele>
        <time>2015-04-05T13:51:51Z</time>
      </trkpt>
      <trkpt lat="43.97656" lon="2.52238">
        <ele>179.7</ele>
        <time>2015-04-05T13:51:53Z</time>
      </trkpt>
      <trkpt lat="43.97665" lon="2.52247">
        <ele>179.5</ele>
        <time>2015-04-05T13:51:55Z</time>
      </trkpt>
      <trkpt lat="43.97675" lon="2.52256">
        <ele>179.6</ele>
        <time>2015-04-05T13:51:57Z</time>
      </trkpt>
      <trkpt lat="43.97684" lon="2.52266">
        <ele>179.8</ele>
        <time>2015-04-05T13:51:59Z</time>
      </trkpt>
      <trkpt lat="43.97692" lon="2.52277">
        <ele>179.9</ele>
        <time>2015-04-05T13:52:01Z</time>
      </trkpt>
      <trkpt lat="43.977" lon="2.52287">
        <ele>179.8</ele>
        <time>2015-04-05T13:52:03Z</time>
      </trkpt>
      <trkpt lat="43.97706" lon="2.523">
        <ele>179.7</ele>
        <time>2015-04-05T13:52:05Z</time>
      </trkpt>
      <trkpt lat="43.97714" lon="2.52311">
        <ele>179.5</ele>
        <time>2015-04-05T13:52:07Z</time>
      </trkpt>
      <trkpt lat="43.9772" lon="2.52324">
        <ele>179.5</ele>
        <time>2015-04-05T13:52:09Z</time>
      </trkpt>
      <trkpt lat="43.97728" lon="2.52336">
        <ele>179.6</ele>
        <time>2015-04-05T13:52:11Z</time>
      </trkpt>
      <trkpt lat="43.97735" lon="2.5235">
        <ele>179.7</ele>
        <time>2015-04-05T13:52:13Z</time>
      </trkpt>
      <trkpt lat="43.9774" lon="2.52363">
        <ele>179.7</ele>
        <time>2015-04-05T13:52:15Z</time>
      </trkpt>
      <trkpt lat="43.97746" lon="2.52378">
        <ele>179.7</ele>
        <time>2015-04-05T13:52:17Z</time>
      </trkpt>
      <trkpt lat="43.97751" lon="2.52391">
        <ele>179.7</ele>
        <time>2015-04-05T13:52:19Z</time>
      </trkpt>
      <trkpt lat="43.97755" lon="2.52406">
        <ele>179.8</ele>
        <time>2015-04-05T13:52:21Z</time>
      </trkpt>
      <trkpt lat="43.9776" lon="2.52419">
        <ele>179.9</ele>
        <time>2015-04-05T13:52:23Z</time>
      </trkpt>
      <trkpt lat="43.97764" lon="2.52433">
        <ele>180.1</ele>
        <time>2015-04-05T13:52:25Z</time>
      </trkpt>
      <trkpt lat="43.97767" lon="2.52448">
        <ele>180.2</ele>
        <time>2015-04-05T13:52:27Z</time>
      </trkpt>
      <trkpt lat="43.97771" lon="2.52463">
        <ele>180.2</ele>
        <time>2015-04-05T13:52:29Z</time>
      </trkpt>
      <trkpt lat="43.97775" lon="2.52478">
        <ele>180.1</ele>
        <time>2015-04-05T13:52:31Z</time>
      </trkpt>
      <trkpt lat="43.97779" lon="2.52493">
        <ele>180</ele>
        <time>2015-04-05T13:52:33Z</time>
      </trkpt>
      <trkpt lat="43.97782" lon="2.52507">
        <ele>179.9</ele>
        <time>2015-04-05T13:52:35Z</time>
      </trkpt>
      <trkpt lat="43.97786" lon="2.52522">
        <ele>179.8</ele>
        <time>2015-04-05T13:52:37Z</time>
      </trkpt>
      <trkpt lat="43.97789" lon="2.52536">
        <ele>179.6</ele>
        <time>2015-04-05T13:52:39Z</time>
      </trkpt>
      <trkpt lat="43.97793" lon="2.52551">
        <ele>179.2</ele>
        <time>2015-04-05T13:52:41Z</time>
      </trkpt>
      <trkpt lat="43.97797" lon="2.52566">
        <ele>178.7</ele>
        <time>2015-04-05T13:52:43Z</time>
      </trkpt>
      <trkpt lat="43.978" lon="2.52582">
        <ele>178.3</ele>
        <time>2015-04-05T13:52:45Z</time>
      </trkpt>
      <trkpt lat="43.97803" lon="2.52597">
        <ele>178.1</ele>
        <time>2015-04-05T13:52:47Z</time>
      </trkpt>
      <trkpt lat="43.97807" lon="2.52612">
        <ele>177.6</ele>
        <time>2015-04-05T13:52:49Z</time>
      </trkpt>
      <trkpt lat="43.97811" lon="2.52627">
        <ele>177.3</ele>
        <time>2015-04-05T13:52:51Z</time>
      </trkpt>
      <trkpt lat="43.97815" lon="2.52642">
        <ele>177.3</ele>
        <time>2015-04-05T13:52:53Z</time>
      </trkpt>
      <trkpt lat="43.9782" lon="2.52655">
        <ele>177</ele>
        <time>2015-04-05T13:52:55Z</time>
      </trkpt>
      <trkpt lat="43.97825" lon="2.52668">
        <ele>176.7</ele>
        <time>2015-04-05T13:52:57Z</time>
      </trkpt>
      <trkpt lat="43.9783" lon="2.52681">
        <ele>176.3</ele>
        <time>2015-04-05T13:52:59Z</time>
      </trkpt>
      <trkpt lat="43.97835" lon="2.52693">
        <ele>176</ele>
        <time>2015-04-05T13:53:01Z</time>
      </trkpt>
      <trkpt lat="43.9784" lon="2.52705">
        <ele>175.6</ele>
        <time>2015-04-05T13:53:03Z</time>
      </trkpt>
      <trkpt lat="43.97845" lon="2.52716">
        <ele>175.4</ele>
        <time>2015-04-05T13:53:05Z</time>
      </trkpt>
      <trkpt lat="43.97851" lon="2.52727">
        <ele>175.1</ele>
        <time>2015-04-05T13:53:08Z</time>
      </trkpt>
      <trkpt lat="43.9786" lon="2.52732">
        <ele>175.3</ele>
        <time>2015-04-05T13:54:07Z</time>
      </trkpt>
      <trkpt lat="43.97867" lon="2.52744">
        <ele>175.4</ele>
        <time>2015-04-05T13:54:12Z</time>
      </trkpt>
      <trkpt lat="43.97875" lon="2.52753">
        <ele>175.4</ele>
        <time>2015-04-05T13:54:16Z</time>
      </trkpt>
      <trkpt lat="43.97884" lon="2.52755">
        <ele>175.4</ele>
        <time>2015-04-05T13:54:20Z</time>
      </trkpt>
      <trkpt lat="43.97893" lon="2.5276">
        <ele>175.3</ele>
        <time>2015-04-05T13:54:23Z</time>
      </trkpt>
      <trkpt lat="43.97902" lon="2.52763">
        <ele>175.2</ele>
        <time>2015-04-05T13:54:26Z</time>
      </trkpt>
      <trkpt lat="43.98001" lon="2.52868">
        <ele>192.1</ele>
        <time>2015-04-05T13:54:49Z</time>
      </trkpt>
      <trkpt lat="43.98017" lon="2.52873">
        <ele>190.2</ele>
        <time>2015-04-05T13:54:52Z</time>
      </trkpt>
      <trkpt lat="43.98027" lon="2.52873">
        <ele>191.3</ele>
        <time>2015-04-05T13:54:54Z</time>
      </trkpt>
      <trkpt lat="43.98035" lon="2.52866">
        <ele>179.5</ele>
        <time>2015-04-05T13:54:57Z</time>
      </trkpt>
      <trkpt lat="43.98048" lon="2.52867">
        <ele>177.7</ele>
        <time>2015-04-05T13:55:00Z</time>
      </trkpt>
      <trkpt lat="43.98061" lon="2.52868">
        <ele>173.6</ele>
        <time>2015-04-05T13:55:03Z</time>
      </trkpt>
      <trkpt lat="43.98074" lon="2.52867">
        <ele>172.3</ele>
        <time>2015-04-05T13:55:06Z</time>
      </trkpt>
      <trkpt lat="43.98087" lon="2.52866">
        <ele>172</ele>
        <time>2015-04-05T13:55:09Z</time>
      </trkpt>
      <trkpt lat="43.981" lon="2.52865">
        <ele>172.6</ele>
        <time>2015-04-05T13:55:12Z</time>
      </trkpt>
      <trkpt lat="43.98113" lon="2.52862">
        <ele>172.7</ele>
        <time>2015-04-05T13:55:15Z</time>
      </trkpt>
      <trkpt lat="43.98126" lon="2.52858">
        <ele>172.4</ele>
        <time>2015-04-05T13:55:18Z</time>
      </trkpt>
      <trkpt lat="43.98139" lon="2.52855">
        <ele>172.2</ele>
        <time>2015-04-05T13:55:21Z</time>
      </trkpt>
      <trkpt lat="43.98148" lon="2.52852">
        <ele>172.9</ele>
        <time>2015-04-05T13:55:23Z</time>
      </trkpt>
      <trkpt lat="43.98158" lon="2.52847">
        <ele>173.5</ele>
        <time>2015-04-05T13:55:25Z</time>
      </trkpt>
      <trkpt lat="43.98167" lon="2.52844">
        <ele>173.7</ele>
        <time>2015-04-05T13:55:27Z</time>
      </trkpt>
      <trkpt lat="43.98177" lon="2.5284">
        <ele>173.8</ele>
        <time>2015-04-05T13:55:29Z</time>
      </trkpt>
      <trkpt lat="43.98186" lon="2.52837">
        <ele>174.7</ele>
        <time>2015-04-05T13:55:31Z</time>
      </trkpt>
      <trkpt lat="43.98194" lon="2.52833">
        <ele>174.4</ele>
        <time>2015-04-05T13:55:33Z</time>
      </trkpt>
      <trkpt lat="43.98204" lon="2.52829">
        <ele>174.6</ele>
        <time>2015-04-05T13:55:35Z</time>
      </trkpt>
      <trkpt lat="43.98213" lon="2.52825">
        <ele>175</ele>
        <time>2015-04-05T13:55:37Z</time>
      </trkpt>
      <trkpt lat="43.98222" lon="2.52821">
        <ele>175.4</ele>
        <time>2015-04-05T13:55:39Z</time>
      </trkpt>
      <trkpt lat="43.98232" lon="2.52817">
        <ele>175.8</ele>
        <time>2015-04-05T13:55:41Z</time>
      </trkpt>
      <trkpt lat="43.98241" lon="2.52813">
        <ele>175.8</ele>
        <time>2015-04-05T13:55:43Z</time>
      </trkpt>
      <trkpt lat="43.9825" lon="2.5281">
        <ele>175.7</ele>
        <time>2015-04-05T13:55:45Z</time>
      </trkpt>
      <trkpt lat="43.98263" lon="2.52804">
        <ele>175.8</ele>
        <time>2015-04-05T13:55:48Z</time>
      </trkpt>
      <trkpt lat="43.98272" lon="2.528">
        <ele>175</ele>
        <time>2015-04-05T13:55:50Z</time>
      </trkpt>
      <trkpt lat="43.98281" lon="2.52796">
        <ele>174.3</ele>
        <time>2015-04-05T13:55:52Z</time>
      </trkpt>
      <trkpt lat="43.98293" lon="2.52792">
        <ele>174.1</ele>
        <time>2015-04-05T13:55:55Z</time>
      </trkpt>
      <trkpt lat="43.98305" lon="2.52788">
        <ele>173.9</ele>
        <time>2015-04-05T13:55:58Z</time>
      </trkpt>
      <trkpt lat="43.98318" lon="2.52785">
        <ele>174.3</ele>
        <time>2015-04-05T13:56:01Z</time>
      </trkpt>
      <trkpt lat="43.98332" lon="2.52784">
        <ele>174.7</ele>
        <time>2015-04-05T13:56:04Z</time>
      </trkpt>
      <trkpt lat="43.98341" lon="2.52785">
        <ele>174.2</ele>
        <time>2015-04-05T13:56:06Z</time>
      </trkpt>
      <trkpt lat="43.98354" lon="2.52784">
        <ele>174.6</ele>
        <time>2015-04-05T13:56:09Z</time>
      </trkpt>
      <trkpt lat="43.98367" lon="2.52785">
        <ele>174.3</ele>
        <time>2015-04-05T13:56:12Z</time>
      </trkpt>
      <trkpt lat="43.98378" lon="2.52785">
        <ele>175.3</ele>
        <time>2015-04-05T13:56:15Z</time>
      </trkpt>
      <trkpt lat="43.9839" lon="2.52787">
        <ele>176.2</ele>
        <time>2015-04-05T13:56:18Z</time>
      </trkpt>
      <trkpt lat="43.98402" lon="2.5279">
        <ele>177.4</ele>
        <time>2015-04-05T13:56:21Z</time>
      </trkpt>
      <trkpt lat="43.98411" lon="2.5279">
        <ele>178.5</ele>
        <time>2015-04-05T13:56:24Z</time>
      </trkpt>
      <trkpt lat="43.98423" lon="2.52792">
        <ele>180.9</ele>
        <time>2015-04-05T13:56:27Z</time>
      </trkpt>
      <trkpt lat="43.98433" lon="2.52796">
        <ele>181.8</ele>
        <time>2015-04-05T13:56:30Z</time>
      </trkpt>
      <trkpt lat="43.98443" lon="2.52802">
        <ele>182.2</ele>
        <time>2015-04-05T13:56:32Z</time>
      </trkpt>
      <trkpt lat="43.98452" lon="2.52808">
        <ele>182.6</ele>
        <time>2015-04-05T13:56:34Z</time>
      </trkpt>
      <trkpt lat="43.98464" lon="2.52815">
        <ele>183.5</ele>
        <time>2015-04-05T13:56:37Z</time>
      </trkpt>
      <trkpt lat="43.98473" lon="2.52823">
        <ele>184.2</ele>
        <time>2015-04-05T13:56:40Z</time>
      </trkpt>
      <trkpt lat="43.98485" lon="2.52831">
        <ele>185.1</ele>
        <time>2015-04-05T13:56:43Z</time>
      </trkpt>
      <trkpt lat="43.98494" lon="2.52839">
        <ele>185.8</ele>
        <time>2015-04-05T13:56:45Z</time>
      </trkpt>
      <trkpt lat="43.98504" lon="2.52847">
        <ele>186.3</ele>
        <time>2015-04-05T13:56:47Z</time>
      </trkpt>
      <trkpt lat="43.98513" lon="2.52855">
        <ele>187.4</ele>
        <time>2015-04-05T13:56:49Z</time>
      </trkpt>
      <trkpt lat="43.98521" lon="2.52863">
        <ele>187.5</ele>
        <time>2015-04-05T13:56:51Z</time>
      </trkpt>
      <trkpt lat="43.98528" lon="2.52873">
        <ele>188.2</ele>
        <time>2015-04-05T13:56:53Z</time>
      </trkpt>
      <trkpt lat="43.98537" lon="2.52883">
        <ele>188.5</ele>
        <time>2015-04-05T13:56:55Z</time>
      </trkpt>
      <trkpt lat="43.98545" lon="2.52891">
        <ele>188.6</ele>
        <time>2015-04-05T13:56:56Z</time>
      </trkpt>
      <trkpt lat="43.98556" lon="2.52903">
        <ele>188.5</ele>
        <time>2015-04-05T13:56:58Z</time>
      </trkpt>
      <trkpt lat="43.98565" lon="2.52913">
        <ele>188.1</ele>
        <time>2015-04-05T13:57:00Z</time>
      </trkpt>
      <trkpt lat="43.98573" lon="2.52922">
        <ele>188.2</ele>
        <time>2015-04-05T13:57:02Z</time>
      </trkpt>
      <trkpt lat="43.98582" lon="2.52931">
        <ele>187.5</ele>
        <time>2015-04-05T13:57:04Z</time>
      </trkpt>
      <trkpt lat="43.9859" lon="2.52939">
        <ele>187</ele>
        <time>2015-04-05T13:57:06Z</time>
      </trkpt>
      <trkpt lat="43.98599" lon="2.52948">
        <ele>187.2</ele>
        <time>2015-04-05T13:57:08Z</time>
      </trkpt>
      <trkpt lat="43.98607" lon="2.52957">
        <ele>187</ele>
        <time>2015-04-05T13:57:10Z</time>
      </trkpt>
      <trkpt lat="43.98614" lon="2.52966">
        <ele>187</ele>
        <time>2015-04-05T13:57:12Z</time>
      </trkpt>
      <trkpt lat="43.98622" lon="2.52977">
        <ele>187.1</ele>
        <time>2015-04-05T13:57:14Z</time>
      </trkpt>
      <trkpt lat="43.98628" lon="2.52988">
        <ele>186.7</ele>
        <time>2015-04-05T13:57:16Z</time>
      </trkpt>
      <trkpt lat="43.98634" lon="2.53">
        <ele>186.6</ele>
        <time>2015-04-05T13:57:18Z</time>
      </trkpt>
      <trkpt lat="43.9864" lon="2.53012">
        <ele>186.6</ele>
        <time>2015-04-05T13:57:20Z</time>
      </trkpt>
      <trkpt lat="43.98646" lon="2.53025">
        <ele>186.7</ele>
        <time>2015-04-05T13:57:22Z</time>
      </trkpt>
      <trkpt lat="43.98653" lon="2.53036">
        <ele>186.6</ele>
        <time>2015-04-05T13:57:24Z</time>
      </trkpt>
      <trkpt lat="43.98659" lon="2.53048">
        <ele>186.6</ele>
        <time>2015-04-05T13:57:26Z</time>
      </trkpt>
      <trkpt lat="43.98665" lon="2.5306">
        <ele>185.9</ele>
        <time>2015-04-05T13:57:28Z</time>
      </trkpt>
      <trkpt lat="43.9867" lon="2.53072">
        <ele>185.4</ele>
        <time>2015-04-05T13:57:30Z</time>
      </trkpt>
      <trkpt lat="43.98674" lon="2.53085">
        <ele>185</ele>
        <time>2015-04-05T13:57:32Z</time>
      </trkpt>
      <trkpt lat="43.98677" lon="2.53097">
        <ele>184.9</ele>
        <time>2015-04-05T13:57:34Z</time>
      </trkpt>
      <trkpt lat="43.9868" lon="2.53114">
        <ele>184.7</ele>
        <time>2015-04-05T13:57:37Z</time>
      </trkpt>
      <trkpt lat="43.98683" lon="2.53132">
        <ele>184.8</ele>
        <time>2015-04-05T13:57:40Z</time>
      </trkpt>
      <trkpt lat="43.98685" lon="2.53149">
        <ele>185</ele>
        <time>2015-04-05T13:57:43Z</time>
      </trkpt>
      <trkpt lat="43.98688" lon="2.53165">
        <ele>184.1</ele>
        <time>2015-04-05T13:57:46Z</time>
      </trkpt>
      <trkpt lat="43.98691" lon="2.5318">
        <ele>182.5</ele>
        <time>2015-04-05T13:57:49Z</time>
      </trkpt>
      <trkpt lat="43.98694" lon="2.53196">
        <ele>181.4</ele>
        <time>2015-04-05T13:57:52Z</time>
      </trkpt>
      <trkpt lat="43.98697" lon="2.53212">
        <ele>181.4</ele>
        <time>2015-04-05T13:57:55Z</time>
      </trkpt>
      <trkpt lat="43.987" lon="2.53228">
        <ele>181.4</ele>
        <time>2015-04-05T13:57:58Z</time>
      </trkpt>
      <trkpt lat="43.98701" lon="2.53244">
        <ele>182</ele>
        <time>2015-04-05T13:58:01Z</time>
      </trkpt>
      <trkpt lat="43.98704" lon="2.5326">
        <ele>181.7</ele>
        <time>2015-04-05T13:58:04Z</time>
      </trkpt>
      <trkpt lat="43.98707" lon="2.53276">
        <ele>181</ele>
        <time>2015-04-05T13:58:07Z</time>
      </trkpt>
      <trkpt lat="43.9871" lon="2.53293">
        <ele>180</ele>
        <time>2015-04-05T13:58:10Z</time>
      </trkpt>
      <trkpt lat="43.98712" lon="2.53311">
        <ele>179.3</ele>
        <time>2015-04-05T13:58:13Z</time>
      </trkpt>
      <trkpt lat="43.98715" lon="2.53329">
        <ele>179.2</ele>
        <time>2015-04-05T13:58:16Z</time>
      </trkpt>
      <trkpt lat="43.98717" lon="2.53342">
        <ele>178.8</ele>
        <time>2015-04-05T13:58:18Z</time>
      </trkpt>
      <trkpt lat="43.98719" lon="2.53355">
        <ele>178.8</ele>
        <time>2015-04-05T13:58:20Z</time>
      </trkpt>
      <trkpt lat="43.98721" lon="2.53367">
        <ele>178.8</ele>
        <time>2015-04-05T13:58:22Z</time>
      </trkpt>
      <trkpt lat="43.98722" lon="2.5338">
        <ele>178.7</ele>
        <time>2015-04-05T13:58:24Z</time>
      </trkpt>
      <trkpt lat="43.98724" lon="2.53394">
        <ele>178.8</ele>
        <time>2015-04-05T13:58:26Z</time>
      </trkpt>
      <trkpt lat="43.98727" lon="2.53407">
        <ele>178.7</ele>
        <time>2015-04-05T13:58:28Z</time>
      </trkpt>
      <trkpt lat="43.98729" lon="2.53421">
        <ele>178.9</ele>
        <time>2015-04-05T13:58:30Z</time>
      </trkpt>
      <trkpt lat="43.98731" lon="2.53433">
        <ele>179.1</ele>
        <time>2015-04-05T13:58:32Z</time>
      </trkpt>
      <trkpt lat="43.98734" lon="2.53446">
        <ele>178.8</ele>
        <time>2015-04-05T13:58:34Z</time>
      </trkpt>
      <trkpt lat="43.98737" lon="2.53459">
        <ele>178.3</ele>
        <time>2015-04-05T13:58:36Z</time>
      </trkpt>
      <trkpt lat="43.98739" lon="2.53471">
        <ele>177.9</ele>
        <time>2015-04-05T13:58:38Z</time>
      </trkpt>
      <trkpt lat="43.98741" lon="2.53484">
        <ele>178.2</ele>
        <time>2015-04-05T13:58:40Z</time>
      </trkpt>
      <trkpt lat="43.98744" lon="2.53497">
        <ele>178.4</ele>
        <time>2015-04-05T13:58:42Z</time>
      </trkpt>
      <trkpt lat="43.98746" lon="2.53509">
        <ele>177.9</ele>
        <time>2015-04-05T13:58:44Z</time>
      </trkpt>
      <trkpt lat="43.98748" lon="2.53521">
        <ele>178.1</ele>
        <time>2015-04-05T13:58:46Z</time>
      </trkpt>
      <trkpt lat="43.98751" lon="2.53534">
        <ele>178.4</ele>
        <time>2015-04-05T13:58:48Z</time>
      </trkpt>
      <trkpt lat="43.98753" lon="2.53546">
        <ele>179</ele>
        <time>2015-04-05T13:58:50Z</time>
      </trkpt>
      <trkpt lat="43.98756" lon="2.53564">
        <ele>179.8</ele>
        <time>2015-04-05T13:58:53Z</time>
      </trkpt>
      <trkpt lat="43.9876" lon="2.53581">
        <ele>181.1</ele>
        <time>2015-04-05T13:58:56Z</time>
      </trkpt>
      <trkpt lat="43.98762" lon="2.53594">
        <ele>182.5</ele>
        <time>2015-04-05T13:58:58Z</time>
      </trkpt>
      <trkpt lat="43.98764" lon="2.53609">
        <ele>182.5</ele>
        <time>2015-04-05T13:59:00Z</time>
      </trkpt>
      <trkpt lat="43.98767" lon="2.53622">
        <ele>182.8</ele>
        <time>2015-04-05T13:59:02Z</time>
      </trkpt>
      <trkpt lat="43.98769" lon="2.53635">
        <ele>183.9</ele>
        <time>2015-04-05T13:59:04Z</time>
      </trkpt>
      <trkpt lat="43.98773" lon="2.53654">
        <ele>183.4</ele>
        <time>2015-04-05T13:59:07Z</time>
      </trkpt>
      <trkpt lat="43.98777" lon="2.53669">
        <ele>182.7</ele>
        <time>2015-04-05T13:59:09Z</time>
      </trkpt>
      <trkpt lat="43.98781" lon="2.53683">
        <ele>182</ele>
        <time>2015-04-05T13:59:11Z</time>
      </trkpt>
      <trkpt lat="43.98785" lon="2.53697">
        <ele>181.8</ele>
        <time>2015-04-05T13:59:13Z</time>
      </trkpt>
      <trkpt lat="43.98789" lon="2.5371">
        <ele>181.5</ele>
        <time>2015-04-05T13:59:15Z</time>
      </trkpt>
      <trkpt lat="43.98793" lon="2.53724">
        <ele>181.1</ele>
        <time>2015-04-05T13:59:17Z</time>
      </trkpt>
      <trkpt lat="43.98796" lon="2.53738">
        <ele>180.7</ele>
        <time>2015-04-05T13:59:19Z</time>
      </trkpt>
      <trkpt lat="43.988" lon="2.53752">
        <ele>181.1</ele>
        <time>2015-04-05T13:59:21Z</time>
      </trkpt>
      <trkpt lat="43.98803" lon="2.53767">
        <ele>181.1</ele>
        <time>2015-04-05T13:59:23Z</time>
      </trkpt>
      <trkpt lat="43.98806" lon="2.53781">
        <ele>180.7</ele>
        <time>2015-04-05T13:59:25Z</time>
      </trkpt>
      <trkpt lat="43.98809" lon="2.53794">
        <ele>180.9</ele>
        <time>2015-04-05T13:59:27Z</time>
      </trkpt>
      <trkpt lat="43.98812" lon="2.53808">
        <ele>181.3</ele>
        <time>2015-04-05T13:59:29Z</time>
      </trkpt>
      <trkpt lat="43.98814" lon="2.53822">
        <ele>181.8</ele>
        <time>2015-04-05T13:59:31Z</time>
      </trkpt>
      <trkpt lat="43.98815" lon="2.53836">
        <ele>182.5</ele>
        <time>2015-04-05T13:59:33Z</time>
      </trkpt>
      <trkpt lat="43.98818" lon="2.5385">
        <ele>182.3</ele>
        <time>2015-04-05T13:59:35Z</time>
      </trkpt>
      <trkpt lat="43.9882" lon="2.53864">
        <ele>182.1</ele>
        <time>2015-04-05T13:59:37Z</time>
      </trkpt>
      <trkpt lat="43.98821" lon="2.53879">
        <ele>181.7</ele>
        <time>2015-04-05T13:59:39Z</time>
      </trkpt>
      <trkpt lat="43.98824" lon="2.53893">
        <ele>181</ele>
        <time>2015-04-05T13:59:41Z</time>
      </trkpt>
      <trkpt lat="43.98826" lon="2.53907">
        <ele>181.1</ele>
        <time>2015-04-05T13:59:43Z</time>
      </trkpt>
      <trkpt lat="43.98827" lon="2.53921">
        <ele>181.2</ele>
        <time>2015-04-05T13:59:45Z</time>
      </trkpt>
      <trkpt lat="43.98828" lon="2.53933">
        <ele>180.9</ele>
        <time>2015-04-05T13:59:47Z</time>
      </trkpt>
      <trkpt lat="43.98829" lon="2.53947">
        <ele>180.8</ele>
        <time>2015-04-05T13:59:49Z</time>
      </trkpt>
      <trkpt lat="43.98831" lon="2.5396">
        <ele>180</ele>
        <time>2015-04-05T13:59:51Z</time>
      </trkpt>
      <trkpt lat="43.98832" lon="2.53974">
        <ele>179.5</ele>
        <time>2015-04-05T13:59:53Z</time>
      </trkpt>
      <trkpt lat="43.98834" lon="2.53987">
        <ele>179.2</ele>
        <time>2015-04-05T13:59:55Z</time>
      </trkpt>
      <trkpt lat="43.98836" lon="2.54001">
        <ele>179</ele>
        <time>2015-04-05T13:59:57Z</time>
      </trkpt>
      <trkpt lat="43.98838" lon="2.54014">
        <ele>178.9</ele>
        <time>2015-04-05T13:59:59Z</time>
      </trkpt>
      <trkpt lat="43.98838" lon="2.54027">
        <ele>179</ele>
        <time>2015-04-05T14:00:01Z</time>
      </trkpt>
      <trkpt lat="43.98838" lon="2.5404">
        <ele>179</ele>
        <time>2015-04-05T14:00:03Z</time>
      </trkpt>
      <trkpt lat="43.98839" lon="2.54052">
        <ele>179.2</ele>
        <time>2015-04-05T14:00:05Z</time>
      </trkpt>
      <trkpt lat="43.98839" lon="2.54065">
        <ele>179.5</ele>
        <time>2015-04-05T14:00:07Z</time>
      </trkpt>
      <trkpt lat="43.98841" lon="2.54078">
        <ele>179.7</ele>
        <time>2015-04-05T14:00:09Z</time>
      </trkpt>
      <trkpt lat="43.98845" lon="2.54096">
        <ele>180.3</ele>
        <time>2015-04-05T14:00:12Z</time>
      </trkpt>
      <trkpt lat="43.98847" lon="2.5411">
        <ele>180.6</ele>
        <time>2015-04-05T14:00:14Z</time>
      </trkpt>
      <trkpt lat="43.98849" lon="2.54124">
        <ele>180.9</ele>
        <time>2015-04-05T14:00:16Z</time>
      </trkpt>
      <trkpt lat="43.98851" lon="2.54137">
        <ele>181.3</ele>
        <time>2015-04-05T14:00:18Z</time>
      </trkpt>
      <trkpt lat="43.98855" lon="2.5415">
        <ele>181.7</ele>
        <time>2015-04-05T14:00:20Z</time>
      </trkpt>
      <trkpt lat="43.98858" lon="2.54165">
        <ele>182.1</ele>
        <time>2015-04-05T14:00:22Z</time>
      </trkpt>
      <trkpt lat="43.98862" lon="2.54179">
        <ele>182.9</ele>
        <time>2015-04-05T14:00:24Z</time>
      </trkpt>
      <trkpt lat="43.98867" lon="2.54194">
        <ele>183.6</ele>
        <time>2015-04-05T14:00:26Z</time>
      </trkpt>
      <trkpt lat="43.98872" lon="2.54209">
        <ele>183.7</ele>
        <time>2015-04-05T14:00:28Z</time>
      </trkpt>
      <trkpt lat="43.98878" lon="2.54225">
        <ele>183.7</ele>
        <time>2015-04-05T14:00:30Z</time>
      </trkpt>
      <trkpt lat="43.98885" lon="2.54238">
        <ele>183.8</ele>
        <time>2015-04-05T14:00:32Z</time>
      </trkpt>
      <trkpt lat="43.98892" lon="2.54256">
        <ele>184</ele>
        <time>2015-04-05T14:00:34Z</time>
      </trkpt>
      <trkpt lat="43.98899" lon="2.5427">
        <ele>184.4</ele>
        <time>2015-04-05T14:00:36Z</time>
      </trkpt>
      <trkpt lat="43.98904" lon="2.54282">
        <ele>184.5</ele>
        <time>2015-04-05T14:00:38Z</time>
      </trkpt>
      <trkpt lat="43.98913" lon="2.54293">
        <ele>184.1</ele>
        <time>2015-04-05T14:00:40Z</time>
      </trkpt>
      <trkpt lat="43.9892" lon="2.54305">
        <ele>183.7</ele>
        <time>2015-04-05T14:00:42Z</time>
      </trkpt>
      <trkpt lat="43.98928" lon="2.54316">
        <ele>183.9</ele>
        <time>2015-04-05T14:00:44Z</time>
      </trkpt>
      <trkpt lat="43.98935" lon="2.54328">
        <ele>182.9</ele>
        <time>2015-04-05T14:00:46Z</time>
      </trkpt>
      <trkpt lat="43.98942" lon="2.54339">
        <ele>182</ele>
        <time>2015-04-05T14:00:48Z</time>
      </trkpt>
      <trkpt lat="43.9895" lon="2.54348">
        <ele>180.8</ele>
        <time>2015-04-05T14:00:50Z</time>
      </trkpt>
      <trkpt lat="43.98957" lon="2.54358">
        <ele>177.8</ele>
        <time>2015-04-05T14:00:52Z</time>
      </trkpt>
      <trkpt lat="43.98965" lon="2.54367">
        <ele>177.1</ele>
        <time>2015-04-05T14:00:54Z</time>
      </trkpt>
      <trkpt lat="43.98973" lon="2.54374">
        <ele>176.5</ele>
        <time>2015-04-05T14:00:56Z</time>
      </trkpt>
      <trkpt lat="43.98982" lon="2.54382">
        <ele>175.8</ele>
        <time>2015-04-05T14:00:58Z</time>
      </trkpt>
      <trkpt lat="43.9899" lon="2.5439">
        <ele>174.5</ele>
        <time>2015-04-05T14:01:00Z</time>
      </trkpt>
      <trkpt lat="43.99" lon="2.54396">
        <ele>173.5</ele>
        <time>2015-04-05T14:01:02Z</time>
      </trkpt>
      <trkpt lat="43.9901" lon="2.54404">
        <ele>172.9</ele>
        <time>2015-04-05T14:01:04Z</time>
      </trkpt>
      <trkpt lat="43.99021" lon="2.5441">
        <ele>172.3</ele>
        <time>2015-04-05T14:01:06Z</time>
      </trkpt>
      <trkpt lat="43.99032" lon="2.54416">
        <ele>172.3</ele>
        <time>2015-04-05T14:01:08Z</time>
      </trkpt>
      <trkpt lat="43.99042" lon="2.5442">
        <ele>172.5</ele>
        <time>2015-04-05T14:01:10Z</time>
      </trkpt>
      <trkpt lat="43.99052" lon="2.54425">
        <ele>172.2</ele>
        <time>2015-04-05T14:01:12Z</time>
      </trkpt>
      <trkpt lat="43.99063" lon="2.54428">
        <ele>171.8</ele>
        <time>2015-04-05T14:01:14Z</time>
      </trkpt>
      <trkpt lat="43.99074" lon="2.54432">
        <ele>171.4</ele>
        <time>2015-04-05T14:01:16Z</time>
      </trkpt>
      <trkpt lat="43.99084" lon="2.54436">
        <ele>171.4</ele>
        <time>2015-04-05T14:01:18Z</time>
      </trkpt>
      <trkpt lat="43.99095" lon="2.54439">
        <ele>171.3</ele>
        <time>2015-04-05T14:01:20Z</time>
      </trkpt>
      <trkpt lat="43.99105" lon="2.54442">
        <ele>170.9</ele>
        <time>2015-04-05T14:01:22Z</time>
      </trkpt>
      <trkpt lat="43.99116" lon="2.54444">
        <ele>170.3</ele>
        <time>2015-04-05T14:01:24Z</time>
      </trkpt>
      <trkpt lat="43.99126" lon="2.54446">
        <ele>170.1</ele>
        <time>2015-04-05T14:01:26Z</time>
      </trkpt>
      <trkpt lat="43.99137" lon="2.54449">
        <ele>169.6</ele>
        <time>2015-04-05T14:01:28Z</time>
      </trkpt>
      <trkpt lat="43.99148" lon="2.54452">
        <ele>169.3</ele>
        <time>2015-04-05T14:01:30Z</time>
      </trkpt>
      <trkpt lat="43.99158" lon="2.54454">
        <ele>167.7</ele>
        <time>2015-04-05T14:01:32Z</time>
      </trkpt>
      <trkpt lat="43.99168" lon="2.54456">
        <ele>167</ele>
        <time>2015-04-05T14:01:34Z</time>
      </trkpt>
      <trkpt lat="43.99179" lon="2.54459">
        <ele>166.8</ele>
        <time>2015-04-05T14:01:36Z</time>
      </trkpt>
      <trkpt lat="43.99191" lon="2.5446">
        <ele>166.3</ele>
        <time>2015-04-05T14:01:38Z</time>
      </trkpt>
      <trkpt lat="43.99202" lon="2.54461">
        <ele>166.4</ele>
        <time>2015-04-05T14:01:40Z</time>
      </trkpt>
      <trkpt lat="43.99212" lon="2.54459">
        <ele>165.4</ele>
        <time>2015-04-05T14:01:42Z</time>
      </trkpt>
      <trkpt lat="43.99222" lon="2.54459">
        <ele>164.8</ele>
        <time>2015-04-05T14:01:44Z</time>
      </trkpt>
      <trkpt lat="43.99234" lon="2.54458">
        <ele>164.2</ele>
        <time>2015-04-05T14:01:46Z</time>
      </trkpt>
      <trkpt lat="43.99244" lon="2.54456">
        <ele>163.6</ele>
        <time>2015-04-05T14:01:48Z</time>
      </trkpt>
      <trkpt lat="43.99253" lon="2.54454">
        <ele>162.5</ele>
        <time>2015-04-05T14:01:50Z</time>
      </trkpt>
      <trkpt lat="43.99263" lon="2.54452">
        <ele>161.8</ele>
        <time>2015-04-05T14:01:52Z</time>
      </trkpt>
      <trkpt lat="43.99274" lon="2.54451">
        <ele>161.2</ele>
        <time>2015-04-05T14:01:54Z</time>
      </trkpt>
      <trkpt lat="43.99285" lon="2.5445">
        <ele>160.8</ele>
        <time>2015-04-05T14:01:56Z</time>
      </trkpt>
      <trkpt lat="43.99296" lon="2.54447">
        <ele>160.3</ele>
        <time>2015-04-05T14:01:58Z</time>
      </trkpt>
      <trkpt lat="43.99306" lon="2.54445">
        <ele>159.3</ele>
        <time>2015-04-05T14:02:00Z</time>
      </trkpt>
      <trkpt lat="43.99318" lon="2.54443">
        <ele>157.3</ele>
        <time>2015-04-05T14:02:02Z</time>
      </trkpt>
      <trkpt lat="43.99329" lon="2.54444">
        <ele>157.8</ele>
        <time>2015-04-05T14:02:04Z</time>
      </trkpt>
      <trkpt lat="43.99341" lon="2.54442">
        <ele>157.5</ele>
        <time>2015-04-05T14:02:06Z</time>
      </trkpt>
      <trkpt lat="43.99353" lon="2.5444">
        <ele>155.9</ele>
        <time>2015-04-05T14:02:08Z</time>
      </trkpt>
      <trkpt lat="43.99365" lon="2.54439">
        <ele>155.4</ele>
        <time>2015-04-05T14:02:10Z</time>
      </trkpt>
      <trkpt lat="43.99377" lon="2.54438">
        <ele>155</ele>
        <time>2015-04-05T14:02:12Z</time>
      </trkpt>
      <trkpt lat="43.99389" lon="2.54438">
        <ele>154.8</ele>
        <time>2015-04-05T14:02:14Z</time>
      </trkpt>
      <trkpt lat="43.99401" lon="2.54439">
        <ele>156.2</ele>
        <time>2015-04-05T14:02:16Z</time>
      </trkpt>
      <trkpt lat="43.99413" lon="2.5444">
        <ele>157</ele>
        <time>2015-04-05T14:02:18Z</time>
      </trkpt>
      <trkpt lat="43.99424" lon="2.54442">
        <ele>156.7</ele>
        <time>2015-04-05T14:02:20Z</time>
      </trkpt>
      <trkpt lat="43.99436" lon="2.54444">
        <ele>157.8</ele>
        <time>2015-04-05T14:02:22Z</time>
      </trkpt>
      <trkpt lat="43.99448" lon="2.54451">
        <ele>165.9</ele>
        <time>2015-04-05T14:02:24Z</time>
      </trkpt>
      <trkpt lat="43.99461" lon="2.54455">
        <ele>168.2</ele>
        <time>2015-04-05T14:02:26Z</time>
      </trkpt>
      <trkpt lat="43.99472" lon="2.54459">
        <ele>169.3</ele>
        <time>2015-04-05T14:02:28Z</time>
      </trkpt>
      <trkpt lat="43.99484" lon="2.54463">
        <ele>170.9</ele>
        <time>2015-04-05T14:02:30Z</time>
      </trkpt>
      <trkpt lat="43.99494" lon="2.54468">
        <ele>172.5</ele>
        <time>2015-04-05T14:02:32Z</time>
      </trkpt>
      <trkpt lat="43.99504" lon="2.54473">
        <ele>174.4</ele>
        <time>2015-04-05T14:02:34Z</time>
      </trkpt>
      <trkpt lat="43.99514" lon="2.5448">
        <ele>175.9</ele>
        <time>2015-04-05T14:02:36Z</time>
      </trkpt>
      <trkpt lat="43.99525" lon="2.54488">
        <ele>177</ele>
        <time>2015-04-05T14:02:38Z</time>
      </trkpt>
      <trkpt lat="43.99535" lon="2.54496">
        <ele>177.4</ele>
        <time>2015-04-05T14:02:40Z</time>
      </trkpt>
      <trkpt lat="43.99546" lon="2.54506">
        <ele>178.3</ele>
        <time>2015-04-05T14:02:42Z</time>
      </trkpt>
      <trkpt lat="43.99557" lon="2.54515">
        <ele>179.1</ele>
        <time>2015-04-05T14:02:44Z</time>
      </trkpt>
      <trkpt lat="43.99567" lon="2.54525">
        <ele>179</ele>
        <time>2015-04-05T14:02:46Z</time>
      </trkpt>
      <trkpt lat="43.99577" lon="2.54535">
        <ele>179</ele>
        <time>2015-04-05T14:02:48Z</time>
      </trkpt>
      <trkpt lat="43.99587" lon="2.54546">
        <ele>179.1</ele>
        <time>2015-04-05T14:02:50Z</time>
      </trkpt>
      <trkpt lat="43.99597" lon="2.54556">
        <ele>179.2</ele>
        <time>2015-04-05T14:02:52Z</time>
      </trkpt>
      <trkpt lat="43.99605" lon="2.54567">
        <ele>179.3</ele>
        <time>2015-04-05T14:02:54Z</time>
      </trkpt>
      <trkpt lat="43.99614" lon="2.54578">
        <ele>179.5</ele>
        <time>2015-04-05T14:02:56Z</time>
      </trkpt>
      <trkpt lat="43.99624" lon="2.54587">
        <ele>180</ele>
        <time>2015-04-05T14:02:58Z</time>
      </trkpt>
      <trkpt lat="43.99632" lon="2.54597">
        <ele>180.7</ele>
        <time>2015-04-05T14:03:00Z</time>
      </trkpt>
      <trkpt lat="43.99639" lon="2.54607">
        <ele>181.3</ele>
        <time>2015-04-05T14:03:02Z</time>
      </trkpt>
      <trkpt lat="43.99648" lon="2.54618">
        <ele>181.2</ele>
        <time>2015-04-05T14:03:04Z</time>
      </trkpt>
      <trkpt lat="43.99655" lon="2.54629">
        <ele>181.3</ele>
        <time>2015-04-05T14:03:06Z</time>
      </trkpt>
      <trkpt lat="43.99663" lon="2.54639">
        <ele>181.3</ele>
        <time>2015-04-05T14:03:08Z</time>
      </trkpt>
      <trkpt lat="43.9967" lon="2.54649">
        <ele>181.5</ele>
        <time>2015-04-05T14:03:10Z</time>
      </trkpt>
      <trkpt lat="43.99678" lon="2.54658">
        <ele>181.9</ele>
        <time>2015-04-05T14:03:12Z</time>
      </trkpt>
      <trkpt lat="43.99685" lon="2.54668">
        <ele>182.2</ele>
        <time>2015-04-05T14:03:14Z</time>
      </trkpt>
      <trkpt lat="43.99692" lon="2.54678">
        <ele>182.4</ele>
        <time>2015-04-05T14:03:16Z</time>
      </trkpt>
      <trkpt lat="43.997" lon="2.54689">
        <ele>182.5</ele>
        <time>2015-04-05T14:03:18Z</time>
      </trkpt>
      <trkpt lat="43.99706" lon="2.54703">
        <ele>182.6</ele>
        <time>2015-04-05T14:03:20Z</time>
      </trkpt>
      <trkpt lat="43.99712" lon="2.54714">
        <ele>182.9</ele>
        <time>2015-04-05T14:03:22Z</time>
      </trkpt>
      <trkpt lat="43.99718" lon="2.54725">
        <ele>183.1</ele>
        <time>2015-04-05T14:03:24Z</time>
      </trkpt>
      <trkpt lat="43.99723" lon="2.54737">
        <ele>182.9</ele>
        <time>2015-04-05T14:03:26Z</time>
      </trkpt>
      <trkpt lat="43.99729" lon="2.54749">
        <ele>182.5</ele>
        <time>2015-04-05T14:03:28Z</time>
      </trkpt>
      <trkpt lat="43.99733" lon="2.54762">
        <ele>182</ele>
        <time>2015-04-05T14:03:30Z</time>
      </trkpt>
      <trkpt lat="43.99737" lon="2.54776">
        <ele>181.7</ele>
        <time>2015-04-05T14:03:32Z</time>
      </trkpt>
      <trkpt lat="43.99739" lon="2.54789">
        <ele>181.7</ele>
        <time>2015-04-05T14:03:34Z</time>
      </trkpt>
      <trkpt lat="43.99742" lon="2.54801">
        <ele>182.2</ele>
        <time>2015-04-05T14:03:36Z</time>
      </trkpt>
      <trkpt lat="43.99744" lon="2.54814">
        <ele>182.7</ele>
        <time>2015-04-05T14:03:38Z</time>
      </trkpt>
      <trkpt lat="43.99747" lon="2.54832">
        <ele>183.7</ele>
        <time>2015-04-05T14:03:41Z</time>
      </trkpt>
      <trkpt lat="43.99748" lon="2.54849">
        <ele>184.7</ele>
        <time>2015-04-05T14:03:44Z</time>
      </trkpt>
      <trkpt lat="43.99749" lon="2.54861">
        <ele>185.4</ele>
        <time>2015-04-05T14:03:46Z</time>
      </trkpt>
      <trkpt lat="43.9975" lon="2.54875">
        <ele>186.5</ele>
        <time>2015-04-05T14:03:48Z</time>
      </trkpt>
      <trkpt lat="43.99751" lon="2.54889">
        <ele>187.3</ele>
        <time>2015-04-05T14:03:50Z</time>
      </trkpt>
      <trkpt lat="43.99752" lon="2.54902">
        <ele>188.1</ele>
        <time>2015-04-05T14:03:52Z</time>
      </trkpt>
      <trkpt lat="43.99753" lon="2.54916">
        <ele>188.7</ele>
        <time>2015-04-05T14:03:54Z</time>
      </trkpt>
      <trkpt lat="43.99753" lon="2.54929">
        <ele>189.3</ele>
        <time>2015-04-05T14:03:56Z</time>
      </trkpt>
      <trkpt lat="43.99754" lon="2.54942">
        <ele>189.8</ele>
        <time>2015-04-05T14:03:58Z</time>
      </trkpt>
      <trkpt lat="43.99754" lon="2.54955">
        <ele>190.4</ele>
        <time>2015-04-05T14:04:00Z</time>
      </trkpt>
      <trkpt lat="43.99755" lon="2.54969">
        <ele>190.9</ele>
        <time>2015-04-05T14:04:02Z</time>
      </trkpt>
      <trkpt lat="43.99754" lon="2.54986">
        <ele>192.1</ele>
        <time>2015-04-05T14:04:05Z</time>
      </trkpt>
      <trkpt lat="43.99752" lon="2.55">
        <ele>193</ele>
        <time>2015-04-05T14:04:07Z</time>
      </trkpt>
      <trkpt lat="43.99752" lon="2.55015">
        <ele>193.2</ele>
        <time>2015-04-05T14:04:09Z</time>
      </trkpt>
      <trkpt lat="43.99751" lon="2.5503">
        <ele>193.1</ele>
        <time>2015-04-05T14:04:11Z</time>
      </trkpt>
      <trkpt lat="43.99749" lon="2.55045">
        <ele>193</ele>
        <time>2015-04-05T14:04:13Z</time>
      </trkpt>
      <trkpt lat="43.99747" lon="2.55061">
        <ele>192.7</ele>
        <time>2015-04-05T14:04:15Z</time>
      </trkpt>
      <trkpt lat="43.99744" lon="2.55074">
        <ele>192.6</ele>
        <time>2015-04-05T14:04:17Z</time>
      </trkpt>
      <trkpt lat="43.99741" lon="2.55088">
        <ele>192.4</ele>
        <time>2015-04-05T14:04:19Z</time>
      </trkpt>
      <trkpt lat="43.99738" lon="2.55102">
        <ele>191.9</ele>
        <time>2015-04-05T14:04:21Z</time>
      </trkpt>
      <trkpt lat="43.99734" lon="2.55115">
        <ele>191.6</ele>
        <time>2015-04-05T14:04:23Z</time>
      </trkpt>
      <trkpt lat="43.99732" lon="2.55129">
        <ele>191.2</ele>
        <time>2015-04-05T14:04:25Z</time>
      </trkpt>
      <trkpt lat="43.99728" lon="2.55142">
        <ele>190.8</ele>
        <time>2015-04-05T14:04:27Z</time>
      </trkpt>
      <trkpt lat="43.99725" lon="2.55155">
        <ele>190.3</ele>
        <time>2015-04-05T14:04:29Z</time>
      </trkpt>
      <trkpt lat="43.99721" lon="2.55168">
        <ele>189.7</ele>
        <time>2015-04-05T14:04:31Z</time>
      </trkpt>
      <trkpt lat="43.99718" lon="2.55182">
        <ele>189</ele>
        <time>2015-04-05T14:04:33Z</time>
      </trkpt>
      <trkpt lat="43.99714" lon="2.55197">
        <ele>188.1</ele>
        <time>2015-04-05T14:04:35Z</time>
      </trkpt>
      <trkpt lat="43.9971" lon="2.55211">
        <ele>187.4</ele>
        <time>2015-04-05T14:04:37Z</time>
      </trkpt>
      <trkpt lat="43.99706" lon="2.55225">
        <ele>187.2</ele>
        <time>2015-04-05T14:04:39Z</time>
      </trkpt>
      <trkpt lat="43.99702" lon="2.55238">
        <ele>186.7</ele>
        <time>2015-04-05T14:04:41Z</time>
      </trkpt>
      <trkpt lat="43.99698" lon="2.55251">
        <ele>186.6</ele>
        <time>2015-04-05T14:04:43Z</time>
      </trkpt>
      <trkpt lat="43.99694" lon="2.55265">
        <ele>186.7</ele>
        <time>2015-04-05T14:04:45Z</time>
      </trkpt>
      <trkpt lat="43.99691" lon="2.55278">
        <ele>186.5</ele>
        <time>2015-04-05T14:04:47Z</time>
      </trkpt>
      <trkpt lat="43.99687" lon="2.55291">
        <ele>186.7</ele>
        <time>2015-04-05T14:04:49Z</time>
      </trkpt>
      <trkpt lat="43.99685" lon="2.55304">
        <ele>186.4</ele>
        <time>2015-04-05T14:04:51Z</time>
      </trkpt>
      <trkpt lat="43.99683" lon="2.55317">
        <ele>185.7</ele>
        <time>2015-04-05T14:04:53Z</time>
      </trkpt>
      <trkpt lat="43.99681" lon="2.55331">
        <ele>185.3</ele>
        <time>2015-04-05T14:04:55Z</time>
      </trkpt>
      <trkpt lat="43.99679" lon="2.55344">
        <ele>185.2</ele>
        <time>2015-04-05T14:04:57Z</time>
      </trkpt>
      <trkpt lat="43.99677" lon="2.55358">
        <ele>184.9</ele>
        <time>2015-04-05T14:04:59Z</time>
      </trkpt>
      <trkpt lat="43.99676" lon="2.55372">
        <ele>184.3</ele>
        <time>2015-04-05T14:05:01Z</time>
      </trkpt>
      <trkpt lat="43.99675" lon="2.55387">
        <ele>183.8</ele>
        <time>2015-04-05T14:05:03Z</time>
      </trkpt>
      <trkpt lat="43.99675" lon="2.55402">
        <ele>183.1</ele>
        <time>2015-04-05T14:05:05Z</time>
      </trkpt>
      <trkpt lat="43.99675" lon="2.55416">
        <ele>182.8</ele>
        <time>2015-04-05T14:05:07Z</time>
      </trkpt>
      <trkpt lat="43.99674" lon="2.55431">
        <ele>182.7</ele>
        <time>2015-04-05T14:05:09Z</time>
      </trkpt>
      <trkpt lat="43.99674" lon="2.55445">
        <ele>182.9</ele>
        <time>2015-04-05T14:05:11Z</time>
      </trkpt>
      <trkpt lat="43.99673" lon="2.55459">
        <ele>183.1</ele>
        <time>2015-04-05T14:05:13Z</time>
      </trkpt>
      <trkpt lat="43.99674" lon="2.55474">
        <ele>183.2</ele>
        <time>2015-04-05T14:05:15Z</time>
      </trkpt>
      <trkpt lat="43.99673" lon="2.55488">
        <ele>182.9</ele>
        <time>2015-04-05T14:05:17Z</time>
      </trkpt>
      <trkpt lat="43.99672" lon="2.55502">
        <ele>182.9</ele>
        <time>2015-04-05T14:05:19Z</time>
      </trkpt>
      <trkpt lat="43.99672" lon="2.55517">
        <ele>182.7</ele>
        <time>2015-04-05T14:05:21Z</time>
      </trkpt>
      <trkpt lat="43.99672" lon="2.55531">
        <ele>182.5</ele>
        <time>2015-04-05T14:05:23Z</time>
      </trkpt>
      <trkpt lat="43.99671" lon="2.55546">
        <ele>182.4</ele>
        <time>2015-04-05T14:05:25Z</time>
      </trkpt>
      <trkpt lat="43.99671" lon="2.5556">
        <ele>182.4</ele>
        <time>2015-04-05T14:05:27Z</time>
      </trkpt>
      <trkpt lat="43.99671" lon="2.55575">
        <ele>182.4</ele>
        <time>2015-04-05T14:05:29Z</time>
      </trkpt>
      <trkpt lat="43.99671" lon="2.55589">
        <ele>182.4</ele>
        <time>2015-04-05T14:05:31Z</time>
      </trkpt>
      <trkpt lat="43.99671" lon="2.55602">
        <ele>182.4</ele>
        <time>2015-04-05T14:05:33Z</time>
      </trkpt>
      <trkpt lat="43.99672" lon="2.55617">
        <ele>182.3</ele>
        <time>2015-04-05T14:05:35Z</time>
      </trkpt>
      <trkpt lat="43.99672" lon="2.55631">
        <ele>182.2</ele>
        <time>2015-04-05T14:05:37Z</time>
      </trkpt>
      <trkpt lat="43.99671" lon="2.55645">
        <ele>182.3</ele>
        <time>2015-04-05T14:05:39Z</time>
      </trkpt>
      <trkpt lat="43.99671" lon="2.55658">
        <ele>182.4</ele>
        <time>2015-04-05T14:05:41Z</time>
      </trkpt>
      <trkpt lat="43.9967" lon="2.55671">
        <ele>182.7</ele>
        <time>2015-04-05T14:05:43Z</time>
      </trkpt>
      <trkpt lat="43.9967" lon="2.55684">
        <ele>183.1</ele>
        <time>2015-04-05T14:05:45Z</time>
      </trkpt>
      <trkpt lat="43.99669" lon="2.55698">
        <ele>183.6</ele>
        <time>2015-04-05T14:05:47Z</time>
      </trkpt>
      <trkpt lat="43.99669" lon="2.55711">
        <ele>184.1</ele>
        <time>2015-04-05T14:05:49Z</time>
      </trkpt>
      <trkpt lat="43.99668" lon="2.55724">
        <ele>184.2</ele>
        <time>2015-04-05T14:05:51Z</time>
      </trkpt>
      <trkpt lat="43.99664" lon="2.55736">
        <ele>184.2</ele>
        <time>2015-04-05T14:05:54Z</time>
      </trkpt>
      <trkpt lat="43.99661" lon="2.55749">
        <ele>183.5</ele>
        <time>2015-04-05T14:06:15Z</time>
      </trkpt>
      <trkpt lat="43.99658" lon="2.55762">
        <ele>180.4</ele>
        <time>2015-04-05T14:09:21Z</time>
      </trkpt>
      <trkpt lat="43.99653" lon="2.55775">
        <ele>180.7</ele>
        <time>2015-04-05T14:11:08Z</time>
      </trkpt>
      <trkpt lat="43.99653" lon="2.55789">
        <ele>180.6</ele>
        <time>2015-04-05T14:11:11Z</time>
      </trkpt>
      <trkpt lat="43.9965" lon="2.55801">
        <ele>180.6</ele>
        <time>2015-04-05T14:11:13Z</time>
      </trkpt>
      <trkpt lat="43.99647" lon="2.55816">
        <ele>180.5</ele>
        <time>2015-04-05T14:11:15Z</time>
      </trkpt>
      <trkpt lat="43.99644" lon="2.55832">
        <ele>180.4</ele>
        <time>2015-04-05T14:11:17Z</time>
      </trkpt>
      <trkpt lat="43.9964" lon="2.55847">
        <ele>180.3</ele>
        <time>2015-04-05T14:11:19Z</time>
      </trkpt>
      <trkpt lat="43.99637" lon="2.55864">
        <ele>180.2</ele>
        <time>2015-04-05T14:11:21Z</time>
      </trkpt>
      <trkpt lat="43.99634" lon="2.55882">
        <ele>180</ele>
        <time>2015-04-05T14:11:23Z</time>
      </trkpt>
      <trkpt lat="43.9963" lon="2.55899">
        <ele>179.7</ele>
        <time>2015-04-05T14:11:25Z</time>
      </trkpt>
      <trkpt lat="43.99627" lon="2.55917">
        <ele>179.6</ele>
        <time>2015-04-05T14:11:27Z</time>
      </trkpt>
      <trkpt lat="43.99623" lon="2.55934">
        <ele>179.4</ele>
        <time>2015-04-05T14:11:29Z</time>
      </trkpt>
      <trkpt lat="43.99617" lon="2.55951">
        <ele>179.2</ele>
        <time>2015-04-05T14:11:31Z</time>
      </trkpt>
      <trkpt lat="43.9961" lon="2.55967">
        <ele>178.6</ele>
        <time>2015-04-05T14:11:33Z</time>
      </trkpt>
      <trkpt lat="43.99603" lon="2.55984">
        <ele>178.3</ele>
        <time>2015-04-05T14:11:35Z</time>
      </trkpt>
      <trkpt lat="43.99597" lon="2.56001">
        <ele>178.1</ele>
        <time>2015-04-05T14:11:37Z</time>
      </trkpt>
      <trkpt lat="43.99591" lon="2.56017">
        <ele>177.8</ele>
        <time>2015-04-05T14:11:39Z</time>
      </trkpt>
      <trkpt lat="43.9959" lon="2.56033">
        <ele>177.6</ele>
        <time>2015-04-05T14:11:41Z</time>
      </trkpt>
      <trkpt lat="43.99587" lon="2.56049">
        <ele>177.3</ele>
        <time>2015-04-05T14:11:43Z</time>
      </trkpt>
      <trkpt lat="43.99583" lon="2.56065">
        <ele>177.2</ele>
        <time>2015-04-05T14:11:45Z</time>
      </trkpt>
      <trkpt lat="43.9958" lon="2.56079">
        <ele>177</ele>
        <time>2015-04-05T14:11:47Z</time>
      </trkpt>
      <trkpt lat="43.99578" lon="2.56093">
        <ele>177</ele>
        <time>2015-04-05T14:11:49Z</time>
      </trkpt>
      <trkpt lat="43.99576" lon="2.56106">
        <ele>176.9</ele>
        <time>2015-04-05T14:11:51Z</time>
      </trkpt>
      <trkpt lat="43.99575" lon="2.56123">
        <ele>176.9</ele>
        <time>2015-04-05T14:11:54Z</time>
      </trkpt>
      <trkpt lat="43.99578" lon="2.56139">
        <ele>176.7</ele>
        <time>2015-04-05T14:11:57Z</time>
      </trkpt>
      <trkpt lat="43.99582" lon="2.56154">
        <ele>176.5</ele>
        <time>2015-04-05T14:12:00Z</time>
      </trkpt>
      <trkpt lat="43.99585" lon="2.56167">
        <ele>176.5</ele>
        <time>2015-04-05T14:12:03Z</time>
      </trkpt>
      <trkpt lat="43.9959" lon="2.56183">
        <ele>176.5</ele>
        <time>2015-04-05T14:12:06Z</time>
      </trkpt>
      <trkpt lat="43.99594" lon="2.56196">
        <ele>176.6</ele>
        <time>2015-04-05T14:12:08Z</time>
      </trkpt>
      <trkpt lat="43.99601" lon="2.56212">
        <ele>176.6</ele>
        <time>2015-04-05T14:12:11Z</time>
      </trkpt>
      <trkpt lat="43.99606" lon="2.56229">
        <ele>176.8</ele>
        <time>2015-04-05T14:12:14Z</time>
      </trkpt>
      <trkpt lat="43.99611" lon="2.56242">
        <ele>177.1</ele>
        <time>2015-04-05T14:12:17Z</time>
      </trkpt>
      <trkpt lat="43.9962" lon="2.56255">
        <ele>177.3</ele>
        <time>2015-04-05T14:12:20Z</time>
      </trkpt>
      <trkpt lat="43.99628" lon="2.56263">
        <ele>177.3</ele>
        <time>2015-04-05T14:12:22Z</time>
      </trkpt>
      <trkpt lat="43.99637" lon="2.5627">
        <ele>177.3</ele>
        <time>2015-04-05T14:12:24Z</time>
      </trkpt>
      <trkpt lat="43.99644" lon="2.56278">
        <ele>177.1</ele>
        <time>2015-04-05T14:12:26Z</time>
      </trkpt>
      <trkpt lat="43.99656" lon="2.56287">
        <ele>176.4</ele>
        <time>2015-04-05T14:12:29Z</time>
      </trkpt>
      <trkpt lat="43.99668" lon="2.56296">
        <ele>175.9</ele>
        <time>2015-04-05T14:12:32Z</time>
      </trkpt>
      <trkpt lat="43.99676" lon="2.563">
        <ele>175.8</ele>
        <time>2015-04-05T14:12:34Z</time>
      </trkpt>
      <trkpt lat="43.99685" lon="2.56303">
        <ele>175.5</ele>
        <time>2015-04-05T14:12:36Z</time>
      </trkpt>
      <trkpt lat="43.99698" lon="2.56303">
        <ele>175.5</ele>
        <time>2015-04-05T14:12:39Z</time>
      </trkpt>
      <trkpt lat="43.99707" lon="2.56302">
        <ele>175.3</ele>
        <time>2015-04-05T14:12:41Z</time>
      </trkpt>
      <trkpt lat="43.99716" lon="2.563">
        <ele>175</ele>
        <time>2015-04-05T14:12:43Z</time>
      </trkpt>
      <trkpt lat="43.99725" lon="2.56296">
        <ele>174.6</ele>
        <time>2015-04-05T14:12:45Z</time>
      </trkpt>
      <trkpt lat="43.99738" lon="2.56292">
        <ele>174.1</ele>
        <time>2015-04-05T14:12:48Z</time>
      </trkpt>
      <trkpt lat="43.99748" lon="2.56291">
        <ele>173.9</ele>
        <time>2015-04-05T14:12:51Z</time>
      </trkpt>
      <trkpt lat="43.99759" lon="2.56291">
        <ele>173.4</ele>
        <time>2015-04-05T14:12:54Z</time>
      </trkpt>
      <trkpt lat="43.99769" lon="2.56292">
        <ele>173.4</ele>
        <time>2015-04-05T14:12:57Z</time>
      </trkpt>
      <trkpt lat="43.9978" lon="2.56293">
        <ele>174.1</ele>
        <time>2015-04-05T14:13:00Z</time>
      </trkpt>
      <trkpt lat="43.9979" lon="2.56293">
        <ele>174.8</ele>
        <time>2015-04-05T14:13:03Z</time>
      </trkpt>
      <trkpt lat="43.99799" lon="2.56294">
        <ele>175.5</ele>
        <time>2015-04-05T14:13:06Z</time>
      </trkpt>
      <trkpt lat="43.99809" lon="2.56294">
        <ele>176.3</ele>
        <time>2015-04-05T14:13:10Z</time>
      </trkpt>
      <trkpt lat="43.9982" lon="2.56294">
        <ele>178.2</ele>
        <time>2015-04-05T14:13:15Z</time>
      </trkpt>
      <trkpt lat="43.9983" lon="2.56296">
        <ele>179.9</ele>
        <time>2015-04-05T14:13:20Z</time>
      </trkpt>
      <trkpt lat="43.99841" lon="2.56299">
        <ele>179.8</ele>
        <time>2015-04-05T14:13:25Z</time>
      </trkpt>
      <trkpt lat="43.99847" lon="2.56311">
        <ele>180.5</ele>
        <time>2015-04-05T14:13:29Z</time>
      </trkpt>
      <trkpt lat="43.99848" lon="2.56327">
        <ele>182.2</ele>
        <time>2015-04-05T14:13:33Z</time>
      </trkpt>
      <trkpt lat="43.99852" lon="2.56341">
        <ele>182.8</ele>
        <time>2015-04-05T14:13:36Z</time>
      </trkpt>
      <trkpt lat="43.99854" lon="2.56359">
        <ele>183.9</ele>
        <time>2015-04-05T14:13:39Z</time>
      </trkpt>
      <trkpt lat="43.99856" lon="2.56371">
        <ele>184.5</ele>
        <time>2015-04-05T14:13:41Z</time>
      </trkpt>
      <trkpt lat="43.99856" lon="2.56384">
        <ele>185.4</ele>
        <time>2015-04-05T14:13:43Z</time>
      </trkpt>
      <trkpt lat="43.99857" lon="2.56398">
        <ele>186.1</ele>
        <time>2015-04-05T14:13:45Z</time>
      </trkpt>
      <trkpt lat="43.99858" lon="2.56412">
        <ele>186.8</ele>
        <time>2015-04-05T14:13:47Z</time>
      </trkpt>
      <trkpt lat="43.99859" lon="2.56424">
        <ele>187.2</ele>
        <time>2015-04-05T14:13:49Z</time>
      </trkpt>
      <trkpt lat="43.99861" lon="2.56442">
        <ele>187.9</ele>
        <time>2015-04-05T14:13:52Z</time>
      </trkpt>
      <trkpt lat="43.99862" lon="2.5646">
        <ele>188.8</ele>
        <time>2015-04-05T14:13:55Z</time>
      </trkpt>
      <trkpt lat="43.99864" lon="2.56476">
        <ele>189.6</ele>
        <time>2015-04-05T14:13:58Z</time>
      </trkpt>
      <trkpt lat="43.99873" lon="2.56484">
        <ele>189</ele>
        <time>2015-04-05T14:14:01Z</time>
      </trkpt>
      <trkpt lat="43.99883" lon="2.56485">
        <ele>188.3</ele>
        <time>2015-04-05T14:14:04Z</time>
      </trkpt>
      <trkpt lat="43.99893" lon="2.56482">
        <ele>187.8</ele>
        <time>2015-04-05T14:14:07Z</time>
      </trkpt>
      <trkpt lat="43.99904" lon="2.5648">
        <ele>187.2</ele>
        <time>2015-04-05T14:14:10Z</time>
      </trkpt>
      <trkpt lat="43.99915" lon="2.56479">
        <ele>186.3</ele>
        <time>2015-04-05T14:14:13Z</time>
      </trkpt>
      <trkpt lat="43.99926" lon="2.56481">
        <ele>185.2</ele>
        <time>2015-04-05T14:14:16Z</time>
      </trkpt>
      <trkpt lat="43.99937" lon="2.56481">
        <ele>185.5</ele>
        <time>2015-04-05T14:14:19Z</time>
      </trkpt>
      <trkpt lat="43.99949" lon="2.5648">
        <ele>185.5</ele>
        <time>2015-04-05T14:14:22Z</time>
      </trkpt>
      <trkpt lat="43.99961" lon="2.56481">
        <ele>185.2</ele>
        <time>2015-04-05T14:14:25Z</time>
      </trkpt>
      <trkpt lat="43.99974" lon="2.56482">
        <ele>184.4</ele>
        <time>2015-04-05T14:14:28Z</time>
      </trkpt>
      <trkpt lat="43.99987" lon="2.56484">
        <ele>183</ele>
        <time>2015-04-05T14:14:31Z</time>
      </trkpt>
      <trkpt lat="43.99999" lon="2.56486">
        <ele>182</ele>
        <time>2015-04-05T14:14:34Z</time>
      </trkpt>
      <trkpt lat="44.00008" lon="2.56487">
        <ele>181.7</ele>
        <time>2015-04-05T14:14:36Z</time>
      </trkpt>
      <trkpt lat="44.00021" lon="2.56489">
        <ele>181</ele>
        <time>2015-04-05T14:14:39Z</time>
      </trkpt>
      <trkpt lat="44.00033" lon="2.56491">
        <ele>180.7</ele>
        <time>2015-04-05T14:14:42Z</time>
      </trkpt>
      <trkpt lat="44.00046" lon="2.56494">
        <ele>181.7</ele>
        <time>2015-04-05T14:14:45Z</time>
      </trkpt>
      <trkpt lat="44.00058" lon="2.56498">
        <ele>182.5</ele>
        <time>2015-04-05T14:14:48Z</time>
      </trkpt>
      <trkpt lat="44.0007" lon="2.56503">
        <ele>183.8</ele>
        <time>2015-04-05T14:14:51Z</time>
      </trkpt>
      <trkpt lat="44.00083" lon="2.56507">
        <ele>184.9</ele>
        <time>2015-04-05T14:14:54Z</time>
      </trkpt>
      <trkpt lat="44.00095" lon="2.56513">
        <ele>185.7</ele>
        <time>2015-04-05T14:14:57Z</time>
      </trkpt>
      <trkpt lat="44.00103" lon="2.56521">
        <ele>184.9</ele>
        <time>2015-04-05T14:14:59Z</time>
      </trkpt>
      <trkpt lat="44.0011" lon="2.56529">
        <ele>183.1</ele>
        <time>2015-04-05T14:15:01Z</time>
      </trkpt>
      <trkpt lat="44.00117" lon="2.56538">
        <ele>182</ele>
        <time>2015-04-05T14:15:03Z</time>
      </trkpt>
      <trkpt lat="44.00126" lon="2.56549">
        <ele>181.7</ele>
        <time>2015-04-05T14:15:06Z</time>
      </trkpt>
      <trkpt lat="44.00133" lon="2.56563">
        <ele>181.8</ele>
        <time>2015-04-05T14:15:09Z</time>
      </trkpt>
      <trkpt lat="44.00139" lon="2.56576">
        <ele>181.8</ele>
        <time>2015-04-05T14:15:12Z</time>
      </trkpt>
      <trkpt lat="44.00145" lon="2.56588">
        <ele>181.6</ele>
        <time>2015-04-05T14:15:14Z</time>
      </trkpt>
      <trkpt lat="44.00151" lon="2.56602">
        <ele>181.7</ele>
        <time>2015-04-05T14:15:17Z</time>
      </trkpt>
      <trkpt lat="44.00157" lon="2.56617">
        <ele>181.2</ele>
        <time>2015-04-05T14:15:20Z</time>
      </trkpt>
      <trkpt lat="44.00163" lon="2.5663">
        <ele>181.3</ele>
        <time>2015-04-05T14:15:22Z</time>
      </trkpt>
      <trkpt lat="44.00168" lon="2.56643">
        <ele>181.5</ele>
        <time>2015-04-05T14:15:24Z</time>
      </trkpt>
      <trkpt lat="44.00173" lon="2.5666">
        <ele>182</ele>
        <time>2015-04-05T14:15:27Z</time>
      </trkpt>
      <trkpt lat="44.00178" lon="2.56672">
        <ele>182.3</ele>
        <time>2015-04-05T14:15:29Z</time>
      </trkpt>
      <trkpt lat="44.00182" lon="2.56688">
        <ele>183</ele>
        <time>2015-04-05T14:15:32Z</time>
      </trkpt>
      <trkpt lat="44.00182" lon="2.56704">
        <ele>183.6</ele>
        <time>2015-04-05T14:15:34Z</time>
      </trkpt>
      <trkpt lat="44.00181" lon="2.56719">
        <ele>184.6</ele>
        <time>2015-04-05T14:15:36Z</time>
      </trkpt>
      <trkpt lat="44.00179" lon="2.56733">
        <ele>185.1</ele>
        <time>2015-04-05T14:15:38Z</time>
      </trkpt>
      <trkpt lat="44.00177" lon="2.56746">
        <ele>185.4</ele>
        <time>2015-04-05T14:15:40Z</time>
      </trkpt>
      <trkpt lat="44.00173" lon="2.56758">
        <ele>185.3</ele>
        <time>2015-04-05T14:15:42Z</time>
      </trkpt>
      <trkpt lat="44.00168" lon="2.56771">
        <ele>186</ele>
        <time>2015-04-05T14:15:44Z</time>
      </trkpt>
      <trkpt lat="44.00165" lon="2.56783">
        <ele>186.6</ele>
        <time>2015-04-05T14:15:46Z</time>
      </trkpt>
      <trkpt lat="44.00162" lon="2.56801">
        <ele>186.8</ele>
        <time>2015-04-05T14:15:49Z</time>
      </trkpt>
      <trkpt lat="44.00163" lon="2.56815">
        <ele>186.9</ele>
        <time>2015-04-05T14:15:51Z</time>
      </trkpt>
      <trkpt lat="44.00164" lon="2.56829">
        <ele>187.2</ele>
        <time>2015-04-05T14:15:53Z</time>
      </trkpt>
      <trkpt lat="44.00167" lon="2.56845">
        <ele>187.7</ele>
        <time>2015-04-05T14:15:56Z</time>
      </trkpt>
      <trkpt lat="44.0017" lon="2.56861">
        <ele>188.1</ele>
        <time>2015-04-05T14:15:59Z</time>
      </trkpt>
      <trkpt lat="44.00171" lon="2.56879">
        <ele>188.7</ele>
        <time>2015-04-05T14:16:02Z</time>
      </trkpt>
      <trkpt lat="44.00174" lon="2.56892">
        <ele>188.9</ele>
        <time>2015-04-05T14:16:04Z</time>
      </trkpt>
      <trkpt lat="44.00176" lon="2.56907">
        <ele>188.6</ele>
        <time>2015-04-05T14:16:06Z</time>
      </trkpt>
      <trkpt lat="44.00175" lon="2.56923">
        <ele>188.9</ele>
        <time>2015-04-05T14:16:08Z</time>
      </trkpt>
      <trkpt lat="44.00171" lon="2.56938">
        <ele>189.3</ele>
        <time>2015-04-05T14:16:10Z</time>
      </trkpt>
      <trkpt lat="44.00167" lon="2.56951">
        <ele>189.5</ele>
        <time>2015-04-05T14:16:12Z</time>
      </trkpt>
      <trkpt lat="44.00163" lon="2.56965">
        <ele>189.8</ele>
        <time>2015-04-05T14:16:14Z</time>
      </trkpt>
      <trkpt lat="44.00158" lon="2.56979">
        <ele>190.2</ele>
        <time>2015-04-05T14:16:16Z</time>
      </trkpt>
      <trkpt lat="44.00154" lon="2.56993">
        <ele>190.4</ele>
        <time>2015-04-05T14:16:18Z</time>
      </trkpt>
      <trkpt lat="44.00148" lon="2.57007">
        <ele>190.8</ele>
        <time>2015-04-05T14:16:20Z</time>
      </trkpt>
      <trkpt lat="44.00143" lon="2.57023">
        <ele>191</ele>
        <time>2015-04-05T14:16:22Z</time>
      </trkpt>
      <trkpt lat="44.00139" lon="2.57039">
        <ele>191.1</ele>
        <time>2015-04-05T14:16:24Z</time>
      </trkpt>
      <trkpt lat="44.00137" lon="2.57056">
        <ele>191.5</ele>
        <time>2015-04-05T14:16:26Z</time>
      </trkpt>
      <trkpt lat="44.00132" lon="2.57073">
        <ele>191.9</ele>
        <time>2015-04-05T14:16:28Z</time>
      </trkpt>
      <trkpt lat="44.00127" lon="2.57089">
        <ele>192.2</ele>
        <time>2015-04-05T14:16:30Z</time>
      </trkpt>
      <trkpt lat="44.00121" lon="2.57104">
        <ele>192.5</ele>
        <time>2015-04-05T14:16:32Z</time>
      </trkpt>
      <trkpt lat="44.00116" lon="2.57117">
        <ele>192.9</ele>
        <time>2015-04-05T14:16:34Z</time>
      </trkpt>
      <trkpt lat="44.00109" lon="2.57128">
        <ele>193.2</ele>
        <time>2015-04-05T14:16:36Z</time>
      </trkpt>
      <trkpt lat="44.00106" lon="2.57143">
        <ele>193.7</ele>
        <time>2015-04-05T14:16:39Z</time>
      </trkpt>
      <trkpt lat="44.00109" lon="2.57162">
        <ele>193.8</ele>
        <time>2015-04-05T14:16:42Z</time>
      </trkpt>
      <trkpt lat="44.0011" lon="2.57177">
        <ele>194.5</ele>
        <time>2015-04-05T14:16:45Z</time>
      </trkpt>
      <trkpt lat="44.00111" lon="2.57191">
        <ele>194.8</ele>
        <time>2015-04-05T14:16:47Z</time>
      </trkpt>
      <trkpt lat="44.00113" lon="2.57206">
        <ele>195.2</ele>
        <time>2015-04-05T14:16:49Z</time>
      </trkpt>
      <trkpt lat="44.00114" lon="2.5722">
        <ele>195.9</ele>
        <time>2015-04-05T14:16:51Z</time>
      </trkpt>
      <trkpt lat="44.00114" lon="2.57236">
        <ele>196.7</ele>
        <time>2015-04-05T14:16:53Z</time>
      </trkpt>
      <trkpt lat="44.00112" lon="2.57252">
        <ele>197.2</ele>
        <time>2015-04-05T14:16:55Z</time>
      </trkpt>
      <trkpt lat="44.00109" lon="2.57266">
        <ele>197.5</ele>
        <time>2015-04-05T14:16:57Z</time>
      </trkpt>
      <trkpt lat="44.00107" lon="2.5728">
        <ele>197.9</ele>
        <time>2015-04-05T14:16:59Z</time>
      </trkpt>
      <trkpt lat="44.00111" lon="2.573">
        <ele>197.7</ele>
        <time>2015-04-05T14:17:01Z</time>
      </trkpt>
      <trkpt lat="44.00111" lon="2.5732">
        <ele>196.8</ele>
        <time>2015-04-05T14:17:03Z</time>
      </trkpt>
      <trkpt lat="44.00108" lon="2.57336">
        <ele>197.2</ele>
        <time>2015-04-05T14:17:05Z</time>
      </trkpt>
      <trkpt lat="44.00106" lon="2.57352">
        <ele>197.1</ele>
        <time>2015-04-05T14:17:07Z</time>
      </trkpt>
      <trkpt lat="44.00106" lon="2.57372">
        <ele>195.7</ele>
        <time>2015-04-05T14:17:09Z</time>
      </trkpt>
      <trkpt lat="44.00104" lon="2.57388">
        <ele>195.7</ele>
        <time>2015-04-05T14:17:11Z</time>
      </trkpt>
      <trkpt lat="44.00102" lon="2.57404">
        <ele>195.8</ele>
        <time>2015-04-05T14:17:13Z</time>
      </trkpt>
      <trkpt lat="44.001" lon="2.5742">
        <ele>195.1</ele>
        <time>2015-04-05T14:17:15Z</time>
      </trkpt>
      <trkpt lat="44.00099" lon="2.57435">
        <ele>195.4</ele>
        <time>2015-04-05T14:17:17Z</time>
      </trkpt>
      <trkpt lat="44.00099" lon="2.57452">
        <ele>194.4</ele>
        <time>2015-04-05T14:17:19Z</time>
      </trkpt>
      <trkpt lat="44.001" lon="2.57468">
        <ele>193.8</ele>
        <time>2015-04-05T14:17:21Z</time>
      </trkpt>
      <trkpt lat="44.00101" lon="2.57485">
        <ele>194.1</ele>
        <time>2015-04-05T14:17:23Z</time>
      </trkpt>
      <trkpt lat="44.00101" lon="2.575">
        <ele>194.5</ele>
        <time>2015-04-05T14:17:25Z</time>
      </trkpt>
      <trkpt lat="44.00104" lon="2.57515">
        <ele>194.5</ele>
        <time>2015-04-05T14:17:27Z</time>
      </trkpt>
      <trkpt lat="44.00106" lon="2.57528">
        <ele>194.6</ele>
        <time>2015-04-05T14:17:29Z</time>
      </trkpt>
      <trkpt lat="44.00108" lon="2.57541">
        <ele>194.9</ele>
        <time>2015-04-05T14:17:31Z</time>
      </trkpt>
      <trkpt lat="44.00112" lon="2.57553">
        <ele>195</ele>
        <time>2015-04-05T14:17:33Z</time>
      </trkpt>
      <trkpt lat="44.00118" lon="2.57566">
        <ele>195.5</ele>
        <time>2015-04-05T14:17:36Z</time>
      </trkpt>
      <trkpt lat="44.0012" lon="2.57582">
        <ele>195.9</ele>
        <time>2015-04-05T14:17:39Z</time>
      </trkpt>
      <trkpt lat="44.00122" lon="2.57599">
        <ele>196.2</ele>
        <time>2015-04-05T14:17:42Z</time>
      </trkpt>
      <trkpt lat="44.00122" lon="2.57617">
        <ele>196.8</ele>
        <time>2015-04-05T14:17:45Z</time>
      </trkpt>
      <trkpt lat="44.00125" lon="2.57634">
        <ele>197.5</ele>
        <time>2015-04-05T14:17:48Z</time>
      </trkpt>
      <trkpt lat="44.00128" lon="2.57648">
        <ele>198</ele>
        <time>2015-04-05T14:17:51Z</time>
      </trkpt>
      <trkpt lat="44.00131" lon="2.57665">
        <ele>198.8</ele>
        <time>2015-04-05T14:17:54Z</time>
      </trkpt>
      <trkpt lat="44.00135" lon="2.57682">
        <ele>199.5</ele>
        <time>2015-04-05T14:17:57Z</time>
      </trkpt>
      <trkpt lat="44.00138" lon="2.57695">
        <ele>200</ele>
        <time>2015-04-05T14:17:59Z</time>
      </trkpt>
      <trkpt lat="44.00142" lon="2.57707">
        <ele>200.6</ele>
        <time>2015-04-05T14:18:01Z</time>
      </trkpt>
      <trkpt lat="44.00147" lon="2.57722">
        <ele>201.2</ele>
        <time>2015-04-05T14:18:03Z</time>
      </trkpt>
      <trkpt lat="44.00153" lon="2.57736">
        <ele>201.9</ele>
        <time>2015-04-05T14:18:05Z</time>
      </trkpt>
      <trkpt lat="44.00158" lon="2.5775">
        <ele>202.5</ele>
        <time>2015-04-05T14:18:07Z</time>
      </trkpt>
      <trkpt lat="44.00164" lon="2.57764">
        <ele>203</ele>
        <time>2015-04-05T14:18:09Z</time>
      </trkpt>
      <trkpt lat="44.0017" lon="2.57778">
        <ele>203.6</ele>
        <time>2015-04-05T14:18:11Z</time>
      </trkpt>
      <trkpt lat="44.00175" lon="2.57788">
        <ele>202.6</ele>
        <time>2015-04-05T14:18:12Z</time>
      </trkpt>
      <trkpt lat="44.00178" lon="2.57801">
        <ele>203.2</ele>
        <time>2015-04-05T14:18:14Z</time>
      </trkpt>
      <trkpt lat="44.00181" lon="2.57814">
        <ele>203.8</ele>
        <time>2015-04-05T14:18:16Z</time>
      </trkpt>
      <trkpt lat="44.00187" lon="2.57833">
        <ele>204.2</ele>
        <time>2015-04-05T14:18:19Z</time>
      </trkpt>
      <trkpt lat="44.00192" lon="2.57846">
        <ele>204.1</ele>
        <time>2015-04-05T14:18:21Z</time>
      </trkpt>
      <trkpt lat="44.00197" lon="2.57859">
        <ele>204.2</ele>
        <time>2015-04-05T14:18:23Z</time>
      </trkpt>
      <trkpt lat="44.00202" lon="2.5787">
        <ele>204.2</ele>
        <time>2015-04-05T14:18:25Z</time>
      </trkpt>
      <trkpt lat="44.00208" lon="2.57888">
        <ele>204</ele>
        <time>2015-04-05T14:18:28Z</time>
      </trkpt>
      <trkpt lat="44.0021" lon="2.57902">
        <ele>204.4</ele>
        <time>2015-04-05T14:18:30Z</time>
      </trkpt>
      <trkpt lat="44.00211" lon="2.57915">
        <ele>204.9</ele>
        <time>2015-04-05T14:18:32Z</time>
      </trkpt>
      <trkpt lat="44.00212" lon="2.57929">
        <ele>204.6</ele>
        <time>2015-04-05T14:18:34Z</time>
      </trkpt>
      <trkpt lat="44.0022" lon="2.57942">
        <ele>204.1</ele>
        <time>2015-04-05T14:18:37Z</time>
      </trkpt>
      <trkpt lat="44.00227" lon="2.57951">
        <ele>203.8</ele>
        <time>2015-04-05T14:18:40Z</time>
      </trkpt>
      <trkpt lat="44.00234" lon="2.57959">
        <ele>202.7</ele>
        <time>2015-04-05T14:18:43Z</time>
      </trkpt>
      <trkpt lat="44.00244" lon="2.5797">
        <ele>199.9</ele>
        <time>2015-04-05T14:18:46Z</time>
      </trkpt>
      <trkpt lat="44.00253" lon="2.57981">
        <ele>194.5</ele>
        <time>2015-04-05T14:18:49Z</time>
      </trkpt>
      <trkpt lat="44.00261" lon="2.57989">
        <ele>192.8</ele>
        <time>2015-04-05T14:18:52Z</time>
      </trkpt>
      <trkpt lat="44.00267" lon="2.58">
        <ele>191.5</ele>
        <time>2015-04-05T14:18:55Z</time>
      </trkpt>
      <trkpt lat="44.00269" lon="2.58013">
        <ele>191.5</ele>
        <time>2015-04-05T14:18:58Z</time>
      </trkpt>
      <trkpt lat="44.00274" lon="2.58029">
        <ele>191.3</ele>
        <time>2015-04-05T14:19:02Z</time>
      </trkpt>
      <trkpt lat="44.00283" lon="2.58044">
        <ele>190.6</ele>
        <time>2015-04-05T14:19:05Z</time>
      </trkpt>
      <trkpt lat="44.00287" lon="2.5806">
        <ele>190.3</ele>
        <time>2015-04-05T14:19:08Z</time>
      </trkpt>
      <trkpt lat="44.00292" lon="2.58076">
        <ele>189.5</ele>
        <time>2015-04-05T14:19:11Z</time>
      </trkpt>
      <trkpt lat="44.00297" lon="2.5809">
        <ele>188.8</ele>
        <time>2015-04-05T14:19:14Z</time>
      </trkpt>
      <trkpt lat="44.00302" lon="2.58105">
        <ele>187.9</ele>
        <time>2015-04-05T14:19:17Z</time>
      </trkpt>
      <trkpt lat="44.00307" lon="2.58116">
        <ele>187.4</ele>
        <time>2015-04-05T14:19:20Z</time>
      </trkpt>
      <trkpt lat="44.00309" lon="2.58128">
        <ele>186.6</ele>
        <time>2015-04-05T14:19:23Z</time>
      </trkpt>
      <trkpt lat="44.00311" lon="2.58142">
        <ele>186.5</ele>
        <time>2015-04-05T14:19:26Z</time>
      </trkpt>
      <trkpt lat="44.00311" lon="2.58157">
        <ele>186.4</ele>
        <time>2015-04-05T14:19:29Z</time>
      </trkpt>
      <trkpt lat="44.00313" lon="2.58172">
        <ele>186.3</ele>
        <time>2015-04-05T14:19:32Z</time>
      </trkpt>
      <trkpt lat="44.00317" lon="2.58185">
        <ele>186.3</ele>
        <time>2015-04-05T14:19:35Z</time>
      </trkpt>
      <trkpt lat="44.00325" lon="2.58198">
        <ele>186.2</ele>
        <time>2015-04-05T14:19:38Z</time>
      </trkpt>
      <trkpt lat="44.00334" lon="2.58211">
        <ele>186.1</ele>
        <time>2015-04-05T14:19:41Z</time>
      </trkpt>
      <trkpt lat="44.00341" lon="2.5822">
        <ele>186</ele>
        <time>2015-04-05T14:19:43Z</time>
      </trkpt>
      <trkpt lat="44.00351" lon="2.58233">
        <ele>185.3</ele>
        <time>2015-04-05T14:19:45Z</time>
      </trkpt>
      <trkpt lat="44.00359" lon="2.58245">
        <ele>184.9</ele>
        <time>2015-04-05T14:19:47Z</time>
      </trkpt>
      <trkpt lat="44.00366" lon="2.58255">
        <ele>185.1</ele>
        <time>2015-04-05T14:19:49Z</time>
      </trkpt>
      <trkpt lat="44.00373" lon="2.58266">
        <ele>185.2</ele>
        <time>2015-04-05T14:19:51Z</time>
      </trkpt>
      <trkpt lat="44.00384" lon="2.58282">
        <ele>184.4</ele>
        <time>2015-04-05T14:19:53Z</time>
      </trkpt>
      <trkpt lat="44.00391" lon="2.58292">
        <ele>184.3</ele>
        <time>2015-04-05T14:19:54Z</time>
      </trkpt>
      <trkpt lat="44.004" lon="2.58307">
        <ele>184.2</ele>
        <time>2015-04-05T14:19:56Z</time>
      </trkpt>
      <trkpt lat="44.00407" lon="2.58319">
        <ele>184.1</ele>
        <time>2015-04-05T14:19:58Z</time>
      </trkpt>
      <trkpt lat="44.00413" lon="2.5833">
        <ele>184</ele>
        <time>2015-04-05T14:20:00Z</time>
      </trkpt>
      <trkpt lat="44.00419" lon="2.5834">
        <ele>183.9</ele>
        <time>2015-04-05T14:20:02Z</time>
      </trkpt>
      <trkpt lat="44.00426" lon="2.58355">
        <ele>183.9</ele>
        <time>2015-04-05T14:20:05Z</time>
      </trkpt>
      <trkpt lat="44.00432" lon="2.58366">
        <ele>184.1</ele>
        <time>2015-04-05T14:20:07Z</time>
      </trkpt>
      <trkpt lat="44.00442" lon="2.5838">
        <ele>184.2</ele>
        <time>2015-04-05T14:20:10Z</time>
      </trkpt>
      <trkpt lat="44.00448" lon="2.58391">
        <ele>184</ele>
        <time>2015-04-05T14:20:12Z</time>
      </trkpt>
      <trkpt lat="44.00454" lon="2.58402">
        <ele>183.9</ele>
        <time>2015-04-05T14:20:14Z</time>
      </trkpt>
      <trkpt lat="44.00459" lon="2.58413">
        <ele>183.9</ele>
        <time>2015-04-05T14:20:16Z</time>
      </trkpt>
      <trkpt lat="44.00464" lon="2.58428">
        <ele>183.8</ele>
        <time>2015-04-05T14:20:19Z</time>
      </trkpt>
      <trkpt lat="44.00466" lon="2.5844">
        <ele>183.7</ele>
        <time>2015-04-05T14:20:22Z</time>
      </trkpt>
      <trkpt lat="44.00472" lon="2.58452">
        <ele>183.7</ele>
        <time>2015-04-05T14:20:25Z</time>
      </trkpt>
      <trkpt lat="44.00476" lon="2.58464">
        <ele>183.6</ele>
        <time>2015-04-05T14:20:28Z</time>
      </trkpt>
      <trkpt lat="44.00477" lon="2.58479">
        <ele>184.1</ele>
        <time>2015-04-05T14:20:31Z</time>
      </trkpt>
      <trkpt lat="44.00474" lon="2.58495">
        <ele>184.4</ele>
        <time>2015-04-05T14:20:34Z</time>
      </trkpt>
      <trkpt lat="44.00472" lon="2.5851">
        <ele>184.7</ele>
        <time>2015-04-05T14:20:37Z</time>
      </trkpt>
      <trkpt lat="44.00471" lon="2.58526">
        <ele>184.8</ele>
        <time>2015-04-05T14:20:40Z</time>
      </trkpt>
      <trkpt lat="44.0047" lon="2.58541">
        <ele>185.6</ele>
        <time>2015-04-05T14:20:44Z</time>
      </trkpt>
      <trkpt lat="44.00471" lon="2.58557">
        <ele>186.2</ele>
        <time>2015-04-05T14:20:48Z</time>
      </trkpt>
      <trkpt lat="44.00472" lon="2.58571">
        <ele>186.4</ele>
        <time>2015-04-05T14:20:51Z</time>
      </trkpt>
      <trkpt lat="44.00477" lon="2.58581">
        <ele>186.8</ele>
        <time>2015-04-05T14:20:54Z</time>
      </trkpt>
      <trkpt lat="44.00481" lon="2.58594">
        <ele>187.1</ele>
        <time>2015-04-05T14:20:57Z</time>
      </trkpt>
      <trkpt lat="44.00484" lon="2.58609">
        <ele>187.8</ele>
        <time>2015-04-05T14:21:01Z</time>
      </trkpt>
      <trkpt lat="44.00487" lon="2.58625">
        <ele>188.6</ele>
        <time>2015-04-05T14:21:05Z</time>
      </trkpt>
      <trkpt lat="44.00492" lon="2.58638">
        <ele>189.5</ele>
        <time>2015-04-05T14:21:09Z</time>
      </trkpt>
      <trkpt lat="44.00495" lon="2.58654">
        <ele>190.6</ele>
        <time>2015-04-05T14:21:13Z</time>
      </trkpt>
      <trkpt lat="44.00497" lon="2.58667">
        <ele>191.2</ele>
        <time>2015-04-05T14:21:16Z</time>
      </trkpt>
      <trkpt lat="44.00501" lon="2.58682">
        <ele>192.3</ele>
        <time>2015-04-05T14:21:20Z</time>
      </trkpt>
      <trkpt lat="44.00506" lon="2.58693">
        <ele>193.1</ele>
        <time>2015-04-05T14:21:23Z</time>
      </trkpt>
      <trkpt lat="44.00514" lon="2.58705">
        <ele>193.5</ele>
        <time>2015-04-05T14:21:26Z</time>
      </trkpt>
      <trkpt lat="44.0052" lon="2.5872">
        <ele>194.6</ele>
        <time>2015-04-05T14:21:30Z</time>
      </trkpt>
      <trkpt lat="44.00525" lon="2.58731">
        <ele>195.1</ele>
        <time>2015-04-05T14:21:33Z</time>
      </trkpt>
      <trkpt lat="44.00529" lon="2.58745">
        <ele>195.2</ele>
        <time>2015-04-05T14:21:36Z</time>
      </trkpt>
      <trkpt lat="44.0053" lon="2.58763">
        <ele>196.1</ele>
        <time>2015-04-05T14:21:40Z</time>
      </trkpt>
      <trkpt lat="44.00529" lon="2.58777">
        <ele>197.1</ele>
        <time>2015-04-05T14:21:43Z</time>
      </trkpt>
      <trkpt lat="44.00533" lon="2.58792">
        <ele>197.1</ele>
        <time>2015-04-05T14:21:46Z</time>
      </trkpt>
      <trkpt lat="44.0054" lon="2.58808">
        <ele>196.6</ele>
        <time>2015-04-05T14:21:48Z</time>
      </trkpt>
      <trkpt lat="44.00547" lon="2.58819">
        <ele>196.6</ele>
        <time>2015-04-05T14:21:50Z</time>
      </trkpt>
      <trkpt lat="44.00556" lon="2.58831">
        <ele>196.4</ele>
        <time>2015-04-05T14:21:52Z</time>
      </trkpt>
      <trkpt lat="44.00563" lon="2.58843">
        <ele>196.3</ele>
        <time>2015-04-05T14:21:54Z</time>
      </trkpt>
      <trkpt lat="44.00571" lon="2.58857">
        <ele>195.9</ele>
        <time>2015-04-05T14:21:56Z</time>
      </trkpt>
      <trkpt lat="44.00577" lon="2.58869">
        <ele>196.1</ele>
        <time>2015-04-05T14:21:58Z</time>
      </trkpt>
      <trkpt lat="44.00582" lon="2.5888">
        <ele>196.4</ele>
        <time>2015-04-05T14:22:00Z</time>
      </trkpt>
      <trkpt lat="44.00589" lon="2.58894">
        <ele>197</ele>
        <time>2015-04-05T14:22:03Z</time>
      </trkpt>
      <trkpt lat="44.00593" lon="2.58909">
        <ele>197.8</ele>
        <time>2015-04-05T14:22:06Z</time>
      </trkpt>
      <trkpt lat="44.006" lon="2.58923">
        <ele>198.6</ele>
        <time>2015-04-05T14:22:10Z</time>
      </trkpt>
      <trkpt lat="44.00606" lon="2.58936">
        <ele>199.3</ele>
        <time>2015-04-05T14:22:14Z</time>
      </trkpt>
      <trkpt lat="44.00611" lon="2.58948">
        <ele>200.4</ele>
        <time>2015-04-05T14:22:17Z</time>
      </trkpt>
      <trkpt lat="44.00612" lon="2.58963">
        <ele>201.4</ele>
        <time>2015-04-05T14:22:20Z</time>
      </trkpt>
      <trkpt lat="44.00613" lon="2.58976">
        <ele>202</ele>
        <time>2015-04-05T14:22:23Z</time>
      </trkpt>
      <trkpt lat="44.00617" lon="2.58987">
        <ele>201.7</ele>
        <time>2015-04-05T14:22:25Z</time>
      </trkpt>
      <trkpt lat="44.0062" lon="2.59001">
        <ele>202.7</ele>
        <time>2015-04-05T14:22:28Z</time>
      </trkpt>
      <trkpt lat="44.0062" lon="2.59014">
        <ele>203.5</ele>
        <time>2015-04-05T14:22:31Z</time>
      </trkpt>
      <trkpt lat="44.00623" lon="2.59026">
        <ele>204.5</ele>
        <time>2015-04-05T14:22:35Z</time>
      </trkpt>
      <trkpt lat="44.00626" lon="2.5904">
        <ele>205.5</ele>
        <time>2015-04-05T14:22:39Z</time>
      </trkpt>
      <trkpt lat="44.00629" lon="2.59054">
        <ele>206.8</ele>
        <time>2015-04-05T14:22:43Z</time>
      </trkpt>
      <trkpt lat="44.0063" lon="2.59068">
        <ele>207.5</ele>
        <time>2015-04-05T14:22:46Z</time>
      </trkpt>
      <trkpt lat="44.00631" lon="2.5908">
        <ele>208.1</ele>
        <time>2015-04-05T14:22:48Z</time>
      </trkpt>
      <trkpt lat="44.00634" lon="2.59096">
        <ele>207.9</ele>
        <time>2015-04-05T14:22:50Z</time>
      </trkpt>
      <trkpt lat="44.00637" lon="2.59111">
        <ele>207.8</ele>
        <time>2015-04-05T14:22:52Z</time>
      </trkpt>
      <trkpt lat="44.00637" lon="2.59129">
        <ele>208.3</ele>
        <time>2015-04-05T14:22:55Z</time>
      </trkpt>
      <trkpt lat="44.00635" lon="2.59144">
        <ele>210</ele>
        <time>2015-04-05T14:22:58Z</time>
      </trkpt>
      <trkpt lat="44.00633" lon="2.59158">
        <ele>212.1</ele>
        <time>2015-04-05T14:23:01Z</time>
      </trkpt>
      <trkpt lat="44.00633" lon="2.59172">
        <ele>214</ele>
        <time>2015-04-05T14:23:04Z</time>
      </trkpt>
      <trkpt lat="44.00637" lon="2.59186">
        <ele>215.7</ele>
        <time>2015-04-05T14:23:07Z</time>
      </trkpt>
      <trkpt lat="44.00643" lon="2.59202">
        <ele>217.4</ele>
        <time>2015-04-05T14:23:10Z</time>
      </trkpt>
      <trkpt lat="44.00648" lon="2.59213">
        <ele>219</ele>
        <time>2015-04-05T14:23:13Z</time>
      </trkpt>
      <trkpt lat="44.00653" lon="2.59226">
        <ele>219.7</ele>
        <time>2015-04-05T14:23:16Z</time>
      </trkpt>
      <trkpt lat="44.00662" lon="2.59238">
        <ele>219.3</ele>
        <time>2015-04-05T14:23:18Z</time>
      </trkpt>
      <trkpt lat="44.00668" lon="2.59248">
        <ele>220.1</ele>
        <time>2015-04-05T14:23:21Z</time>
      </trkpt>
      <trkpt lat="44.00674" lon="2.5926">
        <ele>221.2</ele>
        <time>2015-04-05T14:23:24Z</time>
      </trkpt>
      <trkpt lat="44.00679" lon="2.59273">
        <ele>222</ele>
        <time>2015-04-05T14:23:27Z</time>
      </trkpt>
      <trkpt lat="44.00683" lon="2.59284">
        <ele>223.4</ele>
        <time>2015-04-05T14:23:30Z</time>
      </trkpt>
      <trkpt lat="44.00686" lon="2.59299">
        <ele>224.5</ele>
        <time>2015-04-05T14:23:33Z</time>
      </trkpt>
      <trkpt lat="44.00689" lon="2.59321">
        <ele>223.5</ele>
        <time>2015-04-05T14:23:36Z</time>
      </trkpt>
      <trkpt lat="44.00689" lon="2.59338">
        <ele>223.3</ele>
        <time>2015-04-05T14:23:38Z</time>
      </trkpt>
      <trkpt lat="44.00691" lon="2.59354">
        <ele>223</ele>
        <time>2015-04-05T14:23:40Z</time>
      </trkpt>
      <trkpt lat="44.00689" lon="2.59368">
        <ele>222.4</ele>
        <time>2015-04-05T14:23:42Z</time>
      </trkpt>
      <trkpt lat="44.00685" lon="2.5938">
        <ele>222.2</ele>
        <time>2015-04-05T14:23:44Z</time>
      </trkpt>
      <trkpt lat="44.00681" lon="2.59397">
        <ele>221.7</ele>
        <time>2015-04-05T14:23:47Z</time>
      </trkpt>
      <trkpt lat="44.00677" lon="2.59415">
        <ele>221</ele>
        <time>2015-04-05T14:23:50Z</time>
      </trkpt>
      <trkpt lat="44.00674" lon="2.59431">
        <ele>220.5</ele>
        <time>2015-04-05T14:23:53Z</time>
      </trkpt>
      <trkpt lat="44.00672" lon="2.59448">
        <ele>220.1</ele>
        <time>2015-04-05T14:23:56Z</time>
      </trkpt>
      <trkpt lat="44.00667" lon="2.59463">
        <ele>218.7</ele>
        <time>2015-04-05T14:23:59Z</time>
      </trkpt>
      <trkpt lat="44.00662" lon="2.59479">
        <ele>217.8</ele>
        <time>2015-04-05T14:24:02Z</time>
      </trkpt>
      <trkpt lat="44.00656" lon="2.59492">
        <ele>216.5</ele>
        <time>2015-04-05T14:24:05Z</time>
      </trkpt>
      <trkpt lat="44.0065" lon="2.59505">
        <ele>215.2</ele>
        <time>2015-04-05T14:24:08Z</time>
      </trkpt>
      <trkpt lat="44.00648" lon="2.59521">
        <ele>214</ele>
        <time>2015-04-05T14:24:11Z</time>
      </trkpt>
      <trkpt lat="44.00641" lon="2.59532">
        <ele>212.7</ele>
        <time>2015-04-05T14:24:14Z</time>
      </trkpt>
      <trkpt lat="44.00636" lon="2.59542">
        <ele>211.7</ele>
        <time>2015-04-05T14:24:17Z</time>
      </trkpt>
      <trkpt lat="44.00629" lon="2.59552">
        <ele>209.2</ele>
        <time>2015-04-05T14:24:21Z</time>
      </trkpt>
      <trkpt lat="44.00621" lon="2.59559">
        <ele>206.5</ele>
        <time>2015-04-05T14:24:26Z</time>
      </trkpt>
      <trkpt lat="44.00614" lon="2.59567">
        <ele>204.1</ele>
        <time>2015-04-05T14:24:32Z</time>
      </trkpt>
      <trkpt lat="44.0061" lon="2.59555">
        <ele>203.9</ele>
        <time>2015-04-05T14:24:39Z</time>
      </trkpt>
      <trkpt lat="44.00606" lon="2.59569">
        <ele>192.9</ele>
        <time>2015-04-05T14:26:55Z</time>
      </trkpt>
      <trkpt lat="44.00599" lon="2.59579">
        <ele>192.9</ele>
        <time>2015-04-05T14:27:00Z</time>
      </trkpt>
      <trkpt lat="44.00591" lon="2.59589">
        <ele>192.8</ele>
        <time>2015-04-05T14:27:06Z</time>
      </trkpt>
      <trkpt lat="44.00584" lon="2.59598">
        <ele>193</ele>
        <time>2015-04-05T14:27:11Z</time>
      </trkpt>
      <trkpt lat="44.00576" lon="2.59605">
        <ele>193</ele>
        <time>2015-04-05T14:27:16Z</time>
      </trkpt>
      <trkpt lat="44.00568" lon="2.59614">
        <ele>193.1</ele>
        <time>2015-04-05T14:27:21Z</time>
      </trkpt>
      <trkpt lat="44.0056" lon="2.59622">
        <ele>192.9</ele>
        <time>2015-04-05T14:27:25Z</time>
      </trkpt>
      <trkpt lat="44.00554" lon="2.59632">
        <ele>193.5</ele>
        <time>2015-04-05T14:27:28Z</time>
      </trkpt>
      <trkpt lat="44.00546" lon="2.59641">
        <ele>194.1</ele>
        <time>2015-04-05T14:27:31Z</time>
      </trkpt>
      <trkpt lat="44.00539" lon="2.59653">
        <ele>194.4</ele>
        <time>2015-04-05T14:27:35Z</time>
      </trkpt>
      <trkpt lat="44.00534" lon="2.59664">
        <ele>194.5</ele>
        <time>2015-04-05T14:27:39Z</time>
      </trkpt>
      <trkpt lat="44.0053" lon="2.59677">
        <ele>195.2</ele>
        <time>2015-04-05T14:27:43Z</time>
      </trkpt>
      <trkpt lat="44.00525" lon="2.5969">
        <ele>197.7</ele>
        <time>2015-04-05T14:27:48Z</time>
      </trkpt>
      <trkpt lat="44.00519" lon="2.59701">
        <ele>198.9</ele>
        <time>2015-04-05T14:27:53Z</time>
      </trkpt>
      <trkpt lat="44.00513" lon="2.59711">
        <ele>200</ele>
        <time>2015-04-05T14:27:57Z</time>
      </trkpt>
      <trkpt lat="44.0051" lon="2.59724">
        <ele>201.4</ele>
        <time>2015-04-05T14:28:01Z</time>
      </trkpt>
      <trkpt lat="44.00503" lon="2.59735">
        <ele>203.2</ele>
        <time>2015-04-05T14:28:06Z</time>
      </trkpt>
      <trkpt lat="44.00503" lon="2.59749">
        <ele>204.2</ele>
        <time>2015-04-05T14:28:11Z</time>
      </trkpt>
      <trkpt lat="44.00502" lon="2.59762">
        <ele>205.9</ele>
        <time>2015-04-05T14:28:16Z</time>
      </trkpt>
      <trkpt lat="44.005" lon="2.59775">
        <ele>207.1</ele>
        <time>2015-04-05T14:28:19Z</time>
      </trkpt>
      <trkpt lat="44.00497" lon="2.59789">
        <ele>208.4</ele>
        <time>2015-04-05T14:28:23Z</time>
      </trkpt>
      <trkpt lat="44.00495" lon="2.59801">
        <ele>210</ele>
        <time>2015-04-05T14:28:26Z</time>
      </trkpt>
      <trkpt lat="44.00493" lon="2.59816">
        <ele>211.3</ele>
        <time>2015-04-05T14:28:29Z</time>
      </trkpt>
      <trkpt lat="44.00492" lon="2.59828">
        <ele>213.4</ele>
        <time>2015-04-05T14:28:33Z</time>
      </trkpt>
      <trkpt lat="44.00486" lon="2.59841">
        <ele>215.4</ele>
        <time>2015-04-05T14:28:37Z</time>
      </trkpt>
      <trkpt lat="44.00484" lon="2.59856">
        <ele>217.3</ele>
        <time>2015-04-05T14:28:41Z</time>
      </trkpt>
      <trkpt lat="44.00486" lon="2.59873">
        <ele>218.9</ele>
        <time>2015-04-05T14:28:45Z</time>
      </trkpt>
      <trkpt lat="44.00487" lon="2.59889">
        <ele>220.6</ele>
        <time>2015-04-05T14:28:49Z</time>
      </trkpt>
      <trkpt lat="44.00483" lon="2.59902">
        <ele>222.1</ele>
        <time>2015-04-05T14:28:52Z</time>
      </trkpt>
      <trkpt lat="44.0048" lon="2.59919">
        <ele>224.1</ele>
        <time>2015-04-05T14:28:56Z</time>
      </trkpt>
      <trkpt lat="44.00478" lon="2.59935">
        <ele>225.1</ele>
        <time>2015-04-05T14:28:59Z</time>
      </trkpt>
      <trkpt lat="44.0048" lon="2.5995">
        <ele>226.1</ele>
        <time>2015-04-05T14:29:02Z</time>
      </trkpt>
      <trkpt lat="44.00482" lon="2.59966">
        <ele>227.2</ele>
        <time>2015-04-05T14:29:05Z</time>
      </trkpt>
      <trkpt lat="44.00482" lon="2.59979">
        <ele>228.6</ele>
        <time>2015-04-05T14:29:09Z</time>
      </trkpt>
      <trkpt lat="44.00479" lon="2.59992">
        <ele>229.4</ele>
        <time>2015-04-05T14:29:13Z</time>
      </trkpt>
      <trkpt lat="44.00476" lon="2.60005">
        <ele>230.7</ele>
        <time>2015-04-05T14:29:16Z</time>
      </trkpt>
      <trkpt lat="44.00472" lon="2.6002">
        <ele>231</ele>
        <time>2015-04-05T14:29:19Z</time>
      </trkpt>
      <trkpt lat="44.00464" lon="2.60034">
        <ele>228.1</ele>
        <time>2015-04-05T14:29:22Z</time>
      </trkpt>
      <trkpt lat="44.00461" lon="2.60049">
        <ele>228.9</ele>
        <time>2015-04-05T14:29:25Z</time>
      </trkpt>
      <trkpt lat="44.00464" lon="2.60065">
        <ele>229.2</ele>
        <time>2015-04-05T14:29:28Z</time>
      </trkpt>
      <trkpt lat="44.00468" lon="2.60082">
        <ele>230</ele>
        <time>2015-04-05T14:29:31Z</time>
      </trkpt>
      <trkpt lat="44.00472" lon="2.60101">
        <ele>230.8</ele>
        <time>2015-04-05T14:29:34Z</time>
      </trkpt>
      <trkpt lat="44.00474" lon="2.60115">
        <ele>231.5</ele>
        <time>2015-04-05T14:29:36Z</time>
      </trkpt>
      <trkpt lat="44.00476" lon="2.6013">
        <ele>232.2</ele>
        <time>2015-04-05T14:29:38Z</time>
      </trkpt>
      <trkpt lat="44.00479" lon="2.60145">
        <ele>232.3</ele>
        <time>2015-04-05T14:29:40Z</time>
      </trkpt>
      <trkpt lat="44.00482" lon="2.6016">
        <ele>232.9</ele>
        <time>2015-04-05T14:29:42Z</time>
      </trkpt>
      <trkpt lat="44.00486" lon="2.60175">
        <ele>232.2</ele>
        <time>2015-04-05T14:29:44Z</time>
      </trkpt>
      <trkpt lat="44.00491" lon="2.60191">
        <ele>230.7</ele>
        <time>2015-04-05T14:29:46Z</time>
      </trkpt>
      <trkpt lat="44.00498" lon="2.60208">
        <ele>230.6</ele>
        <time>2015-04-05T14:29:48Z</time>
      </trkpt>
      <trkpt lat="44.00505" lon="2.60224">
        <ele>231</ele>
        <time>2015-04-05T14:29:50Z</time>
      </trkpt>
      <trkpt lat="44.00511" lon="2.60241">
        <ele>230.9</ele>
        <time>2015-04-05T14:29:52Z</time>
      </trkpt>
      <trkpt lat="44.00517" lon="2.60255">
        <ele>231.5</ele>
        <time>2015-04-05T14:29:54Z</time>
      </trkpt>
      <trkpt lat="44.00522" lon="2.60269">
        <ele>232.1</ele>
        <time>2015-04-05T14:29:56Z</time>
      </trkpt>
      <trkpt lat="44.00527" lon="2.60282">
        <ele>232.6</ele>
        <time>2015-04-05T14:29:58Z</time>
      </trkpt>
      <trkpt lat="44.00532" lon="2.60297">
        <ele>232.9</ele>
        <time>2015-04-05T14:30:00Z</time>
      </trkpt>
      <trkpt lat="44.00537" lon="2.60309">
        <ele>232.9</ele>
        <time>2015-04-05T14:30:02Z</time>
      </trkpt>
      <trkpt lat="44.00544" lon="2.60325">
        <ele>233</ele>
        <time>2015-04-05T14:30:05Z</time>
      </trkpt>
      <trkpt lat="44.00549" lon="2.60336">
        <ele>231.4</ele>
        <time>2015-04-05T14:30:07Z</time>
      </trkpt>
      <trkpt lat="44.00557" lon="2.60346">
        <ele>230.8</ele>
        <time>2015-04-05T14:30:09Z</time>
      </trkpt>
      <trkpt lat="44.00564" lon="2.60355">
        <ele>228.4</ele>
        <time>2015-04-05T14:30:11Z</time>
      </trkpt>
      <trkpt lat="44.00574" lon="2.60364">
        <ele>226.5</ele>
        <time>2015-04-05T14:30:14Z</time>
      </trkpt>
      <trkpt lat="44.00586" lon="2.60374">
        <ele>223.7</ele>
        <time>2015-04-05T14:30:17Z</time>
      </trkpt>
      <trkpt lat="44.00593" lon="2.60381">
        <ele>221.9</ele>
        <time>2015-04-05T14:30:19Z</time>
      </trkpt>
      <trkpt lat="44.00603" lon="2.60389">
        <ele>220.8</ele>
        <time>2015-04-05T14:30:22Z</time>
      </trkpt>
      <trkpt lat="44.00612" lon="2.60397">
        <ele>218.7</ele>
        <time>2015-04-05T14:30:25Z</time>
      </trkpt>
      <trkpt lat="44.00621" lon="2.60403">
        <ele>217.7</ele>
        <time>2015-04-05T14:30:28Z</time>
      </trkpt>
      <trkpt lat="44.00631" lon="2.60415">
        <ele>217.2</ele>
        <time>2015-04-05T14:30:31Z</time>
      </trkpt>
      <trkpt lat="44.00643" lon="2.60426">
        <ele>216.1</ele>
        <time>2015-04-05T14:30:34Z</time>
      </trkpt>
      <trkpt lat="44.00652" lon="2.60436">
        <ele>215.7</ele>
        <time>2015-04-05T14:30:36Z</time>
      </trkpt>
      <trkpt lat="44.00661" lon="2.60446">
        <ele>215.1</ele>
        <time>2015-04-05T14:30:38Z</time>
      </trkpt>
      <trkpt lat="44.00669" lon="2.60455">
        <ele>214.1</ele>
        <time>2015-04-05T14:30:40Z</time>
      </trkpt>
      <trkpt lat="44.00678" lon="2.60465">
        <ele>213.2</ele>
        <time>2015-04-05T14:30:42Z</time>
      </trkpt>
      <trkpt lat="44.00687" lon="2.60475">
        <ele>212.3</ele>
        <time>2015-04-05T14:30:44Z</time>
      </trkpt>
      <trkpt lat="44.00696" lon="2.60484">
        <ele>211.2</ele>
        <time>2015-04-05T14:30:46Z</time>
      </trkpt>
      <trkpt lat="44.00706" lon="2.60492">
        <ele>210</ele>
        <time>2015-04-05T14:30:48Z</time>
      </trkpt>
      <trkpt lat="44.00717" lon="2.60498">
        <ele>208.4</ele>
        <time>2015-04-05T14:30:50Z</time>
      </trkpt>
      <trkpt lat="44.00729" lon="2.60504">
        <ele>207</ele>
        <time>2015-04-05T14:30:52Z</time>
      </trkpt>
      <trkpt lat="44.00741" lon="2.6051">
        <ele>205.9</ele>
        <time>2015-04-05T14:30:54Z</time>
      </trkpt>
      <trkpt lat="44.00754" lon="2.60517">
        <ele>204.5</ele>
        <time>2015-04-05T14:30:56Z</time>
      </trkpt>
      <trkpt lat="44.00767" lon="2.60523">
        <ele>203.1</ele>
        <time>2015-04-05T14:30:58Z</time>
      </trkpt>
      <trkpt lat="44.0078" lon="2.60531">
        <ele>201.4</ele>
        <time>2015-04-05T14:31:00Z</time>
      </trkpt>
      <trkpt lat="44.00791" lon="2.60546">
        <ele>200.3</ele>
        <time>2015-04-05T14:31:02Z</time>
      </trkpt>
      <trkpt lat="44.00799" lon="2.60564">
        <ele>199.9</ele>
        <time>2015-04-05T14:31:04Z</time>
      </trkpt>
      <trkpt lat="44.00804" lon="2.60583">
        <ele>199.5</ele>
        <time>2015-04-05T14:31:06Z</time>
      </trkpt>
      <trkpt lat="44.00807" lon="2.60604">
        <ele>199.2</ele>
        <time>2015-04-05T14:31:08Z</time>
      </trkpt>
      <trkpt lat="44.00811" lon="2.60626">
        <ele>198.9</ele>
        <time>2015-04-05T14:31:10Z</time>
      </trkpt>
      <trkpt lat="44.00813" lon="2.60647">
        <ele>198.6</ele>
        <time>2015-04-05T14:31:12Z</time>
      </trkpt>
      <trkpt lat="44.00814" lon="2.6067">
        <ele>198.4</ele>
        <time>2015-04-05T14:31:14Z</time>
      </trkpt>
      <trkpt lat="44.00813" lon="2.60692">
        <ele>198.2</ele>
        <time>2015-04-05T14:31:16Z</time>
      </trkpt>
      <trkpt lat="44.0081" lon="2.60715">
        <ele>198.2</ele>
        <time>2015-04-05T14:31:18Z</time>
      </trkpt>
      <trkpt lat="44.00806" lon="2.60736">
        <ele>198.2</ele>
        <time>2015-04-05T14:31:20Z</time>
      </trkpt>
      <trkpt lat="44.00802" lon="2.60757">
        <ele>198</ele>
        <time>2015-04-05T14:31:22Z</time>
      </trkpt>
      <trkpt lat="44.00796" lon="2.60777">
        <ele>197.9</ele>
        <time>2015-04-05T14:31:24Z</time>
      </trkpt>
      <trkpt lat="44.0079" lon="2.60795">
        <ele>197.9</ele>
        <time>2015-04-05T14:31:26Z</time>
      </trkpt>
      <trkpt lat="44.00783" lon="2.60811">
        <ele>197.9</ele>
        <time>2015-04-05T14:31:28Z</time>
      </trkpt>
      <trkpt lat="44.00777" lon="2.60826">
        <ele>197.7</ele>
        <time>2015-04-05T14:31:30Z</time>
      </trkpt>
      <trkpt lat="44.0077" lon="2.60841">
        <ele>197</ele>
        <time>2015-04-05T14:31:32Z</time>
      </trkpt>
      <trkpt lat="44.00761" lon="2.60858">
        <ele>196.2</ele>
        <time>2015-04-05T14:31:34Z</time>
      </trkpt>
      <trkpt lat="44.00753" lon="2.60871">
        <ele>195.7</ele>
        <time>2015-04-05T14:31:36Z</time>
      </trkpt>
      <trkpt lat="44.00742" lon="2.6088">
        <ele>195.2</ele>
        <time>2015-04-05T14:31:38Z</time>
      </trkpt>
      <trkpt lat="44.00732" lon="2.60887">
        <ele>194.1</ele>
        <time>2015-04-05T14:31:40Z</time>
      </trkpt>
      <trkpt lat="44.00721" lon="2.60893">
        <ele>193.2</ele>
        <time>2015-04-05T14:31:42Z</time>
      </trkpt>
      <trkpt lat="44.00712" lon="2.60899">
        <ele>192.7</ele>
        <time>2015-04-05T14:31:44Z</time>
      </trkpt>
      <trkpt lat="44.00701" lon="2.60903">
        <ele>192</ele>
        <time>2015-04-05T14:31:46Z</time>
      </trkpt>
      <trkpt lat="44.00691" lon="2.60908">
        <ele>191.5</ele>
        <time>2015-04-05T14:31:48Z</time>
      </trkpt>
      <trkpt lat="44.0068" lon="2.60914">
        <ele>191.1</ele>
        <time>2015-04-05T14:31:50Z</time>
      </trkpt>
      <trkpt lat="44.00669" lon="2.60917">
        <ele>191.1</ele>
        <time>2015-04-05T14:31:52Z</time>
      </trkpt>
      <trkpt lat="44.00655" lon="2.60919">
        <ele>190.5</ele>
        <time>2015-04-05T14:31:54Z</time>
      </trkpt>
      <trkpt lat="44.00641" lon="2.60917">
        <ele>190.4</ele>
        <time>2015-04-05T14:31:56Z</time>
      </trkpt>
      <trkpt lat="44.00626" lon="2.60913">
        <ele>190.3</ele>
        <time>2015-04-05T14:31:58Z</time>
      </trkpt>
      <trkpt lat="44.00612" lon="2.60909">
        <ele>190.2</ele>
        <time>2015-04-05T14:32:00Z</time>
      </trkpt>
      <trkpt lat="44.00598" lon="2.60904">
        <ele>190.2</ele>
        <time>2015-04-05T14:32:02Z</time>
      </trkpt>
      <trkpt lat="44.00584" lon="2.609">
        <ele>190.4</ele>
        <time>2015-04-05T14:32:04Z</time>
      </trkpt>
      <trkpt lat="44.00571" lon="2.60894">
        <ele>190.5</ele>
        <time>2015-04-05T14:32:06Z</time>
      </trkpt>
      <trkpt lat="44.0056" lon="2.60889">
        <ele>190.8</ele>
        <time>2015-04-05T14:32:08Z</time>
      </trkpt>
      <trkpt lat="44.0055" lon="2.60887">
        <ele>190.9</ele>
        <time>2015-04-05T14:32:10Z</time>
      </trkpt>
      <trkpt lat="44.00541" lon="2.60884">
        <ele>191</ele>
        <time>2015-04-05T14:32:12Z</time>
      </trkpt>
      <trkpt lat="44.0053" lon="2.60882">
        <ele>191.1</ele>
        <time>2015-04-05T14:32:15Z</time>
      </trkpt>
      <trkpt lat="44.00519" lon="2.60881">
        <ele>191.1</ele>
        <time>2015-04-05T14:32:18Z</time>
      </trkpt>
      <trkpt lat="44.00509" lon="2.6088">
        <ele>191.1</ele>
        <time>2015-04-05T14:32:21Z</time>
      </trkpt>
      <trkpt lat="44.00499" lon="2.6088">
        <ele>191.1</ele>
        <time>2015-04-05T14:32:24Z</time>
      </trkpt>
      <trkpt lat="44.00488" lon="2.60882">
        <ele>191.2</ele>
        <time>2015-04-05T14:32:28Z</time>
      </trkpt>
      <trkpt lat="44.00479" lon="2.60886">
        <ele>191.2</ele>
        <time>2015-04-05T14:32:31Z</time>
      </trkpt>
      <trkpt lat="44.00471" lon="2.60892">
        <ele>191.3</ele>
        <time>2015-04-05T14:32:34Z</time>
      </trkpt>
      <trkpt lat="44.0046" lon="2.60895">
        <ele>191.4</ele>
        <time>2015-04-05T14:32:37Z</time>
      </trkpt>
      <trkpt lat="44.00447" lon="2.60897">
        <ele>191.7</ele>
        <time>2015-04-05T14:32:40Z</time>
      </trkpt>
      <trkpt lat="44.00435" lon="2.609">
        <ele>191.9</ele>
        <time>2015-04-05T14:32:43Z</time>
      </trkpt>
      <trkpt lat="44.00424" lon="2.60904">
        <ele>192.2</ele>
        <time>2015-04-05T14:32:46Z</time>
      </trkpt>
      <trkpt lat="44.00411" lon="2.60908">
        <ele>192.6</ele>
        <time>2015-04-05T14:32:49Z</time>
      </trkpt>
      <trkpt lat="44.004" lon="2.60909">
        <ele>192.9</ele>
        <time>2015-04-05T14:32:51Z</time>
      </trkpt>
      <trkpt lat="44.00391" lon="2.60909">
        <ele>193.2</ele>
        <time>2015-04-05T14:32:53Z</time>
      </trkpt>
      <trkpt lat="44.00381" lon="2.6091">
        <ele>193.6</ele>
        <time>2015-04-05T14:32:55Z</time>
      </trkpt>
      <trkpt lat="44.0037" lon="2.60913">
        <ele>194.2</ele>
        <time>2015-04-05T14:32:57Z</time>
      </trkpt>
      <trkpt lat="44.0036" lon="2.60917">
        <ele>194.7</ele>
        <time>2015-04-05T14:32:59Z</time>
      </trkpt>
      <trkpt lat="44.00351" lon="2.60924">
        <ele>195.2</ele>
        <time>2015-04-05T14:33:01Z</time>
      </trkpt>
      <trkpt lat="44.00342" lon="2.60932">
        <ele>195.5</ele>
        <time>2015-04-05T14:33:03Z</time>
      </trkpt>
      <trkpt lat="44.00334" lon="2.60944">
        <ele>196.1</ele>
        <time>2015-04-05T14:33:05Z</time>
      </trkpt>
      <trkpt lat="44.00324" lon="2.60956">
        <ele>196.6</ele>
        <time>2015-04-05T14:33:07Z</time>
      </trkpt>
      <trkpt lat="44.00314" lon="2.60969">
        <ele>197</ele>
        <time>2015-04-05T14:33:09Z</time>
      </trkpt>
      <trkpt lat="44.00303" lon="2.6098">
        <ele>197.2</ele>
        <time>2015-04-05T14:33:11Z</time>
      </trkpt>
      <trkpt lat="44.00291" lon="2.60994">
        <ele>197.4</ele>
        <time>2015-04-05T14:33:13Z</time>
      </trkpt>
      <trkpt lat="44.00279" lon="2.61009">
        <ele>197.7</ele>
        <time>2015-04-05T14:33:15Z</time>
      </trkpt>
      <trkpt lat="44.00267" lon="2.61025">
        <ele>198.1</ele>
        <time>2015-04-05T14:33:17Z</time>
      </trkpt>
      <trkpt lat="44.00255" lon="2.61044">
        <ele>198.4</ele>
        <time>2015-04-05T14:33:19Z</time>
      </trkpt>
      <trkpt lat="44.00249" lon="2.61055">
        <ele>198.6</ele>
        <time>2015-04-05T14:33:20Z</time>
      </trkpt>
      <trkpt lat="44.00243" lon="2.61066">
        <ele>198.9</ele>
        <time>2015-04-05T14:33:21Z</time>
      </trkpt>
      <trkpt lat="44.00237" lon="2.61077">
        <ele>199.1</ele>
        <time>2015-04-05T14:33:22Z</time>
      </trkpt>
      <trkpt lat="44.00231" lon="2.61088">
        <ele>199.2</ele>
        <time>2015-04-05T14:33:23Z</time>
      </trkpt>
      <trkpt lat="44.00224" lon="2.61098">
        <ele>199.3</ele>
        <time>2015-04-05T14:33:24Z</time>
      </trkpt>
      <trkpt lat="44.00216" lon="2.61109">
        <ele>199.5</ele>
        <time>2015-04-05T14:33:25Z</time>
      </trkpt>
      <trkpt lat="44.00209" lon="2.6112">
        <ele>199.6</ele>
        <time>2015-04-05T14:33:26Z</time>
      </trkpt>
      <trkpt lat="44.00201" lon="2.6113">
        <ele>199.6</ele>
        <time>2015-04-05T14:33:27Z</time>
      </trkpt>
      <trkpt lat="44.00194" lon="2.6114">
        <ele>199.7</ele>
        <time>2015-04-05T14:33:28Z</time>
      </trkpt>
      <trkpt lat="44.00188" lon="2.6115">
        <ele>199.8</ele>
        <time>2015-04-05T14:33:29Z</time>
      </trkpt>
      <trkpt lat="44.00181" lon="2.61161">
        <ele>199.9</ele>
        <time>2015-04-05T14:33:30Z</time>
      </trkpt>
      <trkpt lat="44.00175" lon="2.61172">
        <ele>200</ele>
        <time>2015-04-05T14:33:31Z</time>
      </trkpt>
      <trkpt lat="44.00166" lon="2.61192">
        <ele>200.2</ele>
        <time>2015-04-05T14:33:33Z</time>
      </trkpt>
      <trkpt lat="44.00155" lon="2.61211">
        <ele>200.1</ele>
        <time>2015-04-05T14:33:35Z</time>
      </trkpt>
      <trkpt lat="44.00144" lon="2.61227">
        <ele>199.8</ele>
        <time>2015-04-05T14:33:37Z</time>
      </trkpt>
      <trkpt lat="44.00133" lon="2.61241">
        <ele>199.9</ele>
        <time>2015-04-05T14:33:39Z</time>
      </trkpt>
      <trkpt lat="44.00126" lon="2.6125">
        <ele>199.6</ele>
        <time>2015-04-05T14:33:40Z</time>
      </trkpt>
      <trkpt lat="44.00114" lon="2.61265">
        <ele>199.6</ele>
        <time>2015-04-05T14:33:42Z</time>
      </trkpt>
      <trkpt lat="44.00104" lon="2.61281">
        <ele>199.7</ele>
        <time>2015-04-05T14:33:44Z</time>
      </trkpt>
      <trkpt lat="44.00095" lon="2.61299">
        <ele>200</ele>
        <time>2015-04-05T14:33:46Z</time>
      </trkpt>
      <trkpt lat="44.00089" lon="2.6131">
        <ele>200</ele>
        <time>2015-04-05T14:33:47Z</time>
      </trkpt>
      <trkpt lat="44.00081" lon="2.61329">
        <ele>199.9</ele>
        <time>2015-04-05T14:33:49Z</time>
      </trkpt>
      <trkpt lat="44.00073" lon="2.61346">
        <ele>199.8</ele>
        <time>2015-04-05T14:33:51Z</time>
      </trkpt>
      <trkpt lat="44.00065" lon="2.61361">
        <ele>199.7</ele>
        <time>2015-04-05T14:33:53Z</time>
      </trkpt>
      <trkpt lat="44.00056" lon="2.61379">
        <ele>199.7</ele>
        <time>2015-04-05T14:33:55Z</time>
      </trkpt>
      <trkpt lat="44.00048" lon="2.61397">
        <ele>199.8</ele>
        <time>2015-04-05T14:33:57Z</time>
      </trkpt>
      <trkpt lat="44.0004" lon="2.61415">
        <ele>200</ele>
        <time>2015-04-05T14:33:59Z</time>
      </trkpt>
      <trkpt lat="44.00031" lon="2.61432">
        <ele>199.6</ele>
        <time>2015-04-05T14:34:01Z</time>
      </trkpt>
      <trkpt lat="44.00023" lon="2.6145">
        <ele>199.7</ele>
        <time>2015-04-05T14:34:03Z</time>
      </trkpt>
      <trkpt lat="44.00017" lon="2.61468">
        <ele>199.8</ele>
        <time>2015-04-05T14:34:05Z</time>
      </trkpt>
      <trkpt lat="44.00013" lon="2.61486">
        <ele>199.7</ele>
        <time>2015-04-05T14:34:07Z</time>
      </trkpt>
      <trkpt lat="44.00009" lon="2.61503">
        <ele>199.7</ele>
        <time>2015-04-05T14:34:09Z</time>
      </trkpt>
      <trkpt lat="44.00003" lon="2.61521">
        <ele>199.8</ele>
        <time>2015-04-05T14:34:11Z</time>
      </trkpt>
      <trkpt lat="43.99999" lon="2.6154">
        <ele>199.8</ele>
        <time>2015-04-05T14:34:13Z</time>
      </trkpt>
      <trkpt lat="43.99993" lon="2.61558">
        <ele>199.9</ele>
        <time>2015-04-05T14:34:15Z</time>
      </trkpt>
      <trkpt lat="43.99987" lon="2.61575">
        <ele>200.3</ele>
        <time>2015-04-05T14:34:17Z</time>
      </trkpt>
      <trkpt lat="43.99981" lon="2.61593">
        <ele>200.4</ele>
        <time>2015-04-05T14:34:19Z</time>
      </trkpt>
      <trkpt lat="43.99974" lon="2.6161">
        <ele>200.2</ele>
        <time>2015-04-05T14:34:21Z</time>
      </trkpt>
      <trkpt lat="43.99967" lon="2.61628">
        <ele>199.9</ele>
        <time>2015-04-05T14:34:23Z</time>
      </trkpt>
      <trkpt lat="43.9996" lon="2.61647">
        <ele>199.7</ele>
        <time>2015-04-05T14:34:25Z</time>
      </trkpt>
      <trkpt lat="43.99953" lon="2.61665">
        <ele>199.3</ele>
        <time>2015-04-05T14:34:27Z</time>
      </trkpt>
      <trkpt lat="43.99945" lon="2.61683">
        <ele>199.2</ele>
        <time>2015-04-05T14:34:29Z</time>
      </trkpt>
      <trkpt lat="43.99938" lon="2.61702">
        <ele>198.2</ele>
        <time>2015-04-05T14:34:31Z</time>
      </trkpt>
      <trkpt lat="43.99932" lon="2.6172">
        <ele>198.5</ele>
        <time>2015-04-05T14:34:33Z</time>
      </trkpt>
      <trkpt lat="43.99925" lon="2.61739">
        <ele>198.6</ele>
        <time>2015-04-05T14:34:35Z</time>
      </trkpt>
      <trkpt lat="43.99919" lon="2.61757">
        <ele>198.7</ele>
        <time>2015-04-05T14:34:37Z</time>
      </trkpt>
      <trkpt lat="43.99913" lon="2.61774">
        <ele>198.7</ele>
        <time>2015-04-05T14:34:39Z</time>
      </trkpt>
      <trkpt lat="43.99907" lon="2.61792">
        <ele>199</ele>
        <time>2015-04-05T14:34:41Z</time>
      </trkpt>
      <trkpt lat="43.99901" lon="2.61809">
        <ele>199.3</ele>
        <time>2015-04-05T14:34:43Z</time>
      </trkpt>
      <trkpt lat="43.99894" lon="2.61826">
        <ele>199.7</ele>
        <time>2015-04-05T14:34:45Z</time>
      </trkpt>
      <trkpt lat="43.99887" lon="2.61842">
        <ele>200.2</ele>
        <time>2015-04-05T14:34:47Z</time>
      </trkpt>
      <trkpt lat="43.99881" lon="2.61858">
        <ele>200.4</ele>
        <time>2015-04-05T14:34:49Z</time>
      </trkpt>
      <trkpt lat="43.99875" lon="2.61873">
        <ele>201</ele>
        <time>2015-04-05T14:34:51Z</time>
      </trkpt>
      <trkpt lat="43.99868" lon="2.61888">
        <ele>201.5</ele>
        <time>2015-04-05T14:34:53Z</time>
      </trkpt>
      <trkpt lat="43.99862" lon="2.61903">
        <ele>201.8</ele>
        <time>2015-04-05T14:34:55Z</time>
      </trkpt>
      <trkpt lat="43.99855" lon="2.61917">
        <ele>202.1</ele>
        <time>2015-04-05T14:34:57Z</time>
      </trkpt>
      <trkpt lat="43.99848" lon="2.61932">
        <ele>202.6</ele>
        <time>2015-04-05T14:34:59Z</time>
      </trkpt>
      <trkpt lat="43.99841" lon="2.61946">
        <ele>202.8</ele>
        <time>2015-04-05T14:35:01Z</time>
      </trkpt>
      <trkpt lat="43.99835" lon="2.61959">
        <ele>203.2</ele>
        <time>2015-04-05T14:35:03Z</time>
      </trkpt>
      <trkpt lat="43.99829" lon="2.61973">
        <ele>202.7</ele>
        <time>2015-04-05T14:35:05Z</time>
      </trkpt>
      <trkpt lat="43.99822" lon="2.61986">
        <ele>202.1</ele>
        <time>2015-04-05T14:35:07Z</time>
      </trkpt>
      <trkpt lat="43.99816" lon="2.61998">
        <ele>202.2</ele>
        <time>2015-04-05T14:35:09Z</time>
      </trkpt>
      <trkpt lat="43.9981" lon="2.62012">
        <ele>202.5</ele>
        <time>2015-04-05T14:35:11Z</time>
      </trkpt>
      <trkpt lat="43.99803" lon="2.62025">
        <ele>202.8</ele>
        <time>2015-04-05T14:35:13Z</time>
      </trkpt>
      <trkpt lat="43.99796" lon="2.62039">
        <ele>202.9</ele>
        <time>2015-04-05T14:35:15Z</time>
      </trkpt>
      <trkpt lat="43.9979" lon="2.62053">
        <ele>203.2</ele>
        <time>2015-04-05T14:35:17Z</time>
      </trkpt>
      <trkpt lat="43.99784" lon="2.62067">
        <ele>203.6</ele>
        <time>2015-04-05T14:35:19Z</time>
      </trkpt>
      <trkpt lat="43.99777" lon="2.62081">
        <ele>203.9</ele>
        <time>2015-04-05T14:35:21Z</time>
      </trkpt>
      <trkpt lat="43.99771" lon="2.62093">
        <ele>204.3</ele>
        <time>2015-04-05T14:35:23Z</time>
      </trkpt>
      <trkpt lat="43.99764" lon="2.62105">
        <ele>204.5</ele>
        <time>2015-04-05T14:35:25Z</time>
      </trkpt>
      <trkpt lat="43.99758" lon="2.62117">
        <ele>203.8</ele>
        <time>2015-04-05T14:35:27Z</time>
      </trkpt>
      <trkpt lat="43.99753" lon="2.62128">
        <ele>204.3</ele>
        <time>2015-04-05T14:35:29Z</time>
      </trkpt>
      <trkpt lat="43.99744" lon="2.62142">
        <ele>204.8</ele>
        <time>2015-04-05T14:35:32Z</time>
      </trkpt>
      <trkpt lat="43.99736" lon="2.62154">
        <ele>204.9</ele>
        <time>2015-04-05T14:35:35Z</time>
      </trkpt>
      <trkpt lat="43.99729" lon="2.62166">
        <ele>204.8</ele>
        <time>2015-04-05T14:35:38Z</time>
      </trkpt>
      <trkpt lat="43.99724" lon="2.62177">
        <ele>204.5</ele>
        <time>2015-04-05T14:35:41Z</time>
      </trkpt>
      <trkpt lat="43.9972" lon="2.62189">
        <ele>201.5</ele>
        <time>2015-04-05T14:35:45Z</time>
      </trkpt>
      <trkpt lat="43.99714" lon="2.62179">
        <ele>190.7</ele>
        <time>2015-04-05T14:39:09Z</time>
      </trkpt>
      <trkpt lat="43.99703" lon="2.62177">
        <ele>188.6</ele>
        <time>2015-04-05T14:40:13Z</time>
      </trkpt>
      <trkpt lat="43.99699" lon="2.6219">
        <ele>188.2</ele>
        <time>2015-04-05T14:40:26Z</time>
      </trkpt>
      <trkpt lat="43.99694" lon="2.62203">
        <ele>188.2</ele>
        <time>2015-04-05T14:40:30Z</time>
      </trkpt>
      <trkpt lat="43.99687" lon="2.62214">
        <ele>188.6</ele>
        <time>2015-04-05T14:40:33Z</time>
      </trkpt>
      <trkpt lat="43.99679" lon="2.62223">
        <ele>188.8</ele>
        <time>2015-04-05T14:40:36Z</time>
      </trkpt>
      <trkpt lat="43.9967" lon="2.62235">
        <ele>188.9</ele>
        <time>2015-04-05T14:40:39Z</time>
      </trkpt>
      <trkpt lat="43.99662" lon="2.62243">
        <ele>188.9</ele>
        <time>2015-04-05T14:40:41Z</time>
      </trkpt>
      <trkpt lat="43.99655" lon="2.6225">
        <ele>188.9</ele>
        <time>2015-04-05T14:40:43Z</time>
      </trkpt>
      <trkpt lat="43.99646" lon="2.62257">
        <ele>188.9</ele>
        <time>2015-04-05T14:40:45Z</time>
      </trkpt>
      <trkpt lat="43.99638" lon="2.62264">
        <ele>188.8</ele>
        <time>2015-04-05T14:40:47Z</time>
      </trkpt>
      <trkpt lat="43.99629" lon="2.62271">
        <ele>188.8</ele>
        <time>2015-04-05T14:40:49Z</time>
      </trkpt>
      <trkpt lat="43.99621" lon="2.62279">
        <ele>188.8</ele>
        <time>2015-04-05T14:40:51Z</time>
      </trkpt>
      <trkpt lat="43.99612" lon="2.62287">
        <ele>188.7</ele>
        <time>2015-04-05T14:40:53Z</time>
      </trkpt>
      <trkpt lat="43.99605" lon="2.62295">
        <ele>188.6</ele>
        <time>2015-04-05T14:40:55Z</time>
      </trkpt>
      <trkpt lat="43.99594" lon="2.62305">
        <ele>188.6</ele>
        <time>2015-04-05T14:40:58Z</time>
      </trkpt>
      <trkpt lat="43.99586" lon="2.62312">
        <ele>188.5</ele>
        <time>2015-04-05T14:41:00Z</time>
      </trkpt>
      <trkpt lat="43.99576" lon="2.62324">
        <ele>188.5</ele>
        <time>2015-04-05T14:41:03Z</time>
      </trkpt>
      <trkpt lat="43.99569" lon="2.62332">
        <ele>188.5</ele>
        <time>2015-04-05T14:41:05Z</time>
      </trkpt>
      <trkpt lat="43.99558" lon="2.62342">
        <ele>188.4</ele>
        <time>2015-04-05T14:41:08Z</time>
      </trkpt>
      <trkpt lat="43.99549" lon="2.62352">
        <ele>188.3</ele>
        <time>2015-04-05T14:41:11Z</time>
      </trkpt>
      <trkpt lat="43.99541" lon="2.62361">
        <ele>187.9</ele>
        <time>2015-04-05T14:41:14Z</time>
      </trkpt>
      <trkpt lat="43.99532" lon="2.62373">
        <ele>188.6</ele>
        <time>2015-04-05T14:41:17Z</time>
      </trkpt>
      <trkpt lat="43.99524" lon="2.62383">
        <ele>189.1</ele>
        <time>2015-04-05T14:41:20Z</time>
      </trkpt>
      <trkpt lat="43.99516" lon="2.62393">
        <ele>189.1</ele>
        <time>2015-04-05T14:41:24Z</time>
      </trkpt>
      <trkpt lat="43.99507" lon="2.62403">
        <ele>189</ele>
        <time>2015-04-05T14:41:28Z</time>
      </trkpt>
      <trkpt lat="43.995" lon="2.62412">
        <ele>188.7</ele>
        <time>2015-04-05T14:41:30Z</time>
      </trkpt>
      <trkpt lat="43.99492" lon="2.62422">
        <ele>188.6</ele>
        <time>2015-04-05T14:41:33Z</time>
      </trkpt>
      <trkpt lat="43.99484" lon="2.62433">
        <ele>188.7</ele>
        <time>2015-04-05T14:41:36Z</time>
      </trkpt>
      <trkpt lat="43.99475" lon="2.62443">
        <ele>188.6</ele>
        <time>2015-04-05T14:41:39Z</time>
      </trkpt>
      <trkpt lat="43.99467" lon="2.62452">
        <ele>188.6</ele>
        <time>2015-04-05T14:41:42Z</time>
      </trkpt>
      <trkpt lat="43.99457" lon="2.62462">
        <ele>188.5</ele>
        <time>2015-04-05T14:41:45Z</time>
      </trkpt>
      <trkpt lat="43.99451" lon="2.6247">
        <ele>188.5</ele>
        <time>2015-04-05T14:41:47Z</time>
      </trkpt>
      <trkpt lat="43.99444" lon="2.6248">
        <ele>188.4</ele>
        <time>2015-04-05T14:41:49Z</time>
      </trkpt>
      <trkpt lat="43.99436" lon="2.62489">
        <ele>188.4</ele>
        <time>2015-04-05T14:41:51Z</time>
      </trkpt>
      <trkpt lat="43.99429" lon="2.62497">
        <ele>188.3</ele>
        <time>2015-04-05T14:41:53Z</time>
      </trkpt>
      <trkpt lat="43.99421" lon="2.62506">
        <ele>188.1</ele>
        <time>2015-04-05T14:41:55Z</time>
      </trkpt>
      <trkpt lat="43.99413" lon="2.62516">
        <ele>187.9</ele>
        <time>2015-04-05T14:41:57Z</time>
      </trkpt>
      <trkpt lat="43.99404" lon="2.62526">
        <ele>187.8</ele>
        <time>2015-04-05T14:41:59Z</time>
      </trkpt>
      <trkpt lat="43.99396" lon="2.62535">
        <ele>187.6</ele>
        <time>2015-04-05T14:42:01Z</time>
      </trkpt>
      <trkpt lat="43.99387" lon="2.62545">
        <ele>187.4</ele>
        <time>2015-04-05T14:42:03Z</time>
      </trkpt>
      <trkpt lat="43.99379" lon="2.62555">
        <ele>187.3</ele>
        <time>2015-04-05T14:42:05Z</time>
      </trkpt>
      <trkpt lat="43.99371" lon="2.62565">
        <ele>187.2</ele>
        <time>2015-04-05T14:42:07Z</time>
      </trkpt>
      <trkpt lat="43.99362" lon="2.62576">
        <ele>187.1</ele>
        <time>2015-04-05T14:42:09Z</time>
      </trkpt>
      <trkpt lat="43.99354" lon="2.62585">
        <ele>187.1</ele>
        <time>2015-04-05T14:42:11Z</time>
      </trkpt>
      <trkpt lat="43.99346" lon="2.62594">
        <ele>186.9</ele>
        <time>2015-04-05T14:42:13Z</time>
      </trkpt>
      <trkpt lat="43.99339" lon="2.62604">
        <ele>186.8</ele>
        <time>2015-04-05T14:42:15Z</time>
      </trkpt>
      <trkpt lat="43.99331" lon="2.62613">
        <ele>186.6</ele>
        <time>2015-04-05T14:42:17Z</time>
      </trkpt>
      <trkpt lat="43.99323" lon="2.62623">
        <ele>186.2</ele>
        <time>2015-04-05T14:42:19Z</time>
      </trkpt>
      <trkpt lat="43.99315" lon="2.62633">
        <ele>186.1</ele>
        <time>2015-04-05T14:42:21Z</time>
      </trkpt>
      <trkpt lat="43.99306" lon="2.62643">
        <ele>185.9</ele>
        <time>2015-04-05T14:42:23Z</time>
      </trkpt>
      <trkpt lat="43.99299" lon="2.62652">
        <ele>185.7</ele>
        <time>2015-04-05T14:42:25Z</time>
      </trkpt>
      <trkpt lat="43.99291" lon="2.62661">
        <ele>186.2</ele>
        <time>2015-04-05T14:42:27Z</time>
      </trkpt>
      <trkpt lat="43.99284" lon="2.62671">
        <ele>186.9</ele>
        <time>2015-04-05T14:42:29Z</time>
      </trkpt>
      <trkpt lat="43.99275" lon="2.62681">
        <ele>186.6</ele>
        <time>2015-04-05T14:42:32Z</time>
      </trkpt>
      <trkpt lat="43.99267" lon="2.62689">
        <ele>186.1</ele>
        <time>2015-04-05T14:42:35Z</time>
      </trkpt>
      <trkpt lat="43.99259" lon="2.627">
        <ele>186.4</ele>
        <time>2015-04-05T14:42:39Z</time>
      </trkpt>
      <trkpt lat="43.99251" lon="2.62708">
        <ele>185.9</ele>
        <time>2015-04-05T14:42:43Z</time>
      </trkpt>
      <trkpt lat="43.99242" lon="2.62716">
        <ele>185.4</ele>
        <time>2015-04-05T14:42:47Z</time>
      </trkpt>
      <trkpt lat="43.99233" lon="2.62723">
        <ele>184.7</ele>
        <time>2015-04-05T14:42:51Z</time>
      </trkpt>
      <trkpt lat="43.99224" lon="2.62728">
        <ele>184.3</ele>
        <time>2015-04-05T14:42:55Z</time>
      </trkpt>
      <trkpt lat="43.99213" lon="2.62732">
        <ele>183.9</ele>
        <time>2015-04-05T14:42:59Z</time>
      </trkpt>
      <trkpt lat="43.99204" lon="2.6273">
        <ele>183.8</ele>
        <time>2015-04-05T14:43:02Z</time>
      </trkpt>
      <trkpt lat="43.99195" lon="2.62728">
        <ele>183.6</ele>
        <time>2015-04-05T14:43:05Z</time>
      </trkpt>
      <trkpt lat="43.99186" lon="2.62724">
        <ele>183.6</ele>
        <time>2015-04-05T14:43:08Z</time>
      </trkpt>
      <trkpt lat="43.99177" lon="2.62719">
        <ele>183.5</ele>
        <time>2015-04-05T14:43:11Z</time>
      </trkpt>
      <trkpt lat="43.99167" lon="2.62713">
        <ele>183.3</ele>
        <time>2015-04-05T14:43:14Z</time>
      </trkpt>
      <trkpt lat="43.99158" lon="2.62705">
        <ele>183.5</ele>
        <time>2015-04-05T14:43:17Z</time>
      </trkpt>
      <trkpt lat="43.99147" lon="2.627">
        <ele>183.7</ele>
        <time>2015-04-05T14:43:20Z</time>
      </trkpt>
      <trkpt lat="43.99135" lon="2.62699">
        <ele>183.7</ele>
        <time>2015-04-05T14:43:23Z</time>
      </trkpt>
      <trkpt lat="43.99124" lon="2.62705">
        <ele>183.7</ele>
        <time>2015-04-05T14:43:26Z</time>
      </trkpt>
      <trkpt lat="43.99113" lon="2.62716">
        <ele>183.6</ele>
        <time>2015-04-05T14:43:29Z</time>
      </trkpt>
      <trkpt lat="43.99105" lon="2.62725">
        <ele>183.7</ele>
        <time>2015-04-05T14:43:31Z</time>
      </trkpt>
      <trkpt lat="43.99097" lon="2.62731">
        <ele>183.8</ele>
        <time>2015-04-05T14:43:33Z</time>
      </trkpt>
      <trkpt lat="43.99089" lon="2.62739">
        <ele>183.7</ele>
        <time>2015-04-05T14:43:35Z</time>
      </trkpt>
      <trkpt lat="43.99081" lon="2.62747">
        <ele>183.7</ele>
        <time>2015-04-05T14:43:37Z</time>
      </trkpt>
      <trkpt lat="43.99073" lon="2.62754">
        <ele>183.7</ele>
        <time>2015-04-05T14:43:39Z</time>
      </trkpt>
      <trkpt lat="43.99064" lon="2.62763">
        <ele>183.6</ele>
        <time>2015-04-05T14:43:42Z</time>
      </trkpt>
      <trkpt lat="43.99057" lon="2.62772">
        <ele>183.5</ele>
        <time>2015-04-05T14:43:45Z</time>
      </trkpt>
      <trkpt lat="43.9905" lon="2.62783">
        <ele>183.5</ele>
        <time>2015-04-05T14:43:48Z</time>
      </trkpt>
      <trkpt lat="43.99045" lon="2.62797">
        <ele>183.5</ele>
        <time>2015-04-05T14:43:52Z</time>
      </trkpt>
      <trkpt lat="43.99038" lon="2.62808">
        <ele>183.5</ele>
        <time>2015-04-05T14:43:54Z</time>
      </trkpt>
      <trkpt lat="43.99028" lon="2.62824">
        <ele>183.4</ele>
        <time>2015-04-05T14:43:57Z</time>
      </trkpt>
      <trkpt lat="43.99022" lon="2.62833">
        <ele>183.4</ele>
        <time>2015-04-05T14:43:59Z</time>
      </trkpt>
      <trkpt lat="43.99014" lon="2.62847">
        <ele>183.4</ele>
        <time>2015-04-05T14:44:01Z</time>
      </trkpt>
      <trkpt lat="43.99008" lon="2.6286">
        <ele>183.5</ele>
        <time>2015-04-05T14:44:03Z</time>
      </trkpt>
      <trkpt lat="43.99002" lon="2.62872">
        <ele>183.6</ele>
        <time>2015-04-05T14:44:05Z</time>
      </trkpt>
      <trkpt lat="43.98995" lon="2.62886">
        <ele>183.8</ele>
        <time>2015-04-05T14:44:07Z</time>
      </trkpt>
      <trkpt lat="43.98989" lon="2.62899">
        <ele>183.8</ele>
        <time>2015-04-05T14:44:09Z</time>
      </trkpt>
      <trkpt lat="43.98982" lon="2.62915">
        <ele>183.7</ele>
        <time>2015-04-05T14:44:11Z</time>
      </trkpt>
      <trkpt lat="43.98975" lon="2.62927">
        <ele>184.5</ele>
        <time>2015-04-05T14:44:12Z</time>
      </trkpt>
      <trkpt lat="43.98968" lon="2.62941">
        <ele>185.5</ele>
        <time>2015-04-05T14:44:13Z</time>
      </trkpt>
      <trkpt lat="43.98963" lon="2.62951">
        <ele>185.6</ele>
        <time>2015-04-05T14:44:14Z</time>
      </trkpt>
      <trkpt lat="43.98954" lon="2.6297">
        <ele>185.8</ele>
        <time>2015-04-05T14:44:16Z</time>
      </trkpt>
      <trkpt lat="43.98949" lon="2.62984">
        <ele>185.7</ele>
        <time>2015-04-05T14:44:18Z</time>
      </trkpt>
      <trkpt lat="43.98946" lon="2.62997">
        <ele>185.7</ele>
        <time>2015-04-05T14:44:20Z</time>
      </trkpt>
      <trkpt lat="43.98943" lon="2.63011">
        <ele>185.7</ele>
        <time>2015-04-05T14:44:22Z</time>
      </trkpt>
      <trkpt lat="43.9894" lon="2.63025">
        <ele>186.1</ele>
        <time>2015-04-05T14:44:24Z</time>
      </trkpt>
      <trkpt lat="43.98937" lon="2.63039">
        <ele>186.2</ele>
        <time>2015-04-05T14:44:26Z</time>
      </trkpt>
      <trkpt lat="43.98934" lon="2.63053">
        <ele>186.2</ele>
        <time>2015-04-05T14:44:28Z</time>
      </trkpt>
      <trkpt lat="43.98933" lon="2.6307">
        <ele>186.4</ele>
        <time>2015-04-05T14:44:31Z</time>
      </trkpt>
      <trkpt lat="43.98931" lon="2.63086">
        <ele>186.6</ele>
        <time>2015-04-05T14:44:34Z</time>
      </trkpt>
      <trkpt lat="43.9893" lon="2.63101">
        <ele>186.6</ele>
        <time>2015-04-05T14:44:37Z</time>
      </trkpt>
      <trkpt lat="43.9893" lon="2.63115">
        <ele>186.3</ele>
        <time>2015-04-05T14:44:40Z</time>
      </trkpt>
      <trkpt lat="43.9893" lon="2.6313">
        <ele>186.3</ele>
        <time>2015-04-05T14:44:43Z</time>
      </trkpt>
      <trkpt lat="43.98931" lon="2.63147">
        <ele>186.6</ele>
        <time>2015-04-05T14:44:46Z</time>
      </trkpt>
      <trkpt lat="43.9893" lon="2.63163">
        <ele>186.7</ele>
        <time>2015-04-05T14:44:48Z</time>
      </trkpt>
      <trkpt lat="43.98928" lon="2.63179">
        <ele>186.9</ele>
        <time>2015-04-05T14:44:51Z</time>
      </trkpt>
      <trkpt lat="43.98926" lon="2.63194">
        <ele>187.1</ele>
        <time>2015-04-05T14:44:54Z</time>
      </trkpt>
      <trkpt lat="43.98926" lon="2.63209">
        <ele>187.3</ele>
        <time>2015-04-05T14:44:57Z</time>
      </trkpt>
      <trkpt lat="43.98926" lon="2.63225">
        <ele>188.1</ele>
        <time>2015-04-05T14:45:00Z</time>
      </trkpt>
      <trkpt lat="43.98925" lon="2.6324">
        <ele>189.4</ele>
        <time>2015-04-05T14:45:03Z</time>
      </trkpt>
      <trkpt lat="43.98924" lon="2.63255">
        <ele>189.7</ele>
        <time>2015-04-05T14:45:06Z</time>
      </trkpt>
      <trkpt lat="43.98922" lon="2.63271">
        <ele>190</ele>
        <time>2015-04-05T14:45:09Z</time>
      </trkpt>
      <trkpt lat="43.9892" lon="2.63285">
        <ele>190.7</ele>
        <time>2015-04-05T14:45:12Z</time>
      </trkpt>
      <trkpt lat="43.98916" lon="2.63304">
        <ele>191.7</ele>
        <time>2015-04-05T14:45:15Z</time>
      </trkpt>
      <trkpt lat="43.98913" lon="2.63318">
        <ele>192.4</ele>
        <time>2015-04-05T14:45:17Z</time>
      </trkpt>
      <trkpt lat="43.98911" lon="2.63332">
        <ele>193.1</ele>
        <time>2015-04-05T14:45:19Z</time>
      </trkpt>
      <trkpt lat="43.9891" lon="2.63348">
        <ele>193.7</ele>
        <time>2015-04-05T14:45:21Z</time>
      </trkpt>
      <trkpt lat="43.98909" lon="2.63365">
        <ele>194</ele>
        <time>2015-04-05T14:45:23Z</time>
      </trkpt>
      <trkpt lat="43.98905" lon="2.63385">
        <ele>194.6</ele>
        <time>2015-04-05T14:45:25Z</time>
      </trkpt>
      <trkpt lat="43.98906" lon="2.63402">
        <ele>195.2</ele>
        <time>2015-04-05T14:45:27Z</time>
      </trkpt>
      <trkpt lat="43.98904" lon="2.63421">
        <ele>195.3</ele>
        <time>2015-04-05T14:45:29Z</time>
      </trkpt>
      <trkpt lat="43.98904" lon="2.63439">
        <ele>195.5</ele>
        <time>2015-04-05T14:45:31Z</time>
      </trkpt>
      <trkpt lat="43.98903" lon="2.63458">
        <ele>195.5</ele>
        <time>2015-04-05T14:45:33Z</time>
      </trkpt>
      <trkpt lat="43.98903" lon="2.63477">
        <ele>195.1</ele>
        <time>2015-04-05T14:45:35Z</time>
      </trkpt>
      <trkpt lat="43.98903" lon="2.63497">
        <ele>195.1</ele>
        <time>2015-04-05T14:45:37Z</time>
      </trkpt>
      <trkpt lat="43.98903" lon="2.63518">
        <ele>195.4</ele>
        <time>2015-04-05T14:45:39Z</time>
      </trkpt>
      <trkpt lat="43.98902" lon="2.63538">
        <ele>195.5</ele>
        <time>2015-04-05T14:45:41Z</time>
      </trkpt>
      <trkpt lat="43.98902" lon="2.63557">
        <ele>195.5</ele>
        <time>2015-04-05T14:45:43Z</time>
      </trkpt>
      <trkpt lat="43.98901" lon="2.63578">
        <ele>195.7</ele>
        <time>2015-04-05T14:45:45Z</time>
      </trkpt>
      <trkpt lat="43.98901" lon="2.63597">
        <ele>195.9</ele>
        <time>2015-04-05T14:45:47Z</time>
      </trkpt>
      <trkpt lat="43.989" lon="2.63615">
        <ele>196</ele>
        <time>2015-04-05T14:45:49Z</time>
      </trkpt>
      <trkpt lat="43.98898" lon="2.63631">
        <ele>196</ele>
        <time>2015-04-05T14:45:51Z</time>
      </trkpt>
      <trkpt lat="43.98898" lon="2.63646">
        <ele>196.2</ele>
        <time>2015-04-05T14:45:53Z</time>
      </trkpt>
      <trkpt lat="43.98895" lon="2.63662">
        <ele>196.5</ele>
        <time>2015-04-05T14:45:55Z</time>
      </trkpt>
      <trkpt lat="43.98897" lon="2.63681">
        <ele>196.9</ele>
        <time>2015-04-05T14:45:58Z</time>
      </trkpt>
      <trkpt lat="43.98896" lon="2.63695">
        <ele>196.8</ele>
        <time>2015-04-05T14:46:00Z</time>
      </trkpt>
      <trkpt lat="43.98896" lon="2.63712">
        <ele>196.3</ele>
        <time>2015-04-05T14:46:03Z</time>
      </trkpt>
      <trkpt lat="43.98896" lon="2.63729">
        <ele>196.1</ele>
        <time>2015-04-05T14:46:06Z</time>
      </trkpt>
      <trkpt lat="43.98894" lon="2.63741">
        <ele>195.3</ele>
        <time>2015-04-05T14:46:08Z</time>
      </trkpt>
      <trkpt lat="43.98891" lon="2.63758">
        <ele>194.5</ele>
        <time>2015-04-05T14:46:11Z</time>
      </trkpt>
      <trkpt lat="43.98888" lon="2.63773">
        <ele>193.7</ele>
        <time>2015-04-05T14:46:14Z</time>
      </trkpt>
      <trkpt lat="43.98887" lon="2.63791">
        <ele>192.5</ele>
        <time>2015-04-05T14:46:17Z</time>
      </trkpt>
      <trkpt lat="43.98885" lon="2.63809">
        <ele>191.4</ele>
        <time>2015-04-05T14:46:20Z</time>
      </trkpt>
      <trkpt lat="43.98882" lon="2.63827">
        <ele>189.8</ele>
        <time>2015-04-05T14:46:23Z</time>
      </trkpt>
      <trkpt lat="43.98881" lon="2.63841">
        <ele>189.4</ele>
        <time>2015-04-05T14:46:25Z</time>
      </trkpt>
      <trkpt lat="43.98878" lon="2.6386">
        <ele>189.6</ele>
        <time>2015-04-05T14:46:27Z</time>
      </trkpt>
      <trkpt lat="43.98876" lon="2.63874">
        <ele>189.9</ele>
        <time>2015-04-05T14:46:29Z</time>
      </trkpt>
      <trkpt lat="43.98874" lon="2.63888">
        <ele>190.2</ele>
        <time>2015-04-05T14:46:31Z</time>
      </trkpt>
      <trkpt lat="43.98873" lon="2.639">
        <ele>190.4</ele>
        <time>2015-04-05T14:46:33Z</time>
      </trkpt>
      <trkpt lat="43.98873" lon="2.63919">
        <ele>191.5</ele>
        <time>2015-04-05T14:46:36Z</time>
      </trkpt>
      <trkpt lat="43.98875" lon="2.63935">
        <ele>192.3</ele>
        <time>2015-04-05T14:46:39Z</time>
      </trkpt>
      <trkpt lat="43.98875" lon="2.63954">
        <ele>193</ele>
        <time>2015-04-05T14:46:42Z</time>
      </trkpt>
      <trkpt lat="43.98875" lon="2.63967">
        <ele>193.3</ele>
        <time>2015-04-05T14:46:44Z</time>
      </trkpt>
      <trkpt lat="43.98875" lon="2.63986">
        <ele>194.1</ele>
        <time>2015-04-05T14:46:47Z</time>
      </trkpt>
      <trkpt lat="43.98875" lon="2.64001">
        <ele>194.5</ele>
        <time>2015-04-05T14:46:49Z</time>
      </trkpt>
      <trkpt lat="43.98876" lon="2.64016">
        <ele>194.7</ele>
        <time>2015-04-05T14:46:51Z</time>
      </trkpt>
      <trkpt lat="43.98875" lon="2.64031">
        <ele>194.8</ele>
        <time>2015-04-05T14:46:53Z</time>
      </trkpt>
      <trkpt lat="43.98874" lon="2.64048">
        <ele>194.4</ele>
        <time>2015-04-05T14:46:55Z</time>
      </trkpt>
      <trkpt lat="43.98873" lon="2.64064">
        <ele>193.7</ele>
        <time>2015-04-05T14:46:57Z</time>
      </trkpt>
      <trkpt lat="43.98871" lon="2.64079">
        <ele>193.6</ele>
        <time>2015-04-05T14:46:59Z</time>
      </trkpt>
      <trkpt lat="43.98869" lon="2.64094">
        <ele>193.6</ele>
        <time>2015-04-05T14:47:01Z</time>
      </trkpt>
      <trkpt lat="43.98867" lon="2.64109">
        <ele>193.3</ele>
        <time>2015-04-05T14:47:03Z</time>
      </trkpt>
      <trkpt lat="43.98865" lon="2.64125">
        <ele>193.1</ele>
        <time>2015-04-05T14:47:05Z</time>
      </trkpt>
      <trkpt lat="43.98861" lon="2.64142">
        <ele>192.7</ele>
        <time>2015-04-05T14:47:07Z</time>
      </trkpt>
      <trkpt lat="43.98859" lon="2.64157">
        <ele>192</ele>
        <time>2015-04-05T14:47:09Z</time>
      </trkpt>
      <trkpt lat="43.98857" lon="2.64172">
        <ele>191.3</ele>
        <time>2015-04-05T14:47:11Z</time>
      </trkpt>
      <trkpt lat="43.98854" lon="2.64188">
        <ele>190.6</ele>
        <time>2015-04-05T14:47:13Z</time>
      </trkpt>
      <trkpt lat="43.98852" lon="2.64202">
        <ele>189.7</ele>
        <time>2015-04-05T14:47:15Z</time>
      </trkpt>
      <trkpt lat="43.98851" lon="2.64215">
        <ele>189.3</ele>
        <time>2015-04-05T14:47:17Z</time>
      </trkpt>
      <trkpt lat="43.9885" lon="2.6423">
        <ele>189.1</ele>
        <time>2015-04-05T14:47:19Z</time>
      </trkpt>
      <trkpt lat="43.98849" lon="2.64247">
        <ele>189.1</ele>
        <time>2015-04-05T14:47:21Z</time>
      </trkpt>
      <trkpt lat="43.98849" lon="2.64264">
        <ele>189.5</ele>
        <time>2015-04-05T14:47:23Z</time>
      </trkpt>
      <trkpt lat="43.98849" lon="2.64281">
        <ele>190.1</ele>
        <time>2015-04-05T14:47:25Z</time>
      </trkpt>
      <trkpt lat="43.9885" lon="2.64298">
        <ele>190.2</ele>
        <time>2015-04-05T14:47:27Z</time>
      </trkpt>
      <trkpt lat="43.98852" lon="2.64319">
        <ele>190.8</ele>
        <time>2015-04-05T14:47:29Z</time>
      </trkpt>
      <trkpt lat="43.98854" lon="2.64337">
        <ele>191.5</ele>
        <time>2015-04-05T14:47:31Z</time>
      </trkpt>
      <trkpt lat="43.98856" lon="2.64354">
        <ele>192.6</ele>
        <time>2015-04-05T14:47:33Z</time>
      </trkpt>
      <trkpt lat="43.98859" lon="2.64368">
        <ele>193.6</ele>
        <time>2015-04-05T14:47:35Z</time>
      </trkpt>
      <trkpt lat="43.98861" lon="2.6438">
        <ele>194.5</ele>
        <time>2015-04-05T14:47:37Z</time>
      </trkpt>
      <trkpt lat="43.98864" lon="2.64399">
        <ele>196.2</ele>
        <time>2015-04-05T14:47:40Z</time>
      </trkpt>
      <trkpt lat="43.98865" lon="2.64413">
        <ele>196.4</ele>
        <time>2015-04-05T14:47:42Z</time>
      </trkpt>
      <trkpt lat="43.98868" lon="2.64425">
        <ele>197.6</ele>
        <time>2015-04-05T14:47:44Z</time>
      </trkpt>
      <trkpt lat="43.98872" lon="2.6444">
        <ele>199.7</ele>
        <time>2015-04-05T14:47:47Z</time>
      </trkpt>
      <trkpt lat="43.98876" lon="2.64456">
        <ele>201.6</ele>
        <time>2015-04-05T14:47:50Z</time>
      </trkpt>
      <trkpt lat="43.98882" lon="2.64473">
        <ele>203.4</ele>
        <time>2015-04-05T14:47:53Z</time>
      </trkpt>
      <trkpt lat="43.98886" lon="2.64489">
        <ele>205.7</ele>
        <time>2015-04-05T14:47:56Z</time>
      </trkpt>
      <trkpt lat="43.98891" lon="2.64507">
        <ele>207.9</ele>
        <time>2015-04-05T14:47:59Z</time>
      </trkpt>
      <trkpt lat="43.98897" lon="2.64522">
        <ele>210.2</ele>
        <time>2015-04-05T14:48:02Z</time>
      </trkpt>
      <trkpt lat="43.98902" lon="2.64538">
        <ele>212.8</ele>
        <time>2015-04-05T14:48:05Z</time>
      </trkpt>
      <trkpt lat="43.98908" lon="2.64553">
        <ele>215.4</ele>
        <time>2015-04-05T14:48:08Z</time>
      </trkpt>
      <trkpt lat="43.98913" lon="2.64567">
        <ele>218</ele>
        <time>2015-04-05T14:48:11Z</time>
      </trkpt>
      <trkpt lat="43.98919" lon="2.64583">
        <ele>219.7</ele>
        <time>2015-04-05T14:48:14Z</time>
      </trkpt>
      <trkpt lat="43.98923" lon="2.646">
        <ele>221.2</ele>
        <time>2015-04-05T14:48:17Z</time>
      </trkpt>
      <trkpt lat="43.98928" lon="2.64615">
        <ele>224.1</ele>
        <time>2015-04-05T14:48:20Z</time>
      </trkpt>
      <trkpt lat="43.9893" lon="2.64627">
        <ele>225.5</ele>
        <time>2015-04-05T14:48:22Z</time>
      </trkpt>
      <trkpt lat="43.98936" lon="2.64645">
        <ele>227.7</ele>
        <time>2015-04-05T14:48:25Z</time>
      </trkpt>
      <trkpt lat="43.98939" lon="2.64657">
        <ele>229.8</ele>
        <time>2015-04-05T14:48:27Z</time>
      </trkpt>
      <trkpt lat="43.98944" lon="2.64673">
        <ele>232.6</ele>
        <time>2015-04-05T14:48:30Z</time>
      </trkpt>
      <trkpt lat="43.98949" lon="2.64689">
        <ele>235.7</ele>
        <time>2015-04-05T14:48:33Z</time>
      </trkpt>
      <trkpt lat="43.9895" lon="2.64702">
        <ele>236.5</ele>
        <time>2015-04-05T14:48:35Z</time>
      </trkpt>
      <trkpt lat="43.98954" lon="2.64715">
        <ele>236.7</ele>
        <time>2015-04-05T14:48:37Z</time>
      </trkpt>
      <trkpt lat="43.98957" lon="2.64728">
        <ele>237.8</ele>
        <time>2015-04-05T14:48:39Z</time>
      </trkpt>
      <trkpt lat="43.98963" lon="2.64743">
        <ele>239.2</ele>
        <time>2015-04-05T14:48:41Z</time>
      </trkpt>
      <trkpt lat="43.98966" lon="2.64761">
        <ele>241.5</ele>
        <time>2015-04-05T14:48:44Z</time>
      </trkpt>
      <trkpt lat="43.98969" lon="2.64773">
        <ele>243.1</ele>
        <time>2015-04-05T14:48:46Z</time>
      </trkpt>
      <trkpt lat="43.98973" lon="2.64786">
        <ele>244.8</ele>
        <time>2015-04-05T14:48:48Z</time>
      </trkpt>
      <trkpt lat="43.98975" lon="2.64798">
        <ele>246.5</ele>
        <time>2015-04-05T14:48:50Z</time>
      </trkpt>
      <trkpt lat="43.98978" lon="2.6481">
        <ele>247.9</ele>
        <time>2015-04-05T14:48:52Z</time>
      </trkpt>
      <trkpt lat="43.9898" lon="2.64829">
        <ele>250.4</ele>
        <time>2015-04-05T14:48:55Z</time>
      </trkpt>
      <trkpt lat="43.98981" lon="2.64841">
        <ele>252.2</ele>
        <time>2015-04-05T14:48:57Z</time>
      </trkpt>
      <trkpt lat="43.98981" lon="2.6486">
        <ele>254.6</ele>
        <time>2015-04-05T14:49:00Z</time>
      </trkpt>
      <trkpt lat="43.98977" lon="2.64874">
        <ele>255.4</ele>
        <time>2015-04-05T14:49:02Z</time>
      </trkpt>
      <trkpt lat="43.98976" lon="2.64892">
        <ele>256.9</ele>
        <time>2015-04-05T14:49:05Z</time>
      </trkpt>
      <trkpt lat="43.98974" lon="2.64911">
        <ele>257.9</ele>
        <time>2015-04-05T14:49:08Z</time>
      </trkpt>
      <trkpt lat="43.98971" lon="2.64927">
        <ele>258.8</ele>
        <time>2015-04-05T14:49:11Z</time>
      </trkpt>
      <trkpt lat="43.98969" lon="2.6494">
        <ele>258.1</ele>
        <time>2015-04-05T14:49:13Z</time>
      </trkpt>
      <trkpt lat="43.98964" lon="2.64957">
        <ele>257.6</ele>
        <time>2015-04-05T14:49:15Z</time>
      </trkpt>
      <trkpt lat="43.98964" lon="2.6497">
        <ele>257.1</ele>
        <time>2015-04-05T14:49:17Z</time>
      </trkpt>
      <trkpt lat="43.98964" lon="2.64985">
        <ele>256.5</ele>
        <time>2015-04-05T14:49:19Z</time>
      </trkpt>
      <trkpt lat="43.98964" lon="2.64998">
        <ele>256</ele>
        <time>2015-04-05T14:49:21Z</time>
      </trkpt>
      <trkpt lat="43.9896" lon="2.65012">
        <ele>255.8</ele>
        <time>2015-04-05T14:49:23Z</time>
      </trkpt>
      <trkpt lat="43.9896" lon="2.65026">
        <ele>254.2</ele>
        <time>2015-04-05T14:49:25Z</time>
      </trkpt>
      <trkpt lat="43.9896" lon="2.65044">
        <ele>252.8</ele>
        <time>2015-04-05T14:49:28Z</time>
      </trkpt>
      <trkpt lat="43.98958" lon="2.65059">
        <ele>250.7</ele>
        <time>2015-04-05T14:49:30Z</time>
      </trkpt>
      <trkpt lat="43.98958" lon="2.65072">
        <ele>249.5</ele>
        <time>2015-04-05T14:49:32Z</time>
      </trkpt>
      <trkpt lat="43.98956" lon="2.65086">
        <ele>248</ele>
        <time>2015-04-05T14:49:34Z</time>
      </trkpt>
      <trkpt lat="43.98955" lon="2.65099">
        <ele>246.7</ele>
        <time>2015-04-05T14:49:36Z</time>
      </trkpt>
      <trkpt lat="43.98952" lon="2.65114">
        <ele>244</ele>
        <time>2015-04-05T14:49:38Z</time>
      </trkpt>
      <trkpt lat="43.98948" lon="2.65129">
        <ele>241.9</ele>
        <time>2015-04-05T14:49:40Z</time>
      </trkpt>
      <trkpt lat="43.98946" lon="2.65144">
        <ele>239.7</ele>
        <time>2015-04-05T14:49:42Z</time>
      </trkpt>
      <trkpt lat="43.98943" lon="2.65159">
        <ele>237.3</ele>
        <time>2015-04-05T14:49:44Z</time>
      </trkpt>
      <trkpt lat="43.98943" lon="2.65174">
        <ele>234.5</ele>
        <time>2015-04-05T14:49:46Z</time>
      </trkpt>
      <trkpt lat="43.98942" lon="2.65188">
        <ele>232.8</ele>
        <time>2015-04-05T14:49:48Z</time>
      </trkpt>
      <trkpt lat="43.98938" lon="2.65204">
        <ele>231.3</ele>
        <time>2015-04-05T14:49:50Z</time>
      </trkpt>
      <trkpt lat="43.98936" lon="2.65219">
        <ele>230.2</ele>
        <time>2015-04-05T14:49:52Z</time>
      </trkpt>
      <trkpt lat="43.98933" lon="2.65234">
        <ele>228.5</ele>
        <time>2015-04-05T14:49:54Z</time>
      </trkpt>
      <trkpt lat="43.98931" lon="2.65247">
        <ele>227.2</ele>
        <time>2015-04-05T14:49:56Z</time>
      </trkpt>
      <trkpt lat="43.98928" lon="2.65265">
        <ele>225.3</ele>
        <time>2015-04-05T14:49:59Z</time>
      </trkpt>
      <trkpt lat="43.98924" lon="2.65278">
        <ele>223.2</ele>
        <time>2015-04-05T14:50:01Z</time>
      </trkpt>
      <trkpt lat="43.98923" lon="2.65297">
        <ele>217.5</ele>
        <time>2015-04-05T14:50:03Z</time>
      </trkpt>
      <trkpt lat="43.98922" lon="2.65316">
        <ele>211.5</ele>
        <time>2015-04-05T14:50:05Z</time>
      </trkpt>
      <trkpt lat="43.9892" lon="2.65332">
        <ele>207.8</ele>
        <time>2015-04-05T14:50:07Z</time>
      </trkpt>
      <trkpt lat="43.98918" lon="2.65347">
        <ele>204.5</ele>
        <time>2015-04-05T14:50:09Z</time>
      </trkpt>
      <trkpt lat="43.98916" lon="2.65362">
        <ele>202.5</ele>
        <time>2015-04-05T14:50:11Z</time>
      </trkpt>
      <trkpt lat="43.98913" lon="2.65376">
        <ele>200.9</ele>
        <time>2015-04-05T14:50:13Z</time>
      </trkpt>
      <trkpt lat="43.9891" lon="2.6539">
        <ele>199.2</ele>
        <time>2015-04-05T14:50:15Z</time>
      </trkpt>
      <trkpt lat="43.98909" lon="2.65406">
        <ele>198.3</ele>
        <time>2015-04-05T14:50:17Z</time>
      </trkpt>
      <trkpt lat="43.98906" lon="2.65421">
        <ele>197.2</ele>
        <time>2015-04-05T14:50:19Z</time>
      </trkpt>
      <trkpt lat="43.98903" lon="2.65436">
        <ele>196.5</ele>
        <time>2015-04-05T14:50:21Z</time>
      </trkpt>
      <trkpt lat="43.98898" lon="2.65451">
        <ele>195.1</ele>
        <time>2015-04-05T14:50:23Z</time>
      </trkpt>
      <trkpt lat="43.98895" lon="2.65465">
        <ele>194.7</ele>
        <time>2015-04-05T14:50:25Z</time>
      </trkpt>
      <trkpt lat="43.98891" lon="2.65478">
        <ele>194.4</ele>
        <time>2015-04-05T14:50:27Z</time>
      </trkpt>
      <trkpt lat="43.98888" lon="2.65492">
        <ele>194.1</ele>
        <time>2015-04-05T14:50:29Z</time>
      </trkpt>
      <trkpt lat="43.98884" lon="2.65505">
        <ele>194.2</ele>
        <time>2015-04-05T14:50:31Z</time>
      </trkpt>
      <trkpt lat="43.9888" lon="2.65517">
        <ele>194.4</ele>
        <time>2015-04-05T14:50:33Z</time>
      </trkpt>
      <trkpt lat="43.98875" lon="2.65534">
        <ele>194.6</ele>
        <time>2015-04-05T14:50:36Z</time>
      </trkpt>
      <trkpt lat="43.9887" lon="2.65545">
        <ele>194.2</ele>
        <time>2015-04-05T14:50:38Z</time>
      </trkpt>
      <trkpt lat="43.98865" lon="2.65557">
        <ele>194</ele>
        <time>2015-04-05T14:50:40Z</time>
      </trkpt>
      <trkpt lat="43.98861" lon="2.65568">
        <ele>193.6</ele>
        <time>2015-04-05T14:50:42Z</time>
      </trkpt>
      <trkpt lat="43.98856" lon="2.65579">
        <ele>193.1</ele>
        <time>2015-04-05T14:50:44Z</time>
      </trkpt>
      <trkpt lat="43.98852" lon="2.65591">
        <ele>192.8</ele>
        <time>2015-04-05T14:50:46Z</time>
      </trkpt>
      <trkpt lat="43.98848" lon="2.65608">
        <ele>192.6</ele>
        <time>2015-04-05T14:50:49Z</time>
      </trkpt>
      <trkpt lat="43.98846" lon="2.65623">
        <ele>192</ele>
        <time>2015-04-05T14:50:51Z</time>
      </trkpt>
      <trkpt lat="43.98844" lon="2.65638">
        <ele>192.1</ele>
        <time>2015-04-05T14:50:53Z</time>
      </trkpt>
      <trkpt lat="43.98841" lon="2.65653">
        <ele>192.2</ele>
        <time>2015-04-05T14:50:55Z</time>
      </trkpt>
      <trkpt lat="43.98837" lon="2.65667">
        <ele>192.3</ele>
        <time>2015-04-05T14:50:57Z</time>
      </trkpt>
      <trkpt lat="43.98833" lon="2.65681">
        <ele>192.5</ele>
        <time>2015-04-05T14:50:59Z</time>
      </trkpt>
      <trkpt lat="43.98829" lon="2.65694">
        <ele>192.4</ele>
        <time>2015-04-05T14:51:01Z</time>
      </trkpt>
      <trkpt lat="43.98825" lon="2.65707">
        <ele>192.6</ele>
        <time>2015-04-05T14:51:03Z</time>
      </trkpt>
      <trkpt lat="43.98821" lon="2.65718">
        <ele>192.3</ele>
        <time>2015-04-05T14:51:05Z</time>
      </trkpt>
      <trkpt lat="43.98815" lon="2.65734">
        <ele>191.8</ele>
        <time>2015-04-05T14:51:08Z</time>
      </trkpt>
      <trkpt lat="43.9881" lon="2.6575">
        <ele>191.1</ele>
        <time>2015-04-05T14:51:11Z</time>
      </trkpt>
      <trkpt lat="43.98805" lon="2.65764">
        <ele>190.6</ele>
        <time>2015-04-05T14:51:14Z</time>
      </trkpt>
      <trkpt lat="43.98801" lon="2.65776">
        <ele>190.3</ele>
        <time>2015-04-05T14:51:17Z</time>
      </trkpt>
      <trkpt lat="43.98798" lon="2.65789">
        <ele>190</ele>
        <time>2015-04-05T14:51:21Z</time>
      </trkpt>
      <trkpt lat="43.98795" lon="2.65801">
        <ele>189.7</ele>
        <time>2015-04-05T14:51:26Z</time>
      </trkpt>
      <trkpt lat="43.98793" lon="2.65814">
        <ele>190.1</ele>
        <time>2015-04-05T14:51:34Z</time>
      </trkpt>
      <trkpt lat="43.98789" lon="2.65825">
        <ele>190.1</ele>
        <time>2015-04-05T14:51:42Z</time>
      </trkpt>
      <trkpt lat="43.9879" lon="2.65812">
        <ele>187.3</ele>
        <time>2015-04-05T14:52:20Z</time>
      </trkpt>
      <trkpt lat="43.9878" lon="2.65818">
        <ele>187.3</ele>
        <time>2015-04-05T14:52:27Z</time>
      </trkpt>
      <trkpt lat="43.98774" lon="2.65829">
        <ele>187.4</ele>
        <time>2015-04-05T14:52:32Z</time>
      </trkpt>
      <trkpt lat="43.98767" lon="2.65841">
        <ele>187.6</ele>
        <time>2015-04-05T14:52:38Z</time>
      </trkpt>
      <trkpt lat="43.98762" lon="2.65853">
        <ele>188.4</ele>
        <time>2015-04-05T14:52:44Z</time>
      </trkpt>
      <trkpt lat="43.98756" lon="2.65865">
        <ele>189.1</ele>
        <time>2015-04-05T14:52:50Z</time>
      </trkpt>
      <trkpt lat="43.98753" lon="2.65878">
        <ele>190.2</ele>
        <time>2015-04-05T14:52:55Z</time>
      </trkpt>
      <trkpt lat="43.98752" lon="2.65892">
        <ele>190.8</ele>
        <time>2015-04-05T14:53:00Z</time>
      </trkpt>
      <trkpt lat="43.98752" lon="2.65906">
        <ele>191.5</ele>
        <time>2015-04-05T14:53:04Z</time>
      </trkpt>
      <trkpt lat="43.98754" lon="2.65921">
        <ele>192.7</ele>
        <time>2015-04-05T14:53:08Z</time>
      </trkpt>
      <trkpt lat="43.98758" lon="2.65937">
        <ele>195.5</ele>
        <time>2015-04-05T14:53:12Z</time>
      </trkpt>
      <trkpt lat="43.98761" lon="2.65953">
        <ele>197</ele>
        <time>2015-04-05T14:53:15Z</time>
      </trkpt>
      <trkpt lat="43.98763" lon="2.65969">
        <ele>197.7</ele>
        <time>2015-04-05T14:53:18Z</time>
      </trkpt>
      <trkpt lat="43.98766" lon="2.65987">
        <ele>198.2</ele>
        <time>2015-04-05T14:53:21Z</time>
      </trkpt>
      <trkpt lat="43.98768" lon="2.66">
        <ele>198.2</ele>
        <time>2015-04-05T14:53:23Z</time>
      </trkpt>
      <trkpt lat="43.98771" lon="2.66014">
        <ele>198.5</ele>
        <time>2015-04-05T14:53:25Z</time>
      </trkpt>
      <trkpt lat="43.98775" lon="2.6603">
        <ele>198.6</ele>
        <time>2015-04-05T14:53:27Z</time>
      </trkpt>
      <trkpt lat="43.98778" lon="2.66047">
        <ele>198.2</ele>
        <time>2015-04-05T14:53:29Z</time>
      </trkpt>
      <trkpt lat="43.98781" lon="2.66064">
        <ele>198.5</ele>
        <time>2015-04-05T14:53:31Z</time>
      </trkpt>
      <trkpt lat="43.98784" lon="2.66082">
        <ele>198.4</ele>
        <time>2015-04-05T14:53:33Z</time>
      </trkpt>
      <trkpt lat="43.98788" lon="2.66101">
        <ele>198.4</ele>
        <time>2015-04-05T14:53:35Z</time>
      </trkpt>
      <trkpt lat="43.98792" lon="2.6612">
        <ele>198.5</ele>
        <time>2015-04-05T14:53:37Z</time>
      </trkpt>
      <trkpt lat="43.98795" lon="2.6614">
        <ele>198.3</ele>
        <time>2015-04-05T14:53:39Z</time>
      </trkpt>
      <trkpt lat="43.98799" lon="2.66159">
        <ele>198.3</ele>
        <time>2015-04-05T14:53:41Z</time>
      </trkpt>
      <trkpt lat="43.98803" lon="2.66178">
        <ele>199</ele>
        <time>2015-04-05T14:53:43Z</time>
      </trkpt>
      <trkpt lat="43.98808" lon="2.66197">
        <ele>199.2</ele>
        <time>2015-04-05T14:53:45Z</time>
      </trkpt>
      <trkpt lat="43.98813" lon="2.66214">
        <ele>199.5</ele>
        <time>2015-04-05T14:53:47Z</time>
      </trkpt>
      <trkpt lat="43.98819" lon="2.66232">
        <ele>199.7</ele>
        <time>2015-04-05T14:53:49Z</time>
      </trkpt>
      <trkpt lat="43.98824" lon="2.66247">
        <ele>200</ele>
        <time>2015-04-05T14:53:51Z</time>
      </trkpt>
      <trkpt lat="43.9883" lon="2.66261">
        <ele>200.2</ele>
        <time>2015-04-05T14:53:53Z</time>
      </trkpt>
      <trkpt lat="43.98836" lon="2.66276">
        <ele>200.4</ele>
        <time>2015-04-05T14:53:55Z</time>
      </trkpt>
      <trkpt lat="43.99148" lon="2.66418">
        <ele>178.3</ele>
        <time>2015-04-05T14:55:27Z</time>
      </trkpt>
      <trkpt lat="43.99159" lon="2.6642">
        <ele>180.3</ele>
        <time>2015-04-05T14:55:30Z</time>
      </trkpt>
      <trkpt lat="43.99168" lon="2.66418">
        <ele>186</ele>
        <time>2015-04-05T14:55:34Z</time>
      </trkpt>
      <trkpt lat="43.99169" lon="2.66432">
        <ele>199.2</ele>
        <time>2015-04-05T14:55:39Z</time>
      </trkpt>
      <trkpt lat="43.99169" lon="2.66445">
        <ele>217</ele>
        <time>2015-04-05T14:55:44Z</time>
      </trkpt>
      <trkpt lat="43.9918" lon="2.66437">
        <ele>210.7</ele>
        <time>2015-04-05T14:58:45Z</time>
      </trkpt>
      <trkpt lat="43.99188" lon="2.66427">
        <ele>209</ele>
        <time>2015-04-05T14:58:54Z</time>
      </trkpt>
      <trkpt lat="43.99197" lon="2.66425">
        <ele>208.6</ele>
        <time>2015-04-05T14:58:58Z</time>
      </trkpt>
      <trkpt lat="43.99206" lon="2.66425">
        <ele>208.4</ele>
        <time>2015-04-05T14:59:01Z</time>
      </trkpt>
      <trkpt lat="43.99216" lon="2.66424">
        <ele>208.3</ele>
        <time>2015-04-05T14:59:04Z</time>
      </trkpt>
      <trkpt lat="43.99226" lon="2.66423">
        <ele>208.3</ele>
        <time>2015-04-05T14:59:07Z</time>
      </trkpt>
      <trkpt lat="43.99238" lon="2.66426">
        <ele>208.2</ele>
        <time>2015-04-05T14:59:10Z</time>
      </trkpt>
      <trkpt lat="43.9925" lon="2.6643">
        <ele>208.4</ele>
        <time>2015-04-05T14:59:13Z</time>
      </trkpt>
      <trkpt lat="43.99263" lon="2.66434">
        <ele>208.1</ele>
        <time>2015-04-05T14:59:16Z</time>
      </trkpt>
      <trkpt lat="43.99276" lon="2.66439">
        <ele>207.9</ele>
        <time>2015-04-05T14:59:19Z</time>
      </trkpt>
      <trkpt lat="43.99284" lon="2.66442">
        <ele>206.7</ele>
        <time>2015-04-05T14:59:21Z</time>
      </trkpt>
      <trkpt lat="43.99293" lon="2.66445">
        <ele>206.1</ele>
        <time>2015-04-05T14:59:23Z</time>
      </trkpt>
      <trkpt lat="43.99302" lon="2.66445">
        <ele>202.7</ele>
        <time>2015-04-05T14:59:25Z</time>
      </trkpt>
      <trkpt lat="43.99315" lon="2.66448">
        <ele>201.2</ele>
        <time>2015-04-05T14:59:28Z</time>
      </trkpt>
      <trkpt lat="43.99327" lon="2.66453">
        <ele>199.9</ele>
        <time>2015-04-05T14:59:31Z</time>
      </trkpt>
      <trkpt lat="43.99338" lon="2.66461">
        <ele>199.3</ele>
        <time>2015-04-05T14:59:34Z</time>
      </trkpt>
      <trkpt lat="43.99349" lon="2.66471">
        <ele>197.7</ele>
        <time>2015-04-05T14:59:37Z</time>
      </trkpt>
      <trkpt lat="43.99361" lon="2.66479">
        <ele>197.6</ele>
        <time>2015-04-05T14:59:40Z</time>
      </trkpt>
      <trkpt lat="43.99372" lon="2.66491">
        <ele>198</ele>
        <time>2015-04-05T14:59:43Z</time>
      </trkpt>
      <trkpt lat="43.99381" lon="2.66502">
        <ele>198.9</ele>
        <time>2015-04-05T14:59:46Z</time>
      </trkpt>
      <trkpt lat="43.9939" lon="2.66514">
        <ele>199.3</ele>
        <time>2015-04-05T14:59:49Z</time>
      </trkpt>
      <trkpt lat="43.994" lon="2.66524">
        <ele>199.7</ele>
        <time>2015-04-05T14:59:52Z</time>
      </trkpt>
      <trkpt lat="43.99408" lon="2.66538">
        <ele>200.1</ele>
        <time>2015-04-05T14:59:55Z</time>
      </trkpt>
      <trkpt lat="43.99418" lon="2.6655">
        <ele>200.4</ele>
        <time>2015-04-05T14:59:58Z</time>
      </trkpt>
      <trkpt lat="43.99426" lon="2.66564">
        <ele>200.7</ele>
        <time>2015-04-05T15:00:01Z</time>
      </trkpt>
      <trkpt lat="43.99432" lon="2.66575">
        <ele>200.8</ele>
        <time>2015-04-05T15:00:03Z</time>
      </trkpt>
      <trkpt lat="43.99439" lon="2.66591">
        <ele>200.9</ele>
        <time>2015-04-05T15:00:06Z</time>
      </trkpt>
      <trkpt lat="43.99444" lon="2.66607">
        <ele>200.7</ele>
        <time>2015-04-05T15:00:09Z</time>
      </trkpt>
      <trkpt lat="43.9945" lon="2.66622">
        <ele>201</ele>
        <time>2015-04-05T15:00:12Z</time>
      </trkpt>
      <trkpt lat="43.99455" lon="2.66638">
        <ele>202.2</ele>
        <time>2015-04-05T15:00:15Z</time>
      </trkpt>
      <trkpt lat="43.99461" lon="2.66655">
        <ele>204.1</ele>
        <time>2015-04-05T15:00:18Z</time>
      </trkpt>
      <trkpt lat="43.99466" lon="2.66672">
        <ele>205.4</ele>
        <time>2015-04-05T15:00:21Z</time>
      </trkpt>
      <trkpt lat="43.9947" lon="2.66689">
        <ele>206.8</ele>
        <time>2015-04-05T15:00:24Z</time>
      </trkpt>
      <trkpt lat="43.99475" lon="2.66704">
        <ele>207.6</ele>
        <time>2015-04-05T15:00:27Z</time>
      </trkpt>
      <trkpt lat="43.99479" lon="2.66716">
        <ele>207.5</ele>
        <time>2015-04-05T15:00:29Z</time>
      </trkpt>
      <trkpt lat="43.99485" lon="2.6673">
        <ele>208.4</ele>
        <time>2015-04-05T15:00:32Z</time>
      </trkpt>
      <trkpt lat="43.99489" lon="2.66746">
        <ele>209.4</ele>
        <time>2015-04-05T15:00:35Z</time>
      </trkpt>
      <trkpt lat="43.99494" lon="2.66763">
        <ele>209.5</ele>
        <time>2015-04-05T15:00:38Z</time>
      </trkpt>
      <trkpt lat="43.99498" lon="2.66779">
        <ele>209.8</ele>
        <time>2015-04-05T15:00:41Z</time>
      </trkpt>
      <trkpt lat="43.99502" lon="2.66797">
        <ele>209.7</ele>
        <time>2015-04-05T15:00:44Z</time>
      </trkpt>
      <trkpt lat="43.99506" lon="2.66815">
        <ele>209.5</ele>
        <time>2015-04-05T15:00:47Z</time>
      </trkpt>
      <trkpt lat="43.99508" lon="2.66827">
        <ele>209.4</ele>
        <time>2015-04-05T15:00:49Z</time>
      </trkpt>
      <trkpt lat="43.99511" lon="2.66841">
        <ele>209.2</ele>
        <time>2015-04-05T15:00:51Z</time>
      </trkpt>
      <trkpt lat="43.99514" lon="2.66854">
        <ele>209.1</ele>
        <time>2015-04-05T15:00:53Z</time>
      </trkpt>
      <trkpt lat="43.99517" lon="2.66867">
        <ele>209.5</ele>
        <time>2015-04-05T15:00:55Z</time>
      </trkpt>
      <trkpt lat="43.9952" lon="2.66879">
        <ele>209.5</ele>
        <time>2015-04-05T15:00:57Z</time>
      </trkpt>
      <trkpt lat="43.99524" lon="2.66893">
        <ele>210.2</ele>
        <time>2015-04-05T15:00:59Z</time>
      </trkpt>
      <trkpt lat="43.99528" lon="2.66905">
        <ele>211</ele>
        <time>2015-04-05T15:01:01Z</time>
      </trkpt>
      <trkpt lat="43.99531" lon="2.66918">
        <ele>211.5</ele>
        <time>2015-04-05T15:01:03Z</time>
      </trkpt>
      <trkpt lat="43.99535" lon="2.66931">
        <ele>212.4</ele>
        <time>2015-04-05T15:01:05Z</time>
      </trkpt>
      <trkpt lat="43.99539" lon="2.66944">
        <ele>213</ele>
        <time>2015-04-05T15:01:07Z</time>
      </trkpt>
      <trkpt lat="43.99542" lon="2.66956">
        <ele>214</ele>
        <time>2015-04-05T15:01:09Z</time>
      </trkpt>
      <trkpt lat="43.99545" lon="2.66969">
        <ele>214.8</ele>
        <time>2015-04-05T15:01:11Z</time>
      </trkpt>
      <trkpt lat="43.99549" lon="2.66981">
        <ele>214.5</ele>
        <time>2015-04-05T15:01:13Z</time>
      </trkpt>
      <trkpt lat="43.99553" lon="2.66993">
        <ele>214.6</ele>
        <time>2015-04-05T15:01:15Z</time>
      </trkpt>
      <trkpt lat="43.99556" lon="2.67005">
        <ele>214.8</ele>
        <time>2015-04-05T15:01:17Z</time>
      </trkpt>
      <trkpt lat="43.99561" lon="2.67021">
        <ele>215.6</ele>
        <time>2015-04-05T15:01:20Z</time>
      </trkpt>
      <trkpt lat="43.99565" lon="2.67036">
        <ele>215.4</ele>
        <time>2015-04-05T15:01:23Z</time>
      </trkpt>
      <trkpt lat="43.9957" lon="2.67049">
        <ele>214.6</ele>
        <time>2015-04-05T15:01:26Z</time>
      </trkpt>
      <trkpt lat="43.99575" lon="2.67063">
        <ele>213.4</ele>
        <time>2015-04-05T15:01:30Z</time>
      </trkpt>
      <trkpt lat="43.99577" lon="2.67075">
        <ele>212.9</ele>
        <time>2015-04-05T15:01:35Z</time>
      </trkpt>
      <trkpt lat="43.99588" lon="2.67075">
        <ele>210.6</ele>
        <time>2015-04-05T15:02:08Z</time>
      </trkpt>
      <trkpt lat="43.99599" lon="2.67075">
        <ele>209.7</ele>
        <time>2015-04-05T15:02:12Z</time>
      </trkpt>
      <trkpt lat="43.99607" lon="2.67086">
        <ele>208.3</ele>
        <time>2015-04-05T15:02:16Z</time>
      </trkpt>
      <trkpt lat="43.99613" lon="2.67097">
        <ele>208.6</ele>
        <time>2015-04-05T15:02:19Z</time>
      </trkpt>
      <trkpt lat="43.99619" lon="2.67108">
        <ele>208.8</ele>
        <time>2015-04-05T15:02:22Z</time>
      </trkpt>
      <trkpt lat="43.99626" lon="2.6712">
        <ele>208.4</ele>
        <time>2015-04-05T15:02:25Z</time>
      </trkpt>
      <trkpt lat="43.99632" lon="2.67131">
        <ele>207.3</ele>
        <time>2015-04-05T15:02:28Z</time>
      </trkpt>
      <trkpt lat="43.99639" lon="2.67143">
        <ele>206.9</ele>
        <time>2015-04-05T15:02:31Z</time>
      </trkpt>
      <trkpt lat="43.99645" lon="2.67155">
        <ele>207.5</ele>
        <time>2015-04-05T15:02:34Z</time>
      </trkpt>
      <trkpt lat="43.99653" lon="2.67168">
        <ele>208</ele>
        <time>2015-04-05T15:02:37Z</time>
      </trkpt>
      <trkpt lat="43.9966" lon="2.67179">
        <ele>208.2</ele>
        <time>2015-04-05T15:02:40Z</time>
      </trkpt>
      <trkpt lat="43.99666" lon="2.67188">
        <ele>207.9</ele>
        <time>2015-04-05T15:02:43Z</time>
      </trkpt>
      <trkpt lat="43.99672" lon="2.67201">
        <ele>207.9</ele>
        <time>2015-04-05T15:02:47Z</time>
      </trkpt>
      <trkpt lat="43.99678" lon="2.67213">
        <ele>208.4</ele>
        <time>2015-04-05T15:02:51Z</time>
      </trkpt>
      <trkpt lat="43.99687" lon="2.67225">
        <ele>208.7</ele>
        <time>2015-04-05T15:02:55Z</time>
      </trkpt>
      <trkpt lat="43.99695" lon="2.67234">
        <ele>209.1</ele>
        <time>2015-04-05T15:02:59Z</time>
      </trkpt>
      <trkpt lat="43.99703" lon="2.6724">
        <ele>209.5</ele>
        <time>2015-04-05T15:03:04Z</time>
      </trkpt>
      <trkpt lat="43.9971" lon="2.67248">
        <ele>209.6</ele>
        <time>2015-04-05T15:03:09Z</time>
      </trkpt>
      <trkpt lat="43.99719" lon="2.67256">
        <ele>211.1</ele>
        <time>2015-04-05T15:03:14Z</time>
      </trkpt>
      <trkpt lat="43.99727" lon="2.67265">
        <ele>211</ele>
        <time>2015-04-05T15:03:19Z</time>
      </trkpt>
      <trkpt lat="43.99733" lon="2.67277">
        <ele>211.9</ele>
        <time>2015-04-05T15:03:24Z</time>
      </trkpt>
      <trkpt lat="43.99736" lon="2.6729">
        <ele>213.8</ele>
        <time>2015-04-05T15:03:29Z</time>
      </trkpt>
      <trkpt lat="43.99733" lon="2.67303">
        <ele>216.9</ele>
        <time>2015-04-05T15:03:34Z</time>
      </trkpt>
      <trkpt lat="43.99729" lon="2.67316">
        <ele>217.8</ele>
        <time>2015-04-05T15:03:39Z</time>
      </trkpt>
      <trkpt lat="43.99723" lon="2.67328">
        <ele>217.5</ele>
        <time>2015-04-05T15:03:44Z</time>
      </trkpt>
      <trkpt lat="43.9972" lon="2.67342">
        <ele>217.3</ele>
        <time>2015-04-05T15:03:49Z</time>
      </trkpt>
      <trkpt lat="43.99721" lon="2.67358">
        <ele>218.2</ele>
        <time>2015-04-05T15:03:54Z</time>
      </trkpt>
      <trkpt lat="43.99726" lon="2.6737">
        <ele>219.7</ele>
        <time>2015-04-05T15:03:58Z</time>
      </trkpt>
      <trkpt lat="43.99735" lon="2.67381">
        <ele>221.1</ele>
        <time>2015-04-05T15:04:02Z</time>
      </trkpt>
      <trkpt lat="43.99743" lon="2.67385">
        <ele>222.7</ele>
        <time>2015-04-05T15:04:05Z</time>
      </trkpt>
      <trkpt lat="43.99755" lon="2.6739">
        <ele>223.8</ele>
        <time>2015-04-05T15:04:09Z</time>
      </trkpt>
      <trkpt lat="43.99763" lon="2.67396">
        <ele>223.5</ele>
        <time>2015-04-05T15:04:12Z</time>
      </trkpt>
      <trkpt lat="43.99772" lon="2.67402">
        <ele>223.3</ele>
        <time>2015-04-05T15:04:16Z</time>
      </trkpt>
      <trkpt lat="43.99783" lon="2.67409">
        <ele>223.3</ele>
        <time>2015-04-05T15:04:20Z</time>
      </trkpt>
      <trkpt lat="43.99792" lon="2.67417">
        <ele>223.8</ele>
        <time>2015-04-05T15:04:24Z</time>
      </trkpt>
      <trkpt lat="43.99799" lon="2.67427">
        <ele>224</ele>
        <time>2015-04-05T15:04:28Z</time>
      </trkpt>
      <trkpt lat="43.99803" lon="2.6744">
        <ele>224.2</ele>
        <time>2015-04-05T15:04:31Z</time>
      </trkpt>
      <trkpt lat="43.99806" lon="2.67456">
        <ele>225.3</ele>
        <time>2015-04-05T15:04:34Z</time>
      </trkpt>
      <trkpt lat="43.998" lon="2.6747">
        <ele>225.6</ele>
        <time>2015-04-05T15:04:37Z</time>
      </trkpt>
      <trkpt lat="43.99791" lon="2.67476">
        <ele>226</ele>
        <time>2015-04-05T15:04:40Z</time>
      </trkpt>
      <trkpt lat="43.99781" lon="2.67482">
        <ele>226</ele>
        <time>2015-04-05T15:04:43Z</time>
      </trkpt>
      <trkpt lat="43.99773" lon="2.67489">
        <ele>225.7</ele>
        <time>2015-04-05T15:04:46Z</time>
      </trkpt>
      <trkpt lat="43.99766" lon="2.675">
        <ele>225.4</ele>
        <time>2015-04-05T15:04:49Z</time>
      </trkpt>
      <trkpt lat="43.9976" lon="2.67513">
        <ele>224.4</ele>
        <time>2015-04-05T15:04:53Z</time>
      </trkpt>
      <trkpt lat="43.99758" lon="2.67529">
        <ele>223.9</ele>
        <time>2015-04-05T15:04:57Z</time>
      </trkpt>
      <trkpt lat="43.99757" lon="2.67542">
        <ele>223.7</ele>
        <time>2015-04-05T15:05:00Z</time>
      </trkpt>
      <trkpt lat="43.99758" lon="2.67556">
        <ele>223.8</ele>
        <time>2015-04-05T15:05:03Z</time>
      </trkpt>
      <trkpt lat="43.99759" lon="2.67569">
        <ele>223.7</ele>
        <time>2015-04-05T15:05:06Z</time>
      </trkpt>
      <trkpt lat="43.99761" lon="2.67583">
        <ele>223.4</ele>
        <time>2015-04-05T15:05:09Z</time>
      </trkpt>
      <trkpt lat="43.99765" lon="2.67597">
        <ele>223.7</ele>
        <time>2015-04-05T15:05:12Z</time>
      </trkpt>
      <trkpt lat="43.99767" lon="2.67611">
        <ele>223.6</ele>
        <time>2015-04-05T15:05:15Z</time>
      </trkpt>
      <trkpt lat="43.9977" lon="2.67624">
        <ele>224</ele>
        <time>2015-04-05T15:05:18Z</time>
      </trkpt>
      <trkpt lat="43.99774" lon="2.67637">
        <ele>225</ele>
        <time>2015-04-05T15:05:21Z</time>
      </trkpt>
      <trkpt lat="43.99777" lon="2.6765">
        <ele>225.7</ele>
        <time>2015-04-05T15:05:24Z</time>
      </trkpt>
      <trkpt lat="43.99781" lon="2.67663">
        <ele>225.8</ele>
        <time>2015-04-05T15:05:27Z</time>
      </trkpt>
      <trkpt lat="43.99784" lon="2.67677">
        <ele>225.9</ele>
        <time>2015-04-05T15:05:30Z</time>
      </trkpt>
      <trkpt lat="43.99787" lon="2.67693">
        <ele>225</ele>
        <time>2015-04-05T15:05:33Z</time>
      </trkpt>
      <trkpt lat="43.9979" lon="2.6771">
        <ele>225.1</ele>
        <time>2015-04-05T15:05:36Z</time>
      </trkpt>
      <trkpt lat="43.99792" lon="2.67725">
        <ele>225.6</ele>
        <time>2015-04-05T15:05:39Z</time>
      </trkpt>
      <trkpt lat="43.99795" lon="2.67739">
        <ele>225.9</ele>
        <time>2015-04-05T15:05:42Z</time>
      </trkpt>
      <trkpt lat="43.99796" lon="2.67754">
        <ele>227.2</ele>
        <time>2015-04-05T15:05:46Z</time>
      </trkpt>
      <trkpt lat="43.998" lon="2.67769">
        <ele>228.4</ele>
        <time>2015-04-05T15:05:50Z</time>
      </trkpt>
      <trkpt lat="43.99802" lon="2.67781">
        <ele>229.7</ele>
        <time>2015-04-05T15:05:54Z</time>
      </trkpt>
      <trkpt lat="43.99804" lon="2.67794">
        <ele>232.7</ele>
        <time>2015-04-05T15:06:00Z</time>
      </trkpt>
      <trkpt lat="43.99805" lon="2.67806">
        <ele>235.7</ele>
        <time>2015-04-05T15:06:06Z</time>
      </trkpt>
      <trkpt lat="43.99807" lon="2.67821">
        <ele>236.9</ele>
        <time>2015-04-05T15:06:12Z</time>
      </trkpt>
      <trkpt lat="43.99805" lon="2.67834">
        <ele>237.5</ele>
        <time>2015-04-05T15:06:16Z</time>
      </trkpt>
      <trkpt lat="43.99807" lon="2.67848">
        <ele>238.8</ele>
        <time>2015-04-05T15:06:22Z</time>
      </trkpt>
      <trkpt lat="43.99811" lon="2.67861">
        <ele>241.1</ele>
        <time>2015-04-05T15:06:28Z</time>
      </trkpt>
      <trkpt lat="43.99811" lon="2.67874">
        <ele>243.8</ele>
        <time>2015-04-05T15:06:35Z</time>
      </trkpt>
      <trkpt lat="43.99809" lon="2.67888">
        <ele>242.6</ele>
        <time>2015-04-05T15:07:17Z</time>
      </trkpt>
      <trkpt lat="43.99812" lon="2.679">
        <ele>242.3</ele>
        <time>2015-04-05T15:07:21Z</time>
      </trkpt>
      <trkpt lat="43.99814" lon="2.67915">
        <ele>241.5</ele>
        <time>2015-04-05T15:07:25Z</time>
      </trkpt>
      <trkpt lat="43.99818" lon="2.67927">
        <ele>240.4</ele>
        <time>2015-04-05T15:07:28Z</time>
      </trkpt>
      <trkpt lat="43.9982" lon="2.6794">
        <ele>240.5</ele>
        <time>2015-04-05T15:07:33Z</time>
      </trkpt>
      <trkpt lat="43.99825" lon="2.67953">
        <ele>239.9</ele>
        <time>2015-04-05T15:07:39Z</time>
      </trkpt>
      <trkpt lat="43.99829" lon="2.67965">
        <ele>240.5</ele>
        <time>2015-04-05T15:07:43Z</time>
      </trkpt>
      <trkpt lat="43.99832" lon="2.6798">
        <ele>241</ele>
        <time>2015-04-05T15:07:48Z</time>
      </trkpt>
      <trkpt lat="43.99834" lon="2.67993">
        <ele>241.2</ele>
        <time>2015-04-05T15:07:52Z</time>
      </trkpt>
      <trkpt lat="43.99838" lon="2.68008">
        <ele>241.5</ele>
        <time>2015-04-05T15:07:57Z</time>
      </trkpt>
      <trkpt lat="43.99842" lon="2.6802">
        <ele>241.2</ele>
        <time>2015-04-05T15:08:01Z</time>
      </trkpt>
      <trkpt lat="43.99847" lon="2.68032">
        <ele>240.5</ele>
        <time>2015-04-05T15:08:05Z</time>
      </trkpt>
      <trkpt lat="43.99852" lon="2.68046">
        <ele>238.9</ele>
        <time>2015-04-05T15:08:10Z</time>
      </trkpt>
      <trkpt lat="43.99855" lon="2.68058">
        <ele>238.4</ele>
        <time>2015-04-05T15:08:15Z</time>
      </trkpt>
      <trkpt lat="43.9986" lon="2.68071">
        <ele>238</ele>
        <time>2015-04-05T15:08:20Z</time>
      </trkpt>
      <trkpt lat="43.99864" lon="2.68085">
        <ele>238.4</ele>
        <time>2015-04-05T15:08:26Z</time>
      </trkpt>
      <trkpt lat="43.99867" lon="2.68098">
        <ele>239.6</ele>
        <time>2015-04-05T15:08:32Z</time>
      </trkpt>
      <trkpt lat="43.99869" lon="2.68113">
        <ele>241.5</ele>
        <time>2015-04-05T15:08:38Z</time>
      </trkpt>
      <trkpt lat="43.99868" lon="2.68127">
        <ele>243.5</ele>
        <time>2015-04-05T15:08:44Z</time>
      </trkpt>
      <trkpt lat="43.99868" lon="2.6814">
        <ele>244.4</ele>
        <time>2015-04-05T15:08:49Z</time>
      </trkpt>
      <trkpt lat="43.99868" lon="2.68154">
        <ele>245.1</ele>
        <time>2015-04-05T15:08:54Z</time>
      </trkpt>
      <trkpt lat="43.9987" lon="2.68167">
        <ele>246</ele>
        <time>2015-04-05T15:08:59Z</time>
      </trkpt>
      <trkpt lat="43.99872" lon="2.6818">
        <ele>247.2</ele>
        <time>2015-04-05T15:09:04Z</time>
      </trkpt>
      <trkpt lat="43.99875" lon="2.68193">
        <ele>248.3</ele>
        <time>2015-04-05T15:09:10Z</time>
      </trkpt>
      <trkpt lat="43.99877" lon="2.68206">
        <ele>247.7</ele>
        <time>2015-04-05T15:09:41Z</time>
      </trkpt>
      <trkpt lat="43.9988" lon="2.68219">
        <ele>248.1</ele>
        <time>2015-04-05T15:09:46Z</time>
      </trkpt>
      <trkpt lat="43.99883" lon="2.68233">
        <ele>248</ele>
        <time>2015-04-05T15:09:51Z</time>
      </trkpt>
      <trkpt lat="43.99886" lon="2.68247">
        <ele>248.3</ele>
        <time>2015-04-05T15:09:56Z</time>
      </trkpt>
      <trkpt lat="43.99889" lon="2.68261">
        <ele>249</ele>
        <time>2015-04-05T15:10:01Z</time>
      </trkpt>
      <trkpt lat="43.99892" lon="2.68276">
        <ele>249.2</ele>
        <time>2015-04-05T15:10:06Z</time>
      </trkpt>
      <trkpt lat="43.99893" lon="2.6829">
        <ele>249.3</ele>
        <time>2015-04-05T15:10:10Z</time>
      </trkpt>
      <trkpt lat="43.99895" lon="2.68304">
        <ele>249.5</ele>
        <time>2015-04-05T15:10:14Z</time>
      </trkpt>
      <trkpt lat="43.99897" lon="2.68317">
        <ele>249.2</ele>
        <time>2015-04-05T15:10:18Z</time>
      </trkpt>
      <trkpt lat="43.99897" lon="2.6833">
        <ele>248.7</ele>
        <time>2015-04-05T15:10:21Z</time>
      </trkpt>
      <trkpt lat="43.99898" lon="2.68345">
        <ele>248.6</ele>
        <time>2015-04-05T15:10:24Z</time>
      </trkpt>
      <trkpt lat="43.999" lon="2.68361">
        <ele>248.6</ele>
        <time>2015-04-05T15:10:27Z</time>
      </trkpt>
      <trkpt lat="43.99901" lon="2.68376">
        <ele>248.7</ele>
        <time>2015-04-05T15:10:30Z</time>
      </trkpt>
      <trkpt lat="43.99903" lon="2.68389">
        <ele>248.8</ele>
        <time>2015-04-05T15:10:33Z</time>
      </trkpt>
      <trkpt lat="43.99904" lon="2.68402">
        <ele>248.9</ele>
        <time>2015-04-05T15:10:37Z</time>
      </trkpt>
      <trkpt lat="43.99907" lon="2.68415">
        <ele>249.5</ele>
        <time>2015-04-05T15:10:41Z</time>
      </trkpt>
      <trkpt lat="43.99909" lon="2.68428">
        <ele>249.6</ele>
        <time>2015-04-05T15:10:45Z</time>
      </trkpt>
      <trkpt lat="43.99911" lon="2.68442">
        <ele>250</ele>
        <time>2015-04-05T15:10:49Z</time>
      </trkpt>
      <trkpt lat="43.99913" lon="2.68456">
        <ele>250.3</ele>
        <time>2015-04-05T15:10:53Z</time>
      </trkpt>
      <trkpt lat="43.99914" lon="2.6847">
        <ele>250.7</ele>
        <time>2015-04-05T15:10:57Z</time>
      </trkpt>
      <trkpt lat="43.99914" lon="2.68486">
        <ele>251.1</ele>
        <time>2015-04-05T15:11:01Z</time>
      </trkpt>
      <trkpt lat="43.99914" lon="2.68501">
        <ele>251.2</ele>
        <time>2015-04-05T15:11:04Z</time>
      </trkpt>
      <trkpt lat="43.99913" lon="2.68518">
        <ele>251.5</ele>
        <time>2015-04-05T15:11:07Z</time>
      </trkpt>
      <trkpt lat="43.99913" lon="2.68534">
        <ele>252.1</ele>
        <time>2015-04-05T15:11:10Z</time>
      </trkpt>
      <trkpt lat="43.99913" lon="2.6855">
        <ele>252.5</ele>
        <time>2015-04-05T15:11:13Z</time>
      </trkpt>
      <trkpt lat="43.99913" lon="2.68565">
        <ele>253</ele>
        <time>2015-04-05T15:11:16Z</time>
      </trkpt>
      <trkpt lat="43.99913" lon="2.6858">
        <ele>254.3</ele>
        <time>2015-04-05T15:11:19Z</time>
      </trkpt>
      <trkpt lat="43.99915" lon="2.68596">
        <ele>255.3</ele>
        <time>2015-04-05T15:11:22Z</time>
      </trkpt>
      <trkpt lat="43.99918" lon="2.68613">
        <ele>256.2</ele>
        <time>2015-04-05T15:11:25Z</time>
      </trkpt>
      <trkpt lat="43.9992" lon="2.68627">
        <ele>257.9</ele>
        <time>2015-04-05T15:11:28Z</time>
      </trkpt>
      <trkpt lat="43.99922" lon="2.68639">
        <ele>259.2</ele>
        <time>2015-04-05T15:11:31Z</time>
      </trkpt>
      <trkpt lat="43.99925" lon="2.68652">
        <ele>260.9</ele>
        <time>2015-04-05T15:11:34Z</time>
      </trkpt>
      <trkpt lat="43.99928" lon="2.68665">
        <ele>262.8</ele>
        <time>2015-04-05T15:11:37Z</time>
      </trkpt>
      <trkpt lat="43.99933" lon="2.6868">
        <ele>264.9</ele>
        <time>2015-04-05T15:11:41Z</time>
      </trkpt>
      <trkpt lat="43.99941" lon="2.68691">
        <ele>263.9</ele>
        <time>2015-04-05T15:11:44Z</time>
      </trkpt>
      <trkpt lat="43.9995" lon="2.687">
        <ele>262.9</ele>
        <time>2015-04-05T15:11:47Z</time>
      </trkpt>
      <trkpt lat="43.99962" lon="2.68703">
        <ele>263</ele>
        <time>2015-04-05T15:11:50Z</time>
      </trkpt>
      <trkpt lat="43.99971" lon="2.687">
        <ele>262.8</ele>
        <time>2015-04-05T15:11:53Z</time>
      </trkpt>
      <trkpt lat="43.99981" lon="2.68695">
        <ele>262.3</ele>
        <time>2015-04-05T15:11:56Z</time>
      </trkpt>
      <trkpt lat="43.9999" lon="2.68687">
        <ele>261.8</ele>
        <time>2015-04-05T15:11:59Z</time>
      </trkpt>
      <trkpt lat="43.99999" lon="2.68677">
        <ele>261.7</ele>
        <time>2015-04-05T15:12:02Z</time>
      </trkpt>
      <trkpt lat="44.00007" lon="2.68669">
        <ele>262</ele>
        <time>2015-04-05T15:12:05Z</time>
      </trkpt>
      <trkpt lat="44.00014" lon="2.6866">
        <ele>262.1</ele>
        <time>2015-04-05T15:12:08Z</time>
      </trkpt>
      <trkpt lat="44.00022" lon="2.68652">
        <ele>262.7</ele>
        <time>2015-04-05T15:12:11Z</time>
      </trkpt>
      <trkpt lat="44.0003" lon="2.68645">
        <ele>263.4</ele>
        <time>2015-04-05T15:12:14Z</time>
      </trkpt>
      <trkpt lat="44.00039" lon="2.68638">
        <ele>263.6</ele>
        <time>2015-04-05T15:12:17Z</time>
      </trkpt>
      <trkpt lat="44.00049" lon="2.68631">
        <ele>263.7</ele>
        <time>2015-04-05T15:12:20Z</time>
      </trkpt>
      <trkpt lat="44.00058" lon="2.68625">
        <ele>263.9</ele>
        <time>2015-04-05T15:12:23Z</time>
      </trkpt>
      <trkpt lat="44.00069" lon="2.6862">
        <ele>264.1</ele>
        <time>2015-04-05T15:12:26Z</time>
      </trkpt>
      <trkpt lat="44.00079" lon="2.68615">
        <ele>264.1</ele>
        <time>2015-04-05T15:12:29Z</time>
      </trkpt>
      <trkpt lat="44.00089" lon="2.6861">
        <ele>264</ele>
        <time>2015-04-05T15:12:32Z</time>
      </trkpt>
      <trkpt lat="44.00099" lon="2.68605">
        <ele>264.1</ele>
        <time>2015-04-05T15:12:35Z</time>
      </trkpt>
      <trkpt lat="44.00109" lon="2.68599">
        <ele>264</ele>
        <time>2015-04-05T15:12:38Z</time>
      </trkpt>
      <trkpt lat="44.0012" lon="2.6859">
        <ele>263.8</ele>
        <time>2015-04-05T15:12:41Z</time>
      </trkpt>
      <trkpt lat="44.00131" lon="2.68583">
        <ele>263.6</ele>
        <time>2015-04-05T15:12:44Z</time>
      </trkpt>
      <trkpt lat="44.00142" lon="2.68578">
        <ele>263.4</ele>
        <time>2015-04-05T15:12:47Z</time>
      </trkpt>
      <trkpt lat="44.00152" lon="2.68573">
        <ele>263.6</ele>
        <time>2015-04-05T15:12:50Z</time>
      </trkpt>
      <trkpt lat="44.00162" lon="2.68567">
        <ele>263.6</ele>
        <time>2015-04-05T15:12:53Z</time>
      </trkpt>
      <trkpt lat="44.00173" lon="2.68561">
        <ele>263.5</ele>
        <time>2015-04-05T15:12:56Z</time>
      </trkpt>
      <trkpt lat="44.00183" lon="2.68555">
        <ele>263.2</ele>
        <time>2015-04-05T15:12:59Z</time>
      </trkpt>
      <trkpt lat="44.00194" lon="2.68549">
        <ele>262.9</ele>
        <time>2015-04-05T15:13:02Z</time>
      </trkpt>
      <trkpt lat="44.00204" lon="2.68544">
        <ele>263</ele>
        <time>2015-04-05T15:13:05Z</time>
      </trkpt>
      <trkpt lat="44.00214" lon="2.6854">
        <ele>263.7</ele>
        <time>2015-04-05T15:13:08Z</time>
      </trkpt>
      <trkpt lat="44.00224" lon="2.68535">
        <ele>263.6</ele>
        <time>2015-04-05T15:13:11Z</time>
      </trkpt>
      <trkpt lat="44.00234" lon="2.6853">
        <ele>263.5</ele>
        <time>2015-04-05T15:13:14Z</time>
      </trkpt>
      <trkpt lat="44.00243" lon="2.68528">
        <ele>263.7</ele>
        <time>2015-04-05T15:13:17Z</time>
      </trkpt>
      <trkpt lat="44.00253" lon="2.68525">
        <ele>263.7</ele>
        <time>2015-04-05T15:13:20Z</time>
      </trkpt>
      <trkpt lat="44.00262" lon="2.68525">
        <ele>264.6</ele>
        <time>2015-04-05T15:13:23Z</time>
      </trkpt>
      <trkpt lat="44.00272" lon="2.68525">
        <ele>265.4</ele>
        <time>2015-04-05T15:13:26Z</time>
      </trkpt>
      <trkpt lat="44.00283" lon="2.68523">
        <ele>265.8</ele>
        <time>2015-04-05T15:13:29Z</time>
      </trkpt>
      <trkpt lat="44.00293" lon="2.68524">
        <ele>266.8</ele>
        <time>2015-04-05T15:13:32Z</time>
      </trkpt>
      <trkpt lat="44.00303" lon="2.68528">
        <ele>267.9</ele>
        <time>2015-04-05T15:13:35Z</time>
      </trkpt>
      <trkpt lat="44.00311" lon="2.6854">
        <ele>270.6</ele>
        <time>2015-04-05T15:13:39Z</time>
      </trkpt>
      <trkpt lat="44.0031" lon="2.68556">
        <ele>276</ele>
        <time>2015-04-05T15:13:41Z</time>
      </trkpt>
      <trkpt lat="44.00312" lon="2.6857">
        <ele>279</ele>
        <time>2015-04-05T15:13:45Z</time>
      </trkpt>
      <trkpt lat="44.00309" lon="2.68585">
        <ele>278.8</ele>
        <time>2015-04-05T15:13:50Z</time>
      </trkpt>
      <trkpt lat="44.00305" lon="2.68599">
        <ele>277.2</ele>
        <time>2015-04-05T15:13:55Z</time>
      </trkpt>
      <trkpt lat="44.00302" lon="2.6861">
        <ele>276.7</ele>
        <time>2015-04-05T15:13:59Z</time>
      </trkpt>
      <trkpt lat="44.00301" lon="2.68623">
        <ele>275.6</ele>
        <time>2015-04-05T15:14:03Z</time>
      </trkpt>
      <trkpt lat="44.00299" lon="2.68637">
        <ele>276</ele>
        <time>2015-04-05T15:14:07Z</time>
      </trkpt>
      <trkpt lat="44.00298" lon="2.68651">
        <ele>275.9</ele>
        <time>2015-04-05T15:14:12Z</time>
      </trkpt>
      <trkpt lat="44.00296" lon="2.68666">
        <ele>276.6</ele>
        <time>2015-04-05T15:14:17Z</time>
      </trkpt>
      <trkpt lat="44.0029" lon="2.68679">
        <ele>277.2</ele>
        <time>2015-04-05T15:14:22Z</time>
      </trkpt>
      <trkpt lat="44.00283" lon="2.68688">
        <ele>277.8</ele>
        <time>2015-04-05T15:14:26Z</time>
      </trkpt>
      <trkpt lat="44.00275" lon="2.68695">
        <ele>277.9</ele>
        <time>2015-04-05T15:14:30Z</time>
      </trkpt>
      <trkpt lat="44.00265" lon="2.68703">
        <ele>278.1</ele>
        <time>2015-04-05T15:14:35Z</time>
      </trkpt>
      <trkpt lat="44.00257" lon="2.68708">
        <ele>278.4</ele>
        <time>2015-04-05T15:14:39Z</time>
      </trkpt>
      <trkpt lat="44.00248" lon="2.68713">
        <ele>278.6</ele>
        <time>2015-04-05T15:14:43Z</time>
      </trkpt>
      <trkpt lat="44.00239" lon="2.6872">
        <ele>278.8</ele>
        <time>2015-04-05T15:14:47Z</time>
      </trkpt>
      <trkpt lat="44.0023" lon="2.68726">
        <ele>278.5</ele>
        <time>2015-04-05T15:14:51Z</time>
      </trkpt>
      <trkpt lat="44.0022" lon="2.68731">
        <ele>279</ele>
        <time>2015-04-05T15:14:55Z</time>
      </trkpt>
      <trkpt lat="44.00211" lon="2.68737">
        <ele>279.3</ele>
        <time>2015-04-05T15:14:59Z</time>
      </trkpt>
      <trkpt lat="44.00203" lon="2.68744">
        <ele>280.4</ele>
        <time>2015-04-05T15:15:03Z</time>
      </trkpt>
      <trkpt lat="44.00196" lon="2.68754">
        <ele>281.7</ele>
        <time>2015-04-05T15:15:07Z</time>
      </trkpt>
      <trkpt lat="44.00188" lon="2.68765">
        <ele>283.1</ele>
        <time>2015-04-05T15:15:12Z</time>
      </trkpt>
      <trkpt lat="44.0018" lon="2.68776">
        <ele>283.4</ele>
        <time>2015-04-05T15:15:17Z</time>
      </trkpt>
      <trkpt lat="44.00174" lon="2.68786">
        <ele>284.9</ele>
        <time>2015-04-05T15:15:21Z</time>
      </trkpt>
      <trkpt lat="44.00168" lon="2.68797">
        <ele>285.8</ele>
        <time>2015-04-05T15:15:25Z</time>
      </trkpt>
      <trkpt lat="44.00162" lon="2.68809">
        <ele>286</ele>
        <time>2015-04-05T15:15:29Z</time>
      </trkpt>
      <trkpt lat="44.00157" lon="2.68821">
        <ele>286.2</ele>
        <time>2015-04-05T15:15:33Z</time>
      </trkpt>
      <trkpt lat="44.00151" lon="2.68832">
        <ele>286.9</ele>
        <time>2015-04-05T15:15:37Z</time>
      </trkpt>
      <trkpt lat="44.00146" lon="2.68843">
        <ele>288</ele>
        <time>2015-04-05T15:15:41Z</time>
      </trkpt>
      <trkpt lat="44.00141" lon="2.68854">
        <ele>288.9</ele>
        <time>2015-04-05T15:15:45Z</time>
      </trkpt>
      <trkpt lat="44.00137" lon="2.68866">
        <ele>290</ele>
        <time>2015-04-05T15:15:49Z</time>
      </trkpt>
      <trkpt lat="44.00134" lon="2.68878">
        <ele>290.7</ele>
        <time>2015-04-05T15:15:53Z</time>
      </trkpt>
      <trkpt lat="44.00132" lon="2.68892">
        <ele>291.1</ele>
        <time>2015-04-05T15:15:58Z</time>
      </trkpt>
      <trkpt lat="44.0013" lon="2.68908">
        <ele>291.6</ele>
        <time>2015-04-05T15:16:03Z</time>
      </trkpt>
      <trkpt lat="44.00129" lon="2.6892">
        <ele>291.8</ele>
        <time>2015-04-05T15:16:07Z</time>
      </trkpt>
      <trkpt lat="44.00128" lon="2.68935">
        <ele>292.3</ele>
        <time>2015-04-05T15:16:12Z</time>
      </trkpt>
      <trkpt lat="44.00126" lon="2.68949">
        <ele>292.9</ele>
        <time>2015-04-05T15:16:17Z</time>
      </trkpt>
      <trkpt lat="44.00124" lon="2.68964">
        <ele>293.4</ele>
        <time>2015-04-05T15:16:22Z</time>
      </trkpt>
      <trkpt lat="44.00123" lon="2.68978">
        <ele>293.7</ele>
        <time>2015-04-05T15:16:27Z</time>
      </trkpt>
      <trkpt lat="44.00116" lon="2.68993">
        <ele>284.2</ele>
        <time>2015-04-05T15:23:58Z</time>
      </trkpt>
      <trkpt lat="44.0012" lon="2.69006">
        <ele>285.7</ele>
        <time>2015-04-05T15:24:20Z</time>
      </trkpt>
      <trkpt lat="44.00121" lon="2.6902">
        <ele>286.6</ele>
        <time>2015-04-05T15:24:26Z</time>
      </trkpt>
      <trkpt lat="44.00122" lon="2.69033">
        <ele>287.5</ele>
        <time>2015-04-05T15:24:31Z</time>
      </trkpt>
      <trkpt lat="44.00124" lon="2.69045">
        <ele>288.7</ele>
        <time>2015-04-05T15:24:36Z</time>
      </trkpt>
      <trkpt lat="44.00127" lon="2.69059">
        <ele>290</ele>
        <time>2015-04-05T15:24:41Z</time>
      </trkpt>
      <trkpt lat="44.00129" lon="2.69073">
        <ele>290.7</ele>
        <time>2015-04-05T15:24:46Z</time>
      </trkpt>
      <trkpt lat="44.00131" lon="2.69085">
        <ele>291.3</ele>
        <time>2015-04-05T15:24:50Z</time>
      </trkpt>
      <trkpt lat="44.00135" lon="2.69098">
        <ele>292.1</ele>
        <time>2015-04-05T15:24:55Z</time>
      </trkpt>
      <trkpt lat="44.00137" lon="2.69111">
        <ele>294.3</ele>
        <time>2015-04-05T15:25:00Z</time>
      </trkpt>
      <trkpt lat="44.0014" lon="2.69123">
        <ele>295.7</ele>
        <time>2015-04-05T15:25:05Z</time>
      </trkpt>
      <trkpt lat="44.00145" lon="2.69137">
        <ele>296.3</ele>
        <time>2015-04-05T15:25:10Z</time>
      </trkpt>
      <trkpt lat="44.00151" lon="2.69149">
        <ele>297.5</ele>
        <time>2015-04-05T15:25:15Z</time>
      </trkpt>
      <trkpt lat="44.00157" lon="2.69161">
        <ele>298.4</ele>
        <time>2015-04-05T15:25:20Z</time>
      </trkpt>
      <trkpt lat="44.00166" lon="2.69171">
        <ele>298.8</ele>
        <time>2015-04-05T15:25:25Z</time>
      </trkpt>
      <trkpt lat="44.00174" lon="2.69177">
        <ele>299</ele>
        <time>2015-04-05T15:25:29Z</time>
      </trkpt>
      <trkpt lat="44.00182" lon="2.69182">
        <ele>298.9</ele>
        <time>2015-04-05T15:25:33Z</time>
      </trkpt>
      <trkpt lat="44.00193" lon="2.69186">
        <ele>299.3</ele>
        <time>2015-04-05T15:25:38Z</time>
      </trkpt>
      <trkpt lat="44.00203" lon="2.69188">
        <ele>299.5</ele>
        <time>2015-04-05T15:25:42Z</time>
      </trkpt>
      <trkpt lat="44.00212" lon="2.69191">
        <ele>299.9</ele>
        <time>2015-04-05T15:25:46Z</time>
      </trkpt>
      <trkpt lat="44.00222" lon="2.69193">
        <ele>300.5</ele>
        <time>2015-04-05T15:25:50Z</time>
      </trkpt>
      <trkpt lat="44.00231" lon="2.69195">
        <ele>301.1</ele>
        <time>2015-04-05T15:25:54Z</time>
      </trkpt>
      <trkpt lat="44.00242" lon="2.69198">
        <ele>302.1</ele>
        <time>2015-04-05T15:25:59Z</time>
      </trkpt>
      <trkpt lat="44.00253" lon="2.692">
        <ele>303.4</ele>
        <time>2015-04-05T15:26:04Z</time>
      </trkpt>
      <trkpt lat="44.00262" lon="2.69202">
        <ele>304.1</ele>
        <time>2015-04-05T15:26:08Z</time>
      </trkpt>
      <trkpt lat="44.00273" lon="2.69204">
        <ele>305.1</ele>
        <time>2015-04-05T15:26:13Z</time>
      </trkpt>
      <trkpt lat="44.00282" lon="2.69207">
        <ele>305.9</ele>
        <time>2015-04-05T15:26:17Z</time>
      </trkpt>
      <trkpt lat="44.00293" lon="2.69209">
        <ele>307</ele>
        <time>2015-04-05T15:26:22Z</time>
      </trkpt>
      <trkpt lat="44.00301" lon="2.69211">
        <ele>307.8</ele>
        <time>2015-04-05T15:26:26Z</time>
      </trkpt>
      <trkpt lat="44.0031" lon="2.69213">
        <ele>308.5</ele>
        <time>2015-04-05T15:26:30Z</time>
      </trkpt>
      <trkpt lat="44.0032" lon="2.69215">
        <ele>308.8</ele>
        <time>2015-04-05T15:26:34Z</time>
      </trkpt>
      <trkpt lat="44.0033" lon="2.69219">
        <ele>309.8</ele>
        <time>2015-04-05T15:26:39Z</time>
      </trkpt>
      <trkpt lat="44.0034" lon="2.69225">
        <ele>310.2</ele>
        <time>2015-04-05T15:26:44Z</time>
      </trkpt>
      <trkpt lat="44.00349" lon="2.69234">
        <ele>310.5</ele>
        <time>2015-04-05T15:26:49Z</time>
      </trkpt>
      <trkpt lat="44.00355" lon="2.69243">
        <ele>311.1</ele>
        <time>2015-04-05T15:26:53Z</time>
      </trkpt>
      <trkpt lat="44.0036" lon="2.69256">
        <ele>311.8</ele>
        <time>2015-04-05T15:26:58Z</time>
      </trkpt>
      <trkpt lat="44.00366" lon="2.69268">
        <ele>312.7</ele>
        <time>2015-04-05T15:27:03Z</time>
      </trkpt>
      <trkpt lat="44.00372" lon="2.6928">
        <ele>313.7</ele>
        <time>2015-04-05T15:27:08Z</time>
      </trkpt>
      <trkpt lat="44.00379" lon="2.69289">
        <ele>313.7</ele>
        <time>2015-04-05T15:27:12Z</time>
      </trkpt>
      <trkpt lat="44.00388" lon="2.69298">
        <ele>314.6</ele>
        <time>2015-04-05T15:27:17Z</time>
      </trkpt>
      <trkpt lat="44.00396" lon="2.69306">
        <ele>315.2</ele>
        <time>2015-04-05T15:27:21Z</time>
      </trkpt>
      <trkpt lat="44.00405" lon="2.69311">
        <ele>315.9</ele>
        <time>2015-04-05T15:27:25Z</time>
      </trkpt>
      <trkpt lat="44.00416" lon="2.69317">
        <ele>316.8</ele>
        <time>2015-04-05T15:27:30Z</time>
      </trkpt>
      <trkpt lat="44.00424" lon="2.6932">
        <ele>317.7</ele>
        <time>2015-04-05T15:27:34Z</time>
      </trkpt>
      <trkpt lat="44.00435" lon="2.69321">
        <ele>319.2</ele>
        <time>2015-04-05T15:27:39Z</time>
      </trkpt>
      <trkpt lat="44.00445" lon="2.69323">
        <ele>320.7</ele>
        <time>2015-04-05T15:27:44Z</time>
      </trkpt>
      <trkpt lat="44.00456" lon="2.69327">
        <ele>321.4</ele>
        <time>2015-04-05T15:27:49Z</time>
      </trkpt>
      <trkpt lat="44.00467" lon="2.69327">
        <ele>321.7</ele>
        <time>2015-04-05T15:27:54Z</time>
      </trkpt>
      <trkpt lat="44.00477" lon="2.69326">
        <ele>321.3</ele>
        <time>2015-04-05T15:27:58Z</time>
      </trkpt>
      <trkpt lat="44.00486" lon="2.69332">
        <ele>321.7</ele>
        <time>2015-04-05T15:28:03Z</time>
      </trkpt>
      <trkpt lat="44.00492" lon="2.69344">
        <ele>321.6</ele>
        <time>2015-04-05T15:28:08Z</time>
      </trkpt>
      <trkpt lat="44.00497" lon="2.69356">
        <ele>321.5</ele>
        <time>2015-04-05T15:28:13Z</time>
      </trkpt>
      <trkpt lat="44.00506" lon="2.69362">
        <ele>321.4</ele>
        <time>2015-04-05T15:28:19Z</time>
      </trkpt>
      <trkpt lat="44.00515" lon="2.69368">
        <ele>322.7</ele>
        <time>2015-04-05T15:28:32Z</time>
      </trkpt>
      <trkpt lat="44.00509" lon="2.69358">
        <ele>328.7</ele>
        <time>2015-04-05T15:32:28Z</time>
      </trkpt>
      <trkpt lat="44.00513" lon="2.6937">
        <ele>333.2</ele>
        <time>2015-04-05T15:33:51Z</time>
      </trkpt>
      <trkpt lat="44.00505" lon="2.69364">
        <ele>336.9</ele>
        <time>2015-04-05T15:34:42Z</time>
      </trkpt>
      <trkpt lat="44.00509" lon="2.69353">
        <ele>337.7</ele>
        <time>2015-04-05T15:36:03Z</time>
      </trkpt>
      <trkpt lat="44.00502" lon="2.69344">
        <ele>331.5</ele>
        <time>2015-04-05T15:36:39Z</time>
      </trkpt>
      <trkpt lat="44.00498" lon="2.69331">
        <ele>330.3</ele>
        <time>2015-04-05T15:36:43Z</time>
      </trkpt>
      <trkpt lat="44.00507" lon="2.69326">
        <ele>329</ele>
        <time>2015-04-05T15:36:48Z</time>
      </trkpt>
      <trkpt lat="44.00515" lon="2.69332">
        <ele>329.9</ele>
        <time>2015-04-05T15:36:53Z</time>
      </trkpt>
      <trkpt lat="44.00522" lon="2.69343">
        <ele>332.6</ele>
        <time>2015-04-05T15:36:58Z</time>
      </trkpt>
      <trkpt lat="44.00528" lon="2.69357">
        <ele>335</ele>
        <time>2015-04-05T15:37:04Z</time>
      </trkpt>
      <trkpt lat="44.00529" lon="2.69371">
        <ele>336.8</ele>
        <time>2015-04-05T15:37:09Z</time>
      </trkpt>
      <trkpt lat="44.00528" lon="2.69384">
        <ele>337.6</ele>
        <time>2015-04-05T15:37:14Z</time>
      </trkpt>
      <trkpt lat="44.00527" lon="2.69397">
        <ele>338</ele>
        <time>2015-04-05T15:37:20Z</time>
      </trkpt>
      <trkpt lat="44.00527" lon="2.69411">
        <ele>338.1</ele>
        <time>2015-04-05T15:37:26Z</time>
      </trkpt>
      <trkpt lat="44.00526" lon="2.69424">
        <ele>338.3</ele>
        <time>2015-04-05T15:37:31Z</time>
      </trkpt>
      <trkpt lat="44.00525" lon="2.69438">
        <ele>338.4</ele>
        <time>2015-04-05T15:37:37Z</time>
      </trkpt>
      <trkpt lat="44.00525" lon="2.69451">
        <ele>337.9</ele>
        <time>2015-04-05T15:37:42Z</time>
      </trkpt>
      <trkpt lat="44.00524" lon="2.69465">
        <ele>337.1</ele>
        <time>2015-04-05T15:37:48Z</time>
      </trkpt>
      <trkpt lat="44.00525" lon="2.69479">
        <ele>336.6</ele>
        <time>2015-04-05T15:37:53Z</time>
      </trkpt>
      <trkpt lat="44.00524" lon="2.69493">
        <ele>341.7</ele>
        <time>2015-04-05T15:38:03Z</time>
      </trkpt>
      <trkpt lat="44.00529" lon="2.69503">
        <ele>343.1</ele>
        <time>2015-04-05T15:38:08Z</time>
      </trkpt>
      <trkpt lat="44.00534" lon="2.69514">
        <ele>345.9</ele>
        <time>2015-04-05T15:38:22Z</time>
      </trkpt>
      <trkpt lat="44.00538" lon="2.69528">
        <ele>345.2</ele>
        <time>2015-04-05T15:38:29Z</time>
      </trkpt>
      <trkpt lat="44.00541" lon="2.69541">
        <ele>345.2</ele>
        <time>2015-04-05T15:38:34Z</time>
      </trkpt>
      <trkpt lat="44.00538" lon="2.6956">
        <ele>341.3</ele>
        <time>2015-04-05T15:40:22Z</time>
      </trkpt>
      <trkpt lat="44.00529" lon="2.69568">
        <ele>340.8</ele>
        <time>2015-04-05T15:40:27Z</time>
      </trkpt>
      <trkpt lat="44.0052" lon="2.69571">
        <ele>340.5</ele>
        <time>2015-04-05T15:40:30Z</time>
      </trkpt>
      <trkpt lat="44.00511" lon="2.69575">
        <ele>340.6</ele>
        <time>2015-04-05T15:40:34Z</time>
      </trkpt>
      <trkpt lat="44.00507" lon="2.6959">
        <ele>340.5</ele>
        <time>2015-04-05T15:40:38Z</time>
      </trkpt>
      <trkpt lat="44.00507" lon="2.69607">
        <ele>340.9</ele>
        <time>2015-04-05T15:40:41Z</time>
      </trkpt>
      <trkpt lat="44.00511" lon="2.69619">
        <ele>341.1</ele>
        <time>2015-04-05T15:40:43Z</time>
      </trkpt>
      <trkpt lat="44.00517" lon="2.69636">
        <ele>341</ele>
        <time>2015-04-05T15:40:45Z</time>
      </trkpt>
      <trkpt lat="44.00525" lon="2.69644">
        <ele>341.3</ele>
        <time>2015-04-05T15:40:46Z</time>
      </trkpt>
      <trkpt lat="44.0053" lon="2.69662">
        <ele>341.1</ele>
        <time>2015-04-05T15:40:48Z</time>
      </trkpt>
      <trkpt lat="44.00533" lon="2.69679">
        <ele>340.6</ele>
        <time>2015-04-05T15:40:50Z</time>
      </trkpt>
      <trkpt lat="44.00537" lon="2.69695">
        <ele>340.3</ele>
        <time>2015-04-05T15:40:52Z</time>
      </trkpt>
      <trkpt lat="44.00543" lon="2.69711">
        <ele>339.6</ele>
        <time>2015-04-05T15:40:54Z</time>
      </trkpt>
      <trkpt lat="44.00548" lon="2.69728">
        <ele>339.1</ele>
        <time>2015-04-05T15:40:56Z</time>
      </trkpt>
      <trkpt lat="44.00551" lon="2.69741">
        <ele>338.6</ele>
        <time>2015-04-05T15:40:58Z</time>
      </trkpt>
      <trkpt lat="44.00557" lon="2.69757">
        <ele>338.3</ele>
        <time>2015-04-05T15:41:01Z</time>
      </trkpt>
      <trkpt lat="44.0056" lon="2.69769">
        <ele>337.9</ele>
        <time>2015-04-05T15:41:03Z</time>
      </trkpt>
      <trkpt lat="44.00565" lon="2.69784">
        <ele>337.2</ele>
        <time>2015-04-05T15:41:05Z</time>
      </trkpt>
      <trkpt lat="44.00569" lon="2.69802">
        <ele>336.7</ele>
        <time>2015-04-05T15:41:07Z</time>
      </trkpt>
      <trkpt lat="44.00571" lon="2.69822">
        <ele>336.3</ele>
        <time>2015-04-05T15:41:09Z</time>
      </trkpt>
      <trkpt lat="44.00572" lon="2.69841">
        <ele>335</ele>
        <time>2015-04-05T15:41:11Z</time>
      </trkpt>
      <trkpt lat="44.00573" lon="2.69861">
        <ele>334.5</ele>
        <time>2015-04-05T15:41:13Z</time>
      </trkpt>
      <trkpt lat="44.00574" lon="2.6988">
        <ele>333.8</ele>
        <time>2015-04-05T15:41:15Z</time>
      </trkpt>
      <trkpt lat="44.00578" lon="2.69899">
        <ele>332.6</ele>
        <time>2015-04-05T15:41:17Z</time>
      </trkpt>
      <trkpt lat="44.00585" lon="2.69922">
        <ele>329.8</ele>
        <time>2015-04-05T15:41:19Z</time>
      </trkpt>
      <trkpt lat="44.00598" lon="2.69937">
        <ele>327.4</ele>
        <time>2015-04-05T15:41:21Z</time>
      </trkpt>
      <trkpt lat="44.00614" lon="2.69948">
        <ele>324.9</ele>
        <time>2015-04-05T15:41:23Z</time>
      </trkpt>
      <trkpt lat="44.00622" lon="2.69954">
        <ele>323.8</ele>
        <time>2015-04-05T15:41:24Z</time>
      </trkpt>
      <trkpt lat="44.0063" lon="2.6996">
        <ele>322.8</ele>
        <time>2015-04-05T15:41:25Z</time>
      </trkpt>
      <trkpt lat="44.00639" lon="2.69966">
        <ele>321.9</ele>
        <time>2015-04-05T15:41:26Z</time>
      </trkpt>
      <trkpt lat="44.00648" lon="2.69972">
        <ele>321.1</ele>
        <time>2015-04-05T15:41:27Z</time>
      </trkpt>
      <trkpt lat="44.00656" lon="2.69979">
        <ele>320</ele>
        <time>2015-04-05T15:41:28Z</time>
      </trkpt>
      <trkpt lat="44.00664" lon="2.69988">
        <ele>319</ele>
        <time>2015-04-05T15:41:29Z</time>
      </trkpt>
      <trkpt lat="44.00672" lon="2.69998">
        <ele>318.2</ele>
        <time>2015-04-05T15:41:30Z</time>
      </trkpt>
      <trkpt lat="44.00679" lon="2.70008">
        <ele>317.5</ele>
        <time>2015-04-05T15:41:31Z</time>
      </trkpt>
      <trkpt lat="44.00687" lon="2.70018">
        <ele>316.9</ele>
        <time>2015-04-05T15:41:32Z</time>
      </trkpt>
      <trkpt lat="44.00696" lon="2.70025">
        <ele>316</ele>
        <time>2015-04-05T15:41:33Z</time>
      </trkpt>
      <trkpt lat="44.00705" lon="2.70028">
        <ele>315.3</ele>
        <time>2015-04-05T15:41:34Z</time>
      </trkpt>
      <trkpt lat="44.00716" lon="2.70031">
        <ele>314.7</ele>
        <time>2015-04-05T15:41:35Z</time>
      </trkpt>
      <trkpt lat="44.00727" lon="2.70033">
        <ele>313.8</ele>
        <time>2015-04-05T15:41:36Z</time>
      </trkpt>
      <trkpt lat="44.00738" lon="2.70034">
        <ele>313</ele>
        <time>2015-04-05T15:41:37Z</time>
      </trkpt>
      <trkpt lat="44.0075" lon="2.70036">
        <ele>312.2</ele>
        <time>2015-04-05T15:41:38Z</time>
      </trkpt>
      <trkpt lat="44.00761" lon="2.70037">
        <ele>311.7</ele>
        <time>2015-04-05T15:41:39Z</time>
      </trkpt>
      <trkpt lat="44.00773" lon="2.70038">
        <ele>310.5</ele>
        <time>2015-04-05T15:41:40Z</time>
      </trkpt>
      <trkpt lat="44.00785" lon="2.70037">
        <ele>309.5</ele>
        <time>2015-04-05T15:41:41Z</time>
      </trkpt>
      <trkpt lat="44.00796" lon="2.70035">
        <ele>308.3</ele>
        <time>2015-04-05T15:41:42Z</time>
      </trkpt>
      <trkpt lat="44.00807" lon="2.70031">
        <ele>307.4</ele>
        <time>2015-04-05T15:41:43Z</time>
      </trkpt>
      <trkpt lat="44.00817" lon="2.70023">
        <ele>306.7</ele>
        <time>2015-04-05T15:41:44Z</time>
      </trkpt>
      <trkpt lat="44.00827" lon="2.70015">
        <ele>305.9</ele>
        <time>2015-04-05T15:41:45Z</time>
      </trkpt>
      <trkpt lat="44.00836" lon="2.70006">
        <ele>305.4</ele>
        <time>2015-04-05T15:41:46Z</time>
      </trkpt>
      <trkpt lat="44.00844" lon="2.69998">
        <ele>304.6</ele>
        <time>2015-04-05T15:41:47Z</time>
      </trkpt>
      <trkpt lat="44.00856" lon="2.6999">
        <ele>303.2</ele>
        <time>2015-04-05T15:41:49Z</time>
      </trkpt>
      <trkpt lat="44.00867" lon="2.69998">
        <ele>301.7</ele>
        <time>2015-04-05T15:41:52Z</time>
      </trkpt>
      <trkpt lat="44.00867" lon="2.70014">
        <ele>300.8</ele>
        <time>2015-04-05T15:41:53Z</time>
      </trkpt>
      <trkpt lat="44.00865" lon="2.70026">
        <ele>300</ele>
        <time>2015-04-05T15:41:54Z</time>
      </trkpt>
      <trkpt lat="44.0086" lon="2.70038">
        <ele>299.1</ele>
        <time>2015-04-05T15:41:55Z</time>
      </trkpt>
      <trkpt lat="44.00855" lon="2.7005">
        <ele>298.2</ele>
        <time>2015-04-05T15:41:56Z</time>
      </trkpt>
      <trkpt lat="44.0085" lon="2.70063">
        <ele>297.1</ele>
        <time>2015-04-05T15:41:57Z</time>
      </trkpt>
      <trkpt lat="44.00843" lon="2.70075">
        <ele>296.1</ele>
        <time>2015-04-05T15:41:58Z</time>
      </trkpt>
      <trkpt lat="44.00836" lon="2.70087">
        <ele>294.8</ele>
        <time>2015-04-05T15:41:59Z</time>
      </trkpt>
      <trkpt lat="44.00828" lon="2.70098">
        <ele>293.7</ele>
        <time>2015-04-05T15:42:00Z</time>
      </trkpt>
      <trkpt lat="44.00819" lon="2.70108">
        <ele>293.1</ele>
        <time>2015-04-05T15:42:01Z</time>
      </trkpt>
      <trkpt lat="44.0081" lon="2.70116">
        <ele>292.4</ele>
        <time>2015-04-05T15:42:02Z</time>
      </trkpt>
      <trkpt lat="44.00799" lon="2.70122">
        <ele>291.5</ele>
        <time>2015-04-05T15:42:03Z</time>
      </trkpt>
      <trkpt lat="44.00788" lon="2.70127">
        <ele>290.6</ele>
        <time>2015-04-05T15:42:04Z</time>
      </trkpt>
      <trkpt lat="44.00776" lon="2.70131">
        <ele>289.7</ele>
        <time>2015-04-05T15:42:05Z</time>
      </trkpt>
      <trkpt lat="44.00765" lon="2.70135">
        <ele>288.9</ele>
        <time>2015-04-05T15:42:06Z</time>
      </trkpt>
      <trkpt lat="44.00753" lon="2.70138">
        <ele>287.9</ele>
        <time>2015-04-05T15:42:07Z</time>
      </trkpt>
      <trkpt lat="44.0074" lon="2.7014">
        <ele>286.8</ele>
        <time>2015-04-05T15:42:08Z</time>
      </trkpt>
      <trkpt lat="44.00728" lon="2.7014">
        <ele>285.8</ele>
        <time>2015-04-05T15:42:09Z</time>
      </trkpt>
      <trkpt lat="44.00715" lon="2.70139">
        <ele>284.8</ele>
        <time>2015-04-05T15:42:10Z</time>
      </trkpt>
      <trkpt lat="44.00703" lon="2.7014">
        <ele>284.1</ele>
        <time>2015-04-05T15:42:11Z</time>
      </trkpt>
      <trkpt lat="44.0069" lon="2.70143">
        <ele>283.5</ele>
        <time>2015-04-05T15:42:12Z</time>
      </trkpt>
      <trkpt lat="44.00679" lon="2.7015">
        <ele>282.9</ele>
        <time>2015-04-05T15:42:13Z</time>
      </trkpt>
      <trkpt lat="44.00667" lon="2.70158">
        <ele>282.1</ele>
        <time>2015-04-05T15:42:14Z</time>
      </trkpt>
      <trkpt lat="44.00657" lon="2.70169">
        <ele>281.2</ele>
        <time>2015-04-05T15:42:15Z</time>
      </trkpt>
      <trkpt lat="44.00647" lon="2.70182">
        <ele>280.4</ele>
        <time>2015-04-05T15:42:16Z</time>
      </trkpt>
      <trkpt lat="44.00637" lon="2.70195">
        <ele>279.6</ele>
        <time>2015-04-05T15:42:17Z</time>
      </trkpt>
      <trkpt lat="44.00627" lon="2.70208">
        <ele>278.8</ele>
        <time>2015-04-05T15:42:18Z</time>
      </trkpt>
      <trkpt lat="44.00618" lon="2.70222">
        <ele>278.2</ele>
        <time>2015-04-05T15:42:19Z</time>
      </trkpt>
      <trkpt lat="44.00609" lon="2.70236">
        <ele>277.2</ele>
        <time>2015-04-05T15:42:20Z</time>
      </trkpt>
      <trkpt lat="44.006" lon="2.7025">
        <ele>276</ele>
        <time>2015-04-05T15:42:21Z</time>
      </trkpt>
      <trkpt lat="44.00591" lon="2.70264">
        <ele>275.1</ele>
        <time>2015-04-05T15:42:22Z</time>
      </trkpt>
      <trkpt lat="44.00581" lon="2.70278">
        <ele>274.3</ele>
        <time>2015-04-05T15:42:23Z</time>
      </trkpt>
      <trkpt lat="44.00572" lon="2.70292">
        <ele>273.1</ele>
        <time>2015-04-05T15:42:24Z</time>
      </trkpt>
      <trkpt lat="44.00562" lon="2.70306">
        <ele>272.1</ele>
        <time>2015-04-05T15:42:25Z</time>
      </trkpt>
      <trkpt lat="44.00553" lon="2.7032">
        <ele>271.2</ele>
        <time>2015-04-05T15:42:26Z</time>
      </trkpt>
      <trkpt lat="44.00544" lon="2.70335">
        <ele>270</ele>
        <time>2015-04-05T15:42:27Z</time>
      </trkpt>
      <trkpt lat="44.00535" lon="2.7035">
        <ele>268.8</ele>
        <time>2015-04-05T15:42:28Z</time>
      </trkpt>
      <trkpt lat="44.00526" lon="2.70365">
        <ele>267.3</ele>
        <time>2015-04-05T15:42:29Z</time>
      </trkpt>
      <trkpt lat="44.00518" lon="2.70381">
        <ele>265.7</ele>
        <time>2015-04-05T15:42:30Z</time>
      </trkpt>
      <trkpt lat="44.0051" lon="2.70397">
        <ele>263.8</ele>
        <time>2015-04-05T15:42:31Z</time>
      </trkpt>
      <trkpt lat="44.00502" lon="2.70412">
        <ele>262.3</ele>
        <time>2015-04-05T15:42:32Z</time>
      </trkpt>
      <trkpt lat="44.00494" lon="2.70427">
        <ele>261</ele>
        <time>2015-04-05T15:42:33Z</time>
      </trkpt>
      <trkpt lat="44.00489" lon="2.70443">
        <ele>259.9</ele>
        <time>2015-04-05T15:42:34Z</time>
      </trkpt>
      <trkpt lat="44.00485" lon="2.70461">
        <ele>258.7</ele>
        <time>2015-04-05T15:42:35Z</time>
      </trkpt>
      <trkpt lat="44.00484" lon="2.70479">
        <ele>257.9</ele>
        <time>2015-04-05T15:42:36Z</time>
      </trkpt>
      <trkpt lat="44.00484" lon="2.70497">
        <ele>257.3</ele>
        <time>2015-04-05T15:42:37Z</time>
      </trkpt>
      <trkpt lat="44.00486" lon="2.70512">
        <ele>256.5</ele>
        <time>2015-04-05T15:42:38Z</time>
      </trkpt>
      <trkpt lat="44.00489" lon="2.70525">
        <ele>255.7</ele>
        <time>2015-04-05T15:42:39Z</time>
      </trkpt>
      <trkpt lat="44.00495" lon="2.70546">
        <ele>254.6</ele>
        <time>2015-04-05T15:42:41Z</time>
      </trkpt>
      <trkpt lat="44.00499" lon="2.70567">
        <ele>253.5</ele>
        <time>2015-04-05T15:42:43Z</time>
      </trkpt>
      <trkpt lat="44.00506" lon="2.70587">
        <ele>252.6</ele>
        <time>2015-04-05T15:42:45Z</time>
      </trkpt>
      <trkpt lat="44.00512" lon="2.70603">
        <ele>252.8</ele>
        <time>2015-04-05T15:42:47Z</time>
      </trkpt>
      <trkpt lat="44.00522" lon="2.70622">
        <ele>252.1</ele>
        <time>2015-04-05T15:42:49Z</time>
      </trkpt>
      <trkpt lat="44.00532" lon="2.70641">
        <ele>250.8</ele>
        <time>2015-04-05T15:42:51Z</time>
      </trkpt>
      <trkpt lat="44.00545" lon="2.70655">
        <ele>249.8</ele>
        <time>2015-04-05T15:42:53Z</time>
      </trkpt>
      <trkpt lat="44.00554" lon="2.70659">
        <ele>249.1</ele>
        <time>2015-04-05T15:42:54Z</time>
      </trkpt>
      <trkpt lat="44.00563" lon="2.70661">
        <ele>248.8</ele>
        <time>2015-04-05T15:42:55Z</time>
      </trkpt>
      <trkpt lat="44.00572" lon="2.70663">
        <ele>248.2</ele>
        <time>2015-04-05T15:42:56Z</time>
      </trkpt>
      <trkpt lat="44.00582" lon="2.70667">
        <ele>248</ele>
        <time>2015-04-05T15:42:57Z</time>
      </trkpt>
      <trkpt lat="44.00591" lon="2.70673">
        <ele>247.8</ele>
        <time>2015-04-05T15:42:58Z</time>
      </trkpt>
      <trkpt lat="44.00598" lon="2.70683">
        <ele>247.5</ele>
        <time>2015-04-05T15:42:59Z</time>
      </trkpt>
      <trkpt lat="44.00604" lon="2.70694">
        <ele>247.1</ele>
        <time>2015-04-05T15:43:00Z</time>
      </trkpt>
      <trkpt lat="44.00609" lon="2.70706">
        <ele>246.8</ele>
        <time>2015-04-05T15:43:01Z</time>
      </trkpt>
      <trkpt lat="44.00614" lon="2.70718">
        <ele>246.4</ele>
        <time>2015-04-05T15:43:02Z</time>
      </trkpt>
      <trkpt lat="44.0062" lon="2.70731">
        <ele>245.9</ele>
        <time>2015-04-05T15:43:03Z</time>
      </trkpt>
      <trkpt lat="44.00625" lon="2.70743">
        <ele>245.8</ele>
        <time>2015-04-05T15:43:04Z</time>
      </trkpt>
      <trkpt lat="44.00631" lon="2.70755">
        <ele>245.2</ele>
        <time>2015-04-05T15:43:05Z</time>
      </trkpt>
      <trkpt lat="44.00637" lon="2.70767">
        <ele>245.1</ele>
        <time>2015-04-05T15:43:06Z</time>
      </trkpt>
      <trkpt lat="44.00644" lon="2.70778">
        <ele>244.7</ele>
        <time>2015-04-05T15:43:07Z</time>
      </trkpt>
      <trkpt lat="44.00652" lon="2.70788">
        <ele>243.5</ele>
        <time>2015-04-05T15:43:08Z</time>
      </trkpt>
      <trkpt lat="44.0066" lon="2.70797">
        <ele>242.8</ele>
        <time>2015-04-05T15:43:09Z</time>
      </trkpt>
      <trkpt lat="44.00668" lon="2.70807">
        <ele>242.1</ele>
        <time>2015-04-05T15:43:10Z</time>
      </trkpt>
      <trkpt lat="44.00675" lon="2.70818">
        <ele>241.8</ele>
        <time>2015-04-05T15:43:11Z</time>
      </trkpt>
      <trkpt lat="44.00682" lon="2.70831">
        <ele>241.3</ele>
        <time>2015-04-05T15:43:12Z</time>
      </trkpt>
      <trkpt lat="44.00687" lon="2.70844">
        <ele>241</ele>
        <time>2015-04-05T15:43:13Z</time>
      </trkpt>
      <trkpt lat="44.00693" lon="2.70857">
        <ele>240.4</ele>
        <time>2015-04-05T15:43:14Z</time>
      </trkpt>
      <trkpt lat="44.007" lon="2.70869">
        <ele>239.8</ele>
        <time>2015-04-05T15:43:15Z</time>
      </trkpt>
      <trkpt lat="44.00708" lon="2.70879">
        <ele>239.1</ele>
        <time>2015-04-05T15:43:16Z</time>
      </trkpt>
      <trkpt lat="44.00718" lon="2.70888">
        <ele>238.5</ele>
        <time>2015-04-05T15:43:17Z</time>
      </trkpt>
      <trkpt lat="44.00727" lon="2.70895">
        <ele>237.8</ele>
        <time>2015-04-05T15:43:18Z</time>
      </trkpt>
      <trkpt lat="44.00738" lon="2.70902">
        <ele>237.3</ele>
        <time>2015-04-05T15:43:19Z</time>
      </trkpt>
      <trkpt lat="44.00748" lon="2.70908">
        <ele>236.7</ele>
        <time>2015-04-05T15:43:20Z</time>
      </trkpt>
      <trkpt lat="44.00759" lon="2.70915">
        <ele>236</ele>
        <time>2015-04-05T15:43:21Z</time>
      </trkpt>
      <trkpt lat="44.00769" lon="2.70923">
        <ele>235.3</ele>
        <time>2015-04-05T15:43:22Z</time>
      </trkpt>
      <trkpt lat="44.00779" lon="2.7093">
        <ele>234.8</ele>
        <time>2015-04-05T15:43:23Z</time>
      </trkpt>
      <trkpt lat="44.00789" lon="2.70936">
        <ele>234.4</ele>
        <time>2015-04-05T15:43:24Z</time>
      </trkpt>
      <trkpt lat="44.008" lon="2.70944">
        <ele>233.8</ele>
        <time>2015-04-05T15:43:25Z</time>
      </trkpt>
      <trkpt lat="44.0081" lon="2.70952">
        <ele>233.1</ele>
        <time>2015-04-05T15:43:26Z</time>
      </trkpt>
      <trkpt lat="44.0082" lon="2.70961">
        <ele>232.6</ele>
        <time>2015-04-05T15:43:27Z</time>
      </trkpt>
      <trkpt lat="44.0083" lon="2.7097">
        <ele>232.1</ele>
        <time>2015-04-05T15:43:28Z</time>
      </trkpt>
      <trkpt lat="44.00841" lon="2.70978">
        <ele>231.2</ele>
        <time>2015-04-05T15:43:29Z</time>
      </trkpt>
      <trkpt lat="44.00851" lon="2.70986">
        <ele>230.5</ele>
        <time>2015-04-05T15:43:30Z</time>
      </trkpt>
      <trkpt lat="44.00861" lon="2.70996">
        <ele>229.9</ele>
        <time>2015-04-05T15:43:31Z</time>
      </trkpt>
      <trkpt lat="44.00871" lon="2.71006">
        <ele>229</ele>
        <time>2015-04-05T15:43:32Z</time>
      </trkpt>
      <trkpt lat="44.00881" lon="2.71015">
        <ele>228.2</ele>
        <time>2015-04-05T15:43:33Z</time>
      </trkpt>
      <trkpt lat="44.00891" lon="2.71024">
        <ele>227.5</ele>
        <time>2015-04-05T15:43:34Z</time>
      </trkpt>
      <trkpt lat="44.00902" lon="2.71031">
        <ele>226.8</ele>
        <time>2015-04-05T15:43:35Z</time>
      </trkpt>
      <trkpt lat="44.00914" lon="2.71037">
        <ele>226.1</ele>
        <time>2015-04-05T15:43:36Z</time>
      </trkpt>
      <trkpt lat="44.00925" lon="2.71043">
        <ele>225.4</ele>
        <time>2015-04-05T15:43:37Z</time>
      </trkpt>
      <trkpt lat="44.00937" lon="2.71049">
        <ele>224.7</ele>
        <time>2015-04-05T15:43:38Z</time>
      </trkpt>
      <trkpt lat="44.00948" lon="2.71054">
        <ele>224.1</ele>
        <time>2015-04-05T15:43:39Z</time>
      </trkpt>
      <trkpt lat="44.0096" lon="2.71059">
        <ele>223.5</ele>
        <time>2015-04-05T15:43:40Z</time>
      </trkpt>
      <trkpt lat="44.00971" lon="2.71064">
        <ele>222.9</ele>
        <time>2015-04-05T15:43:41Z</time>
      </trkpt>
      <trkpt lat="44.00981" lon="2.71071">
        <ele>222.5</ele>
        <time>2015-04-05T15:43:42Z</time>
      </trkpt>
      <trkpt lat="44.00988" lon="2.71081">
        <ele>222.1</ele>
        <time>2015-04-05T15:43:43Z</time>
      </trkpt>
      <trkpt lat="44.00993" lon="2.71095">
        <ele>221.4</ele>
        <time>2015-04-05T15:43:44Z</time>
      </trkpt>
      <trkpt lat="44.00997" lon="2.71108">
        <ele>221.2</ele>
        <time>2015-04-05T15:43:45Z</time>
      </trkpt>
      <trkpt lat="44.00999" lon="2.71122">
        <ele>220.8</ele>
        <time>2015-04-05T15:43:46Z</time>
      </trkpt>
      <trkpt lat="44.01009" lon="2.71143">
        <ele>218.5</ele>
        <time>2015-04-05T15:43:48Z</time>
      </trkpt>
      <trkpt lat="44.01016" lon="2.7115">
        <ele>217.6</ele>
        <time>2015-04-05T15:43:49Z</time>
      </trkpt>
      <trkpt lat="44.01026" lon="2.71154">
        <ele>216.4</ele>
        <time>2015-04-05T15:43:50Z</time>
      </trkpt>
      <trkpt lat="44.01036" lon="2.71154">
        <ele>215.5</ele>
        <time>2015-04-05T15:43:51Z</time>
      </trkpt>
      <trkpt lat="44.01045" lon="2.71152">
        <ele>214.8</ele>
        <time>2015-04-05T15:43:52Z</time>
      </trkpt>
      <trkpt lat="44.01061" lon="2.71142">
        <ele>213.5</ele>
        <time>2015-04-05T15:43:54Z</time>
      </trkpt>
      <trkpt lat="44.01077" lon="2.71133">
        <ele>212.3</ele>
        <time>2015-04-05T15:43:56Z</time>
      </trkpt>
      <trkpt lat="44.01086" lon="2.71131">
        <ele>211.6</ele>
        <time>2015-04-05T15:43:57Z</time>
      </trkpt>
      <trkpt lat="44.01096" lon="2.7113">
        <ele>210.9</ele>
        <time>2015-04-05T15:43:58Z</time>
      </trkpt>
      <trkpt lat="44.01105" lon="2.71132">
        <ele>210.3</ele>
        <time>2015-04-05T15:43:59Z</time>
      </trkpt>
      <trkpt lat="44.01114" lon="2.71137">
        <ele>209.9</ele>
        <time>2015-04-05T15:44:00Z</time>
      </trkpt>
      <trkpt lat="44.01122" lon="2.71142">
        <ele>209.3</ele>
        <time>2015-04-05T15:44:01Z</time>
      </trkpt>
      <trkpt lat="44.01131" lon="2.71147">
        <ele>208.9</ele>
        <time>2015-04-05T15:44:02Z</time>
      </trkpt>
      <trkpt lat="44.0114" lon="2.71151">
        <ele>208.5</ele>
        <time>2015-04-05T15:44:03Z</time>
      </trkpt>
      <trkpt lat="44.01149" lon="2.71156">
        <ele>208</ele>
        <time>2015-04-05T15:44:04Z</time>
      </trkpt>
      <trkpt lat="44.01158" lon="2.7116">
        <ele>207.4</ele>
        <time>2015-04-05T15:44:05Z</time>
      </trkpt>
      <trkpt lat="44.01167" lon="2.71165">
        <ele>206.9</ele>
        <time>2015-04-05T15:44:06Z</time>
      </trkpt>
      <trkpt lat="44.01176" lon="2.7117">
        <ele>206.4</ele>
        <time>2015-04-05T15:44:07Z</time>
      </trkpt>
      <trkpt lat="44.01185" lon="2.71174">
        <ele>206</ele>
        <time>2015-04-05T15:44:08Z</time>
      </trkpt>
      <trkpt lat="44.01194" lon="2.71179">
        <ele>205.5</ele>
        <time>2015-04-05T15:44:09Z</time>
      </trkpt>
      <trkpt lat="44.01203" lon="2.71184">
        <ele>205</ele>
        <time>2015-04-05T15:44:10Z</time>
      </trkpt>
      <trkpt lat="44.01212" lon="2.71189">
        <ele>204.7</ele>
        <time>2015-04-05T15:44:11Z</time>
      </trkpt>
      <trkpt lat="44.01222" lon="2.71195">
        <ele>204.5</ele>
        <time>2015-04-05T15:44:12Z</time>
      </trkpt>
      <trkpt lat="44.01231" lon="2.712">
        <ele>204.1</ele>
        <time>2015-04-05T15:44:13Z</time>
      </trkpt>
      <trkpt lat="44.01241" lon="2.71206">
        <ele>203.6</ele>
        <time>2015-04-05T15:44:14Z</time>
      </trkpt>
      <trkpt lat="44.01251" lon="2.71212">
        <ele>203.1</ele>
        <time>2015-04-05T15:44:15Z</time>
      </trkpt>
      <trkpt lat="44.01261" lon="2.71217">
        <ele>202.7</ele>
        <time>2015-04-05T15:44:16Z</time>
      </trkpt>
      <trkpt lat="44.01271" lon="2.71223">
        <ele>202.3</ele>
        <time>2015-04-05T15:44:17Z</time>
      </trkpt>
      <trkpt lat="44.01281" lon="2.71227">
        <ele>201.8</ele>
        <time>2015-04-05T15:44:18Z</time>
      </trkpt>
      <trkpt lat="44.01291" lon="2.71232">
        <ele>201.3</ele>
        <time>2015-04-05T15:44:19Z</time>
      </trkpt>
      <trkpt lat="44.01301" lon="2.71236">
        <ele>200.8</ele>
        <time>2015-04-05T15:44:20Z</time>
      </trkpt>
      <trkpt lat="44.0131" lon="2.71238">
        <ele>200.7</ele>
        <time>2015-04-05T15:44:21Z</time>
      </trkpt>
      <trkpt lat="44.0132" lon="2.71239">
        <ele>200.8</ele>
        <time>2015-04-05T15:44:22Z</time>
      </trkpt>
      <trkpt lat="44.01329" lon="2.71241">
        <ele>200.8</ele>
        <time>2015-04-05T15:44:23Z</time>
      </trkpt>
      <trkpt lat="44.01339" lon="2.71242">
        <ele>201</ele>
        <time>2015-04-05T15:44:24Z</time>
      </trkpt>
      <trkpt lat="44.01348" lon="2.71242">
        <ele>200.9</ele>
        <time>2015-04-05T15:44:25Z</time>
      </trkpt>
      <trkpt lat="44.01365" lon="2.7124">
        <ele>200.8</ele>
        <time>2015-04-05T15:44:27Z</time>
      </trkpt>
      <trkpt lat="44.01381" lon="2.71237">
        <ele>200.8</ele>
        <time>2015-04-05T15:44:29Z</time>
      </trkpt>
      <trkpt lat="44.01396" lon="2.71232">
        <ele>200.9</ele>
        <time>2015-04-05T15:44:31Z</time>
      </trkpt>
      <trkpt lat="44.0141" lon="2.71228">
        <ele>201.1</ele>
        <time>2015-04-05T15:44:33Z</time>
      </trkpt>
      <trkpt lat="44.01422" lon="2.71225">
        <ele>201.9</ele>
        <time>2015-04-05T15:44:35Z</time>
      </trkpt>
      <trkpt lat="44.01434" lon="2.71221">
        <ele>202.2</ele>
        <time>2015-04-05T15:44:37Z</time>
      </trkpt>
      <trkpt lat="44.01444" lon="2.71218">
        <ele>202</ele>
        <time>2015-04-05T15:44:39Z</time>
      </trkpt>
      <trkpt lat="44.01454" lon="2.71217">
        <ele>202.3</ele>
        <time>2015-04-05T15:44:41Z</time>
      </trkpt>
      <trkpt lat="44.01464" lon="2.71216">
        <ele>203.6</ele>
        <time>2015-04-05T15:44:43Z</time>
      </trkpt>
      <trkpt lat="44.01474" lon="2.71215">
        <ele>205.2</ele>
        <time>2015-04-05T15:44:45Z</time>
      </trkpt>
      <trkpt lat="44.01484" lon="2.71216">
        <ele>206.8</ele>
        <time>2015-04-05T15:44:47Z</time>
      </trkpt>
      <trkpt lat="44.01494" lon="2.71218">
        <ele>208</ele>
        <time>2015-04-05T15:44:49Z</time>
      </trkpt>
      <trkpt lat="44.01505" lon="2.71219">
        <ele>209.9</ele>
        <time>2015-04-05T15:44:51Z</time>
      </trkpt>
      <trkpt lat="44.01518" lon="2.7122">
        <ele>209.3</ele>
        <time>2015-04-05T15:44:53Z</time>
      </trkpt>
      <trkpt lat="44.0153" lon="2.71219">
        <ele>210.1</ele>
        <time>2015-04-05T15:44:55Z</time>
      </trkpt>
      <trkpt lat="44.01544" lon="2.71221">
        <ele>209.7</ele>
        <time>2015-04-05T15:44:57Z</time>
      </trkpt>
      <trkpt lat="44.01558" lon="2.7122">
        <ele>208.7</ele>
        <time>2015-04-05T15:44:59Z</time>
      </trkpt>
      <trkpt lat="44.0157" lon="2.71219">
        <ele>209.4</ele>
        <time>2015-04-05T15:45:01Z</time>
      </trkpt>
      <trkpt lat="44.01581" lon="2.7122">
        <ele>211.5</ele>
        <time>2015-04-05T15:45:03Z</time>
      </trkpt>
      <trkpt lat="44.01593" lon="2.71221">
        <ele>211</ele>
        <time>2015-04-05T15:45:05Z</time>
      </trkpt>
      <trkpt lat="44.01604" lon="2.71219">
        <ele>209.8</ele>
        <time>2015-04-05T15:45:07Z</time>
      </trkpt>
      <trkpt lat="44.01613" lon="2.71215">
        <ele>210.3</ele>
        <time>2015-04-05T15:45:09Z</time>
      </trkpt>
      <trkpt lat="44.01623" lon="2.71207">
        <ele>210.8</ele>
        <time>2015-04-05T15:45:12Z</time>
      </trkpt>
      <trkpt lat="44.01632" lon="2.71199">
        <ele>211</ele>
        <time>2015-04-05T15:45:16Z</time>
      </trkpt>
      <trkpt lat="44.01638" lon="2.71189">
        <ele>210.8</ele>
        <time>2015-04-05T15:45:20Z</time>
      </trkpt>
      <trkpt lat="44.01642" lon="2.71177">
        <ele>210.9</ele>
        <time>2015-04-05T15:45:25Z</time>
      </trkpt>
      <trkpt lat="44.01646" lon="2.71164">
        <ele>212.5</ele>
        <time>2015-04-05T15:45:30Z</time>
      </trkpt>
      <trkpt lat="44.01653" lon="2.71154">
        <ele>214.3</ele>
        <time>2015-04-05T15:45:35Z</time>
      </trkpt>
      <trkpt lat="44.01656" lon="2.71141">
        <ele>216.5</ele>
        <time>2015-04-05T15:45:41Z</time>
      </trkpt>
      <trkpt lat="44.01661" lon="2.7113">
        <ele>219.6</ele>
        <time>2015-04-05T15:45:49Z</time>
      </trkpt>
      <trkpt lat="44.01669" lon="2.71124">
        <ele>224</ele>
        <time>2015-04-05T15:46:02Z</time>
      </trkpt>
      <trkpt lat="44.01679" lon="2.71114">
        <ele>226.3</ele>
        <time>2015-04-05T15:46:08Z</time>
      </trkpt>
      <trkpt lat="44.01684" lon="2.71125">
        <ele>229.2</ele>
        <time>2015-04-05T15:46:16Z</time>
      </trkpt>
      <trkpt lat="44.01684" lon="2.71139">
        <ele>229.8</ele>
        <time>2015-04-05T15:46:23Z</time>
      </trkpt>
      <trkpt lat="44.01683" lon="2.71152">
        <ele>229.4</ele>
        <time>2015-04-05T15:46:29Z</time>
      </trkpt>
      <trkpt lat="44.01683" lon="2.71167">
        <ele>228.5</ele>
        <time>2015-04-05T15:46:35Z</time>
      </trkpt>
      <trkpt lat="44.01687" lon="2.7118">
        <ele>229</ele>
        <time>2015-04-05T15:46:41Z</time>
      </trkpt>
      <trkpt lat="44.01692" lon="2.71191">
        <ele>228.8</ele>
        <time>2015-04-05T15:46:45Z</time>
      </trkpt>
      <trkpt lat="44.01699" lon="2.71201">
        <ele>227.9</ele>
        <time>2015-04-05T15:46:52Z</time>
      </trkpt>
      <trkpt lat="44.01709" lon="2.71206">
        <ele>226.4</ele>
        <time>2015-04-05T15:46:58Z</time>
      </trkpt>
      <trkpt lat="44.01719" lon="2.71208">
        <ele>226</ele>
        <time>2015-04-05T15:47:04Z</time>
      </trkpt>
      <trkpt lat="44.0173" lon="2.71209">
        <ele>225.2</ele>
        <time>2015-04-05T15:47:10Z</time>
      </trkpt>
      <trkpt lat="44.0174" lon="2.71211">
        <ele>226</ele>
        <time>2015-04-05T15:47:16Z</time>
      </trkpt>
      <trkpt lat="44.01749" lon="2.71217">
        <ele>228.1</ele>
        <time>2015-04-05T15:47:22Z</time>
      </trkpt>
      <trkpt lat="44.01761" lon="2.71223">
        <ele>228.4</ele>
        <time>2015-04-05T15:50:28Z</time>
      </trkpt>
      <trkpt lat="44.0177" lon="2.71216">
        <ele>227.2</ele>
        <time>2015-04-05T15:53:14Z</time>
      </trkpt>
      <trkpt lat="44.0178" lon="2.71216">
        <ele>228</ele>
        <time>2015-04-05T15:53:22Z</time>
      </trkpt>
      <trkpt lat="44.01789" lon="2.71217">
        <ele>229.4</ele>
        <time>2015-04-05T15:53:29Z</time>
      </trkpt>
      <trkpt lat="44.01798" lon="2.71219">
        <ele>230.6</ele>
        <time>2015-04-05T15:53:36Z</time>
      </trkpt>
      <trkpt lat="44.01809" lon="2.71219">
        <ele>231.3</ele>
        <time>2015-04-05T15:53:43Z</time>
      </trkpt>
      <trkpt lat="44.01818" lon="2.71221">
        <ele>233.2</ele>
        <time>2015-04-05T15:53:50Z</time>
      </trkpt>
      <trkpt lat="44.01827" lon="2.71223">
        <ele>235.8</ele>
        <time>2015-04-05T15:53:57Z</time>
      </trkpt>
      <trkpt lat="44.01836" lon="2.71225">
        <ele>240</ele>
        <time>2015-04-05T15:54:05Z</time>
      </trkpt>
      <trkpt lat="44.01845" lon="2.71228">
        <ele>241.5</ele>
        <time>2015-04-05T15:54:11Z</time>
      </trkpt>
      <trkpt lat="44.01854" lon="2.71235">
        <ele>242.8</ele>
        <time>2015-04-05T15:54:19Z</time>
      </trkpt>
      <trkpt lat="44.01862" lon="2.71242">
        <ele>244.3</ele>
        <time>2015-04-05T15:54:26Z</time>
      </trkpt>
      <trkpt lat="44.0187" lon="2.7125">
        <ele>245.8</ele>
        <time>2015-04-05T15:54:32Z</time>
      </trkpt>
      <trkpt lat="44.01878" lon="2.71259">
        <ele>247.2</ele>
        <time>2015-04-05T15:54:38Z</time>
      </trkpt>
      <trkpt lat="44.01887" lon="2.71269">
        <ele>247.3</ele>
        <time>2015-04-05T15:54:43Z</time>
      </trkpt>
      <trkpt lat="44.01896" lon="2.71278">
        <ele>247.5</ele>
        <time>2015-04-05T15:54:47Z</time>
      </trkpt>
      <trkpt lat="44.01905" lon="2.71287">
        <ele>246.7</ele>
        <time>2015-04-05T15:54:50Z</time>
      </trkpt>
      <trkpt lat="44.01915" lon="2.71297">
        <ele>246.2</ele>
        <time>2015-04-05T15:54:53Z</time>
      </trkpt>
      <trkpt lat="44.01922" lon="2.71304">
        <ele>246</ele>
        <time>2015-04-05T15:54:55Z</time>
      </trkpt>
      <trkpt lat="44.01933" lon="2.71309">
        <ele>243.4</ele>
        <time>2015-04-05T15:54:57Z</time>
      </trkpt>
      <trkpt lat="44.01944" lon="2.71309">
        <ele>242.2</ele>
        <time>2015-04-05T15:54:59Z</time>
      </trkpt>
      <trkpt lat="44.01956" lon="2.71303">
        <ele>241.1</ele>
        <time>2015-04-05T15:55:01Z</time>
      </trkpt>
      <trkpt lat="44.01968" lon="2.71295">
        <ele>240.3</ele>
        <time>2015-04-05T15:55:03Z</time>
      </trkpt>
      <trkpt lat="44.01985" lon="2.71291">
        <ele>238.8</ele>
        <time>2015-04-05T15:55:05Z</time>
      </trkpt>
      <trkpt lat="44.01998" lon="2.71304">
        <ele>238.6</ele>
        <time>2015-04-05T15:55:07Z</time>
      </trkpt>
      <trkpt lat="44.02004" lon="2.71317">
        <ele>238.5</ele>
        <time>2015-04-05T15:55:08Z</time>
      </trkpt>
      <trkpt lat="44.02007" lon="2.71329">
        <ele>238.2</ele>
        <time>2015-04-05T15:55:09Z</time>
      </trkpt>
      <trkpt lat="44.0201" lon="2.71342">
        <ele>237.6</ele>
        <time>2015-04-05T15:55:10Z</time>
      </trkpt>
      <trkpt lat="44.02015" lon="2.71353">
        <ele>237.1</ele>
        <time>2015-04-05T15:55:11Z</time>
      </trkpt>
      <trkpt lat="44.02022" lon="2.71362">
        <ele>236.7</ele>
        <time>2015-04-05T15:55:12Z</time>
      </trkpt>
      <trkpt lat="44.02031" lon="2.71369">
        <ele>236.2</ele>
        <time>2015-04-05T15:55:13Z</time>
      </trkpt>
      <trkpt lat="44.02042" lon="2.71375">
        <ele>234.3</ele>
        <time>2015-04-05T15:55:14Z</time>
      </trkpt>
      <trkpt lat="44.02054" lon="2.71381">
        <ele>232.2</ele>
        <time>2015-04-05T15:55:15Z</time>
      </trkpt>
      <trkpt lat="44.02064" lon="2.71386">
        <ele>231.1</ele>
        <time>2015-04-05T15:55:16Z</time>
      </trkpt>
      <trkpt lat="44.02073" lon="2.71392">
        <ele>230.5</ele>
        <time>2015-04-05T15:55:17Z</time>
      </trkpt>
      <trkpt lat="44.02083" lon="2.714">
        <ele>229.8</ele>
        <time>2015-04-05T15:55:18Z</time>
      </trkpt>
      <trkpt lat="44.02093" lon="2.71407">
        <ele>228.5</ele>
        <time>2015-04-05T15:55:19Z</time>
      </trkpt>
      <trkpt lat="44.02103" lon="2.71413">
        <ele>227.3</ele>
        <time>2015-04-05T15:55:20Z</time>
      </trkpt>
      <trkpt lat="44.02114" lon="2.71419">
        <ele>226.3</ele>
        <time>2015-04-05T15:55:21Z</time>
      </trkpt>
      <trkpt lat="44.02125" lon="2.71424">
        <ele>225.4</ele>
        <time>2015-04-05T15:55:22Z</time>
      </trkpt>
      <trkpt lat="44.02136" lon="2.71428">
        <ele>224.3</ele>
        <time>2015-04-05T15:55:23Z</time>
      </trkpt>
      <trkpt lat="44.02147" lon="2.71432">
        <ele>222.7</ele>
        <time>2015-04-05T15:55:24Z</time>
      </trkpt>
      <trkpt lat="44.02158" lon="2.71436">
        <ele>221.6</ele>
        <time>2015-04-05T15:55:25Z</time>
      </trkpt>
      <trkpt lat="44.0217" lon="2.71439">
        <ele>220.8</ele>
        <time>2015-04-05T15:55:26Z</time>
      </trkpt>
      <trkpt lat="44.02181" lon="2.71441">
        <ele>219.7</ele>
        <time>2015-04-05T15:55:27Z</time>
      </trkpt>
      <trkpt lat="44.02192" lon="2.71444">
        <ele>218.8</ele>
        <time>2015-04-05T15:55:28Z</time>
      </trkpt>
      <trkpt lat="44.02203" lon="2.71447">
        <ele>218</ele>
        <time>2015-04-05T15:55:29Z</time>
      </trkpt>
      <trkpt lat="44.02214" lon="2.71451">
        <ele>217.3</ele>
        <time>2015-04-05T15:55:30Z</time>
      </trkpt>
      <trkpt lat="44.02225" lon="2.71455">
        <ele>216.6</ele>
        <time>2015-04-05T15:55:31Z</time>
      </trkpt>
      <trkpt lat="44.02236" lon="2.71458">
        <ele>216</ele>
        <time>2015-04-05T15:55:32Z</time>
      </trkpt>
      <trkpt lat="44.02247" lon="2.7146">
        <ele>215.5</ele>
        <time>2015-04-05T15:55:33Z</time>
      </trkpt>
      <trkpt lat="44.02258" lon="2.71463">
        <ele>214.3</ele>
        <time>2015-04-05T15:55:34Z</time>
      </trkpt>
      <trkpt lat="44.0227" lon="2.71464">
        <ele>213.5</ele>
        <time>2015-04-05T15:55:35Z</time>
      </trkpt>
      <trkpt lat="44.02281" lon="2.71465">
        <ele>213.2</ele>
        <time>2015-04-05T15:55:36Z</time>
      </trkpt>
      <trkpt lat="44.02292" lon="2.71464">
        <ele>212.4</ele>
        <time>2015-04-05T15:55:37Z</time>
      </trkpt>
      <trkpt lat="44.02304" lon="2.71463">
        <ele>211.7</ele>
        <time>2015-04-05T15:55:38Z</time>
      </trkpt>
      <trkpt lat="44.02314" lon="2.71464">
        <ele>211.3</ele>
        <time>2015-04-05T15:55:39Z</time>
      </trkpt>
      <trkpt lat="44.02325" lon="2.71465">
        <ele>211.3</ele>
        <time>2015-04-05T15:55:40Z</time>
      </trkpt>
      <trkpt lat="44.02335" lon="2.71467">
        <ele>211</ele>
        <time>2015-04-05T15:55:41Z</time>
      </trkpt>
      <trkpt lat="44.02345" lon="2.7147">
        <ele>210.9</ele>
        <time>2015-04-05T15:55:42Z</time>
      </trkpt>
      <trkpt lat="44.02355" lon="2.71473">
        <ele>210.6</ele>
        <time>2015-04-05T15:55:43Z</time>
      </trkpt>
      <trkpt lat="44.02364" lon="2.71477">
        <ele>210.4</ele>
        <time>2015-04-05T15:55:44Z</time>
      </trkpt>
      <trkpt lat="44.02374" lon="2.71481">
        <ele>209.9</ele>
        <time>2015-04-05T15:55:45Z</time>
      </trkpt>
      <trkpt lat="44.02383" lon="2.71485">
        <ele>209.6</ele>
        <time>2015-04-05T15:55:46Z</time>
      </trkpt>
      <trkpt lat="44.02391" lon="2.7149">
        <ele>209.4</ele>
        <time>2015-04-05T15:55:47Z</time>
      </trkpt>
      <trkpt lat="44.02408" lon="2.71498">
        <ele>209.4</ele>
        <time>2015-04-05T15:55:49Z</time>
      </trkpt>
      <trkpt lat="44.02425" lon="2.71499">
        <ele>209.2</ele>
        <time>2015-04-05T15:55:51Z</time>
      </trkpt>
      <trkpt lat="44.02441" lon="2.71499">
        <ele>209</ele>
        <time>2015-04-05T15:55:53Z</time>
      </trkpt>
      <trkpt lat="44.02457" lon="2.71497">
        <ele>208.8</ele>
        <time>2015-04-05T15:55:55Z</time>
      </trkpt>
      <trkpt lat="44.02473" lon="2.71498">
        <ele>208.6</ele>
        <time>2015-04-05T15:55:57Z</time>
      </trkpt>
      <trkpt lat="44.02487" lon="2.71502">
        <ele>208.4</ele>
        <time>2015-04-05T15:55:59Z</time>
      </trkpt>
      <trkpt lat="44.025" lon="2.71512">
        <ele>208.1</ele>
        <time>2015-04-05T15:56:01Z</time>
      </trkpt>
      <trkpt lat="44.02512" lon="2.71523">
        <ele>207.7</ele>
        <time>2015-04-05T15:56:03Z</time>
      </trkpt>
      <trkpt lat="44.02524" lon="2.71536">
        <ele>207.7</ele>
        <time>2015-04-05T15:56:05Z</time>
      </trkpt>
      <trkpt lat="44.02536" lon="2.7155">
        <ele>207.6</ele>
        <time>2015-04-05T15:56:07Z</time>
      </trkpt>
      <trkpt lat="44.02546" lon="2.71566">
        <ele>207.4</ele>
        <time>2015-04-05T15:56:09Z</time>
      </trkpt>
      <trkpt lat="44.02555" lon="2.71582">
        <ele>207.3</ele>
        <time>2015-04-05T15:56:11Z</time>
      </trkpt>
      <trkpt lat="44.02563" lon="2.71598">
        <ele>207.2</ele>
        <time>2015-04-05T15:56:13Z</time>
      </trkpt>
      <trkpt lat="44.02571" lon="2.71614">
        <ele>207</ele>
        <time>2015-04-05T15:56:15Z</time>
      </trkpt>
      <trkpt lat="44.02578" lon="2.71629">
        <ele>206.8</ele>
        <time>2015-04-05T15:56:17Z</time>
      </trkpt>
      <trkpt lat="44.02584" lon="2.71644">
        <ele>206.7</ele>
        <time>2015-04-05T15:56:19Z</time>
      </trkpt>
      <trkpt lat="44.02591" lon="2.71659">
        <ele>206.6</ele>
        <time>2015-04-05T15:56:21Z</time>
      </trkpt>
      <trkpt lat="44.02598" lon="2.71673">
        <ele>206.4</ele>
        <time>2015-04-05T15:56:23Z</time>
      </trkpt>
      <trkpt lat="44.02605" lon="2.71685">
        <ele>206.2</ele>
        <time>2015-04-05T15:56:25Z</time>
      </trkpt>
      <trkpt lat="44.02613" lon="2.71695">
        <ele>206</ele>
        <time>2015-04-05T15:56:27Z</time>
      </trkpt>
      <trkpt lat="44.02622" lon="2.71705">
        <ele>205.8</ele>
        <time>2015-04-05T15:56:29Z</time>
      </trkpt>
      <trkpt lat="44.02631" lon="2.71717">
        <ele>205.6</ele>
        <time>2015-04-05T15:56:31Z</time>
      </trkpt>
      <trkpt lat="44.02637" lon="2.71731">
        <ele>205.4</ele>
        <time>2015-04-05T15:56:33Z</time>
      </trkpt>
      <trkpt lat="44.02641" lon="2.71746">
        <ele>205.3</ele>
        <time>2015-04-05T15:56:35Z</time>
      </trkpt>
      <trkpt lat="44.02642" lon="2.71761">
        <ele>205.3</ele>
        <time>2015-04-05T15:56:37Z</time>
      </trkpt>
      <trkpt lat="44.02643" lon="2.71776">
        <ele>205.6</ele>
        <time>2015-04-05T15:56:39Z</time>
      </trkpt>
      <trkpt lat="44.02645" lon="2.7179">
        <ele>205.7</ele>
        <time>2015-04-05T15:56:41Z</time>
      </trkpt>
      <trkpt lat="44.0265" lon="2.71806">
        <ele>205.6</ele>
        <time>2015-04-05T15:56:44Z</time>
      </trkpt>
      <trkpt lat="44.02654" lon="2.71818">
        <ele>205.6</ele>
        <time>2015-04-05T15:56:47Z</time>
      </trkpt>
      <trkpt lat="44.02659" lon="2.71829">
        <ele>205.5</ele>
        <time>2015-04-05T15:56:50Z</time>
      </trkpt>
      <trkpt lat="44.02665" lon="2.71842">
        <ele>205.3</ele>
        <time>2015-04-05T15:56:53Z</time>
      </trkpt>
      <trkpt lat="44.0267" lon="2.71853">
        <ele>205.1</ele>
        <time>2015-04-05T15:56:56Z</time>
      </trkpt>
      <trkpt lat="44.02679" lon="2.71864">
        <ele>204.9</ele>
        <time>2015-04-05T15:56:59Z</time>
      </trkpt>
      <trkpt lat="44.02689" lon="2.71874">
        <ele>204.8</ele>
        <time>2015-04-05T15:57:02Z</time>
      </trkpt>
      <trkpt lat="44.02696" lon="2.71886">
        <ele>205</ele>
        <time>2015-04-05T15:57:06Z</time>
      </trkpt>
      <trkpt lat="44.02701" lon="2.71898">
        <ele>205.1</ele>
        <time>2015-04-05T15:57:10Z</time>
      </trkpt>
      <trkpt lat="44.02709" lon="2.71905">
        <ele>205.1</ele>
        <time>2015-04-05T15:57:13Z</time>
      </trkpt>
      <trkpt lat="44.0272" lon="2.71908">
        <ele>205.1</ele>
        <time>2015-04-05T15:57:15Z</time>
      </trkpt>
      <trkpt lat="44.02732" lon="2.71915">
        <ele>205</ele>
        <time>2015-04-05T15:57:18Z</time>
      </trkpt>
      <trkpt lat="44.0274" lon="2.71921">
        <ele>205</ele>
        <time>2015-04-05T15:57:20Z</time>
      </trkpt>
      <trkpt lat="44.02749" lon="2.71925">
        <ele>204.9</ele>
        <time>2015-04-05T15:57:22Z</time>
      </trkpt>
      <trkpt lat="44.0276" lon="2.71929">
        <ele>204.9</ele>
        <time>2015-04-05T15:57:24Z</time>
      </trkpt>
      <trkpt lat="44.02769" lon="2.71931">
        <ele>204.8</ele>
        <time>2015-04-05T15:57:26Z</time>
      </trkpt>
      <trkpt lat="44.02778" lon="2.71934">
        <ele>204.7</ele>
        <time>2015-04-05T15:57:28Z</time>
      </trkpt>
      <trkpt lat="44.0279" lon="2.71937">
        <ele>204.6</ele>
        <time>2015-04-05T15:57:30Z</time>
      </trkpt>
      <trkpt lat="44.02802" lon="2.7194">
        <ele>204.5</ele>
        <time>2015-04-05T15:57:32Z</time>
      </trkpt>
      <trkpt lat="44.02815" lon="2.71944">
        <ele>204.4</ele>
        <time>2015-04-05T15:57:34Z</time>
      </trkpt>
      <trkpt lat="44.02826" lon="2.71948">
        <ele>204.4</ele>
        <time>2015-04-05T15:57:36Z</time>
      </trkpt>
      <trkpt lat="44.02838" lon="2.7195">
        <ele>204.2</ele>
        <time>2015-04-05T15:57:38Z</time>
      </trkpt>
      <trkpt lat="44.02849" lon="2.71952">
        <ele>204.1</ele>
        <time>2015-04-05T15:57:40Z</time>
      </trkpt>
      <trkpt lat="44.02858" lon="2.71954">
        <ele>204</ele>
        <time>2015-04-05T15:57:42Z</time>
      </trkpt>
      <trkpt lat="44.02868" lon="2.7196">
        <ele>203.9</ele>
        <time>2015-04-05T15:57:44Z</time>
      </trkpt>
      <trkpt lat="44.02877" lon="2.71964">
        <ele>204.1</ele>
        <time>2015-04-05T15:57:46Z</time>
      </trkpt>
      <trkpt lat="44.02887" lon="2.71967">
        <ele>204.2</ele>
        <time>2015-04-05T15:57:48Z</time>
      </trkpt>
      <trkpt lat="44.02898" lon="2.71971">
        <ele>204.4</ele>
        <time>2015-04-05T15:57:50Z</time>
      </trkpt>
      <trkpt lat="44.02907" lon="2.71977">
        <ele>204.6</ele>
        <time>2015-04-05T15:57:52Z</time>
      </trkpt>
      <trkpt lat="44.02916" lon="2.71981">
        <ele>204.7</ele>
        <time>2015-04-05T15:57:54Z</time>
      </trkpt>
      <trkpt lat="44.02926" lon="2.71984">
        <ele>204.8</ele>
        <time>2015-04-05T15:57:56Z</time>
      </trkpt>
      <trkpt lat="44.02935" lon="2.71986">
        <ele>205</ele>
        <time>2015-04-05T15:57:58Z</time>
      </trkpt>
      <trkpt lat="44.02945" lon="2.71986">
        <ele>205.3</ele>
        <time>2015-04-05T15:58:00Z</time>
      </trkpt>
      <trkpt lat="44.02955" lon="2.71987">
        <ele>205.7</ele>
        <time>2015-04-05T15:58:02Z</time>
      </trkpt>
      <trkpt lat="44.02965" lon="2.71989">
        <ele>206.1</ele>
        <time>2015-04-05T15:58:04Z</time>
      </trkpt>
      <trkpt lat="44.02974" lon="2.71994">
        <ele>206.7</ele>
        <time>2015-04-05T15:58:06Z</time>
      </trkpt>
      <trkpt lat="44.02985" lon="2.72">
        <ele>207.2</ele>
        <time>2015-04-05T15:58:08Z</time>
      </trkpt>
      <trkpt lat="44.02995" lon="2.72006">
        <ele>207.4</ele>
        <time>2015-04-05T15:58:10Z</time>
      </trkpt>
      <trkpt lat="44.03005" lon="2.72012">
        <ele>208</ele>
        <time>2015-04-05T15:58:12Z</time>
      </trkpt>
      <trkpt lat="44.03014" lon="2.72019">
        <ele>208.5</ele>
        <time>2015-04-05T15:58:14Z</time>
      </trkpt>
      <trkpt lat="44.03023" lon="2.72027">
        <ele>209.1</ele>
        <time>2015-04-05T15:58:16Z</time>
      </trkpt>
      <trkpt lat="44.03032" lon="2.72033">
        <ele>209.9</ele>
        <time>2015-04-05T15:58:18Z</time>
      </trkpt>
      <trkpt lat="44.03043" lon="2.72039">
        <ele>210.5</ele>
        <time>2015-04-05T15:58:20Z</time>
      </trkpt>
      <trkpt lat="44.03052" lon="2.72047">
        <ele>216.9</ele>
        <time>2015-04-05T15:58:23Z</time>
      </trkpt>
      <trkpt lat="44.03061" lon="2.72058">
        <ele>217.5</ele>
        <time>2015-04-05T15:58:25Z</time>
      </trkpt>
      <trkpt lat="44.0307" lon="2.72068">
        <ele>218.7</ele>
        <time>2015-04-05T15:58:27Z</time>
      </trkpt>
      <trkpt lat="44.03078" lon="2.72078">
        <ele>220.1</ele>
        <time>2015-04-05T15:58:29Z</time>
      </trkpt>
      <trkpt lat="44.03088" lon="2.7209">
        <ele>219.7</ele>
        <time>2015-04-05T15:58:31Z</time>
      </trkpt>
      <trkpt lat="44.03096" lon="2.72102">
        <ele>220.2</ele>
        <time>2015-04-05T15:58:33Z</time>
      </trkpt>
      <trkpt lat="44.03104" lon="2.72113">
        <ele>220.9</ele>
        <time>2015-04-05T15:58:35Z</time>
      </trkpt>
      <trkpt lat="44.03112" lon="2.72123">
        <ele>221</ele>
        <time>2015-04-05T15:58:37Z</time>
      </trkpt>
      <trkpt lat="44.03121" lon="2.72134">
        <ele>220.9</ele>
        <time>2015-04-05T15:58:39Z</time>
      </trkpt>
      <trkpt lat="44.03129" lon="2.72144">
        <ele>221.7</ele>
        <time>2015-04-05T15:58:41Z</time>
      </trkpt>
      <trkpt lat="44.03138" lon="2.72154">
        <ele>222.2</ele>
        <time>2015-04-05T15:58:43Z</time>
      </trkpt>
      <trkpt lat="44.03146" lon="2.72165">
        <ele>222.2</ele>
        <time>2015-04-05T15:58:45Z</time>
      </trkpt>
      <trkpt lat="44.03154" lon="2.72177">
        <ele>221.9</ele>
        <time>2015-04-05T15:58:47Z</time>
      </trkpt>
      <trkpt lat="44.03162" lon="2.72189">
        <ele>222.3</ele>
        <time>2015-04-05T15:58:49Z</time>
      </trkpt>
      <trkpt lat="44.0317" lon="2.72202">
        <ele>222</ele>
        <time>2015-04-05T15:58:51Z</time>
      </trkpt>
      <trkpt lat="44.03178" lon="2.72215">
        <ele>221.2</ele>
        <time>2015-04-05T15:58:53Z</time>
      </trkpt>
      <trkpt lat="44.03186" lon="2.72226">
        <ele>220.5</ele>
        <time>2015-04-05T15:58:55Z</time>
      </trkpt>
      <trkpt lat="44.03194" lon="2.72235">
        <ele>220.3</ele>
        <time>2015-04-05T15:58:57Z</time>
      </trkpt>
      <trkpt lat="44.03202" lon="2.72245">
        <ele>220</ele>
        <time>2015-04-05T15:58:59Z</time>
      </trkpt>
      <trkpt lat="44.03209" lon="2.72254">
        <ele>219.8</ele>
        <time>2015-04-05T15:59:01Z</time>
      </trkpt>
      <trkpt lat="44.03217" lon="2.72262">
        <ele>220.1</ele>
        <time>2015-04-05T15:59:03Z</time>
      </trkpt>
      <trkpt lat="44.03224" lon="2.72272">
        <ele>220.3</ele>
        <time>2015-04-05T15:59:05Z</time>
      </trkpt>
      <trkpt lat="44.03231" lon="2.72282">
        <ele>220.6</ele>
        <time>2015-04-05T15:59:07Z</time>
      </trkpt>
      <trkpt lat="44.03237" lon="2.72291">
        <ele>220.9</ele>
        <time>2015-04-05T15:59:09Z</time>
      </trkpt>
      <trkpt lat="44.03243" lon="2.72302">
        <ele>221.3</ele>
        <time>2015-04-05T15:59:11Z</time>
      </trkpt>
      <trkpt lat="44.03248" lon="2.72312">
        <ele>221.7</ele>
        <time>2015-04-05T15:59:13Z</time>
      </trkpt>
      <trkpt lat="44.03254" lon="2.72322">
        <ele>221.6</ele>
        <time>2015-04-05T15:59:15Z</time>
      </trkpt>
      <trkpt lat="44.03262" lon="2.72337">
        <ele>221.5</ele>
        <time>2015-04-05T15:59:18Z</time>
      </trkpt>
      <trkpt lat="44.03269" lon="2.72352">
        <ele>221.2</ele>
        <time>2015-04-05T15:59:21Z</time>
      </trkpt>
      <trkpt lat="44.03275" lon="2.72369">
        <ele>221.4</ele>
        <time>2015-04-05T15:59:24Z</time>
      </trkpt>
      <trkpt lat="44.03282" lon="2.72384">
        <ele>221.7</ele>
        <time>2015-04-05T15:59:27Z</time>
      </trkpt>
      <trkpt lat="44.03286" lon="2.72397">
        <ele>222.1</ele>
        <time>2015-04-05T15:59:30Z</time>
      </trkpt>
      <trkpt lat="44.0329" lon="2.72413">
        <ele>222.5</ele>
        <time>2015-04-05T15:59:34Z</time>
      </trkpt>
      <trkpt lat="44.03294" lon="2.72428">
        <ele>222.8</ele>
        <time>2015-04-05T15:59:38Z</time>
      </trkpt>
      <trkpt lat="44.03297" lon="2.72441">
        <ele>223.2</ele>
        <time>2015-04-05T15:59:41Z</time>
      </trkpt>
      <trkpt lat="44.033" lon="2.72456">
        <ele>223.1</ele>
        <time>2015-04-05T15:59:45Z</time>
      </trkpt>
      <trkpt lat="44.03302" lon="2.72468">
        <ele>223.5</ele>
        <time>2015-04-05T15:59:48Z</time>
      </trkpt>
      <trkpt lat="44.03305" lon="2.72481">
        <ele>223.8</ele>
        <time>2015-04-05T15:59:51Z</time>
      </trkpt>
      <trkpt lat="44.03309" lon="2.72495">
        <ele>224.2</ele>
        <time>2015-04-05T15:59:54Z</time>
      </trkpt>
      <trkpt lat="44.03312" lon="2.72507">
        <ele>224.9</ele>
        <time>2015-04-05T15:59:57Z</time>
      </trkpt>
      <trkpt lat="44.03315" lon="2.7252">
        <ele>225.5</ele>
        <time>2015-04-05T16:00:00Z</time>
      </trkpt>
      <trkpt lat="44.03318" lon="2.72534">
        <ele>226.3</ele>
        <time>2015-04-05T16:00:03Z</time>
      </trkpt>
      <trkpt lat="44.03323" lon="2.72548">
        <ele>227.1</ele>
        <time>2015-04-05T16:00:06Z</time>
      </trkpt>
      <trkpt lat="44.03326" lon="2.72561">
        <ele>228</ele>
        <time>2015-04-05T16:00:09Z</time>
      </trkpt>
      <trkpt lat="44.0333" lon="2.72575">
        <ele>229.1</ele>
        <time>2015-04-05T16:00:12Z</time>
      </trkpt>
      <trkpt lat="44.03333" lon="2.72588">
        <ele>230.1</ele>
        <time>2015-04-05T16:00:15Z</time>
      </trkpt>
      <trkpt lat="44.03333" lon="2.72602">
        <ele>231.4</ele>
        <time>2015-04-05T16:00:18Z</time>
      </trkpt>
      <trkpt lat="44.03333" lon="2.72615">
        <ele>232.9</ele>
        <time>2015-04-05T16:00:21Z</time>
      </trkpt>
      <trkpt lat="44.03331" lon="2.72629">
        <ele>234.6</ele>
        <time>2015-04-05T16:00:24Z</time>
      </trkpt>
      <trkpt lat="44.03331" lon="2.72642">
        <ele>236</ele>
        <time>2015-04-05T16:00:27Z</time>
      </trkpt>
      <trkpt lat="44.03331" lon="2.72655">
        <ele>237.5</ele>
        <time>2015-04-05T16:00:30Z</time>
      </trkpt>
      <trkpt lat="44.03332" lon="2.72672">
        <ele>239.8</ele>
        <time>2015-04-05T16:00:34Z</time>
      </trkpt>
      <trkpt lat="44.03333" lon="2.72686">
        <ele>241.3</ele>
        <time>2015-04-05T16:00:37Z</time>
      </trkpt>
      <trkpt lat="44.03335" lon="2.72702">
        <ele>242.7</ele>
        <time>2015-04-05T16:00:40Z</time>
      </trkpt>
      <trkpt lat="44.03334" lon="2.72716">
        <ele>244.2</ele>
        <time>2015-04-05T16:00:43Z</time>
      </trkpt>
      <trkpt lat="44.03335" lon="2.7273">
        <ele>245.6</ele>
        <time>2015-04-05T16:00:46Z</time>
      </trkpt>
      <trkpt lat="44.03337" lon="2.72745">
        <ele>246.7</ele>
        <time>2015-04-05T16:00:49Z</time>
      </trkpt>
      <trkpt lat="44.03339" lon="2.72758">
        <ele>248</ele>
        <time>2015-04-05T16:00:52Z</time>
      </trkpt>
      <trkpt lat="44.0334" lon="2.72772">
        <ele>249.3</ele>
        <time>2015-04-05T16:00:55Z</time>
      </trkpt>
      <trkpt lat="44.03341" lon="2.72784">
        <ele>250.5</ele>
        <time>2015-04-05T16:00:58Z</time>
      </trkpt>
      <trkpt lat="44.03342" lon="2.72797">
        <ele>251.5</ele>
        <time>2015-04-05T16:01:01Z</time>
      </trkpt>
      <trkpt lat="44.03342" lon="2.72812">
        <ele>253.2</ele>
        <time>2015-04-05T16:01:05Z</time>
      </trkpt>
      <trkpt lat="44.03344" lon="2.72828">
        <ele>254.6</ele>
        <time>2015-04-05T16:01:08Z</time>
      </trkpt>
      <trkpt lat="44.03346" lon="2.72842">
        <ele>255.7</ele>
        <time>2015-04-05T16:01:11Z</time>
      </trkpt>
      <trkpt lat="44.03349" lon="2.72856">
        <ele>257.1</ele>
        <time>2015-04-05T16:01:14Z</time>
      </trkpt>
      <trkpt lat="44.03352" lon="2.72869">
        <ele>258.3</ele>
        <time>2015-04-05T16:01:17Z</time>
      </trkpt>
      <trkpt lat="44.03355" lon="2.72884">
        <ele>260.2</ele>
        <time>2015-04-05T16:01:21Z</time>
      </trkpt>
      <trkpt lat="44.03356" lon="2.729">
        <ele>261.9</ele>
        <time>2015-04-05T16:01:25Z</time>
      </trkpt>
      <trkpt lat="44.03358" lon="2.72913">
        <ele>263.6</ele>
        <time>2015-04-05T16:01:29Z</time>
      </trkpt>
      <trkpt lat="44.03351" lon="2.7292">
        <ele>267</ele>
        <time>2015-04-05T16:01:37Z</time>
      </trkpt>
      <trkpt lat="44.0334" lon="2.72921">
        <ele>269.3</ele>
        <time>2015-04-05T16:02:24Z</time>
      </trkpt>
      <trkpt lat="44.03348" lon="2.72932">
        <ele>269.2</ele>
        <time>2015-04-05T16:02:32Z</time>
      </trkpt>
      <trkpt lat="44.03354" lon="2.72942">
        <ele>269.5</ele>
        <time>2015-04-05T16:02:35Z</time>
      </trkpt>
      <trkpt lat="44.0336" lon="2.72952">
        <ele>269.6</ele>
        <time>2015-04-05T16:02:38Z</time>
      </trkpt>
      <trkpt lat="44.03362" lon="2.72968">
        <ele>269.9</ele>
        <time>2015-04-05T16:02:42Z</time>
      </trkpt>
      <trkpt lat="44.03366" lon="2.72981">
        <ele>270</ele>
        <time>2015-04-05T16:02:45Z</time>
      </trkpt>
      <trkpt lat="44.03371" lon="2.72996">
        <ele>270.1</ele>
        <time>2015-04-05T16:02:48Z</time>
      </trkpt>
      <trkpt lat="44.03377" lon="2.73006">
        <ele>270.2</ele>
        <time>2015-04-05T16:02:50Z</time>
      </trkpt>
      <trkpt lat="44.03381" lon="2.73022">
        <ele>269.7</ele>
        <time>2015-04-05T16:02:53Z</time>
      </trkpt>
      <trkpt lat="44.03388" lon="2.73039">
        <ele>269.4</ele>
        <time>2015-04-05T16:02:56Z</time>
      </trkpt>
      <trkpt lat="44.03394" lon="2.73049">
        <ele>269.3</ele>
        <time>2015-04-05T16:02:58Z</time>
      </trkpt>
      <trkpt lat="44.034" lon="2.73057">
        <ele>269.2</ele>
        <time>2015-04-05T16:03:00Z</time>
      </trkpt>
      <trkpt lat="44.03407" lon="2.73066">
        <ele>269.1</ele>
        <time>2015-04-05T16:03:02Z</time>
      </trkpt>
      <trkpt lat="44.03417" lon="2.73075">
        <ele>268.9</ele>
        <time>2015-04-05T16:03:05Z</time>
      </trkpt>
      <trkpt lat="44.03426" lon="2.73081">
        <ele>268.8</ele>
        <time>2015-04-05T16:03:07Z</time>
      </trkpt>
      <trkpt lat="44.03438" lon="2.73089">
        <ele>268.1</ele>
        <time>2015-04-05T16:03:10Z</time>
      </trkpt>
      <trkpt lat="44.03448" lon="2.73093">
        <ele>267.8</ele>
        <time>2015-04-05T16:03:12Z</time>
      </trkpt>
      <trkpt lat="44.03458" lon="2.73096">
        <ele>267.3</ele>
        <time>2015-04-05T16:03:14Z</time>
      </trkpt>
      <trkpt lat="44.0347" lon="2.731">
        <ele>266.7</ele>
        <time>2015-04-05T16:03:17Z</time>
      </trkpt>
      <trkpt lat="44.03483" lon="2.73103">
        <ele>266.2</ele>
        <time>2015-04-05T16:03:20Z</time>
      </trkpt>
      <trkpt lat="44.03496" lon="2.73105">
        <ele>266.3</ele>
        <time>2015-04-05T16:03:23Z</time>
      </trkpt>
      <trkpt lat="44.03508" lon="2.73108">
        <ele>266.2</ele>
        <time>2015-04-05T16:03:26Z</time>
      </trkpt>
      <trkpt lat="44.03517" lon="2.73109">
        <ele>266.2</ele>
        <time>2015-04-05T16:03:28Z</time>
      </trkpt>
      <trkpt lat="44.03529" lon="2.73113">
        <ele>267.1</ele>
        <time>2015-04-05T16:03:31Z</time>
      </trkpt>
      <trkpt lat="44.0354" lon="2.73117">
        <ele>267.8</ele>
        <time>2015-04-05T16:03:34Z</time>
      </trkpt>
      <trkpt lat="44.03553" lon="2.73122">
        <ele>268.8</ele>
        <time>2015-04-05T16:03:37Z</time>
      </trkpt>
      <trkpt lat="44.03566" lon="2.73126">
        <ele>269.2</ele>
        <time>2015-04-05T16:03:40Z</time>
      </trkpt>
      <trkpt lat="44.03578" lon="2.73131">
        <ele>269.1</ele>
        <time>2015-04-05T16:03:43Z</time>
      </trkpt>
      <trkpt lat="44.03591" lon="2.73138">
        <ele>268.4</ele>
        <time>2015-04-05T16:03:46Z</time>
      </trkpt>
      <trkpt lat="44.03601" lon="2.73145">
        <ele>268.5</ele>
        <time>2015-04-05T16:03:48Z</time>
      </trkpt>
      <trkpt lat="44.0361" lon="2.73152">
        <ele>268.4</ele>
        <time>2015-04-05T16:03:50Z</time>
      </trkpt>
      <trkpt lat="44.03618" lon="2.73161">
        <ele>268.5</ele>
        <time>2015-04-05T16:03:52Z</time>
      </trkpt>
      <trkpt lat="44.03627" lon="2.7317">
        <ele>268.6</ele>
        <time>2015-04-05T16:03:54Z</time>
      </trkpt>
      <trkpt lat="44.03636" lon="2.7318">
        <ele>268.4</ele>
        <time>2015-04-05T16:03:56Z</time>
      </trkpt>
      <trkpt lat="44.03645" lon="2.73191">
        <ele>268.4</ele>
        <time>2015-04-05T16:03:58Z</time>
      </trkpt>
      <trkpt lat="44.03656" lon="2.73202">
        <ele>267.8</ele>
        <time>2015-04-05T16:04:00Z</time>
      </trkpt>
      <trkpt lat="44.03666" lon="2.73214">
        <ele>267.3</ele>
        <time>2015-04-05T16:04:02Z</time>
      </trkpt>
      <trkpt lat="44.03676" lon="2.73225">
        <ele>267.2</ele>
        <time>2015-04-05T16:04:04Z</time>
      </trkpt>
      <trkpt lat="44.03687" lon="2.73236">
        <ele>266.7</ele>
        <time>2015-04-05T16:04:06Z</time>
      </trkpt>
      <trkpt lat="44.03697" lon="2.73247">
        <ele>266.1</ele>
        <time>2015-04-05T16:04:08Z</time>
      </trkpt>
      <trkpt lat="44.03707" lon="2.73258">
        <ele>265.4</ele>
        <time>2015-04-05T16:04:10Z</time>
      </trkpt>
      <trkpt lat="44.03717" lon="2.73269">
        <ele>264.6</ele>
        <time>2015-04-05T16:04:12Z</time>
      </trkpt>
      <trkpt lat="44.03726" lon="2.73279">
        <ele>264.3</ele>
        <time>2015-04-05T16:04:14Z</time>
      </trkpt>
      <trkpt lat="44.03735" lon="2.73289">
        <ele>264</ele>
        <time>2015-04-05T16:04:16Z</time>
      </trkpt>
      <trkpt lat="44.03743" lon="2.73299">
        <ele>263.4</ele>
        <time>2015-04-05T16:04:18Z</time>
      </trkpt>
      <trkpt lat="44.03751" lon="2.73308">
        <ele>262.6</ele>
        <time>2015-04-05T16:04:20Z</time>
      </trkpt>
      <trkpt lat="44.03758" lon="2.73317">
        <ele>262</ele>
        <time>2015-04-05T16:04:22Z</time>
      </trkpt>
      <trkpt lat="44.03769" lon="2.73329">
        <ele>256.5</ele>
        <time>2015-04-05T16:04:24Z</time>
      </trkpt>
      <trkpt lat="44.03776" lon="2.73338">
        <ele>255.8</ele>
        <time>2015-04-05T16:04:26Z</time>
      </trkpt>
      <trkpt lat="44.03784" lon="2.73348">
        <ele>255.2</ele>
        <time>2015-04-05T16:04:28Z</time>
      </trkpt>
      <trkpt lat="44.03791" lon="2.73358">
        <ele>254.7</ele>
        <time>2015-04-05T16:04:30Z</time>
      </trkpt>
      <trkpt lat="44.03799" lon="2.73368">
        <ele>254.1</ele>
        <time>2015-04-05T16:04:32Z</time>
      </trkpt>
      <trkpt lat="44.03807" lon="2.73378">
        <ele>253.3</ele>
        <time>2015-04-05T16:04:34Z</time>
      </trkpt>
      <trkpt lat="44.03815" lon="2.73388">
        <ele>253.1</ele>
        <time>2015-04-05T16:04:36Z</time>
      </trkpt>
      <trkpt lat="44.03822" lon="2.73399">
        <ele>252.7</ele>
        <time>2015-04-05T16:04:38Z</time>
      </trkpt>
      <trkpt lat="44.0383" lon="2.73409">
        <ele>252</ele>
        <time>2015-04-05T16:04:40Z</time>
      </trkpt>
      <trkpt lat="44.03838" lon="2.73419">
        <ele>251.8</ele>
        <time>2015-04-05T16:04:42Z</time>
      </trkpt>
      <trkpt lat="44.03846" lon="2.73429">
        <ele>251.5</ele>
        <time>2015-04-05T16:04:44Z</time>
      </trkpt>
      <trkpt lat="44.03854" lon="2.73438">
        <ele>251.1</ele>
        <time>2015-04-05T16:04:46Z</time>
      </trkpt>
      <trkpt lat="44.03862" lon="2.73448">
        <ele>250.9</ele>
        <time>2015-04-05T16:04:48Z</time>
      </trkpt>
      <trkpt lat="44.03871" lon="2.73458">
        <ele>248.7</ele>
        <time>2015-04-05T16:04:50Z</time>
      </trkpt>
      <trkpt lat="44.03878" lon="2.73468">
        <ele>248.4</ele>
        <time>2015-04-05T16:04:52Z</time>
      </trkpt>
      <trkpt lat="44.03886" lon="2.73479">
        <ele>246.7</ele>
        <time>2015-04-05T16:04:54Z</time>
      </trkpt>
      <trkpt lat="44.03894" lon="2.73486">
        <ele>239.9</ele>
        <time>2015-04-05T16:04:55Z</time>
      </trkpt>
      <trkpt lat="44.03902" lon="2.73496">
        <ele>239.3</ele>
        <time>2015-04-05T16:04:57Z</time>
      </trkpt>
      <trkpt lat="44.03912" lon="2.73507">
        <ele>235.4</ele>
        <time>2015-04-05T16:04:59Z</time>
      </trkpt>
      <trkpt lat="44.0392" lon="2.73517">
        <ele>234.9</ele>
        <time>2015-04-05T16:05:01Z</time>
      </trkpt>
      <trkpt lat="44.03928" lon="2.73527">
        <ele>234.1</ele>
        <time>2015-04-05T16:05:03Z</time>
      </trkpt>
      <trkpt lat="44.03936" lon="2.73537">
        <ele>233.6</ele>
        <time>2015-04-05T16:05:05Z</time>
      </trkpt>
      <trkpt lat="44.03945" lon="2.73547">
        <ele>232.6</ele>
        <time>2015-04-05T16:05:07Z</time>
      </trkpt>
      <trkpt lat="44.03955" lon="2.73556">
        <ele>230.7</ele>
        <time>2015-04-05T16:05:09Z</time>
      </trkpt>
      <trkpt lat="44.03964" lon="2.73566">
        <ele>229.8</ele>
        <time>2015-04-05T16:05:11Z</time>
      </trkpt>
      <trkpt lat="44.03971" lon="2.73577">
        <ele>229.5</ele>
        <time>2015-04-05T16:05:13Z</time>
      </trkpt>
      <trkpt lat="44.03978" lon="2.73587">
        <ele>229.3</ele>
        <time>2015-04-05T16:05:15Z</time>
      </trkpt>
      <trkpt lat="44.03985" lon="2.73596">
        <ele>229.3</ele>
        <time>2015-04-05T16:05:17Z</time>
      </trkpt>
      <trkpt lat="44.03993" lon="2.73607">
        <ele>228.8</ele>
        <time>2015-04-05T16:05:19Z</time>
      </trkpt>
      <trkpt lat="44.04001" lon="2.73618">
        <ele>228.2</ele>
        <time>2015-04-05T16:05:21Z</time>
      </trkpt>
      <trkpt lat="44.04008" lon="2.73629">
        <ele>227.8</ele>
        <time>2015-04-05T16:05:23Z</time>
      </trkpt>
      <trkpt lat="44.04015" lon="2.73639">
        <ele>227.8</ele>
        <time>2015-04-05T16:05:25Z</time>
      </trkpt>
      <trkpt lat="44.04021" lon="2.73649">
        <ele>227.9</ele>
        <time>2015-04-05T16:05:27Z</time>
      </trkpt>
      <trkpt lat="44.04027" lon="2.73659">
        <ele>228</ele>
        <time>2015-04-05T16:05:29Z</time>
      </trkpt>
      <trkpt lat="44.04034" lon="2.73669">
        <ele>227.9</ele>
        <time>2015-04-05T16:05:31Z</time>
      </trkpt>
      <trkpt lat="44.0404" lon="2.7368">
        <ele>227.4</ele>
        <time>2015-04-05T16:05:33Z</time>
      </trkpt>
      <trkpt lat="44.04046" lon="2.7369">
        <ele>226.8</ele>
        <time>2015-04-05T16:05:35Z</time>
      </trkpt>
      <trkpt lat="44.04055" lon="2.73704">
        <ele>226.9</ele>
        <time>2015-04-05T16:05:38Z</time>
      </trkpt>
      <trkpt lat="44.04061" lon="2.73715">
        <ele>226.8</ele>
        <time>2015-04-05T16:05:40Z</time>
      </trkpt>
      <trkpt lat="44.04069" lon="2.73729">
        <ele>226.6</ele>
        <time>2015-04-05T16:05:43Z</time>
      </trkpt>
      <trkpt lat="44.04078" lon="2.73743">
        <ele>226.9</ele>
        <time>2015-04-05T16:05:46Z</time>
      </trkpt>
      <trkpt lat="44.04084" lon="2.73752">
        <ele>227.2</ele>
        <time>2015-04-05T16:05:48Z</time>
      </trkpt>
      <trkpt lat="44.0409" lon="2.73762">
        <ele>227.6</ele>
        <time>2015-04-05T16:05:50Z</time>
      </trkpt>
      <trkpt lat="44.04099" lon="2.73775">
        <ele>228.1</ele>
        <time>2015-04-05T16:05:53Z</time>
      </trkpt>
      <trkpt lat="44.04105" lon="2.73785">
        <ele>228.2</ele>
        <time>2015-04-05T16:05:55Z</time>
      </trkpt>
      <trkpt lat="44.04112" lon="2.73797">
        <ele>227.6</ele>
        <time>2015-04-05T16:05:57Z</time>
      </trkpt>
      <trkpt lat="44.04118" lon="2.73807">
        <ele>227.3</ele>
        <time>2015-04-05T16:05:59Z</time>
      </trkpt>
      <trkpt lat="44.04125" lon="2.73817">
        <ele>227.3</ele>
        <time>2015-04-05T16:06:01Z</time>
      </trkpt>
      <trkpt lat="44.04131" lon="2.73828">
        <ele>227.3</ele>
        <time>2015-04-05T16:06:03Z</time>
      </trkpt>
      <trkpt lat="44.04138" lon="2.73838">
        <ele>227.2</ele>
        <time>2015-04-05T16:06:05Z</time>
      </trkpt>
      <trkpt lat="44.04144" lon="2.73848">
        <ele>227</ele>
        <time>2015-04-05T16:06:07Z</time>
      </trkpt>
      <trkpt lat="44.0415" lon="2.73859">
        <ele>226.9</ele>
        <time>2015-04-05T16:06:09Z</time>
      </trkpt>
      <trkpt lat="44.04157" lon="2.73869">
        <ele>226.5</ele>
        <time>2015-04-05T16:06:11Z</time>
      </trkpt>
      <trkpt lat="44.04165" lon="2.73883">
        <ele>226.3</ele>
        <time>2015-04-05T16:06:14Z</time>
      </trkpt>
      <trkpt lat="44.04173" lon="2.73895">
        <ele>226.3</ele>
        <time>2015-04-05T16:06:17Z</time>
      </trkpt>
      <trkpt lat="44.04181" lon="2.73908">
        <ele>225.9</ele>
        <time>2015-04-05T16:06:20Z</time>
      </trkpt>
      <trkpt lat="44.04189" lon="2.7392">
        <ele>225.7</ele>
        <time>2015-04-05T16:06:23Z</time>
      </trkpt>
      <trkpt lat="44.04195" lon="2.73932">
        <ele>225.7</ele>
        <time>2015-04-05T16:06:26Z</time>
      </trkpt>
      <trkpt lat="44.04202" lon="2.73945">
        <ele>225.7</ele>
        <time>2015-04-05T16:06:29Z</time>
      </trkpt>
      <trkpt lat="44.04208" lon="2.73958">
        <ele>225.8</ele>
        <time>2015-04-05T16:06:32Z</time>
      </trkpt>
      <trkpt lat="44.04214" lon="2.7397">
        <ele>226</ele>
        <time>2015-04-05T16:06:35Z</time>
      </trkpt>
      <trkpt lat="44.04221" lon="2.73983">
        <ele>225.9</ele>
        <time>2015-04-05T16:06:38Z</time>
      </trkpt>
      <trkpt lat="44.04229" lon="2.73995">
        <ele>226.2</ele>
        <time>2015-04-05T16:06:41Z</time>
      </trkpt>
      <trkpt lat="44.04235" lon="2.74007">
        <ele>225.9</ele>
        <time>2015-04-05T16:06:44Z</time>
      </trkpt>
      <trkpt lat="44.04243" lon="2.74021">
        <ele>225.6</ele>
        <time>2015-04-05T16:06:47Z</time>
      </trkpt>
      <trkpt lat="44.04251" lon="2.74036">
        <ele>225.5</ele>
        <time>2015-04-05T16:06:50Z</time>
      </trkpt>
      <trkpt lat="44.04257" lon="2.74046">
        <ele>225.2</ele>
        <time>2015-04-05T16:06:52Z</time>
      </trkpt>
      <trkpt lat="44.04263" lon="2.74056">
        <ele>224.9</ele>
        <time>2015-04-05T16:06:54Z</time>
      </trkpt>
      <trkpt lat="44.04268" lon="2.74067">
        <ele>224.7</ele>
        <time>2015-04-05T16:06:56Z</time>
      </trkpt>
      <trkpt lat="44.04274" lon="2.74077">
        <ele>223.9</ele>
        <time>2015-04-05T16:06:58Z</time>
      </trkpt>
      <trkpt lat="44.0428" lon="2.74088">
        <ele>223.4</ele>
        <time>2015-04-05T16:07:00Z</time>
      </trkpt>
      <trkpt lat="44.04286" lon="2.741">
        <ele>223.2</ele>
        <time>2015-04-05T16:07:02Z</time>
      </trkpt>
      <trkpt lat="44.04292" lon="2.74111">
        <ele>222.9</ele>
        <time>2015-04-05T16:07:04Z</time>
      </trkpt>
      <trkpt lat="44.04299" lon="2.74122">
        <ele>222.6</ele>
        <time>2015-04-05T16:07:06Z</time>
      </trkpt>
      <trkpt lat="44.04306" lon="2.74133">
        <ele>222.4</ele>
        <time>2015-04-05T16:07:08Z</time>
      </trkpt>
      <trkpt lat="44.04313" lon="2.74142">
        <ele>222.2</ele>
        <time>2015-04-05T16:07:10Z</time>
      </trkpt>
      <trkpt lat="44.0432" lon="2.74152">
        <ele>222.1</ele>
        <time>2015-04-05T16:07:12Z</time>
      </trkpt>
      <trkpt lat="44.04328" lon="2.74162">
        <ele>222</ele>
        <time>2015-04-05T16:07:14Z</time>
      </trkpt>
      <trkpt lat="44.04337" lon="2.74173">
        <ele>222</ele>
        <time>2015-04-05T16:07:16Z</time>
      </trkpt>
      <trkpt lat="44.04345" lon="2.74185">
        <ele>221.9</ele>
        <time>2015-04-05T16:07:18Z</time>
      </trkpt>
      <trkpt lat="44.04354" lon="2.74197">
        <ele>221.7</ele>
        <time>2015-04-05T16:07:20Z</time>
      </trkpt>
      <trkpt lat="44.04363" lon="2.74213">
        <ele>221.2</ele>
        <time>2015-04-05T16:07:22Z</time>
      </trkpt>
      <trkpt lat="44.04372" lon="2.74227">
        <ele>220.7</ele>
        <time>2015-04-05T16:07:24Z</time>
      </trkpt>
      <trkpt lat="44.04382" lon="2.7424">
        <ele>220.1</ele>
        <time>2015-04-05T16:07:26Z</time>
      </trkpt>
      <trkpt lat="44.04392" lon="2.74252">
        <ele>219.5</ele>
        <time>2015-04-05T16:07:28Z</time>
      </trkpt>
      <trkpt lat="44.04403" lon="2.74263">
        <ele>219.1</ele>
        <time>2015-04-05T16:07:30Z</time>
      </trkpt>
      <trkpt lat="44.04414" lon="2.74274">
        <ele>218</ele>
        <time>2015-04-05T16:07:32Z</time>
      </trkpt>
      <trkpt lat="44.04425" lon="2.74285">
        <ele>216.6</ele>
        <time>2015-04-05T16:07:34Z</time>
      </trkpt>
      <trkpt lat="44.04435" lon="2.74297">
        <ele>215.8</ele>
        <time>2015-04-05T16:07:36Z</time>
      </trkpt>
      <trkpt lat="44.04444" lon="2.7431">
        <ele>215</ele>
        <time>2015-04-05T16:07:38Z</time>
      </trkpt>
      <trkpt lat="44.04453" lon="2.74323">
        <ele>214.6</ele>
        <time>2015-04-05T16:07:40Z</time>
      </trkpt>
      <trkpt lat="44.04461" lon="2.74335">
        <ele>214.4</ele>
        <time>2015-04-05T16:07:42Z</time>
      </trkpt>
      <trkpt lat="44.04469" lon="2.74347">
        <ele>214</ele>
        <time>2015-04-05T16:07:44Z</time>
      </trkpt>
      <trkpt lat="44.04478" lon="2.74359">
        <ele>213.5</ele>
        <time>2015-04-05T16:07:46Z</time>
      </trkpt>
      <trkpt lat="44.04487" lon="2.74371">
        <ele>213.2</ele>
        <time>2015-04-05T16:07:48Z</time>
      </trkpt>
      <trkpt lat="44.04495" lon="2.74382">
        <ele>213.1</ele>
        <time>2015-04-05T16:07:50Z</time>
      </trkpt>
      <trkpt lat="44.04502" lon="2.74394">
        <ele>212.9</ele>
        <time>2015-04-05T16:07:52Z</time>
      </trkpt>
      <trkpt lat="44.04509" lon="2.74407">
        <ele>212.7</ele>
        <time>2015-04-05T16:07:54Z</time>
      </trkpt>
      <trkpt lat="44.04516" lon="2.7442">
        <ele>212.6</ele>
        <time>2015-04-05T16:07:56Z</time>
      </trkpt>
      <trkpt lat="44.04522" lon="2.74433">
        <ele>212.4</ele>
        <time>2015-04-05T16:07:58Z</time>
      </trkpt>
      <trkpt lat="44.04527" lon="2.74446">
        <ele>212.3</ele>
        <time>2015-04-05T16:08:00Z</time>
      </trkpt>
      <trkpt lat="44.04533" lon="2.74459">
        <ele>212.3</ele>
        <time>2015-04-05T16:08:02Z</time>
      </trkpt>
      <trkpt lat="44.04537" lon="2.74472">
        <ele>212.4</ele>
        <time>2015-04-05T16:08:04Z</time>
      </trkpt>
      <trkpt lat="44.04542" lon="2.74484">
        <ele>212.4</ele>
        <time>2015-04-05T16:08:06Z</time>
      </trkpt>
      <trkpt lat="44.04546" lon="2.74497">
        <ele>212.5</ele>
        <time>2015-04-05T16:08:08Z</time>
      </trkpt>
      <trkpt lat="44.0455" lon="2.74509">
        <ele>212.6</ele>
        <time>2015-04-05T16:08:10Z</time>
      </trkpt>
      <trkpt lat="44.04555" lon="2.74523">
        <ele>213</ele>
        <time>2015-04-05T16:08:13Z</time>
      </trkpt>
      <trkpt lat="44.04561" lon="2.74536">
        <ele>213.3</ele>
        <time>2015-04-05T16:08:16Z</time>
      </trkpt>
      <trkpt lat="44.04569" lon="2.74551">
        <ele>213.6</ele>
        <time>2015-04-05T16:08:19Z</time>
      </trkpt>
      <trkpt lat="44.04575" lon="2.74562">
        <ele>213.9</ele>
        <time>2015-04-05T16:08:21Z</time>
      </trkpt>
      <trkpt lat="44.04582" lon="2.74575">
        <ele>214.1</ele>
        <time>2015-04-05T16:08:23Z</time>
      </trkpt>
      <trkpt lat="44.04588" lon="2.74589">
        <ele>214.4</ele>
        <time>2015-04-05T16:08:25Z</time>
      </trkpt>
      <trkpt lat="44.04594" lon="2.74603">
        <ele>214.7</ele>
        <time>2015-04-05T16:08:27Z</time>
      </trkpt>
      <trkpt lat="44.046" lon="2.74616">
        <ele>215</ele>
        <time>2015-04-05T16:08:29Z</time>
      </trkpt>
      <trkpt lat="44.04606" lon="2.7463">
        <ele>215.3</ele>
        <time>2015-04-05T16:08:31Z</time>
      </trkpt>
      <trkpt lat="44.04611" lon="2.74643">
        <ele>215.6</ele>
        <time>2015-04-05T16:08:33Z</time>
      </trkpt>
      <trkpt lat="44.04616" lon="2.74657">
        <ele>215.9</ele>
        <time>2015-04-05T16:08:35Z</time>
      </trkpt>
      <trkpt lat="44.04622" lon="2.74669">
        <ele>216.3</ele>
        <time>2015-04-05T16:08:37Z</time>
      </trkpt>
      <trkpt lat="44.04628" lon="2.74681">
        <ele>217</ele>
        <time>2015-04-05T16:08:39Z</time>
      </trkpt>
      <trkpt lat="44.04633" lon="2.74694">
        <ele>217.5</ele>
        <time>2015-04-05T16:08:41Z</time>
      </trkpt>
      <trkpt lat="44.04639" lon="2.74706">
        <ele>217.9</ele>
        <time>2015-04-05T16:08:43Z</time>
      </trkpt>
      <trkpt lat="44.04645" lon="2.74718">
        <ele>218.3</ele>
        <time>2015-04-05T16:08:45Z</time>
      </trkpt>
      <trkpt lat="44.04651" lon="2.74731">
        <ele>218.6</ele>
        <time>2015-04-05T16:08:47Z</time>
      </trkpt>
      <trkpt lat="44.04656" lon="2.74742">
        <ele>218.9</ele>
        <time>2015-04-05T16:08:49Z</time>
      </trkpt>
      <trkpt lat="44.0466" lon="2.74755">
        <ele>219.5</ele>
        <time>2015-04-05T16:08:51Z</time>
      </trkpt>
      <trkpt lat="44.04664" lon="2.74768">
        <ele>220</ele>
        <time>2015-04-05T16:08:53Z</time>
      </trkpt>
      <trkpt lat="44.04668" lon="2.74782">
        <ele>220.1</ele>
        <time>2015-04-05T16:08:55Z</time>
      </trkpt>
      <trkpt lat="44.04672" lon="2.74793">
        <ele>220.1</ele>
        <time>2015-04-05T16:08:57Z</time>
      </trkpt>
      <trkpt lat="44.04677" lon="2.74809">
        <ele>220.3</ele>
        <time>2015-04-05T16:09:00Z</time>
      </trkpt>
      <trkpt lat="44.04682" lon="2.74826">
        <ele>220.3</ele>
        <time>2015-04-05T16:09:03Z</time>
      </trkpt>
      <trkpt lat="44.04686" lon="2.74838">
        <ele>220.5</ele>
        <time>2015-04-05T16:09:05Z</time>
      </trkpt>
      <trkpt lat="44.0469" lon="2.74852">
        <ele>220.9</ele>
        <time>2015-04-05T16:09:07Z</time>
      </trkpt>
      <trkpt lat="44.04695" lon="2.74867">
        <ele>221</ele>
        <time>2015-04-05T16:09:09Z</time>
      </trkpt>
      <trkpt lat="44.04699" lon="2.7488">
        <ele>221</ele>
        <time>2015-04-05T16:09:11Z</time>
      </trkpt>
      <trkpt lat="44.04704" lon="2.74891">
        <ele>220.9</ele>
        <time>2015-04-05T16:09:13Z</time>
      </trkpt>
      <trkpt lat="44.04708" lon="2.74903">
        <ele>221</ele>
        <time>2015-04-05T16:09:15Z</time>
      </trkpt>
      <trkpt lat="44.04713" lon="2.7492">
        <ele>221.3</ele>
        <time>2015-04-05T16:09:18Z</time>
      </trkpt>
      <trkpt lat="44.04717" lon="2.74932">
        <ele>221.3</ele>
        <time>2015-04-05T16:09:20Z</time>
      </trkpt>
      <trkpt lat="44.04721" lon="2.74944">
        <ele>221.4</ele>
        <time>2015-04-05T16:09:22Z</time>
      </trkpt>
      <trkpt lat="44.04724" lon="2.74957">
        <ele>221.5</ele>
        <time>2015-04-05T16:09:24Z</time>
      </trkpt>
      <trkpt lat="44.04729" lon="2.74974">
        <ele>221.2</ele>
        <time>2015-04-05T16:09:26Z</time>
      </trkpt>
      <trkpt lat="44.04732" lon="2.74988">
        <ele>221</ele>
        <time>2015-04-05T16:09:28Z</time>
      </trkpt>
      <trkpt lat="44.04735" lon="2.75002">
        <ele>220.7</ele>
        <time>2015-04-05T16:09:30Z</time>
      </trkpt>
      <trkpt lat="44.04738" lon="2.75014">
        <ele>220.7</ele>
        <time>2015-04-05T16:09:32Z</time>
      </trkpt>
      <trkpt lat="44.04741" lon="2.75033">
        <ele>220.9</ele>
        <time>2015-04-05T16:09:35Z</time>
      </trkpt>
      <trkpt lat="44.04744" lon="2.75047">
        <ele>220.9</ele>
        <time>2015-04-05T16:09:37Z</time>
      </trkpt>
      <trkpt lat="44.04746" lon="2.75061">
        <ele>221.1</ele>
        <time>2015-04-05T16:09:39Z</time>
      </trkpt>
      <trkpt lat="44.04749" lon="2.75075">
        <ele>221.3</ele>
        <time>2015-04-05T16:09:41Z</time>
      </trkpt>
      <trkpt lat="44.04751" lon="2.7509">
        <ele>221.5</ele>
        <time>2015-04-05T16:09:43Z</time>
      </trkpt>
      <trkpt lat="44.04754" lon="2.75104">
        <ele>221.6</ele>
        <time>2015-04-05T16:09:45Z</time>
      </trkpt>
      <trkpt lat="44.04756" lon="2.75118">
        <ele>221.7</ele>
        <time>2015-04-05T16:09:47Z</time>
      </trkpt>
      <trkpt lat="44.04758" lon="2.75131">
        <ele>221.8</ele>
        <time>2015-04-05T16:09:49Z</time>
      </trkpt>
      <trkpt lat="44.0476" lon="2.75144">
        <ele>221.9</ele>
        <time>2015-04-05T16:09:51Z</time>
      </trkpt>
      <trkpt lat="44.04763" lon="2.75156">
        <ele>222</ele>
        <time>2015-04-05T16:09:53Z</time>
      </trkpt>
      <trkpt lat="44.04765" lon="2.75169">
        <ele>222.2</ele>
        <time>2015-04-05T16:09:55Z</time>
      </trkpt>
      <trkpt lat="44.04769" lon="2.75187">
        <ele>222.2</ele>
        <time>2015-04-05T16:09:57Z</time>
      </trkpt>
      <trkpt lat="44.04771" lon="2.75201">
        <ele>222.1</ele>
        <time>2015-04-05T16:09:59Z</time>
      </trkpt>
      <trkpt lat="44.04774" lon="2.75218">
        <ele>222.3</ele>
        <time>2015-04-05T16:10:02Z</time>
      </trkpt>
      <trkpt lat="44.04776" lon="2.7523">
        <ele>222.3</ele>
        <time>2015-04-05T16:10:04Z</time>
      </trkpt>
      <trkpt lat="44.04781" lon="2.75248">
        <ele>222.2</ele>
        <time>2015-04-05T16:10:07Z</time>
      </trkpt>
      <trkpt lat="44.04783" lon="2.75261">
        <ele>222.2</ele>
        <time>2015-04-05T16:10:09Z</time>
      </trkpt>
      <trkpt lat="44.04787" lon="2.7528">
        <ele>222</ele>
        <time>2015-04-05T16:10:12Z</time>
      </trkpt>
      <trkpt lat="44.04791" lon="2.75296">
        <ele>221.9</ele>
        <time>2015-04-05T16:10:15Z</time>
      </trkpt>
      <trkpt lat="44.04795" lon="2.75309">
        <ele>221.9</ele>
        <time>2015-04-05T16:10:18Z</time>
      </trkpt>
      <trkpt lat="44.04798" lon="2.75325">
        <ele>221.8</ele>
        <time>2015-04-05T16:10:21Z</time>
      </trkpt>
      <trkpt lat="44.04803" lon="2.75341">
        <ele>221.6</ele>
        <time>2015-04-05T16:10:24Z</time>
      </trkpt>
      <trkpt lat="44.04806" lon="2.75354">
        <ele>221.8</ele>
        <time>2015-04-05T16:10:26Z</time>
      </trkpt>
      <trkpt lat="44.04811" lon="2.75369">
        <ele>221.6</ele>
        <time>2015-04-05T16:10:28Z</time>
      </trkpt>
      <trkpt lat="44.04817" lon="2.75384">
        <ele>221.7</ele>
        <time>2015-04-05T16:10:31Z</time>
      </trkpt>
      <trkpt lat="44.04824" lon="2.75397">
        <ele>221.6</ele>
        <time>2015-04-05T16:10:34Z</time>
      </trkpt>
      <trkpt lat="44.0483" lon="2.75407">
        <ele>221.7</ele>
        <time>2015-04-05T16:10:36Z</time>
      </trkpt>
      <trkpt lat="44.04839" lon="2.75416">
        <ele>221.5</ele>
        <time>2015-04-05T16:10:39Z</time>
      </trkpt>
      <trkpt lat="44.04847" lon="2.75423">
        <ele>221.7</ele>
        <time>2015-04-05T16:10:42Z</time>
      </trkpt>
      <trkpt lat="44.04855" lon="2.75428">
        <ele>222.2</ele>
        <time>2015-04-05T16:10:47Z</time>
      </trkpt>
      <trkpt lat="44.04861" lon="2.75439">
        <ele>223.4</ele>
        <time>2015-04-05T16:10:53Z</time>
      </trkpt>
      <trkpt lat="44.04867" lon="2.75451">
        <ele>224.5</ele>
        <time>2015-04-05T16:10:58Z</time>
      </trkpt>
      <trkpt lat="44.04872" lon="2.75464">
        <ele>224.4</ele>
        <time>2015-04-05T16:11:03Z</time>
      </trkpt>
      <trkpt lat="44.04874" lon="2.75478">
        <ele>224.3</ele>
        <time>2015-04-05T16:11:09Z</time>
      </trkpt>
      <trkpt lat="44.0488" lon="2.75489">
        <ele>224.8</ele>
        <time>2015-04-05T16:11:14Z</time>
      </trkpt>
      <trkpt lat="44.04875" lon="2.755">
        <ele>227.8</ele>
        <time>2015-04-05T16:11:21Z</time>
      </trkpt>
      <trkpt lat="44.04871" lon="2.75516">
        <ele>215.8</ele>
        <time>2015-04-05T16:13:14Z</time>
      </trkpt>
      <trkpt lat="44.0486" lon="2.75517">
        <ele>218.6</ele>
        <time>2015-04-05T16:15:06Z</time>
      </trkpt>
      <trkpt lat="44.04869" lon="2.75525">
        <ele>219.5</ele>
        <time>2015-04-05T16:15:38Z</time>
      </trkpt>
      <trkpt lat="44.04876" lon="2.75536">
        <ele>219.2</ele>
        <time>2015-04-05T16:15:41Z</time>
      </trkpt>
      <trkpt lat="44.04882" lon="2.75551">
        <ele>218.9</ele>
        <time>2015-04-05T16:15:44Z</time>
      </trkpt>
      <trkpt lat="44.04887" lon="2.75563">
        <ele>218.6</ele>
        <time>2015-04-05T16:15:46Z</time>
      </trkpt>
      <trkpt lat="44.04894" lon="2.75574">
        <ele>218.5</ele>
        <time>2015-04-05T16:15:48Z</time>
      </trkpt>
      <trkpt lat="44.04901" lon="2.75586">
        <ele>218.5</ele>
        <time>2015-04-05T16:15:50Z</time>
      </trkpt>
      <trkpt lat="44.04906" lon="2.756">
        <ele>218.5</ele>
        <time>2015-04-05T16:15:52Z</time>
      </trkpt>
      <trkpt lat="44.04908" lon="2.75616">
        <ele>218.3</ele>
        <time>2015-04-05T16:15:54Z</time>
      </trkpt>
      <trkpt lat="44.04911" lon="2.75633">
        <ele>218.2</ele>
        <time>2015-04-05T16:15:56Z</time>
      </trkpt>
      <trkpt lat="44.04911" lon="2.7565">
        <ele>218</ele>
        <time>2015-04-05T16:15:58Z</time>
      </trkpt>
      <trkpt lat="44.04913" lon="2.75666">
        <ele>217.7</ele>
        <time>2015-04-05T16:16:00Z</time>
      </trkpt>
      <trkpt lat="44.04914" lon="2.75681">
        <ele>217.3</ele>
        <time>2015-04-05T16:16:02Z</time>
      </trkpt>
      <trkpt lat="44.04915" lon="2.75695">
        <ele>217.2</ele>
        <time>2015-04-05T16:16:04Z</time>
      </trkpt>
      <trkpt lat="44.04917" lon="2.75709">
        <ele>217.1</ele>
        <time>2015-04-05T16:16:06Z</time>
      </trkpt>
      <trkpt lat="44.04919" lon="2.75723">
        <ele>217</ele>
        <time>2015-04-05T16:16:08Z</time>
      </trkpt>
      <trkpt lat="44.0492" lon="2.75738">
        <ele>217</ele>
        <time>2015-04-05T16:16:10Z</time>
      </trkpt>
      <trkpt lat="44.04921" lon="2.75751">
        <ele>217</ele>
        <time>2015-04-05T16:16:12Z</time>
      </trkpt>
      <trkpt lat="44.04922" lon="2.75765">
        <ele>217.1</ele>
        <time>2015-04-05T16:16:14Z</time>
      </trkpt>
      <trkpt lat="44.04921" lon="2.75779">
        <ele>217.1</ele>
        <time>2015-04-05T16:16:16Z</time>
      </trkpt>
      <trkpt lat="44.04921" lon="2.75792">
        <ele>217.2</ele>
        <time>2015-04-05T16:16:18Z</time>
      </trkpt>
      <trkpt lat="44.0492" lon="2.75809">
        <ele>217.6</ele>
        <time>2015-04-05T16:16:21Z</time>
      </trkpt>
      <trkpt lat="44.0492" lon="2.75827">
        <ele>218.1</ele>
        <time>2015-04-05T16:16:24Z</time>
      </trkpt>
      <trkpt lat="44.04919" lon="2.7584">
        <ele>218.4</ele>
        <time>2015-04-05T16:16:26Z</time>
      </trkpt>
      <trkpt lat="44.04919" lon="2.75853">
        <ele>218.8</ele>
        <time>2015-04-05T16:16:28Z</time>
      </trkpt>
      <trkpt lat="44.04919" lon="2.75871">
        <ele>219.4</ele>
        <time>2015-04-05T16:16:31Z</time>
      </trkpt>
      <trkpt lat="44.04919" lon="2.75889">
        <ele>220.1</ele>
        <time>2015-04-05T16:16:34Z</time>
      </trkpt>
      <trkpt lat="44.04918" lon="2.75907">
        <ele>220.9</ele>
        <time>2015-04-05T16:16:37Z</time>
      </trkpt>
      <trkpt lat="44.04919" lon="2.75924">
        <ele>221.7</ele>
        <time>2015-04-05T16:16:40Z</time>
      </trkpt>
      <trkpt lat="44.0492" lon="2.7594">
        <ele>222.5</ele>
        <time>2015-04-05T16:16:43Z</time>
      </trkpt>
      <trkpt lat="44.04922" lon="2.75953">
        <ele>223.2</ele>
        <time>2015-04-05T16:16:46Z</time>
      </trkpt>
      <trkpt lat="44.04919" lon="2.75965">
        <ele>225.7</ele>
        <time>2015-04-05T16:16:51Z</time>
      </trkpt>
      <trkpt lat="44.04923" lon="2.75977">
        <ele>227</ele>
        <time>2015-04-05T16:16:57Z</time>
      </trkpt>
      <trkpt lat="44.04932" lon="2.7597">
        <ele>228.9</ele>
        <time>2015-04-05T16:17:06Z</time>
      </trkpt>
      <trkpt lat="44.04929" lon="2.75957">
        <ele>229.3</ele>
        <time>2015-04-05T16:17:09Z</time>
      </trkpt>
      <trkpt lat="44.04927" lon="2.75941">
        <ele>229.7</ele>
        <time>2015-04-05T16:17:12Z</time>
      </trkpt>
      <trkpt lat="44.04926" lon="2.75924">
        <ele>230.3</ele>
        <time>2015-04-05T16:17:15Z</time>
      </trkpt>
      <trkpt lat="44.04927" lon="2.7591">
        <ele>230.7</ele>
        <time>2015-04-05T16:17:17Z</time>
      </trkpt>
      <trkpt lat="44.04928" lon="2.75894">
        <ele>231.1</ele>
        <time>2015-04-05T16:17:19Z</time>
      </trkpt>
      <trkpt lat="44.04928" lon="2.75879">
        <ele>231.6</ele>
        <time>2015-04-05T16:17:21Z</time>
      </trkpt>
      <trkpt lat="44.04929" lon="2.75864">
        <ele>231.7</ele>
        <time>2015-04-05T16:17:23Z</time>
      </trkpt>
      <trkpt lat="44.0493" lon="2.75849">
        <ele>231.9</ele>
        <time>2015-04-05T16:17:25Z</time>
      </trkpt>
      <trkpt lat="44.0493" lon="2.75835">
        <ele>232.1</ele>
        <time>2015-04-05T16:17:27Z</time>
      </trkpt>
      <trkpt lat="44.04931" lon="2.75822">
        <ele>232.3</ele>
        <time>2015-04-05T16:17:29Z</time>
      </trkpt>
      <trkpt lat="44.04931" lon="2.75809">
        <ele>232.7</ele>
        <time>2015-04-05T16:17:31Z</time>
      </trkpt>
      <trkpt lat="44.04932" lon="2.75789">
        <ele>232.1</ele>
        <time>2015-04-05T16:17:34Z</time>
      </trkpt>
      <trkpt lat="44.04931" lon="2.75773">
        <ele>231.5</ele>
        <time>2015-04-05T16:17:36Z</time>
      </trkpt>
      <trkpt lat="44.04931" lon="2.75757">
        <ele>229.8</ele>
        <time>2015-04-05T16:17:38Z</time>
      </trkpt>
      <trkpt lat="44.04929" lon="2.75741">
        <ele>228.7</ele>
        <time>2015-04-05T16:17:40Z</time>
      </trkpt>
      <trkpt lat="44.04927" lon="2.75724">
        <ele>227.8</ele>
        <time>2015-04-05T16:17:42Z</time>
      </trkpt>
      <trkpt lat="44.04924" lon="2.75706">
        <ele>226.8</ele>
        <time>2015-04-05T16:17:44Z</time>
      </trkpt>
      <trkpt lat="44.04923" lon="2.7569">
        <ele>226.1</ele>
        <time>2015-04-05T16:17:46Z</time>
      </trkpt>
      <trkpt lat="44.04921" lon="2.75673">
        <ele>225.5</ele>
        <time>2015-04-05T16:17:48Z</time>
      </trkpt>
      <trkpt lat="44.04921" lon="2.75658">
        <ele>225.8</ele>
        <time>2015-04-05T16:17:50Z</time>
      </trkpt>
      <trkpt lat="44.0492" lon="2.75643">
        <ele>225</ele>
        <time>2015-04-05T16:17:52Z</time>
      </trkpt>
      <trkpt lat="44.04917" lon="2.75627">
        <ele>224.2</ele>
        <time>2015-04-05T16:17:54Z</time>
      </trkpt>
      <trkpt lat="44.04915" lon="2.75613">
        <ele>224.5</ele>
        <time>2015-04-05T16:17:56Z</time>
      </trkpt>
      <trkpt lat="44.04911" lon="2.756">
        <ele>224.8</ele>
        <time>2015-04-05T16:17:58Z</time>
      </trkpt>
      <trkpt lat="44.04907" lon="2.75586">
        <ele>224.9</ele>
        <time>2015-04-05T16:18:00Z</time>
      </trkpt>
      <trkpt lat="44.04901" lon="2.75572">
        <ele>225.1</ele>
        <time>2015-04-05T16:18:02Z</time>
      </trkpt>
      <trkpt lat="44.04896" lon="2.75561">
        <ele>225.2</ele>
        <time>2015-04-05T16:18:04Z</time>
      </trkpt>
      <trkpt lat="44.04888" lon="2.75546">
        <ele>225.3</ele>
        <time>2015-04-05T16:18:07Z</time>
      </trkpt>
      <trkpt lat="44.04883" lon="2.75529">
        <ele>224.8</ele>
        <time>2015-04-05T16:18:10Z</time>
      </trkpt>
      <trkpt lat="44.0488" lon="2.75513">
        <ele>223.5</ele>
        <time>2015-04-05T16:18:13Z</time>
      </trkpt>
      <trkpt lat="44.04877" lon="2.75499">
        <ele>223.2</ele>
        <time>2015-04-05T16:18:16Z</time>
      </trkpt>
      <trkpt lat="44.04875" lon="2.75487">
        <ele>223</ele>
        <time>2015-04-05T16:18:21Z</time>
      </trkpt>
      <trkpt lat="44.04884" lon="2.75484">
        <ele>219.6</ele>
        <time>2015-04-05T16:18:58Z</time>
      </trkpt>
      <trkpt lat="44.04874" lon="2.75486">
        <ele>218.5</ele>
        <time>2015-04-05T16:19:36Z</time>
      </trkpt>
      <trkpt lat="44.04864" lon="2.75477">
        <ele>218.5</ele>
        <time>2015-04-05T16:19:40Z</time>
      </trkpt>
      <trkpt lat="44.04837" lon="2.75491">
        <ele>228</ele>
        <time>2015-04-05T16:21:51Z</time>
      </trkpt>
      <trkpt lat="44.04848" lon="2.75492">
        <ele>223.6</ele>
        <time>2015-04-05T16:22:34Z</time>
      </trkpt>
      <trkpt lat="44.04858" lon="2.75493">
        <ele>222.9</ele>
        <time>2015-04-05T16:22:37Z</time>
      </trkpt>
      <trkpt lat="44.04865" lon="2.75483">
        <ele>222.8</ele>
        <time>2015-04-05T16:22:53Z</time>
      </trkpt>
      <trkpt lat="44.04871" lon="2.75469">
        <ele>218.9</ele>
        <time>2015-04-05T16:23:13Z</time>
      </trkpt>
      <trkpt lat="44.0488" lon="2.75471">
        <ele>219.8</ele>
        <time>2015-04-05T16:23:38Z</time>
      </trkpt>
      <trkpt lat="44.0487" lon="2.75466">
        <ele>216.2</ele>
        <time>2015-04-05T16:24:06Z</time>
      </trkpt>
      <trkpt lat="44.0486" lon="2.75475">
        <ele>215.9</ele>
        <time>2015-04-05T16:24:18Z</time>
      </trkpt>
      <trkpt lat="44.04853" lon="2.75484">
        <ele>215.7</ele>
        <time>2015-04-05T16:24:21Z</time>
      </trkpt>
      <trkpt lat="44.04845" lon="2.75494">
        <ele>215.5</ele>
        <time>2015-04-05T16:24:24Z</time>
      </trkpt>
      <trkpt lat="44.04836" lon="2.75497">
        <ele>215.6</ele>
        <time>2015-04-05T16:24:28Z</time>
      </trkpt>
      <trkpt lat="44.04828" lon="2.75505">
        <ele>215.6</ele>
        <time>2015-04-05T16:24:37Z</time>
      </trkpt>
      <trkpt lat="44.04834" lon="2.75494">
        <ele>215.8</ele>
        <time>2015-04-05T16:24:43Z</time>
      </trkpt>
      <trkpt lat="44.04841" lon="2.75485">
        <ele>216</ele>
        <time>2015-04-05T16:24:50Z</time>
      </trkpt>
      <trkpt lat="44.04854" lon="2.75486">
        <ele>216.4</ele>
        <time>2015-04-05T16:25:14Z</time>
      </trkpt>
      <trkpt lat="44.04864" lon="2.75471">
        <ele>216.5</ele>
        <time>2015-04-05T16:25:58Z</time>
      </trkpt>
      <trkpt lat="44.04874" lon="2.75466">
        <ele>216.5</ele>
        <time>2015-04-05T16:26:13Z</time>
      </trkpt>
      <trkpt lat="44.04864" lon="2.75472">
        <ele>216</ele>
        <time>2015-04-05T16:28:07Z</time>
      </trkpt>
      <trkpt lat="44.04875" lon="2.75459">
        <ele>213.9</ele>
        <time>2015-04-05T16:29:36Z</time>
      </trkpt>
      <trkpt lat="44.04871" lon="2.75471">
        <ele>212.5</ele>
        <time>2015-04-05T16:30:30Z</time>
      </trkpt>
      <trkpt lat="44.04861" lon="2.75478">
        <ele>212.5</ele>
        <time>2015-04-05T16:30:42Z</time>
      </trkpt>
      <trkpt lat="44.04868" lon="2.75469">
        <ele>212.8</ele>
        <time>2015-04-05T16:31:27Z</time>
      </trkpt>
      <trkpt lat="44.04879" lon="2.7546">
        <ele>212.8</ele>
        <time>2015-04-05T16:31:31Z</time>
      </trkpt>
      <trkpt lat="44.04867" lon="2.7547">
        <ele>213</ele>
        <time>2015-04-05T16:31:47Z</time>
      </trkpt>
      <trkpt lat="44.04858" lon="2.75471">
        <ele>213</ele>
        <time>2015-04-05T16:32:02Z</time>
      </trkpt>
      <trkpt lat="44.04866" lon="2.75467">
        <ele>213</ele>
        <time>2015-04-05T16:32:28Z</time>
      </trkpt>
      <trkpt lat="44.04876" lon="2.75468">
        <ele>213.1</ele>
        <time>2015-04-05T16:32:57Z</time>
      </trkpt>
      <trkpt lat="44.04871" lon="2.75456">
        <ele>213.2</ele>
        <time>2015-04-05T16:33:04Z</time>
      </trkpt>
      <trkpt lat="44.04873" lon="2.75442">
        <ele>213.2</ele>
        <time>2015-04-05T16:33:10Z</time>
      </trkpt>
      <trkpt lat="44.04882" lon="2.75441">
        <ele>213.2</ele>
        <time>2015-04-05T16:33:14Z</time>
      </trkpt>
      <trkpt lat="44.04893" lon="2.75441">
        <ele>213.2</ele>
        <time>2015-04-05T16:33:18Z</time>
      </trkpt>
      <trkpt lat="44.04899" lon="2.75431">
        <ele>213</ele>
        <time>2015-04-05T16:33:29Z</time>
      </trkpt>
      <trkpt lat="44.04904" lon="2.7542">
        <ele>213</ele>
        <time>2015-04-05T16:33:41Z</time>
      </trkpt>
      <trkpt lat="44.04912" lon="2.75414">
        <ele>213</ele>
        <time>2015-04-05T16:33:51Z</time>
      </trkpt>
      <trkpt lat="44.04917" lon="2.75426">
        <ele>212.9</ele>
        <time>2015-04-05T16:34:00Z</time>
      </trkpt>
      <trkpt lat="44.04906" lon="2.75444">
        <ele>212.9</ele>
        <time>2015-04-05T16:34:06Z</time>
      </trkpt>
      <trkpt lat="44.04888" lon="2.75456">
        <ele>212.9</ele>
        <time>2015-04-05T16:34:30Z</time>
      </trkpt>
      <trkpt lat="44.04879" lon="2.75462">
        <ele>212.9</ele>
        <time>2015-04-05T16:34:36Z</time>
      </trkpt>
      <trkpt lat="44.0487" lon="2.75466">
        <ele>212.8</ele>
        <time>2015-04-05T16:34:48Z</time>
      </trkpt>
      <trkpt lat="44.04859" lon="2.75474">
        <ele>212.8</ele>
        <time>2015-04-05T16:34:52Z</time>
      </trkpt>
      <trkpt lat="44.04851" lon="2.75481">
        <ele>212.7</ele>
        <time>2015-04-05T16:34:57Z</time>
      </trkpt>
      <trkpt lat="44.0486" lon="2.75472">
        <ele>212.5</ele>
        <time>2015-04-05T16:35:16Z</time>
      </trkpt>
      <trkpt lat="44.04871" lon="2.75467">
        <ele>212.4</ele>
        <time>2015-04-05T16:35:27Z</time>
      </trkpt>
      <trkpt lat="44.04878" lon="2.75455">
        <ele>212.3</ele>
        <time>2015-04-05T16:36:17Z</time>
      </trkpt>
      <trkpt lat="44.04867" lon="2.75473">
        <ele>209.7</ele>
        <time>2015-04-05T16:37:45Z</time>
      </trkpt>
      <trkpt lat="44.04851" lon="2.75474">
        <ele>209.5</ele>
        <time>2015-04-05T16:38:14Z</time>
      </trkpt>
      <trkpt lat="44.04864" lon="2.75464">
        <ele>209.4</ele>
        <time>2015-04-05T16:38:24Z</time>
      </trkpt>
      <trkpt lat="44.04883" lon="2.75446">
        <ele>209.4</ele>
        <time>2015-04-05T16:38:26Z</time>
      </trkpt>
      <trkpt lat="44.04892" lon="2.75441">
        <ele>209.4</ele>
        <time>2015-04-05T16:38:37Z</time>
      </trkpt>
      <trkpt lat="44.04885" lon="2.75449">
        <ele>209.2</ele>
        <time>2015-04-05T16:38:46Z</time>
      </trkpt>
      <trkpt lat="44.04875" lon="2.75456">
        <ele>209.2</ele>
        <time>2015-04-05T16:38:48Z</time>
      </trkpt>
      <trkpt lat="44.04863" lon="2.75465">
        <ele>208.8</ele>
        <time>2015-04-05T16:39:00Z</time>
      </trkpt>
      <trkpt lat="44.0488" lon="2.75453">
        <ele>207.9</ele>
        <time>2015-04-05T16:40:02Z</time>
      </trkpt>
      <trkpt lat="44.04872" lon="2.75464">
        <ele>207.7</ele>
        <time>2015-04-05T16:40:25Z</time>
      </trkpt>
      <trkpt lat="44.04858" lon="2.75473">
        <ele>207.6</ele>
        <time>2015-04-05T16:41:15Z</time>
      </trkpt>
      <trkpt lat="44.04846" lon="2.75469">
        <ele>207.6</ele>
        <time>2015-04-05T16:41:20Z</time>
      </trkpt>
      <trkpt lat="44.04855" lon="2.75462">
        <ele>207.4</ele>
        <time>2015-04-05T16:41:54Z</time>
      </trkpt>
      <trkpt lat="44.04867" lon="2.75457">
        <ele>207.4</ele>
        <time>2015-04-05T16:42:24Z</time>
      </trkpt>
      <trkpt lat="44.04876" lon="2.75456">
        <ele>207.2</ele>
        <time>2015-04-05T16:42:32Z</time>
      </trkpt>
      <trkpt lat="44.04885" lon="2.75456">
        <ele>206.9</ele>
        <time>2015-04-05T16:42:43Z</time>
      </trkpt>
      <trkpt lat="44.04894" lon="2.75458">
        <ele>206.7</ele>
        <time>2015-04-05T16:42:54Z</time>
      </trkpt>
      <trkpt lat="44.0488" lon="2.75467">
        <ele>206.2</ele>
        <time>2015-04-05T16:43:23Z</time>
      </trkpt>
      <trkpt lat="44.04872" lon="2.75474">
        <ele>205.3</ele>
        <time>2015-04-05T16:45:32Z</time>
      </trkpt>
      <trkpt lat="44.04865" lon="2.75483">
        <ele>205.3</ele>
        <time>2015-04-05T16:45:40Z</time>
      </trkpt>
      <trkpt lat="44.04878" lon="2.75457">
        <ele>200.5</ele>
        <time>2015-04-05T16:45:58Z</time>
      </trkpt>
      <trkpt lat="44.04874" lon="2.75469">
        <ele>198.1</ele>
        <time>2015-04-05T16:46:04Z</time>
      </trkpt>
      <trkpt lat="44.04886" lon="2.75466">
        <ele>198.6</ele>
        <time>2015-04-05T16:46:19Z</time>
      </trkpt>
      <trkpt lat="44.04881" lon="2.75476">
        <ele>199.9</ele>
        <time>2015-04-05T16:46:30Z</time>
      </trkpt>
      <trkpt lat="44.04872" lon="2.75472">
        <ele>205.7</ele>
        <time>2015-04-05T16:47:06Z</time>
      </trkpt>
      <trkpt lat="44.04873" lon="2.75486">
        <ele>217.9</ele>
        <time>2015-04-05T16:47:50Z</time>
      </trkpt>
      <trkpt lat="44.0487" lon="2.75498">
        <ele>218.2</ele>
        <time>2015-04-05T16:48:02Z</time>
      </trkpt>
      <trkpt lat="44.04871" lon="2.75511">
        <ele>218.7</ele>
        <time>2015-04-05T16:48:06Z</time>
      </trkpt>
      <trkpt lat="44.04873" lon="2.75524">
        <ele>219.2</ele>
        <time>2015-04-05T16:48:09Z</time>
      </trkpt>
      <trkpt lat="44.04879" lon="2.75536">
        <ele>219.5</ele>
        <time>2015-04-05T16:48:12Z</time>
      </trkpt>
      <trkpt lat="44.04886" lon="2.75553">
        <ele>219.5</ele>
        <time>2015-04-05T16:48:15Z</time>
      </trkpt>
      <trkpt lat="44.04892" lon="2.75566">
        <ele>219.4</ele>
        <time>2015-04-05T16:48:17Z</time>
      </trkpt>
      <trkpt lat="44.04897" lon="2.75579">
        <ele>219.4</ele>
        <time>2015-04-05T16:48:19Z</time>
      </trkpt>
      <trkpt lat="44.04903" lon="2.75592">
        <ele>219.4</ele>
        <time>2015-04-05T16:48:21Z</time>
      </trkpt>
      <trkpt lat="44.04906" lon="2.7561">
        <ele>219.5</ele>
        <time>2015-04-05T16:48:23Z</time>
      </trkpt>
      <trkpt lat="44.04907" lon="2.75627">
        <ele>219.5</ele>
        <time>2015-04-05T16:48:25Z</time>
      </trkpt>
      <trkpt lat="44.04908" lon="2.75646">
        <ele>219.6</ele>
        <time>2015-04-05T16:48:27Z</time>
      </trkpt>
      <trkpt lat="44.04909" lon="2.75664">
        <ele>219.7</ele>
        <time>2015-04-05T16:48:29Z</time>
      </trkpt>
      <trkpt lat="44.0491" lon="2.7568">
        <ele>219.8</ele>
        <time>2015-04-05T16:48:31Z</time>
      </trkpt>
      <trkpt lat="44.04911" lon="2.75696">
        <ele>219.8</ele>
        <time>2015-04-05T16:48:33Z</time>
      </trkpt>
      <trkpt lat="44.04913" lon="2.75714">
        <ele>219.5</ele>
        <time>2015-04-05T16:48:35Z</time>
      </trkpt>
      <trkpt lat="44.04914" lon="2.7573">
        <ele>219.3</ele>
        <time>2015-04-05T16:48:37Z</time>
      </trkpt>
      <trkpt lat="44.04914" lon="2.75746">
        <ele>219.1</ele>
        <time>2015-04-05T16:48:39Z</time>
      </trkpt>
      <trkpt lat="44.04913" lon="2.75761">
        <ele>219</ele>
        <time>2015-04-05T16:48:41Z</time>
      </trkpt>
      <trkpt lat="44.04912" lon="2.75775">
        <ele>218.9</ele>
        <time>2015-04-05T16:48:43Z</time>
      </trkpt>
      <trkpt lat="44.04911" lon="2.7579">
        <ele>218.9</ele>
        <time>2015-04-05T16:48:45Z</time>
      </trkpt>
      <trkpt lat="44.04909" lon="2.75805">
        <ele>218.9</ele>
        <time>2015-04-05T16:48:47Z</time>
      </trkpt>
      <trkpt lat="44.04908" lon="2.7582">
        <ele>219</ele>
        <time>2015-04-05T16:48:49Z</time>
      </trkpt>
      <trkpt lat="44.04908" lon="2.75835">
        <ele>219</ele>
        <time>2015-04-05T16:48:51Z</time>
      </trkpt>
      <trkpt lat="44.04906" lon="2.7585">
        <ele>219</ele>
        <time>2015-04-05T16:48:53Z</time>
      </trkpt>
      <trkpt lat="44.04906" lon="2.75865">
        <ele>219</ele>
        <time>2015-04-05T16:48:55Z</time>
      </trkpt>
      <trkpt lat="44.04905" lon="2.75881">
        <ele>219.1</ele>
        <time>2015-04-05T16:48:57Z</time>
      </trkpt>
      <trkpt lat="44.04904" lon="2.75895">
        <ele>219.2</ele>
        <time>2015-04-05T16:48:59Z</time>
      </trkpt>
      <trkpt lat="44.04904" lon="2.7591">
        <ele>219.4</ele>
        <time>2015-04-05T16:49:01Z</time>
      </trkpt>
      <trkpt lat="44.04904" lon="2.75925">
        <ele>219.5</ele>
        <time>2015-04-05T16:49:03Z</time>
      </trkpt>
      <trkpt lat="44.04906" lon="2.75941">
        <ele>219.4</ele>
        <time>2015-04-05T16:49:05Z</time>
      </trkpt>
      <trkpt lat="44.04909" lon="2.75956">
        <ele>219.5</ele>
        <time>2015-04-05T16:49:07Z</time>
      </trkpt>
      <trkpt lat="44.04913" lon="2.75973">
        <ele>219.1</ele>
        <time>2015-04-05T16:49:09Z</time>
      </trkpt>
      <trkpt lat="44.04917" lon="2.75985">
        <ele>219.1</ele>
        <time>2015-04-05T16:49:11Z</time>
      </trkpt>
      <trkpt lat="44.04922" lon="2.75995">
        <ele>219.2</ele>
        <time>2015-04-05T16:49:13Z</time>
      </trkpt>
      <trkpt lat="44.04927" lon="2.76012">
        <ele>219.2</ele>
        <time>2015-04-05T16:49:16Z</time>
      </trkpt>
      <trkpt lat="44.04932" lon="2.76026">
        <ele>219.4</ele>
        <time>2015-04-05T16:49:19Z</time>
      </trkpt>
      <trkpt lat="44.04936" lon="2.76038">
        <ele>219.9</ele>
        <time>2015-04-05T16:49:22Z</time>
      </trkpt>
      <trkpt lat="44.04941" lon="2.7605">
        <ele>220.2</ele>
        <time>2015-04-05T16:49:25Z</time>
      </trkpt>
      <trkpt lat="44.04946" lon="2.76064">
        <ele>219.8</ele>
        <time>2015-04-05T16:49:28Z</time>
      </trkpt>
      <trkpt lat="44.04951" lon="2.76077">
        <ele>219.2</ele>
        <time>2015-04-05T16:49:31Z</time>
      </trkpt>
      <trkpt lat="44.04956" lon="2.76092">
        <ele>218.8</ele>
        <time>2015-04-05T16:49:35Z</time>
      </trkpt>
      <trkpt lat="44.04961" lon="2.76102">
        <ele>218.7</ele>
        <time>2015-04-05T16:49:38Z</time>
      </trkpt>
      <trkpt lat="44.04967" lon="2.76112">
        <ele>218.3</ele>
        <time>2015-04-05T16:49:41Z</time>
      </trkpt>
      <trkpt lat="44.04974" lon="2.76124">
        <ele>217.9</ele>
        <time>2015-04-05T16:49:45Z</time>
      </trkpt>
      <trkpt lat="44.04978" lon="2.76137">
        <ele>218</ele>
        <time>2015-04-05T16:49:49Z</time>
      </trkpt>
      <trkpt lat="44.04981" lon="2.76149">
        <ele>219.2</ele>
        <time>2015-04-05T16:49:53Z</time>
      </trkpt>
      <trkpt lat="44.04981" lon="2.76165">
        <ele>220.1</ele>
        <time>2015-04-05T16:49:57Z</time>
      </trkpt>
      <trkpt lat="44.04977" lon="2.76179">
        <ele>220.1</ele>
        <time>2015-04-05T16:50:01Z</time>
      </trkpt>
      <trkpt lat="44.04971" lon="2.7619">
        <ele>220.1</ele>
        <time>2015-04-05T16:50:04Z</time>
      </trkpt>
      <trkpt lat="44.04964" lon="2.76201">
        <ele>219.8</ele>
        <time>2015-04-05T16:50:07Z</time>
      </trkpt>
      <trkpt lat="44.04958" lon="2.76214">
        <ele>219.7</ele>
        <time>2015-04-05T16:50:10Z</time>
      </trkpt>
      <trkpt lat="44.04951" lon="2.76227">
        <ele>219.6</ele>
        <time>2015-04-05T16:50:13Z</time>
      </trkpt>
      <trkpt lat="44.04944" lon="2.76239">
        <ele>219.5</ele>
        <time>2015-04-05T16:50:16Z</time>
      </trkpt>
      <trkpt lat="44.04938" lon="2.7625">
        <ele>219.6</ele>
        <time>2015-04-05T16:50:20Z</time>
      </trkpt>
      <trkpt lat="44.04932" lon="2.76263">
        <ele>218.2</ele>
        <time>2015-04-05T16:50:37Z</time>
      </trkpt>
      <trkpt lat="44.04925" lon="2.76276">
        <ele>217.8</ele>
        <time>2015-04-05T16:50:40Z</time>
      </trkpt>
      <trkpt lat="44.04917" lon="2.76289">
        <ele>217.5</ele>
        <time>2015-04-05T16:50:43Z</time>
      </trkpt>
      <trkpt lat="44.04915" lon="2.76305">
        <ele>217.5</ele>
        <time>2015-04-05T16:50:46Z</time>
      </trkpt>
      <trkpt lat="44.04917" lon="2.76319">
        <ele>217.5</ele>
        <time>2015-04-05T16:50:49Z</time>
      </trkpt>
      <trkpt lat="44.04923" lon="2.76334">
        <ele>217.4</ele>
        <time>2015-04-05T16:50:52Z</time>
      </trkpt>
      <trkpt lat="44.0493" lon="2.76348">
        <ele>217.3</ele>
        <time>2015-04-05T16:50:55Z</time>
      </trkpt>
      <trkpt lat="44.04941" lon="2.76359">
        <ele>217.4</ele>
        <time>2015-04-05T16:50:58Z</time>
      </trkpt>
      <trkpt lat="44.04951" lon="2.76371">
        <ele>217.4</ele>
        <time>2015-04-05T16:51:01Z</time>
      </trkpt>
      <trkpt lat="44.04959" lon="2.76378">
        <ele>217.5</ele>
        <time>2015-04-05T16:51:03Z</time>
      </trkpt>
      <trkpt lat="44.04967" lon="2.76385">
        <ele>217.6</ele>
        <time>2015-04-05T16:51:05Z</time>
      </trkpt>
      <trkpt lat="44.04976" lon="2.76392">
        <ele>217.7</ele>
        <time>2015-04-05T16:51:07Z</time>
      </trkpt>
      <trkpt lat="44.04984" lon="2.76398">
        <ele>217.7</ele>
        <time>2015-04-05T16:51:09Z</time>
      </trkpt>
      <trkpt lat="44.04994" lon="2.76406">
        <ele>217.8</ele>
        <time>2015-04-05T16:51:11Z</time>
      </trkpt>
      <trkpt lat="44.05003" lon="2.76411">
        <ele>217.8</ele>
        <time>2015-04-05T16:51:13Z</time>
      </trkpt>
      <trkpt lat="44.05011" lon="2.76417">
        <ele>217.8</ele>
        <time>2015-04-05T16:51:15Z</time>
      </trkpt>
      <trkpt lat="44.0502" lon="2.76422">
        <ele>217.7</ele>
        <time>2015-04-05T16:51:17Z</time>
      </trkpt>
      <trkpt lat="44.0503" lon="2.76426">
        <ele>217.8</ele>
        <time>2015-04-05T16:51:19Z</time>
      </trkpt>
      <trkpt lat="44.0504" lon="2.7643">
        <ele>218</ele>
        <time>2015-04-05T16:51:21Z</time>
      </trkpt>
      <trkpt lat="44.05049" lon="2.76432">
        <ele>218.1</ele>
        <time>2015-04-05T16:51:23Z</time>
      </trkpt>
      <trkpt lat="44.05058" lon="2.76435">
        <ele>218.2</ele>
        <time>2015-04-05T16:51:25Z</time>
      </trkpt>
      <trkpt lat="44.05071" lon="2.76438">
        <ele>218.3</ele>
        <time>2015-04-05T16:51:28Z</time>
      </trkpt>
      <trkpt lat="44.0508" lon="2.76439">
        <ele>218.4</ele>
        <time>2015-04-05T16:51:30Z</time>
      </trkpt>
      <trkpt lat="44.05089" lon="2.76441">
        <ele>218.5</ele>
        <time>2015-04-05T16:51:32Z</time>
      </trkpt>
      <trkpt lat="44.05099" lon="2.76443">
        <ele>218.7</ele>
        <time>2015-04-05T16:51:34Z</time>
      </trkpt>
      <trkpt lat="44.05108" lon="2.76447">
        <ele>218.8</ele>
        <time>2015-04-05T16:51:36Z</time>
      </trkpt>
      <trkpt lat="44.05118" lon="2.76453">
        <ele>218.9</ele>
        <time>2015-04-05T16:51:38Z</time>
      </trkpt>
      <trkpt lat="44.05126" lon="2.7646">
        <ele>219.1</ele>
        <time>2015-04-05T16:51:40Z</time>
      </trkpt>
      <trkpt lat="44.05137" lon="2.76469">
        <ele>219.2</ele>
        <time>2015-04-05T16:51:43Z</time>
      </trkpt>
      <trkpt lat="44.05146" lon="2.76482">
        <ele>218.9</ele>
        <time>2015-04-05T16:51:46Z</time>
      </trkpt>
      <trkpt lat="44.05154" lon="2.76494">
        <ele>218.7</ele>
        <time>2015-04-05T16:51:48Z</time>
      </trkpt>
      <trkpt lat="44.05159" lon="2.76505">
        <ele>218.8</ele>
        <time>2015-04-05T16:51:50Z</time>
      </trkpt>
      <trkpt lat="44.05166" lon="2.76516">
        <ele>219</ele>
        <time>2015-04-05T16:51:52Z</time>
      </trkpt>
      <trkpt lat="44.05172" lon="2.76528">
        <ele>219.1</ele>
        <time>2015-04-05T16:51:54Z</time>
      </trkpt>
      <trkpt lat="44.05178" lon="2.76538">
        <ele>219.3</ele>
        <time>2015-04-05T16:51:56Z</time>
      </trkpt>
      <trkpt lat="44.05184" lon="2.76548">
        <ele>219.5</ele>
        <time>2015-04-05T16:51:58Z</time>
      </trkpt>
      <trkpt lat="44.05188" lon="2.7656">
        <ele>220</ele>
        <time>2015-04-05T16:52:00Z</time>
      </trkpt>
      <trkpt lat="44.0519" lon="2.76574">
        <ele>220.5</ele>
        <time>2015-04-05T16:52:03Z</time>
      </trkpt>
      <trkpt lat="44.05189" lon="2.76589">
        <ele>221</ele>
        <time>2015-04-05T16:52:07Z</time>
      </trkpt>
      <trkpt lat="44.05185" lon="2.76604">
        <ele>221.9</ele>
        <time>2015-04-05T16:52:11Z</time>
      </trkpt>
      <trkpt lat="44.05182" lon="2.76617">
        <ele>222.7</ele>
        <time>2015-04-05T16:52:14Z</time>
      </trkpt>
      <trkpt lat="44.0518" lon="2.76632">
        <ele>223.3</ele>
        <time>2015-04-05T16:52:18Z</time>
      </trkpt>
      <trkpt lat="44.05176" lon="2.76646">
        <ele>224.1</ele>
        <time>2015-04-05T16:52:22Z</time>
      </trkpt>
      <trkpt lat="44.05171" lon="2.7666">
        <ele>224.4</ele>
        <time>2015-04-05T16:52:26Z</time>
      </trkpt>
      <trkpt lat="44.05164" lon="2.76673">
        <ele>224.5</ele>
        <time>2015-04-05T16:52:30Z</time>
      </trkpt>
      <trkpt lat="44.05156" lon="2.76685">
        <ele>224.6</ele>
        <time>2015-04-05T16:52:34Z</time>
      </trkpt>
      <trkpt lat="44.05147" lon="2.76695">
        <ele>225.2</ele>
        <time>2015-04-05T16:52:38Z</time>
      </trkpt>
      <trkpt lat="44.05139" lon="2.76706">
        <ele>225.5</ele>
        <time>2015-04-05T16:52:42Z</time>
      </trkpt>
      <trkpt lat="44.05131" lon="2.76716">
        <ele>226.4</ele>
        <time>2015-04-05T16:52:46Z</time>
      </trkpt>
      <trkpt lat="44.05124" lon="2.76727">
        <ele>227.3</ele>
        <time>2015-04-05T16:52:50Z</time>
      </trkpt>
      <trkpt lat="44.05119" lon="2.7674">
        <ele>228.2</ele>
        <time>2015-04-05T16:52:53Z</time>
      </trkpt>
      <trkpt lat="44.05114" lon="2.76752">
        <ele>229.1</ele>
        <time>2015-04-05T16:52:57Z</time>
      </trkpt>
      <trkpt lat="44.0511" lon="2.76766">
        <ele>230.1</ele>
        <time>2015-04-05T16:53:01Z</time>
      </trkpt>
      <trkpt lat="44.05107" lon="2.76781">
        <ele>230.8</ele>
        <time>2015-04-05T16:53:06Z</time>
      </trkpt>
      <trkpt lat="44.05105" lon="2.76795">
        <ele>231.2</ele>
        <time>2015-04-05T16:53:11Z</time>
      </trkpt>
      <trkpt lat="44.05102" lon="2.76808">
        <ele>231.9</ele>
        <time>2015-04-05T16:53:16Z</time>
      </trkpt>
      <trkpt lat="44.05096" lon="2.7682">
        <ele>233</ele>
        <time>2015-04-05T16:53:22Z</time>
      </trkpt>
      <trkpt lat="44.05094" lon="2.76833">
        <ele>232.8</ele>
        <time>2015-04-05T16:53:26Z</time>
      </trkpt>
      <trkpt lat="44.05086" lon="2.76843">
        <ele>233.1</ele>
        <time>2015-04-05T16:53:32Z</time>
      </trkpt>
      <trkpt lat="44.05077" lon="2.76848">
        <ele>233.7</ele>
        <time>2015-04-05T16:53:37Z</time>
      </trkpt>
      <trkpt lat="44.05069" lon="2.76857">
        <ele>234.4</ele>
        <time>2015-04-05T16:53:43Z</time>
      </trkpt>
      <trkpt lat="44.05059" lon="2.76862">
        <ele>235.6</ele>
        <time>2015-04-05T16:53:49Z</time>
      </trkpt>
      <trkpt lat="44.05052" lon="2.7687">
        <ele>236.1</ele>
        <time>2015-04-05T16:53:55Z</time>
      </trkpt>
      <trkpt lat="44.05044" lon="2.76878">
        <ele>236.6</ele>
        <time>2015-04-05T16:54:00Z</time>
      </trkpt>
      <trkpt lat="44.05035" lon="2.76885">
        <ele>237.1</ele>
        <time>2015-04-05T16:54:06Z</time>
      </trkpt>
      <trkpt lat="44.05026" lon="2.76894">
        <ele>237.7</ele>
        <time>2015-04-05T16:54:11Z</time>
      </trkpt>
      <trkpt lat="44.05019" lon="2.76903">
        <ele>238.5</ele>
        <time>2015-04-05T16:54:17Z</time>
      </trkpt>
      <trkpt lat="44.0501" lon="2.76909">
        <ele>238.9</ele>
        <time>2015-04-05T16:54:23Z</time>
      </trkpt>
      <trkpt lat="44.05001" lon="2.76913">
        <ele>240.2</ele>
        <time>2015-04-05T16:54:29Z</time>
      </trkpt>
      <trkpt lat="44.04992" lon="2.76916">
        <ele>241</ele>
        <time>2015-04-05T16:54:33Z</time>
      </trkpt>
      <trkpt lat="44.04983" lon="2.76922">
        <ele>241</ele>
        <time>2015-04-05T16:54:39Z</time>
      </trkpt>
      <trkpt lat="44.04975" lon="2.76929">
        <ele>241.7</ele>
        <time>2015-04-05T16:54:44Z</time>
      </trkpt>
      <trkpt lat="44.04967" lon="2.76937">
        <ele>242.2</ele>
        <time>2015-04-05T16:54:48Z</time>
      </trkpt>
      <trkpt lat="44.0496" lon="2.76945">
        <ele>242.3</ele>
        <time>2015-04-05T16:54:52Z</time>
      </trkpt>
      <trkpt lat="44.04953" lon="2.76954">
        <ele>242.8</ele>
        <time>2015-04-05T16:54:56Z</time>
      </trkpt>
      <trkpt lat="44.04946" lon="2.76963">
        <ele>243.8</ele>
        <time>2015-04-05T16:55:00Z</time>
      </trkpt>
      <trkpt lat="44.04939" lon="2.76974">
        <ele>244</ele>
        <time>2015-04-05T16:55:06Z</time>
      </trkpt>
      <trkpt lat="44.04936" lon="2.76987">
        <ele>245.3</ele>
        <time>2015-04-05T16:55:11Z</time>
      </trkpt>
      <trkpt lat="44.04932" lon="2.77">
        <ele>247.3</ele>
        <time>2015-04-05T16:55:17Z</time>
      </trkpt>
      <trkpt lat="44.04931" lon="2.77013">
        <ele>248.7</ele>
        <time>2015-04-05T16:55:23Z</time>
      </trkpt>
      <trkpt lat="44.04929" lon="2.77027">
        <ele>250.8</ele>
        <time>2015-04-05T16:55:29Z</time>
      </trkpt>
      <trkpt lat="44.04926" lon="2.77039">
        <ele>253.9</ele>
        <time>2015-04-05T16:55:37Z</time>
      </trkpt>
      <trkpt lat="44.04925" lon="2.77053">
        <ele>255.6</ele>
        <time>2015-04-05T16:55:43Z</time>
      </trkpt>
      <trkpt lat="44.04924" lon="2.77066">
        <ele>257.1</ele>
        <time>2015-04-05T16:55:49Z</time>
      </trkpt>
      <trkpt lat="44.04923" lon="2.77079">
        <ele>259.8</ele>
        <time>2015-04-05T16:55:56Z</time>
      </trkpt>
      <trkpt lat="44.04923" lon="2.77094">
        <ele>263.8</ele>
        <time>2015-04-05T16:56:05Z</time>
      </trkpt>
      <trkpt lat="44.04928" lon="2.77107">
        <ele>264.6</ele>
        <time>2015-04-05T16:56:11Z</time>
      </trkpt>
      <trkpt lat="44.04933" lon="2.7712">
        <ele>264.9</ele>
        <time>2015-04-05T16:56:16Z</time>
      </trkpt>
      <trkpt lat="44.04938" lon="2.77133">
        <ele>264.7</ele>
        <time>2015-04-05T16:56:21Z</time>
      </trkpt>
      <trkpt lat="44.04944" lon="2.77146">
        <ele>264.4</ele>
        <time>2015-04-05T16:56:26Z</time>
      </trkpt>
      <trkpt lat="44.04947" lon="2.77159">
        <ele>264.9</ele>
        <time>2015-04-05T16:56:30Z</time>
      </trkpt>
      <trkpt lat="44.04951" lon="2.7717">
        <ele>265.7</ele>
        <time>2015-04-05T16:56:34Z</time>
      </trkpt>
      <trkpt lat="44.04953" lon="2.77184">
        <ele>266.8</ele>
        <time>2015-04-05T16:56:40Z</time>
      </trkpt>
      <trkpt lat="44.04951" lon="2.77199">
        <ele>269.3</ele>
        <time>2015-04-05T16:56:45Z</time>
      </trkpt>
      <trkpt lat="44.0495" lon="2.77213">
        <ele>271.4</ele>
        <time>2015-04-05T16:56:50Z</time>
      </trkpt>
      <trkpt lat="44.04948" lon="2.77227">
        <ele>273.4</ele>
        <time>2015-04-05T16:56:55Z</time>
      </trkpt>
      <trkpt lat="44.04945" lon="2.77241">
        <ele>275.2</ele>
        <time>2015-04-05T16:57:01Z</time>
      </trkpt>
      <trkpt lat="44.04941" lon="2.77255">
        <ele>277.4</ele>
        <time>2015-04-05T16:57:06Z</time>
      </trkpt>
      <trkpt lat="44.04938" lon="2.77268">
        <ele>279.2</ele>
        <time>2015-04-05T16:57:10Z</time>
      </trkpt>
      <trkpt lat="44.04935" lon="2.77281">
        <ele>280.5</ele>
        <time>2015-04-05T16:57:14Z</time>
      </trkpt>
      <trkpt lat="44.04932" lon="2.77294">
        <ele>281.9</ele>
        <time>2015-04-05T16:57:19Z</time>
      </trkpt>
      <trkpt lat="44.0493" lon="2.77308">
        <ele>283.1</ele>
        <time>2015-04-05T16:57:25Z</time>
      </trkpt>
      <trkpt lat="44.04931" lon="2.77321">
        <ele>283.7</ele>
        <time>2015-04-05T16:57:31Z</time>
      </trkpt>
      <trkpt lat="44.04935" lon="2.77334">
        <ele>284.1</ele>
        <time>2015-04-05T16:57:36Z</time>
      </trkpt>
      <trkpt lat="44.04936" lon="2.77346">
        <ele>283.9</ele>
        <time>2015-04-05T16:57:41Z</time>
      </trkpt>
      <trkpt lat="44.04936" lon="2.77361">
        <ele>284.6</ele>
        <time>2015-04-05T16:57:46Z</time>
      </trkpt>
      <trkpt lat="44.04936" lon="2.77376">
        <ele>284.8</ele>
        <time>2015-04-05T16:57:52Z</time>
      </trkpt>
      <trkpt lat="44.04936" lon="2.77389">
        <ele>285.6</ele>
        <time>2015-04-05T16:57:58Z</time>
      </trkpt>
      <trkpt lat="44.04935" lon="2.77402">
        <ele>287.4</ele>
        <time>2015-04-05T16:58:04Z</time>
      </trkpt>
      <trkpt lat="44.04936" lon="2.77415">
        <ele>288.5</ele>
        <time>2015-04-05T16:58:09Z</time>
      </trkpt>
      <trkpt lat="44.04935" lon="2.77428">
        <ele>289.7</ele>
        <time>2015-04-05T16:58:14Z</time>
      </trkpt>
      <trkpt lat="44.04934" lon="2.77441">
        <ele>290.4</ele>
        <time>2015-04-05T16:58:19Z</time>
      </trkpt>
      <trkpt lat="44.04931" lon="2.77455">
        <ele>291.8</ele>
        <time>2015-04-05T16:58:25Z</time>
      </trkpt>
      <trkpt lat="44.04928" lon="2.77468">
        <ele>293.1</ele>
        <time>2015-04-05T16:58:30Z</time>
      </trkpt>
      <trkpt lat="44.04924" lon="2.7748">
        <ele>294.7</ele>
        <time>2015-04-05T16:58:35Z</time>
      </trkpt>
      <trkpt lat="44.04919" lon="2.77491">
        <ele>296.3</ele>
        <time>2015-04-05T16:58:41Z</time>
      </trkpt>
      <trkpt lat="44.04912" lon="2.77499">
        <ele>297.5</ele>
        <time>2015-04-05T16:58:47Z</time>
      </trkpt>
      <trkpt lat="44.04903" lon="2.77505">
        <ele>299.2</ele>
        <time>2015-04-05T16:58:53Z</time>
      </trkpt>
      <trkpt lat="44.04893" lon="2.77508">
        <ele>300.9</ele>
        <time>2015-04-05T16:58:58Z</time>
      </trkpt>
      <trkpt lat="44.04885" lon="2.77515">
        <ele>303</ele>
        <time>2015-04-05T16:59:03Z</time>
      </trkpt>
      <trkpt lat="44.04879" lon="2.77527">
        <ele>305.1</ele>
        <time>2015-04-05T16:59:07Z</time>
      </trkpt>
      <trkpt lat="44.04873" lon="2.77538">
        <ele>307</ele>
        <time>2015-04-05T16:59:11Z</time>
      </trkpt>
      <trkpt lat="44.04867" lon="2.7755">
        <ele>309.1</ele>
        <time>2015-04-05T16:59:16Z</time>
      </trkpt>
      <trkpt lat="44.04862" lon="2.77564">
        <ele>312.4</ele>
        <time>2015-04-05T16:59:22Z</time>
      </trkpt>
      <trkpt lat="44.0486" lon="2.77579">
        <ele>314.5</ele>
        <time>2015-04-05T16:59:27Z</time>
      </trkpt>
      <trkpt lat="44.0486" lon="2.77593">
        <ele>316.3</ele>
        <time>2015-04-05T16:59:32Z</time>
      </trkpt>
      <trkpt lat="44.04861" lon="2.77606">
        <ele>317.8</ele>
        <time>2015-04-05T16:59:37Z</time>
      </trkpt>
      <trkpt lat="44.04861" lon="2.7762">
        <ele>318.4</ele>
        <time>2015-04-05T16:59:41Z</time>
      </trkpt>
      <trkpt lat="44.04862" lon="2.77634">
        <ele>320.1</ele>
        <time>2015-04-05T16:59:47Z</time>
      </trkpt>
      <trkpt lat="44.04862" lon="2.77648">
        <ele>321.5</ele>
        <time>2015-04-05T16:59:52Z</time>
      </trkpt>
      <trkpt lat="44.04863" lon="2.77662">
        <ele>322.2</ele>
        <time>2015-04-05T16:59:57Z</time>
      </trkpt>
      <trkpt lat="44.04864" lon="2.77677">
        <ele>323.6</ele>
        <time>2015-04-05T17:00:03Z</time>
      </trkpt>
      <trkpt lat="44.04866" lon="2.77689">
        <ele>324.2</ele>
        <time>2015-04-05T17:00:08Z</time>
      </trkpt>
      <trkpt lat="44.04867" lon="2.77702">
        <ele>324.4</ele>
        <time>2015-04-05T17:00:12Z</time>
      </trkpt>
      <trkpt lat="44.04867" lon="2.77715">
        <ele>325.1</ele>
        <time>2015-04-05T17:00:17Z</time>
      </trkpt>
      <trkpt lat="44.04869" lon="2.77727">
        <ele>326.4</ele>
        <time>2015-04-05T17:00:22Z</time>
      </trkpt>
      <trkpt lat="44.04868" lon="2.7774">
        <ele>327.5</ele>
        <time>2015-04-05T17:00:27Z</time>
      </trkpt>
      <trkpt lat="44.04868" lon="2.77753">
        <ele>328.3</ele>
        <time>2015-04-05T17:00:32Z</time>
      </trkpt>
      <trkpt lat="44.04864" lon="2.77766">
        <ele>329.5</ele>
        <time>2015-04-05T17:00:38Z</time>
      </trkpt>
      <trkpt lat="44.04858" lon="2.77775">
        <ele>331</ele>
        <time>2015-04-05T17:00:44Z</time>
      </trkpt>
      <trkpt lat="44.0485" lon="2.77784">
        <ele>332.5</ele>
        <time>2015-04-05T17:00:51Z</time>
      </trkpt>
      <trkpt lat="44.04843" lon="2.77796">
        <ele>333.8</ele>
        <time>2015-04-05T17:00:57Z</time>
      </trkpt>
      <trkpt lat="44.04837" lon="2.77806">
        <ele>335</ele>
        <time>2015-04-05T17:01:03Z</time>
      </trkpt>
      <trkpt lat="44.04833" lon="2.77819">
        <ele>336.1</ele>
        <time>2015-04-05T17:01:08Z</time>
      </trkpt>
      <trkpt lat="44.04829" lon="2.7783">
        <ele>336.9</ele>
        <time>2015-04-05T17:01:13Z</time>
      </trkpt>
      <trkpt lat="44.04826" lon="2.77842">
        <ele>337.4</ele>
        <time>2015-04-05T17:01:18Z</time>
      </trkpt>
      <trkpt lat="44.04825" lon="2.77855">
        <ele>338.4</ele>
        <time>2015-04-05T17:01:22Z</time>
      </trkpt>
      <trkpt lat="44.04824" lon="2.77869">
        <ele>339.1</ele>
        <time>2015-04-05T17:01:27Z</time>
      </trkpt>
      <trkpt lat="44.04824" lon="2.77884">
        <ele>339.6</ele>
        <time>2015-04-05T17:01:32Z</time>
      </trkpt>
      <trkpt lat="44.0482" lon="2.77899">
        <ele>340.7</ele>
        <time>2015-04-05T17:01:38Z</time>
      </trkpt>
      <trkpt lat="44.04817" lon="2.77911">
        <ele>341</ele>
        <time>2015-04-05T17:01:43Z</time>
      </trkpt>
      <trkpt lat="44.04812" lon="2.77923">
        <ele>341.7</ele>
        <time>2015-04-05T17:01:49Z</time>
      </trkpt>
      <trkpt lat="44.04806" lon="2.77935">
        <ele>343.1</ele>
        <time>2015-04-05T17:01:55Z</time>
      </trkpt>
      <trkpt lat="44.04801" lon="2.77946">
        <ele>344.3</ele>
        <time>2015-04-05T17:02:00Z</time>
      </trkpt>
      <trkpt lat="44.04794" lon="2.77956">
        <ele>345.4</ele>
        <time>2015-04-05T17:02:06Z</time>
      </trkpt>
      <trkpt lat="44.04787" lon="2.77966">
        <ele>346.7</ele>
        <time>2015-04-05T17:02:12Z</time>
      </trkpt>
      <trkpt lat="44.04781" lon="2.77978">
        <ele>348.2</ele>
        <time>2015-04-05T17:02:17Z</time>
      </trkpt>
      <trkpt lat="44.04775" lon="2.7799">
        <ele>350</ele>
        <time>2015-04-05T17:02:23Z</time>
      </trkpt>
      <trkpt lat="44.0477" lon="2.78002">
        <ele>351</ele>
        <time>2015-04-05T17:02:28Z</time>
      </trkpt>
      <trkpt lat="44.04764" lon="2.78014">
        <ele>352.3</ele>
        <time>2015-04-05T17:02:33Z</time>
      </trkpt>
      <trkpt lat="44.04757" lon="2.78024">
        <ele>352.7</ele>
        <time>2015-04-05T17:02:38Z</time>
      </trkpt>
      <trkpt lat="44.04751" lon="2.78035">
        <ele>351.3</ele>
        <time>2015-04-05T17:02:43Z</time>
      </trkpt>
      <trkpt lat="44.04746" lon="2.78048">
        <ele>351.8</ele>
        <time>2015-04-05T17:02:48Z</time>
      </trkpt>
      <trkpt lat="44.0474" lon="2.78058">
        <ele>351.7</ele>
        <time>2015-04-05T17:02:53Z</time>
      </trkpt>
      <trkpt lat="44.04734" lon="2.78069">
        <ele>351.7</ele>
        <time>2015-04-05T17:02:59Z</time>
      </trkpt>
      <trkpt lat="44.04729" lon="2.7808">
        <ele>352.3</ele>
        <time>2015-04-05T17:03:04Z</time>
      </trkpt>
      <trkpt lat="44.04722" lon="2.78091">
        <ele>353.4</ele>
        <time>2015-04-05T17:03:10Z</time>
      </trkpt>
      <trkpt lat="44.04716" lon="2.78101">
        <ele>354.3</ele>
        <time>2015-04-05T17:03:15Z</time>
      </trkpt>
      <trkpt lat="44.04709" lon="2.78113">
        <ele>355.2</ele>
        <time>2015-04-05T17:03:20Z</time>
      </trkpt>
      <trkpt lat="44.04704" lon="2.78124">
        <ele>356</ele>
        <time>2015-04-05T17:03:25Z</time>
      </trkpt>
      <trkpt lat="44.04699" lon="2.78136">
        <ele>356.2</ele>
        <time>2015-04-05T17:03:31Z</time>
      </trkpt>
      <trkpt lat="44.04696" lon="2.78148">
        <ele>357.3</ele>
        <time>2015-04-05T17:03:36Z</time>
      </trkpt>
      <trkpt lat="44.04691" lon="2.78161">
        <ele>358.2</ele>
        <time>2015-04-05T17:03:42Z</time>
      </trkpt>
      <trkpt lat="44.04685" lon="2.78172">
        <ele>359.6</ele>
        <time>2015-04-05T17:03:48Z</time>
      </trkpt>
      <trkpt lat="44.0468" lon="2.78185">
        <ele>361.8</ele>
        <time>2015-04-05T17:03:54Z</time>
      </trkpt>
      <trkpt lat="44.04674" lon="2.78196">
        <ele>363.9</ele>
        <time>2015-04-05T17:04:00Z</time>
      </trkpt>
      <trkpt lat="44.0467" lon="2.78208">
        <ele>365.6</ele>
        <time>2015-04-05T17:04:05Z</time>
      </trkpt>
      <trkpt lat="44.04666" lon="2.78222">
        <ele>367.3</ele>
        <time>2015-04-05T17:04:10Z</time>
      </trkpt>
      <trkpt lat="44.04663" lon="2.78236">
        <ele>368.3</ele>
        <time>2015-04-05T17:04:15Z</time>
      </trkpt>
      <trkpt lat="44.0466" lon="2.78251">
        <ele>369</ele>
        <time>2015-04-05T17:04:19Z</time>
      </trkpt>
      <trkpt lat="44.04652" lon="2.7826">
        <ele>370.4</ele>
        <time>2015-04-05T17:04:25Z</time>
      </trkpt>
      <trkpt lat="44.04644" lon="2.78268">
        <ele>372.7</ele>
        <time>2015-04-05T17:04:32Z</time>
      </trkpt>
      <trkpt lat="44.04635" lon="2.78274">
        <ele>373.8</ele>
        <time>2015-04-05T17:04:37Z</time>
      </trkpt>
      <trkpt lat="44.04627" lon="2.78279">
        <ele>375.4</ele>
        <time>2015-04-05T17:04:43Z</time>
      </trkpt>
      <trkpt lat="44.04617" lon="2.78288">
        <ele>376.7</ele>
        <time>2015-04-05T17:04:48Z</time>
      </trkpt>
      <trkpt lat="44.04619" lon="2.78302">
        <ele>373.1</ele>
        <time>2015-04-05T17:04:50Z</time>
      </trkpt>
      <trkpt lat="44.0462" lon="2.78315">
        <ele>323.2</ele>
        <time>2015-04-05T17:07:54Z</time>
      </trkpt>
      <trkpt lat="44.04614" lon="2.78327">
        <ele>323</ele>
        <time>2015-04-05T17:08:00Z</time>
      </trkpt>
      <trkpt lat="44.0461" lon="2.78342">
        <ele>322.9</ele>
        <time>2015-04-05T17:08:06Z</time>
      </trkpt>
      <trkpt lat="44.04609" lon="2.78357">
        <ele>322.8</ele>
        <time>2015-04-05T17:08:11Z</time>
      </trkpt>
      <trkpt lat="44.04609" lon="2.78371">
        <ele>322.7</ele>
        <time>2015-04-05T17:08:16Z</time>
      </trkpt>
      <trkpt lat="44.0461" lon="2.78385">
        <ele>322.6</ele>
        <time>2015-04-05T17:08:21Z</time>
      </trkpt>
      <trkpt lat="44.04612" lon="2.784">
        <ele>322.5</ele>
        <time>2015-04-05T17:08:27Z</time>
      </trkpt>
      <trkpt lat="44.04614" lon="2.78413">
        <ele>322.4</ele>
        <time>2015-04-05T17:08:32Z</time>
      </trkpt>
      <trkpt lat="44.04615" lon="2.78426">
        <ele>322.4</ele>
        <time>2015-04-05T17:08:36Z</time>
      </trkpt>
      <trkpt lat="44.04615" lon="2.78439">
        <ele>322.4</ele>
        <time>2015-04-05T17:08:40Z</time>
      </trkpt>
      <trkpt lat="44.04612" lon="2.78451">
        <ele>322.7</ele>
        <time>2015-04-05T17:08:46Z</time>
      </trkpt>
      <trkpt lat="44.04607" lon="2.78463">
        <ele>323.7</ele>
        <time>2015-04-05T17:08:53Z</time>
      </trkpt>
      <trkpt lat="44.04602" lon="2.78475">
        <ele>324.8</ele>
        <time>2015-04-05T17:09:00Z</time>
      </trkpt>
      <trkpt lat="44.04599" lon="2.78487">
        <ele>325.6</ele>
        <time>2015-04-05T17:09:06Z</time>
      </trkpt>
      <trkpt lat="44.04597" lon="2.785">
        <ele>326.9</ele>
        <time>2015-04-05T17:09:12Z</time>
      </trkpt>
      <trkpt lat="44.04597" lon="2.78514">
        <ele>328.1</ele>
        <time>2015-04-05T17:09:18Z</time>
      </trkpt>
      <trkpt lat="44.04596" lon="2.78529">
        <ele>329.4</ele>
        <time>2015-04-05T17:09:24Z</time>
      </trkpt>
      <trkpt lat="44.04596" lon="2.78542">
        <ele>330.4</ele>
        <time>2015-04-05T17:09:29Z</time>
      </trkpt>
      <trkpt lat="44.04597" lon="2.78555">
        <ele>331.3</ele>
        <time>2015-04-05T17:09:34Z</time>
      </trkpt>
      <trkpt lat="44.04596" lon="2.78569">
        <ele>332.5</ele>
        <time>2015-04-05T17:09:40Z</time>
      </trkpt>
      <trkpt lat="44.04596" lon="2.78584">
        <ele>333.6</ele>
        <time>2015-04-05T17:09:46Z</time>
      </trkpt>
      <trkpt lat="44.04595" lon="2.78597">
        <ele>334.7</ele>
        <time>2015-04-05T17:09:51Z</time>
      </trkpt>
      <trkpt lat="44.04593" lon="2.78611">
        <ele>335.5</ele>
        <time>2015-04-05T17:09:57Z</time>
      </trkpt>
      <trkpt lat="44.04593" lon="2.78625">
        <ele>336.7</ele>
        <time>2015-04-05T17:10:03Z</time>
      </trkpt>
      <trkpt lat="44.04593" lon="2.78639">
        <ele>337.6</ele>
        <time>2015-04-05T17:10:08Z</time>
      </trkpt>
      <trkpt lat="44.04593" lon="2.78652">
        <ele>338.3</ele>
        <time>2015-04-05T17:10:12Z</time>
      </trkpt>
      <trkpt lat="44.04593" lon="2.78666">
        <ele>339</ele>
        <time>2015-04-05T17:10:18Z</time>
      </trkpt>
      <trkpt lat="44.04594" lon="2.78681">
        <ele>339.8</ele>
        <time>2015-04-05T17:10:24Z</time>
      </trkpt>
      <trkpt lat="44.04595" lon="2.78694">
        <ele>340.6</ele>
        <time>2015-04-05T17:10:29Z</time>
      </trkpt>
      <trkpt lat="44.04597" lon="2.78709">
        <ele>341.2</ele>
        <time>2015-04-05T17:10:35Z</time>
      </trkpt>
      <trkpt lat="44.04599" lon="2.78721">
        <ele>341.7</ele>
        <time>2015-04-05T17:10:40Z</time>
      </trkpt>
      <trkpt lat="44.04604" lon="2.78734">
        <ele>341.8</ele>
        <time>2015-04-05T17:10:46Z</time>
      </trkpt>
      <trkpt lat="44.04607" lon="2.78746">
        <ele>342.3</ele>
        <time>2015-04-05T17:10:51Z</time>
      </trkpt>
      <trkpt lat="44.0461" lon="2.78759">
        <ele>342.7</ele>
        <time>2015-04-05T17:10:56Z</time>
      </trkpt>
      <trkpt lat="44.04614" lon="2.78771">
        <ele>343.2</ele>
        <time>2015-04-05T17:11:01Z</time>
      </trkpt>
      <trkpt lat="44.04617" lon="2.78783">
        <ele>343.8</ele>
        <time>2015-04-05T17:11:06Z</time>
      </trkpt>
      <trkpt lat="44.0462" lon="2.78795">
        <ele>344.6</ele>
        <time>2015-04-05T17:11:11Z</time>
      </trkpt>
      <trkpt lat="44.04625" lon="2.78809">
        <ele>345.5</ele>
        <time>2015-04-05T17:11:17Z</time>
      </trkpt>
      <trkpt lat="44.04627" lon="2.78823">
        <ele>346.8</ele>
        <time>2015-04-05T17:11:23Z</time>
      </trkpt>
      <trkpt lat="44.0463" lon="2.78837">
        <ele>347.7</ele>
        <time>2015-04-05T17:11:28Z</time>
      </trkpt>
      <trkpt lat="44.04633" lon="2.78849">
        <ele>348.5</ele>
        <time>2015-04-05T17:11:33Z</time>
      </trkpt>
      <trkpt lat="44.04635" lon="2.78863">
        <ele>349.7</ele>
        <time>2015-04-05T17:11:38Z</time>
      </trkpt>
      <trkpt lat="44.04638" lon="2.78876">
        <ele>350.4</ele>
        <time>2015-04-05T17:11:43Z</time>
      </trkpt>
      <trkpt lat="44.0464" lon="2.7889">
        <ele>351.6</ele>
        <time>2015-04-05T17:11:48Z</time>
      </trkpt>
      <trkpt lat="44.04641" lon="2.78904">
        <ele>352.9</ele>
        <time>2015-04-05T17:11:54Z</time>
      </trkpt>
      <trkpt lat="44.04637" lon="2.78916">
        <ele>353.8</ele>
        <time>2015-04-05T17:12:00Z</time>
      </trkpt>
      <trkpt lat="44.04631" lon="2.78926">
        <ele>354.7</ele>
        <time>2015-04-05T17:12:06Z</time>
      </trkpt>
      <trkpt lat="44.04623" lon="2.78933">
        <ele>356</ele>
        <time>2015-04-05T17:12:12Z</time>
      </trkpt>
      <trkpt lat="44.04615" lon="2.78939">
        <ele>356.8</ele>
        <time>2015-04-05T17:12:18Z</time>
      </trkpt>
      <trkpt lat="44.04605" lon="2.78939">
        <ele>358.2</ele>
        <time>2015-04-05T17:12:25Z</time>
      </trkpt>
      <trkpt lat="44.04596" lon="2.78939">
        <ele>360.7</ele>
        <time>2015-04-05T17:12:31Z</time>
      </trkpt>
      <trkpt lat="44.04586" lon="2.7894">
        <ele>361.9</ele>
        <time>2015-04-05T17:12:37Z</time>
      </trkpt>
      <trkpt lat="44.04577" lon="2.78942">
        <ele>363.4</ele>
        <time>2015-04-05T17:12:43Z</time>
      </trkpt>
      <trkpt lat="44.04567" lon="2.78942">
        <ele>364.6</ele>
        <time>2015-04-05T17:12:50Z</time>
      </trkpt>
      <trkpt lat="44.04557" lon="2.78943">
        <ele>366.6</ele>
        <time>2015-04-05T17:12:57Z</time>
      </trkpt>
      <trkpt lat="44.04547" lon="2.78943">
        <ele>368.5</ele>
        <time>2015-04-05T17:13:03Z</time>
      </trkpt>
      <trkpt lat="44.04538" lon="2.78945">
        <ele>370.4</ele>
        <time>2015-04-05T17:13:09Z</time>
      </trkpt>
      <trkpt lat="44.04529" lon="2.78949">
        <ele>371.1</ele>
        <time>2015-04-05T17:13:15Z</time>
      </trkpt>
      <trkpt lat="44.0452" lon="2.78952">
        <ele>371.9</ele>
        <time>2015-04-05T17:13:20Z</time>
      </trkpt>
      <trkpt lat="44.04509" lon="2.78956">
        <ele>372.8</ele>
        <time>2015-04-05T17:13:26Z</time>
      </trkpt>
      <trkpt lat="44.04499" lon="2.7896">
        <ele>373.9</ele>
        <time>2015-04-05T17:13:32Z</time>
      </trkpt>
      <trkpt lat="44.04489" lon="2.78962">
        <ele>375.1</ele>
        <time>2015-04-05T17:13:38Z</time>
      </trkpt>
      <trkpt lat="44.04479" lon="2.7896">
        <ele>376.8</ele>
        <time>2015-04-05T17:13:45Z</time>
      </trkpt>
      <trkpt lat="44.04471" lon="2.78956">
        <ele>378.6</ele>
        <time>2015-04-05T17:13:52Z</time>
      </trkpt>
      <trkpt lat="44.04462" lon="2.78949">
        <ele>380.2</ele>
        <time>2015-04-05T17:13:58Z</time>
      </trkpt>
      <trkpt lat="44.04452" lon="2.78946">
        <ele>381.5</ele>
        <time>2015-04-05T17:14:03Z</time>
      </trkpt>
      <trkpt lat="44.04443" lon="2.78943">
        <ele>382.4</ele>
        <time>2015-04-05T17:14:09Z</time>
      </trkpt>
      <trkpt lat="44.04434" lon="2.78943">
        <ele>382.7</ele>
        <time>2015-04-05T17:14:14Z</time>
      </trkpt>
      <trkpt lat="44.04424" lon="2.78948">
        <ele>382.5</ele>
        <time>2015-04-05T17:14:19Z</time>
      </trkpt>
      <trkpt lat="44.04415" lon="2.78953">
        <ele>382.2</ele>
        <time>2015-04-05T17:14:24Z</time>
      </trkpt>
      <trkpt lat="44.04405" lon="2.7896">
        <ele>381.9</ele>
        <time>2015-04-05T17:14:30Z</time>
      </trkpt>
      <trkpt lat="44.04397" lon="2.78967">
        <ele>381.9</ele>
        <time>2015-04-05T17:14:36Z</time>
      </trkpt>
      <trkpt lat="44.04388" lon="2.78975">
        <ele>382.2</ele>
        <time>2015-04-05T17:14:42Z</time>
      </trkpt>
      <trkpt lat="44.04379" lon="2.78982">
        <ele>382.5</ele>
        <time>2015-04-05T17:14:48Z</time>
      </trkpt>
      <trkpt lat="44.04371" lon="2.7899">
        <ele>382.7</ele>
        <time>2015-04-05T17:14:54Z</time>
      </trkpt>
      <trkpt lat="44.04363" lon="2.78997">
        <ele>383.2</ele>
        <time>2015-04-05T17:15:00Z</time>
      </trkpt>
      <trkpt lat="44.04355" lon="2.79004">
        <ele>383.9</ele>
        <time>2015-04-05T17:15:06Z</time>
      </trkpt>
      <trkpt lat="44.04346" lon="2.79012">
        <ele>384.7</ele>
        <time>2015-04-05T17:15:12Z</time>
      </trkpt>
      <trkpt lat="44.04341" lon="2.79023">
        <ele>385.5</ele>
        <time>2015-04-05T17:15:18Z</time>
      </trkpt>
      <trkpt lat="44.04338" lon="2.79035">
        <ele>386.1</ele>
        <time>2015-04-05T17:15:22Z</time>
      </trkpt>
      <trkpt lat="44.04336" lon="2.79049">
        <ele>387.3</ele>
        <time>2015-04-05T17:15:28Z</time>
      </trkpt>
      <trkpt lat="44.04335" lon="2.79063">
        <ele>388.4</ele>
        <time>2015-04-05T17:15:33Z</time>
      </trkpt>
      <trkpt lat="44.04338" lon="2.79076">
        <ele>388.5</ele>
        <time>2015-04-05T17:15:38Z</time>
      </trkpt>
      <trkpt lat="44.0434" lon="2.7909">
        <ele>388.9</ele>
        <time>2015-04-05T17:15:44Z</time>
      </trkpt>
      <trkpt lat="44.04344" lon="2.79105">
        <ele>389.7</ele>
        <time>2015-04-05T17:15:51Z</time>
      </trkpt>
      <trkpt lat="44.04348" lon="2.79117">
        <ele>390.1</ele>
        <time>2015-04-05T17:15:56Z</time>
      </trkpt>
      <trkpt lat="44.04352" lon="2.7913">
        <ele>390.7</ele>
        <time>2015-04-05T17:16:02Z</time>
      </trkpt>
      <trkpt lat="44.04356" lon="2.79143">
        <ele>391.1</ele>
        <time>2015-04-05T17:16:08Z</time>
      </trkpt>
      <trkpt lat="44.04359" lon="2.79155">
        <ele>391.3</ele>
        <time>2015-04-05T17:16:14Z</time>
      </trkpt>
      <trkpt lat="44.04361" lon="2.79169">
        <ele>391.7</ele>
        <time>2015-04-05T17:16:20Z</time>
      </trkpt>
      <trkpt lat="44.04363" lon="2.79181">
        <ele>392.8</ele>
        <time>2015-04-05T17:16:27Z</time>
      </trkpt>
      <trkpt lat="44.04366" lon="2.79195">
        <ele>394</ele>
        <time>2015-04-05T17:16:35Z</time>
      </trkpt>
      <trkpt lat="44.04371" lon="2.79206">
        <ele>395.3</ele>
        <time>2015-04-05T17:16:42Z</time>
      </trkpt>
      <trkpt lat="44.04377" lon="2.79216">
        <ele>396</ele>
        <time>2015-04-05T17:16:48Z</time>
      </trkpt>
      <trkpt lat="44.04385" lon="2.79224">
        <ele>397.1</ele>
        <time>2015-04-05T17:16:53Z</time>
      </trkpt>
      <trkpt lat="44.04393" lon="2.79231">
        <ele>398.2</ele>
        <time>2015-04-05T17:16:57Z</time>
      </trkpt>
      <trkpt lat="44.04403" lon="2.79237">
        <ele>399.3</ele>
        <time>2015-04-05T17:17:03Z</time>
      </trkpt>
      <trkpt lat="44.04411" lon="2.79241">
        <ele>400.4</ele>
        <time>2015-04-05T17:17:09Z</time>
      </trkpt>
      <trkpt lat="44.04421" lon="2.79245">
        <ele>401.9</ele>
        <time>2015-04-05T17:17:15Z</time>
      </trkpt>
      <trkpt lat="44.0443" lon="2.79249">
        <ele>405</ele>
        <time>2015-04-05T17:17:22Z</time>
      </trkpt>
      <trkpt lat="44.04439" lon="2.7925">
        <ele>407.7</ele>
        <time>2015-04-05T17:17:28Z</time>
      </trkpt>
      <trkpt lat="44.04448" lon="2.79254">
        <ele>410.1</ele>
        <time>2015-04-05T17:17:34Z</time>
      </trkpt>
      <trkpt lat="44.04457" lon="2.79258">
        <ele>411.7</ele>
        <time>2015-04-05T17:17:40Z</time>
      </trkpt>
      <trkpt lat="44.04467" lon="2.7926">
        <ele>411.2</ele>
        <time>2015-04-05T17:17:46Z</time>
      </trkpt>
      <trkpt lat="44.04476" lon="2.79263">
        <ele>410.7</ele>
        <time>2015-04-05T17:17:52Z</time>
      </trkpt>
      <trkpt lat="44.04486" lon="2.79265">
        <ele>410.7</ele>
        <time>2015-04-05T17:17:58Z</time>
      </trkpt>
      <trkpt lat="44.04496" lon="2.79267">
        <ele>411.4</ele>
        <time>2015-04-05T17:18:04Z</time>
      </trkpt>
      <trkpt lat="44.04505" lon="2.7927">
        <ele>410.4</ele>
        <time>2015-04-05T17:18:10Z</time>
      </trkpt>
      <trkpt lat="44.04515" lon="2.79272">
        <ele>409.7</ele>
        <time>2015-04-05T17:18:16Z</time>
      </trkpt>
      <trkpt lat="44.04525" lon="2.79276">
        <ele>408.4</ele>
        <time>2015-04-05T17:18:22Z</time>
      </trkpt>
      <trkpt lat="44.04534" lon="2.79279">
        <ele>408.3</ele>
        <time>2015-04-05T17:18:28Z</time>
      </trkpt>
      <trkpt lat="44.04543" lon="2.79283">
        <ele>408.1</ele>
        <time>2015-04-05T17:18:34Z</time>
      </trkpt>
      <trkpt lat="44.04552" lon="2.79288">
        <ele>407.4</ele>
        <time>2015-04-05T17:18:40Z</time>
      </trkpt>
      <trkpt lat="44.0456" lon="2.79294">
        <ele>407.1</ele>
        <time>2015-04-05T17:18:46Z</time>
      </trkpt>
      <trkpt lat="44.04569" lon="2.79299">
        <ele>407.3</ele>
        <time>2015-04-05T17:18:52Z</time>
      </trkpt>
      <trkpt lat="44.04578" lon="2.79303">
        <ele>407.8</ele>
        <time>2015-04-05T17:18:58Z</time>
      </trkpt>
      <trkpt lat="44.04586" lon="2.7931">
        <ele>407.9</ele>
        <time>2015-04-05T17:19:03Z</time>
      </trkpt>
      <trkpt lat="44.04594" lon="2.79316">
        <ele>409.5</ele>
        <time>2015-04-05T17:19:09Z</time>
      </trkpt>
      <trkpt lat="44.04603" lon="2.7932">
        <ele>410.8</ele>
        <time>2015-04-05T17:19:15Z</time>
      </trkpt>
      <trkpt lat="44.04613" lon="2.79324">
        <ele>412.1</ele>
        <time>2015-04-05T17:19:21Z</time>
      </trkpt>
      <trkpt lat="44.04621" lon="2.79327">
        <ele>412.8</ele>
        <time>2015-04-05T17:19:26Z</time>
      </trkpt>
      <trkpt lat="44.04631" lon="2.79329">
        <ele>413.3</ele>
        <time>2015-04-05T17:19:32Z</time>
      </trkpt>
      <trkpt lat="44.04641" lon="2.79332">
        <ele>414.9</ele>
        <time>2015-04-05T17:19:38Z</time>
      </trkpt>
      <trkpt lat="44.04651" lon="2.79337">
        <ele>416.7</ele>
        <time>2015-04-05T17:19:44Z</time>
      </trkpt>
      <trkpt lat="44.04659" lon="2.79343">
        <ele>418.2</ele>
        <time>2015-04-05T17:19:49Z</time>
      </trkpt>
      <trkpt lat="44.04669" lon="2.79345">
        <ele>421.2</ele>
        <time>2015-04-05T17:19:55Z</time>
      </trkpt>
      <trkpt lat="44.04679" lon="2.79343">
        <ele>424</ele>
        <time>2015-04-05T17:20:01Z</time>
      </trkpt>
      <trkpt lat="44.04689" lon="2.7934">
        <ele>428.4</ele>
        <time>2015-04-05T17:20:07Z</time>
      </trkpt>
      <trkpt lat="44.04698" lon="2.79339">
        <ele>438.2</ele>
        <time>2015-04-05T17:20:14Z</time>
      </trkpt>
      <trkpt lat="44.04708" lon="2.79337">
        <ele>442</ele>
        <time>2015-04-05T17:20:20Z</time>
      </trkpt>
      <trkpt lat="44.04717" lon="2.79332">
        <ele>443.5</ele>
        <time>2015-04-05T17:20:25Z</time>
      </trkpt>
      <trkpt lat="44.04727" lon="2.79329">
        <ele>445.3</ele>
        <time>2015-04-05T17:20:31Z</time>
      </trkpt>
      <trkpt lat="44.04736" lon="2.7933">
        <ele>446.1</ele>
        <time>2015-04-05T17:20:36Z</time>
      </trkpt>
      <trkpt lat="44.04746" lon="2.79331">
        <ele>442.7</ele>
        <time>2015-04-05T17:20:42Z</time>
      </trkpt>
      <trkpt lat="44.04755" lon="2.79336">
        <ele>440.6</ele>
        <time>2015-04-05T17:20:48Z</time>
      </trkpt>
      <trkpt lat="44.04761" lon="2.79346">
        <ele>440.4</ele>
        <time>2015-04-05T17:20:55Z</time>
      </trkpt>
      <trkpt lat="44.04768" lon="2.79357">
        <ele>440.5</ele>
        <time>2015-04-05T17:21:03Z</time>
      </trkpt>
      <trkpt lat="44.04775" lon="2.79367">
        <ele>440.6</ele>
        <time>2015-04-05T17:21:11Z</time>
      </trkpt>
      <trkpt lat="44.04782" lon="2.79379">
        <ele>440.8</ele>
        <time>2015-04-05T17:21:18Z</time>
      </trkpt>
      <trkpt lat="44.04788" lon="2.79389">
        <ele>441.9</ele>
        <time>2015-04-05T17:21:24Z</time>
      </trkpt>
      <trkpt lat="44.04794" lon="2.79399">
        <ele>443.8</ele>
        <time>2015-04-05T17:21:33Z</time>
      </trkpt>
      <trkpt lat="44.04798" lon="2.79412">
        <ele>444.9</ele>
        <time>2015-04-05T17:21:40Z</time>
      </trkpt>
      <trkpt lat="44.048" lon="2.79424">
        <ele>444.9</ele>
        <time>2015-04-05T17:21:45Z</time>
      </trkpt>
      <trkpt lat="44.048" lon="2.79438">
        <ele>444.6</ele>
        <time>2015-04-05T17:21:52Z</time>
      </trkpt>
      <trkpt lat="44.04801" lon="2.79451">
        <ele>443.6</ele>
        <time>2015-04-05T17:21:58Z</time>
      </trkpt>
      <trkpt lat="44.04803" lon="2.79463">
        <ele>442.8</ele>
        <time>2015-04-05T17:22:04Z</time>
      </trkpt>
      <trkpt lat="44.04804" lon="2.79477">
        <ele>442.6</ele>
        <time>2015-04-05T17:22:09Z</time>
      </trkpt>
      <trkpt lat="44.04806" lon="2.79491">
        <ele>442.3</ele>
        <time>2015-04-05T17:22:16Z</time>
      </trkpt>
      <trkpt lat="44.04806" lon="2.79506">
        <ele>441.9</ele>
        <time>2015-04-05T17:22:23Z</time>
      </trkpt>
      <trkpt lat="44.04804" lon="2.79519">
        <ele>441.9</ele>
        <time>2015-04-05T17:22:29Z</time>
      </trkpt>
      <trkpt lat="44.04805" lon="2.79531">
        <ele>442</ele>
        <time>2015-04-05T17:22:34Z</time>
      </trkpt>
      <trkpt lat="44.04806" lon="2.79545">
        <ele>442.3</ele>
        <time>2015-04-05T17:22:39Z</time>
      </trkpt>
      <trkpt lat="44.04809" lon="2.79558">
        <ele>440.5</ele>
        <time>2015-04-05T17:28:30Z</time>
      </trkpt>
      <trkpt lat="44.04814" lon="2.79569">
        <ele>439.3</ele>
        <time>2015-04-05T17:28:42Z</time>
      </trkpt>
      <trkpt lat="44.04817" lon="2.79581">
        <ele>439.1</ele>
        <time>2015-04-05T17:28:47Z</time>
      </trkpt>
      <trkpt lat="44.0482" lon="2.79595">
        <ele>439.1</ele>
        <time>2015-04-05T17:28:53Z</time>
      </trkpt>
      <trkpt lat="44.04825" lon="2.79608">
        <ele>439.2</ele>
        <time>2015-04-05T17:28:59Z</time>
      </trkpt>
      <trkpt lat="44.04831" lon="2.79618">
        <ele>439.5</ele>
        <time>2015-04-05T17:29:04Z</time>
      </trkpt>
      <trkpt lat="44.04837" lon="2.79628">
        <ele>439.5</ele>
        <time>2015-04-05T17:29:09Z</time>
      </trkpt>
      <trkpt lat="44.04844" lon="2.79638">
        <ele>439.6</ele>
        <time>2015-04-05T17:29:15Z</time>
      </trkpt>
      <trkpt lat="44.04852" lon="2.79647">
        <ele>439.8</ele>
        <time>2015-04-05T17:29:20Z</time>
      </trkpt>
      <trkpt lat="44.04857" lon="2.79657">
        <ele>440</ele>
        <time>2015-04-05T17:29:25Z</time>
      </trkpt>
      <trkpt lat="44.04864" lon="2.79667">
        <ele>440.3</ele>
        <time>2015-04-05T17:29:30Z</time>
      </trkpt>
      <trkpt lat="44.0487" lon="2.79678">
        <ele>441.6</ele>
        <time>2015-04-05T17:29:37Z</time>
      </trkpt>
      <trkpt lat="44.04877" lon="2.79688">
        <ele>442.3</ele>
        <time>2015-04-05T17:29:42Z</time>
      </trkpt>
      <trkpt lat="44.04883" lon="2.79701">
        <ele>442.7</ele>
        <time>2015-04-05T17:29:46Z</time>
      </trkpt>
      <trkpt lat="44.04889" lon="2.79713">
        <ele>443.1</ele>
        <time>2015-04-05T17:29:51Z</time>
      </trkpt>
      <trkpt lat="44.04895" lon="2.79722">
        <ele>443.9</ele>
        <time>2015-04-05T17:29:57Z</time>
      </trkpt>
      <trkpt lat="44.04904" lon="2.79728">
        <ele>446.3</ele>
        <time>2015-04-05T17:30:03Z</time>
      </trkpt>
      <trkpt lat="44.04907" lon="2.79741">
        <ele>447.9</ele>
        <time>2015-04-05T17:30:31Z</time>
      </trkpt>
      <trkpt lat="44.04909" lon="2.79754">
        <ele>447.8</ele>
        <time>2015-04-05T17:30:38Z</time>
      </trkpt>
      <trkpt lat="44.04909" lon="2.79767">
        <ele>449.6</ele>
        <time>2015-04-05T17:30:44Z</time>
      </trkpt>
      <trkpt lat="44.04913" lon="2.79779">
        <ele>450.8</ele>
        <time>2015-04-05T17:30:51Z</time>
      </trkpt>
      <trkpt lat="44.04916" lon="2.79793">
        <ele>451.8</ele>
        <time>2015-04-05T17:30:57Z</time>
      </trkpt>
      <trkpt lat="44.04917" lon="2.79806">
        <ele>452.8</ele>
        <time>2015-04-05T17:31:02Z</time>
      </trkpt>
      <trkpt lat="44.0492" lon="2.79818">
        <ele>453.8</ele>
        <time>2015-04-05T17:31:07Z</time>
      </trkpt>
      <trkpt lat="44.04922" lon="2.79833">
        <ele>454.5</ele>
        <time>2015-04-05T17:31:12Z</time>
      </trkpt>
      <trkpt lat="44.04923" lon="2.79846">
        <ele>454.9</ele>
        <time>2015-04-05T17:31:17Z</time>
      </trkpt>
      <trkpt lat="44.04926" lon="2.7986">
        <ele>455.5</ele>
        <time>2015-04-05T17:31:22Z</time>
      </trkpt>
      <trkpt lat="44.04928" lon="2.79873">
        <ele>455.9</ele>
        <time>2015-04-05T17:31:27Z</time>
      </trkpt>
      <trkpt lat="44.04932" lon="2.79887">
        <ele>456</ele>
        <time>2015-04-05T17:31:32Z</time>
      </trkpt>
      <trkpt lat="44.04936" lon="2.79901">
        <ele>456.2</ele>
        <time>2015-04-05T17:31:37Z</time>
      </trkpt>
      <trkpt lat="44.04939" lon="2.79913">
        <ele>456</ele>
        <time>2015-04-05T17:31:42Z</time>
      </trkpt>
      <trkpt lat="44.04942" lon="2.79925">
        <ele>455.6</ele>
        <time>2015-04-05T17:31:47Z</time>
      </trkpt>
      <trkpt lat="44.04945" lon="2.79938">
        <ele>455.4</ele>
        <time>2015-04-05T17:31:52Z</time>
      </trkpt>
      <trkpt lat="44.04948" lon="2.79951">
        <ele>455.4</ele>
        <time>2015-04-05T17:31:57Z</time>
      </trkpt>
      <trkpt lat="44.04951" lon="2.79965">
        <ele>455.4</ele>
        <time>2015-04-05T17:32:02Z</time>
      </trkpt>
      <trkpt lat="44.04953" lon="2.79978">
        <ele>455.1</ele>
        <time>2015-04-05T17:32:07Z</time>
      </trkpt>
      <trkpt lat="44.04955" lon="2.79993">
        <ele>455.6</ele>
        <time>2015-04-05T17:32:13Z</time>
      </trkpt>
      <trkpt lat="44.04957" lon="2.80008">
        <ele>456.4</ele>
        <time>2015-04-05T17:32:19Z</time>
      </trkpt>
      <trkpt lat="44.04957" lon="2.80022">
        <ele>457</ele>
        <time>2015-04-05T17:32:24Z</time>
      </trkpt>
      <trkpt lat="44.04958" lon="2.80036">
        <ele>457.1</ele>
        <time>2015-04-05T17:32:29Z</time>
      </trkpt>
      <trkpt lat="44.04958" lon="2.8005">
        <ele>458.2</ele>
        <time>2015-04-05T17:32:34Z</time>
      </trkpt>
      <trkpt lat="44.0496" lon="2.80063">
        <ele>459.8</ele>
        <time>2015-04-05T17:32:39Z</time>
      </trkpt>
      <trkpt lat="44.0496" lon="2.80076">
        <ele>460.7</ele>
        <time>2015-04-05T17:32:44Z</time>
      </trkpt>
      <trkpt lat="44.0496" lon="2.80089">
        <ele>462</ele>
        <time>2015-04-05T17:32:49Z</time>
      </trkpt>
      <trkpt lat="44.04961" lon="2.80102">
        <ele>463.4</ele>
        <time>2015-04-05T17:32:54Z</time>
      </trkpt>
      <trkpt lat="44.04961" lon="2.80115">
        <ele>464.7</ele>
        <time>2015-04-05T17:32:59Z</time>
      </trkpt>
      <trkpt lat="44.04961" lon="2.80127">
        <ele>465.8</ele>
        <time>2015-04-05T17:33:04Z</time>
      </trkpt>
      <trkpt lat="44.04962" lon="2.80141">
        <ele>466.4</ele>
        <time>2015-04-05T17:33:09Z</time>
      </trkpt>
      <trkpt lat="44.04961" lon="2.80154">
        <ele>467</ele>
        <time>2015-04-05T17:33:14Z</time>
      </trkpt>
      <trkpt lat="44.04963" lon="2.80168">
        <ele>467.6</ele>
        <time>2015-04-05T17:33:19Z</time>
      </trkpt>
      <trkpt lat="44.04964" lon="2.80181">
        <ele>468.3</ele>
        <time>2015-04-05T17:33:24Z</time>
      </trkpt>
      <trkpt lat="44.04967" lon="2.80195">
        <ele>468.3</ele>
        <time>2015-04-05T17:33:29Z</time>
      </trkpt>
      <trkpt lat="44.04969" lon="2.80208">
        <ele>468.6</ele>
        <time>2015-04-05T17:33:34Z</time>
      </trkpt>
      <trkpt lat="44.0497" lon="2.80222">
        <ele>469.3</ele>
        <time>2015-04-05T17:33:39Z</time>
      </trkpt>
      <trkpt lat="44.04971" lon="2.80235">
        <ele>470.1</ele>
        <time>2015-04-05T17:33:44Z</time>
      </trkpt>
      <trkpt lat="44.04971" lon="2.80248">
        <ele>471.1</ele>
        <time>2015-04-05T17:33:49Z</time>
      </trkpt>
      <trkpt lat="44.0497" lon="2.80263">
        <ele>471.5</ele>
        <time>2015-04-05T17:33:55Z</time>
      </trkpt>
      <trkpt lat="44.04971" lon="2.80276">
        <ele>471.3</ele>
        <time>2015-04-05T17:34:00Z</time>
      </trkpt>
      <trkpt lat="44.04971" lon="2.8029">
        <ele>472.1</ele>
        <time>2015-04-05T17:34:05Z</time>
      </trkpt>
      <trkpt lat="44.04971" lon="2.80303">
        <ele>473.1</ele>
        <time>2015-04-05T17:34:10Z</time>
      </trkpt>
      <trkpt lat="44.0497" lon="2.80318">
        <ele>474.4</ele>
        <time>2015-04-05T17:34:16Z</time>
      </trkpt>
      <trkpt lat="44.0497" lon="2.80332">
        <ele>476.1</ele>
        <time>2015-04-05T17:34:22Z</time>
      </trkpt>
      <trkpt lat="44.04971" lon="2.80345">
        <ele>477.6</ele>
        <time>2015-04-05T17:34:27Z</time>
      </trkpt>
      <trkpt lat="44.04973" lon="2.80358">
        <ele>479</ele>
        <time>2015-04-05T17:34:32Z</time>
      </trkpt>
      <trkpt lat="44.04974" lon="2.80373">
        <ele>480.7</ele>
        <time>2015-04-05T17:34:38Z</time>
      </trkpt>
      <trkpt lat="44.04977" lon="2.80386">
        <ele>482</ele>
        <time>2015-04-05T17:34:43Z</time>
      </trkpt>
      <trkpt lat="44.04981" lon="2.80399">
        <ele>484.4</ele>
        <time>2015-04-05T17:34:49Z</time>
      </trkpt>
      <trkpt lat="44.04982" lon="2.80412">
        <ele>486.2</ele>
        <time>2015-04-05T17:34:54Z</time>
      </trkpt>
      <trkpt lat="44.04983" lon="2.80424">
        <ele>488.1</ele>
        <time>2015-04-05T17:34:59Z</time>
      </trkpt>
      <trkpt lat="44.04985" lon="2.80439">
        <ele>490.4</ele>
        <time>2015-04-05T17:35:05Z</time>
      </trkpt>
      <trkpt lat="44.04989" lon="2.80452">
        <ele>491.3</ele>
        <time>2015-04-05T17:35:10Z</time>
      </trkpt>
      <trkpt lat="44.04994" lon="2.80466">
        <ele>492</ele>
        <time>2015-04-05T17:35:15Z</time>
      </trkpt>
      <trkpt lat="44.04998" lon="2.8048">
        <ele>491.6</ele>
        <time>2015-04-05T17:35:20Z</time>
      </trkpt>
      <trkpt lat="44.05004" lon="2.80491">
        <ele>492.1</ele>
        <time>2015-04-05T17:35:25Z</time>
      </trkpt>
      <trkpt lat="44.0501" lon="2.80501">
        <ele>493.7</ele>
        <time>2015-04-05T17:35:30Z</time>
      </trkpt>
      <trkpt lat="44.05016" lon="2.80512">
        <ele>494.5</ele>
        <time>2015-04-05T17:35:35Z</time>
      </trkpt>
      <trkpt lat="44.05022" lon="2.80525">
        <ele>495.6</ele>
        <time>2015-04-05T17:35:40Z</time>
      </trkpt>
      <trkpt lat="44.05029" lon="2.80536">
        <ele>497</ele>
        <time>2015-04-05T17:35:46Z</time>
      </trkpt>
      <trkpt lat="44.05036" lon="2.80546">
        <ele>498.6</ele>
        <time>2015-04-05T17:35:52Z</time>
      </trkpt>
      <trkpt lat="44.05042" lon="2.80558">
        <ele>500.5</ele>
        <time>2015-04-05T17:35:58Z</time>
      </trkpt>
      <trkpt lat="44.05048" lon="2.80568">
        <ele>502.1</ele>
        <time>2015-04-05T17:36:03Z</time>
      </trkpt>
      <trkpt lat="44.05054" lon="2.80581">
        <ele>503.6</ele>
        <time>2015-04-05T17:36:08Z</time>
      </trkpt>
      <trkpt lat="44.05061" lon="2.80591">
        <ele>504.5</ele>
        <time>2015-04-05T17:36:12Z</time>
      </trkpt>
      <trkpt lat="44.05067" lon="2.80601">
        <ele>504.7</ele>
        <time>2015-04-05T17:36:16Z</time>
      </trkpt>
      <trkpt lat="44.05071" lon="2.80613">
        <ele>504.3</ele>
        <time>2015-04-05T17:36:21Z</time>
      </trkpt>
      <trkpt lat="44.05075" lon="2.80624">
        <ele>503.9</ele>
        <time>2015-04-05T17:36:26Z</time>
      </trkpt>
      <trkpt lat="44.05078" lon="2.80637">
        <ele>503.7</ele>
        <time>2015-04-05T17:36:31Z</time>
      </trkpt>
      <trkpt lat="44.05083" lon="2.8065">
        <ele>502.7</ele>
        <time>2015-04-05T17:36:37Z</time>
      </trkpt>
      <trkpt lat="44.05086" lon="2.80662">
        <ele>502.4</ele>
        <time>2015-04-05T17:36:42Z</time>
      </trkpt>
      <trkpt lat="44.05091" lon="2.80674">
        <ele>501.4</ele>
        <time>2015-04-05T17:36:47Z</time>
      </trkpt>
      <trkpt lat="44.05096" lon="2.80687">
        <ele>499.9</ele>
        <time>2015-04-05T17:36:52Z</time>
      </trkpt>
      <trkpt lat="44.05101" lon="2.80697">
        <ele>498.9</ele>
        <time>2015-04-05T17:36:57Z</time>
      </trkpt>
      <trkpt lat="44.05106" lon="2.80711">
        <ele>497.8</ele>
        <time>2015-04-05T17:37:03Z</time>
      </trkpt>
      <trkpt lat="44.05109" lon="2.80724">
        <ele>497.8</ele>
        <time>2015-04-05T17:37:08Z</time>
      </trkpt>
      <trkpt lat="44.05114" lon="2.80735">
        <ele>497.7</ele>
        <time>2015-04-05T17:37:13Z</time>
      </trkpt>
      <trkpt lat="44.05121" lon="2.80745">
        <ele>497.9</ele>
        <time>2015-04-05T17:37:18Z</time>
      </trkpt>
      <trkpt lat="44.05128" lon="2.80754">
        <ele>497</ele>
        <time>2015-04-05T17:37:23Z</time>
      </trkpt>
      <trkpt lat="44.05134" lon="2.80764">
        <ele>497.6</ele>
        <time>2015-04-05T17:37:28Z</time>
      </trkpt>
      <trkpt lat="44.05141" lon="2.80774">
        <ele>498.6</ele>
        <time>2015-04-05T17:37:33Z</time>
      </trkpt>
      <trkpt lat="44.05145" lon="2.80785">
        <ele>499.3</ele>
        <time>2015-04-05T17:37:38Z</time>
      </trkpt>
      <trkpt lat="44.0515" lon="2.80796">
        <ele>499.7</ele>
        <time>2015-04-05T17:37:43Z</time>
      </trkpt>
      <trkpt lat="44.05154" lon="2.80808">
        <ele>499.5</ele>
        <time>2015-04-05T17:37:48Z</time>
      </trkpt>
      <trkpt lat="44.05158" lon="2.80819">
        <ele>500.1</ele>
        <time>2015-04-05T17:37:53Z</time>
      </trkpt>
      <trkpt lat="44.05159" lon="2.80832">
        <ele>500.6</ele>
        <time>2015-04-05T17:37:58Z</time>
      </trkpt>
      <trkpt lat="44.0516" lon="2.80845">
        <ele>500.3</ele>
        <time>2015-04-05T17:38:03Z</time>
      </trkpt>
      <trkpt lat="44.0516" lon="2.8086">
        <ele>501</ele>
        <time>2015-04-05T17:38:09Z</time>
      </trkpt>
      <trkpt lat="44.05158" lon="2.80874">
        <ele>502.2</ele>
        <time>2015-04-05T17:38:15Z</time>
      </trkpt>
      <trkpt lat="44.05156" lon="2.80888">
        <ele>503</ele>
        <time>2015-04-05T17:38:20Z</time>
      </trkpt>
      <trkpt lat="44.05154" lon="2.80902">
        <ele>503.8</ele>
        <time>2015-04-05T17:38:26Z</time>
      </trkpt>
      <trkpt lat="44.05152" lon="2.80914">
        <ele>504.5</ele>
        <time>2015-04-05T17:38:31Z</time>
      </trkpt>
      <trkpt lat="44.0515" lon="2.80927">
        <ele>505.6</ele>
        <time>2015-04-05T17:38:37Z</time>
      </trkpt>
      <trkpt lat="44.05148" lon="2.8094">
        <ele>506.1</ele>
        <time>2015-04-05T17:38:42Z</time>
      </trkpt>
      <trkpt lat="44.05149" lon="2.80954">
        <ele>506.7</ele>
        <time>2015-04-05T17:38:47Z</time>
      </trkpt>
      <trkpt lat="44.05149" lon="2.80967">
        <ele>507.7</ele>
        <time>2015-04-05T17:38:52Z</time>
      </trkpt>
      <trkpt lat="44.05151" lon="2.8098">
        <ele>508.8</ele>
        <time>2015-04-05T17:38:57Z</time>
      </trkpt>
      <trkpt lat="44.05155" lon="2.80992">
        <ele>509.2</ele>
        <time>2015-04-05T17:39:02Z</time>
      </trkpt>
      <trkpt lat="44.05161" lon="2.81004">
        <ele>510</ele>
        <time>2015-04-05T17:39:07Z</time>
      </trkpt>
      <trkpt lat="44.05169" lon="2.81014">
        <ele>510.4</ele>
        <time>2015-04-05T17:39:12Z</time>
      </trkpt>
      <trkpt lat="44.05176" lon="2.81023">
        <ele>510.7</ele>
        <time>2015-04-05T17:39:17Z</time>
      </trkpt>
      <trkpt lat="44.05184" lon="2.81031">
        <ele>511.4</ele>
        <time>2015-04-05T17:39:22Z</time>
      </trkpt>
      <trkpt lat="44.05192" lon="2.8104">
        <ele>512.2</ele>
        <time>2015-04-05T17:39:27Z</time>
      </trkpt>
      <trkpt lat="44.05199" lon="2.81049">
        <ele>512.8</ele>
        <time>2015-04-05T17:39:32Z</time>
      </trkpt>
      <trkpt lat="44.05206" lon="2.81058">
        <ele>513.4</ele>
        <time>2015-04-05T17:39:37Z</time>
      </trkpt>
      <trkpt lat="44.05211" lon="2.81071">
        <ele>514</ele>
        <time>2015-04-05T17:39:43Z</time>
      </trkpt>
      <trkpt lat="44.05218" lon="2.81083">
        <ele>514.6</ele>
        <time>2015-04-05T17:39:49Z</time>
      </trkpt>
      <trkpt lat="44.05222" lon="2.81095">
        <ele>515.7</ele>
        <time>2015-04-05T17:39:55Z</time>
      </trkpt>
      <trkpt lat="44.05227" lon="2.81107">
        <ele>517.4</ele>
        <time>2015-04-05T17:40:01Z</time>
      </trkpt>
      <trkpt lat="44.05231" lon="2.8112">
        <ele>519.7</ele>
        <time>2015-04-05T17:40:07Z</time>
      </trkpt>
      <trkpt lat="44.05236" lon="2.81131">
        <ele>521.7</ele>
        <time>2015-04-05T17:40:13Z</time>
      </trkpt>
      <trkpt lat="44.05242" lon="2.81143">
        <ele>523</ele>
        <time>2015-04-05T17:40:18Z</time>
      </trkpt>
      <trkpt lat="44.05248" lon="2.81153">
        <ele>523.9</ele>
        <time>2015-04-05T17:40:22Z</time>
      </trkpt>
      <trkpt lat="44.05255" lon="2.81165">
        <ele>525.3</ele>
        <time>2015-04-05T17:40:27Z</time>
      </trkpt>
      <trkpt lat="44.05262" lon="2.81175">
        <ele>526.3</ele>
        <time>2015-04-05T17:40:32Z</time>
      </trkpt>
      <trkpt lat="44.05269" lon="2.81186">
        <ele>527.7</ele>
        <time>2015-04-05T17:40:37Z</time>
      </trkpt>
      <trkpt lat="44.05275" lon="2.81196">
        <ele>529.2</ele>
        <time>2015-04-05T17:40:42Z</time>
      </trkpt>
      <trkpt lat="44.05281" lon="2.81207">
        <ele>531.2</ele>
        <time>2015-04-05T17:40:48Z</time>
      </trkpt>
      <trkpt lat="44.05285" lon="2.81219">
        <ele>532.5</ele>
        <time>2015-04-05T17:40:52Z</time>
      </trkpt>
      <trkpt lat="44.05292" lon="2.81228">
        <ele>534.3</ele>
        <time>2015-04-05T17:40:57Z</time>
      </trkpt>
      <trkpt lat="44.05298" lon="2.8124">
        <ele>535.7</ele>
        <time>2015-04-05T17:41:02Z</time>
      </trkpt>
      <trkpt lat="44.05302" lon="2.81252">
        <ele>537.2</ele>
        <time>2015-04-05T17:41:08Z</time>
      </trkpt>
      <trkpt lat="44.05308" lon="2.81264">
        <ele>538.4</ele>
        <time>2015-04-05T17:41:14Z</time>
      </trkpt>
      <trkpt lat="44.0531" lon="2.81277">
        <ele>540.3</ele>
        <time>2015-04-05T17:41:21Z</time>
      </trkpt>
      <trkpt lat="44.05309" lon="2.81291">
        <ele>540.4</ele>
        <time>2015-04-05T17:41:26Z</time>
      </trkpt>
      <trkpt lat="44.05311" lon="2.81304">
        <ele>540</ele>
        <time>2015-04-05T17:41:30Z</time>
      </trkpt>
      <trkpt lat="44.0531" lon="2.81317">
        <ele>539.5</ele>
        <time>2015-04-05T17:41:35Z</time>
      </trkpt>
      <trkpt lat="44.05308" lon="2.81331">
        <ele>539.1</ele>
        <time>2015-04-05T17:41:40Z</time>
      </trkpt>
      <trkpt lat="44.05306" lon="2.81345">
        <ele>538</ele>
        <time>2015-04-05T17:41:46Z</time>
      </trkpt>
      <trkpt lat="44.05303" lon="2.81359">
        <ele>537.4</ele>
        <time>2015-04-05T17:41:52Z</time>
      </trkpt>
      <trkpt lat="44.05301" lon="2.81372">
        <ele>537.3</ele>
        <time>2015-04-05T17:41:59Z</time>
      </trkpt>
      <trkpt lat="44.05299" lon="2.81386">
        <ele>538.1</ele>
        <time>2015-04-05T17:42:05Z</time>
      </trkpt>
      <trkpt lat="44.05299" lon="2.814">
        <ele>539.3</ele>
        <time>2015-04-05T17:42:11Z</time>
      </trkpt>
      <trkpt lat="44.053" lon="2.81414">
        <ele>540</ele>
        <time>2015-04-05T17:42:16Z</time>
      </trkpt>
      <trkpt lat="44.053" lon="2.81428">
        <ele>541</ele>
        <time>2015-04-05T17:42:21Z</time>
      </trkpt>
      <trkpt lat="44.05304" lon="2.81442">
        <ele>541.2</ele>
        <time>2015-04-05T17:42:25Z</time>
      </trkpt>
      <trkpt lat="44.0531" lon="2.81454">
        <ele>541.3</ele>
        <time>2015-04-05T17:42:29Z</time>
      </trkpt>
      <trkpt lat="44.05315" lon="2.81465">
        <ele>541.6</ele>
        <time>2015-04-05T17:42:34Z</time>
      </trkpt>
      <trkpt lat="44.05321" lon="2.81478">
        <ele>542.7</ele>
        <time>2015-04-05T17:42:39Z</time>
      </trkpt>
      <trkpt lat="44.05329" lon="2.81487">
        <ele>543.6</ele>
        <time>2015-04-05T17:42:44Z</time>
      </trkpt>
      <trkpt lat="44.05337" lon="2.81495">
        <ele>544.2</ele>
        <time>2015-04-05T17:42:49Z</time>
      </trkpt>
      <trkpt lat="44.05344" lon="2.81503">
        <ele>544.8</ele>
        <time>2015-04-05T17:42:54Z</time>
      </trkpt>
      <trkpt lat="44.05352" lon="2.81512">
        <ele>544.9</ele>
        <time>2015-04-05T17:42:59Z</time>
      </trkpt>
      <trkpt lat="44.05357" lon="2.81524">
        <ele>545.3</ele>
        <time>2015-04-05T17:43:06Z</time>
      </trkpt>
      <trkpt lat="44.0536" lon="2.81538">
        <ele>545.8</ele>
        <time>2015-04-05T17:43:13Z</time>
      </trkpt>
      <trkpt lat="44.05361" lon="2.81552">
        <ele>545.8</ele>
        <time>2015-04-05T17:43:21Z</time>
      </trkpt>
      <trkpt lat="44.05359" lon="2.81565">
        <ele>545.4</ele>
        <time>2015-04-05T17:43:27Z</time>
      </trkpt>
      <trkpt lat="44.05354" lon="2.81578">
        <ele>546.3</ele>
        <time>2015-04-05T17:43:34Z</time>
      </trkpt>
      <trkpt lat="44.05351" lon="2.81591">
        <ele>547.1</ele>
        <time>2015-04-05T17:43:40Z</time>
      </trkpt>
      <trkpt lat="44.05349" lon="2.81604">
        <ele>547.5</ele>
        <time>2015-04-05T17:43:45Z</time>
      </trkpt>
      <trkpt lat="44.05348" lon="2.81617">
        <ele>548.2</ele>
        <time>2015-04-05T17:43:50Z</time>
      </trkpt>
      <trkpt lat="44.05349" lon="2.8163">
        <ele>549.1</ele>
        <time>2015-04-05T17:43:55Z</time>
      </trkpt>
      <trkpt lat="44.0535" lon="2.81643">
        <ele>550.3</ele>
        <time>2015-04-05T17:44:01Z</time>
      </trkpt>
      <trkpt lat="44.05352" lon="2.81657">
        <ele>551.5</ele>
        <time>2015-04-05T17:44:07Z</time>
      </trkpt>
      <trkpt lat="44.05356" lon="2.81669">
        <ele>552.1</ele>
        <time>2015-04-05T17:44:12Z</time>
      </trkpt>
      <trkpt lat="44.0536" lon="2.81682">
        <ele>553</ele>
        <time>2015-04-05T17:44:18Z</time>
      </trkpt>
      <trkpt lat="44.05363" lon="2.81695">
        <ele>553.8</ele>
        <time>2015-04-05T17:44:24Z</time>
      </trkpt>
      <trkpt lat="44.05363" lon="2.81709">
        <ele>554.9</ele>
        <time>2015-04-05T17:44:29Z</time>
      </trkpt>
      <trkpt lat="44.05363" lon="2.81722">
        <ele>556.4</ele>
        <time>2015-04-05T17:44:35Z</time>
      </trkpt>
      <trkpt lat="44.05364" lon="2.81737">
        <ele>557.9</ele>
        <time>2015-04-05T17:44:41Z</time>
      </trkpt>
      <trkpt lat="44.05362" lon="2.8175">
        <ele>559</ele>
        <time>2015-04-05T17:44:46Z</time>
      </trkpt>
      <trkpt lat="44.05362" lon="2.81763">
        <ele>559.8</ele>
        <time>2015-04-05T17:44:51Z</time>
      </trkpt>
      <trkpt lat="44.05362" lon="2.81777">
        <ele>560.2</ele>
        <time>2015-04-05T17:44:56Z</time>
      </trkpt>
      <trkpt lat="44.05363" lon="2.8179">
        <ele>560.4</ele>
        <time>2015-04-05T17:45:00Z</time>
      </trkpt>
      <trkpt lat="44.05363" lon="2.81804">
        <ele>560.5</ele>
        <time>2015-04-05T17:45:05Z</time>
      </trkpt>
      <trkpt lat="44.05363" lon="2.81818">
        <ele>560.5</ele>
        <time>2015-04-05T17:45:10Z</time>
      </trkpt>
      <trkpt lat="44.05361" lon="2.81832">
        <ele>560.8</ele>
        <time>2015-04-05T17:45:15Z</time>
      </trkpt>
      <trkpt lat="44.0536" lon="2.81844">
        <ele>560.6</ele>
        <time>2015-04-05T17:45:20Z</time>
      </trkpt>
      <trkpt lat="44.05361" lon="2.81857">
        <ele>560</ele>
        <time>2015-04-05T17:45:25Z</time>
      </trkpt>
      <trkpt lat="44.05361" lon="2.8187">
        <ele>560.3</ele>
        <time>2015-04-05T17:45:30Z</time>
      </trkpt>
      <trkpt lat="44.0536" lon="2.81885">
        <ele>560.4</ele>
        <time>2015-04-05T17:45:35Z</time>
      </trkpt>
      <trkpt lat="44.05359" lon="2.81899">
        <ele>561</ele>
        <time>2015-04-05T17:45:41Z</time>
      </trkpt>
      <trkpt lat="44.05359" lon="2.81912">
        <ele>561.5</ele>
        <time>2015-04-05T17:45:46Z</time>
      </trkpt>
      <trkpt lat="44.05358" lon="2.81926">
        <ele>562.3</ele>
        <time>2015-04-05T17:45:52Z</time>
      </trkpt>
      <trkpt lat="44.0536" lon="2.81939">
        <ele>562.6</ele>
        <time>2015-04-05T17:45:57Z</time>
      </trkpt>
      <trkpt lat="44.05362" lon="2.81954">
        <ele>563.1</ele>
        <time>2015-04-05T17:46:02Z</time>
      </trkpt>
      <trkpt lat="44.05361" lon="2.81966">
        <ele>563.6</ele>
        <time>2015-04-05T17:46:06Z</time>
      </trkpt>
      <trkpt lat="44.05362" lon="2.81981">
        <ele>564</ele>
        <time>2015-04-05T17:46:11Z</time>
      </trkpt>
      <trkpt lat="44.05362" lon="2.81993">
        <ele>564.2</ele>
        <time>2015-04-05T17:46:17Z</time>
      </trkpt>
      <trkpt lat="44.05361" lon="2.82008">
        <ele>564.9</ele>
        <time>2015-04-05T17:46:23Z</time>
      </trkpt>
      <trkpt lat="44.05357" lon="2.82021">
        <ele>565.9</ele>
        <time>2015-04-05T17:46:29Z</time>
      </trkpt>
      <trkpt lat="44.05355" lon="2.82034">
        <ele>566.7</ele>
        <time>2015-04-05T17:46:34Z</time>
      </trkpt>
      <trkpt lat="44.05352" lon="2.82048">
        <ele>567.1</ele>
        <time>2015-04-05T17:46:39Z</time>
      </trkpt>
      <trkpt lat="44.05349" lon="2.82061">
        <ele>567.2</ele>
        <time>2015-04-05T17:46:44Z</time>
      </trkpt>
      <trkpt lat="44.05348" lon="2.82075">
        <ele>567.5</ele>
        <time>2015-04-05T17:46:49Z</time>
      </trkpt>
      <trkpt lat="44.05347" lon="2.8209">
        <ele>567.7</ele>
        <time>2015-04-05T17:46:54Z</time>
      </trkpt>
      <trkpt lat="44.05347" lon="2.82104">
        <ele>567.8</ele>
        <time>2015-04-05T17:46:59Z</time>
      </trkpt>
      <trkpt lat="44.05346" lon="2.82119">
        <ele>568</ele>
        <time>2015-04-05T17:47:04Z</time>
      </trkpt>
      <trkpt lat="44.05345" lon="2.82133">
        <ele>568.4</ele>
        <time>2015-04-05T17:47:09Z</time>
      </trkpt>
      <trkpt lat="44.05341" lon="2.82147">
        <ele>568.9</ele>
        <time>2015-04-05T17:47:14Z</time>
      </trkpt>
      <trkpt lat="44.05337" lon="2.8216">
        <ele>569</ele>
        <time>2015-04-05T17:47:19Z</time>
      </trkpt>
      <trkpt lat="44.05331" lon="2.8217">
        <ele>569.6</ele>
        <time>2015-04-05T17:47:24Z</time>
      </trkpt>
      <trkpt lat="44.05323" lon="2.82179">
        <ele>570.4</ele>
        <time>2015-04-05T17:47:29Z</time>
      </trkpt>
      <trkpt lat="44.05315" lon="2.82186">
        <ele>571.3</ele>
        <time>2015-04-05T17:47:33Z</time>
      </trkpt>
      <trkpt lat="44.05306" lon="2.82191">
        <ele>572.1</ele>
        <time>2015-04-05T17:47:37Z</time>
      </trkpt>
      <trkpt lat="44.05296" lon="2.82197">
        <ele>572.7</ele>
        <time>2015-04-05T17:47:42Z</time>
      </trkpt>
      <trkpt lat="44.05287" lon="2.82201">
        <ele>573.8</ele>
        <time>2015-04-05T17:47:47Z</time>
      </trkpt>
      <trkpt lat="44.05276" lon="2.82202">
        <ele>575</ele>
        <time>2015-04-05T17:47:52Z</time>
      </trkpt>
      <trkpt lat="44.05266" lon="2.82203">
        <ele>576.2</ele>
        <time>2015-04-05T17:47:56Z</time>
      </trkpt>
      <trkpt lat="44.05257" lon="2.82204">
        <ele>577.2</ele>
        <time>2015-04-05T17:48:00Z</time>
      </trkpt>
      <trkpt lat="44.05246" lon="2.82205">
        <ele>578.5</ele>
        <time>2015-04-05T17:48:04Z</time>
      </trkpt>
      <trkpt lat="44.05235" lon="2.82207">
        <ele>580.4</ele>
        <time>2015-04-05T17:48:09Z</time>
      </trkpt>
      <trkpt lat="44.05225" lon="2.8221">
        <ele>582.3</ele>
        <time>2015-04-05T17:48:14Z</time>
      </trkpt>
      <trkpt lat="44.05215" lon="2.82215">
        <ele>583.9</ele>
        <time>2015-04-05T17:48:19Z</time>
      </trkpt>
      <trkpt lat="44.05207" lon="2.82221">
        <ele>585.5</ele>
        <time>2015-04-05T17:48:23Z</time>
      </trkpt>
      <trkpt lat="44.052" lon="2.82229">
        <ele>587.3</ele>
        <time>2015-04-05T17:48:27Z</time>
      </trkpt>
      <trkpt lat="44.05192" lon="2.82238">
        <ele>588.9</ele>
        <time>2015-04-05T17:48:32Z</time>
      </trkpt>
      <trkpt lat="44.05183" lon="2.82247">
        <ele>590.2</ele>
        <time>2015-04-05T17:48:37Z</time>
      </trkpt>
      <trkpt lat="44.05175" lon="2.82255">
        <ele>591.6</ele>
        <time>2015-04-05T17:48:42Z</time>
      </trkpt>
      <trkpt lat="44.05167" lon="2.82264">
        <ele>593.2</ele>
        <time>2015-04-05T17:48:47Z</time>
      </trkpt>
      <trkpt lat="44.05157" lon="2.82272">
        <ele>595.8</ele>
        <time>2015-04-05T17:48:53Z</time>
      </trkpt>
      <trkpt lat="44.0515" lon="2.82281">
        <ele>598</ele>
        <time>2015-04-05T17:48:58Z</time>
      </trkpt>
      <trkpt lat="44.05142" lon="2.82289">
        <ele>600.1</ele>
        <time>2015-04-05T17:49:03Z</time>
      </trkpt>
      <trkpt lat="44.05134" lon="2.82299">
        <ele>601.8</ele>
        <time>2015-04-05T17:49:08Z</time>
      </trkpt>
      <trkpt lat="44.05126" lon="2.82306">
        <ele>602.9</ele>
        <time>2015-04-05T17:49:12Z</time>
      </trkpt>
      <trkpt lat="44.05117" lon="2.82314">
        <ele>604.5</ele>
        <time>2015-04-05T17:49:17Z</time>
      </trkpt>
      <trkpt lat="44.05108" lon="2.8232">
        <ele>606.3</ele>
        <time>2015-04-05T17:49:22Z</time>
      </trkpt>
      <trkpt lat="44.05103" lon="2.82331">
        <ele>606.6</ele>
        <time>2015-04-05T17:49:26Z</time>
      </trkpt>
      <trkpt lat="44.05096" lon="2.82342">
        <ele>607.3</ele>
        <time>2015-04-05T17:49:31Z</time>
      </trkpt>
      <trkpt lat="44.05088" lon="2.8235">
        <ele>608.6</ele>
        <time>2015-04-05T17:49:36Z</time>
      </trkpt>
      <trkpt lat="44.05081" lon="2.82361">
        <ele>609.3</ele>
        <time>2015-04-05T17:49:40Z</time>
      </trkpt>
      <trkpt lat="44.05074" lon="2.82373">
        <ele>610.7</ele>
        <time>2015-04-05T17:49:45Z</time>
      </trkpt>
      <trkpt lat="44.05068" lon="2.82386">
        <ele>612.4</ele>
        <time>2015-04-05T17:49:50Z</time>
      </trkpt>
      <trkpt lat="44.05067" lon="2.82399">
        <ele>614.7</ele>
        <time>2015-04-05T17:49:55Z</time>
      </trkpt>
      <trkpt lat="44.05067" lon="2.82414">
        <ele>617.2</ele>
        <time>2015-04-05T17:50:01Z</time>
      </trkpt>
      <trkpt lat="44.05066" lon="2.82427">
        <ele>618.7</ele>
        <time>2015-04-05T17:50:06Z</time>
      </trkpt>
      <trkpt lat="44.0507" lon="2.82442">
        <ele>618.2</ele>
        <time>2015-04-05T17:50:10Z</time>
      </trkpt>
      <trkpt lat="44.05062" lon="2.82453">
        <ele>604.8</ele>
        <time>2015-04-05T17:51:10Z</time>
      </trkpt>
      <trkpt lat="44.05051" lon="2.82451">
        <ele>588.6</ele>
        <time>2015-04-05T17:52:37Z</time>
      </trkpt>
      <trkpt lat="44.05039" lon="2.82454">
        <ele>588.3</ele>
        <time>2015-04-05T17:52:40Z</time>
      </trkpt>
      <trkpt lat="44.05028" lon="2.82456">
        <ele>588.2</ele>
        <time>2015-04-05T17:52:42Z</time>
      </trkpt>
      <trkpt lat="44.05019" lon="2.82456">
        <ele>588</ele>
        <time>2015-04-05T17:52:44Z</time>
      </trkpt>
      <trkpt lat="44.05009" lon="2.82458">
        <ele>587.8</ele>
        <time>2015-04-05T17:52:46Z</time>
      </trkpt>
      <trkpt lat="44.05" lon="2.82461">
        <ele>587.7</ele>
        <time>2015-04-05T17:52:48Z</time>
      </trkpt>
      <trkpt lat="44.0499" lon="2.82463">
        <ele>587.7</ele>
        <time>2015-04-05T17:52:50Z</time>
      </trkpt>
      <trkpt lat="44.0498" lon="2.82468">
        <ele>587.7</ele>
        <time>2015-04-05T17:52:52Z</time>
      </trkpt>
      <trkpt lat="44.04969" lon="2.82474">
        <ele>587.4</ele>
        <time>2015-04-05T17:52:54Z</time>
      </trkpt>
      <trkpt lat="44.04958" lon="2.82481">
        <ele>587.2</ele>
        <time>2015-04-05T17:52:56Z</time>
      </trkpt>
      <trkpt lat="44.04947" lon="2.82487">
        <ele>586.9</ele>
        <time>2015-04-05T17:52:58Z</time>
      </trkpt>
      <trkpt lat="44.04935" lon="2.82493">
        <ele>586.2</ele>
        <time>2015-04-05T17:53:00Z</time>
      </trkpt>
      <trkpt lat="44.04923" lon="2.825">
        <ele>585.4</ele>
        <time>2015-04-05T17:53:02Z</time>
      </trkpt>
      <trkpt lat="44.04911" lon="2.82507">
        <ele>583.9</ele>
        <time>2015-04-05T17:53:04Z</time>
      </trkpt>
      <trkpt lat="44.04898" lon="2.82513">
        <ele>583.4</ele>
        <time>2015-04-05T17:53:06Z</time>
      </trkpt>
      <trkpt lat="44.04886" lon="2.8252">
        <ele>582.8</ele>
        <time>2015-04-05T17:53:08Z</time>
      </trkpt>
      <trkpt lat="44.04873" lon="2.82527">
        <ele>582.1</ele>
        <time>2015-04-05T17:53:10Z</time>
      </trkpt>
      <trkpt lat="44.04859" lon="2.82534">
        <ele>581.5</ele>
        <time>2015-04-05T17:53:12Z</time>
      </trkpt>
      <trkpt lat="44.04845" lon="2.82541">
        <ele>581</ele>
        <time>2015-04-05T17:53:14Z</time>
      </trkpt>
      <trkpt lat="44.04831" lon="2.82551">
        <ele>580.5</ele>
        <time>2015-04-05T17:53:16Z</time>
      </trkpt>
      <trkpt lat="44.04817" lon="2.82561">
        <ele>580</ele>
        <time>2015-04-05T17:53:18Z</time>
      </trkpt>
      <trkpt lat="44.04804" lon="2.82574">
        <ele>579.7</ele>
        <time>2015-04-05T17:53:20Z</time>
      </trkpt>
      <trkpt lat="44.04793" lon="2.82588">
        <ele>579.7</ele>
        <time>2015-04-05T17:53:22Z</time>
      </trkpt>
      <trkpt lat="44.04783" lon="2.82605">
        <ele>579.7</ele>
        <time>2015-04-05T17:53:24Z</time>
      </trkpt>
      <trkpt lat="44.04775" lon="2.82622">
        <ele>579.5</ele>
        <time>2015-04-05T17:53:26Z</time>
      </trkpt>
      <trkpt lat="44.04766" lon="2.82639">
        <ele>579.3</ele>
        <time>2015-04-05T17:53:28Z</time>
      </trkpt>
      <trkpt lat="44.04758" lon="2.82655">
        <ele>578.9</ele>
        <time>2015-04-05T17:53:30Z</time>
      </trkpt>
      <trkpt lat="44.04748" lon="2.8267">
        <ele>578.5</ele>
        <time>2015-04-05T17:53:32Z</time>
      </trkpt>
      <trkpt lat="44.04738" lon="2.82685">
        <ele>578.3</ele>
        <time>2015-04-05T17:53:34Z</time>
      </trkpt>
      <trkpt lat="44.04727" lon="2.827">
        <ele>578</ele>
        <time>2015-04-05T17:53:36Z</time>
      </trkpt>
      <trkpt lat="44.04716" lon="2.82714">
        <ele>577.5</ele>
        <time>2015-04-05T17:53:38Z</time>
      </trkpt>
      <trkpt lat="44.04704" lon="2.8273">
        <ele>577.1</ele>
        <time>2015-04-05T17:53:40Z</time>
      </trkpt>
      <trkpt lat="44.04693" lon="2.82745">
        <ele>577</ele>
        <time>2015-04-05T17:53:42Z</time>
      </trkpt>
      <trkpt lat="44.04681" lon="2.8276">
        <ele>576.9</ele>
        <time>2015-04-05T17:53:44Z</time>
      </trkpt>
      <trkpt lat="44.04669" lon="2.82774">
        <ele>577.4</ele>
        <time>2015-04-05T17:53:46Z</time>
      </trkpt>
      <trkpt lat="44.04656" lon="2.82786">
        <ele>577.8</ele>
        <time>2015-04-05T17:53:48Z</time>
      </trkpt>
      <trkpt lat="44.04643" lon="2.82796">
        <ele>577.8</ele>
        <time>2015-04-05T17:53:50Z</time>
      </trkpt>
      <trkpt lat="44.04629" lon="2.82805">
        <ele>577.8</ele>
        <time>2015-04-05T17:53:52Z</time>
      </trkpt>
      <trkpt lat="44.04614" lon="2.82811">
        <ele>577.6</ele>
        <time>2015-04-05T17:53:54Z</time>
      </trkpt>
      <trkpt lat="44.04599" lon="2.82818">
        <ele>577.2</ele>
        <time>2015-04-05T17:53:56Z</time>
      </trkpt>
      <trkpt lat="44.04584" lon="2.82824">
        <ele>577.4</ele>
        <time>2015-04-05T17:53:58Z</time>
      </trkpt>
      <trkpt lat="44.04568" lon="2.82829">
        <ele>577.5</ele>
        <time>2015-04-05T17:54:00Z</time>
      </trkpt>
      <trkpt lat="44.04553" lon="2.82835">
        <ele>577.3</ele>
        <time>2015-04-05T17:54:02Z</time>
      </trkpt>
      <trkpt lat="44.04537" lon="2.82841">
        <ele>576.6</ele>
        <time>2015-04-05T17:54:04Z</time>
      </trkpt>
      <trkpt lat="44.04521" lon="2.82845">
        <ele>576.2</ele>
        <time>2015-04-05T17:54:06Z</time>
      </trkpt>
      <trkpt lat="44.04505" lon="2.82848">
        <ele>575.9</ele>
        <time>2015-04-05T17:54:08Z</time>
      </trkpt>
      <trkpt lat="44.04488" lon="2.82846">
        <ele>575.7</ele>
        <time>2015-04-05T17:54:10Z</time>
      </trkpt>
      <trkpt lat="44.04473" lon="2.82841">
        <ele>576.2</ele>
        <time>2015-04-05T17:54:12Z</time>
      </trkpt>
      <trkpt lat="44.04458" lon="2.82832">
        <ele>576.4</ele>
        <time>2015-04-05T17:54:14Z</time>
      </trkpt>
      <trkpt lat="44.04444" lon="2.82821">
        <ele>575.8</ele>
        <time>2015-04-05T17:54:16Z</time>
      </trkpt>
      <trkpt lat="44.04429" lon="2.82809">
        <ele>575.2</ele>
        <time>2015-04-05T17:54:18Z</time>
      </trkpt>
      <trkpt lat="44.04414" lon="2.82798">
        <ele>574.8</ele>
        <time>2015-04-05T17:54:20Z</time>
      </trkpt>
      <trkpt lat="44.04397" lon="2.82792">
        <ele>574.2</ele>
        <time>2015-04-05T17:54:22Z</time>
      </trkpt>
      <trkpt lat="44.04388" lon="2.8279">
        <ele>573.7</ele>
        <time>2015-04-05T17:54:23Z</time>
      </trkpt>
      <trkpt lat="44.04378" lon="2.82789">
        <ele>573.2</ele>
        <time>2015-04-05T17:54:24Z</time>
      </trkpt>
      <trkpt lat="44.04369" lon="2.8279">
        <ele>572.8</ele>
        <time>2015-04-05T17:54:25Z</time>
      </trkpt>
      <trkpt lat="44.0436" lon="2.82791">
        <ele>572.5</ele>
        <time>2015-04-05T17:54:26Z</time>
      </trkpt>
      <trkpt lat="44.0435" lon="2.82795">
        <ele>572.1</ele>
        <time>2015-04-05T17:54:27Z</time>
      </trkpt>
      <trkpt lat="44.04341" lon="2.82799">
        <ele>571.7</ele>
        <time>2015-04-05T17:54:28Z</time>
      </trkpt>
      <trkpt lat="44.04332" lon="2.82805">
        <ele>571.3</ele>
        <time>2015-04-05T17:54:29Z</time>
      </trkpt>
      <trkpt lat="44.04323" lon="2.82812">
        <ele>570.7</ele>
        <time>2015-04-05T17:54:30Z</time>
      </trkpt>
      <trkpt lat="44.04315" lon="2.8282">
        <ele>570.3</ele>
        <time>2015-04-05T17:54:31Z</time>
      </trkpt>
      <trkpt lat="44.04307" lon="2.82829">
        <ele>569.9</ele>
        <time>2015-04-05T17:54:32Z</time>
      </trkpt>
      <trkpt lat="44.043" lon="2.82839">
        <ele>569.6</ele>
        <time>2015-04-05T17:54:33Z</time>
      </trkpt>
      <trkpt lat="44.04294" lon="2.82851">
        <ele>569.1</ele>
        <time>2015-04-05T17:54:34Z</time>
      </trkpt>
      <trkpt lat="44.04288" lon="2.82863">
        <ele>568.8</ele>
        <time>2015-04-05T17:54:35Z</time>
      </trkpt>
      <trkpt lat="44.04284" lon="2.82877">
        <ele>568.4</ele>
        <time>2015-04-05T17:54:36Z</time>
      </trkpt>
      <trkpt lat="44.0428" lon="2.82891">
        <ele>568.1</ele>
        <time>2015-04-05T17:54:37Z</time>
      </trkpt>
      <trkpt lat="44.04277" lon="2.82905">
        <ele>567.9</ele>
        <time>2015-04-05T17:54:38Z</time>
      </trkpt>
      <trkpt lat="44.04275" lon="2.8292">
        <ele>567.6</ele>
        <time>2015-04-05T17:54:39Z</time>
      </trkpt>
      <trkpt lat="44.04273" lon="2.82935">
        <ele>567.4</ele>
        <time>2015-04-05T17:54:40Z</time>
      </trkpt>
      <trkpt lat="44.04271" lon="2.82949">
        <ele>567.1</ele>
        <time>2015-04-05T17:54:41Z</time>
      </trkpt>
      <trkpt lat="44.0427" lon="2.82963">
        <ele>567</ele>
        <time>2015-04-05T17:54:42Z</time>
      </trkpt>
      <trkpt lat="44.04269" lon="2.82977">
        <ele>566.8</ele>
        <time>2015-04-05T17:54:43Z</time>
      </trkpt>
      <trkpt lat="44.04269" lon="2.8299">
        <ele>566.7</ele>
        <time>2015-04-05T17:54:44Z</time>
      </trkpt>
      <trkpt lat="44.04269" lon="2.83015">
        <ele>566.6</ele>
        <time>2015-04-05T17:54:46Z</time>
      </trkpt>
      <trkpt lat="44.04269" lon="2.83037">
        <ele>566.8</ele>
        <time>2015-04-05T17:54:48Z</time>
      </trkpt>
      <trkpt lat="44.04268" lon="2.83059">
        <ele>566.8</ele>
        <time>2015-04-05T17:54:50Z</time>
      </trkpt>
      <trkpt lat="44.04266" lon="2.83079">
        <ele>566.8</ele>
        <time>2015-04-05T17:54:52Z</time>
      </trkpt>
      <trkpt lat="44.04262" lon="2.83096">
        <ele>566.8</ele>
        <time>2015-04-05T17:54:54Z</time>
      </trkpt>
      <trkpt lat="44.04256" lon="2.83112">
        <ele>566.7</ele>
        <time>2015-04-05T17:54:56Z</time>
      </trkpt>
      <trkpt lat="44.0425" lon="2.83126">
        <ele>566.8</ele>
        <time>2015-04-05T17:54:58Z</time>
      </trkpt>
      <trkpt lat="44.04244" lon="2.83136">
        <ele>567</ele>
        <time>2015-04-05T17:55:00Z</time>
      </trkpt>
      <trkpt lat="44.04237" lon="2.83146">
        <ele>567.3</ele>
        <time>2015-04-05T17:55:02Z</time>
      </trkpt>
      <trkpt lat="44.0423" lon="2.83155">
        <ele>567.3</ele>
        <time>2015-04-05T17:55:04Z</time>
      </trkpt>
      <trkpt lat="44.04223" lon="2.83163">
        <ele>567.3</ele>
        <time>2015-04-05T17:55:06Z</time>
      </trkpt>
      <trkpt lat="44.04211" lon="2.83172">
        <ele>567.7</ele>
        <time>2015-04-05T17:55:09Z</time>
      </trkpt>
      <trkpt lat="44.04199" lon="2.8318">
        <ele>567.7</ele>
        <time>2015-04-05T17:55:12Z</time>
      </trkpt>
      <trkpt lat="44.04187" lon="2.83186">
        <ele>568</ele>
        <time>2015-04-05T17:55:15Z</time>
      </trkpt>
      <trkpt lat="44.04176" lon="2.83189">
        <ele>568.3</ele>
        <time>2015-04-05T17:55:18Z</time>
      </trkpt>
      <trkpt lat="44.04165" lon="2.83191">
        <ele>568.3</ele>
        <time>2015-04-05T17:55:21Z</time>
      </trkpt>
      <trkpt lat="44.04154" lon="2.83191">
        <ele>568.5</ele>
        <time>2015-04-05T17:55:24Z</time>
      </trkpt>
      <trkpt lat="44.04144" lon="2.83191">
        <ele>569</ele>
        <time>2015-04-05T17:55:27Z</time>
      </trkpt>
      <trkpt lat="44.04135" lon="2.83189">
        <ele>569.9</ele>
        <time>2015-04-05T17:55:30Z</time>
      </trkpt>
      <trkpt lat="44.04125" lon="2.83185">
        <ele>570.7</ele>
        <time>2015-04-05T17:55:33Z</time>
      </trkpt>
      <trkpt lat="44.04116" lon="2.83181">
        <ele>572.3</ele>
        <time>2015-04-05T17:55:36Z</time>
      </trkpt>
      <trkpt lat="44.04108" lon="2.83175">
        <ele>574.1</ele>
        <time>2015-04-05T17:55:39Z</time>
      </trkpt>
      <trkpt lat="44.041" lon="2.83168">
        <ele>575.4</ele>
        <time>2015-04-05T17:55:42Z</time>
      </trkpt>
      <trkpt lat="44.04091" lon="2.8316">
        <ele>576.1</ele>
        <time>2015-04-05T17:55:45Z</time>
      </trkpt>
      <trkpt lat="44.04081" lon="2.83152">
        <ele>576.4</ele>
        <time>2015-04-05T17:55:48Z</time>
      </trkpt>
      <trkpt lat="44.04069" lon="2.83143">
        <ele>576.6</ele>
        <time>2015-04-05T17:55:51Z</time>
      </trkpt>
      <trkpt lat="44.0406" lon="2.83137">
        <ele>576.3</ele>
        <time>2015-04-05T17:55:53Z</time>
      </trkpt>
      <trkpt lat="44.0405" lon="2.83132">
        <ele>576</ele>
        <time>2015-04-05T17:55:55Z</time>
      </trkpt>
      <trkpt lat="44.04039" lon="2.83127">
        <ele>575.8</ele>
        <time>2015-04-05T17:55:57Z</time>
      </trkpt>
      <trkpt lat="44.04027" lon="2.83123">
        <ele>575.4</ele>
        <time>2015-04-05T17:55:59Z</time>
      </trkpt>
      <trkpt lat="44.04015" lon="2.8312">
        <ele>574.8</ele>
        <time>2015-04-05T17:56:01Z</time>
      </trkpt>
      <trkpt lat="44.04003" lon="2.83117">
        <ele>574.4</ele>
        <time>2015-04-05T17:56:03Z</time>
      </trkpt>
      <trkpt lat="44.0399" lon="2.83113">
        <ele>574</ele>
        <time>2015-04-05T17:56:05Z</time>
      </trkpt>
      <trkpt lat="44.03976" lon="2.83109">
        <ele>573.7</ele>
        <time>2015-04-05T17:56:07Z</time>
      </trkpt>
      <trkpt lat="44.03962" lon="2.83105">
        <ele>573.4</ele>
        <time>2015-04-05T17:56:09Z</time>
      </trkpt>
      <trkpt lat="44.03948" lon="2.83101">
        <ele>573.1</ele>
        <time>2015-04-05T17:56:11Z</time>
      </trkpt>
      <trkpt lat="44.03933" lon="2.83097">
        <ele>572.6</ele>
        <time>2015-04-05T17:56:13Z</time>
      </trkpt>
      <trkpt lat="44.03917" lon="2.83093">
        <ele>572.2</ele>
        <time>2015-04-05T17:56:15Z</time>
      </trkpt>
      <trkpt lat="44.039" lon="2.83088">
        <ele>571.4</ele>
        <time>2015-04-05T17:56:17Z</time>
      </trkpt>
      <trkpt lat="44.03884" lon="2.83083">
        <ele>570.7</ele>
        <time>2015-04-05T17:56:19Z</time>
      </trkpt>
      <trkpt lat="44.03875" lon="2.83081">
        <ele>570.5</ele>
        <time>2015-04-05T17:56:20Z</time>
      </trkpt>
      <trkpt lat="44.03857" lon="2.83077">
        <ele>570</ele>
        <time>2015-04-05T17:56:22Z</time>
      </trkpt>
      <trkpt lat="44.03848" lon="2.83076">
        <ele>569.7</ele>
        <time>2015-04-05T17:56:23Z</time>
      </trkpt>
      <trkpt lat="44.03838" lon="2.83076">
        <ele>569.5</ele>
        <time>2015-04-05T17:56:24Z</time>
      </trkpt>
      <trkpt lat="44.03829" lon="2.83077">
        <ele>569.2</ele>
        <time>2015-04-05T17:56:25Z</time>
      </trkpt>
      <trkpt lat="44.0382" lon="2.83078">
        <ele>569</ele>
        <time>2015-04-05T17:56:26Z</time>
      </trkpt>
      <trkpt lat="44.0381" lon="2.83081">
        <ele>568.7</ele>
        <time>2015-04-05T17:56:27Z</time>
      </trkpt>
      <trkpt lat="44.03801" lon="2.83084">
        <ele>568.5</ele>
        <time>2015-04-05T17:56:28Z</time>
      </trkpt>
      <trkpt lat="44.03792" lon="2.83088">
        <ele>568.2</ele>
        <time>2015-04-05T17:56:29Z</time>
      </trkpt>
      <trkpt lat="44.03784" lon="2.83093">
        <ele>567.8</ele>
        <time>2015-04-05T17:56:30Z</time>
      </trkpt>
      <trkpt lat="44.03775" lon="2.83098">
        <ele>567.4</ele>
        <time>2015-04-05T17:56:31Z</time>
      </trkpt>
      <trkpt lat="44.03767" lon="2.83104">
        <ele>567.3</ele>
        <time>2015-04-05T17:56:32Z</time>
      </trkpt>
      <trkpt lat="44.0376" lon="2.83111">
        <ele>567.1</ele>
        <time>2015-04-05T17:56:33Z</time>
      </trkpt>
      <trkpt lat="44.03752" lon="2.83119">
        <ele>566.9</ele>
        <time>2015-04-05T17:56:34Z</time>
      </trkpt>
      <trkpt lat="44.03745" lon="2.83127">
        <ele>566.6</ele>
        <time>2015-04-05T17:56:35Z</time>
      </trkpt>
      <trkpt lat="44.03731" lon="2.83142">
        <ele>566.3</ele>
        <time>2015-04-05T17:56:37Z</time>
      </trkpt>
      <trkpt lat="44.03716" lon="2.83157">
        <ele>566</ele>
        <time>2015-04-05T17:56:39Z</time>
      </trkpt>
      <trkpt lat="44.03703" lon="2.83174">
        <ele>565.7</ele>
        <time>2015-04-05T17:56:41Z</time>
      </trkpt>
      <trkpt lat="44.03691" lon="2.83192">
        <ele>565.4</ele>
        <time>2015-04-05T17:56:43Z</time>
      </trkpt>
      <trkpt lat="44.03686" lon="2.83202">
        <ele>565.1</ele>
        <time>2015-04-05T17:56:44Z</time>
      </trkpt>
      <trkpt lat="44.03681" lon="2.83213">
        <ele>564.8</ele>
        <time>2015-04-05T17:56:45Z</time>
      </trkpt>
      <trkpt lat="44.03672" lon="2.83234">
        <ele>564.5</ele>
        <time>2015-04-05T17:56:47Z</time>
      </trkpt>
      <trkpt lat="44.03667" lon="2.83245">
        <ele>564.2</ele>
        <time>2015-04-05T17:56:48Z</time>
      </trkpt>
      <trkpt lat="44.03663" lon="2.83257">
        <ele>564</ele>
        <time>2015-04-05T17:56:49Z</time>
      </trkpt>
      <trkpt lat="44.03658" lon="2.83268">
        <ele>563.8</ele>
        <time>2015-04-05T17:56:50Z</time>
      </trkpt>
      <trkpt lat="44.03653" lon="2.83279">
        <ele>563.8</ele>
        <time>2015-04-05T17:56:51Z</time>
      </trkpt>
      <trkpt lat="44.03649" lon="2.8329">
        <ele>563.6</ele>
        <time>2015-04-05T17:56:52Z</time>
      </trkpt>
      <trkpt lat="44.03644" lon="2.83301">
        <ele>563.5</ele>
        <time>2015-04-05T17:56:53Z</time>
      </trkpt>
      <trkpt lat="44.0364" lon="2.83312">
        <ele>563.3</ele>
        <time>2015-04-05T17:56:54Z</time>
      </trkpt>
      <trkpt lat="44.03631" lon="2.83333">
        <ele>563.2</ele>
        <time>2015-04-05T17:56:56Z</time>
      </trkpt>
      <trkpt lat="44.03622" lon="2.83354">
        <ele>563.2</ele>
        <time>2015-04-05T17:56:58Z</time>
      </trkpt>
      <trkpt lat="44.03613" lon="2.83373">
        <ele>563.2</ele>
        <time>2015-04-05T17:57:00Z</time>
      </trkpt>
      <trkpt lat="44.03604" lon="2.83391">
        <ele>563.3</ele>
        <time>2015-04-05T17:57:02Z</time>
      </trkpt>
      <trkpt lat="44.03594" lon="2.83406">
        <ele>563.5</ele>
        <time>2015-04-05T17:57:04Z</time>
      </trkpt>
      <trkpt lat="44.03584" lon="2.8342">
        <ele>563.7</ele>
        <time>2015-04-05T17:57:06Z</time>
      </trkpt>
      <trkpt lat="44.03575" lon="2.83431">
        <ele>564.1</ele>
        <time>2015-04-05T17:57:08Z</time>
      </trkpt>
      <trkpt lat="44.03566" lon="2.83441">
        <ele>564.4</ele>
        <time>2015-04-05T17:57:10Z</time>
      </trkpt>
      <trkpt lat="44.03557" lon="2.83451">
        <ele>564.7</ele>
        <time>2015-04-05T17:57:12Z</time>
      </trkpt>
      <trkpt lat="44.03548" lon="2.8346">
        <ele>565.2</ele>
        <time>2015-04-05T17:57:14Z</time>
      </trkpt>
      <trkpt lat="44.03541" lon="2.83469">
        <ele>565.8</ele>
        <time>2015-04-05T17:57:16Z</time>
      </trkpt>
      <trkpt lat="44.03534" lon="2.83478">
        <ele>566.3</ele>
        <time>2015-04-05T17:57:18Z</time>
      </trkpt>
      <trkpt lat="44.03526" lon="2.83492">
        <ele>567.4</ele>
        <time>2015-04-05T17:57:21Z</time>
      </trkpt>
      <trkpt lat="44.03518" lon="2.83506">
        <ele>568.2</ele>
        <time>2015-04-05T17:57:24Z</time>
      </trkpt>
      <trkpt lat="44.03511" lon="2.83522">
        <ele>568.6</ele>
        <time>2015-04-05T17:57:27Z</time>
      </trkpt>
      <trkpt lat="44.03506" lon="2.83539">
        <ele>568.8</ele>
        <time>2015-04-05T17:57:30Z</time>
      </trkpt>
      <trkpt lat="44.03502" lon="2.83551">
        <ele>569</ele>
        <time>2015-04-05T17:57:32Z</time>
      </trkpt>
      <trkpt lat="44.035" lon="2.83564">
        <ele>569.4</ele>
        <time>2015-04-05T17:57:34Z</time>
      </trkpt>
      <trkpt lat="44.03498" lon="2.83576">
        <ele>569.8</ele>
        <time>2015-04-05T17:57:36Z</time>
      </trkpt>
      <trkpt lat="44.03496" lon="2.83589">
        <ele>569.8</ele>
        <time>2015-04-05T17:57:38Z</time>
      </trkpt>
      <trkpt lat="44.03495" lon="2.83602">
        <ele>570.4</ele>
        <time>2015-04-05T17:57:40Z</time>
      </trkpt>
      <trkpt lat="44.03494" lon="2.83616">
        <ele>570.4</ele>
        <time>2015-04-05T17:57:42Z</time>
      </trkpt>
      <trkpt lat="44.03493" lon="2.83629">
        <ele>570.4</ele>
        <time>2015-04-05T17:57:44Z</time>
      </trkpt>
      <trkpt lat="44.03492" lon="2.83642">
        <ele>570.7</ele>
        <time>2015-04-05T17:57:46Z</time>
      </trkpt>
      <trkpt lat="44.03491" lon="2.83655">
        <ele>570.9</ele>
        <time>2015-04-05T17:57:48Z</time>
      </trkpt>
      <trkpt lat="44.03489" lon="2.83668">
        <ele>571.1</ele>
        <time>2015-04-05T17:57:50Z</time>
      </trkpt>
      <trkpt lat="44.03487" lon="2.83681">
        <ele>571.5</ele>
        <time>2015-04-05T17:57:52Z</time>
      </trkpt>
      <trkpt lat="44.03484" lon="2.83693">
        <ele>571.9</ele>
        <time>2015-04-05T17:57:54Z</time>
      </trkpt>
      <trkpt lat="44.03481" lon="2.83705">
        <ele>571.7</ele>
        <time>2015-04-05T17:57:56Z</time>
      </trkpt>
      <trkpt lat="44.03477" lon="2.83717">
        <ele>571.9</ele>
        <time>2015-04-05T17:57:58Z</time>
      </trkpt>
      <trkpt lat="44.03471" lon="2.83729">
        <ele>571.8</ele>
        <time>2015-04-05T17:58:00Z</time>
      </trkpt>
      <trkpt lat="44.03467" lon="2.83741">
        <ele>571.9</ele>
        <time>2015-04-05T17:58:02Z</time>
      </trkpt>
      <trkpt lat="44.03462" lon="2.83752">
        <ele>571.9</ele>
        <time>2015-04-05T17:58:04Z</time>
      </trkpt>
      <trkpt lat="44.03457" lon="2.83764">
        <ele>571.5</ele>
        <time>2015-04-05T17:58:06Z</time>
      </trkpt>
      <trkpt lat="44.03453" lon="2.83776">
        <ele>571.5</ele>
        <time>2015-04-05T17:58:08Z</time>
      </trkpt>
      <trkpt lat="44.03448" lon="2.83787">
        <ele>571.5</ele>
        <time>2015-04-05T17:58:10Z</time>
      </trkpt>
      <trkpt lat="44.03443" lon="2.83798">
        <ele>571.3</ele>
        <time>2015-04-05T17:58:12Z</time>
      </trkpt>
      <trkpt lat="44.03438" lon="2.83809">
        <ele>571.1</ele>
        <time>2015-04-05T17:58:14Z</time>
      </trkpt>
      <trkpt lat="44.03433" lon="2.8382">
        <ele>571.2</ele>
        <time>2015-04-05T17:58:16Z</time>
      </trkpt>
      <trkpt lat="44.03427" lon="2.83837">
        <ele>571.3</ele>
        <time>2015-04-05T17:58:19Z</time>
      </trkpt>
      <trkpt lat="44.03422" lon="2.83848">
        <ele>571.3</ele>
        <time>2015-04-05T17:58:21Z</time>
      </trkpt>
      <trkpt lat="44.03418" lon="2.83858">
        <ele>571.3</ele>
        <time>2015-04-05T17:58:23Z</time>
      </trkpt>
      <trkpt lat="44.03411" lon="2.83874">
        <ele>571.4</ele>
        <time>2015-04-05T17:58:26Z</time>
      </trkpt>
      <trkpt lat="44.03404" lon="2.83889">
        <ele>571.6</ele>
        <time>2015-04-05T17:58:29Z</time>
      </trkpt>
      <trkpt lat="44.03398" lon="2.83904">
        <ele>571.9</ele>
        <time>2015-04-05T17:58:32Z</time>
      </trkpt>
      <trkpt lat="44.03391" lon="2.83919">
        <ele>572.1</ele>
        <time>2015-04-05T17:58:35Z</time>
      </trkpt>
      <trkpt lat="44.03384" lon="2.83934">
        <ele>572.1</ele>
        <time>2015-04-05T17:58:38Z</time>
      </trkpt>
      <trkpt lat="44.03377" lon="2.8395">
        <ele>572.4</ele>
        <time>2015-04-05T17:58:41Z</time>
      </trkpt>
      <trkpt lat="44.0337" lon="2.83965">
        <ele>572.6</ele>
        <time>2015-04-05T17:58:44Z</time>
      </trkpt>
      <trkpt lat="44.03363" lon="2.8398">
        <ele>572.9</ele>
        <time>2015-04-05T17:58:47Z</time>
      </trkpt>
      <trkpt lat="44.03356" lon="2.83995">
        <ele>573.3</ele>
        <time>2015-04-05T17:58:50Z</time>
      </trkpt>
      <trkpt lat="44.03349" lon="2.8401">
        <ele>573.5</ele>
        <time>2015-04-05T17:58:53Z</time>
      </trkpt>
      <trkpt lat="44.03342" lon="2.84025">
        <ele>573.6</ele>
        <time>2015-04-05T17:58:56Z</time>
      </trkpt>
      <trkpt lat="44.03334" lon="2.84038">
        <ele>573.8</ele>
        <time>2015-04-05T17:58:59Z</time>
      </trkpt>
      <trkpt lat="44.03324" lon="2.84051">
        <ele>574</ele>
        <time>2015-04-05T17:59:02Z</time>
      </trkpt>
      <trkpt lat="44.03314" lon="2.84062">
        <ele>574.3</ele>
        <time>2015-04-05T17:59:05Z</time>
      </trkpt>
      <trkpt lat="44.03302" lon="2.84071">
        <ele>574.6</ele>
        <time>2015-04-05T17:59:08Z</time>
      </trkpt>
      <trkpt lat="44.03294" lon="2.84076">
        <ele>574.8</ele>
        <time>2015-04-05T17:59:10Z</time>
      </trkpt>
      <trkpt lat="44.03281" lon="2.84082">
        <ele>575</ele>
        <time>2015-04-05T17:59:13Z</time>
      </trkpt>
      <trkpt lat="44.03272" lon="2.84084">
        <ele>575</ele>
        <time>2015-04-05T17:59:15Z</time>
      </trkpt>
      <trkpt lat="44.03263" lon="2.84086">
        <ele>575.1</ele>
        <time>2015-04-05T17:59:17Z</time>
      </trkpt>
      <trkpt lat="44.03253" lon="2.84087">
        <ele>575.3</ele>
        <time>2015-04-05T17:59:19Z</time>
      </trkpt>
      <trkpt lat="44.03244" lon="2.84088">
        <ele>575.4</ele>
        <time>2015-04-05T17:59:21Z</time>
      </trkpt>
      <trkpt lat="44.03235" lon="2.84088">
        <ele>575.5</ele>
        <time>2015-04-05T17:59:23Z</time>
      </trkpt>
      <trkpt lat="44.03226" lon="2.8409">
        <ele>575.6</ele>
        <time>2015-04-05T17:59:25Z</time>
      </trkpt>
      <trkpt lat="44.03216" lon="2.84091">
        <ele>575.7</ele>
        <time>2015-04-05T17:59:27Z</time>
      </trkpt>
      <trkpt lat="44.03207" lon="2.84094">
        <ele>576.1</ele>
        <time>2015-04-05T17:59:29Z</time>
      </trkpt>
      <trkpt lat="44.03197" lon="2.84098">
        <ele>576.3</ele>
        <time>2015-04-05T17:59:31Z</time>
      </trkpt>
      <trkpt lat="44.03188" lon="2.84103">
        <ele>576.2</ele>
        <time>2015-04-05T17:59:33Z</time>
      </trkpt>
      <trkpt lat="44.03179" lon="2.84109">
        <ele>576</ele>
        <time>2015-04-05T17:59:35Z</time>
      </trkpt>
      <trkpt lat="44.03171" lon="2.84116">
        <ele>575.9</ele>
        <time>2015-04-05T17:59:37Z</time>
      </trkpt>
      <trkpt lat="44.03163" lon="2.84125">
        <ele>576.1</ele>
        <time>2015-04-05T17:59:39Z</time>
      </trkpt>
      <trkpt lat="44.03155" lon="2.84134">
        <ele>576.4</ele>
        <time>2015-04-05T17:59:41Z</time>
      </trkpt>
      <trkpt lat="44.03147" lon="2.84143">
        <ele>576.4</ele>
        <time>2015-04-05T17:59:43Z</time>
      </trkpt>
      <trkpt lat="44.0314" lon="2.84154">
        <ele>577.2</ele>
        <time>2015-04-05T17:59:45Z</time>
      </trkpt>
      <trkpt lat="44.03133" lon="2.84165">
        <ele>577.7</ele>
        <time>2015-04-05T17:59:47Z</time>
      </trkpt>
      <trkpt lat="44.03126" lon="2.84176">
        <ele>577.8</ele>
        <time>2015-04-05T17:59:49Z</time>
      </trkpt>
      <trkpt lat="44.03119" lon="2.84187">
        <ele>578.5</ele>
        <time>2015-04-05T17:59:51Z</time>
      </trkpt>
      <trkpt lat="44.03111" lon="2.84199">
        <ele>578.7</ele>
        <time>2015-04-05T17:59:53Z</time>
      </trkpt>
      <trkpt lat="44.03103" lon="2.84211">
        <ele>578.8</ele>
        <time>2015-04-05T17:59:55Z</time>
      </trkpt>
      <trkpt lat="44.03096" lon="2.84223">
        <ele>578.9</ele>
        <time>2015-04-05T17:59:57Z</time>
      </trkpt>
      <trkpt lat="44.03088" lon="2.84235">
        <ele>579.3</ele>
        <time>2015-04-05T17:59:59Z</time>
      </trkpt>
      <trkpt lat="44.03081" lon="2.84247">
        <ele>579.6</ele>
        <time>2015-04-05T18:00:01Z</time>
      </trkpt>
      <trkpt lat="44.03073" lon="2.8426">
        <ele>579.4</ele>
        <time>2015-04-05T18:00:03Z</time>
      </trkpt>
      <trkpt lat="44.03065" lon="2.84273">
        <ele>579.5</ele>
        <time>2015-04-05T18:00:05Z</time>
      </trkpt>
      <trkpt lat="44.03057" lon="2.84286">
        <ele>579.5</ele>
        <time>2015-04-05T18:00:07Z</time>
      </trkpt>
      <trkpt lat="44.03049" lon="2.84299">
        <ele>579.4</ele>
        <time>2015-04-05T18:00:09Z</time>
      </trkpt>
      <trkpt lat="44.03041" lon="2.84313">
        <ele>579.2</ele>
        <time>2015-04-05T18:00:11Z</time>
      </trkpt>
      <trkpt lat="44.03032" lon="2.84327">
        <ele>579</ele>
        <time>2015-04-05T18:00:13Z</time>
      </trkpt>
      <trkpt lat="44.03024" lon="2.8434">
        <ele>578.7</ele>
        <time>2015-04-05T18:00:15Z</time>
      </trkpt>
      <trkpt lat="44.03015" lon="2.84354">
        <ele>579.1</ele>
        <time>2015-04-05T18:00:17Z</time>
      </trkpt>
      <trkpt lat="44.03007" lon="2.84368">
        <ele>578.9</ele>
        <time>2015-04-05T18:00:19Z</time>
      </trkpt>
      <trkpt lat="44.02999" lon="2.84382">
        <ele>579</ele>
        <time>2015-04-05T18:00:21Z</time>
      </trkpt>
      <trkpt lat="44.0299" lon="2.84396">
        <ele>578.9</ele>
        <time>2015-04-05T18:00:23Z</time>
      </trkpt>
      <trkpt lat="44.02982" lon="2.84409">
        <ele>579</ele>
        <time>2015-04-05T18:00:25Z</time>
      </trkpt>
      <trkpt lat="44.02974" lon="2.84423">
        <ele>579</ele>
        <time>2015-04-05T18:00:27Z</time>
      </trkpt>
      <trkpt lat="44.02966" lon="2.84436">
        <ele>579.2</ele>
        <time>2015-04-05T18:00:29Z</time>
      </trkpt>
      <trkpt lat="44.02958" lon="2.84448">
        <ele>579.5</ele>
        <time>2015-04-05T18:00:31Z</time>
      </trkpt>
      <trkpt lat="44.0295" lon="2.84461">
        <ele>580</ele>
        <time>2015-04-05T18:00:33Z</time>
      </trkpt>
      <trkpt lat="44.02943" lon="2.84474">
        <ele>580.5</ele>
        <time>2015-04-05T18:00:35Z</time>
      </trkpt>
      <trkpt lat="44.02936" lon="2.84485">
        <ele>580.6</ele>
        <time>2015-04-05T18:00:37Z</time>
      </trkpt>
      <trkpt lat="44.02929" lon="2.84496">
        <ele>581.1</ele>
        <time>2015-04-05T18:00:39Z</time>
      </trkpt>
      <trkpt lat="44.02922" lon="2.84507">
        <ele>581.3</ele>
        <time>2015-04-05T18:00:41Z</time>
      </trkpt>
      <trkpt lat="44.02916" lon="2.84517">
        <ele>581.7</ele>
        <time>2015-04-05T18:00:43Z</time>
      </trkpt>
      <trkpt lat="44.02909" lon="2.84527">
        <ele>581.8</ele>
        <time>2015-04-05T18:00:45Z</time>
      </trkpt>
      <trkpt lat="44.02903" lon="2.84536">
        <ele>582.4</ele>
        <time>2015-04-05T18:00:47Z</time>
      </trkpt>
      <trkpt lat="44.02895" lon="2.8455">
        <ele>583.6</ele>
        <time>2015-04-05T18:00:50Z</time>
      </trkpt>
      <trkpt lat="44.02889" lon="2.8456">
        <ele>583.6</ele>
        <time>2015-04-05T18:00:52Z</time>
      </trkpt>
      <trkpt lat="44.02883" lon="2.8457">
        <ele>583.6</ele>
        <time>2015-04-05T18:00:54Z</time>
      </trkpt>
      <trkpt lat="44.02874" lon="2.84583">
        <ele>584</ele>
        <time>2015-04-05T18:00:57Z</time>
      </trkpt>
      <trkpt lat="44.02866" lon="2.84597">
        <ele>584.5</ele>
        <time>2015-04-05T18:01:00Z</time>
      </trkpt>
      <trkpt lat="44.02859" lon="2.84609">
        <ele>585.1</ele>
        <time>2015-04-05T18:01:03Z</time>
      </trkpt>
      <trkpt lat="44.02852" lon="2.84622">
        <ele>585.4</ele>
        <time>2015-04-05T18:01:06Z</time>
      </trkpt>
      <trkpt lat="44.02845" lon="2.84634">
        <ele>586.3</ele>
        <time>2015-04-05T18:01:09Z</time>
      </trkpt>
      <trkpt lat="44.02838" lon="2.84646">
        <ele>587.1</ele>
        <time>2015-04-05T18:01:12Z</time>
      </trkpt>
      <trkpt lat="44.02831" lon="2.84658">
        <ele>586.3</ele>
        <time>2015-04-05T18:01:15Z</time>
      </trkpt>
      <trkpt lat="44.02826" lon="2.84669">
        <ele>586.4</ele>
        <time>2015-04-05T18:01:18Z</time>
      </trkpt>
      <trkpt lat="44.02822" lon="2.84684">
        <ele>587.3</ele>
        <time>2015-04-05T18:01:22Z</time>
      </trkpt>
      <trkpt lat="44.02821" lon="2.84699">
        <ele>588.6</ele>
        <time>2015-04-05T18:01:26Z</time>
      </trkpt>
      <trkpt lat="44.02818" lon="2.84712">
        <ele>588.1</ele>
        <time>2015-04-05T18:01:29Z</time>
      </trkpt>
      <trkpt lat="44.02814" lon="2.84727">
        <ele>587.6</ele>
        <time>2015-04-05T18:01:33Z</time>
      </trkpt>
      <trkpt lat="44.02811" lon="2.8474">
        <ele>586.9</ele>
        <time>2015-04-05T18:01:36Z</time>
      </trkpt>
      <trkpt lat="44.02808" lon="2.84753">
        <ele>586.5</ele>
        <time>2015-04-05T18:01:39Z</time>
      </trkpt>
      <trkpt lat="44.02804" lon="2.84766">
        <ele>586.1</ele>
        <time>2015-04-05T18:01:42Z</time>
      </trkpt>
      <trkpt lat="44.028" lon="2.84779">
        <ele>585.7</ele>
        <time>2015-04-05T18:01:45Z</time>
      </trkpt>
      <trkpt lat="44.02794" lon="2.84793">
        <ele>585.3</ele>
        <time>2015-04-05T18:01:48Z</time>
      </trkpt>
      <trkpt lat="44.02786" lon="2.84807">
        <ele>584.5</ele>
        <time>2015-04-05T18:01:51Z</time>
      </trkpt>
      <trkpt lat="44.0278" lon="2.84817">
        <ele>584.1</ele>
        <time>2015-04-05T18:01:53Z</time>
      </trkpt>
      <trkpt lat="44.02773" lon="2.84826">
        <ele>583.8</ele>
        <time>2015-04-05T18:01:55Z</time>
      </trkpt>
      <trkpt lat="44.02765" lon="2.84836">
        <ele>583.5</ele>
        <time>2015-04-05T18:01:57Z</time>
      </trkpt>
      <trkpt lat="44.02757" lon="2.84844">
        <ele>583.5</ele>
        <time>2015-04-05T18:01:59Z</time>
      </trkpt>
      <trkpt lat="44.02747" lon="2.84851">
        <ele>583.4</ele>
        <time>2015-04-05T18:02:01Z</time>
      </trkpt>
      <trkpt lat="44.02737" lon="2.84858">
        <ele>583.5</ele>
        <time>2015-04-05T18:02:03Z</time>
      </trkpt>
      <trkpt lat="44.02725" lon="2.84862">
        <ele>583.2</ele>
        <time>2015-04-05T18:02:05Z</time>
      </trkpt>
      <trkpt lat="44.02713" lon="2.84866">
        <ele>582.9</ele>
        <time>2015-04-05T18:02:07Z</time>
      </trkpt>
      <trkpt lat="44.02701" lon="2.84868">
        <ele>582.6</ele>
        <time>2015-04-05T18:02:09Z</time>
      </trkpt>
      <trkpt lat="44.02688" lon="2.84868">
        <ele>582.3</ele>
        <time>2015-04-05T18:02:11Z</time>
      </trkpt>
      <trkpt lat="44.02674" lon="2.84868">
        <ele>582.1</ele>
        <time>2015-04-05T18:02:13Z</time>
      </trkpt>
      <trkpt lat="44.02659" lon="2.84868">
        <ele>581.9</ele>
        <time>2015-04-05T18:02:15Z</time>
      </trkpt>
      <trkpt lat="44.02644" lon="2.84868">
        <ele>581.6</ele>
        <time>2015-04-05T18:02:17Z</time>
      </trkpt>
      <trkpt lat="44.02629" lon="2.84869">
        <ele>581</ele>
        <time>2015-04-05T18:02:19Z</time>
      </trkpt>
      <trkpt lat="44.02613" lon="2.84872">
        <ele>580.5</ele>
        <time>2015-04-05T18:02:21Z</time>
      </trkpt>
      <trkpt lat="44.02597" lon="2.84877">
        <ele>580</ele>
        <time>2015-04-05T18:02:23Z</time>
      </trkpt>
      <trkpt lat="44.02581" lon="2.84883">
        <ele>579.4</ele>
        <time>2015-04-05T18:02:25Z</time>
      </trkpt>
      <trkpt lat="44.02565" lon="2.84893">
        <ele>578.8</ele>
        <time>2015-04-05T18:02:27Z</time>
      </trkpt>
      <trkpt lat="44.0255" lon="2.84904">
        <ele>578.2</ele>
        <time>2015-04-05T18:02:29Z</time>
      </trkpt>
      <trkpt lat="44.02535" lon="2.84918">
        <ele>577.5</ele>
        <time>2015-04-05T18:02:31Z</time>
      </trkpt>
      <trkpt lat="44.02528" lon="2.84927">
        <ele>577.3</ele>
        <time>2015-04-05T18:02:32Z</time>
      </trkpt>
      <trkpt lat="44.02521" lon="2.84935">
        <ele>577</ele>
        <time>2015-04-05T18:02:33Z</time>
      </trkpt>
      <trkpt lat="44.02514" lon="2.84944">
        <ele>576.7</ele>
        <time>2015-04-05T18:02:34Z</time>
      </trkpt>
      <trkpt lat="44.02508" lon="2.84954">
        <ele>576.5</ele>
        <time>2015-04-05T18:02:35Z</time>
      </trkpt>
      <trkpt lat="44.02502" lon="2.84964">
        <ele>576.3</ele>
        <time>2015-04-05T18:02:36Z</time>
      </trkpt>
      <trkpt lat="44.02497" lon="2.84974">
        <ele>576.2</ele>
        <time>2015-04-05T18:02:37Z</time>
      </trkpt>
      <trkpt lat="44.02491" lon="2.84985">
        <ele>575.9</ele>
        <time>2015-04-05T18:02:38Z</time>
      </trkpt>
      <trkpt lat="44.02486" lon="2.84996">
        <ele>575.7</ele>
        <time>2015-04-05T18:02:39Z</time>
      </trkpt>
      <trkpt lat="44.0248" lon="2.85006">
        <ele>575.6</ele>
        <time>2015-04-05T18:02:40Z</time>
      </trkpt>
      <trkpt lat="44.02474" lon="2.85016">
        <ele>575.5</ele>
        <time>2015-04-05T18:02:41Z</time>
      </trkpt>
      <trkpt lat="44.02469" lon="2.85027">
        <ele>575.3</ele>
        <time>2015-04-05T18:02:42Z</time>
      </trkpt>
      <trkpt lat="44.02463" lon="2.85037">
        <ele>575.3</ele>
        <time>2015-04-05T18:02:43Z</time>
      </trkpt>
      <trkpt lat="44.02453" lon="2.85057">
        <ele>575.3</ele>
        <time>2015-04-05T18:02:45Z</time>
      </trkpt>
      <trkpt lat="44.02444" lon="2.85076">
        <ele>575.4</ele>
        <time>2015-04-05T18:02:47Z</time>
      </trkpt>
      <trkpt lat="44.02435" lon="2.85093">
        <ele>575.6</ele>
        <time>2015-04-05T18:02:49Z</time>
      </trkpt>
      <trkpt lat="44.02427" lon="2.85108">
        <ele>575.8</ele>
        <time>2015-04-05T18:02:51Z</time>
      </trkpt>
      <trkpt lat="44.0242" lon="2.85122">
        <ele>575.8</ele>
        <time>2015-04-05T18:02:53Z</time>
      </trkpt>
      <trkpt lat="44.02413" lon="2.85134">
        <ele>575.8</ele>
        <time>2015-04-05T18:02:55Z</time>
      </trkpt>
      <trkpt lat="44.02407" lon="2.85145">
        <ele>576</ele>
        <time>2015-04-05T18:02:57Z</time>
      </trkpt>
      <trkpt lat="44.024" lon="2.8516">
        <ele>576.3</ele>
        <time>2015-04-05T18:03:00Z</time>
      </trkpt>
      <trkpt lat="44.02393" lon="2.85173">
        <ele>577</ele>
        <time>2015-04-05T18:03:03Z</time>
      </trkpt>
      <trkpt lat="44.02387" lon="2.85186">
        <ele>576.9</ele>
        <time>2015-04-05T18:03:06Z</time>
      </trkpt>
      <trkpt lat="44.02381" lon="2.85197">
        <ele>577.2</ele>
        <time>2015-04-05T18:03:09Z</time>
      </trkpt>
      <trkpt lat="44.02375" lon="2.85207">
        <ele>577.2</ele>
        <time>2015-04-05T18:03:12Z</time>
      </trkpt>
      <trkpt lat="44.02369" lon="2.8522">
        <ele>577.5</ele>
        <time>2015-04-05T18:03:16Z</time>
      </trkpt>
      <trkpt lat="44.02362" lon="2.85232">
        <ele>578</ele>
        <time>2015-04-05T18:03:20Z</time>
      </trkpt>
      <trkpt lat="44.02356" lon="2.85244">
        <ele>578.3</ele>
        <time>2015-04-05T18:03:24Z</time>
      </trkpt>
      <trkpt lat="44.02365" lon="2.85251">
        <ele>579.7</ele>
        <time>2015-04-05T18:03:29Z</time>
      </trkpt>
      <trkpt lat="44.02369" lon="2.85238">
        <ele>581.2</ele>
        <time>2015-04-05T18:03:39Z</time>
      </trkpt>
      <trkpt lat="44.0236" lon="2.85242">
        <ele>582.7</ele>
        <time>2015-04-05T18:04:33Z</time>
      </trkpt>
      <trkpt lat="44.02352" lon="2.8525">
        <ele>582.3</ele>
        <time>2015-04-05T18:04:36Z</time>
      </trkpt>
      <trkpt lat="44.02343" lon="2.8526">
        <ele>581.9</ele>
        <time>2015-04-05T18:04:39Z</time>
      </trkpt>
      <trkpt lat="44.02333" lon="2.85271">
        <ele>581.6</ele>
        <time>2015-04-05T18:04:42Z</time>
      </trkpt>
      <trkpt lat="44.02326" lon="2.85278">
        <ele>581.3</ele>
        <time>2015-04-05T18:04:44Z</time>
      </trkpt>
      <trkpt lat="44.02317" lon="2.85287">
        <ele>581</ele>
        <time>2015-04-05T18:04:46Z</time>
      </trkpt>
      <trkpt lat="44.02308" lon="2.85297">
        <ele>580.8</ele>
        <time>2015-04-05T18:04:48Z</time>
      </trkpt>
      <trkpt lat="44.02298" lon="2.85308">
        <ele>580.6</ele>
        <time>2015-04-05T18:04:50Z</time>
      </trkpt>
      <trkpt lat="44.02287" lon="2.8532">
        <ele>580.3</ele>
        <time>2015-04-05T18:04:52Z</time>
      </trkpt>
      <trkpt lat="44.02275" lon="2.85332">
        <ele>579.9</ele>
        <time>2015-04-05T18:04:54Z</time>
      </trkpt>
      <trkpt lat="44.02262" lon="2.85345">
        <ele>579.4</ele>
        <time>2015-04-05T18:04:56Z</time>
      </trkpt>
      <trkpt lat="44.02249" lon="2.8536">
        <ele>578.6</ele>
        <time>2015-04-05T18:04:58Z</time>
      </trkpt>
      <trkpt lat="44.02236" lon="2.85375">
        <ele>577.9</ele>
        <time>2015-04-05T18:05:00Z</time>
      </trkpt>
      <trkpt lat="44.02223" lon="2.85391">
        <ele>577.3</ele>
        <time>2015-04-05T18:05:02Z</time>
      </trkpt>
      <trkpt lat="44.02215" lon="2.85398">
        <ele>576.6</ele>
        <time>2015-04-05T18:05:03Z</time>
      </trkpt>
      <trkpt lat="44.02208" lon="2.85406">
        <ele>576</ele>
        <time>2015-04-05T18:05:04Z</time>
      </trkpt>
      <trkpt lat="44.02201" lon="2.85415">
        <ele>575.6</ele>
        <time>2015-04-05T18:05:05Z</time>
      </trkpt>
      <trkpt lat="44.02195" lon="2.85424">
        <ele>575.2</ele>
        <time>2015-04-05T18:05:06Z</time>
      </trkpt>
      <trkpt lat="44.02188" lon="2.85433">
        <ele>574.8</ele>
        <time>2015-04-05T18:05:07Z</time>
      </trkpt>
      <trkpt lat="44.02182" lon="2.85443">
        <ele>574.5</ele>
        <time>2015-04-05T18:05:08Z</time>
      </trkpt>
      <trkpt lat="44.02176" lon="2.85453">
        <ele>574.1</ele>
        <time>2015-04-05T18:05:09Z</time>
      </trkpt>
      <trkpt lat="44.02169" lon="2.85463">
        <ele>573.7</ele>
        <time>2015-04-05T18:05:10Z</time>
      </trkpt>
      <trkpt lat="44.02164" lon="2.85474">
        <ele>573.4</ele>
        <time>2015-04-05T18:05:11Z</time>
      </trkpt>
      <trkpt lat="44.02158" lon="2.85485">
        <ele>572.9</ele>
        <time>2015-04-05T18:05:12Z</time>
      </trkpt>
      <trkpt lat="44.02153" lon="2.85497">
        <ele>572.4</ele>
        <time>2015-04-05T18:05:13Z</time>
      </trkpt>
      <trkpt lat="44.02149" lon="2.8551">
        <ele>571.9</ele>
        <time>2015-04-05T18:05:14Z</time>
      </trkpt>
      <trkpt lat="44.02145" lon="2.85523">
        <ele>571.4</ele>
        <time>2015-04-05T18:05:15Z</time>
      </trkpt>
      <trkpt lat="44.02142" lon="2.85537">
        <ele>570.8</ele>
        <time>2015-04-05T18:05:16Z</time>
      </trkpt>
      <trkpt lat="44.02139" lon="2.85551">
        <ele>570.4</ele>
        <time>2015-04-05T18:05:17Z</time>
      </trkpt>
      <trkpt lat="44.02136" lon="2.85565">
        <ele>570</ele>
        <time>2015-04-05T18:05:18Z</time>
      </trkpt>
      <trkpt lat="44.02135" lon="2.8558">
        <ele>569.6</ele>
        <time>2015-04-05T18:05:19Z</time>
      </trkpt>
      <trkpt lat="44.02133" lon="2.85594">
        <ele>569.1</ele>
        <time>2015-04-05T18:05:20Z</time>
      </trkpt>
      <trkpt lat="44.02133" lon="2.85608">
        <ele>568.7</ele>
        <time>2015-04-05T18:05:21Z</time>
      </trkpt>
      <trkpt lat="44.02133" lon="2.85622">
        <ele>568.2</ele>
        <time>2015-04-05T18:05:22Z</time>
      </trkpt>
      <trkpt lat="44.02133" lon="2.85636">
        <ele>567.7</ele>
        <time>2015-04-05T18:05:23Z</time>
      </trkpt>
      <trkpt lat="44.02134" lon="2.8565">
        <ele>567.3</ele>
        <time>2015-04-05T18:05:24Z</time>
      </trkpt>
      <trkpt lat="44.02136" lon="2.85664">
        <ele>566.9</ele>
        <time>2015-04-05T18:05:25Z</time>
      </trkpt>
      <trkpt lat="44.02138" lon="2.85677">
        <ele>566.6</ele>
        <time>2015-04-05T18:05:26Z</time>
      </trkpt>
      <trkpt lat="44.02141" lon="2.8569">
        <ele>566.2</ele>
        <time>2015-04-05T18:05:27Z</time>
      </trkpt>
      <trkpt lat="44.02143" lon="2.85704">
        <ele>565.9</ele>
        <time>2015-04-05T18:05:28Z</time>
      </trkpt>
      <trkpt lat="44.02145" lon="2.85717">
        <ele>565.6</ele>
        <time>2015-04-05T18:05:29Z</time>
      </trkpt>
      <trkpt lat="44.02147" lon="2.85729">
        <ele>565.3</ele>
        <time>2015-04-05T18:05:30Z</time>
      </trkpt>
      <trkpt lat="44.02148" lon="2.85742">
        <ele>564.9</ele>
        <time>2015-04-05T18:05:31Z</time>
      </trkpt>
      <trkpt lat="44.02152" lon="2.85765">
        <ele>564.3</ele>
        <time>2015-04-05T18:05:33Z</time>
      </trkpt>
      <trkpt lat="44.02156" lon="2.85788">
        <ele>563.8</ele>
        <time>2015-04-05T18:05:35Z</time>
      </trkpt>
      <trkpt lat="44.0216" lon="2.85811">
        <ele>563.3</ele>
        <time>2015-04-05T18:05:37Z</time>
      </trkpt>
      <trkpt lat="44.02164" lon="2.85833">
        <ele>563</ele>
        <time>2015-04-05T18:05:39Z</time>
      </trkpt>
      <trkpt lat="44.02167" lon="2.85855">
        <ele>562.7</ele>
        <time>2015-04-05T18:05:41Z</time>
      </trkpt>
      <trkpt lat="44.0217" lon="2.85877">
        <ele>562.3</ele>
        <time>2015-04-05T18:05:43Z</time>
      </trkpt>
      <trkpt lat="44.02174" lon="2.85896">
        <ele>562.1</ele>
        <time>2015-04-05T18:05:45Z</time>
      </trkpt>
      <trkpt lat="44.02177" lon="2.85916">
        <ele>561.7</ele>
        <time>2015-04-05T18:05:47Z</time>
      </trkpt>
      <trkpt lat="44.02179" lon="2.85935">
        <ele>561.4</ele>
        <time>2015-04-05T18:05:49Z</time>
      </trkpt>
      <trkpt lat="44.02181" lon="2.85953">
        <ele>561.2</ele>
        <time>2015-04-05T18:05:51Z</time>
      </trkpt>
      <trkpt lat="44.02184" lon="2.8597">
        <ele>561.1</ele>
        <time>2015-04-05T18:05:53Z</time>
      </trkpt>
      <trkpt lat="44.02187" lon="2.85988">
        <ele>560.9</ele>
        <time>2015-04-05T18:05:55Z</time>
      </trkpt>
      <trkpt lat="44.02191" lon="2.86005">
        <ele>560.7</ele>
        <time>2015-04-05T18:05:57Z</time>
      </trkpt>
      <trkpt lat="44.02195" lon="2.86023">
        <ele>560.6</ele>
        <time>2015-04-05T18:05:59Z</time>
      </trkpt>
      <trkpt lat="44.022" lon="2.86041">
        <ele>560.5</ele>
        <time>2015-04-05T18:06:01Z</time>
      </trkpt>
      <trkpt lat="44.02205" lon="2.8606">
        <ele>560.2</ele>
        <time>2015-04-05T18:06:03Z</time>
      </trkpt>
      <trkpt lat="44.0221" lon="2.8608">
        <ele>560.1</ele>
        <time>2015-04-05T18:06:05Z</time>
      </trkpt>
      <trkpt lat="44.02214" lon="2.86102">
        <ele>559.8</ele>
        <time>2015-04-05T18:06:07Z</time>
      </trkpt>
      <trkpt lat="44.02217" lon="2.86125">
        <ele>559.5</ele>
        <time>2015-04-05T18:06:09Z</time>
      </trkpt>
      <trkpt lat="44.02218" lon="2.86149">
        <ele>559.5</ele>
        <time>2015-04-05T18:06:11Z</time>
      </trkpt>
      <trkpt lat="44.02219" lon="2.86173">
        <ele>559.8</ele>
        <time>2015-04-05T18:06:13Z</time>
      </trkpt>
      <trkpt lat="44.0222" lon="2.86196">
        <ele>559.9</ele>
        <time>2015-04-05T18:06:15Z</time>
      </trkpt>
      <trkpt lat="44.02218" lon="2.86218">
        <ele>560.2</ele>
        <time>2015-04-05T18:06:17Z</time>
      </trkpt>
      <trkpt lat="44.02215" lon="2.86239">
        <ele>560.2</ele>
        <time>2015-04-05T18:06:19Z</time>
      </trkpt>
      <trkpt lat="44.02211" lon="2.8626">
        <ele>561.1</ele>
        <time>2015-04-05T18:06:21Z</time>
      </trkpt>
      <trkpt lat="44.02206" lon="2.8628">
        <ele>561.5</ele>
        <time>2015-04-05T18:06:23Z</time>
      </trkpt>
      <trkpt lat="44.02201" lon="2.86299">
        <ele>562.1</ele>
        <time>2015-04-05T18:06:25Z</time>
      </trkpt>
      <trkpt lat="44.02196" lon="2.86316">
        <ele>562.9</ele>
        <time>2015-04-05T18:06:27Z</time>
      </trkpt>
      <trkpt lat="44.0219" lon="2.86334">
        <ele>564</ele>
        <time>2015-04-05T18:06:29Z</time>
      </trkpt>
      <trkpt lat="44.02185" lon="2.8635">
        <ele>564.8</ele>
        <time>2015-04-05T18:06:31Z</time>
      </trkpt>
      <trkpt lat="44.02181" lon="2.86365">
        <ele>565.2</ele>
        <time>2015-04-05T18:06:33Z</time>
      </trkpt>
      <trkpt lat="44.02176" lon="2.8638">
        <ele>565.5</ele>
        <time>2015-04-05T18:06:35Z</time>
      </trkpt>
      <trkpt lat="44.02172" lon="2.86393">
        <ele>566</ele>
        <time>2015-04-05T18:06:37Z</time>
      </trkpt>
      <trkpt lat="44.02168" lon="2.86406">
        <ele>566.3</ele>
        <time>2015-04-05T18:06:39Z</time>
      </trkpt>
      <trkpt lat="44.02164" lon="2.86418">
        <ele>567.8</ele>
        <time>2015-04-05T18:06:41Z</time>
      </trkpt>
      <trkpt lat="44.0216" lon="2.86431">
        <ele>568.1</ele>
        <time>2015-04-05T18:06:43Z</time>
      </trkpt>
      <trkpt lat="44.02155" lon="2.86448">
        <ele>568.3</ele>
        <time>2015-04-05T18:06:46Z</time>
      </trkpt>
      <trkpt lat="44.0215" lon="2.86465">
        <ele>568.9</ele>
        <time>2015-04-05T18:06:49Z</time>
      </trkpt>
      <trkpt lat="44.02145" lon="2.86482">
        <ele>569</ele>
        <time>2015-04-05T18:06:52Z</time>
      </trkpt>
      <trkpt lat="44.0214" lon="2.86498">
        <ele>569.4</ele>
        <time>2015-04-05T18:06:55Z</time>
      </trkpt>
      <trkpt lat="44.02136" lon="2.86514">
        <ele>569.4</ele>
        <time>2015-04-05T18:06:58Z</time>
      </trkpt>
      <trkpt lat="44.02131" lon="2.8653">
        <ele>569.9</ele>
        <time>2015-04-05T18:07:01Z</time>
      </trkpt>
      <trkpt lat="44.02126" lon="2.86546">
        <ele>571.1</ele>
        <time>2015-04-05T18:07:04Z</time>
      </trkpt>
      <trkpt lat="44.02122" lon="2.86562">
        <ele>572.2</ele>
        <time>2015-04-05T18:07:07Z</time>
      </trkpt>
      <trkpt lat="44.02117" lon="2.86577">
        <ele>573.2</ele>
        <time>2015-04-05T18:07:10Z</time>
      </trkpt>
      <trkpt lat="44.02112" lon="2.86593">
        <ele>573.5</ele>
        <time>2015-04-05T18:07:13Z</time>
      </trkpt>
      <trkpt lat="44.02107" lon="2.86609">
        <ele>574.3</ele>
        <time>2015-04-05T18:07:16Z</time>
      </trkpt>
      <trkpt lat="44.02103" lon="2.86626">
        <ele>574.6</ele>
        <time>2015-04-05T18:07:19Z</time>
      </trkpt>
      <trkpt lat="44.02098" lon="2.86644">
        <ele>574.8</ele>
        <time>2015-04-05T18:07:22Z</time>
      </trkpt>
      <trkpt lat="44.02094" lon="2.86656">
        <ele>574.9</ele>
        <time>2015-04-05T18:07:24Z</time>
      </trkpt>
      <trkpt lat="44.0209" lon="2.86672">
        <ele>575.2</ele>
        <time>2015-04-05T18:07:27Z</time>
      </trkpt>
      <trkpt lat="44.02086" lon="2.86687">
        <ele>576.1</ele>
        <time>2015-04-05T18:07:30Z</time>
      </trkpt>
      <trkpt lat="44.02081" lon="2.86701">
        <ele>576.9</ele>
        <time>2015-04-05T18:07:33Z</time>
      </trkpt>
      <trkpt lat="44.02076" lon="2.86714">
        <ele>577.7</ele>
        <time>2015-04-05T18:07:36Z</time>
      </trkpt>
      <trkpt lat="44.02071" lon="2.86728">
        <ele>578.1</ele>
        <time>2015-04-05T18:07:39Z</time>
      </trkpt>
      <trkpt lat="44.02067" lon="2.86741">
        <ele>578.5</ele>
        <time>2015-04-05T18:07:42Z</time>
      </trkpt>
      <trkpt lat="44.02061" lon="2.86751">
        <ele>578.7</ele>
        <time>2015-04-05T18:07:45Z</time>
      </trkpt>
      <trkpt lat="44.02057" lon="2.86762">
        <ele>579</ele>
        <time>2015-04-05T18:07:48Z</time>
      </trkpt>
      <trkpt lat="44.02051" lon="2.86773">
        <ele>579</ele>
        <time>2015-04-05T18:07:51Z</time>
      </trkpt>
      <trkpt lat="44.02046" lon="2.86785">
        <ele>579</ele>
        <time>2015-04-05T18:07:54Z</time>
      </trkpt>
      <trkpt lat="44.02041" lon="2.86796">
        <ele>579.2</ele>
        <time>2015-04-05T18:07:57Z</time>
      </trkpt>
      <trkpt lat="44.02034" lon="2.86809">
        <ele>579.1</ele>
        <time>2015-04-05T18:08:02Z</time>
      </trkpt>
      <trkpt lat="44.02029" lon="2.8682">
        <ele>579.6</ele>
        <time>2015-04-05T18:08:06Z</time>
      </trkpt>
      <trkpt lat="44.02023" lon="2.86831">
        <ele>580.1</ele>
        <time>2015-04-05T18:08:10Z</time>
      </trkpt>
      <trkpt lat="44.02017" lon="2.86843">
        <ele>580.7</ele>
        <time>2015-04-05T18:08:14Z</time>
      </trkpt>
      <trkpt lat="44.02011" lon="2.86855">
        <ele>581.2</ele>
        <time>2015-04-05T18:08:18Z</time>
      </trkpt>
      <trkpt lat="44.02006" lon="2.86867">
        <ele>582.1</ele>
        <time>2015-04-05T18:08:22Z</time>
      </trkpt>
      <trkpt lat="44.02001" lon="2.86879">
        <ele>583.1</ele>
        <time>2015-04-05T18:08:26Z</time>
      </trkpt>
      <trkpt lat="44.01994" lon="2.8689">
        <ele>584.3</ele>
        <time>2015-04-05T18:08:30Z</time>
      </trkpt>
      <trkpt lat="44.01989" lon="2.86902">
        <ele>585.7</ele>
        <time>2015-04-05T18:08:34Z</time>
      </trkpt>
      <trkpt lat="44.01984" lon="2.86913">
        <ele>586.9</ele>
        <time>2015-04-05T18:08:38Z</time>
      </trkpt>
      <trkpt lat="44.01978" lon="2.86925">
        <ele>587.9</ele>
        <time>2015-04-05T18:08:42Z</time>
      </trkpt>
      <trkpt lat="44.01973" lon="2.86937">
        <ele>588.5</ele>
        <time>2015-04-05T18:08:46Z</time>
      </trkpt>
      <trkpt lat="44.01967" lon="2.86949">
        <ele>589</ele>
        <time>2015-04-05T18:08:50Z</time>
      </trkpt>
      <trkpt lat="44.01961" lon="2.86962">
        <ele>589.8</ele>
        <time>2015-04-05T18:08:54Z</time>
      </trkpt>
      <trkpt lat="44.01956" lon="2.86975">
        <ele>590.2</ele>
        <time>2015-04-05T18:08:58Z</time>
      </trkpt>
      <trkpt lat="44.01951" lon="2.86988">
        <ele>589.9</ele>
        <time>2015-04-05T18:09:02Z</time>
      </trkpt>
      <trkpt lat="44.01947" lon="2.87">
        <ele>590.2</ele>
        <time>2015-04-05T18:09:06Z</time>
      </trkpt>
      <trkpt lat="44.01943" lon="2.87013">
        <ele>590.4</ele>
        <time>2015-04-05T18:09:10Z</time>
      </trkpt>
      <trkpt lat="44.01939" lon="2.87026">
        <ele>591</ele>
        <time>2015-04-05T18:09:14Z</time>
      </trkpt>
      <trkpt lat="44.01935" lon="2.87038">
        <ele>591.3</ele>
        <time>2015-04-05T18:09:18Z</time>
      </trkpt>
      <trkpt lat="44.01931" lon="2.87051">
        <ele>592.1</ele>
        <time>2015-04-05T18:09:22Z</time>
      </trkpt>
      <trkpt lat="44.01928" lon="2.87065">
        <ele>593.1</ele>
        <time>2015-04-05T18:09:26Z</time>
      </trkpt>
      <trkpt lat="44.01926" lon="2.8708">
        <ele>594.1</ele>
        <time>2015-04-05T18:09:30Z</time>
      </trkpt>
      <trkpt lat="44.01923" lon="2.87094">
        <ele>594.1</ele>
        <time>2015-04-05T18:09:34Z</time>
      </trkpt>
      <trkpt lat="44.01921" lon="2.8711">
        <ele>594.4</ele>
        <time>2015-04-05T18:09:38Z</time>
      </trkpt>
      <trkpt lat="44.01919" lon="2.87123">
        <ele>593.9</ele>
        <time>2015-04-05T18:09:41Z</time>
      </trkpt>
      <trkpt lat="44.01917" lon="2.87136">
        <ele>593.8</ele>
        <time>2015-04-05T18:09:44Z</time>
      </trkpt>
      <trkpt lat="44.01915" lon="2.87151">
        <ele>593.5</ele>
        <time>2015-04-05T18:09:47Z</time>
      </trkpt>
      <trkpt lat="44.01913" lon="2.87168">
        <ele>593</ele>
        <time>2015-04-05T18:09:50Z</time>
      </trkpt>
      <trkpt lat="44.01912" lon="2.87181">
        <ele>592.7</ele>
        <time>2015-04-05T18:09:52Z</time>
      </trkpt>
      <trkpt lat="44.01911" lon="2.87196">
        <ele>591.9</ele>
        <time>2015-04-05T18:09:54Z</time>
      </trkpt>
      <trkpt lat="44.01909" lon="2.87214">
        <ele>591</ele>
        <time>2015-04-05T18:09:56Z</time>
      </trkpt>
      <trkpt lat="44.01908" lon="2.87232">
        <ele>590.3</ele>
        <time>2015-04-05T18:09:58Z</time>
      </trkpt>
      <trkpt lat="44.01905" lon="2.87251">
        <ele>589.7</ele>
        <time>2015-04-05T18:10:00Z</time>
      </trkpt>
      <trkpt lat="44.01903" lon="2.87269">
        <ele>589.8</ele>
        <time>2015-04-05T18:10:02Z</time>
      </trkpt>
      <trkpt lat="44.01901" lon="2.87286">
        <ele>590.5</ele>
        <time>2015-04-05T18:10:04Z</time>
      </trkpt>
      <trkpt lat="44.01899" lon="2.87302">
        <ele>590.5</ele>
        <time>2015-04-05T18:10:06Z</time>
      </trkpt>
      <trkpt lat="44.01895" lon="2.87318">
        <ele>590.7</ele>
        <time>2015-04-05T18:10:08Z</time>
      </trkpt>
      <trkpt lat="44.0189" lon="2.87333">
        <ele>590.4</ele>
        <time>2015-04-05T18:10:10Z</time>
      </trkpt>
      <trkpt lat="44.01885" lon="2.87346">
        <ele>589.9</ele>
        <time>2015-04-05T18:10:12Z</time>
      </trkpt>
      <trkpt lat="44.01879" lon="2.87358">
        <ele>589.4</ele>
        <time>2015-04-05T18:10:14Z</time>
      </trkpt>
      <trkpt lat="44.01873" lon="2.87368">
        <ele>589.2</ele>
        <time>2015-04-05T18:10:16Z</time>
      </trkpt>
      <trkpt lat="44.01864" lon="2.87378">
        <ele>588.9</ele>
        <time>2015-04-05T18:10:19Z</time>
      </trkpt>
      <trkpt lat="44.01857" lon="2.87388">
        <ele>588.4</ele>
        <time>2015-04-05T18:10:23Z</time>
      </trkpt>
      <trkpt lat="44.01848" lon="2.87395">
        <ele>588.3</ele>
        <time>2015-04-05T18:10:28Z</time>
      </trkpt>
      <trkpt lat="44.0184" lon="2.87403">
        <ele>588.9</ele>
        <time>2015-04-05T18:10:31Z</time>
      </trkpt>
      <trkpt lat="44.0183" lon="2.87409">
        <ele>589.6</ele>
        <time>2015-04-05T18:10:34Z</time>
      </trkpt>
      <trkpt lat="44.01819" lon="2.87415">
        <ele>589.4</ele>
        <time>2015-04-05T18:10:37Z</time>
      </trkpt>
      <trkpt lat="44.01809" lon="2.87421">
        <ele>589</ele>
        <time>2015-04-05T18:10:40Z</time>
      </trkpt>
      <trkpt lat="44.01799" lon="2.87427">
        <ele>589.7</ele>
        <time>2015-04-05T18:10:43Z</time>
      </trkpt>
      <trkpt lat="44.01789" lon="2.87433">
        <ele>590.1</ele>
        <time>2015-04-05T18:10:46Z</time>
      </trkpt>
      <trkpt lat="44.01779" lon="2.87439">
        <ele>590.6</ele>
        <time>2015-04-05T18:10:49Z</time>
      </trkpt>
      <trkpt lat="44.01769" lon="2.87445">
        <ele>590.9</ele>
        <time>2015-04-05T18:10:52Z</time>
      </trkpt>
      <trkpt lat="44.01759" lon="2.87451">
        <ele>591.1</ele>
        <time>2015-04-05T18:10:55Z</time>
      </trkpt>
      <trkpt lat="44.01749" lon="2.87458">
        <ele>591.4</ele>
        <time>2015-04-05T18:10:58Z</time>
      </trkpt>
      <trkpt lat="44.01739" lon="2.87465">
        <ele>591.3</ele>
        <time>2015-04-05T18:11:01Z</time>
      </trkpt>
      <trkpt lat="44.01729" lon="2.87474">
        <ele>591.5</ele>
        <time>2015-04-05T18:11:04Z</time>
      </trkpt>
      <trkpt lat="44.0172" lon="2.87483">
        <ele>591.7</ele>
        <time>2015-04-05T18:11:07Z</time>
      </trkpt>
      <trkpt lat="44.01709" lon="2.87494">
        <ele>591.1</ele>
        <time>2015-04-05T18:11:10Z</time>
      </trkpt>
      <trkpt lat="44.01702" lon="2.87501">
        <ele>590.9</ele>
        <time>2015-04-05T18:11:12Z</time>
      </trkpt>
      <trkpt lat="44.01695" lon="2.8751">
        <ele>591.3</ele>
        <time>2015-04-05T18:11:14Z</time>
      </trkpt>
      <trkpt lat="44.01688" lon="2.87519">
        <ele>591.2</ele>
        <time>2015-04-05T18:11:16Z</time>
      </trkpt>
      <trkpt lat="44.0168" lon="2.87529">
        <ele>591.2</ele>
        <time>2015-04-05T18:11:18Z</time>
      </trkpt>
      <trkpt lat="44.01671" lon="2.87539">
        <ele>591.3</ele>
        <time>2015-04-05T18:11:20Z</time>
      </trkpt>
      <trkpt lat="44.01662" lon="2.87549">
        <ele>591.3</ele>
        <time>2015-04-05T18:11:22Z</time>
      </trkpt>
      <trkpt lat="44.01651" lon="2.8756">
        <ele>591.3</ele>
        <time>2015-04-05T18:11:24Z</time>
      </trkpt>
      <trkpt lat="44.01641" lon="2.87572">
        <ele>591.1</ele>
        <time>2015-04-05T18:11:26Z</time>
      </trkpt>
      <trkpt lat="44.01631" lon="2.87584">
        <ele>591.1</ele>
        <time>2015-04-05T18:11:28Z</time>
      </trkpt>
      <trkpt lat="44.0162" lon="2.87596">
        <ele>591</ele>
        <time>2015-04-05T18:11:30Z</time>
      </trkpt>
      <trkpt lat="44.0161" lon="2.87609">
        <ele>590.8</ele>
        <time>2015-04-05T18:11:32Z</time>
      </trkpt>
      <trkpt lat="44.01599" lon="2.87623">
        <ele>590.9</ele>
        <time>2015-04-05T18:11:34Z</time>
      </trkpt>
      <trkpt lat="44.01589" lon="2.87636">
        <ele>590.8</ele>
        <time>2015-04-05T18:11:36Z</time>
      </trkpt>
      <trkpt lat="44.01578" lon="2.87649">
        <ele>590.8</ele>
        <time>2015-04-05T18:11:38Z</time>
      </trkpt>
      <trkpt lat="44.01568" lon="2.87662">
        <ele>591.1</ele>
        <time>2015-04-05T18:11:40Z</time>
      </trkpt>
      <trkpt lat="44.01558" lon="2.87674">
        <ele>591.3</ele>
        <time>2015-04-05T18:11:42Z</time>
      </trkpt>
      <trkpt lat="44.01549" lon="2.87686">
        <ele>591.5</ele>
        <time>2015-04-05T18:11:44Z</time>
      </trkpt>
      <trkpt lat="44.0154" lon="2.87697">
        <ele>591.7</ele>
        <time>2015-04-05T18:11:46Z</time>
      </trkpt>
      <trkpt lat="44.01533" lon="2.87709">
        <ele>591.9</ele>
        <time>2015-04-05T18:11:48Z</time>
      </trkpt>
      <trkpt lat="44.01526" lon="2.87722">
        <ele>592.2</ele>
        <time>2015-04-05T18:11:50Z</time>
      </trkpt>
      <trkpt lat="44.0152" lon="2.87734">
        <ele>592.1</ele>
        <time>2015-04-05T18:11:52Z</time>
      </trkpt>
      <trkpt lat="44.01513" lon="2.87747">
        <ele>592.2</ele>
        <time>2015-04-05T18:11:54Z</time>
      </trkpt>
      <trkpt lat="44.01508" lon="2.8776">
        <ele>592.2</ele>
        <time>2015-04-05T18:11:56Z</time>
      </trkpt>
      <trkpt lat="44.01502" lon="2.87776">
        <ele>592.5</ele>
        <time>2015-04-05T18:11:59Z</time>
      </trkpt>
      <trkpt lat="44.01495" lon="2.87791">
        <ele>592.7</ele>
        <time>2015-04-05T18:12:02Z</time>
      </trkpt>
      <trkpt lat="44.01488" lon="2.87807">
        <ele>592.7</ele>
        <time>2015-04-05T18:12:05Z</time>
      </trkpt>
      <trkpt lat="44.01482" lon="2.87823">
        <ele>592.9</ele>
        <time>2015-04-05T18:12:08Z</time>
      </trkpt>
      <trkpt lat="44.01475" lon="2.87838">
        <ele>593</ele>
        <time>2015-04-05T18:12:11Z</time>
      </trkpt>
      <trkpt lat="44.01469" lon="2.87853">
        <ele>592.8</ele>
        <time>2015-04-05T18:12:14Z</time>
      </trkpt>
      <trkpt lat="44.01462" lon="2.87869">
        <ele>592.9</ele>
        <time>2015-04-05T18:12:17Z</time>
      </trkpt>
      <trkpt lat="44.01456" lon="2.87885">
        <ele>592.9</ele>
        <time>2015-04-05T18:12:20Z</time>
      </trkpt>
      <trkpt lat="44.01451" lon="2.87896">
        <ele>592.8</ele>
        <time>2015-04-05T18:12:22Z</time>
      </trkpt>
      <trkpt lat="44.01445" lon="2.87909">
        <ele>591.9</ele>
        <time>2015-04-05T18:12:24Z</time>
      </trkpt>
      <trkpt lat="44.0144" lon="2.87923">
        <ele>591.5</ele>
        <time>2015-04-05T18:12:26Z</time>
      </trkpt>
      <trkpt lat="44.01433" lon="2.87937">
        <ele>591.1</ele>
        <time>2015-04-05T18:12:28Z</time>
      </trkpt>
      <trkpt lat="44.01427" lon="2.87953">
        <ele>590.6</ele>
        <time>2015-04-05T18:12:30Z</time>
      </trkpt>
      <trkpt lat="44.0142" lon="2.87969">
        <ele>590</ele>
        <time>2015-04-05T18:12:32Z</time>
      </trkpt>
      <trkpt lat="44.01413" lon="2.87987">
        <ele>589.4</ele>
        <time>2015-04-05T18:12:34Z</time>
      </trkpt>
      <trkpt lat="44.01406" lon="2.88005">
        <ele>588.8</ele>
        <time>2015-04-05T18:12:36Z</time>
      </trkpt>
      <trkpt lat="44.01398" lon="2.88024">
        <ele>588.1</ele>
        <time>2015-04-05T18:12:38Z</time>
      </trkpt>
      <trkpt lat="44.0139" lon="2.88043">
        <ele>587.4</ele>
        <time>2015-04-05T18:12:40Z</time>
      </trkpt>
      <trkpt lat="44.01382" lon="2.88063">
        <ele>586.8</ele>
        <time>2015-04-05T18:12:42Z</time>
      </trkpt>
      <trkpt lat="44.01373" lon="2.88083">
        <ele>586.1</ele>
        <time>2015-04-05T18:12:44Z</time>
      </trkpt>
      <trkpt lat="44.01364" lon="2.88104">
        <ele>585.3</ele>
        <time>2015-04-05T18:12:46Z</time>
      </trkpt>
      <trkpt lat="44.0136" lon="2.88115">
        <ele>584.9</ele>
        <time>2015-04-05T18:12:47Z</time>
      </trkpt>
      <trkpt lat="44.01355" lon="2.88126">
        <ele>584.5</ele>
        <time>2015-04-05T18:12:48Z</time>
      </trkpt>
      <trkpt lat="44.01351" lon="2.88137">
        <ele>584</ele>
        <time>2015-04-05T18:12:49Z</time>
      </trkpt>
      <trkpt lat="44.01346" lon="2.88148">
        <ele>583.6</ele>
        <time>2015-04-05T18:12:50Z</time>
      </trkpt>
      <trkpt lat="44.01341" lon="2.88159">
        <ele>583.1</ele>
        <time>2015-04-05T18:12:51Z</time>
      </trkpt>
      <trkpt lat="44.01337" lon="2.88171">
        <ele>582.8</ele>
        <time>2015-04-05T18:12:52Z</time>
      </trkpt>
      <trkpt lat="44.01332" lon="2.88182">
        <ele>582.5</ele>
        <time>2015-04-05T18:12:53Z</time>
      </trkpt>
      <trkpt lat="44.01326" lon="2.88193">
        <ele>582.1</ele>
        <time>2015-04-05T18:12:54Z</time>
      </trkpt>
      <trkpt lat="44.01321" lon="2.88204">
        <ele>581.8</ele>
        <time>2015-04-05T18:12:55Z</time>
      </trkpt>
      <trkpt lat="44.01315" lon="2.88214">
        <ele>581.5</ele>
        <time>2015-04-05T18:12:56Z</time>
      </trkpt>
      <trkpt lat="44.01309" lon="2.88225">
        <ele>581.2</ele>
        <time>2015-04-05T18:12:57Z</time>
      </trkpt>
      <trkpt lat="44.01302" lon="2.88235">
        <ele>581.1</ele>
        <time>2015-04-05T18:12:58Z</time>
      </trkpt>
      <trkpt lat="44.01295" lon="2.88244">
        <ele>581</ele>
        <time>2015-04-05T18:12:59Z</time>
      </trkpt>
      <trkpt lat="44.01287" lon="2.88253">
        <ele>580.7</ele>
        <time>2015-04-05T18:13:00Z</time>
      </trkpt>
      <trkpt lat="44.01279" lon="2.88261">
        <ele>580.5</ele>
        <time>2015-04-05T18:13:01Z</time>
      </trkpt>
      <trkpt lat="44.0127" lon="2.88267">
        <ele>580.5</ele>
        <time>2015-04-05T18:13:02Z</time>
      </trkpt>
      <trkpt lat="44.01261" lon="2.88273">
        <ele>580.4</ele>
        <time>2015-04-05T18:13:03Z</time>
      </trkpt>
      <trkpt lat="44.01252" lon="2.88278">
        <ele>580.2</ele>
        <time>2015-04-05T18:13:04Z</time>
      </trkpt>
      <trkpt lat="44.01243" lon="2.88283">
        <ele>580.1</ele>
        <time>2015-04-05T18:13:05Z</time>
      </trkpt>
      <trkpt lat="44.01234" lon="2.88287">
        <ele>580</ele>
        <time>2015-04-05T18:13:06Z</time>
      </trkpt>
      <trkpt lat="44.01225" lon="2.8829">
        <ele>579.7</ele>
        <time>2015-04-05T18:13:07Z</time>
      </trkpt>
      <trkpt lat="44.01216" lon="2.88292">
        <ele>579.6</ele>
        <time>2015-04-05T18:13:08Z</time>
      </trkpt>
      <trkpt lat="44.01206" lon="2.88294">
        <ele>579.4</ele>
        <time>2015-04-05T18:13:09Z</time>
      </trkpt>
      <trkpt lat="44.01197" lon="2.88296">
        <ele>579.2</ele>
        <time>2015-04-05T18:13:10Z</time>
      </trkpt>
      <trkpt lat="44.01179" lon="2.883">
        <ele>578.8</ele>
        <time>2015-04-05T18:13:12Z</time>
      </trkpt>
      <trkpt lat="44.01162" lon="2.88304">
        <ele>578.4</ele>
        <time>2015-04-05T18:13:14Z</time>
      </trkpt>
      <trkpt lat="44.01146" lon="2.88307">
        <ele>578.2</ele>
        <time>2015-04-05T18:13:16Z</time>
      </trkpt>
      <trkpt lat="44.01129" lon="2.88311">
        <ele>577.9</ele>
        <time>2015-04-05T18:13:18Z</time>
      </trkpt>
      <trkpt lat="44.01112" lon="2.88315">
        <ele>578.1</ele>
        <time>2015-04-05T18:13:20Z</time>
      </trkpt>
      <trkpt lat="44.01095" lon="2.88319">
        <ele>577.9</ele>
        <time>2015-04-05T18:13:22Z</time>
      </trkpt>
      <trkpt lat="44.01078" lon="2.88323">
        <ele>577.6</ele>
        <time>2015-04-05T18:13:24Z</time>
      </trkpt>
      <trkpt lat="44.0106" lon="2.88327">
        <ele>577.3</ele>
        <time>2015-04-05T18:13:26Z</time>
      </trkpt>
      <trkpt lat="44.01042" lon="2.88331">
        <ele>577.2</ele>
        <time>2015-04-05T18:13:28Z</time>
      </trkpt>
      <trkpt lat="44.01033" lon="2.88333">
        <ele>577.1</ele>
        <time>2015-04-05T18:13:29Z</time>
      </trkpt>
      <trkpt lat="44.01024" lon="2.88335">
        <ele>577</ele>
        <time>2015-04-05T18:13:30Z</time>
      </trkpt>
      <trkpt lat="44.01015" lon="2.88337">
        <ele>576.8</ele>
        <time>2015-04-05T18:13:31Z</time>
      </trkpt>
      <trkpt lat="44.01006" lon="2.88339">
        <ele>576.9</ele>
        <time>2015-04-05T18:13:32Z</time>
      </trkpt>
      <trkpt lat="44.00997" lon="2.88341">
        <ele>576.7</ele>
        <time>2015-04-05T18:13:33Z</time>
      </trkpt>
      <trkpt lat="44.00988" lon="2.88343">
        <ele>576.5</ele>
        <time>2015-04-05T18:13:34Z</time>
      </trkpt>
      <trkpt lat="44.0097" lon="2.88346">
        <ele>576.4</ele>
        <time>2015-04-05T18:13:36Z</time>
      </trkpt>
      <trkpt lat="44.00953" lon="2.88349">
        <ele>576.4</ele>
        <time>2015-04-05T18:13:38Z</time>
      </trkpt>
      <trkpt lat="44.00937" lon="2.88353">
        <ele>576.4</ele>
        <time>2015-04-05T18:13:40Z</time>
      </trkpt>
      <trkpt lat="44.00921" lon="2.88357">
        <ele>576.3</ele>
        <time>2015-04-05T18:13:42Z</time>
      </trkpt>
      <trkpt lat="44.00907" lon="2.88361">
        <ele>576.5</ele>
        <time>2015-04-05T18:13:44Z</time>
      </trkpt>
      <trkpt lat="44.00895" lon="2.88365">
        <ele>577.3</ele>
        <time>2015-04-05T18:13:46Z</time>
      </trkpt>
      <trkpt lat="44.00883" lon="2.88368">
        <ele>578.1</ele>
        <time>2015-04-05T18:13:48Z</time>
      </trkpt>
      <trkpt lat="44.00872" lon="2.88372">
        <ele>578.5</ele>
        <time>2015-04-05T18:13:50Z</time>
      </trkpt>
      <trkpt lat="44.00862" lon="2.88376">
        <ele>579.2</ele>
        <time>2015-04-05T18:13:52Z</time>
      </trkpt>
      <trkpt lat="44.00854" lon="2.8838">
        <ele>579.9</ele>
        <time>2015-04-05T18:13:54Z</time>
      </trkpt>
      <trkpt lat="44.00844" lon="2.88383">
        <ele>580.1</ele>
        <time>2015-04-05T18:13:56Z</time>
      </trkpt>
      <trkpt lat="44.00832" lon="2.88388">
        <ele>580.7</ele>
        <time>2015-04-05T18:13:59Z</time>
      </trkpt>
      <trkpt lat="44.0082" lon="2.88393">
        <ele>581.2</ele>
        <time>2015-04-05T18:14:02Z</time>
      </trkpt>
      <trkpt lat="44.00809" lon="2.88398">
        <ele>582</ele>
        <time>2015-04-05T18:14:05Z</time>
      </trkpt>
      <trkpt lat="44.00798" lon="2.88403">
        <ele>582.7</ele>
        <time>2015-04-05T18:14:08Z</time>
      </trkpt>
      <trkpt lat="44.00788" lon="2.88407">
        <ele>583.5</ele>
        <time>2015-04-05T18:14:11Z</time>
      </trkpt>
      <trkpt lat="44.00779" lon="2.88412">
        <ele>584.5</ele>
        <time>2015-04-05T18:14:14Z</time>
      </trkpt>
      <trkpt lat="44.0077" lon="2.88416">
        <ele>585.1</ele>
        <time>2015-04-05T18:14:17Z</time>
      </trkpt>
      <trkpt lat="44.00761" lon="2.8842">
        <ele>585.4</ele>
        <time>2015-04-05T18:14:20Z</time>
      </trkpt>
      <trkpt lat="44.0075" lon="2.88426">
        <ele>586.2</ele>
        <time>2015-04-05T18:14:24Z</time>
      </trkpt>
      <trkpt lat="44.0074" lon="2.88431">
        <ele>586.6</ele>
        <time>2015-04-05T18:14:28Z</time>
      </trkpt>
      <trkpt lat="44.00731" lon="2.88436">
        <ele>586.9</ele>
        <time>2015-04-05T18:14:31Z</time>
      </trkpt>
      <trkpt lat="44.0072" lon="2.88441">
        <ele>587.6</ele>
        <time>2015-04-05T18:14:35Z</time>
      </trkpt>
      <trkpt lat="44.00711" lon="2.88445">
        <ele>588</ele>
        <time>2015-04-05T18:14:38Z</time>
      </trkpt>
      <trkpt lat="44.00702" lon="2.88449">
        <ele>588.2</ele>
        <time>2015-04-05T18:14:41Z</time>
      </trkpt>
      <trkpt lat="44.00694" lon="2.88454">
        <ele>588.6</ele>
        <time>2015-04-05T18:14:44Z</time>
      </trkpt>
      <trkpt lat="44.00685" lon="2.88458">
        <ele>589</ele>
        <time>2015-04-05T18:14:47Z</time>
      </trkpt>
      <trkpt lat="44.00676" lon="2.88463">
        <ele>589.3</ele>
        <time>2015-04-05T18:14:50Z</time>
      </trkpt>
      <trkpt lat="44.00668" lon="2.88468">
        <ele>589.6</ele>
        <time>2015-04-05T18:14:53Z</time>
      </trkpt>
      <trkpt lat="44.00659" lon="2.88474">
        <ele>589.8</ele>
        <time>2015-04-05T18:14:56Z</time>
      </trkpt>
      <trkpt lat="44.0065" lon="2.8848">
        <ele>590</ele>
        <time>2015-04-05T18:14:59Z</time>
      </trkpt>
      <trkpt lat="44.00643" lon="2.88487">
        <ele>590.3</ele>
        <time>2015-04-05T18:15:02Z</time>
      </trkpt>
      <trkpt lat="44.00635" lon="2.88495">
        <ele>590.1</ele>
        <time>2015-04-05T18:15:05Z</time>
      </trkpt>
      <trkpt lat="44.00628" lon="2.88503">
        <ele>589.9</ele>
        <time>2015-04-05T18:15:08Z</time>
      </trkpt>
      <trkpt lat="44.00621" lon="2.88512">
        <ele>589.9</ele>
        <time>2015-04-05T18:15:11Z</time>
      </trkpt>
      <trkpt lat="44.00614" lon="2.88522">
        <ele>590.3</ele>
        <time>2015-04-05T18:15:14Z</time>
      </trkpt>
      <trkpt lat="44.00608" lon="2.88532">
        <ele>590.8</ele>
        <time>2015-04-05T18:15:17Z</time>
      </trkpt>
      <trkpt lat="44.00602" lon="2.88543">
        <ele>591.3</ele>
        <time>2015-04-05T18:15:20Z</time>
      </trkpt>
      <trkpt lat="44.00594" lon="2.88552">
        <ele>591.5</ele>
        <time>2015-04-05T18:15:23Z</time>
      </trkpt>
      <trkpt lat="44.00587" lon="2.88563">
        <ele>592.1</ele>
        <time>2015-04-05T18:15:26Z</time>
      </trkpt>
      <trkpt lat="44.00582" lon="2.88574">
        <ele>592.8</ele>
        <time>2015-04-05T18:15:29Z</time>
      </trkpt>
      <trkpt lat="44.00575" lon="2.88583">
        <ele>593.6</ele>
        <time>2015-04-05T18:15:32Z</time>
      </trkpt>
      <trkpt lat="44.00569" lon="2.88593">
        <ele>594</ele>
        <time>2015-04-05T18:15:35Z</time>
      </trkpt>
      <trkpt lat="44.00563" lon="2.88603">
        <ele>594.5</ele>
        <time>2015-04-05T18:15:38Z</time>
      </trkpt>
      <trkpt lat="44.00558" lon="2.88613">
        <ele>595.2</ele>
        <time>2015-04-05T18:15:41Z</time>
      </trkpt>
      <trkpt lat="44.00551" lon="2.88626">
        <ele>596.9</ele>
        <time>2015-04-05T18:15:45Z</time>
      </trkpt>
      <trkpt lat="44.00545" lon="2.88636">
        <ele>598.9</ele>
        <time>2015-04-05T18:15:48Z</time>
      </trkpt>
      <trkpt lat="44.00538" lon="2.88645">
        <ele>600.5</ele>
        <time>2015-04-05T18:15:51Z</time>
      </trkpt>
      <trkpt lat="44.00531" lon="2.88653">
        <ele>601.9</ele>
        <time>2015-04-05T18:15:54Z</time>
      </trkpt>
      <trkpt lat="44.00524" lon="2.88663">
        <ele>603.1</ele>
        <time>2015-04-05T18:15:58Z</time>
      </trkpt>
      <trkpt lat="44.00517" lon="2.88673">
        <ele>603.8</ele>
        <time>2015-04-05T18:16:02Z</time>
      </trkpt>
      <trkpt lat="44.00509" lon="2.88683">
        <ele>604.6</ele>
        <time>2015-04-05T18:16:06Z</time>
      </trkpt>
      <trkpt lat="44.005" lon="2.88694">
        <ele>605.5</ele>
        <time>2015-04-05T18:16:10Z</time>
      </trkpt>
      <trkpt lat="44.00491" lon="2.88705">
        <ele>606.5</ele>
        <time>2015-04-05T18:16:14Z</time>
      </trkpt>
      <trkpt lat="44.00484" lon="2.88717">
        <ele>607.5</ele>
        <time>2015-04-05T18:16:18Z</time>
      </trkpt>
      <trkpt lat="44.00477" lon="2.88726">
        <ele>607.9</ele>
        <time>2015-04-05T18:16:21Z</time>
      </trkpt>
      <trkpt lat="44.00469" lon="2.88735">
        <ele>608</ele>
        <time>2015-04-05T18:16:24Z</time>
      </trkpt>
      <trkpt lat="44.00462" lon="2.88743">
        <ele>607.7</ele>
        <time>2015-04-05T18:16:27Z</time>
      </trkpt>
      <trkpt lat="44.00456" lon="2.88753">
        <ele>607.4</ele>
        <time>2015-04-05T18:16:30Z</time>
      </trkpt>
      <trkpt lat="44.0045" lon="2.88764">
        <ele>606.7</ele>
        <time>2015-04-05T18:16:33Z</time>
      </trkpt>
      <trkpt lat="44.00443" lon="2.88774">
        <ele>606.4</ele>
        <time>2015-04-05T18:16:36Z</time>
      </trkpt>
      <trkpt lat="44.00437" lon="2.88787">
        <ele>606</ele>
        <time>2015-04-05T18:16:39Z</time>
      </trkpt>
      <trkpt lat="44.00429" lon="2.888">
        <ele>606</ele>
        <time>2015-04-05T18:16:42Z</time>
      </trkpt>
      <trkpt lat="44.00421" lon="2.88814">
        <ele>605.6</ele>
        <time>2015-04-05T18:16:45Z</time>
      </trkpt>
      <trkpt lat="44.00416" lon="2.88825">
        <ele>605.4</ele>
        <time>2015-04-05T18:16:47Z</time>
      </trkpt>
      <trkpt lat="44.00411" lon="2.88837">
        <ele>604.6</ele>
        <time>2015-04-05T18:16:49Z</time>
      </trkpt>
      <trkpt lat="44.00407" lon="2.8885">
        <ele>604.2</ele>
        <time>2015-04-05T18:16:51Z</time>
      </trkpt>
      <trkpt lat="44.00402" lon="2.88863">
        <ele>603.5</ele>
        <time>2015-04-05T18:16:53Z</time>
      </trkpt>
      <trkpt lat="44.00398" lon="2.88877">
        <ele>603.9</ele>
        <time>2015-04-05T18:16:55Z</time>
      </trkpt>
      <trkpt lat="44.00396" lon="2.88892">
        <ele>603.3</ele>
        <time>2015-04-05T18:16:57Z</time>
      </trkpt>
      <trkpt lat="44.00396" lon="2.88908">
        <ele>603</ele>
        <time>2015-04-05T18:16:59Z</time>
      </trkpt>
      <trkpt lat="44.00396" lon="2.88924">
        <ele>602.9</ele>
        <time>2015-04-05T18:17:01Z</time>
      </trkpt>
      <trkpt lat="44.00397" lon="2.8894">
        <ele>602.5</ele>
        <time>2015-04-05T18:17:03Z</time>
      </trkpt>
      <trkpt lat="44.00398" lon="2.88957">
        <ele>602.3</ele>
        <time>2015-04-05T18:17:05Z</time>
      </trkpt>
      <trkpt lat="44.00401" lon="2.88973">
        <ele>602.3</ele>
        <time>2015-04-05T18:17:07Z</time>
      </trkpt>
      <trkpt lat="44.00403" lon="2.88988">
        <ele>602.1</ele>
        <time>2015-04-05T18:17:09Z</time>
      </trkpt>
      <trkpt lat="44.00406" lon="2.89004">
        <ele>602.3</ele>
        <time>2015-04-05T18:17:11Z</time>
      </trkpt>
      <trkpt lat="44.00408" lon="2.8902">
        <ele>602.1</ele>
        <time>2015-04-05T18:17:13Z</time>
      </trkpt>
      <trkpt lat="44.0041" lon="2.89036">
        <ele>602.1</ele>
        <time>2015-04-05T18:17:15Z</time>
      </trkpt>
      <trkpt lat="44.00413" lon="2.89052">
        <ele>602.4</ele>
        <time>2015-04-05T18:17:17Z</time>
      </trkpt>
      <trkpt lat="44.00415" lon="2.89069">
        <ele>601.9</ele>
        <time>2015-04-05T18:17:19Z</time>
      </trkpt>
      <trkpt lat="44.00418" lon="2.89085">
        <ele>602.3</ele>
        <time>2015-04-05T18:17:21Z</time>
      </trkpt>
      <trkpt lat="44.00421" lon="2.89102">
        <ele>602.1</ele>
        <time>2015-04-05T18:17:23Z</time>
      </trkpt>
      <trkpt lat="44.00422" lon="2.89119">
        <ele>601.6</ele>
        <time>2015-04-05T18:17:25Z</time>
      </trkpt>
      <trkpt lat="44.00424" lon="2.89136">
        <ele>601.1</ele>
        <time>2015-04-05T18:17:27Z</time>
      </trkpt>
      <trkpt lat="44.00424" lon="2.89154">
        <ele>600.8</ele>
        <time>2015-04-05T18:17:29Z</time>
      </trkpt>
      <trkpt lat="44.00423" lon="2.89173">
        <ele>600.1</ele>
        <time>2015-04-05T18:17:31Z</time>
      </trkpt>
      <trkpt lat="44.00422" lon="2.89191">
        <ele>600</ele>
        <time>2015-04-05T18:17:33Z</time>
      </trkpt>
      <trkpt lat="44.0042" lon="2.89209">
        <ele>599.7</ele>
        <time>2015-04-05T18:17:35Z</time>
      </trkpt>
      <trkpt lat="44.00418" lon="2.89228">
        <ele>599.3</ele>
        <time>2015-04-05T18:17:37Z</time>
      </trkpt>
      <trkpt lat="44.00416" lon="2.89246">
        <ele>599.2</ele>
        <time>2015-04-05T18:17:39Z</time>
      </trkpt>
      <trkpt lat="44.00413" lon="2.89265">
        <ele>599.8</ele>
        <time>2015-04-05T18:17:41Z</time>
      </trkpt>
      <trkpt lat="44.0041" lon="2.89284">
        <ele>599.4</ele>
        <time>2015-04-05T18:17:43Z</time>
      </trkpt>
      <trkpt lat="44.00408" lon="2.89303">
        <ele>598.7</ele>
        <time>2015-04-05T18:17:45Z</time>
      </trkpt>
      <trkpt lat="44.00405" lon="2.89324">
        <ele>597.9</ele>
        <time>2015-04-05T18:17:47Z</time>
      </trkpt>
      <trkpt lat="44.00402" lon="2.89344">
        <ele>598</ele>
        <time>2015-04-05T18:17:49Z</time>
      </trkpt>
      <trkpt lat="44.00399" lon="2.89364">
        <ele>597.2</ele>
        <time>2015-04-05T18:17:51Z</time>
      </trkpt>
      <trkpt lat="44.00397" lon="2.89384">
        <ele>596.3</ele>
        <time>2015-04-05T18:17:53Z</time>
      </trkpt>
      <trkpt lat="44.00394" lon="2.89404">
        <ele>595.9</ele>
        <time>2015-04-05T18:17:55Z</time>
      </trkpt>
      <trkpt lat="44.00391" lon="2.89425">
        <ele>595.9</ele>
        <time>2015-04-05T18:17:57Z</time>
      </trkpt>
      <trkpt lat="44.00388" lon="2.89446">
        <ele>595.2</ele>
        <time>2015-04-05T18:17:59Z</time>
      </trkpt>
      <trkpt lat="44.00385" lon="2.89466">
        <ele>594.3</ele>
        <time>2015-04-05T18:18:01Z</time>
      </trkpt>
      <trkpt lat="44.00381" lon="2.89488">
        <ele>593.6</ele>
        <time>2015-04-05T18:18:03Z</time>
      </trkpt>
      <trkpt lat="44.00378" lon="2.89509">
        <ele>593.9</ele>
        <time>2015-04-05T18:18:05Z</time>
      </trkpt>
      <trkpt lat="44.00375" lon="2.89531">
        <ele>593.2</ele>
        <time>2015-04-05T18:18:07Z</time>
      </trkpt>
      <trkpt lat="44.00372" lon="2.89552">
        <ele>592.2</ele>
        <time>2015-04-05T18:18:09Z</time>
      </trkpt>
      <trkpt lat="44.00367" lon="2.89572">
        <ele>591.7</ele>
        <time>2015-04-05T18:18:11Z</time>
      </trkpt>
      <trkpt lat="44.00363" lon="2.89584">
        <ele>591</ele>
        <time>2015-04-05T18:18:14Z</time>
      </trkpt>
      <trkpt lat="44.00357" lon="2.89594">
        <ele>589.1</ele>
        <time>2015-04-05T18:19:12Z</time>
      </trkpt>
      <trkpt lat="44.00352" lon="2.89607">
        <ele>589.7</ele>
        <time>2015-04-05T18:23:19Z</time>
      </trkpt>
      <trkpt lat="44.00345" lon="2.89618">
        <ele>589.5</ele>
        <time>2015-04-05T18:23:23Z</time>
      </trkpt>
      <trkpt lat="44.00338" lon="2.8963">
        <ele>589.2</ele>
        <time>2015-04-05T18:23:27Z</time>
      </trkpt>
      <trkpt lat="44.0033" lon="2.89642">
        <ele>589</ele>
        <time>2015-04-05T18:23:31Z</time>
      </trkpt>
      <trkpt lat="44.00323" lon="2.89654">
        <ele>588.8</ele>
        <time>2015-04-05T18:23:34Z</time>
      </trkpt>
      <trkpt lat="44.00314" lon="2.89667">
        <ele>588.5</ele>
        <time>2015-04-05T18:23:37Z</time>
      </trkpt>
      <trkpt lat="44.00305" lon="2.89681">
        <ele>588.2</ele>
        <time>2015-04-05T18:23:40Z</time>
      </trkpt>
      <trkpt lat="44.00299" lon="2.89691">
        <ele>588</ele>
        <time>2015-04-05T18:23:42Z</time>
      </trkpt>
      <trkpt lat="44.00292" lon="2.89702">
        <ele>587.8</ele>
        <time>2015-04-05T18:23:44Z</time>
      </trkpt>
      <trkpt lat="44.00284" lon="2.89713">
        <ele>587.4</ele>
        <time>2015-04-05T18:23:46Z</time>
      </trkpt>
      <trkpt lat="44.00276" lon="2.89726">
        <ele>587.1</ele>
        <time>2015-04-05T18:23:48Z</time>
      </trkpt>
      <trkpt lat="44.00268" lon="2.89739">
        <ele>586.7</ele>
        <time>2015-04-05T18:23:50Z</time>
      </trkpt>
      <trkpt lat="44.00259" lon="2.89752">
        <ele>586.3</ele>
        <time>2015-04-05T18:23:52Z</time>
      </trkpt>
      <trkpt lat="44.00251" lon="2.89766">
        <ele>586</ele>
        <time>2015-04-05T18:23:54Z</time>
      </trkpt>
      <trkpt lat="44.00242" lon="2.8978">
        <ele>585.8</ele>
        <time>2015-04-05T18:23:56Z</time>
      </trkpt>
      <trkpt lat="44.00234" lon="2.89795">
        <ele>585.5</ele>
        <time>2015-04-05T18:23:58Z</time>
      </trkpt>
      <trkpt lat="44.00227" lon="2.89809">
        <ele>585.3</ele>
        <time>2015-04-05T18:24:00Z</time>
      </trkpt>
      <trkpt lat="44.00221" lon="2.89824">
        <ele>585.1</ele>
        <time>2015-04-05T18:24:02Z</time>
      </trkpt>
      <trkpt lat="44.00215" lon="2.89839">
        <ele>584.9</ele>
        <time>2015-04-05T18:24:04Z</time>
      </trkpt>
      <trkpt lat="44.00211" lon="2.89855">
        <ele>584.7</ele>
        <time>2015-04-05T18:24:06Z</time>
      </trkpt>
      <trkpt lat="44.00207" lon="2.89872">
        <ele>584.6</ele>
        <time>2015-04-05T18:24:08Z</time>
      </trkpt>
      <trkpt lat="44.00204" lon="2.89889">
        <ele>584.4</ele>
        <time>2015-04-05T18:24:10Z</time>
      </trkpt>
      <trkpt lat="44.00201" lon="2.89907">
        <ele>584.4</ele>
        <time>2015-04-05T18:24:12Z</time>
      </trkpt>
      <trkpt lat="44.00198" lon="2.89925">
        <ele>584.5</ele>
        <time>2015-04-05T18:24:14Z</time>
      </trkpt>
      <trkpt lat="44.00196" lon="2.89944">
        <ele>584.3</ele>
        <time>2015-04-05T18:24:16Z</time>
      </trkpt>
      <trkpt lat="44.00193" lon="2.89963">
        <ele>584.2</ele>
        <time>2015-04-05T18:24:18Z</time>
      </trkpt>
      <trkpt lat="44.0019" lon="2.89982">
        <ele>583.9</ele>
        <time>2015-04-05T18:24:20Z</time>
      </trkpt>
      <trkpt lat="44.00188" lon="2.9">
        <ele>584.1</ele>
        <time>2015-04-05T18:24:22Z</time>
      </trkpt>
      <trkpt lat="44.00185" lon="2.9002">
        <ele>583.6</ele>
        <time>2015-04-05T18:24:24Z</time>
      </trkpt>
      <trkpt lat="44.00182" lon="2.90038">
        <ele>583.5</ele>
        <time>2015-04-05T18:24:26Z</time>
      </trkpt>
      <trkpt lat="44.00178" lon="2.90057">
        <ele>583.9</ele>
        <time>2015-04-05T18:24:28Z</time>
      </trkpt>
      <trkpt lat="44.00173" lon="2.90075">
        <ele>583.8</ele>
        <time>2015-04-05T18:24:30Z</time>
      </trkpt>
      <trkpt lat="44.00168" lon="2.90093">
        <ele>583.5</ele>
        <time>2015-04-05T18:24:32Z</time>
      </trkpt>
      <trkpt lat="44.00163" lon="2.90111">
        <ele>583.2</ele>
        <time>2015-04-05T18:24:34Z</time>
      </trkpt>
      <trkpt lat="44.00157" lon="2.90129">
        <ele>583.1</ele>
        <time>2015-04-05T18:24:36Z</time>
      </trkpt>
      <trkpt lat="44.0015" lon="2.90146">
        <ele>583</ele>
        <time>2015-04-05T18:24:38Z</time>
      </trkpt>
      <trkpt lat="44.00143" lon="2.90164">
        <ele>582.6</ele>
        <time>2015-04-05T18:24:40Z</time>
      </trkpt>
      <trkpt lat="44.00136" lon="2.90181">
        <ele>582.4</ele>
        <time>2015-04-05T18:24:42Z</time>
      </trkpt>
      <trkpt lat="44.00128" lon="2.90198">
        <ele>582.3</ele>
        <time>2015-04-05T18:24:44Z</time>
      </trkpt>
      <trkpt lat="44.00119" lon="2.90214">
        <ele>582.2</ele>
        <time>2015-04-05T18:24:46Z</time>
      </trkpt>
      <trkpt lat="44.0011" lon="2.9023">
        <ele>582.3</ele>
        <time>2015-04-05T18:24:48Z</time>
      </trkpt>
      <trkpt lat="44.001" lon="2.90246">
        <ele>582.2</ele>
        <time>2015-04-05T18:24:50Z</time>
      </trkpt>
      <trkpt lat="44.0009" lon="2.90261">
        <ele>581.9</ele>
        <time>2015-04-05T18:24:52Z</time>
      </trkpt>
      <trkpt lat="44.0008" lon="2.90277">
        <ele>581.6</ele>
        <time>2015-04-05T18:24:54Z</time>
      </trkpt>
      <trkpt lat="44.00069" lon="2.90292">
        <ele>581.4</ele>
        <time>2015-04-05T18:24:56Z</time>
      </trkpt>
      <trkpt lat="44.00058" lon="2.90306">
        <ele>581.1</ele>
        <time>2015-04-05T18:24:58Z</time>
      </trkpt>
      <trkpt lat="44.00048" lon="2.90321">
        <ele>580.9</ele>
        <time>2015-04-05T18:25:00Z</time>
      </trkpt>
      <trkpt lat="44.00039" lon="2.90336">
        <ele>580.7</ele>
        <time>2015-04-05T18:25:02Z</time>
      </trkpt>
      <trkpt lat="44.00029" lon="2.90351">
        <ele>580.5</ele>
        <time>2015-04-05T18:25:04Z</time>
      </trkpt>
      <trkpt lat="44.00019" lon="2.90367">
        <ele>580.2</ele>
        <time>2015-04-05T18:25:06Z</time>
      </trkpt>
      <trkpt lat="44.0001" lon="2.90384">
        <ele>579.8</ele>
        <time>2015-04-05T18:25:08Z</time>
      </trkpt>
      <trkpt lat="44.00002" lon="2.904">
        <ele>579.5</ele>
        <time>2015-04-05T18:25:10Z</time>
      </trkpt>
      <trkpt lat="43.99993" lon="2.90417">
        <ele>579.1</ele>
        <time>2015-04-05T18:25:12Z</time>
      </trkpt>
      <trkpt lat="43.99985" lon="2.90435">
        <ele>578.9</ele>
        <time>2015-04-05T18:25:14Z</time>
      </trkpt>
      <trkpt lat="43.99976" lon="2.90452">
        <ele>578.6</ele>
        <time>2015-04-05T18:25:16Z</time>
      </trkpt>
      <trkpt lat="43.99967" lon="2.90469">
        <ele>578.3</ele>
        <time>2015-04-05T18:25:18Z</time>
      </trkpt>
      <trkpt lat="43.99958" lon="2.90488">
        <ele>577.9</ele>
        <time>2015-04-05T18:25:20Z</time>
      </trkpt>
      <trkpt lat="43.99949" lon="2.90506">
        <ele>577.6</ele>
        <time>2015-04-05T18:25:22Z</time>
      </trkpt>
      <trkpt lat="43.9994" lon="2.90525">
        <ele>577.1</ele>
        <time>2015-04-05T18:25:24Z</time>
      </trkpt>
      <trkpt lat="43.99931" lon="2.90543">
        <ele>576.6</ele>
        <time>2015-04-05T18:25:26Z</time>
      </trkpt>
      <trkpt lat="43.99924" lon="2.90564">
        <ele>576.3</ele>
        <time>2015-04-05T18:25:28Z</time>
      </trkpt>
      <trkpt lat="43.99917" lon="2.90585">
        <ele>575.9</ele>
        <time>2015-04-05T18:25:30Z</time>
      </trkpt>
      <trkpt lat="43.99913" lon="2.90608">
        <ele>575.3</ele>
        <time>2015-04-05T18:25:32Z</time>
      </trkpt>
      <trkpt lat="43.99911" lon="2.90632">
        <ele>574.8</ele>
        <time>2015-04-05T18:25:34Z</time>
      </trkpt>
      <trkpt lat="43.99911" lon="2.90656">
        <ele>574.3</ele>
        <time>2015-04-05T18:25:36Z</time>
      </trkpt>
      <trkpt lat="43.99913" lon="2.9068">
        <ele>573.7</ele>
        <time>2015-04-05T18:25:38Z</time>
      </trkpt>
      <trkpt lat="43.99918" lon="2.90703">
        <ele>573.3</ele>
        <time>2015-04-05T18:25:40Z</time>
      </trkpt>
      <trkpt lat="43.99925" lon="2.90726">
        <ele>572.9</ele>
        <time>2015-04-05T18:25:42Z</time>
      </trkpt>
      <trkpt lat="43.99933" lon="2.90748">
        <ele>572.5</ele>
        <time>2015-04-05T18:25:44Z</time>
      </trkpt>
      <trkpt lat="43.99938" lon="2.90759">
        <ele>572.3</ele>
        <time>2015-04-05T18:25:45Z</time>
      </trkpt>
      <trkpt lat="43.99947" lon="2.9078">
        <ele>571.9</ele>
        <time>2015-04-05T18:25:47Z</time>
      </trkpt>
      <trkpt lat="43.99956" lon="2.908">
        <ele>571.5</ele>
        <time>2015-04-05T18:25:49Z</time>
      </trkpt>
      <trkpt lat="43.99966" lon="2.90821">
        <ele>571.1</ele>
        <time>2015-04-05T18:25:51Z</time>
      </trkpt>
      <trkpt lat="43.99976" lon="2.90841">
        <ele>570.6</ele>
        <time>2015-04-05T18:25:53Z</time>
      </trkpt>
      <trkpt lat="43.99986" lon="2.9086">
        <ele>570.1</ele>
        <time>2015-04-05T18:25:55Z</time>
      </trkpt>
      <trkpt lat="43.99995" lon="2.90881">
        <ele>569.7</ele>
        <time>2015-04-05T18:25:57Z</time>
      </trkpt>
      <trkpt lat="44.00004" lon="2.90901">
        <ele>569.4</ele>
        <time>2015-04-05T18:25:59Z</time>
      </trkpt>
      <trkpt lat="44.00012" lon="2.90923">
        <ele>569</ele>
        <time>2015-04-05T18:26:01Z</time>
      </trkpt>
      <trkpt lat="44.00017" lon="2.90945">
        <ele>568.5</ele>
        <time>2015-04-05T18:26:03Z</time>
      </trkpt>
      <trkpt lat="44.00021" lon="2.90967">
        <ele>568.1</ele>
        <time>2015-04-05T18:26:05Z</time>
      </trkpt>
      <trkpt lat="44.00025" lon="2.90989">
        <ele>567.7</ele>
        <time>2015-04-05T18:26:07Z</time>
      </trkpt>
      <trkpt lat="44.00029" lon="2.9101">
        <ele>567.2</ele>
        <time>2015-04-05T18:26:09Z</time>
      </trkpt>
      <trkpt lat="44.0003" lon="2.91032">
        <ele>566.7</ele>
        <time>2015-04-05T18:26:11Z</time>
      </trkpt>
      <trkpt lat="44.0003" lon="2.91054">
        <ele>566.2</ele>
        <time>2015-04-05T18:26:13Z</time>
      </trkpt>
      <trkpt lat="44.00029" lon="2.91075">
        <ele>565.8</ele>
        <time>2015-04-05T18:26:15Z</time>
      </trkpt>
      <trkpt lat="44.00028" lon="2.91096">
        <ele>565.5</ele>
        <time>2015-04-05T18:26:17Z</time>
      </trkpt>
      <trkpt lat="44.00025" lon="2.91115">
        <ele>565.1</ele>
        <time>2015-04-05T18:26:19Z</time>
      </trkpt>
      <trkpt lat="44.00021" lon="2.91135">
        <ele>564.6</ele>
        <time>2015-04-05T18:26:21Z</time>
      </trkpt>
      <trkpt lat="44.00017" lon="2.91154">
        <ele>564.2</ele>
        <time>2015-04-05T18:26:23Z</time>
      </trkpt>
      <trkpt lat="44.00011" lon="2.91173">
        <ele>563.8</ele>
        <time>2015-04-05T18:26:25Z</time>
      </trkpt>
      <trkpt lat="44.00004" lon="2.91191">
        <ele>563.5</ele>
        <time>2015-04-05T18:26:27Z</time>
      </trkpt>
      <trkpt lat="43.99997" lon="2.91209">
        <ele>563.4</ele>
        <time>2015-04-05T18:26:29Z</time>
      </trkpt>
      <trkpt lat="43.9999" lon="2.91228">
        <ele>562.9</ele>
        <time>2015-04-05T18:26:31Z</time>
      </trkpt>
      <trkpt lat="43.99983" lon="2.91248">
        <ele>562.5</ele>
        <time>2015-04-05T18:26:33Z</time>
      </trkpt>
      <trkpt lat="43.99975" lon="2.91269">
        <ele>562</ele>
        <time>2015-04-05T18:26:35Z</time>
      </trkpt>
      <trkpt lat="43.99967" lon="2.91289">
        <ele>561.7</ele>
        <time>2015-04-05T18:26:37Z</time>
      </trkpt>
      <trkpt lat="43.99959" lon="2.91309">
        <ele>561.5</ele>
        <time>2015-04-05T18:26:39Z</time>
      </trkpt>
      <trkpt lat="43.99951" lon="2.9133">
        <ele>561.3</ele>
        <time>2015-04-05T18:26:41Z</time>
      </trkpt>
      <trkpt lat="43.99943" lon="2.91351">
        <ele>561.2</ele>
        <time>2015-04-05T18:26:43Z</time>
      </trkpt>
      <trkpt lat="43.99936" lon="2.91372">
        <ele>561</ele>
        <time>2015-04-05T18:26:45Z</time>
      </trkpt>
      <trkpt lat="43.99928" lon="2.91393">
        <ele>561.1</ele>
        <time>2015-04-05T18:26:47Z</time>
      </trkpt>
      <trkpt lat="43.99922" lon="2.91414">
        <ele>561.1</ele>
        <time>2015-04-05T18:26:49Z</time>
      </trkpt>
      <trkpt lat="43.99917" lon="2.91435">
        <ele>561.2</ele>
        <time>2015-04-05T18:26:51Z</time>
      </trkpt>
      <trkpt lat="43.99913" lon="2.91455">
        <ele>561.4</ele>
        <time>2015-04-05T18:26:53Z</time>
      </trkpt>
      <trkpt lat="43.99911" lon="2.91475">
        <ele>561.7</ele>
        <time>2015-04-05T18:26:55Z</time>
      </trkpt>
      <trkpt lat="43.99909" lon="2.91495">
        <ele>562.1</ele>
        <time>2015-04-05T18:26:57Z</time>
      </trkpt>
      <trkpt lat="43.99908" lon="2.91514">
        <ele>562.3</ele>
        <time>2015-04-05T18:26:59Z</time>
      </trkpt>
      <trkpt lat="43.99907" lon="2.91533">
        <ele>562.5</ele>
        <time>2015-04-05T18:27:01Z</time>
      </trkpt>
      <trkpt lat="43.99906" lon="2.9155">
        <ele>562.7</ele>
        <time>2015-04-05T18:27:03Z</time>
      </trkpt>
      <trkpt lat="43.99905" lon="2.91567">
        <ele>562.9</ele>
        <time>2015-04-05T18:27:05Z</time>
      </trkpt>
      <trkpt lat="43.99904" lon="2.91584">
        <ele>563.1</ele>
        <time>2015-04-05T18:27:07Z</time>
      </trkpt>
      <trkpt lat="43.99903" lon="2.91601">
        <ele>563.5</ele>
        <time>2015-04-05T18:27:09Z</time>
      </trkpt>
      <trkpt lat="43.99902" lon="2.91617">
        <ele>563.8</ele>
        <time>2015-04-05T18:27:11Z</time>
      </trkpt>
      <trkpt lat="43.99901" lon="2.91634">
        <ele>564.1</ele>
        <time>2015-04-05T18:27:13Z</time>
      </trkpt>
      <trkpt lat="43.999" lon="2.91651">
        <ele>564.3</ele>
        <time>2015-04-05T18:27:15Z</time>
      </trkpt>
      <trkpt lat="43.99899" lon="2.91668">
        <ele>564.2</ele>
        <time>2015-04-05T18:27:17Z</time>
      </trkpt>
      <trkpt lat="43.99898" lon="2.91686">
        <ele>564.4</ele>
        <time>2015-04-05T18:27:19Z</time>
      </trkpt>
      <trkpt lat="43.99897" lon="2.91703">
        <ele>564.7</ele>
        <time>2015-04-05T18:27:21Z</time>
      </trkpt>
      <trkpt lat="43.99896" lon="2.91721">
        <ele>564.8</ele>
        <time>2015-04-05T18:27:23Z</time>
      </trkpt>
      <trkpt lat="43.99895" lon="2.91739">
        <ele>564.9</ele>
        <time>2015-04-05T18:27:25Z</time>
      </trkpt>
      <trkpt lat="43.99894" lon="2.91757">
        <ele>564.9</ele>
        <time>2015-04-05T18:27:27Z</time>
      </trkpt>
      <trkpt lat="43.99893" lon="2.91776">
        <ele>565</ele>
        <time>2015-04-05T18:27:29Z</time>
      </trkpt>
      <trkpt lat="43.99892" lon="2.91794">
        <ele>564.5</ele>
        <time>2015-04-05T18:27:31Z</time>
      </trkpt>
      <trkpt lat="43.9989" lon="2.91813">
        <ele>564.3</ele>
        <time>2015-04-05T18:27:33Z</time>
      </trkpt>
      <trkpt lat="43.99889" lon="2.91831">
        <ele>564.1</ele>
        <time>2015-04-05T18:27:35Z</time>
      </trkpt>
      <trkpt lat="43.99888" lon="2.9185">
        <ele>564.1</ele>
        <time>2015-04-05T18:27:37Z</time>
      </trkpt>
      <trkpt lat="43.99887" lon="2.91869">
        <ele>564</ele>
        <time>2015-04-05T18:27:39Z</time>
      </trkpt>
      <trkpt lat="43.99886" lon="2.91888">
        <ele>564</ele>
        <time>2015-04-05T18:27:41Z</time>
      </trkpt>
      <trkpt lat="43.99885" lon="2.91905">
        <ele>563.9</ele>
        <time>2015-04-05T18:27:43Z</time>
      </trkpt>
      <trkpt lat="43.99884" lon="2.91923">
        <ele>563.9</ele>
        <time>2015-04-05T18:27:45Z</time>
      </trkpt>
      <trkpt lat="43.99883" lon="2.9194">
        <ele>563.9</ele>
        <time>2015-04-05T18:27:47Z</time>
      </trkpt>
      <trkpt lat="43.99882" lon="2.91957">
        <ele>563.9</ele>
        <time>2015-04-05T18:27:49Z</time>
      </trkpt>
      <trkpt lat="43.99881" lon="2.91974">
        <ele>564.2</ele>
        <time>2015-04-05T18:27:51Z</time>
      </trkpt>
      <trkpt lat="43.9988" lon="2.9199">
        <ele>564.3</ele>
        <time>2015-04-05T18:27:53Z</time>
      </trkpt>
      <trkpt lat="43.99879" lon="2.92006">
        <ele>564.5</ele>
        <time>2015-04-05T18:27:55Z</time>
      </trkpt>
      <trkpt lat="43.99878" lon="2.92022">
        <ele>564.8</ele>
        <time>2015-04-05T18:27:57Z</time>
      </trkpt>
      <trkpt lat="43.99877" lon="2.92036">
        <ele>565</ele>
        <time>2015-04-05T18:27:59Z</time>
      </trkpt>
      <trkpt lat="43.99876" lon="2.92051">
        <ele>565.1</ele>
        <time>2015-04-05T18:28:01Z</time>
      </trkpt>
      <trkpt lat="43.99875" lon="2.92064">
        <ele>565.2</ele>
        <time>2015-04-05T18:28:03Z</time>
      </trkpt>
      <trkpt lat="43.99875" lon="2.92078">
        <ele>565.4</ele>
        <time>2015-04-05T18:28:05Z</time>
      </trkpt>
      <trkpt lat="43.99874" lon="2.92091">
        <ele>565.6</ele>
        <time>2015-04-05T18:28:07Z</time>
      </trkpt>
      <trkpt lat="43.99873" lon="2.92103">
        <ele>565.8</ele>
        <time>2015-04-05T18:28:09Z</time>
      </trkpt>
      <trkpt lat="43.99872" lon="2.92122">
        <ele>566</ele>
        <time>2015-04-05T18:28:12Z</time>
      </trkpt>
      <trkpt lat="43.99871" lon="2.9214">
        <ele>566</ele>
        <time>2015-04-05T18:28:15Z</time>
      </trkpt>
      <trkpt lat="43.9987" lon="2.92158">
        <ele>566.1</ele>
        <time>2015-04-05T18:28:18Z</time>
      </trkpt>
      <trkpt lat="43.99869" lon="2.92176">
        <ele>566.1</ele>
        <time>2015-04-05T18:28:21Z</time>
      </trkpt>
      <trkpt lat="43.99868" lon="2.92193">
        <ele>566.1</ele>
        <time>2015-04-05T18:28:24Z</time>
      </trkpt>
      <trkpt lat="43.99867" lon="2.92211">
        <ele>566.1</ele>
        <time>2015-04-05T18:28:27Z</time>
      </trkpt>
      <trkpt lat="43.99865" lon="2.92229">
        <ele>565.9</ele>
        <time>2015-04-05T18:28:30Z</time>
      </trkpt>
      <trkpt lat="43.99864" lon="2.92246">
        <ele>565.8</ele>
        <time>2015-04-05T18:28:33Z</time>
      </trkpt>
      <trkpt lat="43.99862" lon="2.92264">
        <ele>566.1</ele>
        <time>2015-04-05T18:28:36Z</time>
      </trkpt>
      <trkpt lat="43.9986" lon="2.92281">
        <ele>566.1</ele>
        <time>2015-04-05T18:28:39Z</time>
      </trkpt>
      <trkpt lat="43.99857" lon="2.92298">
        <ele>566.2</ele>
        <time>2015-04-05T18:28:42Z</time>
      </trkpt>
      <trkpt lat="43.99854" lon="2.92315">
        <ele>566.2</ele>
        <time>2015-04-05T18:28:45Z</time>
      </trkpt>
      <trkpt lat="43.99851" lon="2.92331">
        <ele>566.3</ele>
        <time>2015-04-05T18:28:48Z</time>
      </trkpt>
      <trkpt lat="43.99849" lon="2.92347">
        <ele>566.4</ele>
        <time>2015-04-05T18:28:51Z</time>
      </trkpt>
      <trkpt lat="43.99845" lon="2.92361">
        <ele>566.5</ele>
        <time>2015-04-05T18:28:54Z</time>
      </trkpt>
      <trkpt lat="43.99841" lon="2.92375">
        <ele>566.7</ele>
        <time>2015-04-05T18:28:57Z</time>
      </trkpt>
      <trkpt lat="43.99837" lon="2.92389">
        <ele>566.8</ele>
        <time>2015-04-05T18:29:00Z</time>
      </trkpt>
      <trkpt lat="43.99834" lon="2.92401">
        <ele>567</ele>
        <time>2015-04-05T18:29:03Z</time>
      </trkpt>
      <trkpt lat="43.9983" lon="2.92413">
        <ele>567.2</ele>
        <time>2015-04-05T18:29:06Z</time>
      </trkpt>
      <trkpt lat="43.99825" lon="2.92429">
        <ele>567.6</ele>
        <time>2015-04-05T18:29:10Z</time>
      </trkpt>
      <trkpt lat="43.99821" lon="2.9244">
        <ele>567.7</ele>
        <time>2015-04-05T18:29:13Z</time>
      </trkpt>
      <trkpt lat="43.99817" lon="2.92452">
        <ele>568</ele>
        <time>2015-04-05T18:29:16Z</time>
      </trkpt>
      <trkpt lat="43.99812" lon="2.92464">
        <ele>568.1</ele>
        <time>2015-04-05T18:29:19Z</time>
      </trkpt>
      <trkpt lat="43.99808" lon="2.92475">
        <ele>568.3</ele>
        <time>2015-04-05T18:29:22Z</time>
      </trkpt>
      <trkpt lat="43.99804" lon="2.92487">
        <ele>568.5</ele>
        <time>2015-04-05T18:29:25Z</time>
      </trkpt>
      <trkpt lat="43.998" lon="2.92498">
        <ele>568.7</ele>
        <time>2015-04-05T18:29:28Z</time>
      </trkpt>
      <trkpt lat="43.99795" lon="2.92509">
        <ele>568.9</ele>
        <time>2015-04-05T18:29:31Z</time>
      </trkpt>
      <trkpt lat="43.99791" lon="2.9252">
        <ele>569.1</ele>
        <time>2015-04-05T18:29:34Z</time>
      </trkpt>
      <trkpt lat="43.99785" lon="2.92535">
        <ele>569.3</ele>
        <time>2015-04-05T18:29:38Z</time>
      </trkpt>
      <trkpt lat="43.9978" lon="2.92549">
        <ele>569.6</ele>
        <time>2015-04-05T18:29:42Z</time>
      </trkpt>
      <trkpt lat="43.99776" lon="2.92561">
        <ele>569.7</ele>
        <time>2015-04-05T18:29:45Z</time>
      </trkpt>
      <trkpt lat="43.99772" lon="2.92572">
        <ele>569.8</ele>
        <time>2015-04-05T18:29:48Z</time>
      </trkpt>
      <trkpt lat="43.99767" lon="2.92584">
        <ele>569.7</ele>
        <time>2015-04-05T18:29:51Z</time>
      </trkpt>
      <trkpt lat="43.99763" lon="2.92596">
        <ele>569.7</ele>
        <time>2015-04-05T18:29:54Z</time>
      </trkpt>
      <trkpt lat="43.99758" lon="2.92608">
        <ele>569.8</ele>
        <time>2015-04-05T18:29:57Z</time>
      </trkpt>
      <trkpt lat="43.99754" lon="2.9262">
        <ele>569.8</ele>
        <time>2015-04-05T18:30:00Z</time>
      </trkpt>
      <trkpt lat="43.9975" lon="2.92632">
        <ele>570</ele>
        <time>2015-04-05T18:30:03Z</time>
      </trkpt>
      <trkpt lat="43.99745" lon="2.92645">
        <ele>570.1</ele>
        <time>2015-04-05T18:30:06Z</time>
      </trkpt>
      <trkpt lat="43.9974" lon="2.92658">
        <ele>570.3</ele>
        <time>2015-04-05T18:30:09Z</time>
      </trkpt>
      <trkpt lat="43.99735" lon="2.92671">
        <ele>570.3</ele>
        <time>2015-04-05T18:30:12Z</time>
      </trkpt>
      <trkpt lat="43.9973" lon="2.92683">
        <ele>570.3</ele>
        <time>2015-04-05T18:30:15Z</time>
      </trkpt>
      <trkpt lat="43.99726" lon="2.92697">
        <ele>570.4</ele>
        <time>2015-04-05T18:30:18Z</time>
      </trkpt>
      <trkpt lat="43.99721" lon="2.92709">
        <ele>570.4</ele>
        <time>2015-04-05T18:30:21Z</time>
      </trkpt>
      <trkpt lat="43.99717" lon="2.92722">
        <ele>570.6</ele>
        <time>2015-04-05T18:30:24Z</time>
      </trkpt>
      <trkpt lat="43.99712" lon="2.92734">
        <ele>570.8</ele>
        <time>2015-04-05T18:30:27Z</time>
      </trkpt>
      <trkpt lat="43.99707" lon="2.92747">
        <ele>570.8</ele>
        <time>2015-04-05T18:30:30Z</time>
      </trkpt>
      <trkpt lat="43.99702" lon="2.9276">
        <ele>571</ele>
        <time>2015-04-05T18:30:33Z</time>
      </trkpt>
      <trkpt lat="43.99698" lon="2.92772">
        <ele>571.1</ele>
        <time>2015-04-05T18:30:36Z</time>
      </trkpt>
      <trkpt lat="43.99693" lon="2.92785">
        <ele>571.1</ele>
        <time>2015-04-05T18:30:39Z</time>
      </trkpt>
      <trkpt lat="43.99689" lon="2.92798">
        <ele>571.2</ele>
        <time>2015-04-05T18:30:42Z</time>
      </trkpt>
      <trkpt lat="43.99684" lon="2.9281">
        <ele>571.3</ele>
        <time>2015-04-05T18:30:45Z</time>
      </trkpt>
      <trkpt lat="43.99679" lon="2.92823">
        <ele>571.4</ele>
        <time>2015-04-05T18:30:48Z</time>
      </trkpt>
      <trkpt lat="43.99674" lon="2.92836">
        <ele>571.3</ele>
        <time>2015-04-05T18:30:51Z</time>
      </trkpt>
      <trkpt lat="43.99669" lon="2.92849">
        <ele>571.1</ele>
        <time>2015-04-05T18:30:54Z</time>
      </trkpt>
      <trkpt lat="43.99664" lon="2.92863">
        <ele>571</ele>
        <time>2015-04-05T18:30:57Z</time>
      </trkpt>
      <trkpt lat="43.99658" lon="2.92878">
        <ele>570.9</ele>
        <time>2015-04-05T18:31:00Z</time>
      </trkpt>
      <trkpt lat="43.99652" lon="2.92893">
        <ele>570.9</ele>
        <time>2015-04-05T18:31:03Z</time>
      </trkpt>
      <trkpt lat="43.99646" lon="2.92909">
        <ele>571.1</ele>
        <time>2015-04-05T18:31:06Z</time>
      </trkpt>
      <trkpt lat="43.9964" lon="2.92926">
        <ele>571.1</ele>
        <time>2015-04-05T18:31:09Z</time>
      </trkpt>
      <trkpt lat="43.99633" lon="2.92942">
        <ele>571.3</ele>
        <time>2015-04-05T18:31:12Z</time>
      </trkpt>
      <trkpt lat="43.99629" lon="2.92954">
        <ele>571.4</ele>
        <time>2015-04-05T18:31:14Z</time>
      </trkpt>
      <trkpt lat="43.99625" lon="2.92967">
        <ele>571.5</ele>
        <time>2015-04-05T18:31:16Z</time>
      </trkpt>
      <trkpt lat="43.9962" lon="2.9298">
        <ele>571.6</ele>
        <time>2015-04-05T18:31:18Z</time>
      </trkpt>
      <trkpt lat="43.99614" lon="2.92993">
        <ele>571.5</ele>
        <time>2015-04-05T18:31:20Z</time>
      </trkpt>
      <trkpt lat="43.99607" lon="2.93007">
        <ele>571</ele>
        <time>2015-04-05T18:31:22Z</time>
      </trkpt>
      <trkpt lat="43.99597" lon="2.93019">
        <ele>570.7</ele>
        <time>2015-04-05T18:31:24Z</time>
      </trkpt>
      <trkpt lat="43.99585" lon="2.93028">
        <ele>570.7</ele>
        <time>2015-04-05T18:31:26Z</time>
      </trkpt>
      <trkpt lat="43.9957" lon="2.93034">
        <ele>570.5</ele>
        <time>2015-04-05T18:31:28Z</time>
      </trkpt>
      <trkpt lat="43.99553" lon="2.93036">
        <ele>569.8</ele>
        <time>2015-04-05T18:31:30Z</time>
      </trkpt>
      <trkpt lat="43.99544" lon="2.93037">
        <ele>569.4</ele>
        <time>2015-04-05T18:31:31Z</time>
      </trkpt>
      <trkpt lat="43.99535" lon="2.93038">
        <ele>569.2</ele>
        <time>2015-04-05T18:31:32Z</time>
      </trkpt>
      <trkpt lat="43.99525" lon="2.93039">
        <ele>568.8</ele>
        <time>2015-04-05T18:31:33Z</time>
      </trkpt>
      <trkpt lat="43.99515" lon="2.93039">
        <ele>568.6</ele>
        <time>2015-04-05T18:31:34Z</time>
      </trkpt>
      <trkpt lat="43.99505" lon="2.9304">
        <ele>568</ele>
        <time>2015-04-05T18:31:35Z</time>
      </trkpt>
      <trkpt lat="43.99494" lon="2.93041">
        <ele>567.3</ele>
        <time>2015-04-05T18:31:36Z</time>
      </trkpt>
      <trkpt lat="43.99483" lon="2.93041">
        <ele>566.7</ele>
        <time>2015-04-05T18:31:37Z</time>
      </trkpt>
      <trkpt lat="43.99473" lon="2.93042">
        <ele>566.3</ele>
        <time>2015-04-05T18:31:38Z</time>
      </trkpt>
      <trkpt lat="43.99464" lon="2.93042">
        <ele>565.6</ele>
        <time>2015-04-05T18:31:39Z</time>
      </trkpt>
      <trkpt lat="43.99448" lon="2.93043">
        <ele>564.6</ele>
        <time>2015-04-05T18:31:41Z</time>
      </trkpt>
      <trkpt lat="43.99435" lon="2.93044">
        <ele>563.8</ele>
        <time>2015-04-05T18:31:43Z</time>
      </trkpt>
      <trkpt lat="43.99424" lon="2.93051">
        <ele>562.7</ele>
        <time>2015-04-05T18:31:46Z</time>
      </trkpt>
      <trkpt lat="43.99418" lon="2.9306">
        <ele>561.2</ele>
        <time>2015-04-05T18:31:50Z</time>
      </trkpt>
      <trkpt lat="43.9941" lon="2.93069">
        <ele>560.6</ele>
        <time>2015-04-05T18:31:55Z</time>
      </trkpt>
      <trkpt lat="43.99401" lon="2.93073">
        <ele>560.3</ele>
        <time>2015-04-05T18:32:00Z</time>
      </trkpt>
      <trkpt lat="43.99389" lon="2.93073">
        <ele>560.3</ele>
        <time>2015-04-05T18:32:04Z</time>
      </trkpt>
      <trkpt lat="43.99379" lon="2.93074">
        <ele>560.3</ele>
        <time>2015-04-05T18:32:07Z</time>
      </trkpt>
      <trkpt lat="43.99368" lon="2.93074">
        <ele>560.1</ele>
        <time>2015-04-05T18:32:10Z</time>
      </trkpt>
      <trkpt lat="43.99357" lon="2.93074">
        <ele>560.1</ele>
        <time>2015-04-05T18:32:13Z</time>
      </trkpt>
      <trkpt lat="43.99344" lon="2.93075">
        <ele>560</ele>
        <time>2015-04-05T18:32:16Z</time>
      </trkpt>
      <trkpt lat="43.99331" lon="2.93076">
        <ele>559.9</ele>
        <time>2015-04-05T18:32:19Z</time>
      </trkpt>
      <trkpt lat="43.99322" lon="2.93077">
        <ele>560.2</ele>
        <time>2015-04-05T18:32:21Z</time>
      </trkpt>
      <trkpt lat="43.99309" lon="2.93079">
        <ele>560.3</ele>
        <time>2015-04-05T18:32:24Z</time>
      </trkpt>
      <trkpt lat="43.99299" lon="2.93081">
        <ele>560.2</ele>
        <time>2015-04-05T18:32:26Z</time>
      </trkpt>
      <trkpt lat="43.9929" lon="2.93083">
        <ele>559.8</ele>
        <time>2015-04-05T18:32:28Z</time>
      </trkpt>
      <trkpt lat="43.9928" lon="2.93087">
        <ele>559.4</ele>
        <time>2015-04-05T18:32:30Z</time>
      </trkpt>
      <trkpt lat="43.99269" lon="2.93092">
        <ele>558.9</ele>
        <time>2015-04-05T18:32:32Z</time>
      </trkpt>
      <trkpt lat="43.99258" lon="2.93098">
        <ele>558.3</ele>
        <time>2015-04-05T18:32:34Z</time>
      </trkpt>
      <trkpt lat="43.99247" lon="2.93106">
        <ele>558.2</ele>
        <time>2015-04-05T18:32:36Z</time>
      </trkpt>
      <trkpt lat="43.99236" lon="2.93116">
        <ele>557.6</ele>
        <time>2015-04-05T18:32:38Z</time>
      </trkpt>
      <trkpt lat="43.99224" lon="2.93127">
        <ele>557.1</ele>
        <time>2015-04-05T18:32:40Z</time>
      </trkpt>
      <trkpt lat="43.99213" lon="2.93141">
        <ele>556.4</ele>
        <time>2015-04-05T18:32:42Z</time>
      </trkpt>
      <trkpt lat="43.99202" lon="2.93156">
        <ele>555.6</ele>
        <time>2015-04-05T18:32:44Z</time>
      </trkpt>
      <trkpt lat="43.99191" lon="2.93174">
        <ele>554.7</ele>
        <time>2015-04-05T18:32:46Z</time>
      </trkpt>
      <trkpt lat="43.9918" lon="2.93194">
        <ele>553.6</ele>
        <time>2015-04-05T18:32:48Z</time>
      </trkpt>
      <trkpt lat="43.99175" lon="2.93205">
        <ele>553.1</ele>
        <time>2015-04-05T18:32:49Z</time>
      </trkpt>
      <trkpt lat="43.99169" lon="2.93216">
        <ele>552.4</ele>
        <time>2015-04-05T18:32:50Z</time>
      </trkpt>
      <trkpt lat="43.99163" lon="2.93227">
        <ele>551.8</ele>
        <time>2015-04-05T18:32:51Z</time>
      </trkpt>
      <trkpt lat="43.99157" lon="2.93239">
        <ele>551.2</ele>
        <time>2015-04-05T18:32:52Z</time>
      </trkpt>
      <trkpt lat="43.99151" lon="2.93251">
        <ele>550.6</ele>
        <time>2015-04-05T18:32:53Z</time>
      </trkpt>
      <trkpt lat="43.99144" lon="2.93263">
        <ele>550</ele>
        <time>2015-04-05T18:32:54Z</time>
      </trkpt>
      <trkpt lat="43.99138" lon="2.93275">
        <ele>549.4</ele>
        <time>2015-04-05T18:32:55Z</time>
      </trkpt>
      <trkpt lat="43.99131" lon="2.93288">
        <ele>548.7</ele>
        <time>2015-04-05T18:32:56Z</time>
      </trkpt>
      <trkpt lat="43.99125" lon="2.93301">
        <ele>547.9</ele>
        <time>2015-04-05T18:32:57Z</time>
      </trkpt>
      <trkpt lat="43.99118" lon="2.93314">
        <ele>547.2</ele>
        <time>2015-04-05T18:32:58Z</time>
      </trkpt>
      <trkpt lat="43.99111" lon="2.93328">
        <ele>546.4</ele>
        <time>2015-04-05T18:32:59Z</time>
      </trkpt>
      <trkpt lat="43.99104" lon="2.93341">
        <ele>545.6</ele>
        <time>2015-04-05T18:33:00Z</time>
      </trkpt>
      <trkpt lat="43.99097" lon="2.93355">
        <ele>544.9</ele>
        <time>2015-04-05T18:33:01Z</time>
      </trkpt>
      <trkpt lat="43.9909" lon="2.93368">
        <ele>544</ele>
        <time>2015-04-05T18:33:02Z</time>
      </trkpt>
      <trkpt lat="43.99083" lon="2.93382">
        <ele>543.3</ele>
        <time>2015-04-05T18:33:03Z</time>
      </trkpt>
      <trkpt lat="43.99076" lon="2.93395">
        <ele>542.5</ele>
        <time>2015-04-05T18:33:04Z</time>
      </trkpt>
      <trkpt lat="43.99068" lon="2.93409">
        <ele>541.7</ele>
        <time>2015-04-05T18:33:05Z</time>
      </trkpt>
      <trkpt lat="43.99061" lon="2.93424">
        <ele>540.8</ele>
        <time>2015-04-05T18:33:06Z</time>
      </trkpt>
      <trkpt lat="43.99053" lon="2.93438">
        <ele>540</ele>
        <time>2015-04-05T18:33:07Z</time>
      </trkpt>
      <trkpt lat="43.99046" lon="2.93451">
        <ele>539</ele>
        <time>2015-04-05T18:33:08Z</time>
      </trkpt>
      <trkpt lat="43.99039" lon="2.93463">
        <ele>538.1</ele>
        <time>2015-04-05T18:33:09Z</time>
      </trkpt>
      <trkpt lat="43.99033" lon="2.93474">
        <ele>537.3</ele>
        <time>2015-04-05T18:33:10Z</time>
      </trkpt>
      <trkpt lat="43.99023" lon="2.93492">
        <ele>535.9</ele>
        <time>2015-04-05T18:33:12Z</time>
      </trkpt>
      <trkpt lat="43.99013" lon="2.93505">
        <ele>535.5</ele>
        <time>2015-04-05T18:33:14Z</time>
      </trkpt>
      <trkpt lat="43.99006" lon="2.93515">
        <ele>535</ele>
        <time>2015-04-05T18:33:16Z</time>
      </trkpt>
      <trkpt lat="43.98999" lon="2.93528">
        <ele>534.5</ele>
        <time>2015-04-05T18:33:19Z</time>
      </trkpt>
      <trkpt lat="43.99006" lon="2.93542">
        <ele>535.9</ele>
        <time>2015-04-05T18:34:48Z</time>
      </trkpt>
      <trkpt lat="43.99013" lon="2.93556">
        <ele>535.5</ele>
        <time>2015-04-05T18:34:51Z</time>
      </trkpt>
      <trkpt lat="43.99019" lon="2.93568">
        <ele>535</ele>
        <time>2015-04-05T18:34:53Z</time>
      </trkpt>
      <trkpt lat="43.99025" lon="2.93582">
        <ele>534.7</ele>
        <time>2015-04-05T18:34:55Z</time>
      </trkpt>
      <trkpt lat="43.99031" lon="2.93596">
        <ele>534.5</ele>
        <time>2015-04-05T18:34:57Z</time>
      </trkpt>
      <trkpt lat="43.99034" lon="2.93614">
        <ele>534.4</ele>
        <time>2015-04-05T18:34:59Z</time>
      </trkpt>
      <trkpt lat="43.99034" lon="2.93632">
        <ele>534.4</ele>
        <time>2015-04-05T18:35:01Z</time>
      </trkpt>
      <trkpt lat="43.99031" lon="2.93649">
        <ele>534.2</ele>
        <time>2015-04-05T18:35:03Z</time>
      </trkpt>
      <trkpt lat="43.99027" lon="2.93666">
        <ele>534.1</ele>
        <time>2015-04-05T18:35:05Z</time>
      </trkpt>
      <trkpt lat="43.99022" lon="2.9368">
        <ele>534.3</ele>
        <time>2015-04-05T18:35:07Z</time>
      </trkpt>
      <trkpt lat="43.99017" lon="2.93694">
        <ele>534.7</ele>
        <time>2015-04-05T18:35:09Z</time>
      </trkpt>
      <trkpt lat="43.99012" lon="2.93707">
        <ele>534.8</ele>
        <time>2015-04-05T18:35:11Z</time>
      </trkpt>
      <trkpt lat="43.99008" lon="2.93719">
        <ele>535.1</ele>
        <time>2015-04-05T18:35:13Z</time>
      </trkpt>
      <trkpt lat="43.99003" lon="2.93732">
        <ele>535.3</ele>
        <time>2015-04-05T18:35:15Z</time>
      </trkpt>
      <trkpt lat="43.98998" lon="2.93743">
        <ele>535.5</ele>
        <time>2015-04-05T18:35:17Z</time>
      </trkpt>
      <trkpt lat="43.98993" lon="2.93756">
        <ele>535.9</ele>
        <time>2015-04-05T18:35:19Z</time>
      </trkpt>
      <trkpt lat="43.98989" lon="2.93769">
        <ele>536.3</ele>
        <time>2015-04-05T18:35:21Z</time>
      </trkpt>
      <trkpt lat="43.98985" lon="2.93781">
        <ele>536.7</ele>
        <time>2015-04-05T18:35:23Z</time>
      </trkpt>
      <trkpt lat="43.98981" lon="2.93793">
        <ele>537.1</ele>
        <time>2015-04-05T18:35:25Z</time>
      </trkpt>
      <trkpt lat="43.98977" lon="2.93805">
        <ele>537.4</ele>
        <time>2015-04-05T18:35:27Z</time>
      </trkpt>
      <trkpt lat="43.98971" lon="2.93821">
        <ele>537.9</ele>
        <time>2015-04-05T18:35:30Z</time>
      </trkpt>
      <trkpt lat="43.98968" lon="2.93833">
        <ele>538.2</ele>
        <time>2015-04-05T18:35:32Z</time>
      </trkpt>
      <trkpt lat="43.98963" lon="2.93851">
        <ele>538.9</ele>
        <time>2015-04-05T18:35:35Z</time>
      </trkpt>
      <trkpt lat="43.98961" lon="2.93864">
        <ele>539.3</ele>
        <time>2015-04-05T18:35:37Z</time>
      </trkpt>
      <trkpt lat="43.98958" lon="2.93877">
        <ele>539.7</ele>
        <time>2015-04-05T18:35:39Z</time>
      </trkpt>
      <trkpt lat="43.98956" lon="2.93889">
        <ele>540.1</ele>
        <time>2015-04-05T18:35:41Z</time>
      </trkpt>
      <trkpt lat="43.98953" lon="2.93902">
        <ele>540.7</ele>
        <time>2015-04-05T18:35:43Z</time>
      </trkpt>
      <trkpt lat="43.98951" lon="2.93915">
        <ele>541.3</ele>
        <time>2015-04-05T18:35:45Z</time>
      </trkpt>
      <trkpt lat="43.98948" lon="2.93928">
        <ele>541.9</ele>
        <time>2015-04-05T18:35:47Z</time>
      </trkpt>
      <trkpt lat="43.98946" lon="2.93941">
        <ele>542.6</ele>
        <time>2015-04-05T18:35:49Z</time>
      </trkpt>
      <trkpt lat="43.98944" lon="2.93955">
        <ele>543.4</ele>
        <time>2015-04-05T18:35:51Z</time>
      </trkpt>
      <trkpt lat="43.98942" lon="2.93971">
        <ele>543.8</ele>
        <time>2015-04-05T18:35:53Z</time>
      </trkpt>
      <trkpt lat="43.9894" lon="2.93985">
        <ele>544.4</ele>
        <time>2015-04-05T18:35:55Z</time>
      </trkpt>
      <trkpt lat="43.98938" lon="2.93999">
        <ele>544.8</ele>
        <time>2015-04-05T18:35:57Z</time>
      </trkpt>
      <trkpt lat="43.98935" lon="2.94014">
        <ele>545.3</ele>
        <time>2015-04-05T18:35:59Z</time>
      </trkpt>
      <trkpt lat="43.98931" lon="2.94028">
        <ele>545.9</ele>
        <time>2015-04-05T18:36:01Z</time>
      </trkpt>
      <trkpt lat="43.98927" lon="2.94043">
        <ele>546.5</ele>
        <time>2015-04-05T18:36:03Z</time>
      </trkpt>
      <trkpt lat="43.98922" lon="2.94059">
        <ele>547</ele>
        <time>2015-04-05T18:36:05Z</time>
      </trkpt>
      <trkpt lat="43.98919" lon="2.94078">
        <ele>547.4</ele>
        <time>2015-04-05T18:36:07Z</time>
      </trkpt>
      <trkpt lat="43.98918" lon="2.94096">
        <ele>548.4</ele>
        <time>2015-04-05T18:36:09Z</time>
      </trkpt>
      <trkpt lat="43.9892" lon="2.94116">
        <ele>548.8</ele>
        <time>2015-04-05T18:36:11Z</time>
      </trkpt>
      <trkpt lat="43.98922" lon="2.94137">
        <ele>549</ele>
        <time>2015-04-05T18:36:13Z</time>
      </trkpt>
      <trkpt lat="43.98925" lon="2.94157">
        <ele>549.4</ele>
        <time>2015-04-05T18:36:15Z</time>
      </trkpt>
      <trkpt lat="43.98928" lon="2.94177">
        <ele>549.4</ele>
        <time>2015-04-05T18:36:17Z</time>
      </trkpt>
      <trkpt lat="43.98929" lon="2.94197">
        <ele>549.8</ele>
        <time>2015-04-05T18:36:19Z</time>
      </trkpt>
      <trkpt lat="43.9893" lon="2.94218">
        <ele>550</ele>
        <time>2015-04-05T18:36:21Z</time>
      </trkpt>
      <trkpt lat="43.98931" lon="2.94239">
        <ele>549.8</ele>
        <time>2015-04-05T18:36:23Z</time>
      </trkpt>
      <trkpt lat="43.98932" lon="2.94258">
        <ele>549.9</ele>
        <time>2015-04-05T18:36:25Z</time>
      </trkpt>
      <trkpt lat="43.98932" lon="2.94276">
        <ele>550</ele>
        <time>2015-04-05T18:36:27Z</time>
      </trkpt>
      <trkpt lat="43.98934" lon="2.94293">
        <ele>550.4</ele>
        <time>2015-04-05T18:36:29Z</time>
      </trkpt>
      <trkpt lat="43.98935" lon="2.94308">
        <ele>550.8</ele>
        <time>2015-04-05T18:36:31Z</time>
      </trkpt>
      <trkpt lat="43.98937" lon="2.94322">
        <ele>551.3</ele>
        <time>2015-04-05T18:36:33Z</time>
      </trkpt>
      <trkpt lat="43.98939" lon="2.94336">
        <ele>551.2</ele>
        <time>2015-04-05T18:36:35Z</time>
      </trkpt>
      <trkpt lat="43.98943" lon="2.94349">
        <ele>551.1</ele>
        <time>2015-04-05T18:36:37Z</time>
      </trkpt>
      <trkpt lat="43.98947" lon="2.94366">
        <ele>551.1</ele>
        <time>2015-04-05T18:36:40Z</time>
      </trkpt>
      <trkpt lat="43.98949" lon="2.9438">
        <ele>551.2</ele>
        <time>2015-04-05T18:36:43Z</time>
      </trkpt>
      <trkpt lat="43.98953" lon="2.94394">
        <ele>551.4</ele>
        <time>2015-04-05T18:36:46Z</time>
      </trkpt>
      <trkpt lat="43.98959" lon="2.94406">
        <ele>551.2</ele>
        <time>2015-04-05T18:36:49Z</time>
      </trkpt>
      <trkpt lat="43.98967" lon="2.94417">
        <ele>550.9</ele>
        <time>2015-04-05T18:36:52Z</time>
      </trkpt>
      <trkpt lat="43.98976" lon="2.94426">
        <ele>550.6</ele>
        <time>2015-04-05T18:36:55Z</time>
      </trkpt>
      <trkpt lat="43.98984" lon="2.94437">
        <ele>549.8</ele>
        <time>2015-04-05T18:36:58Z</time>
      </trkpt>
      <trkpt lat="43.98994" lon="2.94448">
        <ele>549.1</ele>
        <time>2015-04-05T18:37:01Z</time>
      </trkpt>
      <trkpt lat="43.99001" lon="2.94455">
        <ele>548.5</ele>
        <time>2015-04-05T18:37:03Z</time>
      </trkpt>
      <trkpt lat="43.99009" lon="2.94463">
        <ele>548</ele>
        <time>2015-04-05T18:37:05Z</time>
      </trkpt>
      <trkpt lat="43.99017" lon="2.9447">
        <ele>547.2</ele>
        <time>2015-04-05T18:37:07Z</time>
      </trkpt>
      <trkpt lat="43.99025" lon="2.94479">
        <ele>546.5</ele>
        <time>2015-04-05T18:37:09Z</time>
      </trkpt>
      <trkpt lat="43.99033" lon="2.94487">
        <ele>545.9</ele>
        <time>2015-04-05T18:37:11Z</time>
      </trkpt>
      <trkpt lat="43.99041" lon="2.94496">
        <ele>545.4</ele>
        <time>2015-04-05T18:37:13Z</time>
      </trkpt>
      <trkpt lat="43.99048" lon="2.94505">
        <ele>545.4</ele>
        <time>2015-04-05T18:37:15Z</time>
      </trkpt>
      <trkpt lat="43.99054" lon="2.94514">
        <ele>544.9</ele>
        <time>2015-04-05T18:37:17Z</time>
      </trkpt>
      <trkpt lat="43.99063" lon="2.94527">
        <ele>545.1</ele>
        <time>2015-04-05T18:37:20Z</time>
      </trkpt>
      <trkpt lat="43.9907" lon="2.94538">
        <ele>545</ele>
        <time>2015-04-05T18:37:23Z</time>
      </trkpt>
      <trkpt lat="43.99078" lon="2.94548">
        <ele>544.5</ele>
        <time>2015-04-05T18:37:26Z</time>
      </trkpt>
      <trkpt lat="43.99085" lon="2.94558">
        <ele>544.6</ele>
        <time>2015-04-05T18:37:29Z</time>
      </trkpt>
      <trkpt lat="43.99092" lon="2.94568">
        <ele>545</ele>
        <time>2015-04-05T18:37:32Z</time>
      </trkpt>
      <trkpt lat="43.99099" lon="2.94577">
        <ele>545.3</ele>
        <time>2015-04-05T18:37:35Z</time>
      </trkpt>
      <trkpt lat="43.99106" lon="2.94587">
        <ele>546.3</ele>
        <time>2015-04-05T18:37:38Z</time>
      </trkpt>
      <trkpt lat="43.99113" lon="2.94595">
        <ele>547.1</ele>
        <time>2015-04-05T18:37:41Z</time>
      </trkpt>
      <trkpt lat="43.99122" lon="2.94603">
        <ele>548.2</ele>
        <time>2015-04-05T18:37:45Z</time>
      </trkpt>
      <trkpt lat="43.99132" lon="2.94608">
        <ele>549.4</ele>
        <time>2015-04-05T18:37:49Z</time>
      </trkpt>
      <trkpt lat="43.99143" lon="2.9461">
        <ele>549.9</ele>
        <time>2015-04-05T18:37:53Z</time>
      </trkpt>
      <trkpt lat="43.99154" lon="2.9461">
        <ele>549.5</ele>
        <time>2015-04-05T18:37:57Z</time>
      </trkpt>
      <trkpt lat="43.99165" lon="2.9461">
        <ele>549.3</ele>
        <time>2015-04-05T18:38:01Z</time>
      </trkpt>
      <trkpt lat="43.99175" lon="2.94608">
        <ele>549.3</ele>
        <time>2015-04-05T18:38:05Z</time>
      </trkpt>
      <trkpt lat="43.99184" lon="2.94605">
        <ele>548.8</ele>
        <time>2015-04-05T18:38:10Z</time>
      </trkpt>
      <trkpt lat="43.99194" lon="2.94603">
        <ele>548.2</ele>
        <time>2015-04-05T18:38:14Z</time>
      </trkpt>
      <trkpt lat="43.99203" lon="2.94599">
        <ele>547.6</ele>
        <time>2015-04-05T18:38:18Z</time>
      </trkpt>
      <trkpt lat="43.99213" lon="2.94596">
        <ele>546.8</ele>
        <time>2015-04-05T18:38:23Z</time>
      </trkpt>
      <trkpt lat="43.99223" lon="2.94592">
        <ele>545.6</ele>
        <time>2015-04-05T18:38:28Z</time>
      </trkpt>
      <trkpt lat="43.99234" lon="2.94587">
        <ele>544.5</ele>
        <time>2015-04-05T18:38:32Z</time>
      </trkpt>
      <trkpt lat="43.99243" lon="2.94583">
        <ele>544</ele>
        <time>2015-04-05T18:38:35Z</time>
      </trkpt>
      <trkpt lat="43.99252" lon="2.94579">
        <ele>543.1</ele>
        <time>2015-04-05T18:38:38Z</time>
      </trkpt>
      <trkpt lat="43.99263" lon="2.94575">
        <ele>541.8</ele>
        <time>2015-04-05T18:38:41Z</time>
      </trkpt>
      <trkpt lat="43.99273" lon="2.94571">
        <ele>540.6</ele>
        <time>2015-04-05T18:38:44Z</time>
      </trkpt>
      <trkpt lat="43.99285" lon="2.94568">
        <ele>539.3</ele>
        <time>2015-04-05T18:38:48Z</time>
      </trkpt>
      <trkpt lat="43.99295" lon="2.94565">
        <ele>538.8</ele>
        <time>2015-04-05T18:38:51Z</time>
      </trkpt>
      <trkpt lat="43.99306" lon="2.94564">
        <ele>538.2</ele>
        <time>2015-04-05T18:38:54Z</time>
      </trkpt>
      <trkpt lat="43.99317" lon="2.94564">
        <ele>537.9</ele>
        <time>2015-04-05T18:38:57Z</time>
      </trkpt>
      <trkpt lat="43.9933" lon="2.94566">
        <ele>537.3</ele>
        <time>2015-04-05T18:39:00Z</time>
      </trkpt>
      <trkpt lat="43.99342" lon="2.94568">
        <ele>537.6</ele>
        <time>2015-04-05T18:39:02Z</time>
      </trkpt>
      <trkpt lat="43.99354" lon="2.94572">
        <ele>537.9</ele>
        <time>2015-04-05T18:39:04Z</time>
      </trkpt>
      <trkpt lat="43.99369" lon="2.94578">
        <ele>537.4</ele>
        <time>2015-04-05T18:39:06Z</time>
      </trkpt>
      <trkpt lat="43.99385" lon="2.94587">
        <ele>537.3</ele>
        <time>2015-04-05T18:39:08Z</time>
      </trkpt>
      <trkpt lat="43.99394" lon="2.94593">
        <ele>537</ele>
        <time>2015-04-05T18:39:09Z</time>
      </trkpt>
      <trkpt lat="43.99402" lon="2.94599">
        <ele>536.7</ele>
        <time>2015-04-05T18:39:10Z</time>
      </trkpt>
      <trkpt lat="43.99411" lon="2.94605">
        <ele>536.7</ele>
        <time>2015-04-05T18:39:11Z</time>
      </trkpt>
      <trkpt lat="43.9942" lon="2.94612">
        <ele>536.6</ele>
        <time>2015-04-05T18:39:12Z</time>
      </trkpt>
      <trkpt lat="43.99429" lon="2.9462">
        <ele>536.4</ele>
        <time>2015-04-05T18:39:13Z</time>
      </trkpt>
      <trkpt lat="43.99438" lon="2.94628">
        <ele>536.1</ele>
        <time>2015-04-05T18:39:14Z</time>
      </trkpt>
      <trkpt lat="43.99447" lon="2.94637">
        <ele>536.2</ele>
        <time>2015-04-05T18:39:15Z</time>
      </trkpt>
      <trkpt lat="43.99456" lon="2.94646">
        <ele>536.1</ele>
        <time>2015-04-05T18:39:16Z</time>
      </trkpt>
      <trkpt lat="43.99466" lon="2.94655">
        <ele>535.7</ele>
        <time>2015-04-05T18:39:17Z</time>
      </trkpt>
      <trkpt lat="43.99476" lon="2.94665">
        <ele>535.1</ele>
        <time>2015-04-05T18:39:18Z</time>
      </trkpt>
      <trkpt lat="43.99486" lon="2.94675">
        <ele>534.4</ele>
        <time>2015-04-05T18:39:19Z</time>
      </trkpt>
      <trkpt lat="43.99495" lon="2.94685">
        <ele>533.2</ele>
        <time>2015-04-05T18:39:20Z</time>
      </trkpt>
      <trkpt lat="43.99505" lon="2.94696">
        <ele>532.8</ele>
        <time>2015-04-05T18:39:21Z</time>
      </trkpt>
      <trkpt lat="43.99513" lon="2.94708">
        <ele>532.4</ele>
        <time>2015-04-05T18:39:22Z</time>
      </trkpt>
      <trkpt lat="43.99522" lon="2.9472">
        <ele>532</ele>
        <time>2015-04-05T18:39:23Z</time>
      </trkpt>
      <trkpt lat="43.9953" lon="2.94732">
        <ele>531.2</ele>
        <time>2015-04-05T18:39:24Z</time>
      </trkpt>
      <trkpt lat="43.99537" lon="2.94746">
        <ele>530.4</ele>
        <time>2015-04-05T18:39:25Z</time>
      </trkpt>
      <trkpt lat="43.99543" lon="2.9476">
        <ele>529.6</ele>
        <time>2015-04-05T18:39:26Z</time>
      </trkpt>
      <trkpt lat="43.99549" lon="2.94775">
        <ele>528.9</ele>
        <time>2015-04-05T18:39:27Z</time>
      </trkpt>
      <trkpt lat="43.99556" lon="2.9479">
        <ele>528.1</ele>
        <time>2015-04-05T18:39:28Z</time>
      </trkpt>
      <trkpt lat="43.99562" lon="2.94803">
        <ele>527.3</ele>
        <time>2015-04-05T18:39:29Z</time>
      </trkpt>
      <trkpt lat="43.9957" lon="2.94816">
        <ele>526.6</ele>
        <time>2015-04-05T18:39:30Z</time>
      </trkpt>
      <trkpt lat="43.99579" lon="2.94828">
        <ele>525.2</ele>
        <time>2015-04-05T18:39:31Z</time>
      </trkpt>
      <trkpt lat="43.99588" lon="2.94838">
        <ele>524.2</ele>
        <time>2015-04-05T18:39:32Z</time>
      </trkpt>
      <trkpt lat="43.99598" lon="2.94848">
        <ele>523.1</ele>
        <time>2015-04-05T18:39:33Z</time>
      </trkpt>
      <trkpt lat="43.99609" lon="2.94857">
        <ele>521.9</ele>
        <time>2015-04-05T18:39:34Z</time>
      </trkpt>
      <trkpt lat="43.99619" lon="2.94864">
        <ele>520.7</ele>
        <time>2015-04-05T18:39:35Z</time>
      </trkpt>
      <trkpt lat="43.9963" lon="2.94871">
        <ele>519.7</ele>
        <time>2015-04-05T18:39:36Z</time>
      </trkpt>
      <trkpt lat="43.99641" lon="2.94876">
        <ele>518.7</ele>
        <time>2015-04-05T18:39:37Z</time>
      </trkpt>
      <trkpt lat="43.99652" lon="2.94879">
        <ele>517.7</ele>
        <time>2015-04-05T18:39:38Z</time>
      </trkpt>
      <trkpt lat="43.99663" lon="2.94882">
        <ele>516.6</ele>
        <time>2015-04-05T18:39:39Z</time>
      </trkpt>
      <trkpt lat="43.99675" lon="2.94885">
        <ele>515.7</ele>
        <time>2015-04-05T18:39:40Z</time>
      </trkpt>
      <trkpt lat="43.99686" lon="2.94888">
        <ele>514.8</ele>
        <time>2015-04-05T18:39:41Z</time>
      </trkpt>
      <trkpt lat="43.99697" lon="2.94891">
        <ele>513.8</ele>
        <time>2015-04-05T18:39:42Z</time>
      </trkpt>
      <trkpt lat="43.99708" lon="2.94894">
        <ele>513</ele>
        <time>2015-04-05T18:39:43Z</time>
      </trkpt>
      <trkpt lat="43.99719" lon="2.94897">
        <ele>512.2</ele>
        <time>2015-04-05T18:39:44Z</time>
      </trkpt>
      <trkpt lat="43.9973" lon="2.949">
        <ele>511.4</ele>
        <time>2015-04-05T18:39:45Z</time>
      </trkpt>
      <trkpt lat="43.99741" lon="2.94903">
        <ele>510.6</ele>
        <time>2015-04-05T18:39:46Z</time>
      </trkpt>
      <trkpt lat="43.99752" lon="2.94907">
        <ele>509.8</ele>
        <time>2015-04-05T18:39:47Z</time>
      </trkpt>
      <trkpt lat="43.99763" lon="2.94911">
        <ele>509</ele>
        <time>2015-04-05T18:39:48Z</time>
      </trkpt>
      <trkpt lat="43.99773" lon="2.94915">
        <ele>508.2</ele>
        <time>2015-04-05T18:39:49Z</time>
      </trkpt>
      <trkpt lat="43.99784" lon="2.94919">
        <ele>507.5</ele>
        <time>2015-04-05T18:39:50Z</time>
      </trkpt>
      <trkpt lat="43.99794" lon="2.94924">
        <ele>506.8</ele>
        <time>2015-04-05T18:39:51Z</time>
      </trkpt>
      <trkpt lat="43.99805" lon="2.94929">
        <ele>506</ele>
        <time>2015-04-05T18:39:52Z</time>
      </trkpt>
      <trkpt lat="43.99815" lon="2.94935">
        <ele>505.3</ele>
        <time>2015-04-05T18:39:53Z</time>
      </trkpt>
      <trkpt lat="43.99826" lon="2.94941">
        <ele>504.5</ele>
        <time>2015-04-05T18:39:54Z</time>
      </trkpt>
      <trkpt lat="43.99836" lon="2.94949">
        <ele>503.7</ele>
        <time>2015-04-05T18:39:55Z</time>
      </trkpt>
      <trkpt lat="43.99846" lon="2.94956">
        <ele>503.1</ele>
        <time>2015-04-05T18:39:56Z</time>
      </trkpt>
      <trkpt lat="43.99855" lon="2.94964">
        <ele>502.2</ele>
        <time>2015-04-05T18:39:57Z</time>
      </trkpt>
      <trkpt lat="43.99865" lon="2.94972">
        <ele>501.5</ele>
        <time>2015-04-05T18:39:58Z</time>
      </trkpt>
      <trkpt lat="43.99874" lon="2.94979">
        <ele>500.8</ele>
        <time>2015-04-05T18:39:59Z</time>
      </trkpt>
      <trkpt lat="43.99882" lon="2.94986">
        <ele>500.2</ele>
        <time>2015-04-05T18:40:00Z</time>
      </trkpt>
      <trkpt lat="43.99894" lon="2.94995">
        <ele>499.2</ele>
        <time>2015-04-05T18:40:02Z</time>
      </trkpt>
      <trkpt lat="43.99902" lon="2.95004">
        <ele>498.1</ele>
        <time>2015-04-05T18:40:04Z</time>
      </trkpt>
      <trkpt lat="43.99889" lon="2.95009">
        <ele>496.7</ele>
        <time>2015-04-05T18:40:07Z</time>
      </trkpt>
      <trkpt lat="43.99876" lon="2.94998">
        <ele>496.4</ele>
        <time>2015-04-05T18:40:09Z</time>
      </trkpt>
      <trkpt lat="43.99862" lon="2.94987">
        <ele>495.9</ele>
        <time>2015-04-05T18:40:11Z</time>
      </trkpt>
      <trkpt lat="43.99847" lon="2.94979">
        <ele>495</ele>
        <time>2015-04-05T18:40:13Z</time>
      </trkpt>
      <trkpt lat="43.99831" lon="2.94972">
        <ele>494.2</ele>
        <time>2015-04-05T18:40:15Z</time>
      </trkpt>
      <trkpt lat="43.99822" lon="2.94969">
        <ele>493.8</ele>
        <time>2015-04-05T18:40:16Z</time>
      </trkpt>
      <trkpt lat="43.99812" lon="2.94966">
        <ele>493.3</ele>
        <time>2015-04-05T18:40:17Z</time>
      </trkpt>
      <trkpt lat="43.99803" lon="2.94964">
        <ele>492.9</ele>
        <time>2015-04-05T18:40:18Z</time>
      </trkpt>
      <trkpt lat="43.99794" lon="2.94962">
        <ele>492.5</ele>
        <time>2015-04-05T18:40:19Z</time>
      </trkpt>
      <trkpt lat="43.99784" lon="2.9496">
        <ele>492</ele>
        <time>2015-04-05T18:40:20Z</time>
      </trkpt>
      <trkpt lat="43.99774" lon="2.94958">
        <ele>491.5</ele>
        <time>2015-04-05T18:40:21Z</time>
      </trkpt>
      <trkpt lat="43.99764" lon="2.94957">
        <ele>490.9</ele>
        <time>2015-04-05T18:40:22Z</time>
      </trkpt>
      <trkpt lat="43.99755" lon="2.94955">
        <ele>490.4</ele>
        <time>2015-04-05T18:40:23Z</time>
      </trkpt>
      <trkpt lat="43.99744" lon="2.94953">
        <ele>489.8</ele>
        <time>2015-04-05T18:40:24Z</time>
      </trkpt>
      <trkpt lat="43.99734" lon="2.94951">
        <ele>489.1</ele>
        <time>2015-04-05T18:40:25Z</time>
      </trkpt>
      <trkpt lat="43.99724" lon="2.94949">
        <ele>488.6</ele>
        <time>2015-04-05T18:40:26Z</time>
      </trkpt>
      <trkpt lat="43.99714" lon="2.94947">
        <ele>487.8</ele>
        <time>2015-04-05T18:40:27Z</time>
      </trkpt>
      <trkpt lat="43.99698" lon="2.94942">
        <ele>486.5</ele>
        <time>2015-04-05T18:40:29Z</time>
      </trkpt>
      <trkpt lat="43.99688" lon="2.94941">
        <ele>485.4</ele>
        <time>2015-04-05T18:40:31Z</time>
      </trkpt>
      <trkpt lat="43.99682" lon="2.94951">
        <ele>484.6</ele>
        <time>2015-04-05T18:40:33Z</time>
      </trkpt>
      <trkpt lat="43.99696" lon="2.94961">
        <ele>484.1</ele>
        <time>2015-04-05T18:40:36Z</time>
      </trkpt>
      <trkpt lat="43.99714" lon="2.94966">
        <ele>482.9</ele>
        <time>2015-04-05T18:40:38Z</time>
      </trkpt>
      <trkpt lat="43.99724" lon="2.9497">
        <ele>482.4</ele>
        <time>2015-04-05T18:40:39Z</time>
      </trkpt>
      <trkpt lat="43.99733" lon="2.94974">
        <ele>481.8</ele>
        <time>2015-04-05T18:40:40Z</time>
      </trkpt>
      <trkpt lat="43.99742" lon="2.94978">
        <ele>481.3</ele>
        <time>2015-04-05T18:40:41Z</time>
      </trkpt>
      <trkpt lat="43.99752" lon="2.94984">
        <ele>480.7</ele>
        <time>2015-04-05T18:40:42Z</time>
      </trkpt>
      <trkpt lat="43.99762" lon="2.94991">
        <ele>480.2</ele>
        <time>2015-04-05T18:40:43Z</time>
      </trkpt>
      <trkpt lat="43.99772" lon="2.94998">
        <ele>479.7</ele>
        <time>2015-04-05T18:40:44Z</time>
      </trkpt>
      <trkpt lat="43.99782" lon="2.95005">
        <ele>479.1</ele>
        <time>2015-04-05T18:40:45Z</time>
      </trkpt>
      <trkpt lat="43.99792" lon="2.95012">
        <ele>478.4</ele>
        <time>2015-04-05T18:40:46Z</time>
      </trkpt>
      <trkpt lat="43.99803" lon="2.95019">
        <ele>478.2</ele>
        <time>2015-04-05T18:40:47Z</time>
      </trkpt>
      <trkpt lat="43.99813" lon="2.95027">
        <ele>477.7</ele>
        <time>2015-04-05T18:40:48Z</time>
      </trkpt>
      <trkpt lat="43.99822" lon="2.95037">
        <ele>477.1</ele>
        <time>2015-04-05T18:40:49Z</time>
      </trkpt>
      <trkpt lat="43.99831" lon="2.95048">
        <ele>476.8</ele>
        <time>2015-04-05T18:40:50Z</time>
      </trkpt>
      <trkpt lat="43.99839" lon="2.95061">
        <ele>476.2</ele>
        <time>2015-04-05T18:40:51Z</time>
      </trkpt>
      <trkpt lat="43.99847" lon="2.95074">
        <ele>475.6</ele>
        <time>2015-04-05T18:40:52Z</time>
      </trkpt>
      <trkpt lat="43.99853" lon="2.95089">
        <ele>475</ele>
        <time>2015-04-05T18:40:53Z</time>
      </trkpt>
      <trkpt lat="43.9986" lon="2.95103">
        <ele>474.3</ele>
        <time>2015-04-05T18:40:54Z</time>
      </trkpt>
      <trkpt lat="43.99868" lon="2.95117">
        <ele>473.5</ele>
        <time>2015-04-05T18:40:55Z</time>
      </trkpt>
      <trkpt lat="43.99877" lon="2.95128">
        <ele>472.6</ele>
        <time>2015-04-05T18:40:56Z</time>
      </trkpt>
      <trkpt lat="43.99886" lon="2.95139">
        <ele>471.6</ele>
        <time>2015-04-05T18:40:57Z</time>
      </trkpt>
      <trkpt lat="43.99896" lon="2.9515">
        <ele>470.6</ele>
        <time>2015-04-05T18:40:58Z</time>
      </trkpt>
      <trkpt lat="43.99907" lon="2.95159">
        <ele>469.4</ele>
        <time>2015-04-05T18:40:59Z</time>
      </trkpt>
      <trkpt lat="43.99918" lon="2.95168">
        <ele>468.2</ele>
        <time>2015-04-05T18:41:00Z</time>
      </trkpt>
      <trkpt lat="43.99929" lon="2.95176">
        <ele>467.1</ele>
        <time>2015-04-05T18:41:01Z</time>
      </trkpt>
      <trkpt lat="43.99941" lon="2.95184">
        <ele>466.1</ele>
        <time>2015-04-05T18:41:02Z</time>
      </trkpt>
      <trkpt lat="43.99952" lon="2.95191">
        <ele>465.1</ele>
        <time>2015-04-05T18:41:03Z</time>
      </trkpt>
      <trkpt lat="43.99964" lon="2.95199">
        <ele>463.9</ele>
        <time>2015-04-05T18:41:04Z</time>
      </trkpt>
      <trkpt lat="43.99976" lon="2.95207">
        <ele>462.9</ele>
        <time>2015-04-05T18:41:05Z</time>
      </trkpt>
      <trkpt lat="43.99988" lon="2.95215">
        <ele>461.6</ele>
        <time>2015-04-05T18:41:06Z</time>
      </trkpt>
      <trkpt lat="44" lon="2.95223">
        <ele>460.5</ele>
        <time>2015-04-05T18:41:07Z</time>
      </trkpt>
      <trkpt lat="44.00012" lon="2.95232">
        <ele>459.5</ele>
        <time>2015-04-05T18:41:08Z</time>
      </trkpt>
      <trkpt lat="44.00023" lon="2.95241">
        <ele>458.4</ele>
        <time>2015-04-05T18:41:09Z</time>
      </trkpt>
      <trkpt lat="44.00035" lon="2.95251">
        <ele>457.3</ele>
        <time>2015-04-05T18:41:10Z</time>
      </trkpt>
      <trkpt lat="44.00046" lon="2.9526">
        <ele>456.3</ele>
        <time>2015-04-05T18:41:11Z</time>
      </trkpt>
      <trkpt lat="44.00057" lon="2.95269">
        <ele>455.3</ele>
        <time>2015-04-05T18:41:12Z</time>
      </trkpt>
      <trkpt lat="44.00067" lon="2.95278">
        <ele>454.4</ele>
        <time>2015-04-05T18:41:13Z</time>
      </trkpt>
      <trkpt lat="44.00078" lon="2.95288">
        <ele>453.1</ele>
        <time>2015-04-05T18:41:14Z</time>
      </trkpt>
      <trkpt lat="44.00087" lon="2.95299">
        <ele>452</ele>
        <time>2015-04-05T18:41:15Z</time>
      </trkpt>
      <trkpt lat="44.00097" lon="2.95311">
        <ele>451</ele>
        <time>2015-04-05T18:41:16Z</time>
      </trkpt>
      <trkpt lat="44.00105" lon="2.95324">
        <ele>450.1</ele>
        <time>2015-04-05T18:41:17Z</time>
      </trkpt>
      <trkpt lat="44.00114" lon="2.95338">
        <ele>449.2</ele>
        <time>2015-04-05T18:41:18Z</time>
      </trkpt>
      <trkpt lat="44.00123" lon="2.95352">
        <ele>448.1</ele>
        <time>2015-04-05T18:41:19Z</time>
      </trkpt>
      <trkpt lat="44.00132" lon="2.95365">
        <ele>447.2</ele>
        <time>2015-04-05T18:41:20Z</time>
      </trkpt>
      <trkpt lat="44.00142" lon="2.95378">
        <ele>446</ele>
        <time>2015-04-05T18:41:21Z</time>
      </trkpt>
      <trkpt lat="44.00153" lon="2.9539">
        <ele>444.6</ele>
        <time>2015-04-05T18:41:22Z</time>
      </trkpt>
      <trkpt lat="44.00164" lon="2.95402">
        <ele>443.1</ele>
        <time>2015-04-05T18:41:23Z</time>
      </trkpt>
      <trkpt lat="44.00175" lon="2.95413">
        <ele>441.5</ele>
        <time>2015-04-05T18:41:24Z</time>
      </trkpt>
      <trkpt lat="44.00186" lon="2.95425">
        <ele>440.1</ele>
        <time>2015-04-05T18:41:25Z</time>
      </trkpt>
      <trkpt lat="44.00198" lon="2.95436">
        <ele>438.6</ele>
        <time>2015-04-05T18:41:26Z</time>
      </trkpt>
      <trkpt lat="44.00208" lon="2.95449">
        <ele>437.1</ele>
        <time>2015-04-05T18:41:27Z</time>
      </trkpt>
      <trkpt lat="44.00219" lon="2.95462">
        <ele>435.8</ele>
        <time>2015-04-05T18:41:28Z</time>
      </trkpt>
      <trkpt lat="44.00228" lon="2.95476">
        <ele>434.7</ele>
        <time>2015-04-05T18:41:29Z</time>
      </trkpt>
      <trkpt lat="44.00238" lon="2.9549">
        <ele>433.4</ele>
        <time>2015-04-05T18:41:30Z</time>
      </trkpt>
      <trkpt lat="44.00247" lon="2.95505">
        <ele>432.3</ele>
        <time>2015-04-05T18:41:31Z</time>
      </trkpt>
      <trkpt lat="44.00257" lon="2.95519">
        <ele>431.3</ele>
        <time>2015-04-05T18:41:32Z</time>
      </trkpt>
      <trkpt lat="44.00268" lon="2.95531">
        <ele>430.2</ele>
        <time>2015-04-05T18:41:33Z</time>
      </trkpt>
      <trkpt lat="44.00279" lon="2.95542">
        <ele>429.2</ele>
        <time>2015-04-05T18:41:34Z</time>
      </trkpt>
      <trkpt lat="44.0029" lon="2.95552">
        <ele>428</ele>
        <time>2015-04-05T18:41:35Z</time>
      </trkpt>
      <trkpt lat="44.00302" lon="2.95561">
        <ele>426.6</ele>
        <time>2015-04-05T18:41:36Z</time>
      </trkpt>
      <trkpt lat="44.00315" lon="2.95571">
        <ele>425.3</ele>
        <time>2015-04-05T18:41:37Z</time>
      </trkpt>
      <trkpt lat="44.00327" lon="2.95581">
        <ele>424.2</ele>
        <time>2015-04-05T18:41:38Z</time>
      </trkpt>
      <trkpt lat="44.00339" lon="2.95591">
        <ele>423.1</ele>
        <time>2015-04-05T18:41:39Z</time>
      </trkpt>
      <trkpt lat="44.0035" lon="2.95602">
        <ele>422</ele>
        <time>2015-04-05T18:41:40Z</time>
      </trkpt>
      <trkpt lat="44.0036" lon="2.95613">
        <ele>421</ele>
        <time>2015-04-05T18:41:41Z</time>
      </trkpt>
      <trkpt lat="44.0037" lon="2.95626">
        <ele>420.1</ele>
        <time>2015-04-05T18:41:42Z</time>
      </trkpt>
      <trkpt lat="44.0038" lon="2.95639">
        <ele>419.2</ele>
        <time>2015-04-05T18:41:43Z</time>
      </trkpt>
      <trkpt lat="44.0039" lon="2.95652">
        <ele>418.2</ele>
        <time>2015-04-05T18:41:44Z</time>
      </trkpt>
      <trkpt lat="44.004" lon="2.95666">
        <ele>417.4</ele>
        <time>2015-04-05T18:41:45Z</time>
      </trkpt>
      <trkpt lat="44.00409" lon="2.9568">
        <ele>416.5</ele>
        <time>2015-04-05T18:41:46Z</time>
      </trkpt>
      <trkpt lat="44.00418" lon="2.95693">
        <ele>415.6</ele>
        <time>2015-04-05T18:41:47Z</time>
      </trkpt>
      <trkpt lat="44.00426" lon="2.95707">
        <ele>414.8</ele>
        <time>2015-04-05T18:41:48Z</time>
      </trkpt>
      <trkpt lat="44.00434" lon="2.9572">
        <ele>414.4</ele>
        <time>2015-04-05T18:41:49Z</time>
      </trkpt>
      <trkpt lat="44.00441" lon="2.95733">
        <ele>413.6</ele>
        <time>2015-04-05T18:41:50Z</time>
      </trkpt>
      <trkpt lat="44.00446" lon="2.95748">
        <ele>412.6</ele>
        <time>2015-04-05T18:41:51Z</time>
      </trkpt>
      <trkpt lat="44.00451" lon="2.95763">
        <ele>411.5</ele>
        <time>2015-04-05T18:41:52Z</time>
      </trkpt>
      <trkpt lat="44.00453" lon="2.95779">
        <ele>410.5</ele>
        <time>2015-04-05T18:41:53Z</time>
      </trkpt>
      <trkpt lat="44.00455" lon="2.95794">
        <ele>409.7</ele>
        <time>2015-04-05T18:41:54Z</time>
      </trkpt>
      <trkpt lat="44.00454" lon="2.9581">
        <ele>408.8</ele>
        <time>2015-04-05T18:41:55Z</time>
      </trkpt>
      <trkpt lat="44.00451" lon="2.95826">
        <ele>407.9</ele>
        <time>2015-04-05T18:41:56Z</time>
      </trkpt>
      <trkpt lat="44.00447" lon="2.95841">
        <ele>407.1</ele>
        <time>2015-04-05T18:41:57Z</time>
      </trkpt>
      <trkpt lat="44.00442" lon="2.95855">
        <ele>406.2</ele>
        <time>2015-04-05T18:41:58Z</time>
      </trkpt>
      <trkpt lat="44.00437" lon="2.9587">
        <ele>405.3</ele>
        <time>2015-04-05T18:41:59Z</time>
      </trkpt>
      <trkpt lat="44.00434" lon="2.95885">
        <ele>404.5</ele>
        <time>2015-04-05T18:42:00Z</time>
      </trkpt>
      <trkpt lat="44.00431" lon="2.959">
        <ele>403.7</ele>
        <time>2015-04-05T18:42:01Z</time>
      </trkpt>
      <trkpt lat="44.0043" lon="2.95915">
        <ele>403</ele>
        <time>2015-04-05T18:42:02Z</time>
      </trkpt>
      <trkpt lat="44.00431" lon="2.9593">
        <ele>402.1</ele>
        <time>2015-04-05T18:42:03Z</time>
      </trkpt>
      <trkpt lat="44.00434" lon="2.95944">
        <ele>401.4</ele>
        <time>2015-04-05T18:42:04Z</time>
      </trkpt>
      <trkpt lat="44.00439" lon="2.95959">
        <ele>400.7</ele>
        <time>2015-04-05T18:42:05Z</time>
      </trkpt>
      <trkpt lat="44.00447" lon="2.95972">
        <ele>400</ele>
        <time>2015-04-05T18:42:06Z</time>
      </trkpt>
      <trkpt lat="44.00455" lon="2.95984">
        <ele>399.2</ele>
        <time>2015-04-05T18:42:07Z</time>
      </trkpt>
      <trkpt lat="44.00464" lon="2.95996">
        <ele>398.3</ele>
        <time>2015-04-05T18:42:08Z</time>
      </trkpt>
      <trkpt lat="44.00474" lon="2.96007">
        <ele>397.5</ele>
        <time>2015-04-05T18:42:09Z</time>
      </trkpt>
      <trkpt lat="44.00483" lon="2.96019">
        <ele>396.8</ele>
        <time>2015-04-05T18:42:10Z</time>
      </trkpt>
      <trkpt lat="44.00492" lon="2.96031">
        <ele>396.1</ele>
        <time>2015-04-05T18:42:11Z</time>
      </trkpt>
      <trkpt lat="44.005" lon="2.96044">
        <ele>395.2</ele>
        <time>2015-04-05T18:42:12Z</time>
      </trkpt>
      <trkpt lat="44.00507" lon="2.96056">
        <ele>394.5</ele>
        <time>2015-04-05T18:42:13Z</time>
      </trkpt>
      <trkpt lat="44.00514" lon="2.96068">
        <ele>393.7</ele>
        <time>2015-04-05T18:42:14Z</time>
      </trkpt>
      <trkpt lat="44.0052" lon="2.9608">
        <ele>392.9</ele>
        <time>2015-04-05T18:42:15Z</time>
      </trkpt>
      <trkpt lat="44.00525" lon="2.96093">
        <ele>392</ele>
        <time>2015-04-05T18:42:16Z</time>
      </trkpt>
      <trkpt lat="44.00529" lon="2.96106">
        <ele>391.3</ele>
        <time>2015-04-05T18:42:17Z</time>
      </trkpt>
      <trkpt lat="44.00531" lon="2.96121">
        <ele>390.7</ele>
        <time>2015-04-05T18:42:18Z</time>
      </trkpt>
      <trkpt lat="44.00533" lon="2.96135">
        <ele>390</ele>
        <time>2015-04-05T18:42:19Z</time>
      </trkpt>
      <trkpt lat="44.00533" lon="2.9615">
        <ele>389.4</ele>
        <time>2015-04-05T18:42:20Z</time>
      </trkpt>
      <trkpt lat="44.00532" lon="2.96165">
        <ele>388.8</ele>
        <time>2015-04-05T18:42:21Z</time>
      </trkpt>
      <trkpt lat="44.00531" lon="2.96181">
        <ele>388.1</ele>
        <time>2015-04-05T18:42:22Z</time>
      </trkpt>
      <trkpt lat="44.0053" lon="2.96196">
        <ele>387.4</ele>
        <time>2015-04-05T18:42:23Z</time>
      </trkpt>
      <trkpt lat="44.00529" lon="2.96212">
        <ele>386.7</ele>
        <time>2015-04-05T18:42:24Z</time>
      </trkpt>
      <trkpt lat="44.00529" lon="2.96227">
        <ele>385.9</ele>
        <time>2015-04-05T18:42:25Z</time>
      </trkpt>
      <trkpt lat="44.0053" lon="2.96243">
        <ele>385.1</ele>
        <time>2015-04-05T18:42:26Z</time>
      </trkpt>
      <trkpt lat="44.00532" lon="2.96259">
        <ele>384.3</ele>
        <time>2015-04-05T18:42:27Z</time>
      </trkpt>
      <trkpt lat="44.00534" lon="2.96275">
        <ele>383.6</ele>
        <time>2015-04-05T18:42:28Z</time>
      </trkpt>
      <trkpt lat="44.00538" lon="2.9629">
        <ele>382.9</ele>
        <time>2015-04-05T18:42:29Z</time>
      </trkpt>
      <trkpt lat="44.00541" lon="2.96304">
        <ele>382.3</ele>
        <time>2015-04-05T18:42:30Z</time>
      </trkpt>
      <trkpt lat="44.00545" lon="2.96316">
        <ele>381.5</ele>
        <time>2015-04-05T18:42:31Z</time>
      </trkpt>
      <trkpt lat="44.00549" lon="2.96327">
        <ele>380.7</ele>
        <time>2015-04-05T18:42:32Z</time>
      </trkpt>
      <trkpt lat="44.00557" lon="2.96348">
        <ele>379</ele>
        <time>2015-04-05T18:42:34Z</time>
      </trkpt>
      <trkpt lat="44.00565" lon="2.96366">
        <ele>376.9</ele>
        <time>2015-04-05T18:42:36Z</time>
      </trkpt>
      <trkpt lat="44.00576" lon="2.96377">
        <ele>375.3</ele>
        <time>2015-04-05T18:42:38Z</time>
      </trkpt>
      <trkpt lat="44.00588" lon="2.96381">
        <ele>374.5</ele>
        <time>2015-04-05T18:42:40Z</time>
      </trkpt>
      <trkpt lat="44.00602" lon="2.9638">
        <ele>373.3</ele>
        <time>2015-04-05T18:42:42Z</time>
      </trkpt>
      <trkpt lat="44.00616" lon="2.96378">
        <ele>372.2</ele>
        <time>2015-04-05T18:42:44Z</time>
      </trkpt>
      <trkpt lat="44.0063" lon="2.96375">
        <ele>371</ele>
        <time>2015-04-05T18:42:46Z</time>
      </trkpt>
      <trkpt lat="44.00645" lon="2.96372">
        <ele>370</ele>
        <time>2015-04-05T18:42:48Z</time>
      </trkpt>
      <trkpt lat="44.00661" lon="2.96368">
        <ele>369.1</ele>
        <time>2015-04-05T18:42:50Z</time>
      </trkpt>
      <trkpt lat="44.00677" lon="2.96362">
        <ele>368</ele>
        <time>2015-04-05T18:42:52Z</time>
      </trkpt>
      <trkpt lat="44.00686" lon="2.96358">
        <ele>367.5</ele>
        <time>2015-04-05T18:42:53Z</time>
      </trkpt>
      <trkpt lat="44.00703" lon="2.96351">
        <ele>366.4</ele>
        <time>2015-04-05T18:42:55Z</time>
      </trkpt>
      <trkpt lat="44.00721" lon="2.96345">
        <ele>365.2</ele>
        <time>2015-04-05T18:42:57Z</time>
      </trkpt>
      <trkpt lat="44.0073" lon="2.96342">
        <ele>364.6</ele>
        <time>2015-04-05T18:42:58Z</time>
      </trkpt>
      <trkpt lat="44.00738" lon="2.96339">
        <ele>363.9</ele>
        <time>2015-04-05T18:42:59Z</time>
      </trkpt>
      <trkpt lat="44.00755" lon="2.96334">
        <ele>362.5</ele>
        <time>2015-04-05T18:43:01Z</time>
      </trkpt>
      <trkpt lat="44.00771" lon="2.96329">
        <ele>361.3</ele>
        <time>2015-04-05T18:43:03Z</time>
      </trkpt>
      <trkpt lat="44.00785" lon="2.96325">
        <ele>359.9</ele>
        <time>2015-04-05T18:43:05Z</time>
      </trkpt>
      <trkpt lat="44.00798" lon="2.96321">
        <ele>358.5</ele>
        <time>2015-04-05T18:43:07Z</time>
      </trkpt>
      <trkpt lat="44.0081" lon="2.96318">
        <ele>357.6</ele>
        <time>2015-04-05T18:43:09Z</time>
      </trkpt>
      <trkpt lat="44.00822" lon="2.96315">
        <ele>356.5</ele>
        <time>2015-04-05T18:43:11Z</time>
      </trkpt>
      <trkpt lat="44.00834" lon="2.96314">
        <ele>355.2</ele>
        <time>2015-04-05T18:43:13Z</time>
      </trkpt>
      <trkpt lat="44.00844" lon="2.96313">
        <ele>354.5</ele>
        <time>2015-04-05T18:43:15Z</time>
      </trkpt>
      <trkpt lat="44.00854" lon="2.96314">
        <ele>354.6</ele>
        <time>2015-04-05T18:43:17Z</time>
      </trkpt>
      <trkpt lat="44.00866" lon="2.96316">
        <ele>352.3</ele>
        <time>2015-04-05T18:43:19Z</time>
      </trkpt>
      <trkpt lat="44.00876" lon="2.96318">
        <ele>352.9</ele>
        <time>2015-04-05T18:43:21Z</time>
      </trkpt>
      <trkpt lat="44.00885" lon="2.96319">
        <ele>352.6</ele>
        <time>2015-04-05T18:43:23Z</time>
      </trkpt>
      <trkpt lat="44.00898" lon="2.96322">
        <ele>351.8</ele>
        <time>2015-04-05T18:43:26Z</time>
      </trkpt>
      <trkpt lat="44.0091" lon="2.96324">
        <ele>351.1</ele>
        <time>2015-04-05T18:43:29Z</time>
      </trkpt>
      <trkpt lat="44.00919" lon="2.96322">
        <ele>350.9</ele>
        <time>2015-04-05T18:43:32Z</time>
      </trkpt>
      <trkpt lat="44.00929" lon="2.96321">
        <ele>350.5</ele>
        <time>2015-04-05T18:43:36Z</time>
      </trkpt>
      <trkpt lat="44.00936" lon="2.96329">
        <ele>351.6</ele>
        <time>2015-04-05T18:43:43Z</time>
      </trkpt>
      <trkpt lat="44.00945" lon="2.9633">
        <ele>352.2</ele>
        <time>2015-04-05T18:43:49Z</time>
      </trkpt>
      <trkpt lat="44.00954" lon="2.9633">
        <ele>350.1</ele>
        <time>2015-04-05T18:44:32Z</time>
      </trkpt>
      <trkpt lat="44.00965" lon="2.9633">
        <ele>350.3</ele>
        <time>2015-04-05T18:44:35Z</time>
      </trkpt>
      <trkpt lat="44.00976" lon="2.96329">
        <ele>350.6</ele>
        <time>2015-04-05T18:44:38Z</time>
      </trkpt>
      <trkpt lat="44.00988" lon="2.96326">
        <ele>350.6</ele>
        <time>2015-04-05T18:44:41Z</time>
      </trkpt>
      <trkpt lat="44.01" lon="2.96324">
        <ele>350.3</ele>
        <time>2015-04-05T18:44:44Z</time>
      </trkpt>
      <trkpt lat="44.01012" lon="2.96324">
        <ele>350.4</ele>
        <time>2015-04-05T18:44:47Z</time>
      </trkpt>
      <trkpt lat="44.01024" lon="2.96323">
        <ele>350.9</ele>
        <time>2015-04-05T18:44:51Z</time>
      </trkpt>
      <trkpt lat="44.01035" lon="2.96323">
        <ele>350.8</ele>
        <time>2015-04-05T18:44:54Z</time>
      </trkpt>
      <trkpt lat="44.01047" lon="2.96322">
        <ele>352</ele>
        <time>2015-04-05T18:44:57Z</time>
      </trkpt>
      <trkpt lat="44.0106" lon="2.96323">
        <ele>352.5</ele>
        <time>2015-04-05T18:45:00Z</time>
      </trkpt>
      <trkpt lat="44.01069" lon="2.96322">
        <ele>353.3</ele>
        <time>2015-04-05T18:45:02Z</time>
      </trkpt>
      <trkpt lat="44.01079" lon="2.96319">
        <ele>355.5</ele>
        <time>2015-04-05T18:45:05Z</time>
      </trkpt>
      <trkpt lat="44.01089" lon="2.96321">
        <ele>357.1</ele>
        <time>2015-04-05T18:45:09Z</time>
      </trkpt>
      <trkpt lat="44.011" lon="2.96322">
        <ele>359.2</ele>
        <time>2015-04-05T18:45:14Z</time>
      </trkpt>
      <trkpt lat="44.01112" lon="2.9632">
        <ele>361.5</ele>
        <time>2015-04-05T18:45:18Z</time>
      </trkpt>
      <trkpt lat="44.01124" lon="2.96318">
        <ele>361.9</ele>
        <time>2015-04-05T18:45:22Z</time>
      </trkpt>
      <trkpt lat="44.01135" lon="2.96322">
        <ele>363.1</ele>
        <time>2015-04-05T18:45:25Z</time>
      </trkpt>
      <trkpt lat="44.01145" lon="2.96329">
        <ele>365.1</ele>
        <time>2015-04-05T18:45:28Z</time>
      </trkpt>
      <trkpt lat="44.01156" lon="2.96332">
        <ele>365.2</ele>
        <time>2015-04-05T18:45:31Z</time>
      </trkpt>
      <trkpt lat="44.01168" lon="2.96337">
        <ele>365.2</ele>
        <time>2015-04-05T18:45:34Z</time>
      </trkpt>
      <trkpt lat="44.01176" lon="2.96346">
        <ele>363.7</ele>
        <time>2015-04-05T18:45:39Z</time>
      </trkpt>
      <trkpt lat="44.0118" lon="2.96359">
        <ele>360.3</ele>
        <time>2015-04-05T18:45:55Z</time>
      </trkpt>
      <trkpt lat="44.01185" lon="2.96372">
        <ele>360.5</ele>
        <time>2015-04-05T18:45:58Z</time>
      </trkpt>
      <trkpt lat="44.01193" lon="2.96383">
        <ele>360.5</ele>
        <time>2015-04-05T18:46:00Z</time>
      </trkpt>
      <trkpt lat="44.01202" lon="2.96392">
        <ele>360.2</ele>
        <time>2015-04-05T18:46:02Z</time>
      </trkpt>
      <trkpt lat="44.0121" lon="2.96402">
        <ele>359.9</ele>
        <time>2015-04-05T18:46:04Z</time>
      </trkpt>
      <trkpt lat="44.01217" lon="2.96415">
        <ele>360.8</ele>
        <time>2015-04-05T18:46:07Z</time>
      </trkpt>
      <trkpt lat="44.01214" lon="2.96432">
        <ele>361.5</ele>
        <time>2015-04-05T18:46:10Z</time>
      </trkpt>
      <trkpt lat="44.0121" lon="2.96445">
        <ele>361.7</ele>
        <time>2015-04-05T18:46:12Z</time>
      </trkpt>
      <trkpt lat="44.01206" lon="2.96458">
        <ele>362</ele>
        <time>2015-04-05T18:46:14Z</time>
      </trkpt>
      <trkpt lat="44.01203" lon="2.96472">
        <ele>362.5</ele>
        <time>2015-04-05T18:46:16Z</time>
      </trkpt>
      <trkpt lat="44.01203" lon="2.96488">
        <ele>363</ele>
        <time>2015-04-05T18:46:18Z</time>
      </trkpt>
      <trkpt lat="44.01198" lon="2.96499">
        <ele>363.9</ele>
        <time>2015-04-05T18:46:20Z</time>
      </trkpt>
      <trkpt lat="44.01195" lon="2.96513">
        <ele>364.8</ele>
        <time>2015-04-05T18:46:22Z</time>
      </trkpt>
      <trkpt lat="44.01191" lon="2.96525">
        <ele>365.4</ele>
        <time>2015-04-05T18:46:24Z</time>
      </trkpt>
      <trkpt lat="44.01188" lon="2.96537">
        <ele>365.3</ele>
        <time>2015-04-05T18:46:26Z</time>
      </trkpt>
      <trkpt lat="44.01183" lon="2.96552">
        <ele>364.6</ele>
        <time>2015-04-05T18:46:28Z</time>
      </trkpt>
      <trkpt lat="44.01178" lon="2.96565">
        <ele>363.4</ele>
        <time>2015-04-05T18:46:30Z</time>
      </trkpt>
      <trkpt lat="44.01174" lon="2.96577">
        <ele>363.1</ele>
        <time>2015-04-05T18:46:32Z</time>
      </trkpt>
      <trkpt lat="44.01172" lon="2.96592">
        <ele>362.6</ele>
        <time>2015-04-05T18:46:35Z</time>
      </trkpt>
      <trkpt lat="44.01174" lon="2.96604">
        <ele>360.3</ele>
        <time>2015-04-05T18:46:46Z</time>
      </trkpt>
      <trkpt lat="44.01172" lon="2.96617">
        <ele>360.8</ele>
        <time>2015-04-05T18:46:54Z</time>
      </trkpt>
      <trkpt lat="44.01177" lon="2.96629">
        <ele>361.8</ele>
        <time>2015-04-05T18:46:58Z</time>
      </trkpt>
      <trkpt lat="44.01185" lon="2.96637">
        <ele>362.8</ele>
        <time>2015-04-05T18:47:01Z</time>
      </trkpt>
      <trkpt lat="44.01196" lon="2.96642">
        <ele>364.1</ele>
        <time>2015-04-05T18:47:05Z</time>
      </trkpt>
      <trkpt lat="44.01205" lon="2.96647">
        <ele>365.2</ele>
        <time>2015-04-05T18:47:08Z</time>
      </trkpt>
      <trkpt lat="44.01216" lon="2.96653">
        <ele>366.6</ele>
        <time>2015-04-05T18:47:11Z</time>
      </trkpt>
      <trkpt lat="44.01227" lon="2.96659">
        <ele>367.6</ele>
        <time>2015-04-05T18:47:14Z</time>
      </trkpt>
      <trkpt lat="44.01238" lon="2.96667">
        <ele>368.6</ele>
        <time>2015-04-05T18:47:17Z</time>
      </trkpt>
      <trkpt lat="44.01251" lon="2.96673">
        <ele>369.2</ele>
        <time>2015-04-05T18:47:20Z</time>
      </trkpt>
      <trkpt lat="44.01262" lon="2.96679">
        <ele>370</ele>
        <time>2015-04-05T18:47:23Z</time>
      </trkpt>
      <trkpt lat="44.01275" lon="2.96686">
        <ele>367.4</ele>
        <time>2015-04-05T18:47:26Z</time>
      </trkpt>
      <trkpt lat="44.01284" lon="2.96691">
        <ele>365.7</ele>
        <time>2015-04-05T18:47:28Z</time>
      </trkpt>
      <trkpt lat="44.01294" lon="2.96699">
        <ele>363.5</ele>
        <time>2015-04-05T18:47:30Z</time>
      </trkpt>
      <trkpt lat="44.01303" lon="2.96706">
        <ele>362.5</ele>
        <time>2015-04-05T18:47:32Z</time>
      </trkpt>
      <trkpt lat="44.01314" lon="2.96711">
        <ele>361.9</ele>
        <time>2015-04-05T18:47:35Z</time>
      </trkpt>
      <trkpt lat="44.01324" lon="2.96711">
        <ele>362.1</ele>
        <time>2015-04-05T18:48:05Z</time>
      </trkpt>
      <trkpt lat="44.01335" lon="2.96716">
        <ele>362.1</ele>
        <time>2015-04-05T18:48:09Z</time>
      </trkpt>
      <trkpt lat="44.01345" lon="2.96723">
        <ele>362.2</ele>
        <time>2015-04-05T18:48:12Z</time>
      </trkpt>
      <trkpt lat="44.01356" lon="2.96731">
        <ele>360.9</ele>
        <time>2015-04-05T18:48:15Z</time>
      </trkpt>
      <trkpt lat="44.01367" lon="2.96739">
        <ele>358.2</ele>
        <time>2015-04-05T18:48:18Z</time>
      </trkpt>
      <trkpt lat="44.01375" lon="2.96747">
        <ele>357.1</ele>
        <time>2015-04-05T18:48:21Z</time>
      </trkpt>
      <trkpt lat="44.0138" lon="2.9676">
        <ele>357</ele>
        <time>2015-04-05T18:48:25Z</time>
      </trkpt>
      <trkpt lat="44.0138" lon="2.96746">
        <ele>355.2</ele>
        <time>2015-04-05T18:48:31Z</time>
      </trkpt>
      <trkpt lat="44.01369" lon="2.96738">
        <ele>354.5</ele>
        <time>2015-04-05T18:48:35Z</time>
      </trkpt>
      <trkpt lat="44.0136" lon="2.96732">
        <ele>353.9</ele>
        <time>2015-04-05T18:48:38Z</time>
      </trkpt>
      <trkpt lat="44.01351" lon="2.96726">
        <ele>353.4</ele>
        <time>2015-04-05T18:48:41Z</time>
      </trkpt>
      <trkpt lat="44.01341" lon="2.9672">
        <ele>353.1</ele>
        <time>2015-04-05T18:48:45Z</time>
      </trkpt>
      <trkpt lat="44.01332" lon="2.9672">
        <ele>353.1</ele>
        <time>2015-04-05T18:49:03Z</time>
      </trkpt>
      <trkpt lat="44.01338" lon="2.9673">
        <ele>354.2</ele>
        <time>2015-04-05T18:50:52Z</time>
      </trkpt>
      <trkpt lat="44.01347" lon="2.96733">
        <ele>354.4</ele>
        <time>2015-04-05T18:51:07Z</time>
      </trkpt>
      <trkpt lat="44.01337" lon="2.96728">
        <ele>354.4</ele>
        <time>2015-04-05T18:51:15Z</time>
      </trkpt>
      <trkpt lat="44.01324" lon="2.96724">
        <ele>354.4</ele>
        <time>2015-04-05T18:51:17Z</time>
      </trkpt>
      <trkpt lat="44.01327" lon="2.96725">
        <ele>354.5</ele>
        <time>2015-04-05T18:53:01Z</time>
      </trkpt>
    </trkseg>
  </trk>
</gpx>